<?xml version="1.0" encoding="utf-8"?>
<gpx xmlns:xsi="http://www.w3.org/2001/XMLSchema-instance" xmlns:xsd="http://www.w3.org/2001/XMLSchema" version="1.1" creator="Shapelink.com" xmlns="http://www.topografix.com/GPX/1/1" xmlns:gpxtpx="http://www.garmin.com/xmlschemas/TrackPointExtension/v1">
  <metadata>
    <name>Cykling 52.95 km, 2015-05-05</name>
    <desc></desc>
    <author><name>Alexander Engvall</name></author> 
    <time>2015-05-05T18:21:02Z</time>
  </metadata>
  <trk>
    <name>Cykling 52.95 km, 2015-05-05</name>
    <trkseg>
      <trkpt lat="59.326163" lon="17.878504">
        <ele>11.1</ele>
        <time>2015-05-05T18:21:02Z</time>
      </trkpt>
      <trkpt lat="59.326183" lon="17.87844">
        <ele>11.1</ele>
        <time>2015-05-05T18:21:04Z</time>
      </trkpt>
      <trkpt lat="59.326203" lon="17.878357">
        <ele>11.2</ele>
        <time>2015-05-05T18:21:08Z</time>
      </trkpt>
      <trkpt lat="59.326193" lon="17.878283">
        <ele>11.4</ele>
        <time>2015-05-05T18:21:09Z</time>
      </trkpt>
      <trkpt lat="59.326203" lon="17.87823">
        <ele>11.5</ele>
        <time>2015-05-05T18:21:10Z</time>
      </trkpt>
      <trkpt lat="59.326223" lon="17.878189">
        <ele>11.5</ele>
        <time>2015-05-05T18:21:11Z</time>
      </trkpt>
      <trkpt lat="59.326257" lon="17.878173">
        <ele>11.4</ele>
        <time>2015-05-05T18:21:12Z</time>
      </trkpt>
      <trkpt lat="59.326278" lon="17.878139">
        <ele>11.4</ele>
        <time>2015-05-05T18:21:13Z</time>
      </trkpt>
      <trkpt lat="59.326305" lon="17.878127">
        <ele>11.4</ele>
        <time>2015-05-05T18:21:14Z</time>
      </trkpt>
      <trkpt lat="59.326333" lon="17.878128">
        <ele>11.4</ele>
        <time>2015-05-05T18:21:15Z</time>
      </trkpt>
      <trkpt lat="59.326361" lon="17.878136">
        <ele>11.4</ele>
        <time>2015-05-05T18:21:16Z</time>
      </trkpt>
      <trkpt lat="59.326384" lon="17.878166">
        <ele>11.3</ele>
        <time>2015-05-05T18:21:17Z</time>
      </trkpt>
      <trkpt lat="59.326406" lon="17.878204">
        <ele>11.2</ele>
        <time>2015-05-05T18:21:18Z</time>
      </trkpt>
      <trkpt lat="59.326432" lon="17.878229">
        <ele>11.1</ele>
        <time>2015-05-05T18:21:19Z</time>
      </trkpt>
      <trkpt lat="59.326464" lon="17.878233">
        <ele>11.1</ele>
        <time>2015-05-05T18:21:20Z</time>
      </trkpt>
      <trkpt lat="59.326499" lon="17.878227">
        <ele>11.1</ele>
        <time>2015-05-05T18:21:21Z</time>
      </trkpt>
      <trkpt lat="59.326541" lon="17.878225">
        <ele>11</ele>
        <time>2015-05-05T18:21:22Z</time>
      </trkpt>
      <trkpt lat="59.326581" lon="17.878215">
        <ele>11</ele>
        <time>2015-05-05T18:21:23Z</time>
      </trkpt>
      <trkpt lat="59.326619" lon="17.878191">
        <ele>11</ele>
        <time>2015-05-05T18:21:24Z</time>
      </trkpt>
      <trkpt lat="59.326656" lon="17.87816">
        <ele>11.1</ele>
        <time>2015-05-05T18:21:25Z</time>
      </trkpt>
      <trkpt lat="59.326693" lon="17.878128">
        <ele>11.1</ele>
        <time>2015-05-05T18:21:26Z</time>
      </trkpt>
      <trkpt lat="59.326731" lon="17.878101">
        <ele>11.1</ele>
        <time>2015-05-05T18:21:27Z</time>
      </trkpt>
      <trkpt lat="59.326769" lon="17.878073">
        <ele>11.1</ele>
        <time>2015-05-05T18:21:28Z</time>
      </trkpt>
      <trkpt lat="59.326807" lon="17.878045">
        <ele>11.1</ele>
        <time>2015-05-05T18:21:29Z</time>
      </trkpt>
      <trkpt lat="59.326849" lon="17.878015">
        <ele>11.1</ele>
        <time>2015-05-05T18:21:30Z</time>
      </trkpt>
      <trkpt lat="59.326891" lon="17.877985">
        <ele>11.1</ele>
        <time>2015-05-05T18:21:31Z</time>
      </trkpt>
      <trkpt lat="59.326954" lon="17.877921">
        <ele>11.1</ele>
        <time>2015-05-05T18:21:32Z</time>
      </trkpt>
      <trkpt lat="59.326996" lon="17.87789">
        <ele>11.1</ele>
        <time>2015-05-05T18:21:33Z</time>
      </trkpt>
      <trkpt lat="59.327042" lon="17.877859">
        <ele>11.1</ele>
        <time>2015-05-05T18:21:34Z</time>
      </trkpt>
      <trkpt lat="59.327082" lon="17.877816">
        <ele>11.1</ele>
        <time>2015-05-05T18:21:35Z</time>
      </trkpt>
      <trkpt lat="59.327123" lon="17.877772">
        <ele>11.3</ele>
        <time>2015-05-05T18:21:36Z</time>
      </trkpt>
      <trkpt lat="59.327172" lon="17.877725">
        <ele>11.4</ele>
        <time>2015-05-05T18:21:37Z</time>
      </trkpt>
      <trkpt lat="59.327209" lon="17.87766">
        <ele>11.6</ele>
        <time>2015-05-05T18:21:38Z</time>
      </trkpt>
      <trkpt lat="59.327243" lon="17.877609">
        <ele>11.7</ele>
        <time>2015-05-05T18:21:39Z</time>
      </trkpt>
      <trkpt lat="59.327281" lon="17.877533">
        <ele>11.8</ele>
        <time>2015-05-05T18:21:40Z</time>
      </trkpt>
      <trkpt lat="59.327319" lon="17.877457">
        <ele>12</ele>
        <time>2015-05-05T18:21:41Z</time>
      </trkpt>
      <trkpt lat="59.327357" lon="17.877385">
        <ele>12.1</ele>
        <time>2015-05-05T18:21:42Z</time>
      </trkpt>
      <trkpt lat="59.327396" lon="17.877297">
        <ele>12.2</ele>
        <time>2015-05-05T18:21:43Z</time>
      </trkpt>
      <trkpt lat="59.327428" lon="17.877204">
        <ele>12.3</ele>
        <time>2015-05-05T18:21:44Z</time>
      </trkpt>
      <trkpt lat="59.327462" lon="17.877109">
        <ele>12.4</ele>
        <time>2015-05-05T18:21:45Z</time>
      </trkpt>
      <trkpt lat="59.328267" lon="17.874215">
        <ele>17.9</ele>
        <time>2015-05-05T18:22:10Z</time>
      </trkpt>
      <trkpt lat="59.328368" lon="17.873993">
        <ele>17.9</ele>
        <time>2015-05-05T18:22:12Z</time>
      </trkpt>
      <trkpt lat="59.328389" lon="17.873903">
        <ele>18</ele>
        <time>2015-05-05T18:22:13Z</time>
      </trkpt>
      <trkpt lat="59.328418" lon="17.873773">
        <ele>18.2</ele>
        <time>2015-05-05T18:22:14Z</time>
      </trkpt>
      <trkpt lat="59.328452" lon="17.873666">
        <ele>18.6</ele>
        <time>2015-05-05T18:22:15Z</time>
      </trkpt>
      <trkpt lat="59.328489" lon="17.873539">
        <ele>19.2</ele>
        <time>2015-05-05T18:22:16Z</time>
      </trkpt>
      <trkpt lat="59.328509" lon="17.873451">
        <ele>19.6</ele>
        <time>2015-05-05T18:22:17Z</time>
      </trkpt>
      <trkpt lat="59.328544" lon="17.873333">
        <ele>20.1</ele>
        <time>2015-05-05T18:22:18Z</time>
      </trkpt>
      <trkpt lat="59.328579" lon="17.873215">
        <ele>20.6</ele>
        <time>2015-05-05T18:22:19Z</time>
      </trkpt>
      <trkpt lat="59.3286" lon="17.873084">
        <ele>21.2</ele>
        <time>2015-05-05T18:22:20Z</time>
      </trkpt>
      <trkpt lat="59.328634" lon="17.872966">
        <ele>21.6</ele>
        <time>2015-05-05T18:22:21Z</time>
      </trkpt>
      <trkpt lat="59.328662" lon="17.872827">
        <ele>22.1</ele>
        <time>2015-05-05T18:22:22Z</time>
      </trkpt>
      <trkpt lat="59.328701" lon="17.87269">
        <ele>22.5</ele>
        <time>2015-05-05T18:22:23Z</time>
      </trkpt>
      <trkpt lat="59.32874" lon="17.872578">
        <ele>22.7</ele>
        <time>2015-05-05T18:22:24Z</time>
      </trkpt>
      <trkpt lat="59.328775" lon="17.872466">
        <ele>23.1</ele>
        <time>2015-05-05T18:22:25Z</time>
      </trkpt>
      <trkpt lat="59.328809" lon="17.872344">
        <ele>23.6</ele>
        <time>2015-05-05T18:22:26Z</time>
      </trkpt>
      <trkpt lat="59.328848" lon="17.872219">
        <ele>24.1</ele>
        <time>2015-05-05T18:22:27Z</time>
      </trkpt>
      <trkpt lat="59.330137" lon="17.869547">
        <ele>24.1</ele>
        <time>2015-05-05T18:22:53Z</time>
      </trkpt>
      <trkpt lat="59.330191" lon="17.869348">
        <ele>23.9</ele>
        <time>2015-05-05T18:22:54Z</time>
      </trkpt>
      <trkpt lat="59.330215" lon="17.869175">
        <ele>23.9</ele>
        <time>2015-05-05T18:22:55Z</time>
      </trkpt>
      <trkpt lat="59.330247" lon="17.869011">
        <ele>23.9</ele>
        <time>2015-05-05T18:22:56Z</time>
      </trkpt>
      <trkpt lat="59.33027" lon="17.868862">
        <ele>23.9</ele>
        <time>2015-05-05T18:22:57Z</time>
      </trkpt>
      <trkpt lat="59.330272" lon="17.868685">
        <ele>24.2</ele>
        <time>2015-05-05T18:22:58Z</time>
      </trkpt>
      <trkpt lat="59.330277" lon="17.868527">
        <ele>24.5</ele>
        <time>2015-05-05T18:22:59Z</time>
      </trkpt>
      <trkpt lat="59.330291" lon="17.868378">
        <ele>24.7</ele>
        <time>2015-05-05T18:23:00Z</time>
      </trkpt>
      <trkpt lat="59.330315" lon="17.86821">
        <ele>24.9</ele>
        <time>2015-05-05T18:23:01Z</time>
      </trkpt>
      <trkpt lat="59.330334" lon="17.868046">
        <ele>25.1</ele>
        <time>2015-05-05T18:23:02Z</time>
      </trkpt>
      <trkpt lat="59.33035" lon="17.867889">
        <ele>25.4</ele>
        <time>2015-05-05T18:23:03Z</time>
      </trkpt>
      <trkpt lat="59.330353" lon="17.867714">
        <ele>25.5</ele>
        <time>2015-05-05T18:23:04Z</time>
      </trkpt>
      <trkpt lat="59.330391" lon="17.867511">
        <ele>25.6</ele>
        <time>2015-05-05T18:23:05Z</time>
      </trkpt>
      <trkpt lat="59.330407" lon="17.867352">
        <ele>25.7</ele>
        <time>2015-05-05T18:23:06Z</time>
      </trkpt>
      <trkpt lat="59.330426" lon="17.867174">
        <ele>25.8</ele>
        <time>2015-05-05T18:23:07Z</time>
      </trkpt>
      <trkpt lat="59.330435" lon="17.86701">
        <ele>26.1</ele>
        <time>2015-05-05T18:23:08Z</time>
      </trkpt>
      <trkpt lat="59.330451" lon="17.866847">
        <ele>26.5</ele>
        <time>2015-05-05T18:23:09Z</time>
      </trkpt>
      <trkpt lat="59.330456" lon="17.866689">
        <ele>27</ele>
        <time>2015-05-05T18:23:10Z</time>
      </trkpt>
      <trkpt lat="59.330478" lon="17.866525">
        <ele>27.3</ele>
        <time>2015-05-05T18:23:11Z</time>
      </trkpt>
      <trkpt lat="59.330495" lon="17.866369">
        <ele>27.6</ele>
        <time>2015-05-05T18:23:12Z</time>
      </trkpt>
      <trkpt lat="59.330518" lon="17.866225">
        <ele>27.8</ele>
        <time>2015-05-05T18:23:13Z</time>
      </trkpt>
      <trkpt lat="59.330531" lon="17.86607">
        <ele>28</ele>
        <time>2015-05-05T18:23:14Z</time>
      </trkpt>
      <trkpt lat="59.330549" lon="17.865908">
        <ele>28.2</ele>
        <time>2015-05-05T18:23:15Z</time>
      </trkpt>
      <trkpt lat="59.330563" lon="17.865752">
        <ele>28.3</ele>
        <time>2015-05-05T18:23:16Z</time>
      </trkpt>
      <trkpt lat="59.330579" lon="17.865585">
        <ele>28.5</ele>
        <time>2015-05-05T18:23:17Z</time>
      </trkpt>
      <trkpt lat="59.330593" lon="17.865434">
        <ele>28.6</ele>
        <time>2015-05-05T18:23:18Z</time>
      </trkpt>
      <trkpt lat="59.330605" lon="17.865271">
        <ele>29</ele>
        <time>2015-05-05T18:23:19Z</time>
      </trkpt>
      <trkpt lat="59.33062" lon="17.86512">
        <ele>29.3</ele>
        <time>2015-05-05T18:23:20Z</time>
      </trkpt>
      <trkpt lat="59.330634" lon="17.864973">
        <ele>29.6</ele>
        <time>2015-05-05T18:23:21Z</time>
      </trkpt>
      <trkpt lat="59.330644" lon="17.864815">
        <ele>30</ele>
        <time>2015-05-05T18:23:22Z</time>
      </trkpt>
      <trkpt lat="59.330659" lon="17.864655">
        <ele>30.3</ele>
        <time>2015-05-05T18:23:23Z</time>
      </trkpt>
      <trkpt lat="59.330675" lon="17.864501">
        <ele>30.5</ele>
        <time>2015-05-05T18:23:24Z</time>
      </trkpt>
      <trkpt lat="59.330701" lon="17.864304">
        <ele>30.7</ele>
        <time>2015-05-05T18:23:25Z</time>
      </trkpt>
      <trkpt lat="59.330722" lon="17.864132">
        <ele>30.8</ele>
        <time>2015-05-05T18:23:26Z</time>
      </trkpt>
      <trkpt lat="59.330744" lon="17.863963">
        <ele>30.9</ele>
        <time>2015-05-05T18:23:27Z</time>
      </trkpt>
      <trkpt lat="59.330768" lon="17.863806">
        <ele>31</ele>
        <time>2015-05-05T18:23:28Z</time>
      </trkpt>
      <trkpt lat="59.330794" lon="17.863626">
        <ele>31</ele>
        <time>2015-05-05T18:23:29Z</time>
      </trkpt>
      <trkpt lat="59.330818" lon="17.863462">
        <ele>31.1</ele>
        <time>2015-05-05T18:23:30Z</time>
      </trkpt>
      <trkpt lat="59.330837" lon="17.863292">
        <ele>31.3</ele>
        <time>2015-05-05T18:23:31Z</time>
      </trkpt>
      <trkpt lat="59.330852" lon="17.863122">
        <ele>31.6</ele>
        <time>2015-05-05T18:23:32Z</time>
      </trkpt>
      <trkpt lat="59.330867" lon="17.862949">
        <ele>31.9</ele>
        <time>2015-05-05T18:23:33Z</time>
      </trkpt>
      <trkpt lat="59.33089" lon="17.86278">
        <ele>32</ele>
        <time>2015-05-05T18:23:34Z</time>
      </trkpt>
      <trkpt lat="59.330915" lon="17.862614">
        <ele>32.2</ele>
        <time>2015-05-05T18:23:35Z</time>
      </trkpt>
      <trkpt lat="59.330938" lon="17.862441">
        <ele>32.4</ele>
        <time>2015-05-05T18:23:36Z</time>
      </trkpt>
      <trkpt lat="59.330968" lon="17.862283">
        <ele>32.4</ele>
        <time>2015-05-05T18:23:37Z</time>
      </trkpt>
      <trkpt lat="59.33099" lon="17.862108">
        <ele>32.7</ele>
        <time>2015-05-05T18:23:38Z</time>
      </trkpt>
      <trkpt lat="59.331007" lon="17.861939">
        <ele>32.8</ele>
        <time>2015-05-05T18:23:39Z</time>
      </trkpt>
      <trkpt lat="59.331031" lon="17.861785">
        <ele>32.9</ele>
        <time>2015-05-05T18:23:40Z</time>
      </trkpt>
      <trkpt lat="59.331046" lon="17.861627">
        <ele>33</ele>
        <time>2015-05-05T18:23:41Z</time>
      </trkpt>
      <trkpt lat="59.331065" lon="17.861454">
        <ele>33.3</ele>
        <time>2015-05-05T18:23:42Z</time>
      </trkpt>
      <trkpt lat="59.331085" lon="17.861303">
        <ele>33.4</ele>
        <time>2015-05-05T18:23:43Z</time>
      </trkpt>
      <trkpt lat="59.33111" lon="17.861116">
        <ele>33.6</ele>
        <time>2015-05-05T18:23:44Z</time>
      </trkpt>
      <trkpt lat="59.331129" lon="17.860963">
        <ele>33.8</ele>
        <time>2015-05-05T18:23:45Z</time>
      </trkpt>
      <trkpt lat="59.331145" lon="17.860799">
        <ele>34</ele>
        <time>2015-05-05T18:23:46Z</time>
      </trkpt>
      <trkpt lat="59.331168" lon="17.860643">
        <ele>34.1</ele>
        <time>2015-05-05T18:23:47Z</time>
      </trkpt>
      <trkpt lat="59.331188" lon="17.860491">
        <ele>34.3</ele>
        <time>2015-05-05T18:23:48Z</time>
      </trkpt>
      <trkpt lat="59.331211" lon="17.860339">
        <ele>34.4</ele>
        <time>2015-05-05T18:23:49Z</time>
      </trkpt>
      <trkpt lat="59.331222" lon="17.860166">
        <ele>34.8</ele>
        <time>2015-05-05T18:23:50Z</time>
      </trkpt>
      <trkpt lat="59.331239" lon="17.860016">
        <ele>35</ele>
        <time>2015-05-05T18:23:51Z</time>
      </trkpt>
      <trkpt lat="59.331261" lon="17.859868">
        <ele>35.1</ele>
        <time>2015-05-05T18:23:52Z</time>
      </trkpt>
      <trkpt lat="59.331285" lon="17.859713">
        <ele>35.1</ele>
        <time>2015-05-05T18:23:53Z</time>
      </trkpt>
      <trkpt lat="59.331308" lon="17.859556">
        <ele>35.1</ele>
        <time>2015-05-05T18:23:54Z</time>
      </trkpt>
      <trkpt lat="59.331327" lon="17.859358">
        <ele>35.1</ele>
        <time>2015-05-05T18:23:55Z</time>
      </trkpt>
      <trkpt lat="59.331347" lon="17.859204">
        <ele>35</ele>
        <time>2015-05-05T18:23:56Z</time>
      </trkpt>
      <trkpt lat="59.331358" lon="17.859039">
        <ele>35.1</ele>
        <time>2015-05-05T18:23:57Z</time>
      </trkpt>
      <trkpt lat="59.331374" lon="17.858874">
        <ele>35</ele>
        <time>2015-05-05T18:23:58Z</time>
      </trkpt>
      <trkpt lat="59.331393" lon="17.858725">
        <ele>34.9</ele>
        <time>2015-05-05T18:23:59Z</time>
      </trkpt>
      <trkpt lat="59.331411" lon="17.858566">
        <ele>34.4</ele>
        <time>2015-05-05T18:24:00Z</time>
      </trkpt>
      <trkpt lat="59.331436" lon="17.858416">
        <ele>33.9</ele>
        <time>2015-05-05T18:24:01Z</time>
      </trkpt>
      <trkpt lat="59.331457" lon="17.858257">
        <ele>33.4</ele>
        <time>2015-05-05T18:24:02Z</time>
      </trkpt>
      <trkpt lat="59.331482" lon="17.858098">
        <ele>33</ele>
        <time>2015-05-05T18:24:03Z</time>
      </trkpt>
      <trkpt lat="59.331502" lon="17.857944">
        <ele>32.6</ele>
        <time>2015-05-05T18:24:04Z</time>
      </trkpt>
      <trkpt lat="59.331515" lon="17.8578">
        <ele>32.4</ele>
        <time>2015-05-05T18:24:05Z</time>
      </trkpt>
      <trkpt lat="59.33154" lon="17.857632">
        <ele>32.1</ele>
        <time>2015-05-05T18:24:06Z</time>
      </trkpt>
      <trkpt lat="59.331562" lon="17.857474">
        <ele>31.9</ele>
        <time>2015-05-05T18:24:07Z</time>
      </trkpt>
      <trkpt lat="59.331577" lon="17.857327">
        <ele>31.7</ele>
        <time>2015-05-05T18:24:08Z</time>
      </trkpt>
      <trkpt lat="59.331594" lon="17.85717">
        <ele>31.5</ele>
        <time>2015-05-05T18:24:09Z</time>
      </trkpt>
      <trkpt lat="59.331612" lon="17.857013">
        <ele>31.5</ele>
        <time>2015-05-05T18:24:10Z</time>
      </trkpt>
      <trkpt lat="59.33162" lon="17.856852">
        <ele>31.6</ele>
        <time>2015-05-05T18:24:11Z</time>
      </trkpt>
      <trkpt lat="59.331634" lon="17.856687">
        <ele>31.7</ele>
        <time>2015-05-05T18:24:12Z</time>
      </trkpt>
      <trkpt lat="59.33165" lon="17.856534">
        <ele>31.8</ele>
        <time>2015-05-05T18:24:13Z</time>
      </trkpt>
      <trkpt lat="59.331662" lon="17.856382">
        <ele>31.9</ele>
        <time>2015-05-05T18:24:14Z</time>
      </trkpt>
      <trkpt lat="59.331682" lon="17.856215">
        <ele>31.9</ele>
        <time>2015-05-05T18:24:15Z</time>
      </trkpt>
      <trkpt lat="59.331688" lon="17.856046">
        <ele>32.1</ele>
        <time>2015-05-05T18:24:16Z</time>
      </trkpt>
      <trkpt lat="59.331709" lon="17.855869">
        <ele>32.2</ele>
        <time>2015-05-05T18:24:17Z</time>
      </trkpt>
      <trkpt lat="59.331727" lon="17.855696">
        <ele>32.2</ele>
        <time>2015-05-05T18:24:18Z</time>
      </trkpt>
      <trkpt lat="59.331748" lon="17.855522">
        <ele>32.3</ele>
        <time>2015-05-05T18:24:19Z</time>
      </trkpt>
      <trkpt lat="59.331766" lon="17.855387">
        <ele>32.3</ele>
        <time>2015-05-05T18:24:20Z</time>
      </trkpt>
      <trkpt lat="59.331788" lon="17.855222">
        <ele>32.1</ele>
        <time>2015-05-05T18:24:21Z</time>
      </trkpt>
      <trkpt lat="59.331809" lon="17.855064">
        <ele>31.8</ele>
        <time>2015-05-05T18:24:22Z</time>
      </trkpt>
      <trkpt lat="59.331816" lon="17.854909">
        <ele>31.7</ele>
        <time>2015-05-05T18:24:23Z</time>
      </trkpt>
      <trkpt lat="59.331831" lon="17.85474">
        <ele>31.5</ele>
        <time>2015-05-05T18:24:24Z</time>
      </trkpt>
      <trkpt lat="59.331846" lon="17.854572">
        <ele>31.3</ele>
        <time>2015-05-05T18:24:25Z</time>
      </trkpt>
      <trkpt lat="59.331824" lon="17.854396">
        <ele>31.5</ele>
        <time>2015-05-05T18:24:26Z</time>
      </trkpt>
      <trkpt lat="59.33183" lon="17.854175">
        <ele>31.4</ele>
        <time>2015-05-05T18:24:27Z</time>
      </trkpt>
      <trkpt lat="59.331814" lon="17.854018">
        <ele>31.6</ele>
        <time>2015-05-05T18:24:28Z</time>
      </trkpt>
      <trkpt lat="59.331796" lon="17.853845">
        <ele>31.8</ele>
        <time>2015-05-05T18:24:29Z</time>
      </trkpt>
      <trkpt lat="59.331777" lon="17.853682">
        <ele>31.9</ele>
        <time>2015-05-05T18:24:30Z</time>
      </trkpt>
      <trkpt lat="59.331752" lon="17.853544">
        <ele>32.1</ele>
        <time>2015-05-05T18:24:31Z</time>
      </trkpt>
      <trkpt lat="59.331733" lon="17.853392">
        <ele>32.3</ele>
        <time>2015-05-05T18:24:32Z</time>
      </trkpt>
      <trkpt lat="59.33172" lon="17.853272">
        <ele>32.4</ele>
        <time>2015-05-05T18:24:33Z</time>
      </trkpt>
      <trkpt lat="59.331698" lon="17.853148">
        <ele>32.6</ele>
        <time>2015-05-05T18:24:34Z</time>
      </trkpt>
      <trkpt lat="59.331686" lon="17.853032">
        <ele>32.8</ele>
        <time>2015-05-05T18:24:35Z</time>
      </trkpt>
      <trkpt lat="59.331669" lon="17.852909">
        <ele>33</ele>
        <time>2015-05-05T18:24:36Z</time>
      </trkpt>
      <trkpt lat="59.33164" lon="17.852795">
        <ele>33.3</ele>
        <time>2015-05-05T18:24:37Z</time>
      </trkpt>
      <trkpt lat="59.33162" lon="17.852679">
        <ele>33.6</ele>
        <time>2015-05-05T18:24:38Z</time>
      </trkpt>
      <trkpt lat="59.331587" lon="17.852508">
        <ele>34</ele>
        <time>2015-05-05T18:24:39Z</time>
      </trkpt>
      <trkpt lat="59.331563" lon="17.852351">
        <ele>34.2</ele>
        <time>2015-05-05T18:24:40Z</time>
      </trkpt>
      <trkpt lat="59.331538" lon="17.8522">
        <ele>34.5</ele>
        <time>2015-05-05T18:24:41Z</time>
      </trkpt>
      <trkpt lat="59.331514" lon="17.85203">
        <ele>34.7</ele>
        <time>2015-05-05T18:24:42Z</time>
      </trkpt>
      <trkpt lat="59.331501" lon="17.851871">
        <ele>34.6</ele>
        <time>2015-05-05T18:24:43Z</time>
      </trkpt>
      <trkpt lat="59.33149" lon="17.851722">
        <ele>34.5</ele>
        <time>2015-05-05T18:24:44Z</time>
      </trkpt>
      <trkpt lat="59.331477" lon="17.851572">
        <ele>34.4</ele>
        <time>2015-05-05T18:24:45Z</time>
      </trkpt>
      <trkpt lat="59.331456" lon="17.851422">
        <ele>34.3</ele>
        <time>2015-05-05T18:24:46Z</time>
      </trkpt>
      <trkpt lat="59.331421" lon="17.851306">
        <ele>34.5</ele>
        <time>2015-05-05T18:24:47Z</time>
      </trkpt>
      <trkpt lat="59.331399" lon="17.85113">
        <ele>34.3</ele>
        <time>2015-05-05T18:24:48Z</time>
      </trkpt>
      <trkpt lat="59.331369" lon="17.850962">
        <ele>34.3</ele>
        <time>2015-05-05T18:24:49Z</time>
      </trkpt>
      <trkpt lat="59.33134" lon="17.850783">
        <ele>34.1</ele>
        <time>2015-05-05T18:24:50Z</time>
      </trkpt>
      <trkpt lat="59.331321" lon="17.85064">
        <ele>34</ele>
        <time>2015-05-05T18:24:51Z</time>
      </trkpt>
      <trkpt lat="59.331298" lon="17.850478">
        <ele>33.8</ele>
        <time>2015-05-05T18:24:52Z</time>
      </trkpt>
      <trkpt lat="59.331266" lon="17.8503">
        <ele>34.2</ele>
        <time>2015-05-05T18:24:53Z</time>
      </trkpt>
      <trkpt lat="59.331244" lon="17.850134">
        <ele>34.7</ele>
        <time>2015-05-05T18:24:54Z</time>
      </trkpt>
      <trkpt lat="59.331211" lon="17.849975">
        <ele>35</ele>
        <time>2015-05-05T18:24:55Z</time>
      </trkpt>
      <trkpt lat="59.33119" lon="17.849822">
        <ele>35.4</ele>
        <time>2015-05-05T18:24:56Z</time>
      </trkpt>
      <trkpt lat="59.331162" lon="17.849659">
        <ele>35.8</ele>
        <time>2015-05-05T18:24:57Z</time>
      </trkpt>
      <trkpt lat="59.33114" lon="17.84951">
        <ele>36.2</ele>
        <time>2015-05-05T18:24:58Z</time>
      </trkpt>
      <trkpt lat="59.331118" lon="17.849375">
        <ele>36.6</ele>
        <time>2015-05-05T18:24:59Z</time>
      </trkpt>
      <trkpt lat="59.331094" lon="17.849261">
        <ele>36.9</ele>
        <time>2015-05-05T18:25:00Z</time>
      </trkpt>
      <trkpt lat="59.331078" lon="17.849135">
        <ele>37.3</ele>
        <time>2015-05-05T18:25:01Z</time>
      </trkpt>
      <trkpt lat="59.331067" lon="17.849002">
        <ele>37.7</ele>
        <time>2015-05-05T18:25:02Z</time>
      </trkpt>
      <trkpt lat="59.331059" lon="17.848891">
        <ele>38</ele>
        <time>2015-05-05T18:25:03Z</time>
      </trkpt>
      <trkpt lat="59.331051" lon="17.848792">
        <ele>38.4</ele>
        <time>2015-05-05T18:25:04Z</time>
      </trkpt>
      <trkpt lat="59.331037" lon="17.848656">
        <ele>38.7</ele>
        <time>2015-05-05T18:25:05Z</time>
      </trkpt>
      <trkpt lat="59.331034" lon="17.848519">
        <ele>39.1</ele>
        <time>2015-05-05T18:25:06Z</time>
      </trkpt>
      <trkpt lat="59.331045" lon="17.84836">
        <ele>39.4</ele>
        <time>2015-05-05T18:25:07Z</time>
      </trkpt>
      <trkpt lat="59.33106" lon="17.848204">
        <ele>39.8</ele>
        <time>2015-05-05T18:25:08Z</time>
      </trkpt>
      <trkpt lat="59.331083" lon="17.848039">
        <ele>40.1</ele>
        <time>2015-05-05T18:25:09Z</time>
      </trkpt>
      <trkpt lat="59.331102" lon="17.847884">
        <ele>40.4</ele>
        <time>2015-05-05T18:25:10Z</time>
      </trkpt>
      <trkpt lat="59.331168" lon="17.847719">
        <ele>40.4</ele>
        <time>2015-05-05T18:25:11Z</time>
      </trkpt>
      <trkpt lat="59.331209" lon="17.847574">
        <ele>40.5</ele>
        <time>2015-05-05T18:25:12Z</time>
      </trkpt>
      <trkpt lat="59.33125" lon="17.847454">
        <ele>40.6</ele>
        <time>2015-05-05T18:25:13Z</time>
      </trkpt>
      <trkpt lat="59.331288" lon="17.847317">
        <ele>40.4</ele>
        <time>2015-05-05T18:25:14Z</time>
      </trkpt>
      <trkpt lat="59.331343" lon="17.847156">
        <ele>40</ele>
        <time>2015-05-05T18:25:15Z</time>
      </trkpt>
      <trkpt lat="59.331372" lon="17.847017">
        <ele>39.6</ele>
        <time>2015-05-05T18:25:16Z</time>
      </trkpt>
      <trkpt lat="59.331389" lon="17.846862">
        <ele>38.8</ele>
        <time>2015-05-05T18:25:17Z</time>
      </trkpt>
      <trkpt lat="59.331376" lon="17.846665">
        <ele>38.1</ele>
        <time>2015-05-05T18:25:18Z</time>
      </trkpt>
      <trkpt lat="59.33136" lon="17.846494">
        <ele>37.5</ele>
        <time>2015-05-05T18:25:19Z</time>
      </trkpt>
      <trkpt lat="59.331334" lon="17.846336">
        <ele>37</ele>
        <time>2015-05-05T18:25:20Z</time>
      </trkpt>
      <trkpt lat="59.331301" lon="17.846183">
        <ele>36.5</ele>
        <time>2015-05-05T18:25:21Z</time>
      </trkpt>
      <trkpt lat="59.331251" lon="17.846021">
        <ele>36.2</ele>
        <time>2015-05-05T18:25:22Z</time>
      </trkpt>
      <trkpt lat="59.331215" lon="17.845866">
        <ele>35.6</ele>
        <time>2015-05-05T18:25:23Z</time>
      </trkpt>
      <trkpt lat="59.331181" lon="17.845715">
        <ele>35</ele>
        <time>2015-05-05T18:25:24Z</time>
      </trkpt>
      <trkpt lat="59.331154" lon="17.845559">
        <ele>34.3</ele>
        <time>2015-05-05T18:25:25Z</time>
      </trkpt>
      <trkpt lat="59.33115" lon="17.84538">
        <ele>33.9</ele>
        <time>2015-05-05T18:25:26Z</time>
      </trkpt>
      <trkpt lat="59.33113" lon="17.845226">
        <ele>34.5</ele>
        <time>2015-05-05T18:25:27Z</time>
      </trkpt>
      <trkpt lat="59.33108" lon="17.845035">
        <ele>35.1</ele>
        <time>2015-05-05T18:25:28Z</time>
      </trkpt>
      <trkpt lat="59.331026" lon="17.844881">
        <ele>35.5</ele>
        <time>2015-05-05T18:25:29Z</time>
      </trkpt>
      <trkpt lat="59.330998" lon="17.844704">
        <ele>36</ele>
        <time>2015-05-05T18:25:30Z</time>
      </trkpt>
      <trkpt lat="59.330968" lon="17.844543">
        <ele>36.4</ele>
        <time>2015-05-05T18:25:31Z</time>
      </trkpt>
      <trkpt lat="59.330934" lon="17.844393">
        <ele>36.6</ele>
        <time>2015-05-05T18:25:32Z</time>
      </trkpt>
      <trkpt lat="59.3309" lon="17.84425">
        <ele>36.8</ele>
        <time>2015-05-05T18:25:33Z</time>
      </trkpt>
      <trkpt lat="59.330864" lon="17.84408">
        <ele>36.9</ele>
        <time>2015-05-05T18:25:34Z</time>
      </trkpt>
      <trkpt lat="59.330831" lon="17.843968">
        <ele>37</ele>
        <time>2015-05-05T18:25:35Z</time>
      </trkpt>
      <trkpt lat="59.330778" lon="17.843857">
        <ele>36.8</ele>
        <time>2015-05-05T18:25:36Z</time>
      </trkpt>
      <trkpt lat="59.330718" lon="17.843755">
        <ele>36.5</ele>
        <time>2015-05-05T18:25:37Z</time>
      </trkpt>
      <trkpt lat="59.330658" lon="17.843654">
        <ele>36.5</ele>
        <time>2015-05-05T18:25:38Z</time>
      </trkpt>
      <trkpt lat="59.330605" lon="17.843546">
        <ele>36.6</ele>
        <time>2015-05-05T18:25:39Z</time>
      </trkpt>
      <trkpt lat="59.330546" lon="17.843443">
        <ele>36.8</ele>
        <time>2015-05-05T18:25:40Z</time>
      </trkpt>
      <trkpt lat="59.330478" lon="17.843394">
        <ele>36.6</ele>
        <time>2015-05-05T18:25:41Z</time>
      </trkpt>
      <trkpt lat="59.330412" lon="17.843313">
        <ele>36.6</ele>
        <time>2015-05-05T18:25:42Z</time>
      </trkpt>
      <trkpt lat="59.330305" lon="17.84324">
        <ele>36.8</ele>
        <time>2015-05-05T18:25:43Z</time>
      </trkpt>
      <trkpt lat="59.330249" lon="17.843176">
        <ele>37.1</ele>
        <time>2015-05-05T18:25:44Z</time>
      </trkpt>
      <trkpt lat="59.330181" lon="17.843091">
        <ele>37.6</ele>
        <time>2015-05-05T18:25:45Z</time>
      </trkpt>
      <trkpt lat="59.330112" lon="17.843022">
        <ele>37.9</ele>
        <time>2015-05-05T18:25:46Z</time>
      </trkpt>
      <trkpt lat="59.330037" lon="17.84297">
        <ele>38.2</ele>
        <time>2015-05-05T18:25:47Z</time>
      </trkpt>
      <trkpt lat="59.329959" lon="17.842914">
        <ele>38.5</ele>
        <time>2015-05-05T18:25:48Z</time>
      </trkpt>
      <trkpt lat="59.329882" lon="17.842858">
        <ele>38.8</ele>
        <time>2015-05-05T18:25:49Z</time>
      </trkpt>
      <trkpt lat="59.329796" lon="17.842809">
        <ele>39.1</ele>
        <time>2015-05-05T18:25:50Z</time>
      </trkpt>
      <trkpt lat="59.329711" lon="17.842754">
        <ele>39.5</ele>
        <time>2015-05-05T18:25:51Z</time>
      </trkpt>
      <trkpt lat="59.329625" lon="17.842719">
        <ele>39.7</ele>
        <time>2015-05-05T18:25:52Z</time>
      </trkpt>
      <trkpt lat="59.329538" lon="17.842714">
        <ele>39.3</ele>
        <time>2015-05-05T18:25:53Z</time>
      </trkpt>
      <trkpt lat="59.329466" lon="17.842736">
        <ele>38.6</ele>
        <time>2015-05-05T18:25:54Z</time>
      </trkpt>
      <trkpt lat="59.329377" lon="17.842744">
        <ele>37.8</ele>
        <time>2015-05-05T18:25:55Z</time>
      </trkpt>
      <trkpt lat="59.329291" lon="17.842746">
        <ele>37</ele>
        <time>2015-05-05T18:25:56Z</time>
      </trkpt>
      <trkpt lat="59.329208" lon="17.842744">
        <ele>36.4</ele>
        <time>2015-05-05T18:25:57Z</time>
      </trkpt>
      <trkpt lat="59.329112" lon="17.842725">
        <ele>35.7</ele>
        <time>2015-05-05T18:25:58Z</time>
      </trkpt>
      <trkpt lat="59.329026" lon="17.842733">
        <ele>34.9</ele>
        <time>2015-05-05T18:25:59Z</time>
      </trkpt>
      <trkpt lat="59.328944" lon="17.842728">
        <ele>34.3</ele>
        <time>2015-05-05T18:26:00Z</time>
      </trkpt>
      <trkpt lat="59.328858" lon="17.842724">
        <ele>33.6</ele>
        <time>2015-05-05T18:26:01Z</time>
      </trkpt>
      <trkpt lat="59.328769" lon="17.842729">
        <ele>32.8</ele>
        <time>2015-05-05T18:26:02Z</time>
      </trkpt>
      <trkpt lat="59.328675" lon="17.842707">
        <ele>32.2</ele>
        <time>2015-05-05T18:26:03Z</time>
      </trkpt>
      <trkpt lat="59.328575" lon="17.842703">
        <ele>31.6</ele>
        <time>2015-05-05T18:26:04Z</time>
      </trkpt>
      <trkpt lat="59.328492" lon="17.842717">
        <ele>30.9</ele>
        <time>2015-05-05T18:26:05Z</time>
      </trkpt>
      <trkpt lat="59.328397" lon="17.842714">
        <ele>30.3</ele>
        <time>2015-05-05T18:26:06Z</time>
      </trkpt>
      <trkpt lat="59.328313" lon="17.842691">
        <ele>29.8</ele>
        <time>2015-05-05T18:26:07Z</time>
      </trkpt>
      <trkpt lat="59.328145" lon="17.842468">
        <ele>28.8</ele>
        <time>2015-05-05T18:26:09Z</time>
      </trkpt>
      <trkpt lat="59.328076" lon="17.84233">
        <ele>28.4</ele>
        <time>2015-05-05T18:26:10Z</time>
      </trkpt>
      <trkpt lat="59.328005" lon="17.84218">
        <ele>27.8</ele>
        <time>2015-05-05T18:26:11Z</time>
      </trkpt>
      <trkpt lat="59.327954" lon="17.842053">
        <ele>27.4</ele>
        <time>2015-05-05T18:26:12Z</time>
      </trkpt>
      <trkpt lat="59.327888" lon="17.841916">
        <ele>27.1</ele>
        <time>2015-05-05T18:26:13Z</time>
      </trkpt>
      <trkpt lat="59.327815" lon="17.841783">
        <ele>26.9</ele>
        <time>2015-05-05T18:26:14Z</time>
      </trkpt>
      <trkpt lat="59.327719" lon="17.841661">
        <ele>26.7</ele>
        <time>2015-05-05T18:26:15Z</time>
      </trkpt>
      <trkpt lat="59.32762" lon="17.841576">
        <ele>26.4</ele>
        <time>2015-05-05T18:26:16Z</time>
      </trkpt>
      <trkpt lat="59.327519" lon="17.841534">
        <ele>26.1</ele>
        <time>2015-05-05T18:26:17Z</time>
      </trkpt>
      <trkpt lat="59.327408" lon="17.841512">
        <ele>25.7</ele>
        <time>2015-05-05T18:26:18Z</time>
      </trkpt>
      <trkpt lat="59.327295" lon="17.841484">
        <ele>25.3</ele>
        <time>2015-05-05T18:26:19Z</time>
      </trkpt>
      <trkpt lat="59.327185" lon="17.841469">
        <ele>24.9</ele>
        <time>2015-05-05T18:26:20Z</time>
      </trkpt>
      <trkpt lat="59.327082" lon="17.841458">
        <ele>24.5</ele>
        <time>2015-05-05T18:26:21Z</time>
      </trkpt>
      <trkpt lat="59.326978" lon="17.841441">
        <ele>24.3</ele>
        <time>2015-05-05T18:26:22Z</time>
      </trkpt>
      <trkpt lat="59.326873" lon="17.841437">
        <ele>24</ele>
        <time>2015-05-05T18:26:23Z</time>
      </trkpt>
      <trkpt lat="59.326781" lon="17.841432">
        <ele>23.8</ele>
        <time>2015-05-05T18:26:24Z</time>
      </trkpt>
      <trkpt lat="59.32669" lon="17.841424">
        <ele>23.6</ele>
        <time>2015-05-05T18:26:25Z</time>
      </trkpt>
      <trkpt lat="59.326584" lon="17.841406">
        <ele>23.4</ele>
        <time>2015-05-05T18:26:26Z</time>
      </trkpt>
      <trkpt lat="59.326481" lon="17.841373">
        <ele>23.3</ele>
        <time>2015-05-05T18:26:27Z</time>
      </trkpt>
      <trkpt lat="59.326379" lon="17.841349">
        <ele>23.1</ele>
        <time>2015-05-05T18:26:28Z</time>
      </trkpt>
      <trkpt lat="59.326274" lon="17.841334">
        <ele>22.9</ele>
        <time>2015-05-05T18:26:29Z</time>
      </trkpt>
      <trkpt lat="59.326176" lon="17.841315">
        <ele>22.6</ele>
        <time>2015-05-05T18:26:30Z</time>
      </trkpt>
      <trkpt lat="59.326076" lon="17.841302">
        <ele>22.2</ele>
        <time>2015-05-05T18:26:31Z</time>
      </trkpt>
      <trkpt lat="59.325975" lon="17.841291">
        <ele>21.9</ele>
        <time>2015-05-05T18:26:32Z</time>
      </trkpt>
      <trkpt lat="59.325874" lon="17.841271">
        <ele>21.6</ele>
        <time>2015-05-05T18:26:33Z</time>
      </trkpt>
      <trkpt lat="59.325793" lon="17.841253">
        <ele>21.3</ele>
        <time>2015-05-05T18:26:34Z</time>
      </trkpt>
      <trkpt lat="59.325693" lon="17.841227">
        <ele>21</ele>
        <time>2015-05-05T18:26:35Z</time>
      </trkpt>
      <trkpt lat="59.325581" lon="17.841186">
        <ele>20.7</ele>
        <time>2015-05-05T18:26:36Z</time>
      </trkpt>
      <trkpt lat="59.325467" lon="17.841174">
        <ele>20.4</ele>
        <time>2015-05-05T18:26:37Z</time>
      </trkpt>
      <trkpt lat="59.325366" lon="17.841152">
        <ele>20.2</ele>
        <time>2015-05-05T18:26:38Z</time>
      </trkpt>
      <trkpt lat="59.325265" lon="17.841134">
        <ele>20.1</ele>
        <time>2015-05-05T18:26:39Z</time>
      </trkpt>
      <trkpt lat="59.325163" lon="17.841109">
        <ele>20</ele>
        <time>2015-05-05T18:26:40Z</time>
      </trkpt>
      <trkpt lat="59.325065" lon="17.841098">
        <ele>19.9</ele>
        <time>2015-05-05T18:26:41Z</time>
      </trkpt>
      <trkpt lat="59.32496" lon="17.841078">
        <ele>19.9</ele>
        <time>2015-05-05T18:26:42Z</time>
      </trkpt>
      <trkpt lat="59.324863" lon="17.841067">
        <ele>19.8</ele>
        <time>2015-05-05T18:26:43Z</time>
      </trkpt>
      <trkpt lat="59.324764" lon="17.841044">
        <ele>19.7</ele>
        <time>2015-05-05T18:26:44Z</time>
      </trkpt>
      <trkpt lat="59.324663" lon="17.841032">
        <ele>19.6</ele>
        <time>2015-05-05T18:26:45Z</time>
      </trkpt>
      <trkpt lat="59.324565" lon="17.84101">
        <ele>19.5</ele>
        <time>2015-05-05T18:26:46Z</time>
      </trkpt>
      <trkpt lat="59.324468" lon="17.840997">
        <ele>19.3</ele>
        <time>2015-05-05T18:26:47Z</time>
      </trkpt>
      <trkpt lat="59.32437" lon="17.841001">
        <ele>19.1</ele>
        <time>2015-05-05T18:26:48Z</time>
      </trkpt>
      <trkpt lat="59.32427" lon="17.840984">
        <ele>18.9</ele>
        <time>2015-05-05T18:26:49Z</time>
      </trkpt>
      <trkpt lat="59.324171" lon="17.840968">
        <ele>18.7</ele>
        <time>2015-05-05T18:26:50Z</time>
      </trkpt>
      <trkpt lat="59.324077" lon="17.840961">
        <ele>18.5</ele>
        <time>2015-05-05T18:26:51Z</time>
      </trkpt>
      <trkpt lat="59.323986" lon="17.840949">
        <ele>18.3</ele>
        <time>2015-05-05T18:26:52Z</time>
      </trkpt>
      <trkpt lat="59.323896" lon="17.840934">
        <ele>18.1</ele>
        <time>2015-05-05T18:26:53Z</time>
      </trkpt>
      <trkpt lat="59.323805" lon="17.840926">
        <ele>17.9</ele>
        <time>2015-05-05T18:26:54Z</time>
      </trkpt>
      <trkpt lat="59.323704" lon="17.840912">
        <ele>17.8</ele>
        <time>2015-05-05T18:26:55Z</time>
      </trkpt>
      <trkpt lat="59.323616" lon="17.840893">
        <ele>17.8</ele>
        <time>2015-05-05T18:26:56Z</time>
      </trkpt>
      <trkpt lat="59.323522" lon="17.840885">
        <ele>17.8</ele>
        <time>2015-05-05T18:26:57Z</time>
      </trkpt>
      <trkpt lat="59.323428" lon="17.840873">
        <ele>17.7</ele>
        <time>2015-05-05T18:26:58Z</time>
      </trkpt>
      <trkpt lat="59.323327" lon="17.840838">
        <ele>17.7</ele>
        <time>2015-05-05T18:26:59Z</time>
      </trkpt>
      <trkpt lat="59.323221" lon="17.840814">
        <ele>17.7</ele>
        <time>2015-05-05T18:27:00Z</time>
      </trkpt>
      <trkpt lat="59.323116" lon="17.840803">
        <ele>17.7</ele>
        <time>2015-05-05T18:27:01Z</time>
      </trkpt>
      <trkpt lat="59.323012" lon="17.840784">
        <ele>17.6</ele>
        <time>2015-05-05T18:27:02Z</time>
      </trkpt>
      <trkpt lat="59.322911" lon="17.840777">
        <ele>17.6</ele>
        <time>2015-05-05T18:27:03Z</time>
      </trkpt>
      <trkpt lat="59.32281" lon="17.840775">
        <ele>17.8</ele>
        <time>2015-05-05T18:27:04Z</time>
      </trkpt>
      <trkpt lat="59.322706" lon="17.840767">
        <ele>18</ele>
        <time>2015-05-05T18:27:05Z</time>
      </trkpt>
      <trkpt lat="59.322608" lon="17.840741">
        <ele>18.2</ele>
        <time>2015-05-05T18:27:06Z</time>
      </trkpt>
      <trkpt lat="59.322509" lon="17.840708">
        <ele>18.5</ele>
        <time>2015-05-05T18:27:07Z</time>
      </trkpt>
      <trkpt lat="59.322402" lon="17.840694">
        <ele>18.7</ele>
        <time>2015-05-05T18:27:08Z</time>
      </trkpt>
      <trkpt lat="59.322311" lon="17.840679">
        <ele>18.9</ele>
        <time>2015-05-05T18:27:09Z</time>
      </trkpt>
      <trkpt lat="59.322218" lon="17.840646">
        <ele>19.2</ele>
        <time>2015-05-05T18:27:10Z</time>
      </trkpt>
      <trkpt lat="59.322128" lon="17.840623">
        <ele>19.4</ele>
        <time>2015-05-05T18:27:11Z</time>
      </trkpt>
      <trkpt lat="59.32204" lon="17.840599">
        <ele>19.6</ele>
        <time>2015-05-05T18:27:12Z</time>
      </trkpt>
      <trkpt lat="59.321951" lon="17.840589">
        <ele>19.6</ele>
        <time>2015-05-05T18:27:13Z</time>
      </trkpt>
      <trkpt lat="59.321863" lon="17.840576">
        <ele>19.6</ele>
        <time>2015-05-05T18:27:14Z</time>
      </trkpt>
      <trkpt lat="59.321779" lon="17.840583">
        <ele>19.6</ele>
        <time>2015-05-05T18:27:15Z</time>
      </trkpt>
      <trkpt lat="59.321692" lon="17.840595">
        <ele>19.6</ele>
        <time>2015-05-05T18:27:16Z</time>
      </trkpt>
      <trkpt lat="59.321599" lon="17.840599">
        <ele>19.6</ele>
        <time>2015-05-05T18:27:17Z</time>
      </trkpt>
      <trkpt lat="59.321529" lon="17.840702">
        <ele>19.3</ele>
        <time>2015-05-05T18:27:18Z</time>
      </trkpt>
      <trkpt lat="59.321458" lon="17.840798">
        <ele>19.1</ele>
        <time>2015-05-05T18:27:19Z</time>
      </trkpt>
      <trkpt lat="59.321379" lon="17.840889">
        <ele>18.9</ele>
        <time>2015-05-05T18:27:20Z</time>
      </trkpt>
      <trkpt lat="59.321317" lon="17.840985">
        <ele>18.6</ele>
        <time>2015-05-05T18:27:21Z</time>
      </trkpt>
      <trkpt lat="59.321258" lon="17.841109">
        <ele>18.3</ele>
        <time>2015-05-05T18:27:22Z</time>
      </trkpt>
      <trkpt lat="59.321203" lon="17.841232">
        <ele>17.9</ele>
        <time>2015-05-05T18:27:23Z</time>
      </trkpt>
      <trkpt lat="59.321166" lon="17.841401">
        <ele>17.2</ele>
        <time>2015-05-05T18:27:24Z</time>
      </trkpt>
      <trkpt lat="59.321153" lon="17.841568">
        <ele>16.6</ele>
        <time>2015-05-05T18:27:25Z</time>
      </trkpt>
      <trkpt lat="59.321175" lon="17.841765">
        <ele>16</ele>
        <time>2015-05-05T18:27:26Z</time>
      </trkpt>
      <trkpt lat="59.321171" lon="17.841958">
        <ele>15.4</ele>
        <time>2015-05-05T18:27:27Z</time>
      </trkpt>
      <trkpt lat="59.321163" lon="17.842096">
        <ele>15</ele>
        <time>2015-05-05T18:27:28Z</time>
      </trkpt>
      <trkpt lat="59.321158" lon="17.842251">
        <ele>14.8</ele>
        <time>2015-05-05T18:27:29Z</time>
      </trkpt>
      <trkpt lat="59.32116" lon="17.842408">
        <ele>14.7</ele>
        <time>2015-05-05T18:27:30Z</time>
      </trkpt>
      <trkpt lat="59.32116" lon="17.842561">
        <ele>14.5</ele>
        <time>2015-05-05T18:27:31Z</time>
      </trkpt>
      <trkpt lat="59.321156" lon="17.842711">
        <ele>14.3</ele>
        <time>2015-05-05T18:27:32Z</time>
      </trkpt>
      <trkpt lat="59.321151" lon="17.842853">
        <ele>14.2</ele>
        <time>2015-05-05T18:27:33Z</time>
      </trkpt>
      <trkpt lat="59.321146" lon="17.843003">
        <ele>14</ele>
        <time>2015-05-05T18:27:34Z</time>
      </trkpt>
      <trkpt lat="59.32114" lon="17.843159">
        <ele>13.8</ele>
        <time>2015-05-05T18:27:35Z</time>
      </trkpt>
      <trkpt lat="59.321135" lon="17.843311">
        <ele>13.7</ele>
        <time>2015-05-05T18:27:36Z</time>
      </trkpt>
      <trkpt lat="59.321132" lon="17.843461">
        <ele>13.5</ele>
        <time>2015-05-05T18:27:37Z</time>
      </trkpt>
      <trkpt lat="59.321122" lon="17.84363">
        <ele>13.3</ele>
        <time>2015-05-05T18:27:38Z</time>
      </trkpt>
      <trkpt lat="59.32111" lon="17.843796">
        <ele>13.2</ele>
        <time>2015-05-05T18:27:39Z</time>
      </trkpt>
      <trkpt lat="59.321102" lon="17.843937">
        <ele>13.2</ele>
        <time>2015-05-05T18:27:40Z</time>
      </trkpt>
      <trkpt lat="59.321083" lon="17.844103">
        <ele>13.2</ele>
        <time>2015-05-05T18:27:41Z</time>
      </trkpt>
      <trkpt lat="59.321074" lon="17.84426">
        <ele>13.2</ele>
        <time>2015-05-05T18:27:42Z</time>
      </trkpt>
      <trkpt lat="59.321066" lon="17.844423">
        <ele>13.2</ele>
        <time>2015-05-05T18:27:43Z</time>
      </trkpt>
      <trkpt lat="59.321061" lon="17.84458">
        <ele>13.2</ele>
        <time>2015-05-05T18:27:44Z</time>
      </trkpt>
      <trkpt lat="59.321052" lon="17.844748">
        <ele>13.3</ele>
        <time>2015-05-05T18:27:45Z</time>
      </trkpt>
      <trkpt lat="59.321044" lon="17.844908">
        <ele>13.3</ele>
        <time>2015-05-05T18:27:46Z</time>
      </trkpt>
      <trkpt lat="59.321034" lon="17.845072">
        <ele>13.4</ele>
        <time>2015-05-05T18:27:47Z</time>
      </trkpt>
      <trkpt lat="59.321029" lon="17.845221">
        <ele>13.5</ele>
        <time>2015-05-05T18:27:48Z</time>
      </trkpt>
      <trkpt lat="59.321027" lon="17.845377">
        <ele>13.5</ele>
        <time>2015-05-05T18:27:49Z</time>
      </trkpt>
      <trkpt lat="59.321022" lon="17.84552">
        <ele>13.5</ele>
        <time>2015-05-05T18:27:50Z</time>
      </trkpt>
      <trkpt lat="59.321012" lon="17.845674">
        <ele>13.6</ele>
        <time>2015-05-05T18:27:51Z</time>
      </trkpt>
      <trkpt lat="59.321014" lon="17.84583">
        <ele>13.6</ele>
        <time>2015-05-05T18:27:52Z</time>
      </trkpt>
      <trkpt lat="59.321009" lon="17.845991">
        <ele>13.6</ele>
        <time>2015-05-05T18:27:53Z</time>
      </trkpt>
      <trkpt lat="59.320999" lon="17.846147">
        <ele>13.6</ele>
        <time>2015-05-05T18:27:54Z</time>
      </trkpt>
      <trkpt lat="59.320988" lon="17.846307">
        <ele>13.7</ele>
        <time>2015-05-05T18:27:55Z</time>
      </trkpt>
      <trkpt lat="59.320975" lon="17.846454">
        <ele>13.9</ele>
        <time>2015-05-05T18:27:56Z</time>
      </trkpt>
      <trkpt lat="59.320973" lon="17.846618">
        <ele>14.1</ele>
        <time>2015-05-05T18:27:57Z</time>
      </trkpt>
      <trkpt lat="59.320968" lon="17.846776">
        <ele>14.3</ele>
        <time>2015-05-05T18:27:58Z</time>
      </trkpt>
      <trkpt lat="59.320959" lon="17.846937">
        <ele>14.5</ele>
        <time>2015-05-05T18:27:59Z</time>
      </trkpt>
      <trkpt lat="59.32095" lon="17.847091">
        <ele>14.7</ele>
        <time>2015-05-05T18:28:00Z</time>
      </trkpt>
      <trkpt lat="59.320939" lon="17.847246">
        <ele>14.8</ele>
        <time>2015-05-05T18:28:01Z</time>
      </trkpt>
      <trkpt lat="59.320935" lon="17.847392">
        <ele>14.9</ele>
        <time>2015-05-05T18:28:02Z</time>
      </trkpt>
      <trkpt lat="59.320923" lon="17.847541">
        <ele>15</ele>
        <time>2015-05-05T18:28:03Z</time>
      </trkpt>
      <trkpt lat="59.320748" lon="17.85045">
        <ele>21.8</ele>
        <time>2015-05-05T18:28:23Z</time>
      </trkpt>
      <trkpt lat="59.320771" lon="17.85071">
        <ele>22</ele>
        <time>2015-05-05T18:28:24Z</time>
      </trkpt>
      <trkpt lat="59.320774" lon="17.85082">
        <ele>22.1</ele>
        <time>2015-05-05T18:28:25Z</time>
      </trkpt>
      <trkpt lat="59.320777" lon="17.850917">
        <ele>22.1</ele>
        <time>2015-05-05T18:28:26Z</time>
      </trkpt>
      <trkpt lat="59.320767" lon="17.851041">
        <ele>22.2</ele>
        <time>2015-05-05T18:28:27Z</time>
      </trkpt>
      <trkpt lat="59.32076" lon="17.851157">
        <ele>22.3</ele>
        <time>2015-05-05T18:28:28Z</time>
      </trkpt>
      <trkpt lat="59.320743" lon="17.851273">
        <ele>22.4</ele>
        <time>2015-05-05T18:28:29Z</time>
      </trkpt>
      <trkpt lat="59.320745" lon="17.851381">
        <ele>22.5</ele>
        <time>2015-05-05T18:28:30Z</time>
      </trkpt>
      <trkpt lat="59.320752" lon="17.851514">
        <ele>22.7</ele>
        <time>2015-05-05T18:28:31Z</time>
      </trkpt>
      <trkpt lat="59.320734" lon="17.851643">
        <ele>22.8</ele>
        <time>2015-05-05T18:28:32Z</time>
      </trkpt>
      <trkpt lat="59.320742" lon="17.85177">
        <ele>23</ele>
        <time>2015-05-05T18:28:33Z</time>
      </trkpt>
      <trkpt lat="59.320737" lon="17.851901">
        <ele>23.1</ele>
        <time>2015-05-05T18:28:34Z</time>
      </trkpt>
      <trkpt lat="59.320735" lon="17.852016">
        <ele>23.2</ele>
        <time>2015-05-05T18:28:35Z</time>
      </trkpt>
      <trkpt lat="59.320743" lon="17.852161">
        <ele>23.4</ele>
        <time>2015-05-05T18:28:36Z</time>
      </trkpt>
      <trkpt lat="59.320741" lon="17.852285">
        <ele>23.4</ele>
        <time>2015-05-05T18:28:37Z</time>
      </trkpt>
      <trkpt lat="59.320733" lon="17.852421">
        <ele>23.4</ele>
        <time>2015-05-05T18:28:38Z</time>
      </trkpt>
      <trkpt lat="59.320722" lon="17.852561">
        <ele>23.4</ele>
        <time>2015-05-05T18:28:39Z</time>
      </trkpt>
      <trkpt lat="59.320716" lon="17.852699">
        <ele>23.4</ele>
        <time>2015-05-05T18:28:40Z</time>
      </trkpt>
      <trkpt lat="59.320703" lon="17.852855">
        <ele>23.4</ele>
        <time>2015-05-05T18:28:41Z</time>
      </trkpt>
      <trkpt lat="59.320693" lon="17.852999">
        <ele>23.4</ele>
        <time>2015-05-05T18:28:42Z</time>
      </trkpt>
      <trkpt lat="59.320681" lon="17.853139">
        <ele>23.4</ele>
        <time>2015-05-05T18:28:43Z</time>
      </trkpt>
      <trkpt lat="59.320669" lon="17.853279">
        <ele>23.4</ele>
        <time>2015-05-05T18:28:44Z</time>
      </trkpt>
      <trkpt lat="59.320691" lon="17.853472">
        <ele>23.7</ele>
        <time>2015-05-05T18:28:45Z</time>
      </trkpt>
      <trkpt lat="59.32067" lon="17.853637">
        <ele>23.7</ele>
        <time>2015-05-05T18:28:46Z</time>
      </trkpt>
      <trkpt lat="59.320667" lon="17.853786">
        <ele>23.7</ele>
        <time>2015-05-05T18:28:47Z</time>
      </trkpt>
      <trkpt lat="59.320657" lon="17.853923">
        <ele>23.7</ele>
        <time>2015-05-05T18:28:48Z</time>
      </trkpt>
      <trkpt lat="59.320644" lon="17.854068">
        <ele>23.7</ele>
        <time>2015-05-05T18:28:49Z</time>
      </trkpt>
      <trkpt lat="59.320634" lon="17.854201">
        <ele>23.7</ele>
        <time>2015-05-05T18:28:50Z</time>
      </trkpt>
      <trkpt lat="59.32062" lon="17.854327">
        <ele>23.7</ele>
        <time>2015-05-05T18:28:51Z</time>
      </trkpt>
      <trkpt lat="59.320609" lon="17.854469">
        <ele>23.7</ele>
        <time>2015-05-05T18:28:52Z</time>
      </trkpt>
      <trkpt lat="59.320606" lon="17.854607">
        <ele>23.9</ele>
        <time>2015-05-05T18:28:53Z</time>
      </trkpt>
      <trkpt lat="59.320602" lon="17.854736">
        <ele>24.1</ele>
        <time>2015-05-05T18:28:54Z</time>
      </trkpt>
      <trkpt lat="59.320598" lon="17.854879">
        <ele>24.4</ele>
        <time>2015-05-05T18:28:55Z</time>
      </trkpt>
      <trkpt lat="59.320591" lon="17.855026">
        <ele>24.6</ele>
        <time>2015-05-05T18:28:56Z</time>
      </trkpt>
      <trkpt lat="59.320579" lon="17.855165">
        <ele>24.8</ele>
        <time>2015-05-05T18:28:57Z</time>
      </trkpt>
      <trkpt lat="59.320569" lon="17.855309">
        <ele>25</ele>
        <time>2015-05-05T18:28:58Z</time>
      </trkpt>
      <trkpt lat="59.320562" lon="17.855459">
        <ele>25.3</ele>
        <time>2015-05-05T18:28:59Z</time>
      </trkpt>
      <trkpt lat="59.320556" lon="17.855595">
        <ele>25.3</ele>
        <time>2015-05-05T18:29:00Z</time>
      </trkpt>
      <trkpt lat="59.320547" lon="17.855735">
        <ele>25.4</ele>
        <time>2015-05-05T18:29:01Z</time>
      </trkpt>
      <trkpt lat="59.320538" lon="17.85588">
        <ele>25.4</ele>
        <time>2015-05-05T18:29:02Z</time>
      </trkpt>
      <trkpt lat="59.32053" lon="17.856013">
        <ele>25.5</ele>
        <time>2015-05-05T18:29:03Z</time>
      </trkpt>
      <trkpt lat="59.320504" lon="17.856158">
        <ele>25.4</ele>
        <time>2015-05-05T18:29:04Z</time>
      </trkpt>
      <trkpt lat="59.320502" lon="17.856315">
        <ele>25.6</ele>
        <time>2015-05-05T18:29:05Z</time>
      </trkpt>
      <trkpt lat="59.320491" lon="17.856477">
        <ele>25.9</ele>
        <time>2015-05-05T18:29:06Z</time>
      </trkpt>
      <trkpt lat="59.320476" lon="17.856637">
        <ele>26.2</ele>
        <time>2015-05-05T18:29:07Z</time>
      </trkpt>
      <trkpt lat="59.320478" lon="17.856797">
        <ele>26.5</ele>
        <time>2015-05-05T18:29:08Z</time>
      </trkpt>
      <trkpt lat="59.320468" lon="17.856943">
        <ele>26.8</ele>
        <time>2015-05-05T18:29:09Z</time>
      </trkpt>
      <trkpt lat="59.320462" lon="17.857096">
        <ele>27</ele>
        <time>2015-05-05T18:29:10Z</time>
      </trkpt>
      <trkpt lat="59.320452" lon="17.857257">
        <ele>26.6</ele>
        <time>2015-05-05T18:29:11Z</time>
      </trkpt>
      <trkpt lat="59.320457" lon="17.857417">
        <ele>26.3</ele>
        <time>2015-05-05T18:29:12Z</time>
      </trkpt>
      <trkpt lat="59.32043" lon="17.857574">
        <ele>25.8</ele>
        <time>2015-05-05T18:29:13Z</time>
      </trkpt>
      <trkpt lat="59.320425" lon="17.857741">
        <ele>25.4</ele>
        <time>2015-05-05T18:29:14Z</time>
      </trkpt>
      <trkpt lat="59.320411" lon="17.857906">
        <ele>25</ele>
        <time>2015-05-05T18:29:15Z</time>
      </trkpt>
      <trkpt lat="59.320402" lon="17.85806">
        <ele>24.7</ele>
        <time>2015-05-05T18:29:16Z</time>
      </trkpt>
      <trkpt lat="59.320396" lon="17.858217">
        <ele>24.3</ele>
        <time>2015-05-05T18:29:17Z</time>
      </trkpt>
      <trkpt lat="59.32039" lon="17.858382">
        <ele>24</ele>
        <time>2015-05-05T18:29:18Z</time>
      </trkpt>
      <trkpt lat="59.320386" lon="17.858547">
        <ele>23.6</ele>
        <time>2015-05-05T18:29:19Z</time>
      </trkpt>
      <trkpt lat="59.320381" lon="17.858706">
        <ele>23.2</ele>
        <time>2015-05-05T18:29:20Z</time>
      </trkpt>
      <trkpt lat="59.320374" lon="17.858873">
        <ele>22.9</ele>
        <time>2015-05-05T18:29:21Z</time>
      </trkpt>
      <trkpt lat="59.32036" lon="17.859042">
        <ele>22.5</ele>
        <time>2015-05-05T18:29:22Z</time>
      </trkpt>
      <trkpt lat="59.320356" lon="17.859218">
        <ele>22.1</ele>
        <time>2015-05-05T18:29:23Z</time>
      </trkpt>
      <trkpt lat="59.320346" lon="17.859377">
        <ele>21.7</ele>
        <time>2015-05-05T18:29:24Z</time>
      </trkpt>
      <trkpt lat="59.320338" lon="17.859546">
        <ele>21.3</ele>
        <time>2015-05-05T18:29:25Z</time>
      </trkpt>
      <trkpt lat="59.320325" lon="17.859709">
        <ele>20.9</ele>
        <time>2015-05-05T18:29:26Z</time>
      </trkpt>
      <trkpt lat="59.320318" lon="17.859885">
        <ele>20.4</ele>
        <time>2015-05-05T18:29:27Z</time>
      </trkpt>
      <trkpt lat="59.320312" lon="17.860049">
        <ele>20</ele>
        <time>2015-05-05T18:29:28Z</time>
      </trkpt>
      <trkpt lat="59.320305" lon="17.86022">
        <ele>19.5</ele>
        <time>2015-05-05T18:29:29Z</time>
      </trkpt>
      <trkpt lat="59.320295" lon="17.860382">
        <ele>19.1</ele>
        <time>2015-05-05T18:29:30Z</time>
      </trkpt>
      <trkpt lat="59.320288" lon="17.860551">
        <ele>19</ele>
        <time>2015-05-05T18:29:31Z</time>
      </trkpt>
      <trkpt lat="59.320281" lon="17.860708">
        <ele>19</ele>
        <time>2015-05-05T18:29:32Z</time>
      </trkpt>
      <trkpt lat="59.320271" lon="17.860869">
        <ele>19</ele>
        <time>2015-05-05T18:29:33Z</time>
      </trkpt>
      <trkpt lat="59.320266" lon="17.861034">
        <ele>19</ele>
        <time>2015-05-05T18:29:34Z</time>
      </trkpt>
      <trkpt lat="59.32026" lon="17.861193">
        <ele>19</ele>
        <time>2015-05-05T18:29:35Z</time>
      </trkpt>
      <trkpt lat="59.320249" lon="17.861354">
        <ele>19</ele>
        <time>2015-05-05T18:29:36Z</time>
      </trkpt>
      <trkpt lat="59.320244" lon="17.861515">
        <ele>18.9</ele>
        <time>2015-05-05T18:29:37Z</time>
      </trkpt>
      <trkpt lat="59.320236" lon="17.861669">
        <ele>18.9</ele>
        <time>2015-05-05T18:29:38Z</time>
      </trkpt>
      <trkpt lat="59.320228" lon="17.861833">
        <ele>18.8</ele>
        <time>2015-05-05T18:29:39Z</time>
      </trkpt>
      <trkpt lat="59.320222" lon="17.861983">
        <ele>18.8</ele>
        <time>2015-05-05T18:29:40Z</time>
      </trkpt>
      <trkpt lat="59.320216" lon="17.862139">
        <ele>18.8</ele>
        <time>2015-05-05T18:29:41Z</time>
      </trkpt>
      <trkpt lat="59.320203" lon="17.862292">
        <ele>18.7</ele>
        <time>2015-05-05T18:29:42Z</time>
      </trkpt>
      <trkpt lat="59.320202" lon="17.862454">
        <ele>18.7</ele>
        <time>2015-05-05T18:29:43Z</time>
      </trkpt>
      <trkpt lat="59.320194" lon="17.862599">
        <ele>18.7</ele>
        <time>2015-05-05T18:29:44Z</time>
      </trkpt>
      <trkpt lat="59.320191" lon="17.862757">
        <ele>18.7</ele>
        <time>2015-05-05T18:29:45Z</time>
      </trkpt>
      <trkpt lat="59.320179" lon="17.862918">
        <ele>18.7</ele>
        <time>2015-05-05T18:29:46Z</time>
      </trkpt>
      <trkpt lat="59.320165" lon="17.863083">
        <ele>18.6</ele>
        <time>2015-05-05T18:29:47Z</time>
      </trkpt>
      <trkpt lat="59.320156" lon="17.863258">
        <ele>18.6</ele>
        <time>2015-05-05T18:29:48Z</time>
      </trkpt>
      <trkpt lat="59.320146" lon="17.863421">
        <ele>18.5</ele>
        <time>2015-05-05T18:29:49Z</time>
      </trkpt>
      <trkpt lat="59.320132" lon="17.863584">
        <ele>18.4</ele>
        <time>2015-05-05T18:29:50Z</time>
      </trkpt>
      <trkpt lat="59.320118" lon="17.863743">
        <ele>18.3</ele>
        <time>2015-05-05T18:29:51Z</time>
      </trkpt>
      <trkpt lat="59.320115" lon="17.863909">
        <ele>18.1</ele>
        <time>2015-05-05T18:29:52Z</time>
      </trkpt>
      <trkpt lat="59.320108" lon="17.864074">
        <ele>17.9</ele>
        <time>2015-05-05T18:29:53Z</time>
      </trkpt>
      <trkpt lat="59.320108" lon="17.864244">
        <ele>17.7</ele>
        <time>2015-05-05T18:29:54Z</time>
      </trkpt>
      <trkpt lat="59.320105" lon="17.864411">
        <ele>17.5</ele>
        <time>2015-05-05T18:29:55Z</time>
      </trkpt>
      <trkpt lat="59.320091" lon="17.864566">
        <ele>17.2</ele>
        <time>2015-05-05T18:29:56Z</time>
      </trkpt>
      <trkpt lat="59.320085" lon="17.864725">
        <ele>16.9</ele>
        <time>2015-05-05T18:29:57Z</time>
      </trkpt>
      <trkpt lat="59.320078" lon="17.864889">
        <ele>16.5</ele>
        <time>2015-05-05T18:29:58Z</time>
      </trkpt>
      <trkpt lat="59.32007" lon="17.865057">
        <ele>16</ele>
        <time>2015-05-05T18:29:59Z</time>
      </trkpt>
      <trkpt lat="59.320064" lon="17.865223">
        <ele>15.6</ele>
        <time>2015-05-05T18:30:00Z</time>
      </trkpt>
      <trkpt lat="59.32006" lon="17.865388">
        <ele>15.2</ele>
        <time>2015-05-05T18:30:01Z</time>
      </trkpt>
      <trkpt lat="59.320056" lon="17.865544">
        <ele>15</ele>
        <time>2015-05-05T18:30:02Z</time>
      </trkpt>
      <trkpt lat="59.320054" lon="17.865704">
        <ele>14.9</ele>
        <time>2015-05-05T18:30:03Z</time>
      </trkpt>
      <trkpt lat="59.320046" lon="17.865844">
        <ele>14.8</ele>
        <time>2015-05-05T18:30:04Z</time>
      </trkpt>
      <trkpt lat="59.320034" lon="17.865993">
        <ele>14.7</ele>
        <time>2015-05-05T18:30:05Z</time>
      </trkpt>
      <trkpt lat="59.32003" lon="17.866126">
        <ele>14.6</ele>
        <time>2015-05-05T18:30:06Z</time>
      </trkpt>
      <trkpt lat="59.320023" lon="17.866235">
        <ele>14.5</ele>
        <time>2015-05-05T18:30:07Z</time>
      </trkpt>
      <trkpt lat="59.320011" lon="17.866321">
        <ele>14.4</ele>
        <time>2015-05-05T18:30:08Z</time>
      </trkpt>
      <trkpt lat="59.319995" lon="17.866403">
        <ele>14.3</ele>
        <time>2015-05-05T18:30:09Z</time>
      </trkpt>
      <trkpt lat="59.319971" lon="17.866464">
        <ele>14.2</ele>
        <time>2015-05-05T18:30:10Z</time>
      </trkpt>
      <trkpt lat="59.319948" lon="17.866517">
        <ele>14.1</ele>
        <time>2015-05-05T18:30:11Z</time>
      </trkpt>
      <trkpt lat="59.319918" lon="17.866567">
        <ele>14</ele>
        <time>2015-05-05T18:30:13Z</time>
      </trkpt>
      <trkpt lat="59.31986" lon="17.866543">
        <ele>14</ele>
        <time>2015-05-05T18:30:15Z</time>
      </trkpt>
      <trkpt lat="59.319827" lon="17.86648">
        <ele>14</ele>
        <time>2015-05-05T18:30:16Z</time>
      </trkpt>
      <trkpt lat="59.319785" lon="17.86643">
        <ele>14</ele>
        <time>2015-05-05T18:30:17Z</time>
      </trkpt>
      <trkpt lat="59.319739" lon="17.866374">
        <ele>14</ele>
        <time>2015-05-05T18:30:18Z</time>
      </trkpt>
      <trkpt lat="59.319686" lon="17.866318">
        <ele>14</ele>
        <time>2015-05-05T18:30:19Z</time>
      </trkpt>
      <trkpt lat="59.31963" lon="17.866252">
        <ele>14.1</ele>
        <time>2015-05-05T18:30:20Z</time>
      </trkpt>
      <trkpt lat="59.31958" lon="17.866187">
        <ele>14</ele>
        <time>2015-05-05T18:30:21Z</time>
      </trkpt>
      <trkpt lat="59.31952" lon="17.86612">
        <ele>13.8</ele>
        <time>2015-05-05T18:30:22Z</time>
      </trkpt>
      <trkpt lat="59.319454" lon="17.866055">
        <ele>13.6</ele>
        <time>2015-05-05T18:30:23Z</time>
      </trkpt>
      <trkpt lat="59.31939" lon="17.865978">
        <ele>13.4</ele>
        <time>2015-05-05T18:30:24Z</time>
      </trkpt>
      <trkpt lat="59.319323" lon="17.865905">
        <ele>13.2</ele>
        <time>2015-05-05T18:30:25Z</time>
      </trkpt>
      <trkpt lat="59.319251" lon="17.865827">
        <ele>13</ele>
        <time>2015-05-05T18:30:26Z</time>
      </trkpt>
      <trkpt lat="59.319182" lon="17.865739">
        <ele>12.9</ele>
        <time>2015-05-05T18:30:27Z</time>
      </trkpt>
      <trkpt lat="59.319108" lon="17.865656">
        <ele>12.7</ele>
        <time>2015-05-05T18:30:28Z</time>
      </trkpt>
      <trkpt lat="59.319034" lon="17.865563">
        <ele>12.6</ele>
        <time>2015-05-05T18:30:29Z</time>
      </trkpt>
      <trkpt lat="59.318962" lon="17.86547">
        <ele>12.5</ele>
        <time>2015-05-05T18:30:30Z</time>
      </trkpt>
      <trkpt lat="59.318887" lon="17.865383">
        <ele>12.4</ele>
        <time>2015-05-05T18:30:31Z</time>
      </trkpt>
      <trkpt lat="59.318828" lon="17.865287">
        <ele>12.5</ele>
        <time>2015-05-05T18:30:32Z</time>
      </trkpt>
      <trkpt lat="59.318762" lon="17.865196">
        <ele>12.6</ele>
        <time>2015-05-05T18:30:33Z</time>
      </trkpt>
      <trkpt lat="59.318694" lon="17.86511">
        <ele>12.8</ele>
        <time>2015-05-05T18:30:34Z</time>
      </trkpt>
      <trkpt lat="59.318629" lon="17.865031">
        <ele>13.1</ele>
        <time>2015-05-05T18:30:35Z</time>
      </trkpt>
      <trkpt lat="59.318562" lon="17.864949">
        <ele>13.3</ele>
        <time>2015-05-05T18:30:36Z</time>
      </trkpt>
      <trkpt lat="59.318497" lon="17.864863">
        <ele>13.6</ele>
        <time>2015-05-05T18:30:37Z</time>
      </trkpt>
      <trkpt lat="59.318437" lon="17.864785">
        <ele>13.9</ele>
        <time>2015-05-05T18:30:38Z</time>
      </trkpt>
      <trkpt lat="59.318367" lon="17.864698">
        <ele>14.2</ele>
        <time>2015-05-05T18:30:39Z</time>
      </trkpt>
      <trkpt lat="59.318298" lon="17.864605">
        <ele>14.5</ele>
        <time>2015-05-05T18:30:40Z</time>
      </trkpt>
      <trkpt lat="59.31823" lon="17.86451">
        <ele>14.7</ele>
        <time>2015-05-05T18:30:41Z</time>
      </trkpt>
      <trkpt lat="59.31816" lon="17.864422">
        <ele>15</ele>
        <time>2015-05-05T18:30:42Z</time>
      </trkpt>
      <trkpt lat="59.31809" lon="17.864312">
        <ele>15.2</ele>
        <time>2015-05-05T18:30:43Z</time>
      </trkpt>
      <trkpt lat="59.318015" lon="17.864204">
        <ele>15.4</ele>
        <time>2015-05-05T18:30:44Z</time>
      </trkpt>
      <trkpt lat="59.317945" lon="17.86411">
        <ele>15.6</ele>
        <time>2015-05-05T18:30:45Z</time>
      </trkpt>
      <trkpt lat="59.317871" lon="17.864013">
        <ele>15.6</ele>
        <time>2015-05-05T18:30:46Z</time>
      </trkpt>
      <trkpt lat="59.317796" lon="17.86392">
        <ele>15.7</ele>
        <time>2015-05-05T18:30:47Z</time>
      </trkpt>
      <trkpt lat="59.317725" lon="17.863838">
        <ele>15.7</ele>
        <time>2015-05-05T18:30:48Z</time>
      </trkpt>
      <trkpt lat="59.317655" lon="17.863758">
        <ele>15.7</ele>
        <time>2015-05-05T18:30:49Z</time>
      </trkpt>
      <trkpt lat="59.317587" lon="17.863675">
        <ele>16</ele>
        <time>2015-05-05T18:30:50Z</time>
      </trkpt>
      <trkpt lat="59.31752" lon="17.863589">
        <ele>16.4</ele>
        <time>2015-05-05T18:30:51Z</time>
      </trkpt>
      <trkpt lat="59.317452" lon="17.863515">
        <ele>16.7</ele>
        <time>2015-05-05T18:30:52Z</time>
      </trkpt>
      <trkpt lat="59.317382" lon="17.863434">
        <ele>17</ele>
        <time>2015-05-05T18:30:53Z</time>
      </trkpt>
      <trkpt lat="59.317309" lon="17.863354">
        <ele>17.3</ele>
        <time>2015-05-05T18:30:54Z</time>
      </trkpt>
      <trkpt lat="59.317227" lon="17.863265">
        <ele>17.6</ele>
        <time>2015-05-05T18:30:55Z</time>
      </trkpt>
      <trkpt lat="59.31715" lon="17.863182">
        <ele>17.9</ele>
        <time>2015-05-05T18:30:56Z</time>
      </trkpt>
      <trkpt lat="59.31707" lon="17.863111">
        <ele>18</ele>
        <time>2015-05-05T18:30:57Z</time>
      </trkpt>
      <trkpt lat="59.316993" lon="17.86303">
        <ele>18</ele>
        <time>2015-05-05T18:30:58Z</time>
      </trkpt>
      <trkpt lat="59.316918" lon="17.862959">
        <ele>17.8</ele>
        <time>2015-05-05T18:30:59Z</time>
      </trkpt>
      <trkpt lat="59.316847" lon="17.862883">
        <ele>17.7</ele>
        <time>2015-05-05T18:31:00Z</time>
      </trkpt>
      <trkpt lat="59.316769" lon="17.862804">
        <ele>17.4</ele>
        <time>2015-05-05T18:31:01Z</time>
      </trkpt>
      <trkpt lat="59.316693" lon="17.862732">
        <ele>17</ele>
        <time>2015-05-05T18:31:02Z</time>
      </trkpt>
      <trkpt lat="59.316615" lon="17.862651">
        <ele>16.6</ele>
        <time>2015-05-05T18:31:03Z</time>
      </trkpt>
      <trkpt lat="59.316541" lon="17.862574">
        <ele>16.2</ele>
        <time>2015-05-05T18:31:04Z</time>
      </trkpt>
      <trkpt lat="59.316475" lon="17.862512">
        <ele>15.7</ele>
        <time>2015-05-05T18:31:05Z</time>
      </trkpt>
      <trkpt lat="59.316402" lon="17.862442">
        <ele>15.2</ele>
        <time>2015-05-05T18:31:06Z</time>
      </trkpt>
      <trkpt lat="59.316329" lon="17.862372">
        <ele>14.7</ele>
        <time>2015-05-05T18:31:07Z</time>
      </trkpt>
      <trkpt lat="59.316252" lon="17.862303">
        <ele>14</ele>
        <time>2015-05-05T18:31:08Z</time>
      </trkpt>
      <trkpt lat="59.316172" lon="17.862226">
        <ele>13.8</ele>
        <time>2015-05-05T18:31:09Z</time>
      </trkpt>
      <trkpt lat="59.314039" lon="17.859249">
        <ele>27.1</ele>
        <time>2015-05-05T18:31:42Z</time>
      </trkpt>
      <trkpt lat="59.313949" lon="17.859123">
        <ele>27.7</ele>
        <time>2015-05-05T18:31:43Z</time>
      </trkpt>
      <trkpt lat="59.313863" lon="17.859039">
        <ele>28.3</ele>
        <time>2015-05-05T18:31:44Z</time>
      </trkpt>
      <trkpt lat="59.313806" lon="17.85901">
        <ele>28.6</ele>
        <time>2015-05-05T18:31:45Z</time>
      </trkpt>
      <trkpt lat="59.313756" lon="17.858988">
        <ele>29</ele>
        <time>2015-05-05T18:31:46Z</time>
      </trkpt>
      <trkpt lat="59.313673" lon="17.858934">
        <ele>29.4</ele>
        <time>2015-05-05T18:31:47Z</time>
      </trkpt>
      <trkpt lat="59.313606" lon="17.858932">
        <ele>29.8</ele>
        <time>2015-05-05T18:31:48Z</time>
      </trkpt>
      <trkpt lat="59.313542" lon="17.859057">
        <ele>30</ele>
        <time>2015-05-05T18:31:49Z</time>
      </trkpt>
      <trkpt lat="59.313477" lon="17.859146">
        <ele>30.2</ele>
        <time>2015-05-05T18:31:50Z</time>
      </trkpt>
      <trkpt lat="59.313423" lon="17.85923">
        <ele>30.3</ele>
        <time>2015-05-05T18:31:51Z</time>
      </trkpt>
      <trkpt lat="59.313359" lon="17.859334">
        <ele>30.4</ele>
        <time>2015-05-05T18:31:52Z</time>
      </trkpt>
      <trkpt lat="59.313291" lon="17.859415">
        <ele>30.4</ele>
        <time>2015-05-05T18:31:53Z</time>
      </trkpt>
      <trkpt lat="59.313231" lon="17.859485">
        <ele>30.5</ele>
        <time>2015-05-05T18:31:54Z</time>
      </trkpt>
      <trkpt lat="59.313175" lon="17.859555">
        <ele>30.5</ele>
        <time>2015-05-05T18:31:55Z</time>
      </trkpt>
      <trkpt lat="59.313118" lon="17.859635">
        <ele>30.3</ele>
        <time>2015-05-05T18:31:56Z</time>
      </trkpt>
      <trkpt lat="59.31307" lon="17.859734">
        <ele>30</ele>
        <time>2015-05-05T18:31:57Z</time>
      </trkpt>
      <trkpt lat="59.313012" lon="17.859807">
        <ele>29.8</ele>
        <time>2015-05-05T18:31:58Z</time>
      </trkpt>
      <trkpt lat="59.312953" lon="17.859894">
        <ele>29.5</ele>
        <time>2015-05-05T18:31:59Z</time>
      </trkpt>
      <trkpt lat="59.312904" lon="17.859984">
        <ele>29.1</ele>
        <time>2015-05-05T18:32:00Z</time>
      </trkpt>
      <trkpt lat="59.312847" lon="17.860028">
        <ele>28.9</ele>
        <time>2015-05-05T18:32:01Z</time>
      </trkpt>
      <trkpt lat="59.312765" lon="17.860017">
        <ele>28.9</ele>
        <time>2015-05-05T18:32:02Z</time>
      </trkpt>
      <trkpt lat="59.312671" lon="17.86003">
        <ele>28.8</ele>
        <time>2015-05-05T18:32:03Z</time>
      </trkpt>
      <trkpt lat="59.312591" lon="17.860054">
        <ele>28.7</ele>
        <time>2015-05-05T18:32:04Z</time>
      </trkpt>
      <trkpt lat="59.312529" lon="17.860083">
        <ele>28.5</ele>
        <time>2015-05-05T18:32:05Z</time>
      </trkpt>
      <trkpt lat="59.312457" lon="17.860095">
        <ele>28.4</ele>
        <time>2015-05-05T18:32:06Z</time>
      </trkpt>
      <trkpt lat="59.31238" lon="17.860118">
        <ele>28.3</ele>
        <time>2015-05-05T18:32:07Z</time>
      </trkpt>
      <trkpt lat="59.312296" lon="17.860151">
        <ele>28</ele>
        <time>2015-05-05T18:32:08Z</time>
      </trkpt>
      <trkpt lat="59.31221" lon="17.860175">
        <ele>27.8</ele>
        <time>2015-05-05T18:32:09Z</time>
      </trkpt>
      <trkpt lat="59.312132" lon="17.8602">
        <ele>27.6</ele>
        <time>2015-05-05T18:32:10Z</time>
      </trkpt>
      <trkpt lat="59.312049" lon="17.860226">
        <ele>27.3</ele>
        <time>2015-05-05T18:32:11Z</time>
      </trkpt>
      <trkpt lat="59.311973" lon="17.860252">
        <ele>27.1</ele>
        <time>2015-05-05T18:32:12Z</time>
      </trkpt>
      <trkpt lat="59.311892" lon="17.860281">
        <ele>26.7</ele>
        <time>2015-05-05T18:32:13Z</time>
      </trkpt>
      <trkpt lat="59.3118" lon="17.86031">
        <ele>26.4</ele>
        <time>2015-05-05T18:32:14Z</time>
      </trkpt>
      <trkpt lat="59.311716" lon="17.860343">
        <ele>26.1</ele>
        <time>2015-05-05T18:32:15Z</time>
      </trkpt>
      <trkpt lat="59.311631" lon="17.860372">
        <ele>25.8</ele>
        <time>2015-05-05T18:32:16Z</time>
      </trkpt>
      <trkpt lat="59.311544" lon="17.860397">
        <ele>25.5</ele>
        <time>2015-05-05T18:32:17Z</time>
      </trkpt>
      <trkpt lat="59.311465" lon="17.860417">
        <ele>25.3</ele>
        <time>2015-05-05T18:32:18Z</time>
      </trkpt>
      <trkpt lat="59.311378" lon="17.860446">
        <ele>25.2</ele>
        <time>2015-05-05T18:32:19Z</time>
      </trkpt>
      <trkpt lat="59.311297" lon="17.860484">
        <ele>25.1</ele>
        <time>2015-05-05T18:32:20Z</time>
      </trkpt>
      <trkpt lat="59.311205" lon="17.860491">
        <ele>25.2</ele>
        <time>2015-05-05T18:32:21Z</time>
      </trkpt>
      <trkpt lat="59.311116" lon="17.860503">
        <ele>25.5</ele>
        <time>2015-05-05T18:32:22Z</time>
      </trkpt>
      <trkpt lat="59.311027" lon="17.860524">
        <ele>25.8</ele>
        <time>2015-05-05T18:32:23Z</time>
      </trkpt>
      <trkpt lat="59.310943" lon="17.860546">
        <ele>26</ele>
        <time>2015-05-05T18:32:24Z</time>
      </trkpt>
      <trkpt lat="59.310864" lon="17.860549">
        <ele>26.2</ele>
        <time>2015-05-05T18:32:25Z</time>
      </trkpt>
      <trkpt lat="59.310774" lon="17.860563">
        <ele>26.4</ele>
        <time>2015-05-05T18:32:26Z</time>
      </trkpt>
      <trkpt lat="59.310689" lon="17.86057">
        <ele>26.6</ele>
        <time>2015-05-05T18:32:27Z</time>
      </trkpt>
      <trkpt lat="59.310601" lon="17.860558">
        <ele>26.8</ele>
        <time>2015-05-05T18:32:28Z</time>
      </trkpt>
      <trkpt lat="59.310511" lon="17.860548">
        <ele>27.1</ele>
        <time>2015-05-05T18:32:29Z</time>
      </trkpt>
      <trkpt lat="59.310415" lon="17.860547">
        <ele>27.4</ele>
        <time>2015-05-05T18:32:30Z</time>
      </trkpt>
      <trkpt lat="59.31031" lon="17.860555">
        <ele>27.4</ele>
        <time>2015-05-05T18:32:31Z</time>
      </trkpt>
      <trkpt lat="59.31021" lon="17.860552">
        <ele>27.5</ele>
        <time>2015-05-05T18:32:32Z</time>
      </trkpt>
      <trkpt lat="59.310098" lon="17.860551">
        <ele>27.6</ele>
        <time>2015-05-05T18:32:33Z</time>
      </trkpt>
      <trkpt lat="59.309991" lon="17.860554">
        <ele>27.6</ele>
        <time>2015-05-05T18:32:34Z</time>
      </trkpt>
      <trkpt lat="59.309869" lon="17.860552">
        <ele>27.7</ele>
        <time>2015-05-05T18:32:35Z</time>
      </trkpt>
      <trkpt lat="59.309765" lon="17.860536">
        <ele>27.9</ele>
        <time>2015-05-05T18:32:36Z</time>
      </trkpt>
      <trkpt lat="59.309653" lon="17.860522">
        <ele>28.1</ele>
        <time>2015-05-05T18:32:37Z</time>
      </trkpt>
      <trkpt lat="59.309541" lon="17.86051">
        <ele>27.8</ele>
        <time>2015-05-05T18:32:38Z</time>
      </trkpt>
      <trkpt lat="59.309431" lon="17.860479">
        <ele>26.9</ele>
        <time>2015-05-05T18:32:39Z</time>
      </trkpt>
      <trkpt lat="59.309314" lon="17.860433">
        <ele>26</ele>
        <time>2015-05-05T18:32:40Z</time>
      </trkpt>
      <trkpt lat="59.309208" lon="17.860391">
        <ele>25.1</ele>
        <time>2015-05-05T18:32:41Z</time>
      </trkpt>
      <trkpt lat="59.309107" lon="17.860338">
        <ele>24.4</ele>
        <time>2015-05-05T18:32:42Z</time>
      </trkpt>
      <trkpt lat="59.308998" lon="17.860271">
        <ele>23.6</ele>
        <time>2015-05-05T18:32:43Z</time>
      </trkpt>
      <trkpt lat="59.308902" lon="17.860208">
        <ele>22.9</ele>
        <time>2015-05-05T18:32:44Z</time>
      </trkpt>
      <trkpt lat="59.308808" lon="17.860133">
        <ele>22.4</ele>
        <time>2015-05-05T18:32:45Z</time>
      </trkpt>
      <trkpt lat="59.308703" lon="17.860053">
        <ele>21.7</ele>
        <time>2015-05-05T18:32:46Z</time>
      </trkpt>
      <trkpt lat="59.308604" lon="17.859965">
        <ele>21.2</ele>
        <time>2015-05-05T18:32:47Z</time>
      </trkpt>
      <trkpt lat="59.308507" lon="17.859886">
        <ele>20.6</ele>
        <time>2015-05-05T18:32:48Z</time>
      </trkpt>
      <trkpt lat="59.30841" lon="17.85978">
        <ele>20</ele>
        <time>2015-05-05T18:32:49Z</time>
      </trkpt>
      <trkpt lat="59.30831" lon="17.859697">
        <ele>19.3</ele>
        <time>2015-05-05T18:32:50Z</time>
      </trkpt>
      <trkpt lat="59.308216" lon="17.859621">
        <ele>18.5</ele>
        <time>2015-05-05T18:32:51Z</time>
      </trkpt>
      <trkpt lat="59.308119" lon="17.85952">
        <ele>17.6</ele>
        <time>2015-05-05T18:32:52Z</time>
      </trkpt>
      <trkpt lat="59.308016" lon="17.859439">
        <ele>16.6</ele>
        <time>2015-05-05T18:32:53Z</time>
      </trkpt>
      <trkpt lat="59.307916" lon="17.859359">
        <ele>15.5</ele>
        <time>2015-05-05T18:32:54Z</time>
      </trkpt>
      <trkpt lat="59.307811" lon="17.859282">
        <ele>15.4</ele>
        <time>2015-05-05T18:32:55Z</time>
      </trkpt>
      <trkpt lat="59.307718" lon="17.859199">
        <ele>15.2</ele>
        <time>2015-05-05T18:32:56Z</time>
      </trkpt>
      <trkpt lat="59.307622" lon="17.859106">
        <ele>15</ele>
        <time>2015-05-05T18:32:57Z</time>
      </trkpt>
      <trkpt lat="59.307523" lon="17.859002">
        <ele>14.8</ele>
        <time>2015-05-05T18:32:58Z</time>
      </trkpt>
      <trkpt lat="59.307427" lon="17.858916">
        <ele>14.5</ele>
        <time>2015-05-05T18:32:59Z</time>
      </trkpt>
      <trkpt lat="59.307327" lon="17.858829">
        <ele>14.1</ele>
        <time>2015-05-05T18:33:00Z</time>
      </trkpt>
      <trkpt lat="59.307232" lon="17.858729">
        <ele>13.7</ele>
        <time>2015-05-05T18:33:01Z</time>
      </trkpt>
      <trkpt lat="59.307129" lon="17.858645">
        <ele>13.2</ele>
        <time>2015-05-05T18:33:02Z</time>
      </trkpt>
      <trkpt lat="59.307036" lon="17.858562">
        <ele>12.8</ele>
        <time>2015-05-05T18:33:03Z</time>
      </trkpt>
      <trkpt lat="59.306933" lon="17.858478">
        <ele>12.5</ele>
        <time>2015-05-05T18:33:04Z</time>
      </trkpt>
      <trkpt lat="59.306836" lon="17.858407">
        <ele>12.2</ele>
        <time>2015-05-05T18:33:05Z</time>
      </trkpt>
      <trkpt lat="59.306738" lon="17.858318">
        <ele>12</ele>
        <time>2015-05-05T18:33:06Z</time>
      </trkpt>
      <trkpt lat="59.30664" lon="17.858238">
        <ele>11.7</ele>
        <time>2015-05-05T18:33:07Z</time>
      </trkpt>
      <trkpt lat="59.306546" lon="17.858164">
        <ele>11.5</ele>
        <time>2015-05-05T18:33:08Z</time>
      </trkpt>
      <trkpt lat="59.30645" lon="17.85809">
        <ele>11.3</ele>
        <time>2015-05-05T18:33:09Z</time>
      </trkpt>
      <trkpt lat="59.306346" lon="17.858003">
        <ele>11.1</ele>
        <time>2015-05-05T18:33:10Z</time>
      </trkpt>
      <trkpt lat="59.306246" lon="17.857916">
        <ele>11</ele>
        <time>2015-05-05T18:33:11Z</time>
      </trkpt>
      <trkpt lat="59.30614" lon="17.857832">
        <ele>10.9</ele>
        <time>2015-05-05T18:33:12Z</time>
      </trkpt>
      <trkpt lat="59.306041" lon="17.857726">
        <ele>10.8</ele>
        <time>2015-05-05T18:33:13Z</time>
      </trkpt>
      <trkpt lat="59.305941" lon="17.857638">
        <ele>10.8</ele>
        <time>2015-05-05T18:33:14Z</time>
      </trkpt>
      <trkpt lat="59.305843" lon="17.857554">
        <ele>10.7</ele>
        <time>2015-05-05T18:33:15Z</time>
      </trkpt>
      <trkpt lat="59.305742" lon="17.857462">
        <ele>10.7</ele>
        <time>2015-05-05T18:33:16Z</time>
      </trkpt>
      <trkpt lat="59.305646" lon="17.857369">
        <ele>10.8</ele>
        <time>2015-05-05T18:33:17Z</time>
      </trkpt>
      <trkpt lat="59.30555" lon="17.857283">
        <ele>10.8</ele>
        <time>2015-05-05T18:33:18Z</time>
      </trkpt>
      <trkpt lat="59.30546" lon="17.857207">
        <ele>10.9</ele>
        <time>2015-05-05T18:33:19Z</time>
      </trkpt>
      <trkpt lat="59.30537" lon="17.857137">
        <ele>11</ele>
        <time>2015-05-05T18:33:20Z</time>
      </trkpt>
      <trkpt lat="59.305281" lon="17.857061">
        <ele>11.2</ele>
        <time>2015-05-05T18:33:21Z</time>
      </trkpt>
      <trkpt lat="59.305187" lon="17.856983">
        <ele>11.5</ele>
        <time>2015-05-05T18:33:22Z</time>
      </trkpt>
      <trkpt lat="59.305098" lon="17.856897">
        <ele>11.9</ele>
        <time>2015-05-05T18:33:23Z</time>
      </trkpt>
      <trkpt lat="59.305004" lon="17.856815">
        <ele>12.3</ele>
        <time>2015-05-05T18:33:24Z</time>
      </trkpt>
      <trkpt lat="59.304914" lon="17.856747">
        <ele>12.7</ele>
        <time>2015-05-05T18:33:25Z</time>
      </trkpt>
      <trkpt lat="59.304824" lon="17.856653">
        <ele>13.1</ele>
        <time>2015-05-05T18:33:26Z</time>
      </trkpt>
      <trkpt lat="59.304737" lon="17.856554">
        <ele>13.6</ele>
        <time>2015-05-05T18:33:27Z</time>
      </trkpt>
      <trkpt lat="59.304656" lon="17.856482">
        <ele>14</ele>
        <time>2015-05-05T18:33:28Z</time>
      </trkpt>
      <trkpt lat="59.304576" lon="17.856404">
        <ele>14.4</ele>
        <time>2015-05-05T18:33:29Z</time>
      </trkpt>
      <trkpt lat="59.304501" lon="17.85634">
        <ele>14.7</ele>
        <time>2015-05-05T18:33:30Z</time>
      </trkpt>
      <trkpt lat="59.304422" lon="17.856262">
        <ele>15</ele>
        <time>2015-05-05T18:33:31Z</time>
      </trkpt>
      <trkpt lat="59.30435" lon="17.856206">
        <ele>15.1</ele>
        <time>2015-05-05T18:33:32Z</time>
      </trkpt>
      <trkpt lat="59.304278" lon="17.856131">
        <ele>15.4</ele>
        <time>2015-05-05T18:33:33Z</time>
      </trkpt>
      <trkpt lat="59.304199" lon="17.85607">
        <ele>15.5</ele>
        <time>2015-05-05T18:33:34Z</time>
      </trkpt>
      <trkpt lat="59.304125" lon="17.855998">
        <ele>15.7</ele>
        <time>2015-05-05T18:33:35Z</time>
      </trkpt>
      <trkpt lat="59.304048" lon="17.855928">
        <ele>15.9</ele>
        <time>2015-05-05T18:33:36Z</time>
      </trkpt>
      <trkpt lat="59.303966" lon="17.855869">
        <ele>16</ele>
        <time>2015-05-05T18:33:37Z</time>
      </trkpt>
      <trkpt lat="59.303893" lon="17.855796">
        <ele>16.2</ele>
        <time>2015-05-05T18:33:38Z</time>
      </trkpt>
      <trkpt lat="59.303823" lon="17.855729">
        <ele>16.3</ele>
        <time>2015-05-05T18:33:39Z</time>
      </trkpt>
      <trkpt lat="59.30375" lon="17.855669">
        <ele>16.4</ele>
        <time>2015-05-05T18:33:40Z</time>
      </trkpt>
      <trkpt lat="59.303664" lon="17.85559">
        <ele>16.3</ele>
        <time>2015-05-05T18:33:41Z</time>
      </trkpt>
      <trkpt lat="59.303587" lon="17.855524">
        <ele>16.2</ele>
        <time>2015-05-05T18:33:42Z</time>
      </trkpt>
      <trkpt lat="59.30351" lon="17.855446">
        <ele>16.1</ele>
        <time>2015-05-05T18:33:43Z</time>
      </trkpt>
      <trkpt lat="59.303429" lon="17.85538">
        <ele>16.1</ele>
        <time>2015-05-05T18:33:44Z</time>
      </trkpt>
      <trkpt lat="59.303349" lon="17.855309">
        <ele>16.1</ele>
        <time>2015-05-05T18:33:45Z</time>
      </trkpt>
      <trkpt lat="59.303269" lon="17.85523">
        <ele>16.2</ele>
        <time>2015-05-05T18:33:46Z</time>
      </trkpt>
      <trkpt lat="59.303184" lon="17.855157">
        <ele>16.2</ele>
        <time>2015-05-05T18:33:47Z</time>
      </trkpt>
      <trkpt lat="59.303108" lon="17.855096">
        <ele>16.1</ele>
        <time>2015-05-05T18:33:48Z</time>
      </trkpt>
      <trkpt lat="59.303031" lon="17.855035">
        <ele>16</ele>
        <time>2015-05-05T18:33:49Z</time>
      </trkpt>
      <trkpt lat="59.302965" lon="17.854971">
        <ele>15.9</ele>
        <time>2015-05-05T18:33:50Z</time>
      </trkpt>
      <trkpt lat="59.302896" lon="17.854906">
        <ele>15.7</ele>
        <time>2015-05-05T18:33:51Z</time>
      </trkpt>
      <trkpt lat="59.302827" lon="17.854845">
        <ele>15.4</ele>
        <time>2015-05-05T18:33:52Z</time>
      </trkpt>
      <trkpt lat="59.302788" lon="17.854776">
        <ele>15.3</ele>
        <time>2015-05-05T18:33:53Z</time>
      </trkpt>
      <trkpt lat="59.302773" lon="17.85469">
        <ele>15.5</ele>
        <time>2015-05-05T18:33:54Z</time>
      </trkpt>
      <trkpt lat="59.302766" lon="17.854575">
        <ele>15.8</ele>
        <time>2015-05-05T18:33:55Z</time>
      </trkpt>
      <trkpt lat="59.302767" lon="17.854473">
        <ele>16</ele>
        <time>2015-05-05T18:33:56Z</time>
      </trkpt>
      <trkpt lat="59.302749" lon="17.854362">
        <ele>16</ele>
        <time>2015-05-05T18:33:57Z</time>
      </trkpt>
      <trkpt lat="59.302713" lon="17.854256">
        <ele>15.9</ele>
        <time>2015-05-05T18:33:58Z</time>
      </trkpt>
      <trkpt lat="59.302657" lon="17.854189">
        <ele>15.5</ele>
        <time>2015-05-05T18:33:59Z</time>
      </trkpt>
      <trkpt lat="59.302595" lon="17.854119">
        <ele>15</ele>
        <time>2015-05-05T18:34:00Z</time>
      </trkpt>
      <trkpt lat="59.302524" lon="17.854063">
        <ele>14.4</ele>
        <time>2015-05-05T18:34:01Z</time>
      </trkpt>
      <trkpt lat="59.302452" lon="17.854014">
        <ele>13.7</ele>
        <time>2015-05-05T18:34:02Z</time>
      </trkpt>
      <trkpt lat="59.302361" lon="17.854047">
        <ele>12.8</ele>
        <time>2015-05-05T18:34:03Z</time>
      </trkpt>
      <trkpt lat="59.302278" lon="17.854035">
        <ele>11.9</ele>
        <time>2015-05-05T18:34:04Z</time>
      </trkpt>
      <trkpt lat="59.302198" lon="17.854027">
        <ele>11.1</ele>
        <time>2015-05-05T18:34:05Z</time>
      </trkpt>
      <trkpt lat="59.302121" lon="17.853996">
        <ele>10.4</ele>
        <time>2015-05-05T18:34:06Z</time>
      </trkpt>
      <trkpt lat="59.302041" lon="17.853888">
        <ele>9.9</ele>
        <time>2015-05-05T18:34:07Z</time>
      </trkpt>
      <trkpt lat="59.301962" lon="17.853849">
        <ele>9.7</ele>
        <time>2015-05-05T18:34:08Z</time>
      </trkpt>
      <trkpt lat="59.301889" lon="17.853789">
        <ele>9.5</ele>
        <time>2015-05-05T18:34:09Z</time>
      </trkpt>
      <trkpt lat="59.301817" lon="17.853732">
        <ele>9.4</ele>
        <time>2015-05-05T18:34:10Z</time>
      </trkpt>
      <trkpt lat="59.301739" lon="17.853673">
        <ele>9.2</ele>
        <time>2015-05-05T18:34:11Z</time>
      </trkpt>
      <trkpt lat="59.301652" lon="17.853577">
        <ele>9.1</ele>
        <time>2015-05-05T18:34:12Z</time>
      </trkpt>
      <trkpt lat="59.301556" lon="17.853484">
        <ele>8.9</ele>
        <time>2015-05-05T18:34:13Z</time>
      </trkpt>
      <trkpt lat="59.301457" lon="17.853384">
        <ele>8.8</ele>
        <time>2015-05-05T18:34:14Z</time>
      </trkpt>
      <trkpt lat="59.301359" lon="17.853315">
        <ele>8.7</ele>
        <time>2015-05-05T18:34:15Z</time>
      </trkpt>
      <trkpt lat="59.301269" lon="17.853264">
        <ele>8.6</ele>
        <time>2015-05-05T18:34:16Z</time>
      </trkpt>
      <trkpt lat="59.301187" lon="17.853206">
        <ele>8.7</ele>
        <time>2015-05-05T18:34:17Z</time>
      </trkpt>
      <trkpt lat="59.301089" lon="17.853154">
        <ele>8.8</ele>
        <time>2015-05-05T18:34:18Z</time>
      </trkpt>
      <trkpt lat="59.301002" lon="17.853104">
        <ele>8.9</ele>
        <time>2015-05-05T18:34:19Z</time>
      </trkpt>
      <trkpt lat="59.300913" lon="17.853082">
        <ele>9</ele>
        <time>2015-05-05T18:34:20Z</time>
      </trkpt>
      <trkpt lat="59.300829" lon="17.853042">
        <ele>9.2</ele>
        <time>2015-05-05T18:34:21Z</time>
      </trkpt>
      <trkpt lat="59.300729" lon="17.852985">
        <ele>9.4</ele>
        <time>2015-05-05T18:34:22Z</time>
      </trkpt>
      <trkpt lat="59.300645" lon="17.852922">
        <ele>9.7</ele>
        <time>2015-05-05T18:34:23Z</time>
      </trkpt>
      <trkpt lat="59.300577" lon="17.852868">
        <ele>9.9</ele>
        <time>2015-05-05T18:34:24Z</time>
      </trkpt>
      <trkpt lat="59.300499" lon="17.852781">
        <ele>10.3</ele>
        <time>2015-05-05T18:34:25Z</time>
      </trkpt>
      <trkpt lat="59.30042" lon="17.852662">
        <ele>10.9</ele>
        <time>2015-05-05T18:34:26Z</time>
      </trkpt>
      <trkpt lat="59.30035" lon="17.852574">
        <ele>12.5</ele>
        <time>2015-05-05T18:34:27Z</time>
      </trkpt>
      <trkpt lat="59.300288" lon="17.852473">
        <ele>14.2</ele>
        <time>2015-05-05T18:34:28Z</time>
      </trkpt>
      <trkpt lat="59.300219" lon="17.852371">
        <ele>16</ele>
        <time>2015-05-05T18:34:29Z</time>
      </trkpt>
      <trkpt lat="59.300151" lon="17.852298">
        <ele>17.7</ele>
        <time>2015-05-05T18:34:30Z</time>
      </trkpt>
      <trkpt lat="59.30008" lon="17.852214">
        <ele>19.6</ele>
        <time>2015-05-05T18:34:31Z</time>
      </trkpt>
      <trkpt lat="59.300003" lon="17.852121">
        <ele>21.7</ele>
        <time>2015-05-05T18:34:32Z</time>
      </trkpt>
      <trkpt lat="59.299938" lon="17.85203">
        <ele>23.4</ele>
        <time>2015-05-05T18:34:33Z</time>
      </trkpt>
      <trkpt lat="59.299878" lon="17.851955">
        <ele>24.8</ele>
        <time>2015-05-05T18:34:34Z</time>
      </trkpt>
      <trkpt lat="59.299819" lon="17.851893">
        <ele>26.2</ele>
        <time>2015-05-05T18:34:35Z</time>
      </trkpt>
      <trkpt lat="59.299757" lon="17.851849">
        <ele>27.7</ele>
        <time>2015-05-05T18:34:36Z</time>
      </trkpt>
      <trkpt lat="59.299682" lon="17.851871">
        <ele>29.3</ele>
        <time>2015-05-05T18:34:37Z</time>
      </trkpt>
      <trkpt lat="59.299623" lon="17.851963">
        <ele>30.4</ele>
        <time>2015-05-05T18:34:38Z</time>
      </trkpt>
      <trkpt lat="59.299565" lon="17.852061">
        <ele>31.2</ele>
        <time>2015-05-05T18:34:39Z</time>
      </trkpt>
      <trkpt lat="59.299515" lon="17.852154">
        <ele>31</ele>
        <time>2015-05-05T18:34:40Z</time>
      </trkpt>
      <trkpt lat="59.299519" lon="17.852321">
        <ele>29.7</ele>
        <time>2015-05-05T18:34:41Z</time>
      </trkpt>
      <trkpt lat="59.299453" lon="17.852456">
        <ele>29.1</ele>
        <time>2015-05-05T18:34:42Z</time>
      </trkpt>
      <trkpt lat="59.299483" lon="17.852518">
        <ele>28.5</ele>
        <time>2015-05-05T18:34:43Z</time>
      </trkpt>
      <trkpt lat="59.299444" lon="17.852665">
        <ele>27.6</ele>
        <time>2015-05-05T18:34:44Z</time>
      </trkpt>
      <trkpt lat="59.299417" lon="17.852785">
        <ele>26.8</ele>
        <time>2015-05-05T18:34:45Z</time>
      </trkpt>
      <trkpt lat="59.299414" lon="17.852902">
        <ele>25.9</ele>
        <time>2015-05-05T18:34:46Z</time>
      </trkpt>
      <trkpt lat="59.29938" lon="17.853025">
        <ele>25</ele>
        <time>2015-05-05T18:34:47Z</time>
      </trkpt>
      <trkpt lat="59.299344" lon="17.853125">
        <ele>24.3</ele>
        <time>2015-05-05T18:34:48Z</time>
      </trkpt>
      <trkpt lat="59.299306" lon="17.853221">
        <ele>23.5</ele>
        <time>2015-05-05T18:34:49Z</time>
      </trkpt>
      <trkpt lat="59.299268" lon="17.853309">
        <ele>22.9</ele>
        <time>2015-05-05T18:34:50Z</time>
      </trkpt>
      <trkpt lat="59.299213" lon="17.853424">
        <ele>22</ele>
        <time>2015-05-05T18:34:51Z</time>
      </trkpt>
      <trkpt lat="59.299157" lon="17.853529">
        <ele>21.2</ele>
        <time>2015-05-05T18:34:52Z</time>
      </trkpt>
      <trkpt lat="59.299101" lon="17.853632">
        <ele>20.3</ele>
        <time>2015-05-05T18:34:53Z</time>
      </trkpt>
      <trkpt lat="59.299042" lon="17.853726">
        <ele>19.5</ele>
        <time>2015-05-05T18:34:54Z</time>
      </trkpt>
      <trkpt lat="59.29899" lon="17.853818">
        <ele>18.9</ele>
        <time>2015-05-05T18:34:55Z</time>
      </trkpt>
      <trkpt lat="59.298926" lon="17.853905">
        <ele>18.3</ele>
        <time>2015-05-05T18:34:56Z</time>
      </trkpt>
      <trkpt lat="59.298859" lon="17.853978">
        <ele>17.8</ele>
        <time>2015-05-05T18:34:57Z</time>
      </trkpt>
      <trkpt lat="59.298788" lon="17.854037">
        <ele>17.5</ele>
        <time>2015-05-05T18:34:58Z</time>
      </trkpt>
      <trkpt lat="59.29873" lon="17.854075">
        <ele>17.1</ele>
        <time>2015-05-05T18:34:59Z</time>
      </trkpt>
      <trkpt lat="59.298646" lon="17.854102">
        <ele>16.1</ele>
        <time>2015-05-05T18:35:00Z</time>
      </trkpt>
      <trkpt lat="59.298571" lon="17.854103">
        <ele>15.3</ele>
        <time>2015-05-05T18:35:01Z</time>
      </trkpt>
      <trkpt lat="59.298492" lon="17.854101">
        <ele>14.6</ele>
        <time>2015-05-05T18:35:02Z</time>
      </trkpt>
      <trkpt lat="59.298433" lon="17.854063">
        <ele>14.3</ele>
        <time>2015-05-05T18:35:03Z</time>
      </trkpt>
      <trkpt lat="59.298346" lon="17.854">
        <ele>13.8</ele>
        <time>2015-05-05T18:35:04Z</time>
      </trkpt>
      <trkpt lat="59.298279" lon="17.85392">
        <ele>13.5</ele>
        <time>2015-05-05T18:35:05Z</time>
      </trkpt>
      <trkpt lat="59.298221" lon="17.853827">
        <ele>13.3</ele>
        <time>2015-05-05T18:35:06Z</time>
      </trkpt>
      <trkpt lat="59.298169" lon="17.853729">
        <ele>13.2</ele>
        <time>2015-05-05T18:35:07Z</time>
      </trkpt>
      <trkpt lat="59.29813" lon="17.853611">
        <ele>13.7</ele>
        <time>2015-05-05T18:35:08Z</time>
      </trkpt>
      <trkpt lat="59.298075" lon="17.853496">
        <ele>13.9</ele>
        <time>2015-05-05T18:35:09Z</time>
      </trkpt>
      <trkpt lat="59.298033" lon="17.85336">
        <ele>14.4</ele>
        <time>2015-05-05T18:35:10Z</time>
      </trkpt>
      <trkpt lat="59.298007" lon="17.853232">
        <ele>15</ele>
        <time>2015-05-05T18:35:11Z</time>
      </trkpt>
      <trkpt lat="59.297972" lon="17.853109">
        <ele>15.4</ele>
        <time>2015-05-05T18:35:12Z</time>
      </trkpt>
      <trkpt lat="59.297924" lon="17.852971">
        <ele>15.7</ele>
        <time>2015-05-05T18:35:13Z</time>
      </trkpt>
      <trkpt lat="59.297891" lon="17.852845">
        <ele>16.3</ele>
        <time>2015-05-05T18:35:14Z</time>
      </trkpt>
      <trkpt lat="59.297861" lon="17.852717">
        <ele>16.9</ele>
        <time>2015-05-05T18:35:15Z</time>
      </trkpt>
      <trkpt lat="59.29783" lon="17.852575">
        <ele>17.5</ele>
        <time>2015-05-05T18:35:16Z</time>
      </trkpt>
      <trkpt lat="59.297812" lon="17.85244">
        <ele>18.1</ele>
        <time>2015-05-05T18:35:17Z</time>
      </trkpt>
      <trkpt lat="59.297791" lon="17.852331">
        <ele>18.6</ele>
        <time>2015-05-05T18:35:18Z</time>
      </trkpt>
      <trkpt lat="59.297755" lon="17.85222">
        <ele>18.9</ele>
        <time>2015-05-05T18:35:19Z</time>
      </trkpt>
      <trkpt lat="59.297727" lon="17.852101">
        <ele>19.3</ele>
        <time>2015-05-05T18:35:20Z</time>
      </trkpt>
      <trkpt lat="59.297703" lon="17.851961">
        <ele>19.4</ele>
        <time>2015-05-05T18:35:21Z</time>
      </trkpt>
      <trkpt lat="59.297672" lon="17.851859">
        <ele>19.2</ele>
        <time>2015-05-05T18:35:22Z</time>
      </trkpt>
      <trkpt lat="59.297647" lon="17.851757">
        <ele>19.1</ele>
        <time>2015-05-05T18:35:23Z</time>
      </trkpt>
      <trkpt lat="59.297618" lon="17.851642">
        <ele>19</ele>
        <time>2015-05-05T18:35:24Z</time>
      </trkpt>
      <trkpt lat="59.297585" lon="17.851514">
        <ele>18.9</ele>
        <time>2015-05-05T18:35:25Z</time>
      </trkpt>
      <trkpt lat="59.297558" lon="17.851334">
        <ele>18.9</ele>
        <time>2015-05-05T18:35:26Z</time>
      </trkpt>
      <trkpt lat="59.297537" lon="17.851194">
        <ele>18.8</ele>
        <time>2015-05-05T18:35:27Z</time>
      </trkpt>
      <trkpt lat="59.297516" lon="17.851056">
        <ele>18.6</ele>
        <time>2015-05-05T18:35:28Z</time>
      </trkpt>
      <trkpt lat="59.297511" lon="17.850926">
        <ele>18.6</ele>
        <time>2015-05-05T18:35:29Z</time>
      </trkpt>
      <trkpt lat="59.297443" lon="17.850685">
        <ele>18</ele>
        <time>2015-05-05T18:35:30Z</time>
      </trkpt>
      <trkpt lat="59.297431" lon="17.850576">
        <ele>17.9</ele>
        <time>2015-05-05T18:35:31Z</time>
      </trkpt>
      <trkpt lat="59.297416" lon="17.850463">
        <ele>17.8</ele>
        <time>2015-05-05T18:35:32Z</time>
      </trkpt>
      <trkpt lat="59.297414" lon="17.850326">
        <ele>18</ele>
        <time>2015-05-05T18:35:33Z</time>
      </trkpt>
      <trkpt lat="59.297411" lon="17.850188">
        <ele>18.2</ele>
        <time>2015-05-05T18:35:34Z</time>
      </trkpt>
      <trkpt lat="59.297392" lon="17.850055">
        <ele>18.3</ele>
        <time>2015-05-05T18:35:35Z</time>
      </trkpt>
      <trkpt lat="59.297372" lon="17.849951">
        <ele>18.4</ele>
        <time>2015-05-05T18:35:36Z</time>
      </trkpt>
      <trkpt lat="59.297356" lon="17.849822">
        <ele>18.5</ele>
        <time>2015-05-05T18:35:37Z</time>
      </trkpt>
      <trkpt lat="59.29733" lon="17.8497">
        <ele>18.4</ele>
        <time>2015-05-05T18:35:38Z</time>
      </trkpt>
      <trkpt lat="59.297291" lon="17.849609">
        <ele>18.2</ele>
        <time>2015-05-05T18:35:39Z</time>
      </trkpt>
      <trkpt lat="59.297251" lon="17.849491">
        <ele>17.9</ele>
        <time>2015-05-05T18:35:40Z</time>
      </trkpt>
      <trkpt lat="59.297211" lon="17.849358">
        <ele>17.5</ele>
        <time>2015-05-05T18:35:41Z</time>
      </trkpt>
      <trkpt lat="59.297169" lon="17.849226">
        <ele>17</ele>
        <time>2015-05-05T18:35:42Z</time>
      </trkpt>
      <trkpt lat="59.297139" lon="17.849075">
        <ele>16.7</ele>
        <time>2015-05-05T18:35:43Z</time>
      </trkpt>
      <trkpt lat="59.297093" lon="17.848938">
        <ele>16.1</ele>
        <time>2015-05-05T18:35:44Z</time>
      </trkpt>
      <trkpt lat="59.297032" lon="17.84879">
        <ele>16.3</ele>
        <time>2015-05-05T18:35:45Z</time>
      </trkpt>
      <trkpt lat="59.296988" lon="17.848645">
        <ele>16.4</ele>
        <time>2015-05-05T18:35:46Z</time>
      </trkpt>
      <trkpt lat="59.296939" lon="17.848507">
        <ele>16.6</ele>
        <time>2015-05-05T18:35:47Z</time>
      </trkpt>
      <trkpt lat="59.296882" lon="17.848346">
        <ele>16.7</ele>
        <time>2015-05-05T18:35:48Z</time>
      </trkpt>
      <trkpt lat="59.296836" lon="17.848185">
        <ele>16.8</ele>
        <time>2015-05-05T18:35:49Z</time>
      </trkpt>
      <trkpt lat="59.296784" lon="17.848005">
        <ele>16.9</ele>
        <time>2015-05-05T18:35:50Z</time>
      </trkpt>
      <trkpt lat="59.296729" lon="17.847836">
        <ele>17.1</ele>
        <time>2015-05-05T18:35:51Z</time>
      </trkpt>
      <trkpt lat="59.296684" lon="17.847678">
        <ele>17.4</ele>
        <time>2015-05-05T18:35:52Z</time>
      </trkpt>
      <trkpt lat="59.296641" lon="17.847543">
        <ele>17.7</ele>
        <time>2015-05-05T18:35:53Z</time>
      </trkpt>
      <trkpt lat="59.296612" lon="17.847391">
        <ele>17.8</ele>
        <time>2015-05-05T18:35:54Z</time>
      </trkpt>
      <trkpt lat="59.296593" lon="17.847223">
        <ele>17.9</ele>
        <time>2015-05-05T18:35:55Z</time>
      </trkpt>
      <trkpt lat="59.296615" lon="17.847085">
        <ele>17.8</ele>
        <time>2015-05-05T18:35:56Z</time>
      </trkpt>
      <trkpt lat="59.296623" lon="17.846935">
        <ele>17.3</ele>
        <time>2015-05-05T18:35:57Z</time>
      </trkpt>
      <trkpt lat="59.296712" lon="17.846855">
        <ele>16.6</ele>
        <time>2015-05-05T18:35:58Z</time>
      </trkpt>
      <trkpt lat="59.29675" lon="17.846742">
        <ele>16.3</ele>
        <time>2015-05-05T18:35:59Z</time>
      </trkpt>
      <trkpt lat="59.296805" lon="17.846577">
        <ele>15.9</ele>
        <time>2015-05-05T18:36:00Z</time>
      </trkpt>
      <trkpt lat="59.296849" lon="17.846405">
        <ele>15.6</ele>
        <time>2015-05-05T18:36:01Z</time>
      </trkpt>
      <trkpt lat="59.296845" lon="17.846235">
        <ele>15.4</ele>
        <time>2015-05-05T18:36:02Z</time>
      </trkpt>
      <trkpt lat="59.296844" lon="17.846058">
        <ele>15.3</ele>
        <time>2015-05-05T18:36:03Z</time>
      </trkpt>
      <trkpt lat="59.296827" lon="17.845886">
        <ele>15</ele>
        <time>2015-05-05T18:36:04Z</time>
      </trkpt>
      <trkpt lat="59.296801" lon="17.845742">
        <ele>14.7</ele>
        <time>2015-05-05T18:36:05Z</time>
      </trkpt>
      <trkpt lat="59.296792" lon="17.845564">
        <ele>14.4</ele>
        <time>2015-05-05T18:36:06Z</time>
      </trkpt>
      <trkpt lat="59.296788" lon="17.8454">
        <ele>14.2</ele>
        <time>2015-05-05T18:36:07Z</time>
      </trkpt>
      <trkpt lat="59.29677" lon="17.845196">
        <ele>14.3</ele>
        <time>2015-05-05T18:36:08Z</time>
      </trkpt>
      <trkpt lat="59.296771" lon="17.845015">
        <ele>14.6</ele>
        <time>2015-05-05T18:36:09Z</time>
      </trkpt>
      <trkpt lat="59.296767" lon="17.844878">
        <ele>14.8</ele>
        <time>2015-05-05T18:36:10Z</time>
      </trkpt>
      <trkpt lat="59.296747" lon="17.844758">
        <ele>14.7</ele>
        <time>2015-05-05T18:36:11Z</time>
      </trkpt>
      <trkpt lat="59.29672" lon="17.844623">
        <ele>14.6</ele>
        <time>2015-05-05T18:36:12Z</time>
      </trkpt>
      <trkpt lat="59.296708" lon="17.844449">
        <ele>14.7</ele>
        <time>2015-05-05T18:36:13Z</time>
      </trkpt>
      <trkpt lat="59.296683" lon="17.84431">
        <ele>14.5</ele>
        <time>2015-05-05T18:36:14Z</time>
      </trkpt>
      <trkpt lat="59.296654" lon="17.844168">
        <ele>14.3</ele>
        <time>2015-05-05T18:36:15Z</time>
      </trkpt>
      <trkpt lat="59.296637" lon="17.844018">
        <ele>14.3</ele>
        <time>2015-05-05T18:36:16Z</time>
      </trkpt>
      <trkpt lat="59.296627" lon="17.843872">
        <ele>14.3</ele>
        <time>2015-05-05T18:36:17Z</time>
      </trkpt>
      <trkpt lat="59.296607" lon="17.843698">
        <ele>14.2</ele>
        <time>2015-05-05T18:36:18Z</time>
      </trkpt>
      <trkpt lat="59.296592" lon="17.843528">
        <ele>14</ele>
        <time>2015-05-05T18:36:19Z</time>
      </trkpt>
      <trkpt lat="59.296567" lon="17.843388">
        <ele>13.7</ele>
        <time>2015-05-05T18:36:20Z</time>
      </trkpt>
      <trkpt lat="59.296562" lon="17.843156">
        <ele>13.8</ele>
        <time>2015-05-05T18:36:21Z</time>
      </trkpt>
      <trkpt lat="59.296545" lon="17.842993">
        <ele>13.6</ele>
        <time>2015-05-05T18:36:22Z</time>
      </trkpt>
      <trkpt lat="59.296547" lon="17.842852">
        <ele>13.7</ele>
        <time>2015-05-05T18:36:23Z</time>
      </trkpt>
      <trkpt lat="59.29654" lon="17.84268">
        <ele>13.6</ele>
        <time>2015-05-05T18:36:24Z</time>
      </trkpt>
      <trkpt lat="59.296527" lon="17.842523">
        <ele>13.5</ele>
        <time>2015-05-05T18:36:25Z</time>
      </trkpt>
      <trkpt lat="59.296512" lon="17.842358">
        <ele>13.3</ele>
        <time>2015-05-05T18:36:26Z</time>
      </trkpt>
      <trkpt lat="59.296485" lon="17.842193">
        <ele>12.9</ele>
        <time>2015-05-05T18:36:27Z</time>
      </trkpt>
      <trkpt lat="59.296476" lon="17.842033">
        <ele>12.7</ele>
        <time>2015-05-05T18:36:28Z</time>
      </trkpt>
      <trkpt lat="59.296464" lon="17.841849">
        <ele>12.4</ele>
        <time>2015-05-05T18:36:29Z</time>
      </trkpt>
      <trkpt lat="59.296438" lon="17.841676">
        <ele>11.8</ele>
        <time>2015-05-05T18:36:30Z</time>
      </trkpt>
      <trkpt lat="59.296415" lon="17.841509">
        <ele>11.4</ele>
        <time>2015-05-05T18:36:31Z</time>
      </trkpt>
      <trkpt lat="59.296406" lon="17.841347">
        <ele>11.1</ele>
        <time>2015-05-05T18:36:32Z</time>
      </trkpt>
      <trkpt lat="59.296386" lon="17.841187">
        <ele>10.8</ele>
        <time>2015-05-05T18:36:33Z</time>
      </trkpt>
      <trkpt lat="59.296367" lon="17.840999">
        <ele>10.4</ele>
        <time>2015-05-05T18:36:34Z</time>
      </trkpt>
      <trkpt lat="59.29634" lon="17.840802">
        <ele>10</ele>
        <time>2015-05-05T18:36:35Z</time>
      </trkpt>
      <trkpt lat="59.296315" lon="17.840606">
        <ele>9.7</ele>
        <time>2015-05-05T18:36:36Z</time>
      </trkpt>
      <trkpt lat="59.296284" lon="17.840382">
        <ele>9.5</ele>
        <time>2015-05-05T18:36:37Z</time>
      </trkpt>
      <trkpt lat="59.296246" lon="17.840197">
        <ele>10.3</ele>
        <time>2015-05-05T18:36:38Z</time>
      </trkpt>
      <trkpt lat="59.296221" lon="17.839998">
        <ele>11.3</ele>
        <time>2015-05-05T18:36:39Z</time>
      </trkpt>
      <trkpt lat="59.296188" lon="17.839789">
        <ele>12.4</ele>
        <time>2015-05-05T18:36:40Z</time>
      </trkpt>
      <trkpt lat="59.296146" lon="17.839595">
        <ele>13.2</ele>
        <time>2015-05-05T18:36:41Z</time>
      </trkpt>
      <trkpt lat="59.29609" lon="17.839417">
        <ele>13.6</ele>
        <time>2015-05-05T18:36:42Z</time>
      </trkpt>
      <trkpt lat="59.296027" lon="17.83924">
        <ele>13.8</ele>
        <time>2015-05-05T18:36:43Z</time>
      </trkpt>
      <trkpt lat="59.295947" lon="17.839084">
        <ele>13.8</ele>
        <time>2015-05-05T18:36:44Z</time>
      </trkpt>
      <trkpt lat="59.295879" lon="17.838929">
        <ele>13.8</ele>
        <time>2015-05-05T18:36:45Z</time>
      </trkpt>
      <trkpt lat="59.29581" lon="17.838784">
        <ele>13.7</ele>
        <time>2015-05-05T18:36:46Z</time>
      </trkpt>
      <trkpt lat="59.295734" lon="17.838653">
        <ele>13.5</ele>
        <time>2015-05-05T18:36:47Z</time>
      </trkpt>
      <trkpt lat="59.29566" lon="17.838537">
        <ele>13.1</ele>
        <time>2015-05-05T18:36:48Z</time>
      </trkpt>
      <trkpt lat="59.295579" lon="17.838413">
        <ele>12.7</ele>
        <time>2015-05-05T18:36:49Z</time>
      </trkpt>
      <trkpt lat="59.295502" lon="17.838283">
        <ele>12.2</ele>
        <time>2015-05-05T18:36:50Z</time>
      </trkpt>
      <trkpt lat="59.295426" lon="17.838165">
        <ele>11.5</ele>
        <time>2015-05-05T18:36:51Z</time>
      </trkpt>
      <trkpt lat="59.295344" lon="17.838037">
        <ele>11.1</ele>
        <time>2015-05-05T18:36:52Z</time>
      </trkpt>
      <trkpt lat="59.295264" lon="17.837898">
        <ele>10.8</ele>
        <time>2015-05-05T18:36:53Z</time>
      </trkpt>
      <trkpt lat="59.295191" lon="17.83775">
        <ele>10.4</ele>
        <time>2015-05-05T18:36:54Z</time>
      </trkpt>
      <trkpt lat="59.295119" lon="17.837583">
        <ele>10</ele>
        <time>2015-05-05T18:36:55Z</time>
      </trkpt>
      <trkpt lat="59.295053" lon="17.837417">
        <ele>9.6</ele>
        <time>2015-05-05T18:36:56Z</time>
      </trkpt>
      <trkpt lat="59.295011" lon="17.837226">
        <ele>9.4</ele>
        <time>2015-05-05T18:36:57Z</time>
      </trkpt>
      <trkpt lat="59.294961" lon="17.837054">
        <ele>9.1</ele>
        <time>2015-05-05T18:36:58Z</time>
      </trkpt>
      <trkpt lat="59.294931" lon="17.836846">
        <ele>8.8</ele>
        <time>2015-05-05T18:36:59Z</time>
      </trkpt>
      <trkpt lat="59.294909" lon="17.836653">
        <ele>8.6</ele>
        <time>2015-05-05T18:37:00Z</time>
      </trkpt>
      <trkpt lat="59.294897" lon="17.836436">
        <ele>8.5</ele>
        <time>2015-05-05T18:37:01Z</time>
      </trkpt>
      <trkpt lat="59.294895" lon="17.836214">
        <ele>8.5</ele>
        <time>2015-05-05T18:37:02Z</time>
      </trkpt>
      <trkpt lat="59.294899" lon="17.835995">
        <ele>8.7</ele>
        <time>2015-05-05T18:37:03Z</time>
      </trkpt>
      <trkpt lat="59.294905" lon="17.835747">
        <ele>8.9</ele>
        <time>2015-05-05T18:37:04Z</time>
      </trkpt>
      <trkpt lat="59.29491" lon="17.835508">
        <ele>9.1</ele>
        <time>2015-05-05T18:37:05Z</time>
      </trkpt>
      <trkpt lat="59.294908" lon="17.835271">
        <ele>9.6</ele>
        <time>2015-05-05T18:37:06Z</time>
      </trkpt>
      <trkpt lat="59.294912" lon="17.835046">
        <ele>10.4</ele>
        <time>2015-05-05T18:37:07Z</time>
      </trkpt>
      <trkpt lat="59.294909" lon="17.834817">
        <ele>11.1</ele>
        <time>2015-05-05T18:37:08Z</time>
      </trkpt>
      <trkpt lat="59.294901" lon="17.834575">
        <ele>11.7</ele>
        <time>2015-05-05T18:37:09Z</time>
      </trkpt>
      <trkpt lat="59.294893" lon="17.83435">
        <ele>12.1</ele>
        <time>2015-05-05T18:37:10Z</time>
      </trkpt>
      <trkpt lat="59.294876" lon="17.834112">
        <ele>12.2</ele>
        <time>2015-05-05T18:37:11Z</time>
      </trkpt>
      <trkpt lat="59.294857" lon="17.833857">
        <ele>12.4</ele>
        <time>2015-05-05T18:37:12Z</time>
      </trkpt>
      <trkpt lat="59.29483" lon="17.833629">
        <ele>12.3</ele>
        <time>2015-05-05T18:37:13Z</time>
      </trkpt>
      <trkpt lat="59.294805" lon="17.833409">
        <ele>12.3</ele>
        <time>2015-05-05T18:37:14Z</time>
      </trkpt>
      <trkpt lat="59.294774" lon="17.833161">
        <ele>12.1</ele>
        <time>2015-05-05T18:37:15Z</time>
      </trkpt>
      <trkpt lat="59.294764" lon="17.832959">
        <ele>12.3</ele>
        <time>2015-05-05T18:37:16Z</time>
      </trkpt>
      <trkpt lat="59.294729" lon="17.832769">
        <ele>11.7</ele>
        <time>2015-05-05T18:37:17Z</time>
      </trkpt>
      <trkpt lat="59.294676" lon="17.832575">
        <ele>10.7</ele>
        <time>2015-05-05T18:37:18Z</time>
      </trkpt>
      <trkpt lat="59.29465" lon="17.832369">
        <ele>10.4</ele>
        <time>2015-05-05T18:37:19Z</time>
      </trkpt>
      <trkpt lat="59.294623" lon="17.832169">
        <ele>9.9</ele>
        <time>2015-05-05T18:37:20Z</time>
      </trkpt>
      <trkpt lat="59.294606" lon="17.831984">
        <ele>10.1</ele>
        <time>2015-05-05T18:37:21Z</time>
      </trkpt>
      <trkpt lat="59.294575" lon="17.831796">
        <ele>10.3</ele>
        <time>2015-05-05T18:37:22Z</time>
      </trkpt>
      <trkpt lat="59.294557" lon="17.831584">
        <ele>11.3</ele>
        <time>2015-05-05T18:37:23Z</time>
      </trkpt>
      <trkpt lat="59.294554" lon="17.831379">
        <ele>12.3</ele>
        <time>2015-05-05T18:37:24Z</time>
      </trkpt>
      <trkpt lat="59.294567" lon="17.831118">
        <ele>13.4</ele>
        <time>2015-05-05T18:37:25Z</time>
      </trkpt>
      <trkpt lat="59.294564" lon="17.830908">
        <ele>14.2</ele>
        <time>2015-05-05T18:37:26Z</time>
      </trkpt>
      <trkpt lat="59.294555" lon="17.830692">
        <ele>14.9</ele>
        <time>2015-05-05T18:37:27Z</time>
      </trkpt>
      <trkpt lat="59.294544" lon="17.830483">
        <ele>15.6</ele>
        <time>2015-05-05T18:37:28Z</time>
      </trkpt>
      <trkpt lat="59.294537" lon="17.830294">
        <ele>16.4</ele>
        <time>2015-05-05T18:37:29Z</time>
      </trkpt>
      <trkpt lat="59.294516" lon="17.830093">
        <ele>17.1</ele>
        <time>2015-05-05T18:37:30Z</time>
      </trkpt>
      <trkpt lat="59.294481" lon="17.829912">
        <ele>17.6</ele>
        <time>2015-05-05T18:37:31Z</time>
      </trkpt>
      <trkpt lat="59.294439" lon="17.829733">
        <ele>17.9</ele>
        <time>2015-05-05T18:37:32Z</time>
      </trkpt>
      <trkpt lat="59.294414" lon="17.829524">
        <ele>18.4</ele>
        <time>2015-05-05T18:37:33Z</time>
      </trkpt>
      <trkpt lat="59.29435" lon="17.829424">
        <ele>17.9</ele>
        <time>2015-05-05T18:37:34Z</time>
      </trkpt>
      <trkpt lat="59.294306" lon="17.829299">
        <ele>17.7</ele>
        <time>2015-05-05T18:37:35Z</time>
      </trkpt>
      <trkpt lat="59.294271" lon="17.829129">
        <ele>17.6</ele>
        <time>2015-05-05T18:37:36Z</time>
      </trkpt>
      <trkpt lat="59.294216" lon="17.828967">
        <ele>17</ele>
        <time>2015-05-05T18:37:37Z</time>
      </trkpt>
      <trkpt lat="59.294179" lon="17.828754">
        <ele>16.7</ele>
        <time>2015-05-05T18:37:38Z</time>
      </trkpt>
      <trkpt lat="59.294142" lon="17.828507">
        <ele>17.1</ele>
        <time>2015-05-05T18:37:39Z</time>
      </trkpt>
      <trkpt lat="59.29408" lon="17.828295">
        <ele>16.7</ele>
        <time>2015-05-05T18:37:40Z</time>
      </trkpt>
      <trkpt lat="59.294028" lon="17.828125">
        <ele>16.3</ele>
        <time>2015-05-05T18:37:41Z</time>
      </trkpt>
      <trkpt lat="59.293961" lon="17.827945">
        <ele>15.5</ele>
        <time>2015-05-05T18:37:42Z</time>
      </trkpt>
      <trkpt lat="59.293926" lon="17.82769">
        <ele>15.3</ele>
        <time>2015-05-05T18:37:43Z</time>
      </trkpt>
      <trkpt lat="59.293878" lon="17.827495">
        <ele>14.6</ele>
        <time>2015-05-05T18:37:44Z</time>
      </trkpt>
      <trkpt lat="59.293833" lon="17.827338">
        <ele>13.8</ele>
        <time>2015-05-05T18:37:45Z</time>
      </trkpt>
      <trkpt lat="59.293767" lon="17.827037">
        <ele>12.5</ele>
        <time>2015-05-05T18:37:46Z</time>
      </trkpt>
      <trkpt lat="59.293737" lon="17.826844">
        <ele>12.2</ele>
        <time>2015-05-05T18:37:47Z</time>
      </trkpt>
      <trkpt lat="59.293705" lon="17.826646">
        <ele>12.1</ele>
        <time>2015-05-05T18:37:48Z</time>
      </trkpt>
      <trkpt lat="59.293679" lon="17.826415">
        <ele>12.1</ele>
        <time>2015-05-05T18:37:49Z</time>
      </trkpt>
      <trkpt lat="59.293664" lon="17.826208">
        <ele>12.2</ele>
        <time>2015-05-05T18:37:50Z</time>
      </trkpt>
      <trkpt lat="59.293646" lon="17.825992">
        <ele>12</ele>
        <time>2015-05-05T18:37:51Z</time>
      </trkpt>
      <trkpt lat="59.293642" lon="17.825788">
        <ele>12</ele>
        <time>2015-05-05T18:37:52Z</time>
      </trkpt>
      <trkpt lat="59.293635" lon="17.825574">
        <ele>11.9</ele>
        <time>2015-05-05T18:37:53Z</time>
      </trkpt>
      <trkpt lat="59.293644" lon="17.825362">
        <ele>11.9</ele>
        <time>2015-05-05T18:37:54Z</time>
      </trkpt>
      <trkpt lat="59.293623" lon="17.825162">
        <ele>11.5</ele>
        <time>2015-05-05T18:37:55Z</time>
      </trkpt>
      <trkpt lat="59.293629" lon="17.824943">
        <ele>11.4</ele>
        <time>2015-05-05T18:37:56Z</time>
      </trkpt>
      <trkpt lat="59.293632" lon="17.824724">
        <ele>11.2</ele>
        <time>2015-05-05T18:37:57Z</time>
      </trkpt>
      <trkpt lat="59.293618" lon="17.824493">
        <ele>10.8</ele>
        <time>2015-05-05T18:37:58Z</time>
      </trkpt>
      <trkpt lat="59.293601" lon="17.824273">
        <ele>10.4</ele>
        <time>2015-05-05T18:37:59Z</time>
      </trkpt>
      <trkpt lat="59.293596" lon="17.824036">
        <ele>10.2</ele>
        <time>2015-05-05T18:38:00Z</time>
      </trkpt>
      <trkpt lat="59.293582" lon="17.823836">
        <ele>9.9</ele>
        <time>2015-05-05T18:38:01Z</time>
      </trkpt>
      <trkpt lat="59.293567" lon="17.823632">
        <ele>9.8</ele>
        <time>2015-05-05T18:38:02Z</time>
      </trkpt>
      <trkpt lat="59.293528" lon="17.823424">
        <ele>9.6</ele>
        <time>2015-05-05T18:38:03Z</time>
      </trkpt>
      <trkpt lat="59.293482" lon="17.823241">
        <ele>9.3</ele>
        <time>2015-05-05T18:38:04Z</time>
      </trkpt>
      <trkpt lat="59.29346" lon="17.82302">
        <ele>9.2</ele>
        <time>2015-05-05T18:38:05Z</time>
      </trkpt>
      <trkpt lat="59.293426" lon="17.822799">
        <ele>9</ele>
        <time>2015-05-05T18:38:06Z</time>
      </trkpt>
      <trkpt lat="59.293395" lon="17.822586">
        <ele>8.8</ele>
        <time>2015-05-05T18:38:07Z</time>
      </trkpt>
      <trkpt lat="59.293369" lon="17.82237">
        <ele>8.7</ele>
        <time>2015-05-05T18:38:08Z</time>
      </trkpt>
      <trkpt lat="59.293342" lon="17.822177">
        <ele>8.5</ele>
        <time>2015-05-05T18:38:09Z</time>
      </trkpt>
      <trkpt lat="59.293318" lon="17.821978">
        <ele>8.3</ele>
        <time>2015-05-05T18:38:10Z</time>
      </trkpt>
      <trkpt lat="59.293293" lon="17.821782">
        <ele>7.9</ele>
        <time>2015-05-05T18:38:11Z</time>
      </trkpt>
      <trkpt lat="59.29327" lon="17.821594">
        <ele>7.7</ele>
        <time>2015-05-05T18:38:12Z</time>
      </trkpt>
      <trkpt lat="59.293248" lon="17.821403">
        <ele>7.4</ele>
        <time>2015-05-05T18:38:13Z</time>
      </trkpt>
      <trkpt lat="59.293231" lon="17.821204">
        <ele>7.2</ele>
        <time>2015-05-05T18:38:14Z</time>
      </trkpt>
      <trkpt lat="59.293226" lon="17.821008">
        <ele>7</ele>
        <time>2015-05-05T18:38:15Z</time>
      </trkpt>
      <trkpt lat="59.29322" lon="17.820791">
        <ele>6.8</ele>
        <time>2015-05-05T18:38:16Z</time>
      </trkpt>
      <trkpt lat="59.293213" lon="17.820574">
        <ele>6.6</ele>
        <time>2015-05-05T18:38:17Z</time>
      </trkpt>
      <trkpt lat="59.29323" lon="17.820283">
        <ele>6.3</ele>
        <time>2015-05-05T18:38:18Z</time>
      </trkpt>
      <trkpt lat="59.293247" lon="17.820025">
        <ele>5.9</ele>
        <time>2015-05-05T18:38:19Z</time>
      </trkpt>
      <trkpt lat="59.29326" lon="17.819776">
        <ele>5.6</ele>
        <time>2015-05-05T18:38:20Z</time>
      </trkpt>
      <trkpt lat="59.293279" lon="17.819529">
        <ele>5.3</ele>
        <time>2015-05-05T18:38:21Z</time>
      </trkpt>
      <trkpt lat="59.293289" lon="17.81928">
        <ele>5.2</ele>
        <time>2015-05-05T18:38:22Z</time>
      </trkpt>
      <trkpt lat="59.293312" lon="17.81899">
        <ele>5.1</ele>
        <time>2015-05-05T18:38:23Z</time>
      </trkpt>
      <trkpt lat="59.293324" lon="17.818734">
        <ele>5</ele>
        <time>2015-05-05T18:38:24Z</time>
      </trkpt>
      <trkpt lat="59.293343" lon="17.818488">
        <ele>5</ele>
        <time>2015-05-05T18:38:25Z</time>
      </trkpt>
      <trkpt lat="59.293365" lon="17.81823">
        <ele>5.1</ele>
        <time>2015-05-05T18:38:26Z</time>
      </trkpt>
      <trkpt lat="59.293378" lon="17.817985">
        <ele>5.2</ele>
        <time>2015-05-05T18:38:27Z</time>
      </trkpt>
      <trkpt lat="59.293405" lon="17.817727">
        <ele>5.3</ele>
        <time>2015-05-05T18:38:28Z</time>
      </trkpt>
      <trkpt lat="59.29342" lon="17.81749">
        <ele>5.4</ele>
        <time>2015-05-05T18:38:29Z</time>
      </trkpt>
      <trkpt lat="59.29343" lon="17.817262">
        <ele>5.5</ele>
        <time>2015-05-05T18:38:30Z</time>
      </trkpt>
      <trkpt lat="59.293447" lon="17.817035">
        <ele>5.6</ele>
        <time>2015-05-05T18:38:31Z</time>
      </trkpt>
      <trkpt lat="59.293462" lon="17.816817">
        <ele>5.9</ele>
        <time>2015-05-05T18:38:32Z</time>
      </trkpt>
      <trkpt lat="59.293478" lon="17.816601">
        <ele>6.3</ele>
        <time>2015-05-05T18:38:33Z</time>
      </trkpt>
      <trkpt lat="59.293485" lon="17.816393">
        <ele>6.6</ele>
        <time>2015-05-05T18:38:34Z</time>
      </trkpt>
      <trkpt lat="59.293502" lon="17.816169">
        <ele>6.8</ele>
        <time>2015-05-05T18:38:35Z</time>
      </trkpt>
      <trkpt lat="59.293525" lon="17.815951">
        <ele>6.9</ele>
        <time>2015-05-05T18:38:36Z</time>
      </trkpt>
      <trkpt lat="59.29354" lon="17.815758">
        <ele>7</ele>
        <time>2015-05-05T18:38:37Z</time>
      </trkpt>
      <trkpt lat="59.293557" lon="17.815556">
        <ele>7.1</ele>
        <time>2015-05-05T18:38:38Z</time>
      </trkpt>
      <trkpt lat="59.293582" lon="17.815334">
        <ele>7.1</ele>
        <time>2015-05-05T18:38:39Z</time>
      </trkpt>
      <trkpt lat="59.293611" lon="17.815142">
        <ele>7.1</ele>
        <time>2015-05-05T18:38:40Z</time>
      </trkpt>
      <trkpt lat="59.293634" lon="17.81495">
        <ele>7</ele>
        <time>2015-05-05T18:38:41Z</time>
      </trkpt>
      <trkpt lat="59.293656" lon="17.81474">
        <ele>6.9</ele>
        <time>2015-05-05T18:38:42Z</time>
      </trkpt>
      <trkpt lat="59.29368" lon="17.81455">
        <ele>6.8</ele>
        <time>2015-05-05T18:38:43Z</time>
      </trkpt>
      <trkpt lat="59.293697" lon="17.814371">
        <ele>6.9</ele>
        <time>2015-05-05T18:38:44Z</time>
      </trkpt>
      <trkpt lat="59.29372" lon="17.814194">
        <ele>6.9</ele>
        <time>2015-05-05T18:38:45Z</time>
      </trkpt>
      <trkpt lat="59.293736" lon="17.814022">
        <ele>7</ele>
        <time>2015-05-05T18:38:46Z</time>
      </trkpt>
      <trkpt lat="59.293755" lon="17.813838">
        <ele>7</ele>
        <time>2015-05-05T18:38:47Z</time>
      </trkpt>
      <trkpt lat="59.293769" lon="17.813697">
        <ele>7.1</ele>
        <time>2015-05-05T18:38:48Z</time>
      </trkpt>
      <trkpt lat="59.293777" lon="17.813538">
        <ele>6.9</ele>
        <time>2015-05-05T18:38:49Z</time>
      </trkpt>
      <trkpt lat="59.293788" lon="17.813347">
        <ele>6.8</ele>
        <time>2015-05-05T18:38:50Z</time>
      </trkpt>
      <trkpt lat="59.293805" lon="17.81318">
        <ele>6.7</ele>
        <time>2015-05-05T18:38:51Z</time>
      </trkpt>
      <trkpt lat="59.293823" lon="17.813039">
        <ele>6.7</ele>
        <time>2015-05-05T18:38:52Z</time>
      </trkpt>
      <trkpt lat="59.293839" lon="17.812906">
        <ele>6.6</ele>
        <time>2015-05-05T18:38:53Z</time>
      </trkpt>
      <trkpt lat="59.293843" lon="17.812775">
        <ele>6.7</ele>
        <time>2015-05-05T18:38:54Z</time>
      </trkpt>
      <trkpt lat="59.293853" lon="17.812609">
        <ele>6.7</ele>
        <time>2015-05-05T18:38:55Z</time>
      </trkpt>
      <trkpt lat="59.293859" lon="17.812476">
        <ele>6.7</ele>
        <time>2015-05-05T18:38:56Z</time>
      </trkpt>
      <trkpt lat="59.293869" lon="17.812343">
        <ele>6.8</ele>
        <time>2015-05-05T18:38:57Z</time>
      </trkpt>
      <trkpt lat="59.293876" lon="17.812203">
        <ele>6.8</ele>
        <time>2015-05-05T18:38:58Z</time>
      </trkpt>
      <trkpt lat="59.293883" lon="17.812094">
        <ele>6.8</ele>
        <time>2015-05-05T18:38:59Z</time>
      </trkpt>
      <trkpt lat="59.29391" lon="17.812008">
        <ele>7</ele>
        <time>2015-05-05T18:39:00Z</time>
      </trkpt>
      <trkpt lat="59.293944" lon="17.811971">
        <ele>7.2</ele>
        <time>2015-05-05T18:39:01Z</time>
      </trkpt>
      <trkpt lat="59.293974" lon="17.811936">
        <ele>7.4</ele>
        <time>2015-05-05T18:39:02Z</time>
      </trkpt>
      <trkpt lat="59.293998" lon="17.811888">
        <ele>7.6</ele>
        <time>2015-05-05T18:39:03Z</time>
      </trkpt>
      <trkpt lat="59.293993" lon="17.811825">
        <ele>7.6</ele>
        <time>2015-05-05T18:39:04Z</time>
      </trkpt>
      <trkpt lat="59.293986" lon="17.811766">
        <ele>7.6</ele>
        <time>2015-05-05T18:39:05Z</time>
      </trkpt>
      <trkpt lat="59.293981" lon="17.811693">
        <ele>7.6</ele>
        <time>2015-05-05T18:39:06Z</time>
      </trkpt>
      <trkpt lat="59.293972" lon="17.811614">
        <ele>7.6</ele>
        <time>2015-05-05T18:39:07Z</time>
      </trkpt>
      <trkpt lat="59.293963" lon="17.811536">
        <ele>7.6</ele>
        <time>2015-05-05T18:39:08Z</time>
      </trkpt>
      <trkpt lat="59.294015" lon="17.81155">
        <ele>7.8</ele>
        <time>2015-05-05T18:39:09Z</time>
      </trkpt>
      <trkpt lat="59.294059" lon="17.811523">
        <ele>8</ele>
        <time>2015-05-05T18:39:10Z</time>
      </trkpt>
      <trkpt lat="59.294103" lon="17.811509">
        <ele>8.2</ele>
        <time>2015-05-05T18:39:11Z</time>
      </trkpt>
      <trkpt lat="59.294147" lon="17.811485">
        <ele>8.4</ele>
        <time>2015-05-05T18:39:12Z</time>
      </trkpt>
      <trkpt lat="59.294197" lon="17.811481">
        <ele>8.6</ele>
        <time>2015-05-05T18:39:13Z</time>
      </trkpt>
      <trkpt lat="59.294256" lon="17.811467">
        <ele>8.9</ele>
        <time>2015-05-05T18:39:14Z</time>
      </trkpt>
      <trkpt lat="59.294312" lon="17.811451">
        <ele>9.1</ele>
        <time>2015-05-05T18:39:15Z</time>
      </trkpt>
      <trkpt lat="59.294366" lon="17.811425">
        <ele>9.3</ele>
        <time>2015-05-05T18:39:16Z</time>
      </trkpt>
      <trkpt lat="59.294422" lon="17.81141">
        <ele>9.5</ele>
        <time>2015-05-05T18:39:17Z</time>
      </trkpt>
      <trkpt lat="59.294495" lon="17.811391">
        <ele>9.8</ele>
        <time>2015-05-05T18:39:18Z</time>
      </trkpt>
      <trkpt lat="59.294563" lon="17.811373">
        <ele>10.1</ele>
        <time>2015-05-05T18:39:19Z</time>
      </trkpt>
      <trkpt lat="59.294622" lon="17.811353">
        <ele>10.2</ele>
        <time>2015-05-05T18:39:20Z</time>
      </trkpt>
      <trkpt lat="59.294688" lon="17.811344">
        <ele>10.3</ele>
        <time>2015-05-05T18:39:21Z</time>
      </trkpt>
      <trkpt lat="59.294754" lon="17.811327">
        <ele>10.5</ele>
        <time>2015-05-05T18:39:22Z</time>
      </trkpt>
      <trkpt lat="59.294831" lon="17.811305">
        <ele>10.6</ele>
        <time>2015-05-05T18:39:23Z</time>
      </trkpt>
      <trkpt lat="59.294898" lon="17.811288">
        <ele>10.8</ele>
        <time>2015-05-05T18:39:24Z</time>
      </trkpt>
      <trkpt lat="59.294957" lon="17.811275">
        <ele>10.9</ele>
        <time>2015-05-05T18:39:25Z</time>
      </trkpt>
      <trkpt lat="59.295028" lon="17.811251">
        <ele>11.1</ele>
        <time>2015-05-05T18:39:26Z</time>
      </trkpt>
      <trkpt lat="59.295097" lon="17.811227">
        <ele>11.2</ele>
        <time>2015-05-05T18:39:27Z</time>
      </trkpt>
      <trkpt lat="59.29517" lon="17.811213">
        <ele>11.4</ele>
        <time>2015-05-05T18:39:28Z</time>
      </trkpt>
      <trkpt lat="59.29524" lon="17.81119">
        <ele>11.6</ele>
        <time>2015-05-05T18:39:29Z</time>
      </trkpt>
      <trkpt lat="59.295324" lon="17.811158">
        <ele>11.9</ele>
        <time>2015-05-05T18:39:30Z</time>
      </trkpt>
      <trkpt lat="59.295391" lon="17.811125">
        <ele>12.1</ele>
        <time>2015-05-05T18:39:31Z</time>
      </trkpt>
      <trkpt lat="59.295485" lon="17.811103">
        <ele>12.1</ele>
        <time>2015-05-05T18:39:32Z</time>
      </trkpt>
      <trkpt lat="59.295579" lon="17.811084">
        <ele>12</ele>
        <time>2015-05-05T18:39:33Z</time>
      </trkpt>
      <trkpt lat="59.295668" lon="17.811067">
        <ele>12</ele>
        <time>2015-05-05T18:39:34Z</time>
      </trkpt>
      <trkpt lat="59.295749" lon="17.811034">
        <ele>12</ele>
        <time>2015-05-05T18:39:35Z</time>
      </trkpt>
      <trkpt lat="59.295837" lon="17.811006">
        <ele>11.9</ele>
        <time>2015-05-05T18:39:36Z</time>
      </trkpt>
      <trkpt lat="59.295925" lon="17.810978">
        <ele>11.9</ele>
        <time>2015-05-05T18:39:37Z</time>
      </trkpt>
      <trkpt lat="59.296039" lon="17.810976">
        <ele>11.8</ele>
        <time>2015-05-05T18:39:38Z</time>
      </trkpt>
      <trkpt lat="59.296128" lon="17.810945">
        <ele>11.8</ele>
        <time>2015-05-05T18:39:39Z</time>
      </trkpt>
      <trkpt lat="59.296225" lon="17.810916">
        <ele>11.8</ele>
        <time>2015-05-05T18:39:40Z</time>
      </trkpt>
      <trkpt lat="59.296313" lon="17.810881">
        <ele>12.1</ele>
        <time>2015-05-05T18:39:41Z</time>
      </trkpt>
      <trkpt lat="59.296407" lon="17.81085">
        <ele>12.6</ele>
        <time>2015-05-05T18:39:42Z</time>
      </trkpt>
      <trkpt lat="59.29651" lon="17.810816">
        <ele>13.2</ele>
        <time>2015-05-05T18:39:43Z</time>
      </trkpt>
      <trkpt lat="59.296616" lon="17.810791">
        <ele>13.7</ele>
        <time>2015-05-05T18:39:44Z</time>
      </trkpt>
      <trkpt lat="59.29671" lon="17.810773">
        <ele>14.2</ele>
        <time>2015-05-05T18:39:45Z</time>
      </trkpt>
      <trkpt lat="59.296823" lon="17.810761">
        <ele>14.8</ele>
        <time>2015-05-05T18:39:46Z</time>
      </trkpt>
      <trkpt lat="59.29694" lon="17.810749">
        <ele>15.4</ele>
        <time>2015-05-05T18:39:47Z</time>
      </trkpt>
      <trkpt lat="59.297049" lon="17.810709">
        <ele>16.1</ele>
        <time>2015-05-05T18:39:48Z</time>
      </trkpt>
      <trkpt lat="59.297158" lon="17.810678">
        <ele>15.7</ele>
        <time>2015-05-05T18:39:49Z</time>
      </trkpt>
      <trkpt lat="59.297265" lon="17.810644">
        <ele>14.9</ele>
        <time>2015-05-05T18:39:50Z</time>
      </trkpt>
      <trkpt lat="59.297381" lon="17.810624">
        <ele>13.8</ele>
        <time>2015-05-05T18:39:51Z</time>
      </trkpt>
      <trkpt lat="59.297493" lon="17.810595">
        <ele>12.8</ele>
        <time>2015-05-05T18:39:52Z</time>
      </trkpt>
      <trkpt lat="59.297589" lon="17.810564">
        <ele>12</ele>
        <time>2015-05-05T18:39:53Z</time>
      </trkpt>
      <trkpt lat="59.297698" lon="17.810539">
        <ele>11</ele>
        <time>2015-05-05T18:39:54Z</time>
      </trkpt>
      <trkpt lat="59.297798" lon="17.810493">
        <ele>10.1</ele>
        <time>2015-05-05T18:39:55Z</time>
      </trkpt>
      <trkpt lat="59.297906" lon="17.810456">
        <ele>9</ele>
        <time>2015-05-05T18:39:56Z</time>
      </trkpt>
      <trkpt lat="59.29802" lon="17.810436">
        <ele>8.5</ele>
        <time>2015-05-05T18:39:57Z</time>
      </trkpt>
      <trkpt lat="59.298123" lon="17.810406">
        <ele>8</ele>
        <time>2015-05-05T18:39:58Z</time>
      </trkpt>
      <trkpt lat="59.29823" lon="17.810376">
        <ele>7.4</ele>
        <time>2015-05-05T18:39:59Z</time>
      </trkpt>
      <trkpt lat="59.298334" lon="17.810355">
        <ele>6.9</ele>
        <time>2015-05-05T18:40:00Z</time>
      </trkpt>
      <trkpt lat="59.298437" lon="17.810331">
        <ele>6.4</ele>
        <time>2015-05-05T18:40:01Z</time>
      </trkpt>
      <trkpt lat="59.29854" lon="17.810298">
        <ele>5.9</ele>
        <time>2015-05-05T18:40:02Z</time>
      </trkpt>
      <trkpt lat="59.298646" lon="17.810263">
        <ele>5.5</ele>
        <time>2015-05-05T18:40:03Z</time>
      </trkpt>
      <trkpt lat="59.298755" lon="17.810234">
        <ele>5</ele>
        <time>2015-05-05T18:40:04Z</time>
      </trkpt>
      <trkpt lat="59.298861" lon="17.810187">
        <ele>5.2</ele>
        <time>2015-05-05T18:40:05Z</time>
      </trkpt>
      <trkpt lat="59.298962" lon="17.810153">
        <ele>5.3</ele>
        <time>2015-05-05T18:40:06Z</time>
      </trkpt>
      <trkpt lat="59.299065" lon="17.81013">
        <ele>5.5</ele>
        <time>2015-05-05T18:40:07Z</time>
      </trkpt>
      <trkpt lat="59.299159" lon="17.810089">
        <ele>5.7</ele>
        <time>2015-05-05T18:40:08Z</time>
      </trkpt>
      <trkpt lat="59.299252" lon="17.810052">
        <ele>5.9</ele>
        <time>2015-05-05T18:40:09Z</time>
      </trkpt>
      <trkpt lat="59.299344" lon="17.810029">
        <ele>6</ele>
        <time>2015-05-05T18:40:10Z</time>
      </trkpt>
      <trkpt lat="59.299449" lon="17.810006">
        <ele>6.3</ele>
        <time>2015-05-05T18:40:11Z</time>
      </trkpt>
      <trkpt lat="59.299537" lon="17.80997">
        <ele>6.5</ele>
        <time>2015-05-05T18:40:12Z</time>
      </trkpt>
      <trkpt lat="59.299623" lon="17.809924">
        <ele>7</ele>
        <time>2015-05-05T18:40:13Z</time>
      </trkpt>
      <trkpt lat="59.29972" lon="17.809864">
        <ele>8.1</ele>
        <time>2015-05-05T18:40:14Z</time>
      </trkpt>
      <trkpt lat="59.299819" lon="17.809823">
        <ele>9.3</ele>
        <time>2015-05-05T18:40:15Z</time>
      </trkpt>
      <trkpt lat="59.299918" lon="17.809803">
        <ele>10.4</ele>
        <time>2015-05-05T18:40:16Z</time>
      </trkpt>
      <trkpt lat="59.300012" lon="17.809771">
        <ele>11.6</ele>
        <time>2015-05-05T18:40:17Z</time>
      </trkpt>
      <trkpt lat="59.300108" lon="17.809742">
        <ele>12.7</ele>
        <time>2015-05-05T18:40:18Z</time>
      </trkpt>
      <trkpt lat="59.300199" lon="17.809714">
        <ele>13.9</ele>
        <time>2015-05-05T18:40:19Z</time>
      </trkpt>
      <trkpt lat="59.300287" lon="17.809685">
        <ele>15</ele>
        <time>2015-05-05T18:40:20Z</time>
      </trkpt>
      <trkpt lat="59.300372" lon="17.809646">
        <ele>16.2</ele>
        <time>2015-05-05T18:40:21Z</time>
      </trkpt>
      <trkpt lat="59.300459" lon="17.809591">
        <ele>17.6</ele>
        <time>2015-05-05T18:40:22Z</time>
      </trkpt>
      <trkpt lat="59.300532" lon="17.809517">
        <ele>18.9</ele>
        <time>2015-05-05T18:40:23Z</time>
      </trkpt>
      <trkpt lat="59.300611" lon="17.809449">
        <ele>20.3</ele>
        <time>2015-05-05T18:40:24Z</time>
      </trkpt>
      <trkpt lat="59.300696" lon="17.809387">
        <ele>21.8</ele>
        <time>2015-05-05T18:40:25Z</time>
      </trkpt>
      <trkpt lat="59.300776" lon="17.809294">
        <ele>23.4</ele>
        <time>2015-05-05T18:40:26Z</time>
      </trkpt>
      <trkpt lat="59.30085" lon="17.809182">
        <ele>24.9</ele>
        <time>2015-05-05T18:40:27Z</time>
      </trkpt>
      <trkpt lat="59.300924" lon="17.80908">
        <ele>26.5</ele>
        <time>2015-05-05T18:40:28Z</time>
      </trkpt>
      <trkpt lat="59.30101" lon="17.808981">
        <ele>28.2</ele>
        <time>2015-05-05T18:40:29Z</time>
      </trkpt>
      <trkpt lat="59.301091" lon="17.808882">
        <ele>29.9</ele>
        <time>2015-05-05T18:40:30Z</time>
      </trkpt>
      <trkpt lat="59.301173" lon="17.80877">
        <ele>31.7</ele>
        <time>2015-05-05T18:40:31Z</time>
      </trkpt>
      <trkpt lat="59.301251" lon="17.80867">
        <ele>33.4</ele>
        <time>2015-05-05T18:40:32Z</time>
      </trkpt>
      <trkpt lat="59.301333" lon="17.808565">
        <ele>33</ele>
        <time>2015-05-05T18:40:33Z</time>
      </trkpt>
      <trkpt lat="59.301413" lon="17.808457">
        <ele>32.6</ele>
        <time>2015-05-05T18:40:34Z</time>
      </trkpt>
      <trkpt lat="59.301491" lon="17.808334">
        <ele>32.2</ele>
        <time>2015-05-05T18:40:35Z</time>
      </trkpt>
      <trkpt lat="59.301566" lon="17.808213">
        <ele>31.9</ele>
        <time>2015-05-05T18:40:36Z</time>
      </trkpt>
      <trkpt lat="59.301646" lon="17.808081">
        <ele>31.6</ele>
        <time>2015-05-05T18:40:37Z</time>
      </trkpt>
      <trkpt lat="59.301725" lon="17.807934">
        <ele>31.2</ele>
        <time>2015-05-05T18:40:38Z</time>
      </trkpt>
      <trkpt lat="59.301798" lon="17.80778">
        <ele>30.8</ele>
        <time>2015-05-05T18:40:39Z</time>
      </trkpt>
      <trkpt lat="59.301856" lon="17.807615">
        <ele>30.6</ele>
        <time>2015-05-05T18:40:40Z</time>
      </trkpt>
      <trkpt lat="59.301907" lon="17.807438">
        <ele>30.4</ele>
        <time>2015-05-05T18:40:41Z</time>
      </trkpt>
      <trkpt lat="59.301945" lon="17.807245">
        <ele>30.4</ele>
        <time>2015-05-05T18:40:42Z</time>
      </trkpt>
      <trkpt lat="59.301971" lon="17.807045">
        <ele>30.7</ele>
        <time>2015-05-05T18:40:43Z</time>
      </trkpt>
      <trkpt lat="59.301989" lon="17.806856">
        <ele>31.6</ele>
        <time>2015-05-05T18:40:44Z</time>
      </trkpt>
      <trkpt lat="59.302027" lon="17.806649">
        <ele>32.3</ele>
        <time>2015-05-05T18:40:45Z</time>
      </trkpt>
      <trkpt lat="59.302041" lon="17.80647">
        <ele>33.2</ele>
        <time>2015-05-05T18:40:46Z</time>
      </trkpt>
      <trkpt lat="59.302058" lon="17.806291">
        <ele>34.1</ele>
        <time>2015-05-05T18:40:47Z</time>
      </trkpt>
      <trkpt lat="59.302081" lon="17.806111">
        <ele>34.7</ele>
        <time>2015-05-05T18:40:48Z</time>
      </trkpt>
      <trkpt lat="59.302102" lon="17.805926">
        <ele>35.3</ele>
        <time>2015-05-05T18:40:49Z</time>
      </trkpt>
      <trkpt lat="59.30211" lon="17.80575">
        <ele>36</ele>
        <time>2015-05-05T18:40:50Z</time>
      </trkpt>
      <trkpt lat="59.302131" lon="17.805557">
        <ele>36.7</ele>
        <time>2015-05-05T18:40:51Z</time>
      </trkpt>
      <trkpt lat="59.302148" lon="17.805389">
        <ele>37.2</ele>
        <time>2015-05-05T18:40:52Z</time>
      </trkpt>
      <trkpt lat="59.30217" lon="17.805204">
        <ele>37.7</ele>
        <time>2015-05-05T18:40:53Z</time>
      </trkpt>
      <trkpt lat="59.302184" lon="17.805028">
        <ele>38.3</ele>
        <time>2015-05-05T18:40:54Z</time>
      </trkpt>
      <trkpt lat="59.302201" lon="17.804848">
        <ele>38.8</ele>
        <time>2015-05-05T18:40:55Z</time>
      </trkpt>
      <trkpt lat="59.302216" lon="17.804671">
        <ele>39.4</ele>
        <time>2015-05-05T18:40:56Z</time>
      </trkpt>
      <trkpt lat="59.302235" lon="17.804499">
        <ele>39.7</ele>
        <time>2015-05-05T18:40:57Z</time>
      </trkpt>
      <trkpt lat="59.302258" lon="17.804324">
        <ele>39.9</ele>
        <time>2015-05-05T18:40:58Z</time>
      </trkpt>
      <trkpt lat="59.302277" lon="17.804153">
        <ele>40.1</ele>
        <time>2015-05-05T18:40:59Z</time>
      </trkpt>
      <trkpt lat="59.302293" lon="17.80402">
        <ele>40.2</ele>
        <time>2015-05-05T18:41:00Z</time>
      </trkpt>
      <trkpt lat="59.302287" lon="17.803872">
        <ele>40.7</ele>
        <time>2015-05-05T18:41:01Z</time>
      </trkpt>
      <trkpt lat="59.302311" lon="17.803703">
        <ele>40.6</ele>
        <time>2015-05-05T18:41:02Z</time>
      </trkpt>
      <trkpt lat="59.302329" lon="17.803546">
        <ele>40.2</ele>
        <time>2015-05-05T18:41:03Z</time>
      </trkpt>
      <trkpt lat="59.302349" lon="17.803394">
        <ele>39.8</ele>
        <time>2015-05-05T18:41:04Z</time>
      </trkpt>
      <trkpt lat="59.302364" lon="17.803224">
        <ele>39.4</ele>
        <time>2015-05-05T18:41:05Z</time>
      </trkpt>
      <trkpt lat="59.30237" lon="17.803062">
        <ele>39.2</ele>
        <time>2015-05-05T18:41:06Z</time>
      </trkpt>
      <trkpt lat="59.302379" lon="17.802891">
        <ele>39</ele>
        <time>2015-05-05T18:41:07Z</time>
      </trkpt>
      <trkpt lat="59.302385" lon="17.802723">
        <ele>38.8</ele>
        <time>2015-05-05T18:41:08Z</time>
      </trkpt>
      <trkpt lat="59.302396" lon="17.802542">
        <ele>38.5</ele>
        <time>2015-05-05T18:41:09Z</time>
      </trkpt>
      <trkpt lat="59.302402" lon="17.80237">
        <ele>38.2</ele>
        <time>2015-05-05T18:41:10Z</time>
      </trkpt>
      <trkpt lat="59.302401" lon="17.802197">
        <ele>38.2</ele>
        <time>2015-05-05T18:41:11Z</time>
      </trkpt>
      <trkpt lat="59.302397" lon="17.802013">
        <ele>38.1</ele>
        <time>2015-05-05T18:41:12Z</time>
      </trkpt>
      <trkpt lat="59.302386" lon="17.801834">
        <ele>38.2</ele>
        <time>2015-05-05T18:41:13Z</time>
      </trkpt>
      <trkpt lat="59.302372" lon="17.801657">
        <ele>38.3</ele>
        <time>2015-05-05T18:41:14Z</time>
      </trkpt>
      <trkpt lat="59.302361" lon="17.801475">
        <ele>38.3</ele>
        <time>2015-05-05T18:41:15Z</time>
      </trkpt>
      <trkpt lat="59.302345" lon="17.801287">
        <ele>38.4</ele>
        <time>2015-05-05T18:41:16Z</time>
      </trkpt>
      <trkpt lat="59.30232" lon="17.801107">
        <ele>38.8</ele>
        <time>2015-05-05T18:41:17Z</time>
      </trkpt>
      <trkpt lat="59.302304" lon="17.800916">
        <ele>39.1</ele>
        <time>2015-05-05T18:41:18Z</time>
      </trkpt>
      <trkpt lat="59.302283" lon="17.800713">
        <ele>39.5</ele>
        <time>2015-05-05T18:41:19Z</time>
      </trkpt>
      <trkpt lat="59.302266" lon="17.800542">
        <ele>39.9</ele>
        <time>2015-05-05T18:41:20Z</time>
      </trkpt>
      <trkpt lat="59.302249" lon="17.800349">
        <ele>40</ele>
        <time>2015-05-05T18:41:21Z</time>
      </trkpt>
      <trkpt lat="59.302229" lon="17.800148">
        <ele>39.7</ele>
        <time>2015-05-05T18:41:22Z</time>
      </trkpt>
      <trkpt lat="59.302209" lon="17.799971">
        <ele>39.4</ele>
        <time>2015-05-05T18:41:23Z</time>
      </trkpt>
      <trkpt lat="59.302196" lon="17.799767">
        <ele>39</ele>
        <time>2015-05-05T18:41:24Z</time>
      </trkpt>
      <trkpt lat="59.302178" lon="17.799569">
        <ele>38.7</ele>
        <time>2015-05-05T18:41:25Z</time>
      </trkpt>
      <trkpt lat="59.302158" lon="17.799356">
        <ele>38.6</ele>
        <time>2015-05-05T18:41:26Z</time>
      </trkpt>
      <trkpt lat="59.30214" lon="17.79917">
        <ele>38.6</ele>
        <time>2015-05-05T18:41:27Z</time>
      </trkpt>
      <trkpt lat="59.302121" lon="17.798967">
        <ele>38.6</ele>
        <time>2015-05-05T18:41:28Z</time>
      </trkpt>
      <trkpt lat="59.302097" lon="17.798785">
        <ele>38.7</ele>
        <time>2015-05-05T18:41:29Z</time>
      </trkpt>
      <trkpt lat="59.302079" lon="17.798576">
        <ele>38.4</ele>
        <time>2015-05-05T18:41:30Z</time>
      </trkpt>
      <trkpt lat="59.302059" lon="17.798357">
        <ele>37.7</ele>
        <time>2015-05-05T18:41:31Z</time>
      </trkpt>
      <trkpt lat="59.302055" lon="17.798147">
        <ele>37</ele>
        <time>2015-05-05T18:41:32Z</time>
      </trkpt>
      <trkpt lat="59.302045" lon="17.797937">
        <ele>36.2</ele>
        <time>2015-05-05T18:41:33Z</time>
      </trkpt>
      <trkpt lat="59.302035" lon="17.797732">
        <ele>35.5</ele>
        <time>2015-05-05T18:41:34Z</time>
      </trkpt>
      <trkpt lat="59.302035" lon="17.797506">
        <ele>34.6</ele>
        <time>2015-05-05T18:41:35Z</time>
      </trkpt>
      <trkpt lat="59.302028" lon="17.797314">
        <ele>33.9</ele>
        <time>2015-05-05T18:41:36Z</time>
      </trkpt>
      <trkpt lat="59.302038" lon="17.797125">
        <ele>33.2</ele>
        <time>2015-05-05T18:41:37Z</time>
      </trkpt>
      <trkpt lat="59.302049" lon="17.796923">
        <ele>32.8</ele>
        <time>2015-05-05T18:41:38Z</time>
      </trkpt>
      <trkpt lat="59.30207" lon="17.79674">
        <ele>32.6</ele>
        <time>2015-05-05T18:41:39Z</time>
      </trkpt>
      <trkpt lat="59.302081" lon="17.796584">
        <ele>32.4</ele>
        <time>2015-05-05T18:41:40Z</time>
      </trkpt>
      <trkpt lat="59.302092" lon="17.796386">
        <ele>32</ele>
        <time>2015-05-05T18:41:41Z</time>
      </trkpt>
      <trkpt lat="59.302099" lon="17.796184">
        <ele>31.6</ele>
        <time>2015-05-05T18:41:42Z</time>
      </trkpt>
      <trkpt lat="59.302097" lon="17.795988">
        <ele>31.4</ele>
        <time>2015-05-05T18:41:43Z</time>
      </trkpt>
      <trkpt lat="59.302092" lon="17.795802">
        <ele>31.3</ele>
        <time>2015-05-05T18:41:44Z</time>
      </trkpt>
      <trkpt lat="59.302091" lon="17.795603">
        <ele>31.1</ele>
        <time>2015-05-05T18:41:45Z</time>
      </trkpt>
      <trkpt lat="59.302079" lon="17.795399">
        <ele>30.9</ele>
        <time>2015-05-05T18:41:46Z</time>
      </trkpt>
      <trkpt lat="59.302071" lon="17.795188">
        <ele>29.9</ele>
        <time>2015-05-05T18:41:47Z</time>
      </trkpt>
      <trkpt lat="59.302063" lon="17.794981">
        <ele>28.9</ele>
        <time>2015-05-05T18:41:48Z</time>
      </trkpt>
      <trkpt lat="59.302073" lon="17.794753">
        <ele>27.8</ele>
        <time>2015-05-05T18:41:49Z</time>
      </trkpt>
      <trkpt lat="59.302067" lon="17.794538">
        <ele>26.9</ele>
        <time>2015-05-05T18:41:50Z</time>
      </trkpt>
      <trkpt lat="59.302066" lon="17.794318">
        <ele>26.1</ele>
        <time>2015-05-05T18:41:51Z</time>
      </trkpt>
      <trkpt lat="59.30206" lon="17.794114">
        <ele>25.4</ele>
        <time>2015-05-05T18:41:52Z</time>
      </trkpt>
      <trkpt lat="59.302054" lon="17.793893">
        <ele>24.6</ele>
        <time>2015-05-05T18:41:53Z</time>
      </trkpt>
      <trkpt lat="59.302041" lon="17.793667">
        <ele>24.1</ele>
        <time>2015-05-05T18:41:54Z</time>
      </trkpt>
      <trkpt lat="59.302022" lon="17.793413">
        <ele>23.9</ele>
        <time>2015-05-05T18:41:55Z</time>
      </trkpt>
      <trkpt lat="59.302007" lon="17.793192">
        <ele>23.7</ele>
        <time>2015-05-05T18:41:56Z</time>
      </trkpt>
      <trkpt lat="59.301986" lon="17.79298">
        <ele>23.6</ele>
        <time>2015-05-05T18:41:57Z</time>
      </trkpt>
      <trkpt lat="59.301971" lon="17.792753">
        <ele>23.7</ele>
        <time>2015-05-05T18:41:58Z</time>
      </trkpt>
      <trkpt lat="59.301953" lon="17.792517">
        <ele>23.8</ele>
        <time>2015-05-05T18:41:59Z</time>
      </trkpt>
      <trkpt lat="59.301961" lon="17.792258">
        <ele>23.7</ele>
        <time>2015-05-05T18:42:00Z</time>
      </trkpt>
      <trkpt lat="59.301961" lon="17.792039">
        <ele>23.5</ele>
        <time>2015-05-05T18:42:01Z</time>
      </trkpt>
      <trkpt lat="59.301956" lon="17.791835">
        <ele>22.6</ele>
        <time>2015-05-05T18:42:02Z</time>
      </trkpt>
      <trkpt lat="59.301954" lon="17.791618">
        <ele>21.5</ele>
        <time>2015-05-05T18:42:03Z</time>
      </trkpt>
      <trkpt lat="59.301952" lon="17.791404">
        <ele>20.5</ele>
        <time>2015-05-05T18:42:04Z</time>
      </trkpt>
      <trkpt lat="59.301983" lon="17.791131">
        <ele>19.2</ele>
        <time>2015-05-05T18:42:05Z</time>
      </trkpt>
      <trkpt lat="59.301999" lon="17.790912">
        <ele>18.3</ele>
        <time>2015-05-05T18:42:06Z</time>
      </trkpt>
      <trkpt lat="59.302018" lon="17.790694">
        <ele>17.4</ele>
        <time>2015-05-05T18:42:07Z</time>
      </trkpt>
      <trkpt lat="59.302036" lon="17.79046">
        <ele>16.4</ele>
        <time>2015-05-05T18:42:08Z</time>
      </trkpt>
      <trkpt lat="59.302062" lon="17.790234">
        <ele>15.2</ele>
        <time>2015-05-05T18:42:09Z</time>
      </trkpt>
      <trkpt lat="59.30208" lon="17.789981">
        <ele>13.9</ele>
        <time>2015-05-05T18:42:10Z</time>
      </trkpt>
      <trkpt lat="59.3021" lon="17.789752">
        <ele>12.9</ele>
        <time>2015-05-05T18:42:11Z</time>
      </trkpt>
      <trkpt lat="59.302122" lon="17.789503">
        <ele>11.9</ele>
        <time>2015-05-05T18:42:12Z</time>
      </trkpt>
      <trkpt lat="59.30214" lon="17.789267">
        <ele>11.1</ele>
        <time>2015-05-05T18:42:13Z</time>
      </trkpt>
      <trkpt lat="59.302159" lon="17.789021">
        <ele>10.3</ele>
        <time>2015-05-05T18:42:14Z</time>
      </trkpt>
      <trkpt lat="59.302179" lon="17.788773">
        <ele>9.4</ele>
        <time>2015-05-05T18:42:15Z</time>
      </trkpt>
      <trkpt lat="59.302203" lon="17.788534">
        <ele>9.2</ele>
        <time>2015-05-05T18:42:16Z</time>
      </trkpt>
      <trkpt lat="59.302235" lon="17.788295">
        <ele>9</ele>
        <time>2015-05-05T18:42:17Z</time>
      </trkpt>
      <trkpt lat="59.302272" lon="17.788063">
        <ele>8.9</ele>
        <time>2015-05-05T18:42:18Z</time>
      </trkpt>
      <trkpt lat="59.302299" lon="17.787832">
        <ele>8.7</ele>
        <time>2015-05-05T18:42:19Z</time>
      </trkpt>
      <trkpt lat="59.302331" lon="17.787596">
        <ele>8.5</ele>
        <time>2015-05-05T18:42:20Z</time>
      </trkpt>
      <trkpt lat="59.302364" lon="17.787374">
        <ele>8.4</ele>
        <time>2015-05-05T18:42:21Z</time>
      </trkpt>
      <trkpt lat="59.30239" lon="17.787156">
        <ele>8.2</ele>
        <time>2015-05-05T18:42:22Z</time>
      </trkpt>
      <trkpt lat="59.302422" lon="17.786946">
        <ele>8.5</ele>
        <time>2015-05-05T18:42:23Z</time>
      </trkpt>
      <trkpt lat="59.302463" lon="17.786742">
        <ele>9.1</ele>
        <time>2015-05-05T18:42:24Z</time>
      </trkpt>
      <trkpt lat="59.302516" lon="17.786561">
        <ele>9.8</ele>
        <time>2015-05-05T18:42:25Z</time>
      </trkpt>
      <trkpt lat="59.30257" lon="17.786367">
        <ele>10.6</ele>
        <time>2015-05-05T18:42:26Z</time>
      </trkpt>
      <trkpt lat="59.302631" lon="17.786189">
        <ele>11.4</ele>
        <time>2015-05-05T18:42:27Z</time>
      </trkpt>
      <trkpt lat="59.302678" lon="17.785985">
        <ele>12.1</ele>
        <time>2015-05-05T18:42:28Z</time>
      </trkpt>
      <trkpt lat="59.302728" lon="17.785784">
        <ele>12.9</ele>
        <time>2015-05-05T18:42:29Z</time>
      </trkpt>
      <trkpt lat="59.30278" lon="17.78559">
        <ele>13.6</ele>
        <time>2015-05-05T18:42:30Z</time>
      </trkpt>
      <trkpt lat="59.302828" lon="17.785377">
        <ele>14.3</ele>
        <time>2015-05-05T18:42:31Z</time>
      </trkpt>
      <trkpt lat="59.302885" lon="17.785191">
        <ele>14.2</ele>
        <time>2015-05-05T18:42:32Z</time>
      </trkpt>
      <trkpt lat="59.302931" lon="17.78501">
        <ele>13.8</ele>
        <time>2015-05-05T18:42:33Z</time>
      </trkpt>
      <trkpt lat="59.302991" lon="17.784817">
        <ele>12.6</ele>
        <time>2015-05-05T18:42:34Z</time>
      </trkpt>
      <trkpt lat="59.303049" lon="17.784629">
        <ele>11.5</ele>
        <time>2015-05-05T18:42:35Z</time>
      </trkpt>
      <trkpt lat="59.303111" lon="17.784448">
        <ele>10.4</ele>
        <time>2015-05-05T18:42:36Z</time>
      </trkpt>
      <trkpt lat="59.30317" lon="17.784265">
        <ele>9.4</ele>
        <time>2015-05-05T18:42:37Z</time>
      </trkpt>
      <trkpt lat="59.303234" lon="17.784085">
        <ele>8.5</ele>
        <time>2015-05-05T18:42:38Z</time>
      </trkpt>
      <trkpt lat="59.303297" lon="17.783896">
        <ele>7.5</ele>
        <time>2015-05-05T18:42:39Z</time>
      </trkpt>
      <trkpt lat="59.303366" lon="17.783707">
        <ele>6.6</ele>
        <time>2015-05-05T18:42:40Z</time>
      </trkpt>
      <trkpt lat="59.303434" lon="17.78353">
        <ele>5.6</ele>
        <time>2015-05-05T18:42:41Z</time>
      </trkpt>
      <trkpt lat="59.303507" lon="17.783352">
        <ele>4.8</ele>
        <time>2015-05-05T18:42:42Z</time>
      </trkpt>
      <trkpt lat="59.303576" lon="17.783174">
        <ele>4.1</ele>
        <time>2015-05-05T18:42:43Z</time>
      </trkpt>
      <trkpt lat="59.303646" lon="17.782996">
        <ele>3.5</ele>
        <time>2015-05-05T18:42:44Z</time>
      </trkpt>
      <trkpt lat="59.303723" lon="17.782832">
        <ele>3.1</ele>
        <time>2015-05-05T18:42:45Z</time>
      </trkpt>
      <trkpt lat="59.303808" lon="17.78267">
        <ele>3</ele>
        <time>2015-05-05T18:42:46Z</time>
      </trkpt>
      <trkpt lat="59.303882" lon="17.782509">
        <ele>3</ele>
        <time>2015-05-05T18:42:47Z</time>
      </trkpt>
      <trkpt lat="59.303945" lon="17.782354">
        <ele>3</ele>
        <time>2015-05-05T18:42:48Z</time>
      </trkpt>
      <trkpt lat="59.304022" lon="17.782167">
        <ele>3</ele>
        <time>2015-05-05T18:42:49Z</time>
      </trkpt>
      <trkpt lat="59.30409" lon="17.782014">
        <ele>3</ele>
        <time>2015-05-05T18:42:50Z</time>
      </trkpt>
      <trkpt lat="59.304164" lon="17.78185">
        <ele>3</ele>
        <time>2015-05-05T18:42:51Z</time>
      </trkpt>
      <trkpt lat="59.304233" lon="17.781697">
        <ele>3</ele>
        <time>2015-05-05T18:42:52Z</time>
      </trkpt>
      <trkpt lat="59.304309" lon="17.781542">
        <ele>3</ele>
        <time>2015-05-05T18:42:53Z</time>
      </trkpt>
      <trkpt lat="59.304386" lon="17.781395">
        <ele>3</ele>
        <time>2015-05-05T18:42:54Z</time>
      </trkpt>
      <trkpt lat="59.304468" lon="17.781245">
        <ele>3</ele>
        <time>2015-05-05T18:42:55Z</time>
      </trkpt>
      <trkpt lat="59.304546" lon="17.781096">
        <ele>3</ele>
        <time>2015-05-05T18:42:56Z</time>
      </trkpt>
      <trkpt lat="59.304615" lon="17.780957">
        <ele>3.1</ele>
        <time>2015-05-05T18:42:57Z</time>
      </trkpt>
      <trkpt lat="59.304686" lon="17.780814">
        <ele>3.5</ele>
        <time>2015-05-05T18:42:58Z</time>
      </trkpt>
      <trkpt lat="59.304768" lon="17.780681">
        <ele>4</ele>
        <time>2015-05-05T18:42:59Z</time>
      </trkpt>
      <trkpt lat="59.304845" lon="17.780544">
        <ele>4.5</ele>
        <time>2015-05-05T18:43:00Z</time>
      </trkpt>
      <trkpt lat="59.304921" lon="17.780406">
        <ele>5.1</ele>
        <time>2015-05-05T18:43:01Z</time>
      </trkpt>
      <trkpt lat="59.305004" lon="17.780261">
        <ele>6.1</ele>
        <time>2015-05-05T18:43:02Z</time>
      </trkpt>
      <trkpt lat="59.305095" lon="17.78014">
        <ele>7.1</ele>
        <time>2015-05-05T18:43:03Z</time>
      </trkpt>
      <trkpt lat="59.305174" lon="17.780015">
        <ele>8</ele>
        <time>2015-05-05T18:43:04Z</time>
      </trkpt>
      <trkpt lat="59.305253" lon="17.779892">
        <ele>8.9</ele>
        <time>2015-05-05T18:43:05Z</time>
      </trkpt>
      <trkpt lat="59.305325" lon="17.779768">
        <ele>9.8</ele>
        <time>2015-05-05T18:43:06Z</time>
      </trkpt>
      <trkpt lat="59.305391" lon="17.779622">
        <ele>10.7</ele>
        <time>2015-05-05T18:43:07Z</time>
      </trkpt>
      <trkpt lat="59.305463" lon="17.779492">
        <ele>11.4</ele>
        <time>2015-05-05T18:43:08Z</time>
      </trkpt>
      <trkpt lat="59.305538" lon="17.779371">
        <ele>11.9</ele>
        <time>2015-05-05T18:43:09Z</time>
      </trkpt>
      <trkpt lat="59.30562" lon="17.779251">
        <ele>12.7</ele>
        <time>2015-05-05T18:43:10Z</time>
      </trkpt>
      <trkpt lat="59.305701" lon="17.779125">
        <ele>13.5</ele>
        <time>2015-05-05T18:43:11Z</time>
      </trkpt>
      <trkpt lat="59.305786" lon="17.779014">
        <ele>14.5</ele>
        <time>2015-05-05T18:43:12Z</time>
      </trkpt>
      <trkpt lat="59.305878" lon="17.7789">
        <ele>15.6</ele>
        <time>2015-05-05T18:43:13Z</time>
      </trkpt>
      <trkpt lat="59.305962" lon="17.778801">
        <ele>16.6</ele>
        <time>2015-05-05T18:43:14Z</time>
      </trkpt>
      <trkpt lat="59.30604" lon="17.77871">
        <ele>17.8</ele>
        <time>2015-05-05T18:43:15Z</time>
      </trkpt>
      <trkpt lat="59.306122" lon="17.77862">
        <ele>19.2</ele>
        <time>2015-05-05T18:43:16Z</time>
      </trkpt>
      <trkpt lat="59.306192" lon="17.778541">
        <ele>20.4</ele>
        <time>2015-05-05T18:43:17Z</time>
      </trkpt>
      <trkpt lat="59.306274" lon="17.778464">
        <ele>21.2</ele>
        <time>2015-05-05T18:43:18Z</time>
      </trkpt>
      <trkpt lat="59.306354" lon="17.778388">
        <ele>21.3</ele>
        <time>2015-05-05T18:43:19Z</time>
      </trkpt>
      <trkpt lat="59.306435" lon="17.778323">
        <ele>21.3</ele>
        <time>2015-05-05T18:43:20Z</time>
      </trkpt>
      <trkpt lat="59.306513" lon="17.778243">
        <ele>21.4</ele>
        <time>2015-05-05T18:43:21Z</time>
      </trkpt>
      <trkpt lat="59.30659" lon="17.778151">
        <ele>21.6</ele>
        <time>2015-05-05T18:43:22Z</time>
      </trkpt>
      <trkpt lat="59.306665" lon="17.778064">
        <ele>21.8</ele>
        <time>2015-05-05T18:43:23Z</time>
      </trkpt>
      <trkpt lat="59.306748" lon="17.777978">
        <ele>21.9</ele>
        <time>2015-05-05T18:43:24Z</time>
      </trkpt>
      <trkpt lat="59.306823" lon="17.777873">
        <ele>22.2</ele>
        <time>2015-05-05T18:43:25Z</time>
      </trkpt>
      <trkpt lat="59.306901" lon="17.777778">
        <ele>22.3</ele>
        <time>2015-05-05T18:43:26Z</time>
      </trkpt>
      <trkpt lat="59.306979" lon="17.777664">
        <ele>22.6</ele>
        <time>2015-05-05T18:43:27Z</time>
      </trkpt>
      <trkpt lat="59.307058" lon="17.777561">
        <ele>22.8</ele>
        <time>2015-05-05T18:43:28Z</time>
      </trkpt>
      <trkpt lat="59.307143" lon="17.777492">
        <ele>22.1</ele>
        <time>2015-05-05T18:43:29Z</time>
      </trkpt>
      <trkpt lat="59.307233" lon="17.7774">
        <ele>21.1</ele>
        <time>2015-05-05T18:43:30Z</time>
      </trkpt>
      <trkpt lat="59.307325" lon="17.777306">
        <ele>20.1</ele>
        <time>2015-05-05T18:43:31Z</time>
      </trkpt>
      <trkpt lat="59.307415" lon="17.777201">
        <ele>19</ele>
        <time>2015-05-05T18:43:32Z</time>
      </trkpt>
      <trkpt lat="59.307505" lon="17.777076">
        <ele>17.9</ele>
        <time>2015-05-05T18:43:33Z</time>
      </trkpt>
      <trkpt lat="59.307592" lon="17.777002">
        <ele>16.4</ele>
        <time>2015-05-05T18:43:34Z</time>
      </trkpt>
      <trkpt lat="59.307673" lon="17.776908">
        <ele>15.1</ele>
        <time>2015-05-05T18:43:35Z</time>
      </trkpt>
      <trkpt lat="59.307763" lon="17.776815">
        <ele>13.7</ele>
        <time>2015-05-05T18:43:36Z</time>
      </trkpt>
      <trkpt lat="59.30784" lon="17.776721">
        <ele>12.7</ele>
        <time>2015-05-05T18:43:37Z</time>
      </trkpt>
      <trkpt lat="59.30793" lon="17.776632">
        <ele>11.6</ele>
        <time>2015-05-05T18:43:38Z</time>
      </trkpt>
      <trkpt lat="59.308013" lon="17.776545">
        <ele>11.4</ele>
        <time>2015-05-05T18:43:39Z</time>
      </trkpt>
      <trkpt lat="59.308096" lon="17.776459">
        <ele>11.2</ele>
        <time>2015-05-05T18:43:40Z</time>
      </trkpt>
      <trkpt lat="59.308176" lon="17.776377">
        <ele>11</ele>
        <time>2015-05-05T18:43:41Z</time>
      </trkpt>
      <trkpt lat="59.308263" lon="17.776295">
        <ele>10.8</ele>
        <time>2015-05-05T18:43:42Z</time>
      </trkpt>
      <trkpt lat="59.308351" lon="17.776212">
        <ele>10.5</ele>
        <time>2015-05-05T18:43:43Z</time>
      </trkpt>
      <trkpt lat="59.308439" lon="17.776146">
        <ele>10</ele>
        <time>2015-05-05T18:43:44Z</time>
      </trkpt>
      <trkpt lat="59.308525" lon="17.776045">
        <ele>9.7</ele>
        <time>2015-05-05T18:43:45Z</time>
      </trkpt>
      <trkpt lat="59.308615" lon="17.775948">
        <ele>9.2</ele>
        <time>2015-05-05T18:43:46Z</time>
      </trkpt>
      <trkpt lat="59.308698" lon="17.775865">
        <ele>8.8</ele>
        <time>2015-05-05T18:43:47Z</time>
      </trkpt>
      <trkpt lat="59.308783" lon="17.775793">
        <ele>8.5</ele>
        <time>2015-05-05T18:43:48Z</time>
      </trkpt>
      <trkpt lat="59.308864" lon="17.775701">
        <ele>8.6</ele>
        <time>2015-05-05T18:43:49Z</time>
      </trkpt>
      <trkpt lat="59.308963" lon="17.775617">
        <ele>8.6</ele>
        <time>2015-05-05T18:43:50Z</time>
      </trkpt>
      <trkpt lat="59.309058" lon="17.775533">
        <ele>8.5</ele>
        <time>2015-05-05T18:43:51Z</time>
      </trkpt>
      <trkpt lat="59.309159" lon="17.775462">
        <ele>8.5</ele>
        <time>2015-05-05T18:43:52Z</time>
      </trkpt>
      <trkpt lat="59.309247" lon="17.775366">
        <ele>8.5</ele>
        <time>2015-05-05T18:43:53Z</time>
      </trkpt>
      <trkpt lat="59.309334" lon="17.775279">
        <ele>8.5</ele>
        <time>2015-05-05T18:43:54Z</time>
      </trkpt>
      <trkpt lat="59.309424" lon="17.775196">
        <ele>8.4</ele>
        <time>2015-05-05T18:43:55Z</time>
      </trkpt>
      <trkpt lat="59.309492" lon="17.775123">
        <ele>8.3</ele>
        <time>2015-05-05T18:43:56Z</time>
      </trkpt>
      <trkpt lat="59.309604" lon="17.775038">
        <ele>8</ele>
        <time>2015-05-05T18:43:57Z</time>
      </trkpt>
      <trkpt lat="59.309689" lon="17.77494">
        <ele>7.9</ele>
        <time>2015-05-05T18:43:58Z</time>
      </trkpt>
      <trkpt lat="59.309781" lon="17.774868">
        <ele>7.8</ele>
        <time>2015-05-05T18:43:59Z</time>
      </trkpt>
      <trkpt lat="59.309876" lon="17.774803">
        <ele>7.7</ele>
        <time>2015-05-05T18:44:00Z</time>
      </trkpt>
      <trkpt lat="59.309975" lon="17.774744">
        <ele>7.6</ele>
        <time>2015-05-05T18:44:01Z</time>
      </trkpt>
      <trkpt lat="59.310067" lon="17.774672">
        <ele>7.5</ele>
        <time>2015-05-05T18:44:02Z</time>
      </trkpt>
      <trkpt lat="59.310166" lon="17.774565">
        <ele>7.3</ele>
        <time>2015-05-05T18:44:03Z</time>
      </trkpt>
      <trkpt lat="59.310272" lon="17.774479">
        <ele>7.1</ele>
        <time>2015-05-05T18:44:04Z</time>
      </trkpt>
      <trkpt lat="59.31037" lon="17.774421">
        <ele>6.9</ele>
        <time>2015-05-05T18:44:05Z</time>
      </trkpt>
      <trkpt lat="59.310472" lon="17.774359">
        <ele>6.7</ele>
        <time>2015-05-05T18:44:06Z</time>
      </trkpt>
      <trkpt lat="59.310583" lon="17.774307">
        <ele>6.7</ele>
        <time>2015-05-05T18:44:07Z</time>
      </trkpt>
      <trkpt lat="59.310693" lon="17.774249">
        <ele>6.7</ele>
        <time>2015-05-05T18:44:08Z</time>
      </trkpt>
      <trkpt lat="59.310792" lon="17.774183">
        <ele>6.7</ele>
        <time>2015-05-05T18:44:09Z</time>
      </trkpt>
      <trkpt lat="59.310893" lon="17.774121">
        <ele>6.8</ele>
        <time>2015-05-05T18:44:10Z</time>
      </trkpt>
      <trkpt lat="59.310964" lon="17.774025">
        <ele>6.8</ele>
        <time>2015-05-05T18:44:11Z</time>
      </trkpt>
      <trkpt lat="59.311072" lon="17.773966">
        <ele>6.8</ele>
        <time>2015-05-05T18:44:12Z</time>
      </trkpt>
      <trkpt lat="59.311178" lon="17.773895">
        <ele>6.9</ele>
        <time>2015-05-05T18:44:13Z</time>
      </trkpt>
      <trkpt lat="59.311285" lon="17.773844">
        <ele>7</ele>
        <time>2015-05-05T18:44:14Z</time>
      </trkpt>
      <trkpt lat="59.311387" lon="17.773789">
        <ele>7.2</ele>
        <time>2015-05-05T18:44:15Z</time>
      </trkpt>
      <trkpt lat="59.31149" lon="17.773726">
        <ele>7.3</ele>
        <time>2015-05-05T18:44:16Z</time>
      </trkpt>
      <trkpt lat="59.311592" lon="17.773672">
        <ele>7.4</ele>
        <time>2015-05-05T18:44:17Z</time>
      </trkpt>
      <trkpt lat="59.311687" lon="17.773594">
        <ele>7.5</ele>
        <time>2015-05-05T18:44:18Z</time>
      </trkpt>
      <trkpt lat="59.311777" lon="17.773514">
        <ele>7.6</ele>
        <time>2015-05-05T18:44:19Z</time>
      </trkpt>
      <trkpt lat="59.311884" lon="17.773448">
        <ele>7.8</ele>
        <time>2015-05-05T18:44:20Z</time>
      </trkpt>
      <trkpt lat="59.311976" lon="17.773382">
        <ele>7.9</ele>
        <time>2015-05-05T18:44:21Z</time>
      </trkpt>
      <trkpt lat="59.312074" lon="17.773305">
        <ele>8</ele>
        <time>2015-05-05T18:44:22Z</time>
      </trkpt>
      <trkpt lat="59.312166" lon="17.773233">
        <ele>8</ele>
        <time>2015-05-05T18:44:23Z</time>
      </trkpt>
      <trkpt lat="59.312257" lon="17.773185">
        <ele>8.1</ele>
        <time>2015-05-05T18:44:24Z</time>
      </trkpt>
      <trkpt lat="59.312351" lon="17.773136">
        <ele>8.1</ele>
        <time>2015-05-05T18:44:25Z</time>
      </trkpt>
      <trkpt lat="59.312447" lon="17.773084">
        <ele>8.1</ele>
        <time>2015-05-05T18:44:26Z</time>
      </trkpt>
      <trkpt lat="59.312541" lon="17.773006">
        <ele>8.1</ele>
        <time>2015-05-05T18:44:27Z</time>
      </trkpt>
      <trkpt lat="59.312626" lon="17.772947">
        <ele>8</ele>
        <time>2015-05-05T18:44:28Z</time>
      </trkpt>
      <trkpt lat="59.31272" lon="17.772895">
        <ele>8</ele>
        <time>2015-05-05T18:44:29Z</time>
      </trkpt>
      <trkpt lat="59.312801" lon="17.772825">
        <ele>8</ele>
        <time>2015-05-05T18:44:30Z</time>
      </trkpt>
      <trkpt lat="59.31289" lon="17.772766">
        <ele>8</ele>
        <time>2015-05-05T18:44:31Z</time>
      </trkpt>
      <trkpt lat="59.312984" lon="17.772711">
        <ele>8.1</ele>
        <time>2015-05-05T18:44:32Z</time>
      </trkpt>
      <trkpt lat="59.313077" lon="17.772652">
        <ele>8.2</ele>
        <time>2015-05-05T18:44:33Z</time>
      </trkpt>
      <trkpt lat="59.313171" lon="17.772598">
        <ele>8.3</ele>
        <time>2015-05-05T18:44:34Z</time>
      </trkpt>
      <trkpt lat="59.313253" lon="17.77254">
        <ele>8.4</ele>
        <time>2015-05-05T18:44:35Z</time>
      </trkpt>
      <trkpt lat="59.313344" lon="17.772488">
        <ele>8.5</ele>
        <time>2015-05-05T18:44:36Z</time>
      </trkpt>
      <trkpt lat="59.313434" lon="17.772433">
        <ele>8.6</ele>
        <time>2015-05-05T18:44:37Z</time>
      </trkpt>
      <trkpt lat="59.313519" lon="17.772374">
        <ele>8.7</ele>
        <time>2015-05-05T18:44:38Z</time>
      </trkpt>
      <trkpt lat="59.313608" lon="17.772307">
        <ele>8.8</ele>
        <time>2015-05-05T18:44:39Z</time>
      </trkpt>
      <trkpt lat="59.313691" lon="17.772259">
        <ele>8.9</ele>
        <time>2015-05-05T18:44:40Z</time>
      </trkpt>
      <trkpt lat="59.313778" lon="17.772211">
        <ele>9.1</ele>
        <time>2015-05-05T18:44:41Z</time>
      </trkpt>
      <trkpt lat="59.313877" lon="17.772163">
        <ele>9.5</ele>
        <time>2015-05-05T18:44:42Z</time>
      </trkpt>
      <trkpt lat="59.313978" lon="17.772117">
        <ele>9.8</ele>
        <time>2015-05-05T18:44:43Z</time>
      </trkpt>
      <trkpt lat="59.314067" lon="17.772064">
        <ele>10.1</ele>
        <time>2015-05-05T18:44:44Z</time>
      </trkpt>
      <trkpt lat="59.314165" lon="17.771981">
        <ele>10.4</ele>
        <time>2015-05-05T18:44:45Z</time>
      </trkpt>
      <trkpt lat="59.314266" lon="17.771931">
        <ele>10.7</ele>
        <time>2015-05-05T18:44:46Z</time>
      </trkpt>
      <trkpt lat="59.314354" lon="17.771877">
        <ele>10.9</ele>
        <time>2015-05-05T18:44:47Z</time>
      </trkpt>
      <trkpt lat="59.314444" lon="17.771815">
        <ele>11.2</ele>
        <time>2015-05-05T18:44:48Z</time>
      </trkpt>
      <trkpt lat="59.31453" lon="17.771759">
        <ele>11.4</ele>
        <time>2015-05-05T18:44:49Z</time>
      </trkpt>
      <trkpt lat="59.314614" lon="17.771681">
        <ele>11.6</ele>
        <time>2015-05-05T18:44:50Z</time>
      </trkpt>
      <trkpt lat="59.314702" lon="17.771611">
        <ele>11.7</ele>
        <time>2015-05-05T18:44:51Z</time>
      </trkpt>
      <trkpt lat="59.314786" lon="17.771537">
        <ele>11.9</ele>
        <time>2015-05-05T18:44:52Z</time>
      </trkpt>
      <trkpt lat="59.314866" lon="17.771489">
        <ele>12.1</ele>
        <time>2015-05-05T18:44:53Z</time>
      </trkpt>
      <trkpt lat="59.314941" lon="17.771427">
        <ele>12.3</ele>
        <time>2015-05-05T18:44:54Z</time>
      </trkpt>
      <trkpt lat="59.315022" lon="17.771365">
        <ele>12.6</ele>
        <time>2015-05-05T18:44:55Z</time>
      </trkpt>
      <trkpt lat="59.315098" lon="17.771276">
        <ele>12.8</ele>
        <time>2015-05-05T18:44:56Z</time>
      </trkpt>
      <trkpt lat="59.315194" lon="17.771213">
        <ele>13.2</ele>
        <time>2015-05-05T18:44:57Z</time>
      </trkpt>
      <trkpt lat="59.315292" lon="17.771156">
        <ele>13.6</ele>
        <time>2015-05-05T18:44:58Z</time>
      </trkpt>
      <trkpt lat="59.31538" lon="17.771118">
        <ele>13.9</ele>
        <time>2015-05-05T18:44:59Z</time>
      </trkpt>
      <trkpt lat="59.315464" lon="17.771071">
        <ele>14.1</ele>
        <time>2015-05-05T18:45:00Z</time>
      </trkpt>
      <trkpt lat="59.315557" lon="17.771042">
        <ele>14.3</ele>
        <time>2015-05-05T18:45:01Z</time>
      </trkpt>
      <trkpt lat="59.315652" lon="17.770977">
        <ele>14.6</ele>
        <time>2015-05-05T18:45:02Z</time>
      </trkpt>
      <trkpt lat="59.315747" lon="17.770941">
        <ele>14.8</ele>
        <time>2015-05-05T18:45:03Z</time>
      </trkpt>
      <trkpt lat="59.315834" lon="17.770904">
        <ele>15</ele>
        <time>2015-05-05T18:45:04Z</time>
      </trkpt>
      <trkpt lat="59.315914" lon="17.770841">
        <ele>15.2</ele>
        <time>2015-05-05T18:45:05Z</time>
      </trkpt>
      <trkpt lat="59.316001" lon="17.770789">
        <ele>15.4</ele>
        <time>2015-05-05T18:45:06Z</time>
      </trkpt>
      <trkpt lat="59.316086" lon="17.770727">
        <ele>15.6</ele>
        <time>2015-05-05T18:45:07Z</time>
      </trkpt>
      <trkpt lat="59.316174" lon="17.770673">
        <ele>15.8</ele>
        <time>2015-05-05T18:45:08Z</time>
      </trkpt>
      <trkpt lat="59.31627" lon="17.770626">
        <ele>16.1</ele>
        <time>2015-05-05T18:45:09Z</time>
      </trkpt>
      <trkpt lat="59.316358" lon="17.77057">
        <ele>16.4</ele>
        <time>2015-05-05T18:45:10Z</time>
      </trkpt>
      <trkpt lat="59.316448" lon="17.770516">
        <ele>16.7</ele>
        <time>2015-05-05T18:45:11Z</time>
      </trkpt>
      <trkpt lat="59.31653" lon="17.770429">
        <ele>17</ele>
        <time>2015-05-05T18:45:12Z</time>
      </trkpt>
      <trkpt lat="59.31662" lon="17.770361">
        <ele>17.4</ele>
        <time>2015-05-05T18:45:13Z</time>
      </trkpt>
      <trkpt lat="59.316706" lon="17.770297">
        <ele>17.8</ele>
        <time>2015-05-05T18:45:14Z</time>
      </trkpt>
      <trkpt lat="59.31679" lon="17.770243">
        <ele>18.2</ele>
        <time>2015-05-05T18:45:15Z</time>
      </trkpt>
      <trkpt lat="59.31688" lon="17.770171">
        <ele>18.6</ele>
        <time>2015-05-05T18:45:16Z</time>
      </trkpt>
      <trkpt lat="59.316967" lon="17.770099">
        <ele>19</ele>
        <time>2015-05-05T18:45:17Z</time>
      </trkpt>
      <trkpt lat="59.317056" lon="17.770025">
        <ele>19.4</ele>
        <time>2015-05-05T18:45:18Z</time>
      </trkpt>
      <trkpt lat="59.317143" lon="17.769933">
        <ele>19.6</ele>
        <time>2015-05-05T18:45:19Z</time>
      </trkpt>
      <trkpt lat="59.317242" lon="17.769866">
        <ele>19.7</ele>
        <time>2015-05-05T18:45:20Z</time>
      </trkpt>
      <trkpt lat="59.317334" lon="17.769793">
        <ele>19.7</ele>
        <time>2015-05-05T18:45:21Z</time>
      </trkpt>
      <trkpt lat="59.317429" lon="17.76972">
        <ele>19.8</ele>
        <time>2015-05-05T18:45:22Z</time>
      </trkpt>
      <trkpt lat="59.317526" lon="17.769629">
        <ele>19.9</ele>
        <time>2015-05-05T18:45:23Z</time>
      </trkpt>
      <trkpt lat="59.31763" lon="17.769553">
        <ele>20</ele>
        <time>2015-05-05T18:45:24Z</time>
      </trkpt>
      <trkpt lat="59.317728" lon="17.769464">
        <ele>20.1</ele>
        <time>2015-05-05T18:45:25Z</time>
      </trkpt>
      <trkpt lat="59.317831" lon="17.769375">
        <ele>20.2</ele>
        <time>2015-05-05T18:45:26Z</time>
      </trkpt>
      <trkpt lat="59.31793" lon="17.769297">
        <ele>20.3</ele>
        <time>2015-05-05T18:45:27Z</time>
      </trkpt>
      <trkpt lat="59.318034" lon="17.769215">
        <ele>20</ele>
        <time>2015-05-05T18:45:28Z</time>
      </trkpt>
      <trkpt lat="59.318129" lon="17.769117">
        <ele>19.7</ele>
        <time>2015-05-05T18:45:29Z</time>
      </trkpt>
      <trkpt lat="59.31822" lon="17.769016">
        <ele>19.3</ele>
        <time>2015-05-05T18:45:30Z</time>
      </trkpt>
      <trkpt lat="59.31832" lon="17.768921">
        <ele>19</ele>
        <time>2015-05-05T18:45:31Z</time>
      </trkpt>
      <trkpt lat="59.318414" lon="17.768823">
        <ele>18.6</ele>
        <time>2015-05-05T18:45:32Z</time>
      </trkpt>
      <trkpt lat="59.318503" lon="17.768706">
        <ele>18.5</ele>
        <time>2015-05-05T18:45:33Z</time>
      </trkpt>
      <trkpt lat="59.318596" lon="17.768596">
        <ele>18.7</ele>
        <time>2015-05-05T18:45:34Z</time>
      </trkpt>
      <trkpt lat="59.318677" lon="17.768471">
        <ele>19.1</ele>
        <time>2015-05-05T18:45:35Z</time>
      </trkpt>
      <trkpt lat="59.318759" lon="17.768342">
        <ele>19.4</ele>
        <time>2015-05-05T18:45:36Z</time>
      </trkpt>
      <trkpt lat="59.318831" lon="17.768207">
        <ele>20</ele>
        <time>2015-05-05T18:45:37Z</time>
      </trkpt>
      <trkpt lat="59.318907" lon="17.768077">
        <ele>20.4</ele>
        <time>2015-05-05T18:45:38Z</time>
      </trkpt>
      <trkpt lat="59.318984" lon="17.767947">
        <ele>20.7</ele>
        <time>2015-05-05T18:45:39Z</time>
      </trkpt>
      <trkpt lat="59.31906" lon="17.767822">
        <ele>20.9</ele>
        <time>2015-05-05T18:45:40Z</time>
      </trkpt>
      <trkpt lat="59.319135" lon="17.76769">
        <ele>21</ele>
        <time>2015-05-05T18:45:41Z</time>
      </trkpt>
      <trkpt lat="59.319201" lon="17.767566">
        <ele>21</ele>
        <time>2015-05-05T18:45:42Z</time>
      </trkpt>
      <trkpt lat="59.319277" lon="17.767443">
        <ele>20.9</ele>
        <time>2015-05-05T18:45:43Z</time>
      </trkpt>
      <trkpt lat="59.319346" lon="17.767315">
        <ele>20.7</ele>
        <time>2015-05-05T18:45:44Z</time>
      </trkpt>
      <trkpt lat="59.31942" lon="17.76718">
        <ele>20.4</ele>
        <time>2015-05-05T18:45:45Z</time>
      </trkpt>
      <trkpt lat="59.319488" lon="17.767064">
        <ele>20</ele>
        <time>2015-05-05T18:45:46Z</time>
      </trkpt>
      <trkpt lat="59.319562" lon="17.76694">
        <ele>19.9</ele>
        <time>2015-05-05T18:45:47Z</time>
      </trkpt>
      <trkpt lat="59.319634" lon="17.766816">
        <ele>20.2</ele>
        <time>2015-05-05T18:45:48Z</time>
      </trkpt>
      <trkpt lat="59.319699" lon="17.766696">
        <ele>20.7</ele>
        <time>2015-05-05T18:45:49Z</time>
      </trkpt>
      <trkpt lat="59.319755" lon="17.766577">
        <ele>21.2</ele>
        <time>2015-05-05T18:45:50Z</time>
      </trkpt>
      <trkpt lat="59.319822" lon="17.766445">
        <ele>21.6</ele>
        <time>2015-05-05T18:45:51Z</time>
      </trkpt>
      <trkpt lat="59.319887" lon="17.766322">
        <ele>22</ele>
        <time>2015-05-05T18:45:52Z</time>
      </trkpt>
      <trkpt lat="59.319947" lon="17.766197">
        <ele>22.3</ele>
        <time>2015-05-05T18:45:53Z</time>
      </trkpt>
      <trkpt lat="59.320019" lon="17.766073">
        <ele>22.5</ele>
        <time>2015-05-05T18:45:54Z</time>
      </trkpt>
      <trkpt lat="59.320089" lon="17.765946">
        <ele>22.6</ele>
        <time>2015-05-05T18:45:55Z</time>
      </trkpt>
      <trkpt lat="59.320155" lon="17.765809">
        <ele>22.7</ele>
        <time>2015-05-05T18:45:56Z</time>
      </trkpt>
      <trkpt lat="59.320221" lon="17.765683">
        <ele>22.6</ele>
        <time>2015-05-05T18:45:57Z</time>
      </trkpt>
      <trkpt lat="59.320279" lon="17.765561">
        <ele>22.6</ele>
        <time>2015-05-05T18:45:58Z</time>
      </trkpt>
      <trkpt lat="59.320344" lon="17.765425">
        <ele>22.4</ele>
        <time>2015-05-05T18:45:59Z</time>
      </trkpt>
      <trkpt lat="59.320408" lon="17.765296">
        <ele>22.5</ele>
        <time>2015-05-05T18:46:00Z</time>
      </trkpt>
      <trkpt lat="59.320472" lon="17.76516">
        <ele>23.1</ele>
        <time>2015-05-05T18:46:01Z</time>
      </trkpt>
      <trkpt lat="59.320538" lon="17.765036">
        <ele>23.7</ele>
        <time>2015-05-05T18:46:02Z</time>
      </trkpt>
      <trkpt lat="59.320609" lon="17.76489">
        <ele>24.3</ele>
        <time>2015-05-05T18:46:03Z</time>
      </trkpt>
      <trkpt lat="59.320677" lon="17.764764">
        <ele>24.8</ele>
        <time>2015-05-05T18:46:04Z</time>
      </trkpt>
      <trkpt lat="59.32074" lon="17.764635">
        <ele>25.3</ele>
        <time>2015-05-05T18:46:05Z</time>
      </trkpt>
      <trkpt lat="59.320796" lon="17.764505">
        <ele>25.6</ele>
        <time>2015-05-05T18:46:06Z</time>
      </trkpt>
      <trkpt lat="59.320859" lon="17.764381">
        <ele>25.9</ele>
        <time>2015-05-05T18:46:07Z</time>
      </trkpt>
      <trkpt lat="59.32092" lon="17.764258">
        <ele>26.1</ele>
        <time>2015-05-05T18:46:08Z</time>
      </trkpt>
      <trkpt lat="59.320989" lon="17.764157">
        <ele>26.4</ele>
        <time>2015-05-05T18:46:09Z</time>
      </trkpt>
      <trkpt lat="59.321051" lon="17.764028">
        <ele>26.6</ele>
        <time>2015-05-05T18:46:10Z</time>
      </trkpt>
      <trkpt lat="59.321111" lon="17.763894">
        <ele>26.8</ele>
        <time>2015-05-05T18:46:11Z</time>
      </trkpt>
      <trkpt lat="59.321165" lon="17.763777">
        <ele>27</ele>
        <time>2015-05-05T18:46:12Z</time>
      </trkpt>
      <trkpt lat="59.321226" lon="17.763681">
        <ele>27.3</ele>
        <time>2015-05-05T18:46:13Z</time>
      </trkpt>
      <trkpt lat="59.321293" lon="17.763589">
        <ele>27.8</ele>
        <time>2015-05-05T18:46:14Z</time>
      </trkpt>
      <trkpt lat="59.32136" lon="17.763481">
        <ele>28.5</ele>
        <time>2015-05-05T18:46:15Z</time>
      </trkpt>
      <trkpt lat="59.321413" lon="17.763376">
        <ele>29.1</ele>
        <time>2015-05-05T18:46:16Z</time>
      </trkpt>
      <trkpt lat="59.321477" lon="17.763266">
        <ele>29.8</ele>
        <time>2015-05-05T18:46:17Z</time>
      </trkpt>
      <trkpt lat="59.321538" lon="17.763138">
        <ele>30.5</ele>
        <time>2015-05-05T18:46:18Z</time>
      </trkpt>
      <trkpt lat="59.321591" lon="17.763016">
        <ele>31.3</ele>
        <time>2015-05-05T18:46:19Z</time>
      </trkpt>
      <trkpt lat="59.32165" lon="17.762903">
        <ele>32</ele>
        <time>2015-05-05T18:46:20Z</time>
      </trkpt>
      <trkpt lat="59.321722" lon="17.762743">
        <ele>32.9</ele>
        <time>2015-05-05T18:46:21Z</time>
      </trkpt>
      <trkpt lat="59.321783" lon="17.762632">
        <ele>33.5</ele>
        <time>2015-05-05T18:46:22Z</time>
      </trkpt>
      <trkpt lat="59.321847" lon="17.762508">
        <ele>34.3</ele>
        <time>2015-05-05T18:46:23Z</time>
      </trkpt>
      <trkpt lat="59.321895" lon="17.762378">
        <ele>35</ele>
        <time>2015-05-05T18:46:24Z</time>
      </trkpt>
      <trkpt lat="59.321959" lon="17.762241">
        <ele>35.8</ele>
        <time>2015-05-05T18:46:25Z</time>
      </trkpt>
      <trkpt lat="59.322019" lon="17.762116">
        <ele>36.6</ele>
        <time>2015-05-05T18:46:26Z</time>
      </trkpt>
      <trkpt lat="59.322083" lon="17.761985">
        <ele>37.5</ele>
        <time>2015-05-05T18:46:27Z</time>
      </trkpt>
      <trkpt lat="59.322145" lon="17.761844">
        <ele>37.8</ele>
        <time>2015-05-05T18:46:28Z</time>
      </trkpt>
      <trkpt lat="59.322215" lon="17.76172">
        <ele>38</ele>
        <time>2015-05-05T18:46:29Z</time>
      </trkpt>
      <trkpt lat="59.322278" lon="17.761585">
        <ele>38.2</ele>
        <time>2015-05-05T18:46:30Z</time>
      </trkpt>
      <trkpt lat="59.322345" lon="17.761446">
        <ele>38.5</ele>
        <time>2015-05-05T18:46:31Z</time>
      </trkpt>
      <trkpt lat="59.322406" lon="17.761327">
        <ele>38.7</ele>
        <time>2015-05-05T18:46:32Z</time>
      </trkpt>
      <trkpt lat="59.322464" lon="17.761203">
        <ele>38.9</ele>
        <time>2015-05-05T18:46:33Z</time>
      </trkpt>
      <trkpt lat="59.322527" lon="17.761072">
        <ele>39.1</ele>
        <time>2015-05-05T18:46:34Z</time>
      </trkpt>
      <trkpt lat="59.322597" lon="17.760933">
        <ele>39.2</ele>
        <time>2015-05-05T18:46:35Z</time>
      </trkpt>
      <trkpt lat="59.322662" lon="17.760797">
        <ele>39.3</ele>
        <time>2015-05-05T18:46:36Z</time>
      </trkpt>
      <trkpt lat="59.322715" lon="17.760655">
        <ele>39.5</ele>
        <time>2015-05-05T18:46:37Z</time>
      </trkpt>
      <trkpt lat="59.322776" lon="17.760481">
        <ele>39.8</ele>
        <time>2015-05-05T18:46:38Z</time>
      </trkpt>
      <trkpt lat="59.322842" lon="17.760323">
        <ele>39.6</ele>
        <time>2015-05-05T18:46:39Z</time>
      </trkpt>
      <trkpt lat="59.32289" lon="17.760148">
        <ele>39.5</ele>
        <time>2015-05-05T18:46:40Z</time>
      </trkpt>
      <trkpt lat="59.322932" lon="17.759968">
        <ele>39.2</ele>
        <time>2015-05-05T18:46:41Z</time>
      </trkpt>
      <trkpt lat="59.32297" lon="17.759772">
        <ele>38.7</ele>
        <time>2015-05-05T18:46:42Z</time>
      </trkpt>
      <trkpt lat="59.323006" lon="17.759562">
        <ele>38.1</ele>
        <time>2015-05-05T18:46:43Z</time>
      </trkpt>
      <trkpt lat="59.323039" lon="17.759351">
        <ele>37.6</ele>
        <time>2015-05-05T18:46:44Z</time>
      </trkpt>
      <trkpt lat="59.323071" lon="17.75913">
        <ele>37.1</ele>
        <time>2015-05-05T18:46:45Z</time>
      </trkpt>
      <trkpt lat="59.323105" lon="17.758887">
        <ele>36.6</ele>
        <time>2015-05-05T18:46:46Z</time>
      </trkpt>
      <trkpt lat="59.323135" lon="17.758659">
        <ele>35.9</ele>
        <time>2015-05-05T18:46:47Z</time>
      </trkpt>
      <trkpt lat="59.323148" lon="17.758438">
        <ele>35.4</ele>
        <time>2015-05-05T18:46:48Z</time>
      </trkpt>
      <trkpt lat="59.32315" lon="17.758209">
        <ele>35</ele>
        <time>2015-05-05T18:46:49Z</time>
      </trkpt>
      <trkpt lat="59.323144" lon="17.757982">
        <ele>34.9</ele>
        <time>2015-05-05T18:46:50Z</time>
      </trkpt>
      <trkpt lat="59.323143" lon="17.757759">
        <ele>34.8</ele>
        <time>2015-05-05T18:46:51Z</time>
      </trkpt>
      <trkpt lat="59.323132" lon="17.757543">
        <ele>35</ele>
        <time>2015-05-05T18:46:52Z</time>
      </trkpt>
      <trkpt lat="59.323133" lon="17.757321">
        <ele>34.9</ele>
        <time>2015-05-05T18:46:53Z</time>
      </trkpt>
      <trkpt lat="59.323129" lon="17.757088">
        <ele>34.9</ele>
        <time>2015-05-05T18:46:54Z</time>
      </trkpt>
      <trkpt lat="59.323127" lon="17.756873">
        <ele>34.3</ele>
        <time>2015-05-05T18:46:55Z</time>
      </trkpt>
      <trkpt lat="59.323123" lon="17.756644">
        <ele>33.7</ele>
        <time>2015-05-05T18:46:56Z</time>
      </trkpt>
      <trkpt lat="59.32311" lon="17.756435">
        <ele>33.4</ele>
        <time>2015-05-05T18:46:57Z</time>
      </trkpt>
      <trkpt lat="59.323107" lon="17.756201">
        <ele>32.8</ele>
        <time>2015-05-05T18:46:58Z</time>
      </trkpt>
      <trkpt lat="59.323106" lon="17.755978">
        <ele>32.3</ele>
        <time>2015-05-05T18:46:59Z</time>
      </trkpt>
      <trkpt lat="59.323095" lon="17.75577">
        <ele>32.1</ele>
        <time>2015-05-05T18:47:00Z</time>
      </trkpt>
      <trkpt lat="59.323096" lon="17.755541">
        <ele>31.6</ele>
        <time>2015-05-05T18:47:01Z</time>
      </trkpt>
      <trkpt lat="59.323092" lon="17.755332">
        <ele>31.2</ele>
        <time>2015-05-05T18:47:02Z</time>
      </trkpt>
      <trkpt lat="59.323078" lon="17.755115">
        <ele>31</ele>
        <time>2015-05-05T18:47:03Z</time>
      </trkpt>
      <trkpt lat="59.323079" lon="17.754921">
        <ele>30.5</ele>
        <time>2015-05-05T18:47:04Z</time>
      </trkpt>
      <trkpt lat="59.32307" lon="17.754689">
        <ele>30.1</ele>
        <time>2015-05-05T18:47:05Z</time>
      </trkpt>
      <trkpt lat="59.323059" lon="17.754468">
        <ele>30</ele>
        <time>2015-05-05T18:47:06Z</time>
      </trkpt>
      <trkpt lat="59.323062" lon="17.754269">
        <ele>29.7</ele>
        <time>2015-05-05T18:47:07Z</time>
      </trkpt>
      <trkpt lat="59.323063" lon="17.754065">
        <ele>29.4</ele>
        <time>2015-05-05T18:47:08Z</time>
      </trkpt>
      <trkpt lat="59.323064" lon="17.753876">
        <ele>29.1</ele>
        <time>2015-05-05T18:47:09Z</time>
      </trkpt>
      <trkpt lat="59.323062" lon="17.753695">
        <ele>29</ele>
        <time>2015-05-05T18:47:10Z</time>
      </trkpt>
      <trkpt lat="59.323058" lon="17.753512">
        <ele>29.2</ele>
        <time>2015-05-05T18:47:11Z</time>
      </trkpt>
      <trkpt lat="59.323053" lon="17.753327">
        <ele>29.3</ele>
        <time>2015-05-05T18:47:12Z</time>
      </trkpt>
      <trkpt lat="59.323052" lon="17.753142">
        <ele>29.4</ele>
        <time>2015-05-05T18:47:13Z</time>
      </trkpt>
      <trkpt lat="59.323053" lon="17.752955">
        <ele>29.4</ele>
        <time>2015-05-05T18:47:14Z</time>
      </trkpt>
      <trkpt lat="59.32305" lon="17.752783">
        <ele>29.4</ele>
        <time>2015-05-05T18:47:15Z</time>
      </trkpt>
      <trkpt lat="59.323064" lon="17.752617">
        <ele>29.2</ele>
        <time>2015-05-05T18:47:16Z</time>
      </trkpt>
      <trkpt lat="59.323082" lon="17.752458">
        <ele>28.8</ele>
        <time>2015-05-05T18:47:17Z</time>
      </trkpt>
      <trkpt lat="59.323107" lon="17.752299">
        <ele>28.3</ele>
        <time>2015-05-05T18:47:18Z</time>
      </trkpt>
      <trkpt lat="59.323138" lon="17.752125">
        <ele>27.8</ele>
        <time>2015-05-05T18:47:19Z</time>
      </trkpt>
      <trkpt lat="59.323163" lon="17.751961">
        <ele>27.7</ele>
        <time>2015-05-05T18:47:20Z</time>
      </trkpt>
      <trkpt lat="59.323196" lon="17.751796">
        <ele>27.6</ele>
        <time>2015-05-05T18:47:21Z</time>
      </trkpt>
      <trkpt lat="59.323226" lon="17.751631">
        <ele>27.5</ele>
        <time>2015-05-05T18:47:22Z</time>
      </trkpt>
      <trkpt lat="59.323256" lon="17.751466">
        <ele>27.6</ele>
        <time>2015-05-05T18:47:23Z</time>
      </trkpt>
      <trkpt lat="59.323276" lon="17.751415">
        <ele>27.4</ele>
        <time>2015-05-05T18:47:24Z</time>
      </trkpt>
      <trkpt lat="59.323293" lon="17.751308">
        <ele>27.5</ele>
        <time>2015-05-05T18:47:25Z</time>
      </trkpt>
      <trkpt lat="59.323303" lon="17.751167">
        <ele>27.8</ele>
        <time>2015-05-05T18:47:26Z</time>
      </trkpt>
      <trkpt lat="59.323317" lon="17.751064">
        <ele>27.8</ele>
        <time>2015-05-05T18:47:27Z</time>
      </trkpt>
      <trkpt lat="59.323354" lon="17.750939">
        <ele>27.6</ele>
        <time>2015-05-05T18:47:28Z</time>
      </trkpt>
      <trkpt lat="59.323391" lon="17.750815">
        <ele>27.4</ele>
        <time>2015-05-05T18:47:29Z</time>
      </trkpt>
      <trkpt lat="59.323441" lon="17.750699">
        <ele>26.9</ele>
        <time>2015-05-05T18:47:30Z</time>
      </trkpt>
      <trkpt lat="59.323487" lon="17.750598">
        <ele>26.5</ele>
        <time>2015-05-05T18:47:31Z</time>
      </trkpt>
      <trkpt lat="59.323531" lon="17.750464">
        <ele>26.3</ele>
        <time>2015-05-05T18:47:32Z</time>
      </trkpt>
      <trkpt lat="59.323587" lon="17.750328">
        <ele>25.8</ele>
        <time>2015-05-05T18:47:33Z</time>
      </trkpt>
      <trkpt lat="59.323634" lon="17.750205">
        <ele>25.5</ele>
        <time>2015-05-05T18:47:34Z</time>
      </trkpt>
      <trkpt lat="59.323683" lon="17.750057">
        <ele>25.2</ele>
        <time>2015-05-05T18:47:35Z</time>
      </trkpt>
      <trkpt lat="59.323736" lon="17.749932">
        <ele>24.9</ele>
        <time>2015-05-05T18:47:36Z</time>
      </trkpt>
      <trkpt lat="59.323792" lon="17.749809">
        <ele>24.6</ele>
        <time>2015-05-05T18:47:37Z</time>
      </trkpt>
      <trkpt lat="59.323848" lon="17.749684">
        <ele>24.4</ele>
        <time>2015-05-05T18:47:38Z</time>
      </trkpt>
      <trkpt lat="59.32391" lon="17.749564">
        <ele>24</ele>
        <time>2015-05-05T18:47:39Z</time>
      </trkpt>
      <trkpt lat="59.32396" lon="17.749433">
        <ele>23.7</ele>
        <time>2015-05-05T18:47:40Z</time>
      </trkpt>
      <trkpt lat="59.324023" lon="17.749301">
        <ele>23.3</ele>
        <time>2015-05-05T18:47:41Z</time>
      </trkpt>
      <trkpt lat="59.324091" lon="17.74915">
        <ele>22.8</ele>
        <time>2015-05-05T18:47:42Z</time>
      </trkpt>
      <trkpt lat="59.324152" lon="17.748976">
        <ele>22.5</ele>
        <time>2015-05-05T18:47:43Z</time>
      </trkpt>
      <trkpt lat="59.324224" lon="17.748832">
        <ele>21.9</ele>
        <time>2015-05-05T18:47:44Z</time>
      </trkpt>
      <trkpt lat="59.324293" lon="17.748681">
        <ele>20.8</ele>
        <time>2015-05-05T18:47:45Z</time>
      </trkpt>
      <trkpt lat="59.324367" lon="17.748538">
        <ele>19.2</ele>
        <time>2015-05-05T18:47:46Z</time>
      </trkpt>
      <trkpt lat="59.324429" lon="17.748373">
        <ele>17.6</ele>
        <time>2015-05-05T18:47:47Z</time>
      </trkpt>
      <trkpt lat="59.324493" lon="17.748215">
        <ele>16.2</ele>
        <time>2015-05-05T18:47:48Z</time>
      </trkpt>
      <trkpt lat="59.324564" lon="17.748065">
        <ele>14.8</ele>
        <time>2015-05-05T18:47:49Z</time>
      </trkpt>
      <trkpt lat="59.32464" lon="17.747903">
        <ele>13.7</ele>
        <time>2015-05-05T18:47:50Z</time>
      </trkpt>
      <trkpt lat="59.324726" lon="17.747741">
        <ele>13</ele>
        <time>2015-05-05T18:47:51Z</time>
      </trkpt>
      <trkpt lat="59.324811" lon="17.747609">
        <ele>12.4</ele>
        <time>2015-05-05T18:47:52Z</time>
      </trkpt>
      <trkpt lat="59.32489" lon="17.747481">
        <ele>11.9</ele>
        <time>2015-05-05T18:47:53Z</time>
      </trkpt>
      <trkpt lat="59.324991" lon="17.747389">
        <ele>11.4</ele>
        <time>2015-05-05T18:47:54Z</time>
      </trkpt>
      <trkpt lat="59.325092" lon="17.747311">
        <ele>11</ele>
        <time>2015-05-05T18:47:55Z</time>
      </trkpt>
      <trkpt lat="59.325209" lon="17.74726">
        <ele>10.6</ele>
        <time>2015-05-05T18:47:56Z</time>
      </trkpt>
      <trkpt lat="59.325314" lon="17.747229">
        <ele>10.3</ele>
        <time>2015-05-05T18:47:57Z</time>
      </trkpt>
      <trkpt lat="59.325423" lon="17.747214">
        <ele>10</ele>
        <time>2015-05-05T18:47:58Z</time>
      </trkpt>
      <trkpt lat="59.325531" lon="17.747184">
        <ele>10.4</ele>
        <time>2015-05-05T18:47:59Z</time>
      </trkpt>
      <trkpt lat="59.325637" lon="17.747155">
        <ele>10.8</ele>
        <time>2015-05-05T18:48:00Z</time>
      </trkpt>
      <trkpt lat="59.325762" lon="17.747148">
        <ele>11.2</ele>
        <time>2015-05-05T18:48:01Z</time>
      </trkpt>
      <trkpt lat="59.325876" lon="17.747131">
        <ele>11.7</ele>
        <time>2015-05-05T18:48:02Z</time>
      </trkpt>
      <trkpt lat="59.325982" lon="17.747096">
        <ele>12</ele>
        <time>2015-05-05T18:48:03Z</time>
      </trkpt>
      <trkpt lat="59.326078" lon="17.747067">
        <ele>12.4</ele>
        <time>2015-05-05T18:48:04Z</time>
      </trkpt>
      <trkpt lat="59.32618" lon="17.747048">
        <ele>12.8</ele>
        <time>2015-05-05T18:48:05Z</time>
      </trkpt>
      <trkpt lat="59.326289" lon="17.747">
        <ele>13.3</ele>
        <time>2015-05-05T18:48:06Z</time>
      </trkpt>
      <trkpt lat="59.326396" lon="17.74697">
        <ele>13.7</ele>
        <time>2015-05-05T18:48:07Z</time>
      </trkpt>
      <trkpt lat="59.326496" lon="17.746933">
        <ele>14.1</ele>
        <time>2015-05-05T18:48:08Z</time>
      </trkpt>
      <trkpt lat="59.32659" lon="17.746907">
        <ele>14.4</ele>
        <time>2015-05-05T18:48:09Z</time>
      </trkpt>
      <trkpt lat="59.326698" lon="17.746892">
        <ele>14.8</ele>
        <time>2015-05-05T18:48:10Z</time>
      </trkpt>
      <trkpt lat="59.326814" lon="17.746855">
        <ele>15.3</ele>
        <time>2015-05-05T18:48:11Z</time>
      </trkpt>
      <trkpt lat="59.32692" lon="17.746828">
        <ele>15.7</ele>
        <time>2015-05-05T18:48:12Z</time>
      </trkpt>
      <trkpt lat="59.327025" lon="17.746803">
        <ele>16.2</ele>
        <time>2015-05-05T18:48:13Z</time>
      </trkpt>
      <trkpt lat="59.327128" lon="17.746781">
        <ele>16.5</ele>
        <time>2015-05-05T18:48:14Z</time>
      </trkpt>
      <trkpt lat="59.327237" lon="17.746757">
        <ele>16.9</ele>
        <time>2015-05-05T18:48:15Z</time>
      </trkpt>
      <trkpt lat="59.32732" lon="17.746725">
        <ele>17.2</ele>
        <time>2015-05-05T18:48:16Z</time>
      </trkpt>
      <trkpt lat="59.327412" lon="17.746706">
        <ele>17.4</ele>
        <time>2015-05-05T18:48:17Z</time>
      </trkpt>
      <trkpt lat="59.327507" lon="17.746697">
        <ele>17.6</ele>
        <time>2015-05-05T18:48:18Z</time>
      </trkpt>
      <trkpt lat="59.327592" lon="17.746675">
        <ele>17.9</ele>
        <time>2015-05-05T18:48:19Z</time>
      </trkpt>
      <trkpt lat="59.327679" lon="17.746658">
        <ele>18.1</ele>
        <time>2015-05-05T18:48:20Z</time>
      </trkpt>
      <trkpt lat="59.327772" lon="17.74664">
        <ele>18.3</ele>
        <time>2015-05-05T18:48:21Z</time>
      </trkpt>
      <trkpt lat="59.327854" lon="17.74661">
        <ele>18.6</ele>
        <time>2015-05-05T18:48:22Z</time>
      </trkpt>
      <trkpt lat="59.327944" lon="17.74658">
        <ele>18.9</ele>
        <time>2015-05-05T18:48:23Z</time>
      </trkpt>
      <trkpt lat="59.328025" lon="17.746556">
        <ele>19.1</ele>
        <time>2015-05-05T18:48:24Z</time>
      </trkpt>
      <trkpt lat="59.328106" lon="17.746538">
        <ele>19.3</ele>
        <time>2015-05-05T18:48:25Z</time>
      </trkpt>
      <trkpt lat="59.328192" lon="17.746524">
        <ele>19.5</ele>
        <time>2015-05-05T18:48:26Z</time>
      </trkpt>
      <trkpt lat="59.328265" lon="17.746514">
        <ele>19.6</ele>
        <time>2015-05-05T18:48:27Z</time>
      </trkpt>
      <trkpt lat="59.328348" lon="17.746494">
        <ele>19.8</ele>
        <time>2015-05-05T18:48:28Z</time>
      </trkpt>
      <trkpt lat="59.32842" lon="17.746474">
        <ele>20</ele>
        <time>2015-05-05T18:48:29Z</time>
      </trkpt>
      <trkpt lat="59.3285" lon="17.746454">
        <ele>20.1</ele>
        <time>2015-05-05T18:48:30Z</time>
      </trkpt>
      <trkpt lat="59.32858" lon="17.746439">
        <ele>20.3</ele>
        <time>2015-05-05T18:48:31Z</time>
      </trkpt>
      <trkpt lat="59.328663" lon="17.746433">
        <ele>20.4</ele>
        <time>2015-05-05T18:48:32Z</time>
      </trkpt>
      <trkpt lat="59.328744" lon="17.746405">
        <ele>20.6</ele>
        <time>2015-05-05T18:48:33Z</time>
      </trkpt>
      <trkpt lat="59.328828" lon="17.746396">
        <ele>20.4</ele>
        <time>2015-05-05T18:48:34Z</time>
      </trkpt>
      <trkpt lat="59.328915" lon="17.746384">
        <ele>20.1</ele>
        <time>2015-05-05T18:48:35Z</time>
      </trkpt>
      <trkpt lat="59.329005" lon="17.746368">
        <ele>19.8</ele>
        <time>2015-05-05T18:48:36Z</time>
      </trkpt>
      <trkpt lat="59.329089" lon="17.746367">
        <ele>19.6</ele>
        <time>2015-05-05T18:48:37Z</time>
      </trkpt>
      <trkpt lat="59.329164" lon="17.74635">
        <ele>19.3</ele>
        <time>2015-05-05T18:48:38Z</time>
      </trkpt>
      <trkpt lat="59.329246" lon="17.746355">
        <ele>19</ele>
        <time>2015-05-05T18:48:39Z</time>
      </trkpt>
      <trkpt lat="59.329333" lon="17.746362">
        <ele>18.7</ele>
        <time>2015-05-05T18:48:40Z</time>
      </trkpt>
      <trkpt lat="59.329422" lon="17.746354">
        <ele>18.4</ele>
        <time>2015-05-05T18:48:41Z</time>
      </trkpt>
      <trkpt lat="59.329513" lon="17.746341">
        <ele>18.1</ele>
        <time>2015-05-05T18:48:42Z</time>
      </trkpt>
      <trkpt lat="59.3296" lon="17.746324">
        <ele>17.9</ele>
        <time>2015-05-05T18:48:43Z</time>
      </trkpt>
      <trkpt lat="59.329688" lon="17.74632">
        <ele>17.5</ele>
        <time>2015-05-05T18:48:44Z</time>
      </trkpt>
      <trkpt lat="59.329783" lon="17.746299">
        <ele>17.2</ele>
        <time>2015-05-05T18:48:45Z</time>
      </trkpt>
      <trkpt lat="59.329877" lon="17.746288">
        <ele>16.9</ele>
        <time>2015-05-05T18:48:46Z</time>
      </trkpt>
      <trkpt lat="59.32997" lon="17.746285">
        <ele>16.6</ele>
        <time>2015-05-05T18:48:47Z</time>
      </trkpt>
      <trkpt lat="59.330059" lon="17.746281">
        <ele>16.3</ele>
        <time>2015-05-05T18:48:48Z</time>
      </trkpt>
      <trkpt lat="59.330143" lon="17.746271">
        <ele>16</ele>
        <time>2015-05-05T18:48:49Z</time>
      </trkpt>
      <trkpt lat="59.330229" lon="17.746252">
        <ele>15.7</ele>
        <time>2015-05-05T18:48:50Z</time>
      </trkpt>
      <trkpt lat="59.330324" lon="17.746244">
        <ele>15.3</ele>
        <time>2015-05-05T18:48:51Z</time>
      </trkpt>
      <trkpt lat="59.330413" lon="17.746223">
        <ele>15</ele>
        <time>2015-05-05T18:48:52Z</time>
      </trkpt>
      <trkpt lat="59.330504" lon="17.74621">
        <ele>15.1</ele>
        <time>2015-05-05T18:48:53Z</time>
      </trkpt>
      <trkpt lat="59.330596" lon="17.746212">
        <ele>15.2</ele>
        <time>2015-05-05T18:48:54Z</time>
      </trkpt>
      <trkpt lat="59.330687" lon="17.746191">
        <ele>15.3</ele>
        <time>2015-05-05T18:48:55Z</time>
      </trkpt>
      <trkpt lat="59.330775" lon="17.746179">
        <ele>15.4</ele>
        <time>2015-05-05T18:48:56Z</time>
      </trkpt>
      <trkpt lat="59.330864" lon="17.74617">
        <ele>15.5</ele>
        <time>2015-05-05T18:48:57Z</time>
      </trkpt>
      <trkpt lat="59.330954" lon="17.74616">
        <ele>15.6</ele>
        <time>2015-05-05T18:48:58Z</time>
      </trkpt>
      <trkpt lat="59.331048" lon="17.746151">
        <ele>15.8</ele>
        <time>2015-05-05T18:48:59Z</time>
      </trkpt>
      <trkpt lat="59.331139" lon="17.746153">
        <ele>15.9</ele>
        <time>2015-05-05T18:49:00Z</time>
      </trkpt>
      <trkpt lat="59.331228" lon="17.746141">
        <ele>16</ele>
        <time>2015-05-05T18:49:01Z</time>
      </trkpt>
      <trkpt lat="59.331314" lon="17.746119">
        <ele>16.3</ele>
        <time>2015-05-05T18:49:02Z</time>
      </trkpt>
      <trkpt lat="59.331405" lon="17.746111">
        <ele>16.7</ele>
        <time>2015-05-05T18:49:03Z</time>
      </trkpt>
      <trkpt lat="59.331487" lon="17.746104">
        <ele>17</ele>
        <time>2015-05-05T18:49:04Z</time>
      </trkpt>
      <trkpt lat="59.331564" lon="17.746092">
        <ele>17.3</ele>
        <time>2015-05-05T18:49:05Z</time>
      </trkpt>
      <trkpt lat="59.33165" lon="17.746077">
        <ele>17.7</ele>
        <time>2015-05-05T18:49:06Z</time>
      </trkpt>
      <trkpt lat="59.331748" lon="17.746084">
        <ele>18.1</ele>
        <time>2015-05-05T18:49:07Z</time>
      </trkpt>
      <trkpt lat="59.331842" lon="17.746075">
        <ele>18.6</ele>
        <time>2015-05-05T18:49:08Z</time>
      </trkpt>
      <trkpt lat="59.33193" lon="17.746061">
        <ele>19</ele>
        <time>2015-05-05T18:49:09Z</time>
      </trkpt>
      <trkpt lat="59.33201" lon="17.746046">
        <ele>19.4</ele>
        <time>2015-05-05T18:49:10Z</time>
      </trkpt>
      <trkpt lat="59.332091" lon="17.74602">
        <ele>19.8</ele>
        <time>2015-05-05T18:49:11Z</time>
      </trkpt>
      <trkpt lat="59.332169" lon="17.745973">
        <ele>20</ele>
        <time>2015-05-05T18:49:12Z</time>
      </trkpt>
      <trkpt lat="59.332247" lon="17.745942">
        <ele>20</ele>
        <time>2015-05-05T18:49:13Z</time>
      </trkpt>
      <trkpt lat="59.332337" lon="17.745916">
        <ele>20.1</ele>
        <time>2015-05-05T18:49:14Z</time>
      </trkpt>
      <trkpt lat="59.332414" lon="17.745871">
        <ele>20.2</ele>
        <time>2015-05-05T18:49:15Z</time>
      </trkpt>
      <trkpt lat="59.332498" lon="17.745836">
        <ele>20.2</ele>
        <time>2015-05-05T18:49:16Z</time>
      </trkpt>
      <trkpt lat="59.332575" lon="17.745797">
        <ele>20.3</ele>
        <time>2015-05-05T18:49:17Z</time>
      </trkpt>
      <trkpt lat="59.332654" lon="17.745755">
        <ele>20.4</ele>
        <time>2015-05-05T18:49:18Z</time>
      </trkpt>
      <trkpt lat="59.332728" lon="17.745713">
        <ele>20.4</ele>
        <time>2015-05-05T18:49:19Z</time>
      </trkpt>
      <trkpt lat="59.332798" lon="17.745709">
        <ele>20.4</ele>
        <time>2015-05-05T18:49:20Z</time>
      </trkpt>
      <trkpt lat="59.332867" lon="17.745729">
        <ele>20.3</ele>
        <time>2015-05-05T18:49:21Z</time>
      </trkpt>
      <trkpt lat="59.332892" lon="17.745877">
        <ele>19.9</ele>
        <time>2015-05-05T18:49:22Z</time>
      </trkpt>
      <trkpt lat="59.332895" lon="17.746011">
        <ele>19.6</ele>
        <time>2015-05-05T18:49:23Z</time>
      </trkpt>
      <trkpt lat="59.332908" lon="17.746118">
        <ele>19.3</ele>
        <time>2015-05-05T18:49:24Z</time>
      </trkpt>
      <trkpt lat="59.332914" lon="17.746207">
        <ele>19.1</ele>
        <time>2015-05-05T18:49:25Z</time>
      </trkpt>
      <trkpt lat="59.332925" lon="17.746298">
        <ele>18.9</ele>
        <time>2015-05-05T18:49:26Z</time>
      </trkpt>
      <trkpt lat="59.332936" lon="17.746353">
        <ele>18.8</ele>
        <time>2015-05-05T18:49:27Z</time>
      </trkpt>
      <trkpt lat="59.332951" lon="17.746463">
        <ele>18.5</ele>
        <time>2015-05-05T18:49:29Z</time>
      </trkpt>
      <trkpt lat="59.332959" lon="17.746406">
        <ele>18.7</ele>
        <time>2015-05-05T18:49:37Z</time>
      </trkpt>
      <trkpt lat="59.332995" lon="17.746398">
        <ele>18.7</ele>
        <time>2015-05-05T18:53:36Z</time>
      </trkpt>
      <trkpt lat="59.333032" lon="17.746449">
        <ele>18.7</ele>
        <time>2015-05-05T18:53:38Z</time>
      </trkpt>
      <trkpt lat="59.333062" lon="17.746487">
        <ele>18.6</ele>
        <time>2015-05-05T18:53:39Z</time>
      </trkpt>
      <trkpt lat="59.333099" lon="17.746524">
        <ele>18.6</ele>
        <time>2015-05-05T18:53:40Z</time>
      </trkpt>
      <trkpt lat="59.333145" lon="17.74656">
        <ele>18.5</ele>
        <time>2015-05-05T18:53:41Z</time>
      </trkpt>
      <trkpt lat="59.333215" lon="17.746594">
        <ele>18.5</ele>
        <time>2015-05-05T18:53:42Z</time>
      </trkpt>
      <trkpt lat="59.33326" lon="17.746617">
        <ele>18.5</ele>
        <time>2015-05-05T18:53:43Z</time>
      </trkpt>
      <trkpt lat="59.333312" lon="17.746638">
        <ele>18.5</ele>
        <time>2015-05-05T18:53:44Z</time>
      </trkpt>
      <trkpt lat="59.333358" lon="17.746652">
        <ele>18.6</ele>
        <time>2015-05-05T18:53:45Z</time>
      </trkpt>
      <trkpt lat="59.33342" lon="17.746678">
        <ele>18.6</ele>
        <time>2015-05-05T18:53:46Z</time>
      </trkpt>
      <trkpt lat="59.333486" lon="17.746714">
        <ele>18.6</ele>
        <time>2015-05-05T18:53:47Z</time>
      </trkpt>
      <trkpt lat="59.333571" lon="17.746774">
        <ele>18.5</ele>
        <time>2015-05-05T18:53:48Z</time>
      </trkpt>
      <trkpt lat="59.333643" lon="17.74681">
        <ele>18.5</ele>
        <time>2015-05-05T18:53:49Z</time>
      </trkpt>
      <trkpt lat="59.333727" lon="17.746866">
        <ele>18.5</ele>
        <time>2015-05-05T18:53:50Z</time>
      </trkpt>
      <trkpt lat="59.333828" lon="17.746944">
        <ele>17.9</ele>
        <time>2015-05-05T18:53:51Z</time>
      </trkpt>
      <trkpt lat="59.333914" lon="17.747003">
        <ele>17.4</ele>
        <time>2015-05-05T18:53:52Z</time>
      </trkpt>
      <trkpt lat="59.334002" lon="17.747062">
        <ele>16.8</ele>
        <time>2015-05-05T18:53:53Z</time>
      </trkpt>
      <trkpt lat="59.334092" lon="17.747125">
        <ele>16.4</ele>
        <time>2015-05-05T18:53:54Z</time>
      </trkpt>
      <trkpt lat="59.334179" lon="17.747176">
        <ele>16.2</ele>
        <time>2015-05-05T18:53:55Z</time>
      </trkpt>
      <trkpt lat="59.334261" lon="17.747229">
        <ele>15.9</ele>
        <time>2015-05-05T18:53:56Z</time>
      </trkpt>
      <trkpt lat="59.334344" lon="17.747274">
        <ele>15.7</ele>
        <time>2015-05-05T18:53:57Z</time>
      </trkpt>
      <trkpt lat="59.334428" lon="17.747327">
        <ele>15.5</ele>
        <time>2015-05-05T18:53:58Z</time>
      </trkpt>
      <trkpt lat="59.334521" lon="17.747394">
        <ele>15.4</ele>
        <time>2015-05-05T18:53:59Z</time>
      </trkpt>
      <trkpt lat="59.334612" lon="17.747468">
        <ele>15.2</ele>
        <time>2015-05-05T18:54:00Z</time>
      </trkpt>
      <trkpt lat="59.334703" lon="17.747545">
        <ele>15</ele>
        <time>2015-05-05T18:54:01Z</time>
      </trkpt>
      <trkpt lat="59.334797" lon="17.747632">
        <ele>14.7</ele>
        <time>2015-05-05T18:54:02Z</time>
      </trkpt>
      <trkpt lat="59.334885" lon="17.747749">
        <ele>14.4</ele>
        <time>2015-05-05T18:54:03Z</time>
      </trkpt>
      <trkpt lat="59.334965" lon="17.74786">
        <ele>14.1</ele>
        <time>2015-05-05T18:54:04Z</time>
      </trkpt>
      <trkpt lat="59.335041" lon="17.747985">
        <ele>13.9</ele>
        <time>2015-05-05T18:54:05Z</time>
      </trkpt>
      <trkpt lat="59.335122" lon="17.748126">
        <ele>13.6</ele>
        <time>2015-05-05T18:54:06Z</time>
      </trkpt>
      <trkpt lat="59.335199" lon="17.748263">
        <ele>13.3</ele>
        <time>2015-05-05T18:54:07Z</time>
      </trkpt>
      <trkpt lat="59.335274" lon="17.748396">
        <ele>12.9</ele>
        <time>2015-05-05T18:54:08Z</time>
      </trkpt>
      <trkpt lat="59.335349" lon="17.748527">
        <ele>12.4</ele>
        <time>2015-05-05T18:54:09Z</time>
      </trkpt>
      <trkpt lat="59.335423" lon="17.748666">
        <ele>11.9</ele>
        <time>2015-05-05T18:54:10Z</time>
      </trkpt>
      <trkpt lat="59.335493" lon="17.748786">
        <ele>12</ele>
        <time>2015-05-05T18:54:11Z</time>
      </trkpt>
      <trkpt lat="59.335561" lon="17.748917">
        <ele>12</ele>
        <time>2015-05-05T18:54:12Z</time>
      </trkpt>
      <trkpt lat="59.335633" lon="17.749055">
        <ele>12</ele>
        <time>2015-05-05T18:54:13Z</time>
      </trkpt>
      <trkpt lat="59.335699" lon="17.749196">
        <ele>12</ele>
        <time>2015-05-05T18:54:14Z</time>
      </trkpt>
      <trkpt lat="59.335771" lon="17.749328">
        <ele>12</ele>
        <time>2015-05-05T18:54:15Z</time>
      </trkpt>
      <trkpt lat="59.335835" lon="17.749451">
        <ele>12</ele>
        <time>2015-05-05T18:54:16Z</time>
      </trkpt>
      <trkpt lat="59.335905" lon="17.749586">
        <ele>12</ele>
        <time>2015-05-05T18:54:17Z</time>
      </trkpt>
      <trkpt lat="59.335974" lon="17.749708">
        <ele>12</ele>
        <time>2015-05-05T18:54:18Z</time>
      </trkpt>
      <trkpt lat="59.336052" lon="17.749839">
        <ele>11.9</ele>
        <time>2015-05-05T18:54:19Z</time>
      </trkpt>
      <trkpt lat="59.336124" lon="17.749965">
        <ele>11.9</ele>
        <time>2015-05-05T18:54:20Z</time>
      </trkpt>
      <trkpt lat="59.336194" lon="17.750099">
        <ele>12</ele>
        <time>2015-05-05T18:54:21Z</time>
      </trkpt>
      <trkpt lat="59.33625" lon="17.750257">
        <ele>12</ele>
        <time>2015-05-05T18:54:22Z</time>
      </trkpt>
      <trkpt lat="59.336321" lon="17.750423">
        <ele>12.5</ele>
        <time>2015-05-05T18:54:23Z</time>
      </trkpt>
      <trkpt lat="59.336364" lon="17.750574">
        <ele>12.8</ele>
        <time>2015-05-05T18:54:24Z</time>
      </trkpt>
      <trkpt lat="59.336403" lon="17.750747">
        <ele>13</ele>
        <time>2015-05-05T18:54:25Z</time>
      </trkpt>
      <trkpt lat="59.336458" lon="17.750914">
        <ele>13.3</ele>
        <time>2015-05-05T18:54:26Z</time>
      </trkpt>
      <trkpt lat="59.336507" lon="17.751054">
        <ele>13.6</ele>
        <time>2015-05-05T18:54:27Z</time>
      </trkpt>
      <trkpt lat="59.336562" lon="17.751187">
        <ele>13.9</ele>
        <time>2015-05-05T18:54:28Z</time>
      </trkpt>
      <trkpt lat="59.336614" lon="17.751306">
        <ele>14.2</ele>
        <time>2015-05-05T18:54:29Z</time>
      </trkpt>
      <trkpt lat="59.336669" lon="17.751482">
        <ele>14.4</ele>
        <time>2015-05-05T18:54:30Z</time>
      </trkpt>
      <trkpt lat="59.336708" lon="17.751641">
        <ele>14.5</ele>
        <time>2015-05-05T18:54:31Z</time>
      </trkpt>
      <trkpt lat="59.336744" lon="17.751821">
        <ele>14.6</ele>
        <time>2015-05-05T18:54:32Z</time>
      </trkpt>
      <trkpt lat="59.336778" lon="17.752042">
        <ele>14.6</ele>
        <time>2015-05-05T18:54:33Z</time>
      </trkpt>
      <trkpt lat="59.336801" lon="17.752231">
        <ele>14.7</ele>
        <time>2015-05-05T18:54:34Z</time>
      </trkpt>
      <trkpt lat="59.336801" lon="17.752394">
        <ele>14.8</ele>
        <time>2015-05-05T18:54:35Z</time>
      </trkpt>
      <trkpt lat="59.336821" lon="17.752577">
        <ele>14.9</ele>
        <time>2015-05-05T18:54:36Z</time>
      </trkpt>
      <trkpt lat="59.336829" lon="17.752741">
        <ele>15</ele>
        <time>2015-05-05T18:54:37Z</time>
      </trkpt>
      <trkpt lat="59.336838" lon="17.752899">
        <ele>15.1</ele>
        <time>2015-05-05T18:54:38Z</time>
      </trkpt>
      <trkpt lat="59.336853" lon="17.753076">
        <ele>15.2</ele>
        <time>2015-05-05T18:54:39Z</time>
      </trkpt>
      <trkpt lat="59.336871" lon="17.753256">
        <ele>15.3</ele>
        <time>2015-05-05T18:54:40Z</time>
      </trkpt>
      <trkpt lat="59.336898" lon="17.753415">
        <ele>15.5</ele>
        <time>2015-05-05T18:54:41Z</time>
      </trkpt>
      <trkpt lat="59.336926" lon="17.75357">
        <ele>15.6</ele>
        <time>2015-05-05T18:54:42Z</time>
      </trkpt>
      <trkpt lat="59.336976" lon="17.753681">
        <ele>15.7</ele>
        <time>2015-05-05T18:54:43Z</time>
      </trkpt>
      <trkpt lat="59.337052" lon="17.753803">
        <ele>16</ele>
        <time>2015-05-05T18:54:44Z</time>
      </trkpt>
      <trkpt lat="59.337116" lon="17.753914">
        <ele>16.3</ele>
        <time>2015-05-05T18:54:45Z</time>
      </trkpt>
      <trkpt lat="59.337191" lon="17.754026">
        <ele>16.8</ele>
        <time>2015-05-05T18:54:46Z</time>
      </trkpt>
      <trkpt lat="59.337262" lon="17.754123">
        <ele>17.2</ele>
        <time>2015-05-05T18:54:47Z</time>
      </trkpt>
      <trkpt lat="59.337339" lon="17.754215">
        <ele>17.6</ele>
        <time>2015-05-05T18:54:48Z</time>
      </trkpt>
      <trkpt lat="59.337396" lon="17.754325">
        <ele>17.9</ele>
        <time>2015-05-05T18:54:49Z</time>
      </trkpt>
      <trkpt lat="59.337463" lon="17.754432">
        <ele>18.3</ele>
        <time>2015-05-05T18:54:50Z</time>
      </trkpt>
      <trkpt lat="59.337523" lon="17.754576">
        <ele>18.6</ele>
        <time>2015-05-05T18:54:51Z</time>
      </trkpt>
      <trkpt lat="59.337575" lon="17.7547">
        <ele>18.9</ele>
        <time>2015-05-05T18:54:52Z</time>
      </trkpt>
      <trkpt lat="59.337638" lon="17.75486">
        <ele>19.3</ele>
        <time>2015-05-05T18:54:53Z</time>
      </trkpt>
      <trkpt lat="59.337689" lon="17.754999">
        <ele>19.7</ele>
        <time>2015-05-05T18:54:54Z</time>
      </trkpt>
      <trkpt lat="59.337721" lon="17.755134">
        <ele>20</ele>
        <time>2015-05-05T18:54:55Z</time>
      </trkpt>
      <trkpt lat="59.337741" lon="17.755248">
        <ele>20.2</ele>
        <time>2015-05-05T18:54:56Z</time>
      </trkpt>
      <trkpt lat="59.337766" lon="17.755361">
        <ele>20.4</ele>
        <time>2015-05-05T18:54:57Z</time>
      </trkpt>
      <trkpt lat="59.33779" lon="17.755477">
        <ele>20.5</ele>
        <time>2015-05-05T18:54:58Z</time>
      </trkpt>
      <trkpt lat="59.337846" lon="17.755595">
        <ele>20.7</ele>
        <time>2015-05-05T18:54:59Z</time>
      </trkpt>
      <trkpt lat="59.337885" lon="17.755719">
        <ele>20.9</ele>
        <time>2015-05-05T18:55:00Z</time>
      </trkpt>
      <trkpt lat="59.337924" lon="17.755835">
        <ele>21.1</ele>
        <time>2015-05-05T18:55:01Z</time>
      </trkpt>
      <trkpt lat="59.337953" lon="17.755952">
        <ele>21.3</ele>
        <time>2015-05-05T18:55:02Z</time>
      </trkpt>
      <trkpt lat="59.337996" lon="17.75606">
        <ele>21.6</ele>
        <time>2015-05-05T18:55:03Z</time>
      </trkpt>
      <trkpt lat="59.338046" lon="17.756167">
        <ele>22</ele>
        <time>2015-05-05T18:55:04Z</time>
      </trkpt>
      <trkpt lat="59.338091" lon="17.756288">
        <ele>22.2</ele>
        <time>2015-05-05T18:55:05Z</time>
      </trkpt>
      <trkpt lat="59.33814" lon="17.756394">
        <ele>22.5</ele>
        <time>2015-05-05T18:55:06Z</time>
      </trkpt>
      <trkpt lat="59.338198" lon="17.756507">
        <ele>22.7</ele>
        <time>2015-05-05T18:55:07Z</time>
      </trkpt>
      <trkpt lat="59.338253" lon="17.756613">
        <ele>22.9</ele>
        <time>2015-05-05T18:55:08Z</time>
      </trkpt>
      <trkpt lat="59.338306" lon="17.756723">
        <ele>23</ele>
        <time>2015-05-05T18:55:09Z</time>
      </trkpt>
      <trkpt lat="59.338363" lon="17.756842">
        <ele>23.1</ele>
        <time>2015-05-05T18:55:10Z</time>
      </trkpt>
      <trkpt lat="59.338417" lon="17.756934">
        <ele>23.1</ele>
        <time>2015-05-05T18:55:11Z</time>
      </trkpt>
      <trkpt lat="59.338483" lon="17.757035">
        <ele>23.2</ele>
        <time>2015-05-05T18:55:12Z</time>
      </trkpt>
      <trkpt lat="59.338539" lon="17.757121">
        <ele>23.3</ele>
        <time>2015-05-05T18:55:13Z</time>
      </trkpt>
      <trkpt lat="59.338609" lon="17.757216">
        <ele>23.6</ele>
        <time>2015-05-05T18:55:14Z</time>
      </trkpt>
      <trkpt lat="59.338678" lon="17.757293">
        <ele>24</ele>
        <time>2015-05-05T18:55:15Z</time>
      </trkpt>
      <trkpt lat="59.33875" lon="17.757366">
        <ele>24.3</ele>
        <time>2015-05-05T18:55:16Z</time>
      </trkpt>
      <trkpt lat="59.338823" lon="17.757443">
        <ele>24.5</ele>
        <time>2015-05-05T18:55:17Z</time>
      </trkpt>
      <trkpt lat="59.338902" lon="17.75753">
        <ele>24.7</ele>
        <time>2015-05-05T18:55:18Z</time>
      </trkpt>
      <trkpt lat="59.338974" lon="17.757625">
        <ele>24.9</ele>
        <time>2015-05-05T18:55:19Z</time>
      </trkpt>
      <trkpt lat="59.339049" lon="17.757736">
        <ele>25.1</ele>
        <time>2015-05-05T18:55:20Z</time>
      </trkpt>
      <trkpt lat="59.339128" lon="17.757857">
        <ele>25.4</ele>
        <time>2015-05-05T18:55:21Z</time>
      </trkpt>
      <trkpt lat="59.339208" lon="17.757996">
        <ele>25.7</ele>
        <time>2015-05-05T18:55:22Z</time>
      </trkpt>
      <trkpt lat="59.339283" lon="17.758111">
        <ele>26</ele>
        <time>2015-05-05T18:55:23Z</time>
      </trkpt>
      <trkpt lat="59.339344" lon="17.75825">
        <ele>26.4</ele>
        <time>2015-05-05T18:55:24Z</time>
      </trkpt>
      <trkpt lat="59.339419" lon="17.758378">
        <ele>26.8</ele>
        <time>2015-05-05T18:55:25Z</time>
      </trkpt>
      <trkpt lat="59.339497" lon="17.758513">
        <ele>27.3</ele>
        <time>2015-05-05T18:55:26Z</time>
      </trkpt>
      <trkpt lat="59.339568" lon="17.758643">
        <ele>27.7</ele>
        <time>2015-05-05T18:55:27Z</time>
      </trkpt>
      <trkpt lat="59.339631" lon="17.758779">
        <ele>27.8</ele>
        <time>2015-05-05T18:55:28Z</time>
      </trkpt>
      <trkpt lat="59.339709" lon="17.758929">
        <ele>27.9</ele>
        <time>2015-05-05T18:55:29Z</time>
      </trkpt>
      <trkpt lat="59.339767" lon="17.75909">
        <ele>28</ele>
        <time>2015-05-05T18:55:30Z</time>
      </trkpt>
      <trkpt lat="59.339819" lon="17.759258">
        <ele>28.2</ele>
        <time>2015-05-05T18:55:31Z</time>
      </trkpt>
      <trkpt lat="59.339867" lon="17.759428">
        <ele>28.5</ele>
        <time>2015-05-05T18:55:32Z</time>
      </trkpt>
      <trkpt lat="59.339905" lon="17.759594">
        <ele>28.7</ele>
        <time>2015-05-05T18:55:33Z</time>
      </trkpt>
      <trkpt lat="59.339941" lon="17.759771">
        <ele>29.1</ele>
        <time>2015-05-05T18:55:34Z</time>
      </trkpt>
      <trkpt lat="59.340007" lon="17.759948">
        <ele>29.3</ele>
        <time>2015-05-05T18:55:35Z</time>
      </trkpt>
      <trkpt lat="59.340054" lon="17.760103">
        <ele>29.5</ele>
        <time>2015-05-05T18:55:36Z</time>
      </trkpt>
      <trkpt lat="59.34012" lon="17.760254">
        <ele>29.6</ele>
        <time>2015-05-05T18:55:37Z</time>
      </trkpt>
      <trkpt lat="59.340191" lon="17.760391">
        <ele>29.5</ele>
        <time>2015-05-05T18:55:38Z</time>
      </trkpt>
      <trkpt lat="59.340266" lon="17.760532">
        <ele>28.9</ele>
        <time>2015-05-05T18:55:39Z</time>
      </trkpt>
      <trkpt lat="59.340342" lon="17.760678">
        <ele>28.2</ele>
        <time>2015-05-05T18:55:40Z</time>
      </trkpt>
      <trkpt lat="59.340424" lon="17.760823">
        <ele>27.5</ele>
        <time>2015-05-05T18:55:41Z</time>
      </trkpt>
      <trkpt lat="59.340508" lon="17.76096">
        <ele>26.9</ele>
        <time>2015-05-05T18:55:42Z</time>
      </trkpt>
      <trkpt lat="59.340597" lon="17.761077">
        <ele>26.3</ele>
        <time>2015-05-05T18:55:43Z</time>
      </trkpt>
      <trkpt lat="59.340704" lon="17.761176">
        <ele>25.5</ele>
        <time>2015-05-05T18:55:44Z</time>
      </trkpt>
      <trkpt lat="59.340827" lon="17.761268">
        <ele>24.5</ele>
        <time>2015-05-05T18:55:45Z</time>
      </trkpt>
      <trkpt lat="59.340939" lon="17.761325">
        <ele>23.6</ele>
        <time>2015-05-05T18:55:46Z</time>
      </trkpt>
      <trkpt lat="59.341067" lon="17.761396">
        <ele>22.5</ele>
        <time>2015-05-05T18:55:47Z</time>
      </trkpt>
      <trkpt lat="59.341191" lon="17.761467">
        <ele>21.4</ele>
        <time>2015-05-05T18:55:48Z</time>
      </trkpt>
      <trkpt lat="59.341324" lon="17.76155">
        <ele>19.9</ele>
        <time>2015-05-05T18:55:49Z</time>
      </trkpt>
      <trkpt lat="59.341444" lon="17.761639">
        <ele>18.6</ele>
        <time>2015-05-05T18:55:50Z</time>
      </trkpt>
      <trkpt lat="59.341573" lon="17.761738">
        <ele>17.2</ele>
        <time>2015-05-05T18:55:51Z</time>
      </trkpt>
      <trkpt lat="59.341691" lon="17.76184">
        <ele>16.1</ele>
        <time>2015-05-05T18:55:52Z</time>
      </trkpt>
      <trkpt lat="59.341806" lon="17.761957">
        <ele>15</ele>
        <time>2015-05-05T18:55:53Z</time>
      </trkpt>
      <trkpt lat="59.341913" lon="17.762065">
        <ele>14.1</ele>
        <time>2015-05-05T18:55:54Z</time>
      </trkpt>
      <trkpt lat="59.34202" lon="17.762167">
        <ele>13.5</ele>
        <time>2015-05-05T18:55:55Z</time>
      </trkpt>
      <trkpt lat="59.342129" lon="17.762271">
        <ele>13.1</ele>
        <time>2015-05-05T18:55:56Z</time>
      </trkpt>
      <trkpt lat="59.34223" lon="17.762369">
        <ele>12.9</ele>
        <time>2015-05-05T18:55:57Z</time>
      </trkpt>
      <trkpt lat="59.342349" lon="17.762468">
        <ele>12.7</ele>
        <time>2015-05-05T18:55:58Z</time>
      </trkpt>
      <trkpt lat="59.342452" lon="17.76256">
        <ele>12.4</ele>
        <time>2015-05-05T18:55:59Z</time>
      </trkpt>
      <trkpt lat="59.34255" lon="17.76265">
        <ele>12.2</ele>
        <time>2015-05-05T18:56:00Z</time>
      </trkpt>
      <trkpt lat="59.342655" lon="17.762749">
        <ele>11.9</ele>
        <time>2015-05-05T18:56:01Z</time>
      </trkpt>
      <trkpt lat="59.342758" lon="17.762834">
        <ele>11.6</ele>
        <time>2015-05-05T18:56:02Z</time>
      </trkpt>
      <trkpt lat="59.342854" lon="17.762933">
        <ele>11.2</ele>
        <time>2015-05-05T18:56:03Z</time>
      </trkpt>
      <trkpt lat="59.342955" lon="17.763038">
        <ele>11.2</ele>
        <time>2015-05-05T18:56:04Z</time>
      </trkpt>
      <trkpt lat="59.343056" lon="17.763124">
        <ele>11.3</ele>
        <time>2015-05-05T18:56:05Z</time>
      </trkpt>
      <trkpt lat="59.343181" lon="17.763224">
        <ele>11.5</ele>
        <time>2015-05-05T18:56:06Z</time>
      </trkpt>
      <trkpt lat="59.343277" lon="17.763331">
        <ele>11.5</ele>
        <time>2015-05-05T18:56:07Z</time>
      </trkpt>
      <trkpt lat="59.343375" lon="17.763441">
        <ele>11.5</ele>
        <time>2015-05-05T18:56:08Z</time>
      </trkpt>
      <trkpt lat="59.343471" lon="17.763542">
        <ele>11.4</ele>
        <time>2015-05-05T18:56:09Z</time>
      </trkpt>
      <trkpt lat="59.343571" lon="17.763623">
        <ele>11.3</ele>
        <time>2015-05-05T18:56:10Z</time>
      </trkpt>
      <trkpt lat="59.343671" lon="17.763712">
        <ele>11.1</ele>
        <time>2015-05-05T18:56:11Z</time>
      </trkpt>
      <trkpt lat="59.343764" lon="17.763768">
        <ele>11</ele>
        <time>2015-05-05T18:56:12Z</time>
      </trkpt>
      <trkpt lat="59.343863" lon="17.763849">
        <ele>11.4</ele>
        <time>2015-05-05T18:56:13Z</time>
      </trkpt>
      <trkpt lat="59.343949" lon="17.763876">
        <ele>11.8</ele>
        <time>2015-05-05T18:56:14Z</time>
      </trkpt>
      <trkpt lat="59.344017" lon="17.763936">
        <ele>12</ele>
        <time>2015-05-05T18:56:15Z</time>
      </trkpt>
      <trkpt lat="59.344116" lon="17.764031">
        <ele>12.3</ele>
        <time>2015-05-05T18:56:16Z</time>
      </trkpt>
      <trkpt lat="59.3442" lon="17.764117">
        <ele>12.5</ele>
        <time>2015-05-05T18:56:17Z</time>
      </trkpt>
      <trkpt lat="59.344292" lon="17.764211">
        <ele>12.7</ele>
        <time>2015-05-05T18:56:18Z</time>
      </trkpt>
      <trkpt lat="59.344378" lon="17.76428">
        <ele>12.9</ele>
        <time>2015-05-05T18:56:19Z</time>
      </trkpt>
      <trkpt lat="59.344461" lon="17.764342">
        <ele>13.1</ele>
        <time>2015-05-05T18:56:20Z</time>
      </trkpt>
      <trkpt lat="59.344551" lon="17.764399">
        <ele>13.3</ele>
        <time>2015-05-05T18:56:21Z</time>
      </trkpt>
      <trkpt lat="59.344595" lon="17.764425">
        <ele>13.5</ele>
        <time>2015-05-05T18:56:22Z</time>
      </trkpt>
      <trkpt lat="59.344669" lon="17.764465">
        <ele>14.3</ele>
        <time>2015-05-05T18:56:23Z</time>
      </trkpt>
      <trkpt lat="59.344751" lon="17.764526">
        <ele>15.1</ele>
        <time>2015-05-05T18:56:24Z</time>
      </trkpt>
      <trkpt lat="59.344832" lon="17.764547">
        <ele>16.1</ele>
        <time>2015-05-05T18:56:25Z</time>
      </trkpt>
      <trkpt lat="59.344909" lon="17.764603">
        <ele>16.9</ele>
        <time>2015-05-05T18:56:26Z</time>
      </trkpt>
      <trkpt lat="59.344986" lon="17.764631">
        <ele>17.7</ele>
        <time>2015-05-05T18:56:27Z</time>
      </trkpt>
      <trkpt lat="59.345049" lon="17.764663">
        <ele>18.4</ele>
        <time>2015-05-05T18:56:28Z</time>
      </trkpt>
      <trkpt lat="59.345123" lon="17.764681">
        <ele>19.2</ele>
        <time>2015-05-05T18:56:29Z</time>
      </trkpt>
      <trkpt lat="59.345187" lon="17.764679">
        <ele>20</ele>
        <time>2015-05-05T18:56:30Z</time>
      </trkpt>
      <trkpt lat="59.34526" lon="17.764691">
        <ele>20.9</ele>
        <time>2015-05-05T18:56:31Z</time>
      </trkpt>
      <trkpt lat="59.345333" lon="17.764691">
        <ele>21.7</ele>
        <time>2015-05-05T18:56:32Z</time>
      </trkpt>
      <trkpt lat="59.345418" lon="17.764674">
        <ele>22.8</ele>
        <time>2015-05-05T18:56:33Z</time>
      </trkpt>
      <trkpt lat="59.345492" lon="17.764669">
        <ele>22.8</ele>
        <time>2015-05-05T18:56:34Z</time>
      </trkpt>
      <trkpt lat="59.345547" lon="17.764614">
        <ele>22.9</ele>
        <time>2015-05-05T18:56:35Z</time>
      </trkpt>
      <trkpt lat="59.345624" lon="17.76461">
        <ele>22.9</ele>
        <time>2015-05-05T18:56:36Z</time>
      </trkpt>
      <trkpt lat="59.34569" lon="17.764574">
        <ele>23</ele>
        <time>2015-05-05T18:56:37Z</time>
      </trkpt>
      <trkpt lat="59.34577" lon="17.764541">
        <ele>23.1</ele>
        <time>2015-05-05T18:56:38Z</time>
      </trkpt>
      <trkpt lat="59.34585" lon="17.764515">
        <ele>23.1</ele>
        <time>2015-05-05T18:56:39Z</time>
      </trkpt>
      <trkpt lat="59.34593" lon="17.764478">
        <ele>23.2</ele>
        <time>2015-05-05T18:56:40Z</time>
      </trkpt>
      <trkpt lat="59.346018" lon="17.764451">
        <ele>23.2</ele>
        <time>2015-05-05T18:56:41Z</time>
      </trkpt>
      <trkpt lat="59.346101" lon="17.764418">
        <ele>23.2</ele>
        <time>2015-05-05T18:56:42Z</time>
      </trkpt>
      <trkpt lat="59.346197" lon="17.764384">
        <ele>23.3</ele>
        <time>2015-05-05T18:56:43Z</time>
      </trkpt>
      <trkpt lat="59.346292" lon="17.764345">
        <ele>23.1</ele>
        <time>2015-05-05T18:56:44Z</time>
      </trkpt>
      <trkpt lat="59.346384" lon="17.764267">
        <ele>22.9</ele>
        <time>2015-05-05T18:56:45Z</time>
      </trkpt>
      <trkpt lat="59.346472" lon="17.764221">
        <ele>22.6</ele>
        <time>2015-05-05T18:56:46Z</time>
      </trkpt>
      <trkpt lat="59.346568" lon="17.764178">
        <ele>22.2</ele>
        <time>2015-05-05T18:56:47Z</time>
      </trkpt>
      <trkpt lat="59.34666" lon="17.764134">
        <ele>21.8</ele>
        <time>2015-05-05T18:56:48Z</time>
      </trkpt>
      <trkpt lat="59.346748" lon="17.764074">
        <ele>21.3</ele>
        <time>2015-05-05T18:56:49Z</time>
      </trkpt>
      <trkpt lat="59.346838" lon="17.76402">
        <ele>20.8</ele>
        <time>2015-05-05T18:56:50Z</time>
      </trkpt>
      <trkpt lat="59.346926" lon="17.763984">
        <ele>20.3</ele>
        <time>2015-05-05T18:56:51Z</time>
      </trkpt>
      <trkpt lat="59.347005" lon="17.763924">
        <ele>19.8</ele>
        <time>2015-05-05T18:56:52Z</time>
      </trkpt>
      <trkpt lat="59.347091" lon="17.763881">
        <ele>19.3</ele>
        <time>2015-05-05T18:56:53Z</time>
      </trkpt>
      <trkpt lat="59.347181" lon="17.763831">
        <ele>19.4</ele>
        <time>2015-05-05T18:56:54Z</time>
      </trkpt>
      <trkpt lat="59.347269" lon="17.76378">
        <ele>19.5</ele>
        <time>2015-05-05T18:56:55Z</time>
      </trkpt>
      <trkpt lat="59.347356" lon="17.763729">
        <ele>19.7</ele>
        <time>2015-05-05T18:56:56Z</time>
      </trkpt>
      <trkpt lat="59.347426" lon="17.763669">
        <ele>20</ele>
        <time>2015-05-05T18:56:57Z</time>
      </trkpt>
      <trkpt lat="59.347513" lon="17.763612">
        <ele>20.2</ele>
        <time>2015-05-05T18:56:58Z</time>
      </trkpt>
      <trkpt lat="59.347608" lon="17.763559">
        <ele>20.4</ele>
        <time>2015-05-05T18:56:59Z</time>
      </trkpt>
      <trkpt lat="59.347676" lon="17.763518">
        <ele>20.5</ele>
        <time>2015-05-05T18:57:00Z</time>
      </trkpt>
      <trkpt lat="59.347759" lon="17.763461">
        <ele>20.5</ele>
        <time>2015-05-05T18:57:01Z</time>
      </trkpt>
      <trkpt lat="59.34784" lon="17.763392">
        <ele>20.5</ele>
        <time>2015-05-05T18:57:02Z</time>
      </trkpt>
      <trkpt lat="59.347916" lon="17.763296">
        <ele>20.5</ele>
        <time>2015-05-05T18:57:03Z</time>
      </trkpt>
      <trkpt lat="59.34801" lon="17.763223">
        <ele>20.3</ele>
        <time>2015-05-05T18:57:04Z</time>
      </trkpt>
      <trkpt lat="59.348094" lon="17.763145">
        <ele>20.2</ele>
        <time>2015-05-05T18:57:05Z</time>
      </trkpt>
      <trkpt lat="59.348184" lon="17.763075">
        <ele>20</ele>
        <time>2015-05-05T18:57:06Z</time>
      </trkpt>
      <trkpt lat="59.348277" lon="17.762985">
        <ele>19.7</ele>
        <time>2015-05-05T18:57:07Z</time>
      </trkpt>
      <trkpt lat="59.348361" lon="17.762908">
        <ele>19.5</ele>
        <time>2015-05-05T18:57:08Z</time>
      </trkpt>
      <trkpt lat="59.34841" lon="17.762832">
        <ele>19.3</ele>
        <time>2015-05-05T18:57:09Z</time>
      </trkpt>
      <trkpt lat="59.348442" lon="17.762713">
        <ele>19.1</ele>
        <time>2015-05-05T18:57:10Z</time>
      </trkpt>
      <trkpt lat="59.348478" lon="17.762586">
        <ele>18.8</ele>
        <time>2015-05-05T18:57:11Z</time>
      </trkpt>
      <trkpt lat="59.348461" lon="17.762433">
        <ele>18.6</ele>
        <time>2015-05-05T18:57:12Z</time>
      </trkpt>
      <trkpt lat="59.348432" lon="17.762275">
        <ele>18.4</ele>
        <time>2015-05-05T18:57:13Z</time>
      </trkpt>
      <trkpt lat="59.348403" lon="17.762097">
        <ele>18.3</ele>
        <time>2015-05-05T18:57:14Z</time>
      </trkpt>
      <trkpt lat="59.348379" lon="17.761913">
        <ele>18.4</ele>
        <time>2015-05-05T18:57:15Z</time>
      </trkpt>
      <trkpt lat="59.348337" lon="17.761735">
        <ele>18.7</ele>
        <time>2015-05-05T18:57:16Z</time>
      </trkpt>
      <trkpt lat="59.348316" lon="17.761562">
        <ele>18.9</ele>
        <time>2015-05-05T18:57:17Z</time>
      </trkpt>
      <trkpt lat="59.348296" lon="17.761393">
        <ele>19.2</ele>
        <time>2015-05-05T18:57:18Z</time>
      </trkpt>
      <trkpt lat="59.348269" lon="17.76121">
        <ele>19.5</ele>
        <time>2015-05-05T18:57:19Z</time>
      </trkpt>
      <trkpt lat="59.348243" lon="17.761039">
        <ele>20</ele>
        <time>2015-05-05T18:57:20Z</time>
      </trkpt>
      <trkpt lat="59.348208" lon="17.76087">
        <ele>20.5</ele>
        <time>2015-05-05T18:57:21Z</time>
      </trkpt>
      <trkpt lat="59.348178" lon="17.760686">
        <ele>21</ele>
        <time>2015-05-05T18:57:22Z</time>
      </trkpt>
      <trkpt lat="59.348136" lon="17.760492">
        <ele>21.8</ele>
        <time>2015-05-05T18:57:23Z</time>
      </trkpt>
      <trkpt lat="59.34812" lon="17.760302">
        <ele>22.1</ele>
        <time>2015-05-05T18:57:24Z</time>
      </trkpt>
      <trkpt lat="59.348093" lon="17.760121">
        <ele>22.5</ele>
        <time>2015-05-05T18:57:25Z</time>
      </trkpt>
      <trkpt lat="59.348076" lon="17.759917">
        <ele>22.8</ele>
        <time>2015-05-05T18:57:26Z</time>
      </trkpt>
      <trkpt lat="59.348046" lon="17.759725">
        <ele>23.3</ele>
        <time>2015-05-05T18:57:27Z</time>
      </trkpt>
      <trkpt lat="59.348028" lon="17.759548">
        <ele>23.7</ele>
        <time>2015-05-05T18:57:28Z</time>
      </trkpt>
      <trkpt lat="59.348009" lon="17.75935">
        <ele>23.9</ele>
        <time>2015-05-05T18:57:29Z</time>
      </trkpt>
      <trkpt lat="59.347995" lon="17.759152">
        <ele>24</ele>
        <time>2015-05-05T18:57:30Z</time>
      </trkpt>
      <trkpt lat="59.347985" lon="17.758958">
        <ele>24.1</ele>
        <time>2015-05-05T18:57:31Z</time>
      </trkpt>
      <trkpt lat="59.347969" lon="17.75875">
        <ele>24.3</ele>
        <time>2015-05-05T18:57:32Z</time>
      </trkpt>
      <trkpt lat="59.347964" lon="17.758556">
        <ele>25.3</ele>
        <time>2015-05-05T18:57:33Z</time>
      </trkpt>
      <trkpt lat="59.347951" lon="17.758344">
        <ele>26.4</ele>
        <time>2015-05-05T18:57:34Z</time>
      </trkpt>
      <trkpt lat="59.347948" lon="17.758122">
        <ele>27.5</ele>
        <time>2015-05-05T18:57:35Z</time>
      </trkpt>
      <trkpt lat="59.347953" lon="17.757904">
        <ele>28.4</ele>
        <time>2015-05-05T18:57:36Z</time>
      </trkpt>
      <trkpt lat="59.347967" lon="17.757649">
        <ele>29.3</ele>
        <time>2015-05-05T18:57:37Z</time>
      </trkpt>
      <trkpt lat="59.347971" lon="17.757417">
        <ele>30.3</ele>
        <time>2015-05-05T18:57:38Z</time>
      </trkpt>
      <trkpt lat="59.347973" lon="17.757198">
        <ele>31.2</ele>
        <time>2015-05-05T18:57:39Z</time>
      </trkpt>
      <trkpt lat="59.347989" lon="17.756974">
        <ele>31.6</ele>
        <time>2015-05-05T18:57:40Z</time>
      </trkpt>
      <trkpt lat="59.348003" lon="17.756742">
        <ele>31.8</ele>
        <time>2015-05-05T18:57:41Z</time>
      </trkpt>
      <trkpt lat="59.348009" lon="17.756485">
        <ele>32.3</ele>
        <time>2015-05-05T18:57:42Z</time>
      </trkpt>
      <trkpt lat="59.348023" lon="17.756244">
        <ele>32.5</ele>
        <time>2015-05-05T18:57:43Z</time>
      </trkpt>
      <trkpt lat="59.348032" lon="17.756014">
        <ele>32.7</ele>
        <time>2015-05-05T18:57:44Z</time>
      </trkpt>
      <trkpt lat="59.348043" lon="17.755793">
        <ele>32.9</ele>
        <time>2015-05-05T18:57:45Z</time>
      </trkpt>
      <trkpt lat="59.348058" lon="17.75556">
        <ele>33</ele>
        <time>2015-05-05T18:57:46Z</time>
      </trkpt>
      <trkpt lat="59.348072" lon="17.755341">
        <ele>32.8</ele>
        <time>2015-05-05T18:57:47Z</time>
      </trkpt>
      <trkpt lat="59.348079" lon="17.755085">
        <ele>32.4</ele>
        <time>2015-05-05T18:57:48Z</time>
      </trkpt>
      <trkpt lat="59.348085" lon="17.754826">
        <ele>32</ele>
        <time>2015-05-05T18:57:49Z</time>
      </trkpt>
      <trkpt lat="59.348084" lon="17.754571">
        <ele>31.8</ele>
        <time>2015-05-05T18:57:50Z</time>
      </trkpt>
      <trkpt lat="59.348094" lon="17.754344">
        <ele>31.5</ele>
        <time>2015-05-05T18:57:51Z</time>
      </trkpt>
      <trkpt lat="59.348107" lon="17.754103">
        <ele>31.2</ele>
        <time>2015-05-05T18:57:52Z</time>
      </trkpt>
      <trkpt lat="59.348126" lon="17.75387">
        <ele>30.7</ele>
        <time>2015-05-05T18:57:53Z</time>
      </trkpt>
      <trkpt lat="59.34814" lon="17.753646">
        <ele>29.8</ele>
        <time>2015-05-05T18:57:54Z</time>
      </trkpt>
      <trkpt lat="59.348155" lon="17.753423">
        <ele>28.4</ele>
        <time>2015-05-05T18:57:55Z</time>
      </trkpt>
      <trkpt lat="59.348155" lon="17.75319">
        <ele>27.2</ele>
        <time>2015-05-05T18:57:56Z</time>
      </trkpt>
      <trkpt lat="59.348166" lon="17.752954">
        <ele>25.8</ele>
        <time>2015-05-05T18:57:57Z</time>
      </trkpt>
      <trkpt lat="59.348158" lon="17.752727">
        <ele>24.8</ele>
        <time>2015-05-05T18:57:58Z</time>
      </trkpt>
      <trkpt lat="59.348152" lon="17.752483">
        <ele>23.8</ele>
        <time>2015-05-05T18:57:59Z</time>
      </trkpt>
      <trkpt lat="59.348138" lon="17.752244">
        <ele>22.8</ele>
        <time>2015-05-05T18:58:00Z</time>
      </trkpt>
      <trkpt lat="59.348112" lon="17.751998">
        <ele>21.7</ele>
        <time>2015-05-05T18:58:01Z</time>
      </trkpt>
      <trkpt lat="59.348082" lon="17.751755">
        <ele>20</ele>
        <time>2015-05-05T18:58:02Z</time>
      </trkpt>
      <trkpt lat="59.348036" lon="17.751539">
        <ele>18.6</ele>
        <time>2015-05-05T18:58:03Z</time>
      </trkpt>
      <trkpt lat="59.347989" lon="17.751272">
        <ele>16.5</ele>
        <time>2015-05-05T18:58:04Z</time>
      </trkpt>
      <trkpt lat="59.347938" lon="17.751065">
        <ele>15.1</ele>
        <time>2015-05-05T18:58:05Z</time>
      </trkpt>
      <trkpt lat="59.347888" lon="17.750849">
        <ele>13.1</ele>
        <time>2015-05-05T18:58:06Z</time>
      </trkpt>
      <trkpt lat="59.347831" lon="17.75062">
        <ele>10.9</ele>
        <time>2015-05-05T18:58:07Z</time>
      </trkpt>
      <trkpt lat="59.34778" lon="17.7504">
        <ele>9</ele>
        <time>2015-05-05T18:58:08Z</time>
      </trkpt>
      <trkpt lat="59.347755" lon="17.750177">
        <ele>8.5</ele>
        <time>2015-05-05T18:58:09Z</time>
      </trkpt>
      <trkpt lat="59.347743" lon="17.749947">
        <ele>8.1</ele>
        <time>2015-05-05T18:58:10Z</time>
      </trkpt>
      <trkpt lat="59.347738" lon="17.74971">
        <ele>7.7</ele>
        <time>2015-05-05T18:58:11Z</time>
      </trkpt>
      <trkpt lat="59.347735" lon="17.74947">
        <ele>7.3</ele>
        <time>2015-05-05T18:58:12Z</time>
      </trkpt>
      <trkpt lat="59.34773" lon="17.749248">
        <ele>7.1</ele>
        <time>2015-05-05T18:58:13Z</time>
      </trkpt>
      <trkpt lat="59.347737" lon="17.749021">
        <ele>6.9</ele>
        <time>2015-05-05T18:58:14Z</time>
      </trkpt>
      <trkpt lat="59.34773" lon="17.748757">
        <ele>6.7</ele>
        <time>2015-05-05T18:58:15Z</time>
      </trkpt>
      <trkpt lat="59.347752" lon="17.74853">
        <ele>6.5</ele>
        <time>2015-05-05T18:58:16Z</time>
      </trkpt>
      <trkpt lat="59.347779" lon="17.748307">
        <ele>6.3</ele>
        <time>2015-05-05T18:58:17Z</time>
      </trkpt>
      <trkpt lat="59.347808" lon="17.748078">
        <ele>6.2</ele>
        <time>2015-05-05T18:58:18Z</time>
      </trkpt>
      <trkpt lat="59.347837" lon="17.747851">
        <ele>6.1</ele>
        <time>2015-05-05T18:58:19Z</time>
      </trkpt>
      <trkpt lat="59.347864" lon="17.747629">
        <ele>6</ele>
        <time>2015-05-05T18:58:20Z</time>
      </trkpt>
      <trkpt lat="59.347912" lon="17.747407">
        <ele>6</ele>
        <time>2015-05-05T18:58:21Z</time>
      </trkpt>
      <trkpt lat="59.34794" lon="17.747174">
        <ele>6</ele>
        <time>2015-05-05T18:58:22Z</time>
      </trkpt>
      <trkpt lat="59.34797" lon="17.746959">
        <ele>6.1</ele>
        <time>2015-05-05T18:58:23Z</time>
      </trkpt>
      <trkpt lat="59.348002" lon="17.746742">
        <ele>6.4</ele>
        <time>2015-05-05T18:58:24Z</time>
      </trkpt>
      <trkpt lat="59.348035" lon="17.746527">
        <ele>6.7</ele>
        <time>2015-05-05T18:58:25Z</time>
      </trkpt>
      <trkpt lat="59.348063" lon="17.746295">
        <ele>6.9</ele>
        <time>2015-05-05T18:58:26Z</time>
      </trkpt>
      <trkpt lat="59.348092" lon="17.74608">
        <ele>7.2</ele>
        <time>2015-05-05T18:58:27Z</time>
      </trkpt>
      <trkpt lat="59.348114" lon="17.74587">
        <ele>7.3</ele>
        <time>2015-05-05T18:58:28Z</time>
      </trkpt>
      <trkpt lat="59.34813" lon="17.745651">
        <ele>7.5</ele>
        <time>2015-05-05T18:58:29Z</time>
      </trkpt>
      <trkpt lat="59.34814" lon="17.745433">
        <ele>7.7</ele>
        <time>2015-05-05T18:58:30Z</time>
      </trkpt>
      <trkpt lat="59.348148" lon="17.745211">
        <ele>7.5</ele>
        <time>2015-05-05T18:58:31Z</time>
      </trkpt>
      <trkpt lat="59.348153" lon="17.744996">
        <ele>7.2</ele>
        <time>2015-05-05T18:58:32Z</time>
      </trkpt>
      <trkpt lat="59.348152" lon="17.744781">
        <ele>7</ele>
        <time>2015-05-05T18:58:33Z</time>
      </trkpt>
      <trkpt lat="59.348155" lon="17.744567">
        <ele>6.7</ele>
        <time>2015-05-05T18:58:34Z</time>
      </trkpt>
      <trkpt lat="59.348158" lon="17.74434">
        <ele>6.5</ele>
        <time>2015-05-05T18:58:35Z</time>
      </trkpt>
      <trkpt lat="59.348159" lon="17.744122">
        <ele>6.3</ele>
        <time>2015-05-05T18:58:36Z</time>
      </trkpt>
      <trkpt lat="59.348166" lon="17.74391">
        <ele>6.1</ele>
        <time>2015-05-05T18:58:37Z</time>
      </trkpt>
      <trkpt lat="59.348175" lon="17.743693">
        <ele>6.1</ele>
        <time>2015-05-05T18:58:38Z</time>
      </trkpt>
      <trkpt lat="59.348173" lon="17.743457">
        <ele>6.4</ele>
        <time>2015-05-05T18:58:39Z</time>
      </trkpt>
      <trkpt lat="59.348182" lon="17.743204">
        <ele>6.7</ele>
        <time>2015-05-05T18:58:40Z</time>
      </trkpt>
      <trkpt lat="59.348189" lon="17.742987">
        <ele>6.9</ele>
        <time>2015-05-05T18:58:41Z</time>
      </trkpt>
      <trkpt lat="59.348196" lon="17.742766">
        <ele>7.2</ele>
        <time>2015-05-05T18:58:42Z</time>
      </trkpt>
      <trkpt lat="59.348212" lon="17.742517">
        <ele>7.5</ele>
        <time>2015-05-05T18:58:43Z</time>
      </trkpt>
      <trkpt lat="59.348223" lon="17.742293">
        <ele>7.7</ele>
        <time>2015-05-05T18:58:44Z</time>
      </trkpt>
      <trkpt lat="59.34824" lon="17.742057">
        <ele>8</ele>
        <time>2015-05-05T18:58:45Z</time>
      </trkpt>
      <trkpt lat="59.348257" lon="17.741815">
        <ele>8.1</ele>
        <time>2015-05-05T18:58:46Z</time>
      </trkpt>
      <trkpt lat="59.348277" lon="17.74159">
        <ele>8.1</ele>
        <time>2015-05-05T18:58:47Z</time>
      </trkpt>
      <trkpt lat="59.348291" lon="17.741378">
        <ele>8.1</ele>
        <time>2015-05-05T18:58:48Z</time>
      </trkpt>
      <trkpt lat="59.3483" lon="17.741173">
        <ele>8.1</ele>
        <time>2015-05-05T18:58:49Z</time>
      </trkpt>
      <trkpt lat="59.348311" lon="17.740982">
        <ele>8.2</ele>
        <time>2015-05-05T18:58:50Z</time>
      </trkpt>
      <trkpt lat="59.348321" lon="17.740784">
        <ele>8.3</ele>
        <time>2015-05-05T18:58:51Z</time>
      </trkpt>
      <trkpt lat="59.348328" lon="17.740609">
        <ele>8.4</ele>
        <time>2015-05-05T18:58:52Z</time>
      </trkpt>
      <trkpt lat="59.34834" lon="17.740442">
        <ele>8.5</ele>
        <time>2015-05-05T18:58:53Z</time>
      </trkpt>
      <trkpt lat="59.348362" lon="17.740284">
        <ele>8.2</ele>
        <time>2015-05-05T18:58:54Z</time>
      </trkpt>
      <trkpt lat="59.348407" lon="17.740151">
        <ele>7.9</ele>
        <time>2015-05-05T18:58:55Z</time>
      </trkpt>
      <trkpt lat="59.348477" lon="17.740054">
        <ele>7.5</ele>
        <time>2015-05-05T18:58:56Z</time>
      </trkpt>
      <trkpt lat="59.348565" lon="17.74002">
        <ele>7.2</ele>
        <time>2015-05-05T18:58:57Z</time>
      </trkpt>
      <trkpt lat="59.348655" lon="17.740032">
        <ele>6.9</ele>
        <time>2015-05-05T18:58:58Z</time>
      </trkpt>
      <trkpt lat="59.348748" lon="17.740073">
        <ele>6.6</ele>
        <time>2015-05-05T18:58:59Z</time>
      </trkpt>
      <trkpt lat="59.348842" lon="17.740111">
        <ele>6.4</ele>
        <time>2015-05-05T18:59:00Z</time>
      </trkpt>
      <trkpt lat="59.348943" lon="17.740142">
        <ele>6.2</ele>
        <time>2015-05-05T18:59:01Z</time>
      </trkpt>
      <trkpt lat="59.349057" lon="17.740155">
        <ele>5.9</ele>
        <time>2015-05-05T18:59:02Z</time>
      </trkpt>
      <trkpt lat="59.349171" lon="17.740158">
        <ele>5.7</ele>
        <time>2015-05-05T18:59:03Z</time>
      </trkpt>
      <trkpt lat="59.349283" lon="17.740176">
        <ele>5.4</ele>
        <time>2015-05-05T18:59:04Z</time>
      </trkpt>
      <trkpt lat="59.349395" lon="17.740211">
        <ele>5.2</ele>
        <time>2015-05-05T18:59:05Z</time>
      </trkpt>
      <trkpt lat="59.349504" lon="17.740225">
        <ele>5</ele>
        <time>2015-05-05T18:59:06Z</time>
      </trkpt>
      <trkpt lat="59.349608" lon="17.740243">
        <ele>4.8</ele>
        <time>2015-05-05T18:59:07Z</time>
      </trkpt>
      <trkpt lat="59.349713" lon="17.740266">
        <ele>4.7</ele>
        <time>2015-05-05T18:59:08Z</time>
      </trkpt>
      <trkpt lat="59.349819" lon="17.740279">
        <ele>4.6</ele>
        <time>2015-05-05T18:59:09Z</time>
      </trkpt>
      <trkpt lat="59.349928" lon="17.740262">
        <ele>4.5</ele>
        <time>2015-05-05T18:59:10Z</time>
      </trkpt>
      <trkpt lat="59.350036" lon="17.740283">
        <ele>4.4</ele>
        <time>2015-05-05T18:59:11Z</time>
      </trkpt>
      <trkpt lat="59.35016" lon="17.7403">
        <ele>4.3</ele>
        <time>2015-05-05T18:59:12Z</time>
      </trkpt>
      <trkpt lat="59.350252" lon="17.740291">
        <ele>4.2</ele>
        <time>2015-05-05T18:59:13Z</time>
      </trkpt>
      <trkpt lat="59.350359" lon="17.740293">
        <ele>4.1</ele>
        <time>2015-05-05T18:59:14Z</time>
      </trkpt>
      <trkpt lat="59.350464" lon="17.740274">
        <ele>4</ele>
        <time>2015-05-05T18:59:15Z</time>
      </trkpt>
      <trkpt lat="59.350574" lon="17.74027">
        <ele>4</ele>
        <time>2015-05-05T18:59:16Z</time>
      </trkpt>
      <trkpt lat="59.350678" lon="17.740247">
        <ele>4</ele>
        <time>2015-05-05T18:59:17Z</time>
      </trkpt>
      <trkpt lat="59.350799" lon="17.740232">
        <ele>4</ele>
        <time>2015-05-05T18:59:18Z</time>
      </trkpt>
      <trkpt lat="59.350915" lon="17.7402">
        <ele>4</ele>
        <time>2015-05-05T18:59:19Z</time>
      </trkpt>
      <trkpt lat="59.351025" lon="17.740169">
        <ele>4</ele>
        <time>2015-05-05T18:59:20Z</time>
      </trkpt>
      <trkpt lat="59.351148" lon="17.740141">
        <ele>4</ele>
        <time>2015-05-05T18:59:21Z</time>
      </trkpt>
      <trkpt lat="59.351263" lon="17.740103">
        <ele>4</ele>
        <time>2015-05-05T18:59:22Z</time>
      </trkpt>
      <trkpt lat="59.351373" lon="17.740057">
        <ele>4</ele>
        <time>2015-05-05T18:59:23Z</time>
      </trkpt>
      <trkpt lat="59.351485" lon="17.740002">
        <ele>4</ele>
        <time>2015-05-05T18:59:24Z</time>
      </trkpt>
      <trkpt lat="59.351597" lon="17.739956">
        <ele>4</ele>
        <time>2015-05-05T18:59:25Z</time>
      </trkpt>
      <trkpt lat="59.351699" lon="17.739905">
        <ele>4</ele>
        <time>2015-05-05T18:59:26Z</time>
      </trkpt>
      <trkpt lat="59.351811" lon="17.73985">
        <ele>4</ele>
        <time>2015-05-05T18:59:27Z</time>
      </trkpt>
      <trkpt lat="59.351923" lon="17.739808">
        <ele>4</ele>
        <time>2015-05-05T18:59:28Z</time>
      </trkpt>
      <trkpt lat="59.352033" lon="17.739764">
        <ele>4</ele>
        <time>2015-05-05T18:59:29Z</time>
      </trkpt>
      <trkpt lat="59.352143" lon="17.739714">
        <ele>4</ele>
        <time>2015-05-05T18:59:30Z</time>
      </trkpt>
      <trkpt lat="59.352249" lon="17.739676">
        <ele>4</ele>
        <time>2015-05-05T18:59:31Z</time>
      </trkpt>
      <trkpt lat="59.352361" lon="17.739638">
        <ele>4</ele>
        <time>2015-05-05T18:59:32Z</time>
      </trkpt>
      <trkpt lat="59.352465" lon="17.739594">
        <ele>4</ele>
        <time>2015-05-05T18:59:33Z</time>
      </trkpt>
      <trkpt lat="59.352575" lon="17.739546">
        <ele>4</ele>
        <time>2015-05-05T18:59:34Z</time>
      </trkpt>
      <trkpt lat="59.352683" lon="17.739512">
        <ele>4</ele>
        <time>2015-05-05T18:59:35Z</time>
      </trkpt>
      <trkpt lat="59.352788" lon="17.739469">
        <ele>4</ele>
        <time>2015-05-05T18:59:36Z</time>
      </trkpt>
      <trkpt lat="59.352891" lon="17.739425">
        <ele>4</ele>
        <time>2015-05-05T18:59:37Z</time>
      </trkpt>
      <trkpt lat="59.353001" lon="17.739383">
        <ele>4.1</ele>
        <time>2015-05-05T18:59:38Z</time>
      </trkpt>
      <trkpt lat="59.353104" lon="17.739333">
        <ele>4.2</ele>
        <time>2015-05-05T18:59:39Z</time>
      </trkpt>
      <trkpt lat="59.35321" lon="17.739282">
        <ele>4.2</ele>
        <time>2015-05-05T18:59:40Z</time>
      </trkpt>
      <trkpt lat="59.353307" lon="17.739245">
        <ele>4.3</ele>
        <time>2015-05-05T18:59:41Z</time>
      </trkpt>
      <trkpt lat="59.353412" lon="17.739202">
        <ele>4.3</ele>
        <time>2015-05-05T18:59:42Z</time>
      </trkpt>
      <trkpt lat="59.35352" lon="17.739161">
        <ele>4.4</ele>
        <time>2015-05-05T18:59:43Z</time>
      </trkpt>
      <trkpt lat="59.353627" lon="17.739121">
        <ele>4.4</ele>
        <time>2015-05-05T18:59:44Z</time>
      </trkpt>
      <trkpt lat="59.353732" lon="17.739075">
        <ele>4.4</ele>
        <time>2015-05-05T18:59:45Z</time>
      </trkpt>
      <trkpt lat="59.353845" lon="17.739025">
        <ele>4.8</ele>
        <time>2015-05-05T18:59:46Z</time>
      </trkpt>
      <trkpt lat="59.353953" lon="17.73898">
        <ele>5.3</ele>
        <time>2015-05-05T18:59:47Z</time>
      </trkpt>
      <trkpt lat="59.354063" lon="17.738932">
        <ele>5.7</ele>
        <time>2015-05-05T18:59:48Z</time>
      </trkpt>
      <trkpt lat="59.354168" lon="17.738883">
        <ele>6</ele>
        <time>2015-05-05T18:59:49Z</time>
      </trkpt>
      <trkpt lat="59.354281" lon="17.738845">
        <ele>6.3</ele>
        <time>2015-05-05T18:59:50Z</time>
      </trkpt>
      <trkpt lat="59.354397" lon="17.738802">
        <ele>6.6</ele>
        <time>2015-05-05T18:59:51Z</time>
      </trkpt>
      <trkpt lat="59.354517" lon="17.73876">
        <ele>6.8</ele>
        <time>2015-05-05T18:59:52Z</time>
      </trkpt>
      <trkpt lat="59.354617" lon="17.738722">
        <ele>7</ele>
        <time>2015-05-05T18:59:53Z</time>
      </trkpt>
      <trkpt lat="59.354722" lon="17.73867">
        <ele>7.1</ele>
        <time>2015-05-05T18:59:54Z</time>
      </trkpt>
      <trkpt lat="59.354836" lon="17.738635">
        <ele>7.3</ele>
        <time>2015-05-05T18:59:55Z</time>
      </trkpt>
      <trkpt lat="59.354956" lon="17.73859">
        <ele>7.4</ele>
        <time>2015-05-05T18:59:56Z</time>
      </trkpt>
      <trkpt lat="59.35506" lon="17.73854">
        <ele>7.5</ele>
        <time>2015-05-05T18:59:57Z</time>
      </trkpt>
      <trkpt lat="59.355181" lon="17.738497">
        <ele>7.6</ele>
        <time>2015-05-05T18:59:58Z</time>
      </trkpt>
      <trkpt lat="59.355293" lon="17.738457">
        <ele>7.7</ele>
        <time>2015-05-05T18:59:59Z</time>
      </trkpt>
      <trkpt lat="59.355401" lon="17.738422">
        <ele>7.8</ele>
        <time>2015-05-05T19:00:00Z</time>
      </trkpt>
      <trkpt lat="59.355501" lon="17.738381">
        <ele>7.9</ele>
        <time>2015-05-05T19:00:01Z</time>
      </trkpt>
      <trkpt lat="59.355608" lon="17.738331">
        <ele>8.1</ele>
        <time>2015-05-05T19:00:02Z</time>
      </trkpt>
      <trkpt lat="59.355708" lon="17.738283">
        <ele>8.2</ele>
        <time>2015-05-05T19:00:03Z</time>
      </trkpt>
      <trkpt lat="59.355803" lon="17.738248">
        <ele>8.3</ele>
        <time>2015-05-05T19:00:04Z</time>
      </trkpt>
      <trkpt lat="59.355909" lon="17.738205">
        <ele>8.4</ele>
        <time>2015-05-05T19:00:05Z</time>
      </trkpt>
      <trkpt lat="59.356016" lon="17.738152">
        <ele>8.5</ele>
        <time>2015-05-05T19:00:06Z</time>
      </trkpt>
      <trkpt lat="59.356123" lon="17.7381">
        <ele>8.5</ele>
        <time>2015-05-05T19:00:07Z</time>
      </trkpt>
      <trkpt lat="59.356225" lon="17.738058">
        <ele>8.6</ele>
        <time>2015-05-05T19:00:08Z</time>
      </trkpt>
      <trkpt lat="59.356326" lon="17.73801">
        <ele>8.4</ele>
        <time>2015-05-05T19:00:09Z</time>
      </trkpt>
      <trkpt lat="59.356435" lon="17.737972">
        <ele>8.2</ele>
        <time>2015-05-05T19:00:10Z</time>
      </trkpt>
      <trkpt lat="59.356538" lon="17.737917">
        <ele>8</ele>
        <time>2015-05-05T19:00:11Z</time>
      </trkpt>
      <trkpt lat="59.356652" lon="17.737865">
        <ele>7.9</ele>
        <time>2015-05-05T19:00:12Z</time>
      </trkpt>
      <trkpt lat="59.35676" lon="17.73783">
        <ele>7.8</ele>
        <time>2015-05-05T19:00:13Z</time>
      </trkpt>
      <trkpt lat="59.356864" lon="17.73779">
        <ele>7.8</ele>
        <time>2015-05-05T19:00:14Z</time>
      </trkpt>
      <trkpt lat="59.356969" lon="17.737753">
        <ele>7.7</ele>
        <time>2015-05-05T19:00:15Z</time>
      </trkpt>
      <trkpt lat="59.357074" lon="17.737712">
        <ele>7.7</ele>
        <time>2015-05-05T19:00:16Z</time>
      </trkpt>
      <trkpt lat="59.357189" lon="17.737681">
        <ele>7.8</ele>
        <time>2015-05-05T19:00:17Z</time>
      </trkpt>
      <trkpt lat="59.357295" lon="17.73764">
        <ele>7.8</ele>
        <time>2015-05-05T19:00:18Z</time>
      </trkpt>
      <trkpt lat="59.357398" lon="17.737599">
        <ele>7.8</ele>
        <time>2015-05-05T19:00:19Z</time>
      </trkpt>
      <trkpt lat="59.357504" lon="17.737561">
        <ele>7.8</ele>
        <time>2015-05-05T19:00:20Z</time>
      </trkpt>
      <trkpt lat="59.357604" lon="17.737517">
        <ele>7.8</ele>
        <time>2015-05-05T19:00:21Z</time>
      </trkpt>
      <trkpt lat="59.357706" lon="17.737479">
        <ele>7.9</ele>
        <time>2015-05-05T19:00:22Z</time>
      </trkpt>
      <trkpt lat="59.35781" lon="17.737434">
        <ele>7.9</ele>
        <time>2015-05-05T19:00:23Z</time>
      </trkpt>
      <trkpt lat="59.357908" lon="17.737393">
        <ele>8</ele>
        <time>2015-05-05T19:00:24Z</time>
      </trkpt>
      <trkpt lat="59.358006" lon="17.737353">
        <ele>8.2</ele>
        <time>2015-05-05T19:00:25Z</time>
      </trkpt>
      <trkpt lat="59.358107" lon="17.737303">
        <ele>8.5</ele>
        <time>2015-05-05T19:00:26Z</time>
      </trkpt>
      <trkpt lat="59.358203" lon="17.737267">
        <ele>8.7</ele>
        <time>2015-05-05T19:00:27Z</time>
      </trkpt>
      <trkpt lat="59.3583" lon="17.737236">
        <ele>8.9</ele>
        <time>2015-05-05T19:00:28Z</time>
      </trkpt>
      <trkpt lat="59.358399" lon="17.737195">
        <ele>9.2</ele>
        <time>2015-05-05T19:00:29Z</time>
      </trkpt>
      <trkpt lat="59.358501" lon="17.73716">
        <ele>9.4</ele>
        <time>2015-05-05T19:00:30Z</time>
      </trkpt>
      <trkpt lat="59.358598" lon="17.737127">
        <ele>9.6</ele>
        <time>2015-05-05T19:00:31Z</time>
      </trkpt>
      <trkpt lat="59.35869" lon="17.737089">
        <ele>9.9</ele>
        <time>2015-05-05T19:00:32Z</time>
      </trkpt>
      <trkpt lat="59.358778" lon="17.737048">
        <ele>10.1</ele>
        <time>2015-05-05T19:00:33Z</time>
      </trkpt>
      <trkpt lat="59.35887" lon="17.737009">
        <ele>10.4</ele>
        <time>2015-05-05T19:00:34Z</time>
      </trkpt>
      <trkpt lat="59.358959" lon="17.736976">
        <ele>10.7</ele>
        <time>2015-05-05T19:00:35Z</time>
      </trkpt>
      <trkpt lat="59.359045" lon="17.736938">
        <ele>10.9</ele>
        <time>2015-05-05T19:00:36Z</time>
      </trkpt>
      <trkpt lat="59.359134" lon="17.7369">
        <ele>11.2</ele>
        <time>2015-05-05T19:00:37Z</time>
      </trkpt>
      <trkpt lat="59.359226" lon="17.736878">
        <ele>11.5</ele>
        <time>2015-05-05T19:00:38Z</time>
      </trkpt>
      <trkpt lat="59.359321" lon="17.736837">
        <ele>11.9</ele>
        <time>2015-05-05T19:00:39Z</time>
      </trkpt>
      <trkpt lat="59.359411" lon="17.736802">
        <ele>12.2</ele>
        <time>2015-05-05T19:00:40Z</time>
      </trkpt>
      <trkpt lat="59.359507" lon="17.736769">
        <ele>12.5</ele>
        <time>2015-05-05T19:00:41Z</time>
      </trkpt>
      <trkpt lat="59.359599" lon="17.736737">
        <ele>12.9</ele>
        <time>2015-05-05T19:00:42Z</time>
      </trkpt>
      <trkpt lat="59.359692" lon="17.736707">
        <ele>13.2</ele>
        <time>2015-05-05T19:00:43Z</time>
      </trkpt>
      <trkpt lat="59.359785" lon="17.736674">
        <ele>13.5</ele>
        <time>2015-05-05T19:00:44Z</time>
      </trkpt>
      <trkpt lat="59.359875" lon="17.736627">
        <ele>13.8</ele>
        <time>2015-05-05T19:00:45Z</time>
      </trkpt>
      <trkpt lat="59.359965" lon="17.736593">
        <ele>14.2</ele>
        <time>2015-05-05T19:00:46Z</time>
      </trkpt>
      <trkpt lat="59.36008" lon="17.736586">
        <ele>14.5</ele>
        <time>2015-05-05T19:00:47Z</time>
      </trkpt>
      <trkpt lat="59.360168" lon="17.736557">
        <ele>14.9</ele>
        <time>2015-05-05T19:00:48Z</time>
      </trkpt>
      <trkpt lat="59.36026" lon="17.736526">
        <ele>15.2</ele>
        <time>2015-05-05T19:00:49Z</time>
      </trkpt>
      <trkpt lat="59.360347" lon="17.736472">
        <ele>15.7</ele>
        <time>2015-05-05T19:00:50Z</time>
      </trkpt>
      <trkpt lat="59.360443" lon="17.736435">
        <ele>16.1</ele>
        <time>2015-05-05T19:00:51Z</time>
      </trkpt>
      <trkpt lat="59.360538" lon="17.736401">
        <ele>16.3</ele>
        <time>2015-05-05T19:00:52Z</time>
      </trkpt>
      <trkpt lat="59.360625" lon="17.736359">
        <ele>16.5</ele>
        <time>2015-05-05T19:00:53Z</time>
      </trkpt>
      <trkpt lat="59.360722" lon="17.736323">
        <ele>16.6</ele>
        <time>2015-05-05T19:00:54Z</time>
      </trkpt>
      <trkpt lat="59.360819" lon="17.73628">
        <ele>16.9</ele>
        <time>2015-05-05T19:00:55Z</time>
      </trkpt>
      <trkpt lat="59.360914" lon="17.736244">
        <ele>17</ele>
        <time>2015-05-05T19:00:56Z</time>
      </trkpt>
      <trkpt lat="59.361013" lon="17.736205">
        <ele>17.2</ele>
        <time>2015-05-05T19:00:57Z</time>
      </trkpt>
      <trkpt lat="59.361122" lon="17.736172">
        <ele>17.4</ele>
        <time>2015-05-05T19:00:58Z</time>
      </trkpt>
      <trkpt lat="59.361225" lon="17.736124">
        <ele>17.6</ele>
        <time>2015-05-05T19:00:59Z</time>
      </trkpt>
      <trkpt lat="59.36132" lon="17.736071">
        <ele>17.7</ele>
        <time>2015-05-05T19:01:00Z</time>
      </trkpt>
      <trkpt lat="59.361388" lon="17.736003">
        <ele>17.9</ele>
        <time>2015-05-05T19:01:01Z</time>
      </trkpt>
      <trkpt lat="59.361472" lon="17.735961">
        <ele>17.8</ele>
        <time>2015-05-05T19:01:02Z</time>
      </trkpt>
      <trkpt lat="59.361568" lon="17.735896">
        <ele>17.8</ele>
        <time>2015-05-05T19:01:03Z</time>
      </trkpt>
      <trkpt lat="59.361665" lon="17.735821">
        <ele>17.8</ele>
        <time>2015-05-05T19:01:04Z</time>
      </trkpt>
      <trkpt lat="59.361744" lon="17.735737">
        <ele>17.8</ele>
        <time>2015-05-05T19:01:05Z</time>
      </trkpt>
      <trkpt lat="59.361819" lon="17.735626">
        <ele>17.8</ele>
        <time>2015-05-05T19:01:06Z</time>
      </trkpt>
      <trkpt lat="59.361885" lon="17.735496">
        <ele>17.8</ele>
        <time>2015-05-05T19:01:07Z</time>
      </trkpt>
      <trkpt lat="59.36195" lon="17.735346">
        <ele>18</ele>
        <time>2015-05-05T19:01:08Z</time>
      </trkpt>
      <trkpt lat="59.36202" lon="17.735198">
        <ele>18.6</ele>
        <time>2015-05-05T19:01:09Z</time>
      </trkpt>
      <trkpt lat="59.362076" lon="17.735033">
        <ele>19.3</ele>
        <time>2015-05-05T19:01:10Z</time>
      </trkpt>
      <trkpt lat="59.362135" lon="17.734875">
        <ele>20</ele>
        <time>2015-05-05T19:01:11Z</time>
      </trkpt>
      <trkpt lat="59.362184" lon="17.734723">
        <ele>20.7</ele>
        <time>2015-05-05T19:01:12Z</time>
      </trkpt>
      <trkpt lat="59.362245" lon="17.734576">
        <ele>21.3</ele>
        <time>2015-05-05T19:01:13Z</time>
      </trkpt>
      <trkpt lat="59.362293" lon="17.734427">
        <ele>21.7</ele>
        <time>2015-05-05T19:01:14Z</time>
      </trkpt>
      <trkpt lat="59.362343" lon="17.734279">
        <ele>22.1</ele>
        <time>2015-05-05T19:01:15Z</time>
      </trkpt>
      <trkpt lat="59.362381" lon="17.734124">
        <ele>22.6</ele>
        <time>2015-05-05T19:01:16Z</time>
      </trkpt>
      <trkpt lat="59.362435" lon="17.733988">
        <ele>22.9</ele>
        <time>2015-05-05T19:01:17Z</time>
      </trkpt>
      <trkpt lat="59.362486" lon="17.733797">
        <ele>23.4</ele>
        <time>2015-05-05T19:01:18Z</time>
      </trkpt>
      <trkpt lat="59.36253" lon="17.733657">
        <ele>23.2</ele>
        <time>2015-05-05T19:01:19Z</time>
      </trkpt>
      <trkpt lat="59.362583" lon="17.733476">
        <ele>22.7</ele>
        <time>2015-05-05T19:01:20Z</time>
      </trkpt>
      <trkpt lat="59.362628" lon="17.733316">
        <ele>22.2</ele>
        <time>2015-05-05T19:01:21Z</time>
      </trkpt>
      <trkpt lat="59.362672" lon="17.733156">
        <ele>21.8</ele>
        <time>2015-05-05T19:01:22Z</time>
      </trkpt>
      <trkpt lat="59.362714" lon="17.732994">
        <ele>21.3</ele>
        <time>2015-05-05T19:01:23Z</time>
      </trkpt>
      <trkpt lat="59.362762" lon="17.732834">
        <ele>20.8</ele>
        <time>2015-05-05T19:01:24Z</time>
      </trkpt>
      <trkpt lat="59.3628" lon="17.732664">
        <ele>20.4</ele>
        <time>2015-05-05T19:01:25Z</time>
      </trkpt>
      <trkpt lat="59.362842" lon="17.732485">
        <ele>19.9</ele>
        <time>2015-05-05T19:01:26Z</time>
      </trkpt>
      <trkpt lat="59.362884" lon="17.732303">
        <ele>19.5</ele>
        <time>2015-05-05T19:01:27Z</time>
      </trkpt>
      <trkpt lat="59.362939" lon="17.732137">
        <ele>18.9</ele>
        <time>2015-05-05T19:01:28Z</time>
      </trkpt>
      <trkpt lat="59.362984" lon="17.731954">
        <ele>18.3</ele>
        <time>2015-05-05T19:01:29Z</time>
      </trkpt>
      <trkpt lat="59.363022" lon="17.731754">
        <ele>17.8</ele>
        <time>2015-05-05T19:01:30Z</time>
      </trkpt>
      <trkpt lat="59.363065" lon="17.731556">
        <ele>17.3</ele>
        <time>2015-05-05T19:01:31Z</time>
      </trkpt>
      <trkpt lat="59.3631" lon="17.73136">
        <ele>17</ele>
        <time>2015-05-05T19:01:32Z</time>
      </trkpt>
      <trkpt lat="59.363142" lon="17.731173">
        <ele>16.6</ele>
        <time>2015-05-05T19:01:33Z</time>
      </trkpt>
      <trkpt lat="59.363183" lon="17.730973">
        <ele>16.4</ele>
        <time>2015-05-05T19:01:34Z</time>
      </trkpt>
      <trkpt lat="59.363224" lon="17.730777">
        <ele>16.2</ele>
        <time>2015-05-05T19:01:35Z</time>
      </trkpt>
      <trkpt lat="59.363262" lon="17.730577">
        <ele>15.9</ele>
        <time>2015-05-05T19:01:36Z</time>
      </trkpt>
      <trkpt lat="59.363295" lon="17.730377">
        <ele>15.7</ele>
        <time>2015-05-05T19:01:37Z</time>
      </trkpt>
      <trkpt lat="59.363324" lon="17.730164">
        <ele>15.4</ele>
        <time>2015-05-05T19:01:38Z</time>
      </trkpt>
      <trkpt lat="59.363353" lon="17.729953">
        <ele>15.1</ele>
        <time>2015-05-05T19:01:39Z</time>
      </trkpt>
      <trkpt lat="59.363373" lon="17.729742">
        <ele>14.9</ele>
        <time>2015-05-05T19:01:40Z</time>
      </trkpt>
      <trkpt lat="59.363394" lon="17.729523">
        <ele>14.7</ele>
        <time>2015-05-05T19:01:41Z</time>
      </trkpt>
      <trkpt lat="59.363405" lon="17.729311">
        <ele>14.7</ele>
        <time>2015-05-05T19:01:42Z</time>
      </trkpt>
      <trkpt lat="59.363433" lon="17.729079">
        <ele>14.5</ele>
        <time>2015-05-05T19:01:43Z</time>
      </trkpt>
      <trkpt lat="59.363461" lon="17.728837">
        <ele>14.4</ele>
        <time>2015-05-05T19:01:44Z</time>
      </trkpt>
      <trkpt lat="59.363484" lon="17.72863">
        <ele>13.9</ele>
        <time>2015-05-05T19:01:45Z</time>
      </trkpt>
      <trkpt lat="59.363516" lon="17.728358">
        <ele>13.1</ele>
        <time>2015-05-05T19:01:46Z</time>
      </trkpt>
      <trkpt lat="59.363537" lon="17.728146">
        <ele>12.4</ele>
        <time>2015-05-05T19:01:47Z</time>
      </trkpt>
      <trkpt lat="59.363566" lon="17.727932">
        <ele>11.7</ele>
        <time>2015-05-05T19:01:48Z</time>
      </trkpt>
      <trkpt lat="59.363582" lon="17.727686">
        <ele>11.1</ele>
        <time>2015-05-05T19:01:49Z</time>
      </trkpt>
      <trkpt lat="59.363604" lon="17.72746">
        <ele>10.4</ele>
        <time>2015-05-05T19:01:50Z</time>
      </trkpt>
      <trkpt lat="59.363627" lon="17.727233">
        <ele>9.8</ele>
        <time>2015-05-05T19:01:51Z</time>
      </trkpt>
      <trkpt lat="59.363648" lon="17.727004">
        <ele>9</ele>
        <time>2015-05-05T19:01:52Z</time>
      </trkpt>
      <trkpt lat="59.36367" lon="17.726788">
        <ele>7.8</ele>
        <time>2015-05-05T19:01:53Z</time>
      </trkpt>
      <trkpt lat="59.363688" lon="17.726562">
        <ele>6.7</ele>
        <time>2015-05-05T19:01:54Z</time>
      </trkpt>
      <trkpt lat="59.363711" lon="17.726347">
        <ele>5.6</ele>
        <time>2015-05-05T19:01:55Z</time>
      </trkpt>
      <trkpt lat="59.363721" lon="17.726093">
        <ele>4.5</ele>
        <time>2015-05-05T19:01:56Z</time>
      </trkpt>
      <trkpt lat="59.36374" lon="17.725879">
        <ele>3.7</ele>
        <time>2015-05-05T19:01:57Z</time>
      </trkpt>
      <trkpt lat="59.363766" lon="17.725668">
        <ele>2.9</ele>
        <time>2015-05-05T19:01:58Z</time>
      </trkpt>
      <trkpt lat="59.363788" lon="17.725445">
        <ele>2.1</ele>
        <time>2015-05-05T19:01:59Z</time>
      </trkpt>
      <trkpt lat="59.363803" lon="17.725237">
        <ele>2</ele>
        <time>2015-05-05T19:02:00Z</time>
      </trkpt>
      <trkpt lat="59.363831" lon="17.725024">
        <ele>2</ele>
        <time>2015-05-05T19:02:01Z</time>
      </trkpt>
      <trkpt lat="59.363859" lon="17.724809">
        <ele>2.1</ele>
        <time>2015-05-05T19:02:02Z</time>
      </trkpt>
      <trkpt lat="59.363878" lon="17.7246">
        <ele>2.2</ele>
        <time>2015-05-05T19:02:03Z</time>
      </trkpt>
      <trkpt lat="59.363895" lon="17.724407">
        <ele>2.2</ele>
        <time>2015-05-05T19:02:04Z</time>
      </trkpt>
      <trkpt lat="59.363909" lon="17.724205">
        <ele>2.3</ele>
        <time>2015-05-05T19:02:05Z</time>
      </trkpt>
      <trkpt lat="59.363924" lon="17.724003">
        <ele>2.4</ele>
        <time>2015-05-05T19:02:06Z</time>
      </trkpt>
      <trkpt lat="59.36393" lon="17.723803">
        <ele>2.4</ele>
        <time>2015-05-05T19:02:07Z</time>
      </trkpt>
      <trkpt lat="59.363946" lon="17.723611">
        <ele>2.6</ele>
        <time>2015-05-05T19:02:08Z</time>
      </trkpt>
      <trkpt lat="59.36396" lon="17.723392">
        <ele>2.7</ele>
        <time>2015-05-05T19:02:09Z</time>
      </trkpt>
      <trkpt lat="59.363971" lon="17.723192">
        <ele>2.8</ele>
        <time>2015-05-05T19:02:10Z</time>
      </trkpt>
      <trkpt lat="59.363981" lon="17.723007">
        <ele>3</ele>
        <time>2015-05-05T19:02:11Z</time>
      </trkpt>
      <trkpt lat="59.363997" lon="17.722824">
        <ele>3</ele>
        <time>2015-05-05T19:02:12Z</time>
      </trkpt>
      <trkpt lat="59.364016" lon="17.722644">
        <ele>3</ele>
        <time>2015-05-05T19:02:13Z</time>
      </trkpt>
      <trkpt lat="59.364027" lon="17.722474">
        <ele>3</ele>
        <time>2015-05-05T19:02:14Z</time>
      </trkpt>
      <trkpt lat="59.364037" lon="17.722281">
        <ele>3</ele>
        <time>2015-05-05T19:02:15Z</time>
      </trkpt>
      <trkpt lat="59.36405" lon="17.722065">
        <ele>3</ele>
        <time>2015-05-05T19:02:16Z</time>
      </trkpt>
      <trkpt lat="59.364067" lon="17.721886">
        <ele>3.5</ele>
        <time>2015-05-05T19:02:17Z</time>
      </trkpt>
      <trkpt lat="59.364081" lon="17.721707">
        <ele>3.9</ele>
        <time>2015-05-05T19:02:18Z</time>
      </trkpt>
      <trkpt lat="59.364095" lon="17.721524">
        <ele>4.3</ele>
        <time>2015-05-05T19:02:19Z</time>
      </trkpt>
      <trkpt lat="59.364112" lon="17.721344">
        <ele>4.8</ele>
        <time>2015-05-05T19:02:20Z</time>
      </trkpt>
      <trkpt lat="59.364129" lon="17.721159">
        <ele>5.1</ele>
        <time>2015-05-05T19:02:21Z</time>
      </trkpt>
      <trkpt lat="59.364148" lon="17.720976">
        <ele>5.3</ele>
        <time>2015-05-05T19:02:22Z</time>
      </trkpt>
      <trkpt lat="59.364162" lon="17.720796">
        <ele>5.5</ele>
        <time>2015-05-05T19:02:23Z</time>
      </trkpt>
      <trkpt lat="59.364173" lon="17.720638">
        <ele>5.7</ele>
        <time>2015-05-05T19:02:24Z</time>
      </trkpt>
      <trkpt lat="59.364183" lon="17.720456">
        <ele>6</ele>
        <time>2015-05-05T19:02:25Z</time>
      </trkpt>
      <trkpt lat="59.364201" lon="17.720288">
        <ele>6.9</ele>
        <time>2015-05-05T19:02:26Z</time>
      </trkpt>
      <trkpt lat="59.36421" lon="17.720122">
        <ele>8.2</ele>
        <time>2015-05-05T19:02:27Z</time>
      </trkpt>
      <trkpt lat="59.364222" lon="17.719955">
        <ele>9.4</ele>
        <time>2015-05-05T19:02:28Z</time>
      </trkpt>
      <trkpt lat="59.36424" lon="17.719799">
        <ele>10.6</ele>
        <time>2015-05-05T19:02:29Z</time>
      </trkpt>
      <trkpt lat="59.364277" lon="17.719673">
        <ele>11.6</ele>
        <time>2015-05-05T19:02:30Z</time>
      </trkpt>
      <trkpt lat="59.364333" lon="17.719581">
        <ele>12.4</ele>
        <time>2015-05-05T19:02:31Z</time>
      </trkpt>
      <trkpt lat="59.364412" lon="17.719522">
        <ele>13</ele>
        <time>2015-05-05T19:02:32Z</time>
      </trkpt>
      <trkpt lat="59.364494" lon="17.719502">
        <ele>13.4</ele>
        <time>2015-05-05T19:02:33Z</time>
      </trkpt>
      <trkpt lat="59.364582" lon="17.7195">
        <ele>13.6</ele>
        <time>2015-05-05T19:02:34Z</time>
      </trkpt>
      <trkpt lat="59.364677" lon="17.719477">
        <ele>13.4</ele>
        <time>2015-05-05T19:02:35Z</time>
      </trkpt>
      <trkpt lat="59.364775" lon="17.719447">
        <ele>13.3</ele>
        <time>2015-05-05T19:02:36Z</time>
      </trkpt>
      <trkpt lat="59.364865" lon="17.719411">
        <ele>13.2</ele>
        <time>2015-05-05T19:02:37Z</time>
      </trkpt>
      <trkpt lat="59.364955" lon="17.719369">
        <ele>13.1</ele>
        <time>2015-05-05T19:02:38Z</time>
      </trkpt>
      <trkpt lat="59.365047" lon="17.719312">
        <ele>13.1</ele>
        <time>2015-05-05T19:02:39Z</time>
      </trkpt>
      <trkpt lat="59.365131" lon="17.719246">
        <ele>13.2</ele>
        <time>2015-05-05T19:02:40Z</time>
      </trkpt>
      <trkpt lat="59.365225" lon="17.719192">
        <ele>13.1</ele>
        <time>2015-05-05T19:02:41Z</time>
      </trkpt>
      <trkpt lat="59.365311" lon="17.719119">
        <ele>13.2</ele>
        <time>2015-05-05T19:02:42Z</time>
      </trkpt>
      <trkpt lat="59.365389" lon="17.719003">
        <ele>13.6</ele>
        <time>2015-05-05T19:02:43Z</time>
      </trkpt>
      <trkpt lat="59.365482" lon="17.718912">
        <ele>13.5</ele>
        <time>2015-05-05T19:02:44Z</time>
      </trkpt>
      <trkpt lat="59.365564" lon="17.718808">
        <ele>13.3</ele>
        <time>2015-05-05T19:02:45Z</time>
      </trkpt>
      <trkpt lat="59.365657" lon="17.718713">
        <ele>13.1</ele>
        <time>2015-05-05T19:02:46Z</time>
      </trkpt>
      <trkpt lat="59.365735" lon="17.7186">
        <ele>13.4</ele>
        <time>2015-05-05T19:02:47Z</time>
      </trkpt>
      <trkpt lat="59.365821" lon="17.718497">
        <ele>13.4</ele>
        <time>2015-05-05T19:02:48Z</time>
      </trkpt>
      <trkpt lat="59.365891" lon="17.718383">
        <ele>13.7</ele>
        <time>2015-05-05T19:02:49Z</time>
      </trkpt>
      <trkpt lat="59.365965" lon="17.718254">
        <ele>13.9</ele>
        <time>2015-05-05T19:02:50Z</time>
      </trkpt>
      <trkpt lat="59.366021" lon="17.718115">
        <ele>14.4</ele>
        <time>2015-05-05T19:02:51Z</time>
      </trkpt>
      <trkpt lat="59.366089" lon="17.717982">
        <ele>14.6</ele>
        <time>2015-05-05T19:02:52Z</time>
      </trkpt>
      <trkpt lat="59.36615" lon="17.717853">
        <ele>14.7</ele>
        <time>2015-05-05T19:02:53Z</time>
      </trkpt>
      <trkpt lat="59.366211" lon="17.71772">
        <ele>14.7</ele>
        <time>2015-05-05T19:02:54Z</time>
      </trkpt>
      <trkpt lat="59.366269" lon="17.717597">
        <ele>14.9</ele>
        <time>2015-05-05T19:02:55Z</time>
      </trkpt>
      <trkpt lat="59.366323" lon="17.717471">
        <ele>15.5</ele>
        <time>2015-05-05T19:02:56Z</time>
      </trkpt>
      <trkpt lat="59.366378" lon="17.717358">
        <ele>15.9</ele>
        <time>2015-05-05T19:02:57Z</time>
      </trkpt>
      <trkpt lat="59.366433" lon="17.717227">
        <ele>16.5</ele>
        <time>2015-05-05T19:02:58Z</time>
      </trkpt>
      <trkpt lat="59.366478" lon="17.717098">
        <ele>17.1</ele>
        <time>2015-05-05T19:02:59Z</time>
      </trkpt>
      <trkpt lat="59.366525" lon="17.716974">
        <ele>17.6</ele>
        <time>2015-05-05T19:03:00Z</time>
      </trkpt>
      <trkpt lat="59.366573" lon="17.71685">
        <ele>17.9</ele>
        <time>2015-05-05T19:03:01Z</time>
      </trkpt>
      <trkpt lat="59.366623" lon="17.716756">
        <ele>18</ele>
        <time>2015-05-05T19:03:02Z</time>
      </trkpt>
      <trkpt lat="59.366651" lon="17.716639">
        <ele>18.2</ele>
        <time>2015-05-05T19:03:03Z</time>
      </trkpt>
      <trkpt lat="59.366704" lon="17.716518">
        <ele>18.2</ele>
        <time>2015-05-05T19:03:04Z</time>
      </trkpt>
      <trkpt lat="59.366756" lon="17.716398">
        <ele>17.9</ele>
        <time>2015-05-05T19:03:05Z</time>
      </trkpt>
      <trkpt lat="59.3668" lon="17.716256">
        <ele>17.7</ele>
        <time>2015-05-05T19:03:06Z</time>
      </trkpt>
      <trkpt lat="59.366842" lon="17.716141">
        <ele>17.4</ele>
        <time>2015-05-05T19:03:07Z</time>
      </trkpt>
      <trkpt lat="59.366889" lon="17.716031">
        <ele>16.9</ele>
        <time>2015-05-05T19:03:08Z</time>
      </trkpt>
      <trkpt lat="59.366931" lon="17.715923">
        <ele>16.4</ele>
        <time>2015-05-05T19:03:09Z</time>
      </trkpt>
      <trkpt lat="59.366977" lon="17.715817">
        <ele>15.8</ele>
        <time>2015-05-05T19:03:10Z</time>
      </trkpt>
      <trkpt lat="59.367025" lon="17.715707">
        <ele>15</ele>
        <time>2015-05-05T19:03:11Z</time>
      </trkpt>
      <trkpt lat="59.367081" lon="17.715622">
        <ele>14</ele>
        <time>2015-05-05T19:03:12Z</time>
      </trkpt>
      <trkpt lat="59.367128" lon="17.71551">
        <ele>14.1</ele>
        <time>2015-05-05T19:03:13Z</time>
      </trkpt>
      <trkpt lat="59.367175" lon="17.715397">
        <ele>14.2</ele>
        <time>2015-05-05T19:03:14Z</time>
      </trkpt>
      <trkpt lat="59.367237" lon="17.715308">
        <ele>14.5</ele>
        <time>2015-05-05T19:03:15Z</time>
      </trkpt>
      <trkpt lat="59.367263" lon="17.715198">
        <ele>14.9</ele>
        <time>2015-05-05T19:03:16Z</time>
      </trkpt>
      <trkpt lat="59.367308" lon="17.715076">
        <ele>15.3</ele>
        <time>2015-05-05T19:03:17Z</time>
      </trkpt>
      <trkpt lat="59.367365" lon="17.714961">
        <ele>15.6</ele>
        <time>2015-05-05T19:03:18Z</time>
      </trkpt>
      <trkpt lat="59.367434" lon="17.714843">
        <ele>15.9</ele>
        <time>2015-05-05T19:03:19Z</time>
      </trkpt>
      <trkpt lat="59.367491" lon="17.714714">
        <ele>16.2</ele>
        <time>2015-05-05T19:03:20Z</time>
      </trkpt>
      <trkpt lat="59.367543" lon="17.714602">
        <ele>16.4</ele>
        <time>2015-05-05T19:03:21Z</time>
      </trkpt>
      <trkpt lat="59.367593" lon="17.71448">
        <ele>16.5</ele>
        <time>2015-05-05T19:03:22Z</time>
      </trkpt>
      <trkpt lat="59.367642" lon="17.714362">
        <ele>16.5</ele>
        <time>2015-05-05T19:03:23Z</time>
      </trkpt>
      <trkpt lat="59.367691" lon="17.714239">
        <ele>16.5</ele>
        <time>2015-05-05T19:03:24Z</time>
      </trkpt>
      <trkpt lat="59.367741" lon="17.714119">
        <ele>16.4</ele>
        <time>2015-05-05T19:03:25Z</time>
      </trkpt>
      <trkpt lat="59.367791" lon="17.714">
        <ele>16.4</ele>
        <time>2015-05-05T19:03:26Z</time>
      </trkpt>
      <trkpt lat="59.367843" lon="17.713879">
        <ele>16.2</ele>
        <time>2015-05-05T19:03:27Z</time>
      </trkpt>
      <trkpt lat="59.367891" lon="17.713758">
        <ele>16.1</ele>
        <time>2015-05-05T19:03:28Z</time>
      </trkpt>
      <trkpt lat="59.36794" lon="17.713637">
        <ele>16.5</ele>
        <time>2015-05-05T19:03:29Z</time>
      </trkpt>
      <trkpt lat="59.367995" lon="17.713515">
        <ele>17.1</ele>
        <time>2015-05-05T19:03:30Z</time>
      </trkpt>
      <trkpt lat="59.368052" lon="17.713387">
        <ele>17.7</ele>
        <time>2015-05-05T19:03:31Z</time>
      </trkpt>
      <trkpt lat="59.368106" lon="17.713268">
        <ele>18.2</ele>
        <time>2015-05-05T19:03:32Z</time>
      </trkpt>
      <trkpt lat="59.368166" lon="17.713118">
        <ele>19</ele>
        <time>2015-05-05T19:03:33Z</time>
      </trkpt>
      <trkpt lat="59.368219" lon="17.713005">
        <ele>19.5</ele>
        <time>2015-05-05T19:03:34Z</time>
      </trkpt>
      <trkpt lat="59.368277" lon="17.712888">
        <ele>20.1</ele>
        <time>2015-05-05T19:03:35Z</time>
      </trkpt>
      <trkpt lat="59.368315" lon="17.712774">
        <ele>20.7</ele>
        <time>2015-05-05T19:03:36Z</time>
      </trkpt>
      <trkpt lat="59.368358" lon="17.712647">
        <ele>21.3</ele>
        <time>2015-05-05T19:03:37Z</time>
      </trkpt>
      <trkpt lat="59.368406" lon="17.712495">
        <ele>22.1</ele>
        <time>2015-05-05T19:03:38Z</time>
      </trkpt>
      <trkpt lat="59.368457" lon="17.712382">
        <ele>22.8</ele>
        <time>2015-05-05T19:03:39Z</time>
      </trkpt>
      <trkpt lat="59.368516" lon="17.712265">
        <ele>23.5</ele>
        <time>2015-05-05T19:03:40Z</time>
      </trkpt>
      <trkpt lat="59.368559" lon="17.712153">
        <ele>24.2</ele>
        <time>2015-05-05T19:03:41Z</time>
      </trkpt>
      <trkpt lat="59.368613" lon="17.71205">
        <ele>24.8</ele>
        <time>2015-05-05T19:03:42Z</time>
      </trkpt>
      <trkpt lat="59.368668" lon="17.71194">
        <ele>25.5</ele>
        <time>2015-05-05T19:03:43Z</time>
      </trkpt>
      <trkpt lat="59.368723" lon="17.711827">
        <ele>26.1</ele>
        <time>2015-05-05T19:03:44Z</time>
      </trkpt>
      <trkpt lat="59.368779" lon="17.711724">
        <ele>26.5</ele>
        <time>2015-05-05T19:03:45Z</time>
      </trkpt>
      <trkpt lat="59.368838" lon="17.711616">
        <ele>26.6</ele>
        <time>2015-05-05T19:03:46Z</time>
      </trkpt>
      <trkpt lat="59.368906" lon="17.71151">
        <ele>26.7</ele>
        <time>2015-05-05T19:03:47Z</time>
      </trkpt>
      <trkpt lat="59.368965" lon="17.711416">
        <ele>26.8</ele>
        <time>2015-05-05T19:03:48Z</time>
      </trkpt>
      <trkpt lat="59.369024" lon="17.711321">
        <ele>27</ele>
        <time>2015-05-05T19:03:49Z</time>
      </trkpt>
      <trkpt lat="59.369091" lon="17.711226">
        <ele>27.1</ele>
        <time>2015-05-05T19:03:50Z</time>
      </trkpt>
      <trkpt lat="59.369162" lon="17.711143">
        <ele>27.1</ele>
        <time>2015-05-05T19:03:51Z</time>
      </trkpt>
      <trkpt lat="59.369232" lon="17.711057">
        <ele>27.2</ele>
        <time>2015-05-05T19:03:52Z</time>
      </trkpt>
      <trkpt lat="59.369298" lon="17.710962">
        <ele>27.3</ele>
        <time>2015-05-05T19:03:53Z</time>
      </trkpt>
      <trkpt lat="59.369365" lon="17.710858">
        <ele>27.5</ele>
        <time>2015-05-05T19:03:54Z</time>
      </trkpt>
      <trkpt lat="59.369433" lon="17.710775">
        <ele>27.6</ele>
        <time>2015-05-05T19:03:55Z</time>
      </trkpt>
      <trkpt lat="59.369502" lon="17.710695">
        <ele>27.8</ele>
        <time>2015-05-05T19:03:56Z</time>
      </trkpt>
      <trkpt lat="59.36957" lon="17.710605">
        <ele>27.9</ele>
        <time>2015-05-05T19:03:57Z</time>
      </trkpt>
      <trkpt lat="59.369644" lon="17.710512">
        <ele>28</ele>
        <time>2015-05-05T19:03:58Z</time>
      </trkpt>
      <trkpt lat="59.369722" lon="17.710437">
        <ele>27.9</ele>
        <time>2015-05-05T19:03:59Z</time>
      </trkpt>
      <trkpt lat="59.36979" lon="17.710343">
        <ele>27.7</ele>
        <time>2015-05-05T19:04:00Z</time>
      </trkpt>
      <trkpt lat="59.36986" lon="17.710255">
        <ele>27.5</ele>
        <time>2015-05-05T19:04:01Z</time>
      </trkpt>
      <trkpt lat="59.369927" lon="17.710172">
        <ele>27.2</ele>
        <time>2015-05-05T19:04:02Z</time>
      </trkpt>
      <trkpt lat="59.369992" lon="17.7101">
        <ele>27</ele>
        <time>2015-05-05T19:04:03Z</time>
      </trkpt>
      <trkpt lat="59.37006" lon="17.710021">
        <ele>26.8</ele>
        <time>2015-05-05T19:04:04Z</time>
      </trkpt>
      <trkpt lat="59.370135" lon="17.709939">
        <ele>26.6</ele>
        <time>2015-05-05T19:04:05Z</time>
      </trkpt>
      <trkpt lat="59.370201" lon="17.709841">
        <ele>26.4</ele>
        <time>2015-05-05T19:04:06Z</time>
      </trkpt>
      <trkpt lat="59.370269" lon="17.709734">
        <ele>26.4</ele>
        <time>2015-05-05T19:04:07Z</time>
      </trkpt>
      <trkpt lat="59.370336" lon="17.709636">
        <ele>26.3</ele>
        <time>2015-05-05T19:04:08Z</time>
      </trkpt>
      <trkpt lat="59.370386" lon="17.709532">
        <ele>26.4</ele>
        <time>2015-05-05T19:04:09Z</time>
      </trkpt>
      <trkpt lat="59.370445" lon="17.709436">
        <ele>26.5</ele>
        <time>2015-05-05T19:04:10Z</time>
      </trkpt>
      <trkpt lat="59.370513" lon="17.709332">
        <ele>26.8</ele>
        <time>2015-05-05T19:04:11Z</time>
      </trkpt>
      <trkpt lat="59.370574" lon="17.709243">
        <ele>27</ele>
        <time>2015-05-05T19:04:12Z</time>
      </trkpt>
      <trkpt lat="59.370626" lon="17.709136">
        <ele>27.2</ele>
        <time>2015-05-05T19:04:13Z</time>
      </trkpt>
      <trkpt lat="59.370676" lon="17.709028">
        <ele>27.4</ele>
        <time>2015-05-05T19:04:14Z</time>
      </trkpt>
      <trkpt lat="59.370719" lon="17.708929">
        <ele>27.5</ele>
        <time>2015-05-05T19:04:15Z</time>
      </trkpt>
      <trkpt lat="59.370766" lon="17.708823">
        <ele>27.6</ele>
        <time>2015-05-05T19:04:16Z</time>
      </trkpt>
      <trkpt lat="59.370815" lon="17.708722">
        <ele>27.6</ele>
        <time>2015-05-05T19:04:17Z</time>
      </trkpt>
      <trkpt lat="59.370867" lon="17.708615">
        <ele>27.6</ele>
        <time>2015-05-05T19:04:18Z</time>
      </trkpt>
      <trkpt lat="59.370921" lon="17.708509">
        <ele>27.7</ele>
        <time>2015-05-05T19:04:19Z</time>
      </trkpt>
      <trkpt lat="59.370973" lon="17.708396">
        <ele>27.8</ele>
        <time>2015-05-05T19:04:20Z</time>
      </trkpt>
      <trkpt lat="59.371027" lon="17.708284">
        <ele>28</ele>
        <time>2015-05-05T19:04:21Z</time>
      </trkpt>
      <trkpt lat="59.371088" lon="17.708163">
        <ele>28.3</ele>
        <time>2015-05-05T19:04:22Z</time>
      </trkpt>
      <trkpt lat="59.371139" lon="17.708034">
        <ele>28.6</ele>
        <time>2015-05-05T19:04:23Z</time>
      </trkpt>
      <trkpt lat="59.371193" lon="17.707909">
        <ele>29</ele>
        <time>2015-05-05T19:04:24Z</time>
      </trkpt>
      <trkpt lat="59.371252" lon="17.707788">
        <ele>29.3</ele>
        <time>2015-05-05T19:04:25Z</time>
      </trkpt>
      <trkpt lat="59.371316" lon="17.707659">
        <ele>29.4</ele>
        <time>2015-05-05T19:04:26Z</time>
      </trkpt>
      <trkpt lat="59.371369" lon="17.707543">
        <ele>29.4</ele>
        <time>2015-05-05T19:04:27Z</time>
      </trkpt>
      <trkpt lat="59.371433" lon="17.707442">
        <ele>29.4</ele>
        <time>2015-05-05T19:04:28Z</time>
      </trkpt>
      <trkpt lat="59.371496" lon="17.707334">
        <ele>29.3</ele>
        <time>2015-05-05T19:04:29Z</time>
      </trkpt>
      <trkpt lat="59.371556" lon="17.707241">
        <ele>29.2</ele>
        <time>2015-05-05T19:04:30Z</time>
      </trkpt>
      <trkpt lat="59.37162" lon="17.707145">
        <ele>29.1</ele>
        <time>2015-05-05T19:04:31Z</time>
      </trkpt>
      <trkpt lat="59.371687" lon="17.707043">
        <ele>29</ele>
        <time>2015-05-05T19:04:32Z</time>
      </trkpt>
      <trkpt lat="59.371756" lon="17.70696">
        <ele>29</ele>
        <time>2015-05-05T19:04:33Z</time>
      </trkpt>
      <trkpt lat="59.371831" lon="17.70687">
        <ele>29.1</ele>
        <time>2015-05-05T19:04:34Z</time>
      </trkpt>
      <trkpt lat="59.371893" lon="17.706791">
        <ele>29.2</ele>
        <time>2015-05-05T19:04:35Z</time>
      </trkpt>
      <trkpt lat="59.371961" lon="17.706715">
        <ele>29.2</ele>
        <time>2015-05-05T19:04:36Z</time>
      </trkpt>
      <trkpt lat="59.372024" lon="17.706637">
        <ele>29.4</ele>
        <time>2015-05-05T19:04:37Z</time>
      </trkpt>
      <trkpt lat="59.372093" lon="17.706559">
        <ele>29.5</ele>
        <time>2015-05-05T19:04:38Z</time>
      </trkpt>
      <trkpt lat="59.372161" lon="17.706476">
        <ele>30.1</ele>
        <time>2015-05-05T19:04:39Z</time>
      </trkpt>
      <trkpt lat="59.372235" lon="17.706386">
        <ele>30.6</ele>
        <time>2015-05-05T19:04:40Z</time>
      </trkpt>
      <trkpt lat="59.372289" lon="17.706283">
        <ele>31.1</ele>
        <time>2015-05-05T19:04:41Z</time>
      </trkpt>
      <trkpt lat="59.372352" lon="17.706184">
        <ele>31.5</ele>
        <time>2015-05-05T19:04:42Z</time>
      </trkpt>
      <trkpt lat="59.372417" lon="17.706088">
        <ele>31.8</ele>
        <time>2015-05-05T19:04:43Z</time>
      </trkpt>
      <trkpt lat="59.372472" lon="17.705984">
        <ele>32.1</ele>
        <time>2015-05-05T19:04:44Z</time>
      </trkpt>
      <trkpt lat="59.372528" lon="17.705878">
        <ele>32.4</ele>
        <time>2015-05-05T19:04:45Z</time>
      </trkpt>
      <trkpt lat="59.372592" lon="17.705757">
        <ele>32.7</ele>
        <time>2015-05-05T19:04:46Z</time>
      </trkpt>
      <trkpt lat="59.372655" lon="17.705658">
        <ele>32.8</ele>
        <time>2015-05-05T19:04:47Z</time>
      </trkpt>
      <trkpt lat="59.372702" lon="17.705524">
        <ele>33.1</ele>
        <time>2015-05-05T19:04:48Z</time>
      </trkpt>
      <trkpt lat="59.372756" lon="17.70541">
        <ele>33.2</ele>
        <time>2015-05-05T19:04:49Z</time>
      </trkpt>
      <trkpt lat="59.372815" lon="17.705255">
        <ele>33</ele>
        <time>2015-05-05T19:04:50Z</time>
      </trkpt>
      <trkpt lat="59.372876" lon="17.705151">
        <ele>32.8</ele>
        <time>2015-05-05T19:04:51Z</time>
      </trkpt>
      <trkpt lat="59.372938" lon="17.705014">
        <ele>32.5</ele>
        <time>2015-05-05T19:04:52Z</time>
      </trkpt>
      <trkpt lat="59.373" lon="17.704895">
        <ele>32.3</ele>
        <time>2015-05-05T19:04:53Z</time>
      </trkpt>
      <trkpt lat="59.373072" lon="17.704774">
        <ele>32.1</ele>
        <time>2015-05-05T19:04:54Z</time>
      </trkpt>
      <trkpt lat="59.373137" lon="17.704645">
        <ele>32</ele>
        <time>2015-05-05T19:04:55Z</time>
      </trkpt>
      <trkpt lat="59.3732" lon="17.704524">
        <ele>32</ele>
        <time>2015-05-05T19:04:56Z</time>
      </trkpt>
      <trkpt lat="59.373253" lon="17.704408">
        <ele>32.1</ele>
        <time>2015-05-05T19:04:57Z</time>
      </trkpt>
      <trkpt lat="59.373309" lon="17.704305">
        <ele>32.2</ele>
        <time>2015-05-05T19:04:58Z</time>
      </trkpt>
      <trkpt lat="59.373369" lon="17.704194">
        <ele>32.3</ele>
        <time>2015-05-05T19:04:59Z</time>
      </trkpt>
      <trkpt lat="59.373445" lon="17.70409">
        <ele>32.4</ele>
        <time>2015-05-05T19:05:00Z</time>
      </trkpt>
      <trkpt lat="59.373502" lon="17.703992">
        <ele>32.5</ele>
        <time>2015-05-05T19:05:01Z</time>
      </trkpt>
      <trkpt lat="59.373562" lon="17.703875">
        <ele>32.7</ele>
        <time>2015-05-05T19:05:02Z</time>
      </trkpt>
      <trkpt lat="59.373627" lon="17.703769">
        <ele>32.8</ele>
        <time>2015-05-05T19:05:03Z</time>
      </trkpt>
      <trkpt lat="59.373702" lon="17.703668">
        <ele>32.9</ele>
        <time>2015-05-05T19:05:04Z</time>
      </trkpt>
      <trkpt lat="59.373777" lon="17.703553">
        <ele>33</ele>
        <time>2015-05-05T19:05:05Z</time>
      </trkpt>
      <trkpt lat="59.373841" lon="17.703434">
        <ele>33</ele>
        <time>2015-05-05T19:05:06Z</time>
      </trkpt>
      <trkpt lat="59.373902" lon="17.70332">
        <ele>33</ele>
        <time>2015-05-05T19:05:07Z</time>
      </trkpt>
      <trkpt lat="59.373971" lon="17.703217">
        <ele>33.1</ele>
        <time>2015-05-05T19:05:08Z</time>
      </trkpt>
      <trkpt lat="59.374037" lon="17.703116">
        <ele>33.2</ele>
        <time>2015-05-05T19:05:09Z</time>
      </trkpt>
      <trkpt lat="59.374102" lon="17.703002">
        <ele>33.3</ele>
        <time>2015-05-05T19:05:10Z</time>
      </trkpt>
      <trkpt lat="59.374164" lon="17.702884">
        <ele>33.5</ele>
        <time>2015-05-05T19:05:11Z</time>
      </trkpt>
      <trkpt lat="59.374228" lon="17.702764">
        <ele>33.7</ele>
        <time>2015-05-05T19:05:12Z</time>
      </trkpt>
      <trkpt lat="59.374275" lon="17.702651">
        <ele>33.8</ele>
        <time>2015-05-05T19:05:13Z</time>
      </trkpt>
      <trkpt lat="59.374333" lon="17.70254">
        <ele>34</ele>
        <time>2015-05-05T19:05:14Z</time>
      </trkpt>
      <trkpt lat="59.37439" lon="17.702427">
        <ele>34.2</ele>
        <time>2015-05-05T19:05:15Z</time>
      </trkpt>
      <trkpt lat="59.374433" lon="17.702325">
        <ele>34.4</ele>
        <time>2015-05-05T19:05:16Z</time>
      </trkpt>
      <trkpt lat="59.37448" lon="17.702207">
        <ele>34.6</ele>
        <time>2015-05-05T19:05:17Z</time>
      </trkpt>
      <trkpt lat="59.374536" lon="17.702072">
        <ele>34.9</ele>
        <time>2015-05-05T19:05:18Z</time>
      </trkpt>
      <trkpt lat="59.374585" lon="17.701942">
        <ele>34.8</ele>
        <time>2015-05-05T19:05:19Z</time>
      </trkpt>
      <trkpt lat="59.374633" lon="17.701809">
        <ele>34.7</ele>
        <time>2015-05-05T19:05:20Z</time>
      </trkpt>
      <trkpt lat="59.374679" lon="17.701671">
        <ele>34.5</ele>
        <time>2015-05-05T19:05:21Z</time>
      </trkpt>
      <trkpt lat="59.374718" lon="17.701519">
        <ele>34.3</ele>
        <time>2015-05-05T19:05:22Z</time>
      </trkpt>
      <trkpt lat="59.374749" lon="17.701372">
        <ele>34.1</ele>
        <time>2015-05-05T19:05:23Z</time>
      </trkpt>
      <trkpt lat="59.374786" lon="17.701227">
        <ele>34</ele>
        <time>2015-05-05T19:05:24Z</time>
      </trkpt>
      <trkpt lat="59.374821" lon="17.701081">
        <ele>34</ele>
        <time>2015-05-05T19:05:25Z</time>
      </trkpt>
      <trkpt lat="59.374859" lon="17.700934">
        <ele>34</ele>
        <time>2015-05-05T19:05:26Z</time>
      </trkpt>
      <trkpt lat="59.374897" lon="17.700782">
        <ele>34</ele>
        <time>2015-05-05T19:05:27Z</time>
      </trkpt>
      <trkpt lat="59.374931" lon="17.700633">
        <ele>34</ele>
        <time>2015-05-05T19:05:28Z</time>
      </trkpt>
      <trkpt lat="59.374964" lon="17.700475">
        <ele>34</ele>
        <time>2015-05-05T19:05:29Z</time>
      </trkpt>
      <trkpt lat="59.374987" lon="17.700313">
        <ele>33.9</ele>
        <time>2015-05-05T19:05:30Z</time>
      </trkpt>
      <trkpt lat="59.375019" lon="17.700139">
        <ele>33.7</ele>
        <time>2015-05-05T19:05:31Z</time>
      </trkpt>
      <trkpt lat="59.37504" lon="17.699976">
        <ele>33.5</ele>
        <time>2015-05-05T19:05:32Z</time>
      </trkpt>
      <trkpt lat="59.375058" lon="17.699809">
        <ele>33.3</ele>
        <time>2015-05-05T19:05:33Z</time>
      </trkpt>
      <trkpt lat="59.375067" lon="17.699634">
        <ele>33.1</ele>
        <time>2015-05-05T19:05:34Z</time>
      </trkpt>
      <trkpt lat="59.375076" lon="17.699465">
        <ele>32.9</ele>
        <time>2015-05-05T19:05:35Z</time>
      </trkpt>
      <trkpt lat="59.375087" lon="17.699299">
        <ele>32.9</ele>
        <time>2015-05-05T19:05:36Z</time>
      </trkpt>
      <trkpt lat="59.375103" lon="17.699135">
        <ele>32.8</ele>
        <time>2015-05-05T19:05:37Z</time>
      </trkpt>
      <trkpt lat="59.375122" lon="17.698973">
        <ele>32.7</ele>
        <time>2015-05-05T19:05:38Z</time>
      </trkpt>
      <trkpt lat="59.375137" lon="17.698821">
        <ele>32.7</ele>
        <time>2015-05-05T19:05:39Z</time>
      </trkpt>
      <trkpt lat="59.375151" lon="17.698648">
        <ele>32.9</ele>
        <time>2015-05-05T19:05:40Z</time>
      </trkpt>
      <trkpt lat="59.375168" lon="17.698487">
        <ele>33.2</ele>
        <time>2015-05-05T19:05:41Z</time>
      </trkpt>
      <trkpt lat="59.375189" lon="17.698309">
        <ele>33.6</ele>
        <time>2015-05-05T19:05:42Z</time>
      </trkpt>
      <trkpt lat="59.375214" lon="17.698146">
        <ele>34</ele>
        <time>2015-05-05T19:05:43Z</time>
      </trkpt>
      <trkpt lat="59.375238" lon="17.697975">
        <ele>34.4</ele>
        <time>2015-05-05T19:05:44Z</time>
      </trkpt>
      <trkpt lat="59.375265" lon="17.697806">
        <ele>34.8</ele>
        <time>2015-05-05T19:05:45Z</time>
      </trkpt>
      <trkpt lat="59.375296" lon="17.697632">
        <ele>35.1</ele>
        <time>2015-05-05T19:05:46Z</time>
      </trkpt>
      <trkpt lat="59.375323" lon="17.697468">
        <ele>35.3</ele>
        <time>2015-05-05T19:05:47Z</time>
      </trkpt>
      <trkpt lat="59.375352" lon="17.697307">
        <ele>35.6</ele>
        <time>2015-05-05T19:05:48Z</time>
      </trkpt>
      <trkpt lat="59.375382" lon="17.697146">
        <ele>35.8</ele>
        <time>2015-05-05T19:05:49Z</time>
      </trkpt>
      <trkpt lat="59.375415" lon="17.696983">
        <ele>35.6</ele>
        <time>2015-05-05T19:05:50Z</time>
      </trkpt>
      <trkpt lat="59.375448" lon="17.696812">
        <ele>35</ele>
        <time>2015-05-05T19:05:51Z</time>
      </trkpt>
      <trkpt lat="59.375481" lon="17.696634">
        <ele>34.4</ele>
        <time>2015-05-05T19:05:52Z</time>
      </trkpt>
      <trkpt lat="59.375513" lon="17.696474">
        <ele>33.8</ele>
        <time>2015-05-05T19:05:53Z</time>
      </trkpt>
      <trkpt lat="59.375543" lon="17.696316">
        <ele>33.2</ele>
        <time>2015-05-05T19:05:54Z</time>
      </trkpt>
      <trkpt lat="59.375577" lon="17.696145">
        <ele>32.7</ele>
        <time>2015-05-05T19:05:55Z</time>
      </trkpt>
      <trkpt lat="59.375607" lon="17.695988">
        <ele>32.2</ele>
        <time>2015-05-05T19:05:56Z</time>
      </trkpt>
      <trkpt lat="59.375641" lon="17.695822">
        <ele>31.7</ele>
        <time>2015-05-05T19:05:57Z</time>
      </trkpt>
      <trkpt lat="59.375677" lon="17.695659">
        <ele>31.1</ele>
        <time>2015-05-05T19:05:58Z</time>
      </trkpt>
      <trkpt lat="59.375718" lon="17.695467">
        <ele>30.4</ele>
        <time>2015-05-05T19:05:59Z</time>
      </trkpt>
      <trkpt lat="59.375753" lon="17.695207">
        <ele>30.1</ele>
        <time>2015-05-05T19:06:00Z</time>
      </trkpt>
      <trkpt lat="59.37579" lon="17.695055">
        <ele>30</ele>
        <time>2015-05-05T19:06:01Z</time>
      </trkpt>
      <trkpt lat="59.375832" lon="17.694909">
        <ele>30</ele>
        <time>2015-05-05T19:06:02Z</time>
      </trkpt>
      <trkpt lat="59.375877" lon="17.69476">
        <ele>30.1</ele>
        <time>2015-05-05T19:06:03Z</time>
      </trkpt>
      <trkpt lat="59.375924" lon="17.694619">
        <ele>30.2</ele>
        <time>2015-05-05T19:06:04Z</time>
      </trkpt>
      <trkpt lat="59.375971" lon="17.694483">
        <ele>30.5</ele>
        <time>2015-05-05T19:06:05Z</time>
      </trkpt>
      <trkpt lat="59.376031" lon="17.694355">
        <ele>30.8</ele>
        <time>2015-05-05T19:06:06Z</time>
      </trkpt>
      <trkpt lat="59.376094" lon="17.694205">
        <ele>31.3</ele>
        <time>2015-05-05T19:06:07Z</time>
      </trkpt>
      <trkpt lat="59.376149" lon="17.69408">
        <ele>31.7</ele>
        <time>2015-05-05T19:06:08Z</time>
      </trkpt>
      <trkpt lat="59.376222" lon="17.693979">
        <ele>32.3</ele>
        <time>2015-05-05T19:06:09Z</time>
      </trkpt>
      <trkpt lat="59.376301" lon="17.693869">
        <ele>32.8</ele>
        <time>2015-05-05T19:06:10Z</time>
      </trkpt>
      <trkpt lat="59.376373" lon="17.693766">
        <ele>33.1</ele>
        <time>2015-05-05T19:06:11Z</time>
      </trkpt>
      <trkpt lat="59.376454" lon="17.693674">
        <ele>33.7</ele>
        <time>2015-05-05T19:06:12Z</time>
      </trkpt>
      <trkpt lat="59.376537" lon="17.69359">
        <ele>34.3</ele>
        <time>2015-05-05T19:06:13Z</time>
      </trkpt>
      <trkpt lat="59.376619" lon="17.693519">
        <ele>34.9</ele>
        <time>2015-05-05T19:06:14Z</time>
      </trkpt>
      <trkpt lat="59.376711" lon="17.693457">
        <ele>35.5</ele>
        <time>2015-05-05T19:06:15Z</time>
      </trkpt>
      <trkpt lat="59.376798" lon="17.693398">
        <ele>36.2</ele>
        <time>2015-05-05T19:06:16Z</time>
      </trkpt>
      <trkpt lat="59.376895" lon="17.693344">
        <ele>36.9</ele>
        <time>2015-05-05T19:06:17Z</time>
      </trkpt>
      <trkpt lat="59.376989" lon="17.693272">
        <ele>37.7</ele>
        <time>2015-05-05T19:06:18Z</time>
      </trkpt>
      <trkpt lat="59.377091" lon="17.693209">
        <ele>38.5</ele>
        <time>2015-05-05T19:06:19Z</time>
      </trkpt>
      <trkpt lat="59.377175" lon="17.693136">
        <ele>38.6</ele>
        <time>2015-05-05T19:06:20Z</time>
      </trkpt>
      <trkpt lat="59.377263" lon="17.693069">
        <ele>38.6</ele>
        <time>2015-05-05T19:06:21Z</time>
      </trkpt>
      <trkpt lat="59.377336" lon="17.692985">
        <ele>38.9</ele>
        <time>2015-05-05T19:06:22Z</time>
      </trkpt>
      <trkpt lat="59.377423" lon="17.692917">
        <ele>39</ele>
        <time>2015-05-05T19:06:23Z</time>
      </trkpt>
      <trkpt lat="59.377502" lon="17.692834">
        <ele>39.1</ele>
        <time>2015-05-05T19:06:24Z</time>
      </trkpt>
      <trkpt lat="59.377596" lon="17.692757">
        <ele>39.1</ele>
        <time>2015-05-05T19:06:25Z</time>
      </trkpt>
      <trkpt lat="59.377679" lon="17.692666">
        <ele>39.2</ele>
        <time>2015-05-05T19:06:26Z</time>
      </trkpt>
      <trkpt lat="59.37776" lon="17.692566">
        <ele>39.5</ele>
        <time>2015-05-05T19:06:27Z</time>
      </trkpt>
      <trkpt lat="59.377845" lon="17.692463">
        <ele>39.7</ele>
        <time>2015-05-05T19:06:28Z</time>
      </trkpt>
      <trkpt lat="59.377932" lon="17.692373">
        <ele>39.8</ele>
        <time>2015-05-05T19:06:29Z</time>
      </trkpt>
      <trkpt lat="59.378028" lon="17.692292">
        <ele>39.5</ele>
        <time>2015-05-05T19:06:30Z</time>
      </trkpt>
      <trkpt lat="59.378111" lon="17.692193">
        <ele>39.4</ele>
        <time>2015-05-05T19:06:31Z</time>
      </trkpt>
      <trkpt lat="59.378185" lon="17.692101">
        <ele>39.3</ele>
        <time>2015-05-05T19:06:32Z</time>
      </trkpt>
      <trkpt lat="59.378275" lon="17.692013">
        <ele>38.8</ele>
        <time>2015-05-05T19:06:33Z</time>
      </trkpt>
      <trkpt lat="59.378363" lon="17.691909">
        <ele>38.5</ele>
        <time>2015-05-05T19:06:34Z</time>
      </trkpt>
      <trkpt lat="59.378448" lon="17.691819">
        <ele>38.1</ele>
        <time>2015-05-05T19:06:35Z</time>
      </trkpt>
      <trkpt lat="59.37853" lon="17.691734">
        <ele>37.7</ele>
        <time>2015-05-05T19:06:36Z</time>
      </trkpt>
      <trkpt lat="59.378619" lon="17.691618">
        <ele>37.4</ele>
        <time>2015-05-05T19:06:37Z</time>
      </trkpt>
      <trkpt lat="59.37871" lon="17.69152">
        <ele>37.1</ele>
        <time>2015-05-05T19:06:38Z</time>
      </trkpt>
      <trkpt lat="59.3788" lon="17.691427">
        <ele>36.8</ele>
        <time>2015-05-05T19:06:39Z</time>
      </trkpt>
      <trkpt lat="59.37889" lon="17.691335">
        <ele>36.7</ele>
        <time>2015-05-05T19:06:40Z</time>
      </trkpt>
      <trkpt lat="59.378974" lon="17.691251">
        <ele>36.7</ele>
        <time>2015-05-05T19:06:41Z</time>
      </trkpt>
      <trkpt lat="59.37906" lon="17.691159">
        <ele>36.5</ele>
        <time>2015-05-05T19:06:42Z</time>
      </trkpt>
      <trkpt lat="59.379141" lon="17.691064">
        <ele>36.5</ele>
        <time>2015-05-05T19:06:43Z</time>
      </trkpt>
      <trkpt lat="59.379223" lon="17.690979">
        <ele>36.5</ele>
        <time>2015-05-05T19:06:44Z</time>
      </trkpt>
      <trkpt lat="59.379302" lon="17.690883">
        <ele>36.6</ele>
        <time>2015-05-05T19:06:45Z</time>
      </trkpt>
      <trkpt lat="59.379384" lon="17.690793">
        <ele>36.7</ele>
        <time>2015-05-05T19:06:46Z</time>
      </trkpt>
      <trkpt lat="59.379465" lon="17.690705">
        <ele>36.8</ele>
        <time>2015-05-05T19:06:47Z</time>
      </trkpt>
      <trkpt lat="59.379529" lon="17.690619">
        <ele>37</ele>
        <time>2015-05-05T19:06:48Z</time>
      </trkpt>
      <trkpt lat="59.379596" lon="17.69053">
        <ele>37.3</ele>
        <time>2015-05-05T19:06:49Z</time>
      </trkpt>
      <trkpt lat="59.379673" lon="17.690457">
        <ele>37.3</ele>
        <time>2015-05-05T19:06:50Z</time>
      </trkpt>
      <trkpt lat="59.379753" lon="17.69038">
        <ele>37.3</ele>
        <time>2015-05-05T19:06:51Z</time>
      </trkpt>
      <trkpt lat="59.379805" lon="17.690291">
        <ele>37.5</ele>
        <time>2015-05-05T19:06:52Z</time>
      </trkpt>
      <trkpt lat="59.379852" lon="17.690193">
        <ele>37.7</ele>
        <time>2015-05-05T19:06:53Z</time>
      </trkpt>
      <trkpt lat="59.379925" lon="17.690089">
        <ele>37.9</ele>
        <time>2015-05-05T19:06:54Z</time>
      </trkpt>
      <trkpt lat="59.38" lon="17.689995">
        <ele>38</ele>
        <time>2015-05-05T19:06:55Z</time>
      </trkpt>
      <trkpt lat="59.38008" lon="17.689894">
        <ele>38.2</ele>
        <time>2015-05-05T19:06:56Z</time>
      </trkpt>
      <trkpt lat="59.380167" lon="17.689802">
        <ele>38.4</ele>
        <time>2015-05-05T19:06:57Z</time>
      </trkpt>
      <trkpt lat="59.380253" lon="17.689686">
        <ele>38.8</ele>
        <time>2015-05-05T19:06:58Z</time>
      </trkpt>
      <trkpt lat="59.380338" lon="17.689584">
        <ele>39.2</ele>
        <time>2015-05-05T19:06:59Z</time>
      </trkpt>
      <trkpt lat="59.38042" lon="17.689484">
        <ele>39.6</ele>
        <time>2015-05-05T19:07:00Z</time>
      </trkpt>
      <trkpt lat="59.380493" lon="17.689359">
        <ele>39.3</ele>
        <time>2015-05-05T19:07:01Z</time>
      </trkpt>
      <trkpt lat="59.380563" lon="17.689235">
        <ele>39</ele>
        <time>2015-05-05T19:07:02Z</time>
      </trkpt>
      <trkpt lat="59.380652" lon="17.689116">
        <ele>38.3</ele>
        <time>2015-05-05T19:07:03Z</time>
      </trkpt>
      <trkpt lat="59.380742" lon="17.689003">
        <ele>37.5</ele>
        <time>2015-05-05T19:07:04Z</time>
      </trkpt>
      <trkpt lat="59.380827" lon="17.688876">
        <ele>36.6</ele>
        <time>2015-05-05T19:07:05Z</time>
      </trkpt>
      <trkpt lat="59.380929" lon="17.68873">
        <ele>35.4</ele>
        <time>2015-05-05T19:07:06Z</time>
      </trkpt>
      <trkpt lat="59.381017" lon="17.688588">
        <ele>34.1</ele>
        <time>2015-05-05T19:07:07Z</time>
      </trkpt>
      <trkpt lat="59.381112" lon="17.688455">
        <ele>32.6</ele>
        <time>2015-05-05T19:07:08Z</time>
      </trkpt>
      <trkpt lat="59.381214" lon="17.688332">
        <ele>31.1</ele>
        <time>2015-05-05T19:07:09Z</time>
      </trkpt>
      <trkpt lat="59.381306" lon="17.688183">
        <ele>30.3</ele>
        <time>2015-05-05T19:07:10Z</time>
      </trkpt>
      <trkpt lat="59.381402" lon="17.688052">
        <ele>29.9</ele>
        <time>2015-05-05T19:07:11Z</time>
      </trkpt>
      <trkpt lat="59.381499" lon="17.687931">
        <ele>29.5</ele>
        <time>2015-05-05T19:07:12Z</time>
      </trkpt>
      <trkpt lat="59.381612" lon="17.687772">
        <ele>29</ele>
        <time>2015-05-05T19:07:13Z</time>
      </trkpt>
      <trkpt lat="59.381722" lon="17.687643">
        <ele>28.5</ele>
        <time>2015-05-05T19:07:14Z</time>
      </trkpt>
      <trkpt lat="59.381824" lon="17.687527">
        <ele>28</ele>
        <time>2015-05-05T19:07:15Z</time>
      </trkpt>
      <trkpt lat="59.38192" lon="17.687424">
        <ele>27.6</ele>
        <time>2015-05-05T19:07:16Z</time>
      </trkpt>
      <trkpt lat="59.38203" lon="17.687333">
        <ele>27</ele>
        <time>2015-05-05T19:07:17Z</time>
      </trkpt>
      <trkpt lat="59.382148" lon="17.687232">
        <ele>26.8</ele>
        <time>2015-05-05T19:07:18Z</time>
      </trkpt>
      <trkpt lat="59.38225" lon="17.68714">
        <ele>26.9</ele>
        <time>2015-05-05T19:07:19Z</time>
      </trkpt>
      <trkpt lat="59.382353" lon="17.687051">
        <ele>27.2</ele>
        <time>2015-05-05T19:07:20Z</time>
      </trkpt>
      <trkpt lat="59.382456" lon="17.686957">
        <ele>27.9</ele>
        <time>2015-05-05T19:07:21Z</time>
      </trkpt>
      <trkpt lat="59.382562" lon="17.686855">
        <ele>28.7</ele>
        <time>2015-05-05T19:07:22Z</time>
      </trkpt>
      <trkpt lat="59.382658" lon="17.686766">
        <ele>29.4</ele>
        <time>2015-05-05T19:07:23Z</time>
      </trkpt>
      <trkpt lat="59.382763" lon="17.686687">
        <ele>30.2</ele>
        <time>2015-05-05T19:07:24Z</time>
      </trkpt>
      <trkpt lat="59.382846" lon="17.686593">
        <ele>31</ele>
        <time>2015-05-05T19:07:25Z</time>
      </trkpt>
      <trkpt lat="59.38295" lon="17.686505">
        <ele>31.8</ele>
        <time>2015-05-05T19:07:26Z</time>
      </trkpt>
      <trkpt lat="59.383046" lon="17.686423">
        <ele>32.1</ele>
        <time>2015-05-05T19:07:27Z</time>
      </trkpt>
      <trkpt lat="59.383139" lon="17.686336">
        <ele>32.5</ele>
        <time>2015-05-05T19:07:28Z</time>
      </trkpt>
      <trkpt lat="59.38323" lon="17.686238">
        <ele>33</ele>
        <time>2015-05-05T19:07:29Z</time>
      </trkpt>
      <trkpt lat="59.383326" lon="17.686142">
        <ele>33.4</ele>
        <time>2015-05-05T19:07:30Z</time>
      </trkpt>
      <trkpt lat="59.383414" lon="17.68601">
        <ele>34.1</ele>
        <time>2015-05-05T19:07:31Z</time>
      </trkpt>
      <trkpt lat="59.383495" lon="17.685899">
        <ele>34.6</ele>
        <time>2015-05-05T19:07:32Z</time>
      </trkpt>
      <trkpt lat="59.383581" lon="17.685783">
        <ele>35.1</ele>
        <time>2015-05-05T19:07:33Z</time>
      </trkpt>
      <trkpt lat="59.383666" lon="17.685653">
        <ele>35.7</ele>
        <time>2015-05-05T19:07:34Z</time>
      </trkpt>
      <trkpt lat="59.383742" lon="17.685521">
        <ele>36.3</ele>
        <time>2015-05-05T19:07:35Z</time>
      </trkpt>
      <trkpt lat="59.38383" lon="17.685399">
        <ele>36.3</ele>
        <time>2015-05-05T19:07:36Z</time>
      </trkpt>
      <trkpt lat="59.383912" lon="17.685265">
        <ele>35.9</ele>
        <time>2015-05-05T19:07:37Z</time>
      </trkpt>
      <trkpt lat="59.383993" lon="17.685116">
        <ele>35.4</ele>
        <time>2015-05-05T19:07:38Z</time>
      </trkpt>
      <trkpt lat="59.38408" lon="17.684987">
        <ele>34.8</ele>
        <time>2015-05-05T19:07:39Z</time>
      </trkpt>
      <trkpt lat="59.384164" lon="17.684869">
        <ele>34</ele>
        <time>2015-05-05T19:07:40Z</time>
      </trkpt>
      <trkpt lat="59.38425" lon="17.68476">
        <ele>33.1</ele>
        <time>2015-05-05T19:07:41Z</time>
      </trkpt>
      <trkpt lat="59.384335" lon="17.684622">
        <ele>32.2</ele>
        <time>2015-05-05T19:07:42Z</time>
      </trkpt>
      <trkpt lat="59.384419" lon="17.68448">
        <ele>31.2</ele>
        <time>2015-05-05T19:07:43Z</time>
      </trkpt>
      <trkpt lat="59.384507" lon="17.684355">
        <ele>30.1</ele>
        <time>2015-05-05T19:07:44Z</time>
      </trkpt>
      <trkpt lat="59.384586" lon="17.684221">
        <ele>29</ele>
        <time>2015-05-05T19:07:45Z</time>
      </trkpt>
      <trkpt lat="59.384674" lon="17.684107">
        <ele>28.3</ele>
        <time>2015-05-05T19:07:46Z</time>
      </trkpt>
      <trkpt lat="59.384765" lon="17.684001">
        <ele>27.5</ele>
        <time>2015-05-05T19:07:47Z</time>
      </trkpt>
      <trkpt lat="59.384855" lon="17.683888">
        <ele>26.6</ele>
        <time>2015-05-05T19:07:48Z</time>
      </trkpt>
      <trkpt lat="59.384948" lon="17.68378">
        <ele>25.6</ele>
        <time>2015-05-05T19:07:49Z</time>
      </trkpt>
      <trkpt lat="59.385055" lon="17.683693">
        <ele>24.5</ele>
        <time>2015-05-05T19:07:50Z</time>
      </trkpt>
      <trkpt lat="59.385164" lon="17.683623">
        <ele>23.5</ele>
        <time>2015-05-05T19:07:51Z</time>
      </trkpt>
      <trkpt lat="59.385258" lon="17.683563">
        <ele>22.6</ele>
        <time>2015-05-05T19:07:52Z</time>
      </trkpt>
      <trkpt lat="59.385378" lon="17.683491">
        <ele>21.4</ele>
        <time>2015-05-05T19:07:53Z</time>
      </trkpt>
      <trkpt lat="59.385483" lon="17.683415">
        <ele>21</ele>
        <time>2015-05-05T19:07:54Z</time>
      </trkpt>
      <trkpt lat="59.385581" lon="17.683353">
        <ele>21</ele>
        <time>2015-05-05T19:07:55Z</time>
      </trkpt>
      <trkpt lat="59.385687" lon="17.683302">
        <ele>21</ele>
        <time>2015-05-05T19:07:56Z</time>
      </trkpt>
      <trkpt lat="59.38578" lon="17.683243">
        <ele>21</ele>
        <time>2015-05-05T19:07:57Z</time>
      </trkpt>
      <trkpt lat="59.385882" lon="17.683174">
        <ele>21</ele>
        <time>2015-05-05T19:07:58Z</time>
      </trkpt>
      <trkpt lat="59.385988" lon="17.68312">
        <ele>21</ele>
        <time>2015-05-05T19:07:59Z</time>
      </trkpt>
      <trkpt lat="59.386081" lon="17.683058">
        <ele>21</ele>
        <time>2015-05-05T19:08:00Z</time>
      </trkpt>
      <trkpt lat="59.386186" lon="17.682994">
        <ele>21</ele>
        <time>2015-05-05T19:08:01Z</time>
      </trkpt>
      <trkpt lat="59.386288" lon="17.682936">
        <ele>21</ele>
        <time>2015-05-05T19:08:02Z</time>
      </trkpt>
      <trkpt lat="59.386394" lon="17.682873">
        <ele>21.1</ele>
        <time>2015-05-05T19:08:03Z</time>
      </trkpt>
      <trkpt lat="59.386487" lon="17.682814">
        <ele>21.2</ele>
        <time>2015-05-05T19:08:04Z</time>
      </trkpt>
      <trkpt lat="59.38658" lon="17.682744">
        <ele>21.1</ele>
        <time>2015-05-05T19:08:05Z</time>
      </trkpt>
      <trkpt lat="59.38667" lon="17.682662">
        <ele>21</ele>
        <time>2015-05-05T19:08:06Z</time>
      </trkpt>
      <trkpt lat="59.386763" lon="17.682577">
        <ele>20.9</ele>
        <time>2015-05-05T19:08:07Z</time>
      </trkpt>
      <trkpt lat="59.386852" lon="17.682477">
        <ele>20.6</ele>
        <time>2015-05-05T19:08:08Z</time>
      </trkpt>
      <trkpt lat="59.386923" lon="17.682336">
        <ele>20.1</ele>
        <time>2015-05-05T19:08:09Z</time>
      </trkpt>
      <trkpt lat="59.387001" lon="17.682201">
        <ele>19.6</ele>
        <time>2015-05-05T19:08:10Z</time>
      </trkpt>
      <trkpt lat="59.387064" lon="17.682034">
        <ele>19</ele>
        <time>2015-05-05T19:08:11Z</time>
      </trkpt>
      <trkpt lat="59.387133" lon="17.681873">
        <ele>19</ele>
        <time>2015-05-05T19:08:12Z</time>
      </trkpt>
      <trkpt lat="59.387197" lon="17.681702">
        <ele>18.9</ele>
        <time>2015-05-05T19:08:13Z</time>
      </trkpt>
      <trkpt lat="59.387254" lon="17.681533">
        <ele>18.9</ele>
        <time>2015-05-05T19:08:14Z</time>
      </trkpt>
      <trkpt lat="59.387313" lon="17.681357">
        <ele>18.8</ele>
        <time>2015-05-05T19:08:15Z</time>
      </trkpt>
      <trkpt lat="59.387371" lon="17.681188">
        <ele>18.7</ele>
        <time>2015-05-05T19:08:16Z</time>
      </trkpt>
      <trkpt lat="59.387424" lon="17.681008">
        <ele>18.6</ele>
        <time>2015-05-05T19:08:17Z</time>
      </trkpt>
      <trkpt lat="59.387478" lon="17.680836">
        <ele>18.5</ele>
        <time>2015-05-05T19:08:18Z</time>
      </trkpt>
      <trkpt lat="59.387535" lon="17.680661">
        <ele>18.5</ele>
        <time>2015-05-05T19:08:19Z</time>
      </trkpt>
      <trkpt lat="59.387587" lon="17.680484">
        <ele>18.4</ele>
        <time>2015-05-05T19:08:20Z</time>
      </trkpt>
      <trkpt lat="59.387639" lon="17.680296">
        <ele>18.5</ele>
        <time>2015-05-05T19:08:21Z</time>
      </trkpt>
      <trkpt lat="59.387694" lon="17.680124">
        <ele>18.6</ele>
        <time>2015-05-05T19:08:22Z</time>
      </trkpt>
      <trkpt lat="59.387745" lon="17.679941">
        <ele>18.8</ele>
        <time>2015-05-05T19:08:23Z</time>
      </trkpt>
      <trkpt lat="59.387798" lon="17.67975">
        <ele>18.9</ele>
        <time>2015-05-05T19:08:24Z</time>
      </trkpt>
      <trkpt lat="59.387854" lon="17.679573">
        <ele>19.1</ele>
        <time>2015-05-05T19:08:25Z</time>
      </trkpt>
      <trkpt lat="59.387911" lon="17.679393">
        <ele>19</ele>
        <time>2015-05-05T19:08:26Z</time>
      </trkpt>
      <trkpt lat="59.387948" lon="17.67916">
        <ele>19</ele>
        <time>2015-05-05T19:08:27Z</time>
      </trkpt>
      <trkpt lat="59.388001" lon="17.678966">
        <ele>19</ele>
        <time>2015-05-05T19:08:28Z</time>
      </trkpt>
      <trkpt lat="59.38806" lon="17.678802">
        <ele>19</ele>
        <time>2015-05-05T19:08:29Z</time>
      </trkpt>
      <trkpt lat="59.388118" lon="17.678651">
        <ele>19.1</ele>
        <time>2015-05-05T19:08:30Z</time>
      </trkpt>
      <trkpt lat="59.388173" lon="17.678481">
        <ele>19.3</ele>
        <time>2015-05-05T19:08:31Z</time>
      </trkpt>
      <trkpt lat="59.388235" lon="17.678311">
        <ele>19.5</ele>
        <time>2015-05-05T19:08:32Z</time>
      </trkpt>
      <trkpt lat="59.38829" lon="17.678144">
        <ele>19.7</ele>
        <time>2015-05-05T19:08:33Z</time>
      </trkpt>
      <trkpt lat="59.38834" lon="17.677973">
        <ele>19.9</ele>
        <time>2015-05-05T19:08:34Z</time>
      </trkpt>
      <trkpt lat="59.388392" lon="17.677796">
        <ele>20</ele>
        <time>2015-05-05T19:08:35Z</time>
      </trkpt>
      <trkpt lat="59.388436" lon="17.677619">
        <ele>20</ele>
        <time>2015-05-05T19:08:36Z</time>
      </trkpt>
      <trkpt lat="59.388481" lon="17.677438">
        <ele>20</ele>
        <time>2015-05-05T19:08:37Z</time>
      </trkpt>
      <trkpt lat="59.388525" lon="17.677253">
        <ele>20</ele>
        <time>2015-05-05T19:08:38Z</time>
      </trkpt>
      <trkpt lat="59.388571" lon="17.677074">
        <ele>20</ele>
        <time>2015-05-05T19:08:39Z</time>
      </trkpt>
      <trkpt lat="59.388621" lon="17.676878">
        <ele>19.8</ele>
        <time>2015-05-05T19:08:40Z</time>
      </trkpt>
      <trkpt lat="59.38866" lon="17.676698">
        <ele>19.6</ele>
        <time>2015-05-05T19:08:41Z</time>
      </trkpt>
      <trkpt lat="59.388706" lon="17.676515">
        <ele>19.4</ele>
        <time>2015-05-05T19:08:42Z</time>
      </trkpt>
      <trkpt lat="59.388744" lon="17.676323">
        <ele>19.1</ele>
        <time>2015-05-05T19:08:43Z</time>
      </trkpt>
      <trkpt lat="59.388773" lon="17.676145">
        <ele>19</ele>
        <time>2015-05-05T19:08:44Z</time>
      </trkpt>
      <trkpt lat="59.388807" lon="17.67596">
        <ele>19.1</ele>
        <time>2015-05-05T19:08:45Z</time>
      </trkpt>
      <trkpt lat="59.388845" lon="17.675782">
        <ele>19.1</ele>
        <time>2015-05-05T19:08:46Z</time>
      </trkpt>
      <trkpt lat="59.388887" lon="17.675595">
        <ele>19.2</ele>
        <time>2015-05-05T19:08:47Z</time>
      </trkpt>
      <trkpt lat="59.388922" lon="17.675399">
        <ele>19.2</ele>
        <time>2015-05-05T19:08:48Z</time>
      </trkpt>
      <trkpt lat="59.388956" lon="17.675223">
        <ele>19</ele>
        <time>2015-05-05T19:08:49Z</time>
      </trkpt>
      <trkpt lat="59.388994" lon="17.675036">
        <ele>18.8</ele>
        <time>2015-05-05T19:08:50Z</time>
      </trkpt>
      <trkpt lat="59.389039" lon="17.674848">
        <ele>18.7</ele>
        <time>2015-05-05T19:08:51Z</time>
      </trkpt>
      <trkpt lat="59.389082" lon="17.674668">
        <ele>18.5</ele>
        <time>2015-05-05T19:08:52Z</time>
      </trkpt>
      <trkpt lat="59.389117" lon="17.674487">
        <ele>18.4</ele>
        <time>2015-05-05T19:08:53Z</time>
      </trkpt>
      <trkpt lat="59.389156" lon="17.674312">
        <ele>18.3</ele>
        <time>2015-05-05T19:08:54Z</time>
      </trkpt>
      <trkpt lat="59.389201" lon="17.67412">
        <ele>18.2</ele>
        <time>2015-05-05T19:08:55Z</time>
      </trkpt>
      <trkpt lat="59.389248" lon="17.673947">
        <ele>18.1</ele>
        <time>2015-05-05T19:08:56Z</time>
      </trkpt>
      <trkpt lat="59.389295" lon="17.673764">
        <ele>18</ele>
        <time>2015-05-05T19:08:57Z</time>
      </trkpt>
      <trkpt lat="59.389331" lon="17.673558">
        <ele>17.9</ele>
        <time>2015-05-05T19:08:58Z</time>
      </trkpt>
      <trkpt lat="59.389377" lon="17.673366">
        <ele>17.9</ele>
        <time>2015-05-05T19:08:59Z</time>
      </trkpt>
      <trkpt lat="59.389424" lon="17.673153">
        <ele>17.9</ele>
        <time>2015-05-05T19:09:00Z</time>
      </trkpt>
      <trkpt lat="59.389466" lon="17.67295">
        <ele>17.9</ele>
        <time>2015-05-05T19:09:01Z</time>
      </trkpt>
      <trkpt lat="59.389519" lon="17.672744">
        <ele>17.9</ele>
        <time>2015-05-05T19:09:02Z</time>
      </trkpt>
      <trkpt lat="59.38958" lon="17.672551">
        <ele>18</ele>
        <time>2015-05-05T19:09:03Z</time>
      </trkpt>
      <trkpt lat="59.389628" lon="17.67236">
        <ele>18</ele>
        <time>2015-05-05T19:09:04Z</time>
      </trkpt>
      <trkpt lat="59.389678" lon="17.672152">
        <ele>18</ele>
        <time>2015-05-05T19:09:05Z</time>
      </trkpt>
      <trkpt lat="59.389726" lon="17.671952">
        <ele>17.8</ele>
        <time>2015-05-05T19:09:06Z</time>
      </trkpt>
      <trkpt lat="59.389777" lon="17.671758">
        <ele>17.6</ele>
        <time>2015-05-05T19:09:07Z</time>
      </trkpt>
      <trkpt lat="59.389821" lon="17.671557">
        <ele>17.4</ele>
        <time>2015-05-05T19:09:08Z</time>
      </trkpt>
      <trkpt lat="59.389865" lon="17.671352">
        <ele>17.1</ele>
        <time>2015-05-05T19:09:09Z</time>
      </trkpt>
      <trkpt lat="59.389921" lon="17.671101">
        <ele>16.8</ele>
        <time>2015-05-05T19:09:10Z</time>
      </trkpt>
      <trkpt lat="59.389963" lon="17.670895">
        <ele>16.6</ele>
        <time>2015-05-05T19:09:11Z</time>
      </trkpt>
      <trkpt lat="59.390006" lon="17.67068">
        <ele>16.3</ele>
        <time>2015-05-05T19:09:12Z</time>
      </trkpt>
      <trkpt lat="59.390045" lon="17.670467">
        <ele>16.1</ele>
        <time>2015-05-05T19:09:13Z</time>
      </trkpt>
      <trkpt lat="59.39008" lon="17.670257">
        <ele>15.8</ele>
        <time>2015-05-05T19:09:14Z</time>
      </trkpt>
      <trkpt lat="59.390118" lon="17.670023">
        <ele>15.5</ele>
        <time>2015-05-05T19:09:15Z</time>
      </trkpt>
      <trkpt lat="59.39015" lon="17.669803">
        <ele>15.3</ele>
        <time>2015-05-05T19:09:16Z</time>
      </trkpt>
      <trkpt lat="59.39017" lon="17.669591">
        <ele>15</ele>
        <time>2015-05-05T19:09:17Z</time>
      </trkpt>
      <trkpt lat="59.390189" lon="17.669371">
        <ele>14.9</ele>
        <time>2015-05-05T19:09:18Z</time>
      </trkpt>
      <trkpt lat="59.390212" lon="17.669139">
        <ele>14.9</ele>
        <time>2015-05-05T19:09:19Z</time>
      </trkpt>
      <trkpt lat="59.390229" lon="17.668892">
        <ele>14.8</ele>
        <time>2015-05-05T19:09:20Z</time>
      </trkpt>
      <trkpt lat="59.39024" lon="17.668661">
        <ele>14.8</ele>
        <time>2015-05-05T19:09:21Z</time>
      </trkpt>
      <trkpt lat="59.390252" lon="17.668425">
        <ele>14.8</ele>
        <time>2015-05-05T19:09:22Z</time>
      </trkpt>
      <trkpt lat="59.390269" lon="17.668178">
        <ele>14.8</ele>
        <time>2015-05-05T19:09:23Z</time>
      </trkpt>
      <trkpt lat="59.390289" lon="17.667942">
        <ele>14.8</ele>
        <time>2015-05-05T19:09:24Z</time>
      </trkpt>
      <trkpt lat="59.390306" lon="17.667707">
        <ele>14.9</ele>
        <time>2015-05-05T19:09:25Z</time>
      </trkpt>
      <trkpt lat="59.390324" lon="17.667467">
        <ele>14.9</ele>
        <time>2015-05-05T19:09:26Z</time>
      </trkpt>
      <trkpt lat="59.390355" lon="17.667231">
        <ele>14.9</ele>
        <time>2015-05-05T19:09:27Z</time>
      </trkpt>
      <trkpt lat="59.390389" lon="17.667003">
        <ele>15.1</ele>
        <time>2015-05-05T19:09:28Z</time>
      </trkpt>
      <trkpt lat="59.390423" lon="17.666781">
        <ele>15.4</ele>
        <time>2015-05-05T19:09:29Z</time>
      </trkpt>
      <trkpt lat="59.390458" lon="17.66656">
        <ele>15.7</ele>
        <time>2015-05-05T19:09:30Z</time>
      </trkpt>
      <trkpt lat="59.390493" lon="17.666339">
        <ele>16</ele>
        <time>2015-05-05T19:09:31Z</time>
      </trkpt>
      <trkpt lat="59.390541" lon="17.666135">
        <ele>16.3</ele>
        <time>2015-05-05T19:09:32Z</time>
      </trkpt>
      <trkpt lat="59.390587" lon="17.665921">
        <ele>16.6</ele>
        <time>2015-05-05T19:09:33Z</time>
      </trkpt>
      <trkpt lat="59.390643" lon="17.665701">
        <ele>16.9</ele>
        <time>2015-05-05T19:09:34Z</time>
      </trkpt>
      <trkpt lat="59.390694" lon="17.665488">
        <ele>17.2</ele>
        <time>2015-05-05T19:09:35Z</time>
      </trkpt>
      <trkpt lat="59.390741" lon="17.66529">
        <ele>17.8</ele>
        <time>2015-05-05T19:09:36Z</time>
      </trkpt>
      <trkpt lat="59.390791" lon="17.665091">
        <ele>18.6</ele>
        <time>2015-05-05T19:09:37Z</time>
      </trkpt>
      <trkpt lat="59.390842" lon="17.66489">
        <ele>19.4</ele>
        <time>2015-05-05T19:09:38Z</time>
      </trkpt>
      <trkpt lat="59.390887" lon="17.664698">
        <ele>20.2</ele>
        <time>2015-05-05T19:09:39Z</time>
      </trkpt>
      <trkpt lat="59.390934" lon="17.664509">
        <ele>20.8</ele>
        <time>2015-05-05T19:09:40Z</time>
      </trkpt>
      <trkpt lat="59.390983" lon="17.664308">
        <ele>21.3</ele>
        <time>2015-05-05T19:09:41Z</time>
      </trkpt>
      <trkpt lat="59.391032" lon="17.664118">
        <ele>21.9</ele>
        <time>2015-05-05T19:09:42Z</time>
      </trkpt>
      <trkpt lat="59.391079" lon="17.66393">
        <ele>22.4</ele>
        <time>2015-05-05T19:09:43Z</time>
      </trkpt>
      <trkpt lat="59.391121" lon="17.663743">
        <ele>22.9</ele>
        <time>2015-05-05T19:09:44Z</time>
      </trkpt>
      <trkpt lat="59.39116" lon="17.66357">
        <ele>23.1</ele>
        <time>2015-05-05T19:09:45Z</time>
      </trkpt>
      <trkpt lat="59.391204" lon="17.663386">
        <ele>23.4</ele>
        <time>2015-05-05T19:09:46Z</time>
      </trkpt>
      <trkpt lat="59.391252" lon="17.663198">
        <ele>23.7</ele>
        <time>2015-05-05T19:09:47Z</time>
      </trkpt>
      <trkpt lat="59.391296" lon="17.663023">
        <ele>23.8</ele>
        <time>2015-05-05T19:09:48Z</time>
      </trkpt>
      <trkpt lat="59.391341" lon="17.662842">
        <ele>23.9</ele>
        <time>2015-05-05T19:09:49Z</time>
      </trkpt>
      <trkpt lat="59.391382" lon="17.662659">
        <ele>23.9</ele>
        <time>2015-05-05T19:09:50Z</time>
      </trkpt>
      <trkpt lat="59.391402" lon="17.662476">
        <ele>24.1</ele>
        <time>2015-05-05T19:09:51Z</time>
      </trkpt>
      <trkpt lat="59.391424" lon="17.662274">
        <ele>24.2</ele>
        <time>2015-05-05T19:09:52Z</time>
      </trkpt>
      <trkpt lat="59.391462" lon="17.662082">
        <ele>24.2</ele>
        <time>2015-05-05T19:09:53Z</time>
      </trkpt>
      <trkpt lat="59.391473" lon="17.661882">
        <ele>23.1</ele>
        <time>2015-05-05T19:09:54Z</time>
      </trkpt>
      <trkpt lat="59.391486" lon="17.661683">
        <ele>22</ele>
        <time>2015-05-05T19:09:55Z</time>
      </trkpt>
      <trkpt lat="59.391502" lon="17.66147">
        <ele>20.9</ele>
        <time>2015-05-05T19:09:56Z</time>
      </trkpt>
      <trkpt lat="59.391516" lon="17.661242">
        <ele>19.6</ele>
        <time>2015-05-05T19:09:57Z</time>
      </trkpt>
      <trkpt lat="59.391541" lon="17.661042">
        <ele>18.7</ele>
        <time>2015-05-05T19:09:58Z</time>
      </trkpt>
      <trkpt lat="59.391544" lon="17.66079">
        <ele>17.6</ele>
        <time>2015-05-05T19:09:59Z</time>
      </trkpt>
      <trkpt lat="59.391575" lon="17.66051">
        <ele>16.4</ele>
        <time>2015-05-05T19:10:00Z</time>
      </trkpt>
      <trkpt lat="59.391591" lon="17.660255">
        <ele>15.9</ele>
        <time>2015-05-05T19:10:01Z</time>
      </trkpt>
      <trkpt lat="59.391605" lon="17.659991">
        <ele>15.7</ele>
        <time>2015-05-05T19:10:02Z</time>
      </trkpt>
      <trkpt lat="59.391628" lon="17.659729">
        <ele>15.5</ele>
        <time>2015-05-05T19:10:03Z</time>
      </trkpt>
      <trkpt lat="59.391646" lon="17.65947">
        <ele>15.4</ele>
        <time>2015-05-05T19:10:04Z</time>
      </trkpt>
      <trkpt lat="59.391667" lon="17.659232">
        <ele>15.3</ele>
        <time>2015-05-05T19:10:05Z</time>
      </trkpt>
      <trkpt lat="59.391688" lon="17.658993">
        <ele>15.2</ele>
        <time>2015-05-05T19:10:06Z</time>
      </trkpt>
      <trkpt lat="59.39171" lon="17.658749">
        <ele>15.1</ele>
        <time>2015-05-05T19:10:07Z</time>
      </trkpt>
      <trkpt lat="59.391728" lon="17.658518">
        <ele>15.7</ele>
        <time>2015-05-05T19:10:08Z</time>
      </trkpt>
      <trkpt lat="59.391746" lon="17.658298">
        <ele>16.3</ele>
        <time>2015-05-05T19:10:09Z</time>
      </trkpt>
      <trkpt lat="59.391766" lon="17.658081">
        <ele>16.8</ele>
        <time>2015-05-05T19:10:10Z</time>
      </trkpt>
      <trkpt lat="59.391784" lon="17.657875">
        <ele>17.4</ele>
        <time>2015-05-05T19:10:11Z</time>
      </trkpt>
      <trkpt lat="59.391812" lon="17.65768">
        <ele>17.8</ele>
        <time>2015-05-05T19:10:12Z</time>
      </trkpt>
      <trkpt lat="59.391835" lon="17.657481">
        <ele>18.3</ele>
        <time>2015-05-05T19:10:13Z</time>
      </trkpt>
      <trkpt lat="59.391856" lon="17.657275">
        <ele>18.8</ele>
        <time>2015-05-05T19:10:14Z</time>
      </trkpt>
      <trkpt lat="59.391883" lon="17.657078">
        <ele>19.3</ele>
        <time>2015-05-05T19:10:15Z</time>
      </trkpt>
      <trkpt lat="59.39191" lon="17.656883">
        <ele>19.4</ele>
        <time>2015-05-05T19:10:16Z</time>
      </trkpt>
      <trkpt lat="59.391932" lon="17.656681">
        <ele>19.5</ele>
        <time>2015-05-05T19:10:17Z</time>
      </trkpt>
      <trkpt lat="59.391958" lon="17.656484">
        <ele>19.7</ele>
        <time>2015-05-05T19:10:18Z</time>
      </trkpt>
      <trkpt lat="59.391974" lon="17.656292">
        <ele>19.7</ele>
        <time>2015-05-05T19:10:19Z</time>
      </trkpt>
      <trkpt lat="59.391987" lon="17.656096">
        <ele>19.8</ele>
        <time>2015-05-05T19:10:20Z</time>
      </trkpt>
      <trkpt lat="59.392008" lon="17.655903">
        <ele>19.8</ele>
        <time>2015-05-05T19:10:21Z</time>
      </trkpt>
      <trkpt lat="59.392023" lon="17.655715">
        <ele>19.9</ele>
        <time>2015-05-05T19:10:22Z</time>
      </trkpt>
      <trkpt lat="59.392034" lon="17.655536">
        <ele>19.9</ele>
        <time>2015-05-05T19:10:23Z</time>
      </trkpt>
      <trkpt lat="59.392045" lon="17.65536">
        <ele>19.8</ele>
        <time>2015-05-05T19:10:24Z</time>
      </trkpt>
      <trkpt lat="59.392057" lon="17.655189">
        <ele>19.7</ele>
        <time>2015-05-05T19:10:25Z</time>
      </trkpt>
      <trkpt lat="59.392071" lon="17.655011">
        <ele>19.5</ele>
        <time>2015-05-05T19:10:26Z</time>
      </trkpt>
      <trkpt lat="59.392087" lon="17.654839">
        <ele>19.3</ele>
        <time>2015-05-05T19:10:27Z</time>
      </trkpt>
      <trkpt lat="59.392099" lon="17.654674">
        <ele>19.1</ele>
        <time>2015-05-05T19:10:28Z</time>
      </trkpt>
      <trkpt lat="59.392113" lon="17.654514">
        <ele>19</ele>
        <time>2015-05-05T19:10:29Z</time>
      </trkpt>
      <trkpt lat="59.392119" lon="17.654364">
        <ele>19</ele>
        <time>2015-05-05T19:10:30Z</time>
      </trkpt>
      <trkpt lat="59.39213" lon="17.654196">
        <ele>19</ele>
        <time>2015-05-05T19:10:31Z</time>
      </trkpt>
      <trkpt lat="59.392149" lon="17.654057">
        <ele>19</ele>
        <time>2015-05-05T19:10:32Z</time>
      </trkpt>
      <trkpt lat="59.392167" lon="17.653948">
        <ele>19.1</ele>
        <time>2015-05-05T19:10:33Z</time>
      </trkpt>
      <trkpt lat="59.39218" lon="17.65385">
        <ele>19.1</ele>
        <time>2015-05-05T19:10:34Z</time>
      </trkpt>
      <trkpt lat="59.392186" lon="17.653779">
        <ele>19.1</ele>
        <time>2015-05-05T19:10:35Z</time>
      </trkpt>
      <trkpt lat="59.392203" lon="17.653711">
        <ele>19.2</ele>
        <time>2015-05-05T19:10:36Z</time>
      </trkpt>
      <trkpt lat="59.392231" lon="17.653687">
        <ele>19.3</ele>
        <time>2015-05-05T19:10:37Z</time>
      </trkpt>
      <trkpt lat="59.392263" lon="17.653651">
        <ele>19.3</ele>
        <time>2015-05-05T19:10:38Z</time>
      </trkpt>
      <trkpt lat="59.392295" lon="17.653607">
        <ele>19.4</ele>
        <time>2015-05-05T19:10:40Z</time>
      </trkpt>
      <trkpt lat="59.392279" lon="17.653534">
        <ele>19.5</ele>
        <time>2015-05-05T19:11:00Z</time>
      </trkpt>
      <trkpt lat="59.392248" lon="17.653524">
        <ele>19.5</ele>
        <time>2015-05-05T19:11:03Z</time>
      </trkpt>
      <trkpt lat="59.392219" lon="17.65351">
        <ele>19.5</ele>
        <time>2015-05-05T19:13:30Z</time>
      </trkpt>
      <trkpt lat="59.392179" lon="17.65353">
        <ele>19.4</ele>
        <time>2015-05-05T19:13:32Z</time>
      </trkpt>
      <trkpt lat="59.392126" lon="17.653524">
        <ele>19.3</ele>
        <time>2015-05-05T19:13:34Z</time>
      </trkpt>
      <trkpt lat="59.392095" lon="17.653511">
        <ele>19.3</ele>
        <time>2015-05-05T19:13:35Z</time>
      </trkpt>
      <trkpt lat="59.392064" lon="17.653491">
        <ele>19.3</ele>
        <time>2015-05-05T19:13:36Z</time>
      </trkpt>
      <trkpt lat="59.392034" lon="17.653469">
        <ele>19.3</ele>
        <time>2015-05-05T19:13:37Z</time>
      </trkpt>
      <trkpt lat="59.392001" lon="17.653446">
        <ele>19.2</ele>
        <time>2015-05-05T19:13:38Z</time>
      </trkpt>
      <trkpt lat="59.391961" lon="17.653424">
        <ele>19.2</ele>
        <time>2015-05-05T19:13:39Z</time>
      </trkpt>
      <trkpt lat="59.39192" lon="17.653401">
        <ele>19.1</ele>
        <time>2015-05-05T19:13:40Z</time>
      </trkpt>
      <trkpt lat="59.391842" lon="17.653354">
        <ele>19</ele>
        <time>2015-05-05T19:13:41Z</time>
      </trkpt>
      <trkpt lat="59.39179" lon="17.653299">
        <ele>19</ele>
        <time>2015-05-05T19:13:42Z</time>
      </trkpt>
      <trkpt lat="59.39175" lon="17.653271">
        <ele>18.9</ele>
        <time>2015-05-05T19:13:43Z</time>
      </trkpt>
      <trkpt lat="59.391703" lon="17.653242">
        <ele>18.9</ele>
        <time>2015-05-05T19:13:44Z</time>
      </trkpt>
      <trkpt lat="59.391654" lon="17.653187">
        <ele>18.8</ele>
        <time>2015-05-05T19:13:45Z</time>
      </trkpt>
      <trkpt lat="59.391616" lon="17.653154">
        <ele>18.8</ele>
        <time>2015-05-05T19:13:46Z</time>
      </trkpt>
      <trkpt lat="59.391563" lon="17.653122">
        <ele>18.7</ele>
        <time>2015-05-05T19:13:47Z</time>
      </trkpt>
      <trkpt lat="59.391513" lon="17.653108">
        <ele>18.6</ele>
        <time>2015-05-05T19:13:48Z</time>
      </trkpt>
      <trkpt lat="59.391462" lon="17.653077">
        <ele>18.5</ele>
        <time>2015-05-05T19:13:49Z</time>
      </trkpt>
      <trkpt lat="59.391412" lon="17.653045">
        <ele>18.4</ele>
        <time>2015-05-05T19:13:50Z</time>
      </trkpt>
      <trkpt lat="59.391362" lon="17.653017">
        <ele>18.3</ele>
        <time>2015-05-05T19:13:51Z</time>
      </trkpt>
      <trkpt lat="59.391318" lon="17.65299">
        <ele>18.2</ele>
        <time>2015-05-05T19:13:52Z</time>
      </trkpt>
      <trkpt lat="59.391275" lon="17.652959">
        <ele>18.1</ele>
        <time>2015-05-05T19:13:53Z</time>
      </trkpt>
      <trkpt lat="59.391224" lon="17.652941">
        <ele>18</ele>
        <time>2015-05-05T19:13:54Z</time>
      </trkpt>
      <trkpt lat="59.391172" lon="17.652909">
        <ele>18</ele>
        <time>2015-05-05T19:13:55Z</time>
      </trkpt>
      <trkpt lat="59.391117" lon="17.65288">
        <ele>18</ele>
        <time>2015-05-05T19:13:56Z</time>
      </trkpt>
      <trkpt lat="59.391064" lon="17.652849">
        <ele>18</ele>
        <time>2015-05-05T19:13:57Z</time>
      </trkpt>
      <trkpt lat="59.390998" lon="17.652814">
        <ele>18</ele>
        <time>2015-05-05T19:13:58Z</time>
      </trkpt>
      <trkpt lat="59.390936" lon="17.652765">
        <ele>18</ele>
        <time>2015-05-05T19:13:59Z</time>
      </trkpt>
      <trkpt lat="59.390871" lon="17.652735">
        <ele>18</ele>
        <time>2015-05-05T19:14:00Z</time>
      </trkpt>
      <trkpt lat="59.39081" lon="17.652695">
        <ele>18</ele>
        <time>2015-05-05T19:14:01Z</time>
      </trkpt>
      <trkpt lat="59.39074" lon="17.652668">
        <ele>18</ele>
        <time>2015-05-05T19:14:02Z</time>
      </trkpt>
      <trkpt lat="59.390683" lon="17.652609">
        <ele>18</ele>
        <time>2015-05-05T19:14:03Z</time>
      </trkpt>
      <trkpt lat="59.390607" lon="17.652568">
        <ele>18</ele>
        <time>2015-05-05T19:14:04Z</time>
      </trkpt>
      <trkpt lat="59.390541" lon="17.652529">
        <ele>18</ele>
        <time>2015-05-05T19:14:05Z</time>
      </trkpt>
      <trkpt lat="59.390471" lon="17.652489">
        <ele>18</ele>
        <time>2015-05-05T19:14:06Z</time>
      </trkpt>
      <trkpt lat="59.390401" lon="17.652434">
        <ele>18.1</ele>
        <time>2015-05-05T19:14:07Z</time>
      </trkpt>
      <trkpt lat="59.390332" lon="17.652383">
        <ele>18.4</ele>
        <time>2015-05-05T19:14:08Z</time>
      </trkpt>
      <trkpt lat="59.390258" lon="17.652339">
        <ele>18.8</ele>
        <time>2015-05-05T19:14:09Z</time>
      </trkpt>
      <trkpt lat="59.390182" lon="17.652284">
        <ele>19.3</ele>
        <time>2015-05-05T19:14:10Z</time>
      </trkpt>
      <trkpt lat="59.39011" lon="17.65223">
        <ele>19.7</ele>
        <time>2015-05-05T19:14:11Z</time>
      </trkpt>
      <trkpt lat="59.390059" lon="17.652189">
        <ele>20</ele>
        <time>2015-05-05T19:14:12Z</time>
      </trkpt>
      <trkpt lat="59.39" lon="17.652172">
        <ele>20.4</ele>
        <time>2015-05-05T19:14:13Z</time>
      </trkpt>
      <trkpt lat="59.389941" lon="17.65215">
        <ele>20.8</ele>
        <time>2015-05-05T19:14:14Z</time>
      </trkpt>
      <trkpt lat="59.389879" lon="17.652136">
        <ele>21.1</ele>
        <time>2015-05-05T19:14:15Z</time>
      </trkpt>
      <trkpt lat="59.389808" lon="17.652148">
        <ele>21.5</ele>
        <time>2015-05-05T19:14:16Z</time>
      </trkpt>
      <trkpt lat="59.389741" lon="17.652161">
        <ele>21.9</ele>
        <time>2015-05-05T19:14:17Z</time>
      </trkpt>
      <trkpt lat="59.389658" lon="17.652157">
        <ele>22.4</ele>
        <time>2015-05-05T19:14:18Z</time>
      </trkpt>
      <trkpt lat="59.389584" lon="17.652167">
        <ele>22.8</ele>
        <time>2015-05-05T19:14:19Z</time>
      </trkpt>
      <trkpt lat="59.389507" lon="17.65217">
        <ele>22.7</ele>
        <time>2015-05-05T19:14:20Z</time>
      </trkpt>
      <trkpt lat="59.389435" lon="17.652178">
        <ele>22.6</ele>
        <time>2015-05-05T19:14:21Z</time>
      </trkpt>
      <trkpt lat="59.389362" lon="17.652185">
        <ele>22.5</ele>
        <time>2015-05-05T19:14:22Z</time>
      </trkpt>
      <trkpt lat="59.389296" lon="17.652211">
        <ele>22.4</ele>
        <time>2015-05-05T19:14:23Z</time>
      </trkpt>
      <trkpt lat="59.389226" lon="17.652201">
        <ele>22.3</ele>
        <time>2015-05-05T19:14:24Z</time>
      </trkpt>
      <trkpt lat="59.389143" lon="17.652224">
        <ele>22.2</ele>
        <time>2015-05-05T19:14:25Z</time>
      </trkpt>
      <trkpt lat="59.389065" lon="17.652255">
        <ele>22.1</ele>
        <time>2015-05-05T19:14:26Z</time>
      </trkpt>
      <trkpt lat="59.388997" lon="17.652239">
        <ele>22.1</ele>
        <time>2015-05-05T19:14:27Z</time>
      </trkpt>
      <trkpt lat="59.388914" lon="17.652262">
        <ele>21.9</ele>
        <time>2015-05-05T19:14:28Z</time>
      </trkpt>
      <trkpt lat="59.388853" lon="17.652269">
        <ele>21.9</ele>
        <time>2015-05-05T19:14:29Z</time>
      </trkpt>
      <trkpt lat="59.388791" lon="17.652286">
        <ele>21.8</ele>
        <time>2015-05-05T19:14:30Z</time>
      </trkpt>
      <trkpt lat="59.388733" lon="17.652318">
        <ele>21.7</ele>
        <time>2015-05-05T19:14:31Z</time>
      </trkpt>
      <trkpt lat="59.388676" lon="17.652339">
        <ele>21.5</ele>
        <time>2015-05-05T19:14:32Z</time>
      </trkpt>
      <trkpt lat="59.388595" lon="17.652364">
        <ele>21.2</ele>
        <time>2015-05-05T19:14:33Z</time>
      </trkpt>
      <trkpt lat="59.388529" lon="17.652397">
        <ele>20.9</ele>
        <time>2015-05-05T19:14:34Z</time>
      </trkpt>
      <trkpt lat="59.388466" lon="17.652416">
        <ele>20.7</ele>
        <time>2015-05-05T19:14:35Z</time>
      </trkpt>
      <trkpt lat="59.388402" lon="17.652458">
        <ele>20.5</ele>
        <time>2015-05-05T19:14:36Z</time>
      </trkpt>
      <trkpt lat="59.388342" lon="17.652504">
        <ele>20.3</ele>
        <time>2015-05-05T19:14:37Z</time>
      </trkpt>
      <trkpt lat="59.388286" lon="17.652525">
        <ele>20.1</ele>
        <time>2015-05-05T19:14:38Z</time>
      </trkpt>
      <trkpt lat="59.388223" lon="17.652573">
        <ele>19.9</ele>
        <time>2015-05-05T19:14:39Z</time>
      </trkpt>
      <trkpt lat="59.388157" lon="17.652639">
        <ele>19.7</ele>
        <time>2015-05-05T19:14:40Z</time>
      </trkpt>
      <trkpt lat="59.38809" lon="17.652702">
        <ele>19.5</ele>
        <time>2015-05-05T19:14:41Z</time>
      </trkpt>
      <trkpt lat="59.388016" lon="17.65277">
        <ele>19.3</ele>
        <time>2015-05-05T19:14:42Z</time>
      </trkpt>
      <trkpt lat="59.38795" lon="17.652828">
        <ele>19.1</ele>
        <time>2015-05-05T19:14:43Z</time>
      </trkpt>
      <trkpt lat="59.387885" lon="17.652882">
        <ele>19</ele>
        <time>2015-05-05T19:14:44Z</time>
      </trkpt>
      <trkpt lat="59.387818" lon="17.652942">
        <ele>18.9</ele>
        <time>2015-05-05T19:14:45Z</time>
      </trkpt>
      <trkpt lat="59.387746" lon="17.653011">
        <ele>18.8</ele>
        <time>2015-05-05T19:14:46Z</time>
      </trkpt>
      <trkpt lat="59.387658" lon="17.653088">
        <ele>18.7</ele>
        <time>2015-05-05T19:14:47Z</time>
      </trkpt>
      <trkpt lat="59.387586" lon="17.653166">
        <ele>18.6</ele>
        <time>2015-05-05T19:14:48Z</time>
      </trkpt>
      <trkpt lat="59.38751" lon="17.653233">
        <ele>18.5</ele>
        <time>2015-05-05T19:14:49Z</time>
      </trkpt>
      <trkpt lat="59.387431" lon="17.65332">
        <ele>18.4</ele>
        <time>2015-05-05T19:14:50Z</time>
      </trkpt>
      <trkpt lat="59.38734" lon="17.653394">
        <ele>18.3</ele>
        <time>2015-05-05T19:14:51Z</time>
      </trkpt>
      <trkpt lat="59.387255" lon="17.653456">
        <ele>18.2</ele>
        <time>2015-05-05T19:14:52Z</time>
      </trkpt>
      <trkpt lat="59.38717" lon="17.653526">
        <ele>18.1</ele>
        <time>2015-05-05T19:14:53Z</time>
      </trkpt>
      <trkpt lat="59.387072" lon="17.653586">
        <ele>18</ele>
        <time>2015-05-05T19:14:54Z</time>
      </trkpt>
      <trkpt lat="59.387001" lon="17.653657">
        <ele>18</ele>
        <time>2015-05-05T19:14:55Z</time>
      </trkpt>
      <trkpt lat="59.386781" lon="17.65387">
        <ele>18</ele>
        <time>2015-05-05T19:14:58Z</time>
      </trkpt>
      <trkpt lat="59.386707" lon="17.65395">
        <ele>18</ele>
        <time>2015-05-05T19:14:59Z</time>
      </trkpt>
      <trkpt lat="59.386638" lon="17.653988">
        <ele>18</ele>
        <time>2015-05-05T19:15:00Z</time>
      </trkpt>
      <trkpt lat="59.386553" lon="17.653998">
        <ele>17.9</ele>
        <time>2015-05-05T19:15:01Z</time>
      </trkpt>
      <trkpt lat="59.386483" lon="17.653993">
        <ele>17.9</ele>
        <time>2015-05-05T19:15:02Z</time>
      </trkpt>
      <trkpt lat="59.386411" lon="17.653946">
        <ele>17.9</ele>
        <time>2015-05-05T19:15:03Z</time>
      </trkpt>
      <trkpt lat="59.386348" lon="17.653849">
        <ele>17.9</ele>
        <time>2015-05-05T19:15:04Z</time>
      </trkpt>
      <trkpt lat="59.386328" lon="17.653775">
        <ele>18</ele>
        <time>2015-05-05T19:15:05Z</time>
      </trkpt>
      <trkpt lat="59.38629" lon="17.653638">
        <ele>18.1</ele>
        <time>2015-05-05T19:15:06Z</time>
      </trkpt>
      <trkpt lat="59.386229" lon="17.653529">
        <ele>18.3</ele>
        <time>2015-05-05T19:15:07Z</time>
      </trkpt>
      <trkpt lat="59.386159" lon="17.65341">
        <ele>18.4</ele>
        <time>2015-05-05T19:15:08Z</time>
      </trkpt>
      <trkpt lat="59.386093" lon="17.653315">
        <ele>18.4</ele>
        <time>2015-05-05T19:15:09Z</time>
      </trkpt>
      <trkpt lat="59.386036" lon="17.65322">
        <ele>18.5</ele>
        <time>2015-05-05T19:15:10Z</time>
      </trkpt>
      <trkpt lat="59.385992" lon="17.653087">
        <ele>18.5</ele>
        <time>2015-05-05T19:15:11Z</time>
      </trkpt>
      <trkpt lat="59.385946" lon="17.652989">
        <ele>18.6</ele>
        <time>2015-05-05T19:15:12Z</time>
      </trkpt>
      <trkpt lat="59.385898" lon="17.652875">
        <ele>18.6</ele>
        <time>2015-05-05T19:15:13Z</time>
      </trkpt>
      <trkpt lat="59.385856" lon="17.652748">
        <ele>18.5</ele>
        <time>2015-05-05T19:15:14Z</time>
      </trkpt>
      <trkpt lat="59.385814" lon="17.6526">
        <ele>18.5</ele>
        <time>2015-05-05T19:15:15Z</time>
      </trkpt>
      <trkpt lat="59.385778" lon="17.65247">
        <ele>18.4</ele>
        <time>2015-05-05T19:15:16Z</time>
      </trkpt>
      <trkpt lat="59.385719" lon="17.652328">
        <ele>18.4</ele>
        <time>2015-05-05T19:15:17Z</time>
      </trkpt>
      <trkpt lat="59.38567" lon="17.652206">
        <ele>18.3</ele>
        <time>2015-05-05T19:15:18Z</time>
      </trkpt>
      <trkpt lat="59.385627" lon="17.652062">
        <ele>18.3</ele>
        <time>2015-05-05T19:15:19Z</time>
      </trkpt>
      <trkpt lat="59.38557" lon="17.651937">
        <ele>18.7</ele>
        <time>2015-05-05T19:15:20Z</time>
      </trkpt>
      <trkpt lat="59.385513" lon="17.651816">
        <ele>19</ele>
        <time>2015-05-05T19:15:21Z</time>
      </trkpt>
      <trkpt lat="59.385448" lon="17.651713">
        <ele>19.4</ele>
        <time>2015-05-05T19:15:22Z</time>
      </trkpt>
      <trkpt lat="59.385379" lon="17.651653">
        <ele>19.5</ele>
        <time>2015-05-05T19:15:23Z</time>
      </trkpt>
      <trkpt lat="59.385298" lon="17.651568">
        <ele>19.7</ele>
        <time>2015-05-05T19:15:24Z</time>
      </trkpt>
      <trkpt lat="59.38522" lon="17.651537">
        <ele>19.7</ele>
        <time>2015-05-05T19:15:25Z</time>
      </trkpt>
      <trkpt lat="59.385142" lon="17.651506">
        <ele>19.6</ele>
        <time>2015-05-05T19:15:26Z</time>
      </trkpt>
      <trkpt lat="59.385054" lon="17.651491">
        <ele>19.5</ele>
        <time>2015-05-05T19:15:27Z</time>
      </trkpt>
      <trkpt lat="59.384982" lon="17.651488">
        <ele>19.4</ele>
        <time>2015-05-05T19:15:28Z</time>
      </trkpt>
      <trkpt lat="59.384901" lon="17.651462">
        <ele>19.3</ele>
        <time>2015-05-05T19:15:29Z</time>
      </trkpt>
      <trkpt lat="59.384814" lon="17.65145">
        <ele>19.2</ele>
        <time>2015-05-05T19:15:30Z</time>
      </trkpt>
      <trkpt lat="59.384731" lon="17.651442">
        <ele>19</ele>
        <time>2015-05-05T19:15:31Z</time>
      </trkpt>
      <trkpt lat="59.384642" lon="17.651421">
        <ele>18.9</ele>
        <time>2015-05-05T19:15:32Z</time>
      </trkpt>
      <trkpt lat="59.384556" lon="17.651407">
        <ele>18.7</ele>
        <time>2015-05-05T19:15:33Z</time>
      </trkpt>
      <trkpt lat="59.384473" lon="17.651379">
        <ele>18.5</ele>
        <time>2015-05-05T19:15:34Z</time>
      </trkpt>
      <trkpt lat="59.384395" lon="17.651348">
        <ele>18.3</ele>
        <time>2015-05-05T19:15:35Z</time>
      </trkpt>
      <trkpt lat="59.38432" lon="17.651305">
        <ele>18</ele>
        <time>2015-05-05T19:15:36Z</time>
      </trkpt>
      <trkpt lat="59.384253" lon="17.651259">
        <ele>17.8</ele>
        <time>2015-05-05T19:15:37Z</time>
      </trkpt>
      <trkpt lat="59.384172" lon="17.651195">
        <ele>17.5</ele>
        <time>2015-05-05T19:15:38Z</time>
      </trkpt>
      <trkpt lat="59.384088" lon="17.65114">
        <ele>17.1</ele>
        <time>2015-05-05T19:15:39Z</time>
      </trkpt>
      <trkpt lat="59.384014" lon="17.651064">
        <ele>16.8</ele>
        <time>2015-05-05T19:15:40Z</time>
      </trkpt>
      <trkpt lat="59.383938" lon="17.650974">
        <ele>16.4</ele>
        <time>2015-05-05T19:15:41Z</time>
      </trkpt>
      <trkpt lat="59.38385" lon="17.650888">
        <ele>16</ele>
        <time>2015-05-05T19:15:42Z</time>
      </trkpt>
      <trkpt lat="59.383778" lon="17.650801">
        <ele>15.6</ele>
        <time>2015-05-05T19:15:43Z</time>
      </trkpt>
      <trkpt lat="59.3837" lon="17.650707">
        <ele>15.2</ele>
        <time>2015-05-05T19:15:44Z</time>
      </trkpt>
      <trkpt lat="59.383623" lon="17.650623">
        <ele>14.8</ele>
        <time>2015-05-05T19:15:45Z</time>
      </trkpt>
      <trkpt lat="59.383545" lon="17.650517">
        <ele>14.4</ele>
        <time>2015-05-05T19:15:46Z</time>
      </trkpt>
      <trkpt lat="59.383462" lon="17.650416">
        <ele>14</ele>
        <time>2015-05-05T19:15:47Z</time>
      </trkpt>
      <trkpt lat="59.383373" lon="17.650311">
        <ele>13.6</ele>
        <time>2015-05-05T19:15:48Z</time>
      </trkpt>
      <trkpt lat="59.383292" lon="17.650209">
        <ele>13.4</ele>
        <time>2015-05-05T19:15:49Z</time>
      </trkpt>
      <trkpt lat="59.383208" lon="17.650086">
        <ele>13.2</ele>
        <time>2015-05-05T19:15:50Z</time>
      </trkpt>
      <trkpt lat="59.383127" lon="17.649966">
        <ele>13</ele>
        <time>2015-05-05T19:15:51Z</time>
      </trkpt>
      <trkpt lat="59.383043" lon="17.649844">
        <ele>12.9</ele>
        <time>2015-05-05T19:15:52Z</time>
      </trkpt>
      <trkpt lat="59.382966" lon="17.649716">
        <ele>12.9</ele>
        <time>2015-05-05T19:15:53Z</time>
      </trkpt>
      <trkpt lat="59.382882" lon="17.649606">
        <ele>13</ele>
        <time>2015-05-05T19:15:54Z</time>
      </trkpt>
      <trkpt lat="59.382796" lon="17.649477">
        <ele>13.2</ele>
        <time>2015-05-05T19:15:55Z</time>
      </trkpt>
      <trkpt lat="59.382708" lon="17.649347">
        <ele>13.5</ele>
        <time>2015-05-05T19:15:56Z</time>
      </trkpt>
      <trkpt lat="59.382626" lon="17.649206">
        <ele>14</ele>
        <time>2015-05-05T19:15:57Z</time>
      </trkpt>
      <trkpt lat="59.382543" lon="17.649071">
        <ele>14.6</ele>
        <time>2015-05-05T19:15:58Z</time>
      </trkpt>
      <trkpt lat="59.382468" lon="17.648935">
        <ele>15.2</ele>
        <time>2015-05-05T19:15:59Z</time>
      </trkpt>
      <trkpt lat="59.382392" lon="17.648799">
        <ele>16</ele>
        <time>2015-05-05T19:16:00Z</time>
      </trkpt>
      <trkpt lat="59.382322" lon="17.648675">
        <ele>17.3</ele>
        <time>2015-05-05T19:16:01Z</time>
      </trkpt>
      <trkpt lat="59.38224" lon="17.648513">
        <ele>19.3</ele>
        <time>2015-05-05T19:16:02Z</time>
      </trkpt>
      <trkpt lat="59.382169" lon="17.648367">
        <ele>21.1</ele>
        <time>2015-05-05T19:16:03Z</time>
      </trkpt>
      <trkpt lat="59.38211" lon="17.648238">
        <ele>22.7</ele>
        <time>2015-05-05T19:16:04Z</time>
      </trkpt>
      <trkpt lat="59.382049" lon="17.648121">
        <ele>24.2</ele>
        <time>2015-05-05T19:16:05Z</time>
      </trkpt>
      <trkpt lat="59.381985" lon="17.648001">
        <ele>25.5</ele>
        <time>2015-05-05T19:16:06Z</time>
      </trkpt>
      <trkpt lat="59.381925" lon="17.647896">
        <ele>26.6</ele>
        <time>2015-05-05T19:16:07Z</time>
      </trkpt>
      <trkpt lat="59.381855" lon="17.647827">
        <ele>27.3</ele>
        <time>2015-05-05T19:16:08Z</time>
      </trkpt>
      <trkpt lat="59.381789" lon="17.647757">
        <ele>27.9</ele>
        <time>2015-05-05T19:16:09Z</time>
      </trkpt>
      <trkpt lat="59.38172" lon="17.647707">
        <ele>28.3</ele>
        <time>2015-05-05T19:16:10Z</time>
      </trkpt>
      <trkpt lat="59.381657" lon="17.647688">
        <ele>28.5</ele>
        <time>2015-05-05T19:16:11Z</time>
      </trkpt>
      <trkpt lat="59.381591" lon="17.647673">
        <ele>28.7</ele>
        <time>2015-05-05T19:16:12Z</time>
      </trkpt>
      <trkpt lat="59.381552" lon="17.647685">
        <ele>28.6</ele>
        <time>2015-05-05T19:16:13Z</time>
      </trkpt>
      <trkpt lat="59.381507" lon="17.647676">
        <ele>28.7</ele>
        <time>2015-05-05T19:16:14Z</time>
      </trkpt>
      <trkpt lat="59.381462" lon="17.647668">
        <ele>28.8</ele>
        <time>2015-05-05T19:16:15Z</time>
      </trkpt>
      <trkpt lat="59.381411" lon="17.647666">
        <ele>28.8</ele>
        <time>2015-05-05T19:16:16Z</time>
      </trkpt>
      <trkpt lat="59.381352" lon="17.64768">
        <ele>28.8</ele>
        <time>2015-05-05T19:16:17Z</time>
      </trkpt>
      <trkpt lat="59.381313" lon="17.647691">
        <ele>28.8</ele>
        <time>2015-05-05T19:16:18Z</time>
      </trkpt>
      <trkpt lat="59.381241" lon="17.647726">
        <ele>28.6</ele>
        <time>2015-05-05T19:16:19Z</time>
      </trkpt>
      <trkpt lat="59.381181" lon="17.64774">
        <ele>28.3</ele>
        <time>2015-05-05T19:16:20Z</time>
      </trkpt>
      <trkpt lat="59.381132" lon="17.647736">
        <ele>28</ele>
        <time>2015-05-05T19:16:21Z</time>
      </trkpt>
      <trkpt lat="59.381093" lon="17.647727">
        <ele>27.8</ele>
        <time>2015-05-05T19:16:22Z</time>
      </trkpt>
      <trkpt lat="59.381045" lon="17.647727">
        <ele>27.6</ele>
        <time>2015-05-05T19:16:23Z</time>
      </trkpt>
      <trkpt lat="59.380997" lon="17.647727">
        <ele>27.3</ele>
        <time>2015-05-05T19:16:24Z</time>
      </trkpt>
      <trkpt lat="59.380912" lon="17.647685">
        <ele>27</ele>
        <time>2015-05-05T19:16:25Z</time>
      </trkpt>
      <trkpt lat="59.380862" lon="17.647736">
        <ele>26.6</ele>
        <time>2015-05-05T19:16:26Z</time>
      </trkpt>
      <trkpt lat="59.380813" lon="17.6478">
        <ele>26.2</ele>
        <time>2015-05-05T19:16:27Z</time>
      </trkpt>
      <trkpt lat="59.380763" lon="17.647846">
        <ele>25.8</ele>
        <time>2015-05-05T19:16:28Z</time>
      </trkpt>
      <trkpt lat="59.380715" lon="17.647897">
        <ele>25.5</ele>
        <time>2015-05-05T19:16:29Z</time>
      </trkpt>
      <trkpt lat="59.380664" lon="17.647978">
        <ele>25</ele>
        <time>2015-05-05T19:16:30Z</time>
      </trkpt>
      <trkpt lat="59.380619" lon="17.648058">
        <ele>24.7</ele>
        <time>2015-05-05T19:16:31Z</time>
      </trkpt>
      <trkpt lat="59.380577" lon="17.648137">
        <ele>24.4</ele>
        <time>2015-05-05T19:16:32Z</time>
      </trkpt>
      <trkpt lat="59.380533" lon="17.648207">
        <ele>24.1</ele>
        <time>2015-05-05T19:16:33Z</time>
      </trkpt>
      <trkpt lat="59.380486" lon="17.648293">
        <ele>23.8</ele>
        <time>2015-05-05T19:16:34Z</time>
      </trkpt>
      <trkpt lat="59.380439" lon="17.648361">
        <ele>23.5</ele>
        <time>2015-05-05T19:16:35Z</time>
      </trkpt>
      <trkpt lat="59.380398" lon="17.648442">
        <ele>23.3</ele>
        <time>2015-05-05T19:16:36Z</time>
      </trkpt>
      <trkpt lat="59.380354" lon="17.648522">
        <ele>23.1</ele>
        <time>2015-05-05T19:16:37Z</time>
      </trkpt>
      <trkpt lat="59.38032" lon="17.648616">
        <ele>22.9</ele>
        <time>2015-05-05T19:16:38Z</time>
      </trkpt>
      <trkpt lat="59.380275" lon="17.648711">
        <ele>22.7</ele>
        <time>2015-05-05T19:16:39Z</time>
      </trkpt>
      <trkpt lat="59.380227" lon="17.648826">
        <ele>22.6</ele>
        <time>2015-05-05T19:16:40Z</time>
      </trkpt>
      <trkpt lat="59.380186" lon="17.64892">
        <ele>22.6</ele>
        <time>2015-05-05T19:16:41Z</time>
      </trkpt>
      <trkpt lat="59.380142" lon="17.649008">
        <ele>22.5</ele>
        <time>2015-05-05T19:16:42Z</time>
      </trkpt>
      <trkpt lat="59.380099" lon="17.649087">
        <ele>22.5</ele>
        <time>2015-05-05T19:16:43Z</time>
      </trkpt>
      <trkpt lat="59.380054" lon="17.649167">
        <ele>22.6</ele>
        <time>2015-05-05T19:16:44Z</time>
      </trkpt>
      <trkpt lat="59.380008" lon="17.649269">
        <ele>22.6</ele>
        <time>2015-05-05T19:16:45Z</time>
      </trkpt>
      <trkpt lat="59.379963" lon="17.649368">
        <ele>22.7</ele>
        <time>2015-05-05T19:16:46Z</time>
      </trkpt>
      <trkpt lat="59.379919" lon="17.64947">
        <ele>22.8</ele>
        <time>2015-05-05T19:16:47Z</time>
      </trkpt>
      <trkpt lat="59.379875" lon="17.64957">
        <ele>23</ele>
        <time>2015-05-05T19:16:48Z</time>
      </trkpt>
      <trkpt lat="59.379808" lon="17.649657">
        <ele>23.2</ele>
        <time>2015-05-05T19:16:49Z</time>
      </trkpt>
      <trkpt lat="59.379773" lon="17.649767">
        <ele>23.6</ele>
        <time>2015-05-05T19:16:50Z</time>
      </trkpt>
      <trkpt lat="59.379728" lon="17.649883">
        <ele>24</ele>
        <time>2015-05-05T19:16:51Z</time>
      </trkpt>
      <trkpt lat="59.379686" lon="17.649977">
        <ele>24.3</ele>
        <time>2015-05-05T19:16:52Z</time>
      </trkpt>
      <trkpt lat="59.37962" lon="17.650012">
        <ele>24.5</ele>
        <time>2015-05-05T19:16:53Z</time>
      </trkpt>
      <trkpt lat="59.379543" lon="17.650027">
        <ele>24.4</ele>
        <time>2015-05-05T19:16:54Z</time>
      </trkpt>
      <trkpt lat="59.379484" lon="17.65003">
        <ele>24.2</ele>
        <time>2015-05-05T19:16:55Z</time>
      </trkpt>
      <trkpt lat="59.379419" lon="17.650009">
        <ele>23.8</ele>
        <time>2015-05-05T19:16:56Z</time>
      </trkpt>
      <trkpt lat="59.379364" lon="17.649927">
        <ele>23.4</ele>
        <time>2015-05-05T19:16:57Z</time>
      </trkpt>
      <trkpt lat="59.379301" lon="17.64987">
        <ele>23</ele>
        <time>2015-05-05T19:16:58Z</time>
      </trkpt>
      <trkpt lat="59.379234" lon="17.649801">
        <ele>22.6</ele>
        <time>2015-05-05T19:16:59Z</time>
      </trkpt>
      <trkpt lat="59.379131" lon="17.64978">
        <ele>22.2</ele>
        <time>2015-05-05T19:17:00Z</time>
      </trkpt>
      <trkpt lat="59.379041" lon="17.649718">
        <ele>21.9</ele>
        <time>2015-05-05T19:17:01Z</time>
      </trkpt>
      <trkpt lat="59.378954" lon="17.64962">
        <ele>21.5</ele>
        <time>2015-05-05T19:17:02Z</time>
      </trkpt>
      <trkpt lat="59.37886" lon="17.649494">
        <ele>21.2</ele>
        <time>2015-05-05T19:17:03Z</time>
      </trkpt>
      <trkpt lat="59.378746" lon="17.6494">
        <ele>21</ele>
        <time>2015-05-05T19:17:04Z</time>
      </trkpt>
      <trkpt lat="59.378641" lon="17.6493">
        <ele>20.7</ele>
        <time>2015-05-05T19:17:05Z</time>
      </trkpt>
      <trkpt lat="59.378548" lon="17.649199">
        <ele>20.6</ele>
        <time>2015-05-05T19:17:06Z</time>
      </trkpt>
      <trkpt lat="59.378439" lon="17.649095">
        <ele>20.5</ele>
        <time>2015-05-05T19:17:07Z</time>
      </trkpt>
      <trkpt lat="59.378343" lon="17.648997">
        <ele>20.6</ele>
        <time>2015-05-05T19:17:08Z</time>
      </trkpt>
      <trkpt lat="59.378242" lon="17.648905">
        <ele>20.7</ele>
        <time>2015-05-05T19:17:09Z</time>
      </trkpt>
      <trkpt lat="59.378151" lon="17.648825">
        <ele>20.8</ele>
        <time>2015-05-05T19:17:10Z</time>
      </trkpt>
      <trkpt lat="59.378058" lon="17.64873">
        <ele>21.1</ele>
        <time>2015-05-05T19:17:11Z</time>
      </trkpt>
      <trkpt lat="59.377955" lon="17.64864">
        <ele>21.5</ele>
        <time>2015-05-05T19:17:12Z</time>
      </trkpt>
      <trkpt lat="59.377863" lon="17.64856">
        <ele>21.6</ele>
        <time>2015-05-05T19:17:13Z</time>
      </trkpt>
      <trkpt lat="59.377766" lon="17.648471">
        <ele>21.5</ele>
        <time>2015-05-05T19:17:14Z</time>
      </trkpt>
      <trkpt lat="59.377678" lon="17.648408">
        <ele>21.3</ele>
        <time>2015-05-05T19:17:15Z</time>
      </trkpt>
      <trkpt lat="59.377592" lon="17.648334">
        <ele>21.2</ele>
        <time>2015-05-05T19:17:16Z</time>
      </trkpt>
      <trkpt lat="59.377489" lon="17.648244">
        <ele>21.2</ele>
        <time>2015-05-05T19:17:17Z</time>
      </trkpt>
      <trkpt lat="59.377385" lon="17.648143">
        <ele>21.2</ele>
        <time>2015-05-05T19:17:18Z</time>
      </trkpt>
      <trkpt lat="59.377284" lon="17.648063">
        <ele>21.1</ele>
        <time>2015-05-05T19:17:19Z</time>
      </trkpt>
      <trkpt lat="59.377181" lon="17.64798">
        <ele>21.1</ele>
        <time>2015-05-05T19:17:20Z</time>
      </trkpt>
      <trkpt lat="59.377075" lon="17.64786">
        <ele>21.3</ele>
        <time>2015-05-05T19:17:21Z</time>
      </trkpt>
      <trkpt lat="59.376955" lon="17.647728">
        <ele>21.4</ele>
        <time>2015-05-05T19:17:22Z</time>
      </trkpt>
      <trkpt lat="59.376846" lon="17.647627">
        <ele>21.4</ele>
        <time>2015-05-05T19:17:23Z</time>
      </trkpt>
      <trkpt lat="59.376733" lon="17.647541">
        <ele>21.2</ele>
        <time>2015-05-05T19:17:24Z</time>
      </trkpt>
      <trkpt lat="59.376622" lon="17.647447">
        <ele>21</ele>
        <time>2015-05-05T19:17:25Z</time>
      </trkpt>
      <trkpt lat="59.376505" lon="17.647356">
        <ele>20.7</ele>
        <time>2015-05-05T19:17:26Z</time>
      </trkpt>
      <trkpt lat="59.376394" lon="17.647257">
        <ele>20.3</ele>
        <time>2015-05-05T19:17:27Z</time>
      </trkpt>
      <trkpt lat="59.376299" lon="17.647183">
        <ele>20</ele>
        <time>2015-05-05T19:17:28Z</time>
      </trkpt>
      <trkpt lat="59.376202" lon="17.647107">
        <ele>19.6</ele>
        <time>2015-05-05T19:17:29Z</time>
      </trkpt>
      <trkpt lat="59.376095" lon="17.647022">
        <ele>18.9</ele>
        <time>2015-05-05T19:17:30Z</time>
      </trkpt>
      <trkpt lat="59.375983" lon="17.646932">
        <ele>18.1</ele>
        <time>2015-05-05T19:17:31Z</time>
      </trkpt>
      <trkpt lat="59.375898" lon="17.646841">
        <ele>17.6</ele>
        <time>2015-05-05T19:17:32Z</time>
      </trkpt>
      <trkpt lat="59.375806" lon="17.646719">
        <ele>17</ele>
        <time>2015-05-05T19:17:33Z</time>
      </trkpt>
      <trkpt lat="59.375713" lon="17.64662">
        <ele>16.5</ele>
        <time>2015-05-05T19:17:34Z</time>
      </trkpt>
      <trkpt lat="59.375618" lon="17.646528">
        <ele>16</ele>
        <time>2015-05-05T19:17:35Z</time>
      </trkpt>
      <trkpt lat="59.375521" lon="17.646454">
        <ele>15.4</ele>
        <time>2015-05-05T19:17:36Z</time>
      </trkpt>
      <trkpt lat="59.375413" lon="17.646384">
        <ele>14.8</ele>
        <time>2015-05-05T19:17:37Z</time>
      </trkpt>
      <trkpt lat="59.375298" lon="17.646305">
        <ele>14.8</ele>
        <time>2015-05-05T19:17:38Z</time>
      </trkpt>
      <trkpt lat="59.375191" lon="17.646225">
        <ele>14.8</ele>
        <time>2015-05-05T19:17:39Z</time>
      </trkpt>
      <trkpt lat="59.375081" lon="17.646157">
        <ele>14.7</ele>
        <time>2015-05-05T19:17:40Z</time>
      </trkpt>
      <trkpt lat="59.374979" lon="17.646087">
        <ele>14.7</ele>
        <time>2015-05-05T19:17:41Z</time>
      </trkpt>
      <trkpt lat="59.374877" lon="17.646">
        <ele>14.7</ele>
        <time>2015-05-05T19:17:42Z</time>
      </trkpt>
      <trkpt lat="59.374779" lon="17.645929">
        <ele>14.6</ele>
        <time>2015-05-05T19:17:43Z</time>
      </trkpt>
      <trkpt lat="59.374684" lon="17.645844">
        <ele>14.6</ele>
        <time>2015-05-05T19:17:44Z</time>
      </trkpt>
      <trkpt lat="59.374587" lon="17.645791">
        <ele>14.6</ele>
        <time>2015-05-05T19:17:45Z</time>
      </trkpt>
      <trkpt lat="59.374472" lon="17.645753">
        <ele>14.4</ele>
        <time>2015-05-05T19:17:46Z</time>
      </trkpt>
      <trkpt lat="59.374386" lon="17.645691">
        <ele>14.4</ele>
        <time>2015-05-05T19:17:47Z</time>
      </trkpt>
      <trkpt lat="59.374293" lon="17.645619">
        <ele>14.3</ele>
        <time>2015-05-05T19:17:48Z</time>
      </trkpt>
      <trkpt lat="59.374208" lon="17.645547">
        <ele>14.3</ele>
        <time>2015-05-05T19:17:49Z</time>
      </trkpt>
      <trkpt lat="59.37411" lon="17.645507">
        <ele>14.3</ele>
        <time>2015-05-05T19:17:50Z</time>
      </trkpt>
      <trkpt lat="59.374015" lon="17.645445">
        <ele>14.3</ele>
        <time>2015-05-05T19:17:51Z</time>
      </trkpt>
      <trkpt lat="59.373928" lon="17.645376">
        <ele>14.1</ele>
        <time>2015-05-05T19:17:52Z</time>
      </trkpt>
      <trkpt lat="59.373842" lon="17.645318">
        <ele>13.8</ele>
        <time>2015-05-05T19:17:53Z</time>
      </trkpt>
      <trkpt lat="59.373766" lon="17.645258">
        <ele>13.4</ele>
        <time>2015-05-05T19:17:54Z</time>
      </trkpt>
      <trkpt lat="59.373689" lon="17.645184">
        <ele>13.2</ele>
        <time>2015-05-05T19:17:55Z</time>
      </trkpt>
      <trkpt lat="59.373606" lon="17.645102">
        <ele>12.9</ele>
        <time>2015-05-05T19:17:56Z</time>
      </trkpt>
      <trkpt lat="59.373531" lon="17.645046">
        <ele>12.8</ele>
        <time>2015-05-05T19:17:57Z</time>
      </trkpt>
      <trkpt lat="59.373438" lon="17.644985">
        <ele>12.6</ele>
        <time>2015-05-05T19:17:58Z</time>
      </trkpt>
      <trkpt lat="59.373357" lon="17.644908">
        <ele>12.5</ele>
        <time>2015-05-05T19:17:59Z</time>
      </trkpt>
      <trkpt lat="59.373271" lon="17.644853">
        <ele>12.4</ele>
        <time>2015-05-05T19:18:00Z</time>
      </trkpt>
      <trkpt lat="59.373181" lon="17.644764">
        <ele>12.2</ele>
        <time>2015-05-05T19:18:01Z</time>
      </trkpt>
      <trkpt lat="59.373104" lon="17.644712">
        <ele>12.1</ele>
        <time>2015-05-05T19:18:02Z</time>
      </trkpt>
      <trkpt lat="59.37302" lon="17.644647">
        <ele>12</ele>
        <time>2015-05-05T19:18:03Z</time>
      </trkpt>
      <trkpt lat="59.372945" lon="17.644601">
        <ele>12</ele>
        <time>2015-05-05T19:18:04Z</time>
      </trkpt>
      <trkpt lat="59.372866" lon="17.644569">
        <ele>11.9</ele>
        <time>2015-05-05T19:18:05Z</time>
      </trkpt>
      <trkpt lat="59.372805" lon="17.644556">
        <ele>11.8</ele>
        <time>2015-05-05T19:18:06Z</time>
      </trkpt>
      <trkpt lat="59.372721" lon="17.644597">
        <ele>11.8</ele>
        <time>2015-05-05T19:18:07Z</time>
      </trkpt>
      <trkpt lat="59.372649" lon="17.64466">
        <ele>11.8</ele>
        <time>2015-05-05T19:18:08Z</time>
      </trkpt>
      <trkpt lat="59.372603" lon="17.644804">
        <ele>12.1</ele>
        <time>2015-05-05T19:18:09Z</time>
      </trkpt>
      <trkpt lat="59.372538" lon="17.644912">
        <ele>12.2</ele>
        <time>2015-05-05T19:18:10Z</time>
      </trkpt>
      <trkpt lat="59.372491" lon="17.645078">
        <ele>12.4</ele>
        <time>2015-05-05T19:18:11Z</time>
      </trkpt>
      <trkpt lat="59.372449" lon="17.645247">
        <ele>12.6</ele>
        <time>2015-05-05T19:18:12Z</time>
      </trkpt>
      <trkpt lat="59.372404" lon="17.645413">
        <ele>12.8</ele>
        <time>2015-05-05T19:18:13Z</time>
      </trkpt>
      <trkpt lat="59.372342" lon="17.645598">
        <ele>12.4</ele>
        <time>2015-05-05T19:18:14Z</time>
      </trkpt>
      <trkpt lat="59.372272" lon="17.645792">
        <ele>12.1</ele>
        <time>2015-05-05T19:18:15Z</time>
      </trkpt>
      <trkpt lat="59.372216" lon="17.645975">
        <ele>12</ele>
        <time>2015-05-05T19:18:16Z</time>
      </trkpt>
      <trkpt lat="59.372157" lon="17.646161">
        <ele>11.9</ele>
        <time>2015-05-05T19:18:17Z</time>
      </trkpt>
      <trkpt lat="59.372077" lon="17.646345">
        <ele>12</ele>
        <time>2015-05-05T19:18:18Z</time>
      </trkpt>
      <trkpt lat="59.372012" lon="17.646539">
        <ele>12.2</ele>
        <time>2015-05-05T19:18:19Z</time>
      </trkpt>
      <trkpt lat="59.371936" lon="17.646756">
        <ele>12.6</ele>
        <time>2015-05-05T19:18:20Z</time>
      </trkpt>
      <trkpt lat="59.371878" lon="17.646932">
        <ele>13.1</ele>
        <time>2015-05-05T19:18:21Z</time>
      </trkpt>
      <trkpt lat="59.371811" lon="17.647113">
        <ele>13.8</ele>
        <time>2015-05-05T19:18:22Z</time>
      </trkpt>
      <trkpt lat="59.371766" lon="17.647288">
        <ele>15</ele>
        <time>2015-05-05T19:18:23Z</time>
      </trkpt>
      <trkpt lat="59.371733" lon="17.647463">
        <ele>16.2</ele>
        <time>2015-05-05T19:18:24Z</time>
      </trkpt>
      <trkpt lat="59.371697" lon="17.647617">
        <ele>17.4</ele>
        <time>2015-05-05T19:18:25Z</time>
      </trkpt>
      <trkpt lat="59.371661" lon="17.647784">
        <ele>18.8</ele>
        <time>2015-05-05T19:18:26Z</time>
      </trkpt>
      <trkpt lat="59.371618" lon="17.647932">
        <ele>20.2</ele>
        <time>2015-05-05T19:18:27Z</time>
      </trkpt>
      <trkpt lat="59.371579" lon="17.648082">
        <ele>21.8</ele>
        <time>2015-05-05T19:18:28Z</time>
      </trkpt>
      <trkpt lat="59.371537" lon="17.648227">
        <ele>23.4</ele>
        <time>2015-05-05T19:18:29Z</time>
      </trkpt>
      <trkpt lat="59.371501" lon="17.648363">
        <ele>25</ele>
        <time>2015-05-05T19:18:30Z</time>
      </trkpt>
      <trkpt lat="59.371466" lon="17.648469">
        <ele>26.4</ele>
        <time>2015-05-05T19:18:31Z</time>
      </trkpt>
      <trkpt lat="59.37143" lon="17.648581">
        <ele>28</ele>
        <time>2015-05-05T19:18:32Z</time>
      </trkpt>
      <trkpt lat="59.371389" lon="17.648689">
        <ele>29.7</ele>
        <time>2015-05-05T19:18:33Z</time>
      </trkpt>
      <trkpt lat="59.371342" lon="17.648771">
        <ele>31</ele>
        <time>2015-05-05T19:18:34Z</time>
      </trkpt>
      <trkpt lat="59.371301" lon="17.648858">
        <ele>31.4</ele>
        <time>2015-05-05T19:18:35Z</time>
      </trkpt>
      <trkpt lat="59.371253" lon="17.648933">
        <ele>31.8</ele>
        <time>2015-05-05T19:18:36Z</time>
      </trkpt>
      <trkpt lat="59.37119" lon="17.649013">
        <ele>31.7</ele>
        <time>2015-05-05T19:18:37Z</time>
      </trkpt>
      <trkpt lat="59.371142" lon="17.649075">
        <ele>31.6</ele>
        <time>2015-05-05T19:18:38Z</time>
      </trkpt>
      <trkpt lat="59.371083" lon="17.649138">
        <ele>31.6</ele>
        <time>2015-05-05T19:18:39Z</time>
      </trkpt>
      <trkpt lat="59.371032" lon="17.649187">
        <ele>31.6</ele>
        <time>2015-05-05T19:18:40Z</time>
      </trkpt>
      <trkpt lat="59.370989" lon="17.649238">
        <ele>31.6</ele>
        <time>2015-05-05T19:18:41Z</time>
      </trkpt>
      <trkpt lat="59.370951" lon="17.649278">
        <ele>31.6</ele>
        <time>2015-05-05T19:18:42Z</time>
      </trkpt>
      <trkpt lat="59.370901" lon="17.649324">
        <ele>31.7</ele>
        <time>2015-05-05T19:18:43Z</time>
      </trkpt>
      <trkpt lat="59.370871" lon="17.64936">
        <ele>31.7</ele>
        <time>2015-05-05T19:18:44Z</time>
      </trkpt>
      <trkpt lat="59.370843" lon="17.649382">
        <ele>31.8</ele>
        <time>2015-05-05T19:18:45Z</time>
      </trkpt>
      <trkpt lat="59.370793" lon="17.649427">
        <ele>31.9</ele>
        <time>2015-05-05T19:18:46Z</time>
      </trkpt>
      <trkpt lat="59.370741" lon="17.649464">
        <ele>32.1</ele>
        <time>2015-05-05T19:18:47Z</time>
      </trkpt>
      <trkpt lat="59.370695" lon="17.649502">
        <ele>32.3</ele>
        <time>2015-05-05T19:18:48Z</time>
      </trkpt>
      <trkpt lat="59.370629" lon="17.649533">
        <ele>32.6</ele>
        <time>2015-05-05T19:18:49Z</time>
      </trkpt>
      <trkpt lat="59.370574" lon="17.649576">
        <ele>32.9</ele>
        <time>2015-05-05T19:18:50Z</time>
      </trkpt>
      <trkpt lat="59.37053" lon="17.649611">
        <ele>33.1</ele>
        <time>2015-05-05T19:18:51Z</time>
      </trkpt>
      <trkpt lat="59.370487" lon="17.649654">
        <ele>33.2</ele>
        <time>2015-05-05T19:18:52Z</time>
      </trkpt>
      <trkpt lat="59.370446" lon="17.649686">
        <ele>33.4</ele>
        <time>2015-05-05T19:18:53Z</time>
      </trkpt>
      <trkpt lat="59.370402" lon="17.649729">
        <ele>33.4</ele>
        <time>2015-05-05T19:18:54Z</time>
      </trkpt>
      <trkpt lat="59.370357" lon="17.649778">
        <ele>33.2</ele>
        <time>2015-05-05T19:18:55Z</time>
      </trkpt>
      <trkpt lat="59.370309" lon="17.649784">
        <ele>33</ele>
        <time>2015-05-05T19:18:56Z</time>
      </trkpt>
      <trkpt lat="59.370265" lon="17.649805">
        <ele>32.8</ele>
        <time>2015-05-05T19:18:57Z</time>
      </trkpt>
      <trkpt lat="59.370213" lon="17.649834">
        <ele>32.7</ele>
        <time>2015-05-05T19:18:58Z</time>
      </trkpt>
      <trkpt lat="59.370165" lon="17.649875">
        <ele>32.5</ele>
        <time>2015-05-05T19:18:59Z</time>
      </trkpt>
      <trkpt lat="59.370118" lon="17.649904">
        <ele>32.3</ele>
        <time>2015-05-05T19:19:00Z</time>
      </trkpt>
      <trkpt lat="59.370069" lon="17.649941">
        <ele>32.2</ele>
        <time>2015-05-05T19:19:01Z</time>
      </trkpt>
      <trkpt lat="59.370022" lon="17.649979">
        <ele>32.1</ele>
        <time>2015-05-05T19:19:02Z</time>
      </trkpt>
      <trkpt lat="59.369988" lon="17.649998">
        <ele>32</ele>
        <time>2015-05-05T19:19:03Z</time>
      </trkpt>
      <trkpt lat="59.369939" lon="17.650037">
        <ele>31.9</ele>
        <time>2015-05-05T19:19:04Z</time>
      </trkpt>
      <trkpt lat="59.369884" lon="17.650082">
        <ele>31.8</ele>
        <time>2015-05-05T19:19:05Z</time>
      </trkpt>
      <trkpt lat="59.369833" lon="17.650124">
        <ele>31.8</ele>
        <time>2015-05-05T19:19:06Z</time>
      </trkpt>
      <trkpt lat="59.369786" lon="17.65016">
        <ele>31.7</ele>
        <time>2015-05-05T19:19:07Z</time>
      </trkpt>
      <trkpt lat="59.369738" lon="17.650189">
        <ele>31.7</ele>
        <time>2015-05-05T19:19:08Z</time>
      </trkpt>
      <trkpt lat="59.369695" lon="17.650238">
        <ele>31.8</ele>
        <time>2015-05-05T19:19:09Z</time>
      </trkpt>
      <trkpt lat="59.369654" lon="17.650271">
        <ele>31.8</ele>
        <time>2015-05-05T19:19:10Z</time>
      </trkpt>
      <trkpt lat="59.369572" lon="17.650316">
        <ele>31.8</ele>
        <time>2015-05-05T19:19:11Z</time>
      </trkpt>
      <trkpt lat="59.369522" lon="17.650342">
        <ele>31.6</ele>
        <time>2015-05-05T19:19:12Z</time>
      </trkpt>
      <trkpt lat="59.36948" lon="17.650368">
        <ele>31.4</ele>
        <time>2015-05-05T19:19:13Z</time>
      </trkpt>
      <trkpt lat="59.369431" lon="17.65038">
        <ele>31.2</ele>
        <time>2015-05-05T19:19:14Z</time>
      </trkpt>
      <trkpt lat="59.369376" lon="17.650379">
        <ele>31</ele>
        <time>2015-05-05T19:19:15Z</time>
      </trkpt>
      <trkpt lat="59.369336" lon="17.650377">
        <ele>30.8</ele>
        <time>2015-05-05T19:19:16Z</time>
      </trkpt>
      <trkpt lat="59.369285" lon="17.650359">
        <ele>30.5</ele>
        <time>2015-05-05T19:19:17Z</time>
      </trkpt>
      <trkpt lat="59.369225" lon="17.650305">
        <ele>30.1</ele>
        <time>2015-05-05T19:19:18Z</time>
      </trkpt>
      <trkpt lat="59.369175" lon="17.650304">
        <ele>29.9</ele>
        <time>2015-05-05T19:19:19Z</time>
      </trkpt>
      <trkpt lat="59.369136" lon="17.650288">
        <ele>29.7</ele>
        <time>2015-05-05T19:19:20Z</time>
      </trkpt>
      <trkpt lat="59.369096" lon="17.650236">
        <ele>29.4</ele>
        <time>2015-05-05T19:19:21Z</time>
      </trkpt>
      <trkpt lat="59.369042" lon="17.650147">
        <ele>29.1</ele>
        <time>2015-05-05T19:19:22Z</time>
      </trkpt>
      <trkpt lat="59.368998" lon="17.650099">
        <ele>28.8</ele>
        <time>2015-05-05T19:19:23Z</time>
      </trkpt>
      <trkpt lat="59.368954" lon="17.650053">
        <ele>28.5</ele>
        <time>2015-05-05T19:19:24Z</time>
      </trkpt>
      <trkpt lat="59.36891" lon="17.649995">
        <ele>28.3</ele>
        <time>2015-05-05T19:19:25Z</time>
      </trkpt>
      <trkpt lat="59.368868" lon="17.649946">
        <ele>28</ele>
        <time>2015-05-05T19:19:26Z</time>
      </trkpt>
      <trkpt lat="59.368822" lon="17.649905">
        <ele>27.7</ele>
        <time>2015-05-05T19:19:27Z</time>
      </trkpt>
      <trkpt lat="59.368772" lon="17.64986">
        <ele>27.4</ele>
        <time>2015-05-05T19:19:28Z</time>
      </trkpt>
      <trkpt lat="59.36871" lon="17.649822">
        <ele>27.2</ele>
        <time>2015-05-05T19:19:29Z</time>
      </trkpt>
      <trkpt lat="59.368649" lon="17.649799">
        <ele>26.9</ele>
        <time>2015-05-05T19:19:30Z</time>
      </trkpt>
      <trkpt lat="59.368586" lon="17.649786">
        <ele>26.7</ele>
        <time>2015-05-05T19:19:31Z</time>
      </trkpt>
      <trkpt lat="59.368532" lon="17.649784">
        <ele>26.5</ele>
        <time>2015-05-05T19:19:32Z</time>
      </trkpt>
      <trkpt lat="59.368479" lon="17.649784">
        <ele>26.3</ele>
        <time>2015-05-05T19:19:33Z</time>
      </trkpt>
      <trkpt lat="59.368416" lon="17.649804">
        <ele>26.2</ele>
        <time>2015-05-05T19:19:34Z</time>
      </trkpt>
      <trkpt lat="59.368355" lon="17.649799">
        <ele>26</ele>
        <time>2015-05-05T19:19:35Z</time>
      </trkpt>
      <trkpt lat="59.368286" lon="17.649805">
        <ele>25.7</ele>
        <time>2015-05-05T19:19:36Z</time>
      </trkpt>
      <trkpt lat="59.36822" lon="17.649819">
        <ele>25.6</ele>
        <time>2015-05-05T19:19:37Z</time>
      </trkpt>
      <trkpt lat="59.368157" lon="17.64986">
        <ele>25.4</ele>
        <time>2015-05-05T19:19:38Z</time>
      </trkpt>
      <trkpt lat="59.36809" lon="17.64987">
        <ele>25.2</ele>
        <time>2015-05-05T19:19:39Z</time>
      </trkpt>
      <trkpt lat="59.368031" lon="17.649864">
        <ele>25</ele>
        <time>2015-05-05T19:19:40Z</time>
      </trkpt>
      <trkpt lat="59.367956" lon="17.64987">
        <ele>24.8</ele>
        <time>2015-05-05T19:19:41Z</time>
      </trkpt>
      <trkpt lat="59.367891" lon="17.649879">
        <ele>24.8</ele>
        <time>2015-05-05T19:19:42Z</time>
      </trkpt>
      <trkpt lat="59.36781" lon="17.649909">
        <ele>25</ele>
        <time>2015-05-05T19:19:43Z</time>
      </trkpt>
      <trkpt lat="59.367751" lon="17.649919">
        <ele>25.1</ele>
        <time>2015-05-05T19:19:44Z</time>
      </trkpt>
      <trkpt lat="59.367698" lon="17.649923">
        <ele>25.2</ele>
        <time>2015-05-05T19:19:45Z</time>
      </trkpt>
      <trkpt lat="59.36765" lon="17.649937">
        <ele>25.3</ele>
        <time>2015-05-05T19:19:46Z</time>
      </trkpt>
      <trkpt lat="59.367594" lon="17.649941">
        <ele>25.4</ele>
        <time>2015-05-05T19:19:47Z</time>
      </trkpt>
      <trkpt lat="59.367535" lon="17.649944">
        <ele>25.5</ele>
        <time>2015-05-05T19:19:48Z</time>
      </trkpt>
      <trkpt lat="59.367486" lon="17.64995">
        <ele>25.6</ele>
        <time>2015-05-05T19:19:49Z</time>
      </trkpt>
      <trkpt lat="59.367427" lon="17.649959">
        <ele>25.8</ele>
        <time>2015-05-05T19:19:50Z</time>
      </trkpt>
      <trkpt lat="59.367373" lon="17.649966">
        <ele>25.9</ele>
        <time>2015-05-05T19:19:51Z</time>
      </trkpt>
      <trkpt lat="59.367316" lon="17.649979">
        <ele>26</ele>
        <time>2015-05-05T19:19:52Z</time>
      </trkpt>
      <trkpt lat="59.367256" lon="17.649984">
        <ele>26.1</ele>
        <time>2015-05-05T19:19:53Z</time>
      </trkpt>
      <trkpt lat="59.367189" lon="17.649979">
        <ele>26.2</ele>
        <time>2015-05-05T19:19:54Z</time>
      </trkpt>
      <trkpt lat="59.367125" lon="17.649981">
        <ele>26.4</ele>
        <time>2015-05-05T19:19:55Z</time>
      </trkpt>
      <trkpt lat="59.367054" lon="17.650001">
        <ele>26.3</ele>
        <time>2015-05-05T19:19:56Z</time>
      </trkpt>
      <trkpt lat="59.366988" lon="17.650018">
        <ele>26</ele>
        <time>2015-05-05T19:19:57Z</time>
      </trkpt>
      <trkpt lat="59.366915" lon="17.650061">
        <ele>25.7</ele>
        <time>2015-05-05T19:19:58Z</time>
      </trkpt>
      <trkpt lat="59.366849" lon="17.650098">
        <ele>25.4</ele>
        <time>2015-05-05T19:19:59Z</time>
      </trkpt>
      <trkpt lat="59.366802" lon="17.650124">
        <ele>25.3</ele>
        <time>2015-05-05T19:20:00Z</time>
      </trkpt>
      <trkpt lat="59.366756" lon="17.650169">
        <ele>25.1</ele>
        <time>2015-05-05T19:20:01Z</time>
      </trkpt>
      <trkpt lat="59.366725" lon="17.650191">
        <ele>25</ele>
        <time>2015-05-05T19:20:02Z</time>
      </trkpt>
      <trkpt lat="59.366689" lon="17.650228">
        <ele>25</ele>
        <time>2015-05-05T19:20:03Z</time>
      </trkpt>
      <trkpt lat="59.366646" lon="17.650248">
        <ele>24.8</ele>
        <time>2015-05-05T19:20:04Z</time>
      </trkpt>
      <trkpt lat="59.366621" lon="17.650303">
        <ele>24.8</ele>
        <time>2015-05-05T19:20:05Z</time>
      </trkpt>
      <trkpt lat="59.366585" lon="17.650362">
        <ele>24.8</ele>
        <time>2015-05-05T19:20:06Z</time>
      </trkpt>
      <trkpt lat="59.366563" lon="17.650454">
        <ele>25</ele>
        <time>2015-05-05T19:20:07Z</time>
      </trkpt>
      <trkpt lat="59.36653" lon="17.650515">
        <ele>24.9</ele>
        <time>2015-05-05T19:20:08Z</time>
      </trkpt>
      <trkpt lat="59.366473" lon="17.650552">
        <ele>24.6</ele>
        <time>2015-05-05T19:20:09Z</time>
      </trkpt>
      <trkpt lat="59.366402" lon="17.650603">
        <ele>24.3</ele>
        <time>2015-05-05T19:20:10Z</time>
      </trkpt>
      <trkpt lat="59.366354" lon="17.65065">
        <ele>24</ele>
        <time>2015-05-05T19:20:11Z</time>
      </trkpt>
      <trkpt lat="59.366317" lon="17.650685">
        <ele>23.8</ele>
        <time>2015-05-05T19:20:12Z</time>
      </trkpt>
      <trkpt lat="59.366282" lon="17.650723">
        <ele>23.6</ele>
        <time>2015-05-05T19:20:13Z</time>
      </trkpt>
      <trkpt lat="59.366246" lon="17.650757">
        <ele>23.4</ele>
        <time>2015-05-05T19:20:14Z</time>
      </trkpt>
      <trkpt lat="59.366196" lon="17.650807">
        <ele>23.3</ele>
        <time>2015-05-05T19:20:15Z</time>
      </trkpt>
      <trkpt lat="59.366158" lon="17.650854">
        <ele>23.2</ele>
        <time>2015-05-05T19:20:16Z</time>
      </trkpt>
      <trkpt lat="59.366121" lon="17.650907">
        <ele>23.1</ele>
        <time>2015-05-05T19:20:17Z</time>
      </trkpt>
      <trkpt lat="59.36604" lon="17.650913">
        <ele>22.7</ele>
        <time>2015-05-05T19:20:18Z</time>
      </trkpt>
      <trkpt lat="59.365978" lon="17.650969">
        <ele>22.5</ele>
        <time>2015-05-05T19:20:19Z</time>
      </trkpt>
      <trkpt lat="59.365888" lon="17.651047">
        <ele>22</ele>
        <time>2015-05-05T19:20:20Z</time>
      </trkpt>
      <trkpt lat="59.365806" lon="17.651131">
        <ele>21.5</ele>
        <time>2015-05-05T19:20:21Z</time>
      </trkpt>
      <trkpt lat="59.365712" lon="17.6512">
        <ele>20.9</ele>
        <time>2015-05-05T19:20:22Z</time>
      </trkpt>
      <trkpt lat="59.365652" lon="17.651298">
        <ele>20.3</ele>
        <time>2015-05-05T19:20:23Z</time>
      </trkpt>
      <trkpt lat="59.3656" lon="17.651416">
        <ele>19.6</ele>
        <time>2015-05-05T19:20:24Z</time>
      </trkpt>
      <trkpt lat="59.365546" lon="17.651545">
        <ele>18.7</ele>
        <time>2015-05-05T19:20:25Z</time>
      </trkpt>
      <trkpt lat="59.365519" lon="17.651686">
        <ele>17.9</ele>
        <time>2015-05-05T19:20:26Z</time>
      </trkpt>
      <trkpt lat="59.365484" lon="17.651819">
        <ele>17</ele>
        <time>2015-05-05T19:20:27Z</time>
      </trkpt>
      <trkpt lat="59.365476" lon="17.651981">
        <ele>16.2</ele>
        <time>2015-05-05T19:20:28Z</time>
      </trkpt>
      <trkpt lat="59.365449" lon="17.652124">
        <ele>15.4</ele>
        <time>2015-05-05T19:20:29Z</time>
      </trkpt>
      <trkpt lat="59.365405" lon="17.652242">
        <ele>15</ele>
        <time>2015-05-05T19:20:30Z</time>
      </trkpt>
      <trkpt lat="59.365379" lon="17.652383">
        <ele>14.9</ele>
        <time>2015-05-05T19:20:31Z</time>
      </trkpt>
      <trkpt lat="59.365366" lon="17.65251">
        <ele>14.8</ele>
        <time>2015-05-05T19:20:32Z</time>
      </trkpt>
      <trkpt lat="59.365337" lon="17.652645">
        <ele>14.7</ele>
        <time>2015-05-05T19:20:33Z</time>
      </trkpt>
      <trkpt lat="59.365315" lon="17.652782">
        <ele>14.6</ele>
        <time>2015-05-05T19:20:34Z</time>
      </trkpt>
      <trkpt lat="59.365295" lon="17.652891">
        <ele>14.6</ele>
        <time>2015-05-05T19:20:35Z</time>
      </trkpt>
      <trkpt lat="59.365288" lon="17.653004">
        <ele>14.4</ele>
        <time>2015-05-05T19:20:36Z</time>
      </trkpt>
      <trkpt lat="59.365281" lon="17.653081">
        <ele>14.3</ele>
        <time>2015-05-05T19:20:37Z</time>
      </trkpt>
      <trkpt lat="59.365273" lon="17.653155">
        <ele>14.2</ele>
        <time>2015-05-05T19:20:38Z</time>
      </trkpt>
      <trkpt lat="59.365266" lon="17.653221">
        <ele>14.1</ele>
        <time>2015-05-05T19:20:39Z</time>
      </trkpt>
      <trkpt lat="59.365256" lon="17.653283">
        <ele>14</ele>
        <time>2015-05-05T19:20:40Z</time>
      </trkpt>
      <trkpt lat="59.365243" lon="17.653345">
        <ele>13.9</ele>
        <time>2015-05-05T19:20:41Z</time>
      </trkpt>
      <trkpt lat="59.365233" lon="17.65341">
        <ele>13.7</ele>
        <time>2015-05-05T19:20:42Z</time>
      </trkpt>
      <trkpt lat="59.365222" lon="17.653482">
        <ele>13.6</ele>
        <time>2015-05-05T19:20:43Z</time>
      </trkpt>
      <trkpt lat="59.365217" lon="17.653548">
        <ele>13.5</ele>
        <time>2015-05-05T19:20:44Z</time>
      </trkpt>
      <trkpt lat="59.36521" lon="17.65364">
        <ele>13.4</ele>
        <time>2015-05-05T19:20:45Z</time>
      </trkpt>
      <trkpt lat="59.365195" lon="17.653737">
        <ele>13.2</ele>
        <time>2015-05-05T19:20:46Z</time>
      </trkpt>
      <trkpt lat="59.36519" lon="17.65383">
        <ele>13.3</ele>
        <time>2015-05-05T19:20:47Z</time>
      </trkpt>
      <trkpt lat="59.365178" lon="17.653922">
        <ele>13.4</ele>
        <time>2015-05-05T19:20:48Z</time>
      </trkpt>
      <trkpt lat="59.365162" lon="17.65401">
        <ele>13.5</ele>
        <time>2015-05-05T19:20:49Z</time>
      </trkpt>
      <trkpt lat="59.365135" lon="17.654101">
        <ele>13.5</ele>
        <time>2015-05-05T19:20:50Z</time>
      </trkpt>
      <trkpt lat="59.365121" lon="17.65422">
        <ele>13.7</ele>
        <time>2015-05-05T19:20:51Z</time>
      </trkpt>
      <trkpt lat="59.365099" lon="17.654329">
        <ele>13.7</ele>
        <time>2015-05-05T19:20:52Z</time>
      </trkpt>
      <trkpt lat="59.365069" lon="17.654465">
        <ele>13.7</ele>
        <time>2015-05-05T19:20:53Z</time>
      </trkpt>
      <trkpt lat="59.365052" lon="17.65458">
        <ele>13.8</ele>
        <time>2015-05-05T19:20:54Z</time>
      </trkpt>
      <trkpt lat="59.365022" lon="17.654691">
        <ele>13.8</ele>
        <time>2015-05-05T19:20:55Z</time>
      </trkpt>
      <trkpt lat="59.364988" lon="17.654803">
        <ele>13.8</ele>
        <time>2015-05-05T19:20:56Z</time>
      </trkpt>
      <trkpt lat="59.364945" lon="17.654912">
        <ele>13.7</ele>
        <time>2015-05-05T19:20:57Z</time>
      </trkpt>
      <trkpt lat="59.364884" lon="17.655012">
        <ele>13.5</ele>
        <time>2015-05-05T19:20:58Z</time>
      </trkpt>
      <trkpt lat="59.364819" lon="17.655129">
        <ele>13.3</ele>
        <time>2015-05-05T19:20:59Z</time>
      </trkpt>
      <trkpt lat="59.364759" lon="17.655217">
        <ele>13</ele>
        <time>2015-05-05T19:21:00Z</time>
      </trkpt>
      <trkpt lat="59.364691" lon="17.655283">
        <ele>12.6</ele>
        <time>2015-05-05T19:21:01Z</time>
      </trkpt>
      <trkpt lat="59.364619" lon="17.655368">
        <ele>12.2</ele>
        <time>2015-05-05T19:21:02Z</time>
      </trkpt>
      <trkpt lat="59.364539" lon="17.655457">
        <ele>11.9</ele>
        <time>2015-05-05T19:21:03Z</time>
      </trkpt>
      <trkpt lat="59.364461" lon="17.65554">
        <ele>11.7</ele>
        <time>2015-05-05T19:21:04Z</time>
      </trkpt>
      <trkpt lat="59.364383" lon="17.655629">
        <ele>11.5</ele>
        <time>2015-05-05T19:21:05Z</time>
      </trkpt>
      <trkpt lat="59.364303" lon="17.655717">
        <ele>11.3</ele>
        <time>2015-05-05T19:21:06Z</time>
      </trkpt>
      <trkpt lat="59.364216" lon="17.655812">
        <ele>11.1</ele>
        <time>2015-05-05T19:21:07Z</time>
      </trkpt>
      <trkpt lat="59.364128" lon="17.655904">
        <ele>10.9</ele>
        <time>2015-05-05T19:21:08Z</time>
      </trkpt>
      <trkpt lat="59.364044" lon="17.656001">
        <ele>10.7</ele>
        <time>2015-05-05T19:21:09Z</time>
      </trkpt>
      <trkpt lat="59.363959" lon="17.656099">
        <ele>10.5</ele>
        <time>2015-05-05T19:21:10Z</time>
      </trkpt>
      <trkpt lat="59.363882" lon="17.656192">
        <ele>10.3</ele>
        <time>2015-05-05T19:21:11Z</time>
      </trkpt>
      <trkpt lat="59.363793" lon="17.656297">
        <ele>10.2</ele>
        <time>2015-05-05T19:21:12Z</time>
      </trkpt>
      <trkpt lat="59.363708" lon="17.656381">
        <ele>10.2</ele>
        <time>2015-05-05T19:21:13Z</time>
      </trkpt>
      <trkpt lat="59.363625" lon="17.656485">
        <ele>10.3</ele>
        <time>2015-05-05T19:21:14Z</time>
      </trkpt>
      <trkpt lat="59.363538" lon="17.656584">
        <ele>10.5</ele>
        <time>2015-05-05T19:21:15Z</time>
      </trkpt>
      <trkpt lat="59.363454" lon="17.656694">
        <ele>10.7</ele>
        <time>2015-05-05T19:21:16Z</time>
      </trkpt>
      <trkpt lat="59.363381" lon="17.656809">
        <ele>11</ele>
        <time>2015-05-05T19:21:17Z</time>
      </trkpt>
      <trkpt lat="59.363313" lon="17.65693">
        <ele>11.2</ele>
        <time>2015-05-05T19:21:18Z</time>
      </trkpt>
      <trkpt lat="59.363243" lon="17.65706">
        <ele>11.6</ele>
        <time>2015-05-05T19:21:19Z</time>
      </trkpt>
      <trkpt lat="59.363177" lon="17.657184">
        <ele>11.7</ele>
        <time>2015-05-05T19:21:20Z</time>
      </trkpt>
      <trkpt lat="59.363113" lon="17.65732">
        <ele>11.8</ele>
        <time>2015-05-05T19:21:21Z</time>
      </trkpt>
      <trkpt lat="59.363051" lon="17.657442">
        <ele>11.8</ele>
        <time>2015-05-05T19:21:22Z</time>
      </trkpt>
      <trkpt lat="59.36299" lon="17.657575">
        <ele>11.9</ele>
        <time>2015-05-05T19:21:23Z</time>
      </trkpt>
      <trkpt lat="59.362931" lon="17.657706">
        <ele>12</ele>
        <time>2015-05-05T19:21:24Z</time>
      </trkpt>
      <trkpt lat="59.362892" lon="17.65783">
        <ele>12.3</ele>
        <time>2015-05-05T19:21:25Z</time>
      </trkpt>
      <trkpt lat="59.362827" lon="17.657956">
        <ele>13.1</ele>
        <time>2015-05-05T19:21:26Z</time>
      </trkpt>
      <trkpt lat="59.362762" lon="17.658081">
        <ele>14</ele>
        <time>2015-05-05T19:21:27Z</time>
      </trkpt>
      <trkpt lat="59.362703" lon="17.658203">
        <ele>14.7</ele>
        <time>2015-05-05T19:21:28Z</time>
      </trkpt>
      <trkpt lat="59.362641" lon="17.658325">
        <ele>15.5</ele>
        <time>2015-05-05T19:21:29Z</time>
      </trkpt>
      <trkpt lat="59.362579" lon="17.658435">
        <ele>16.2</ele>
        <time>2015-05-05T19:21:30Z</time>
      </trkpt>
      <trkpt lat="59.362505" lon="17.658566">
        <ele>16.9</ele>
        <time>2015-05-05T19:21:31Z</time>
      </trkpt>
      <trkpt lat="59.362449" lon="17.658683">
        <ele>17.5</ele>
        <time>2015-05-05T19:21:32Z</time>
      </trkpt>
      <trkpt lat="59.36239" lon="17.6588">
        <ele>18</ele>
        <time>2015-05-05T19:21:33Z</time>
      </trkpt>
      <trkpt lat="59.362329" lon="17.658914">
        <ele>18.4</ele>
        <time>2015-05-05T19:21:34Z</time>
      </trkpt>
      <trkpt lat="59.362274" lon="17.659018">
        <ele>18.7</ele>
        <time>2015-05-05T19:21:35Z</time>
      </trkpt>
      <trkpt lat="59.362213" lon="17.659123">
        <ele>19.1</ele>
        <time>2015-05-05T19:21:36Z</time>
      </trkpt>
      <trkpt lat="59.362162" lon="17.659206">
        <ele>19.3</ele>
        <time>2015-05-05T19:21:37Z</time>
      </trkpt>
      <trkpt lat="59.362109" lon="17.659309">
        <ele>19.5</ele>
        <time>2015-05-05T19:21:38Z</time>
      </trkpt>
      <trkpt lat="59.362058" lon="17.659417">
        <ele>19.5</ele>
        <time>2015-05-05T19:21:39Z</time>
      </trkpt>
      <trkpt lat="59.362005" lon="17.659527">
        <ele>19.3</ele>
        <time>2015-05-05T19:21:40Z</time>
      </trkpt>
      <trkpt lat="59.361952" lon="17.659637">
        <ele>19.2</ele>
        <time>2015-05-05T19:21:41Z</time>
      </trkpt>
      <trkpt lat="59.361901" lon="17.659742">
        <ele>19</ele>
        <time>2015-05-05T19:21:42Z</time>
      </trkpt>
      <trkpt lat="59.361852" lon="17.659859">
        <ele>18.8</ele>
        <time>2015-05-05T19:21:43Z</time>
      </trkpt>
      <trkpt lat="59.361807" lon="17.659966">
        <ele>18.6</ele>
        <time>2015-05-05T19:21:44Z</time>
      </trkpt>
      <trkpt lat="59.361762" lon="17.660081">
        <ele>18.3</ele>
        <time>2015-05-05T19:21:45Z</time>
      </trkpt>
      <trkpt lat="59.361714" lon="17.660187">
        <ele>18.1</ele>
        <time>2015-05-05T19:21:46Z</time>
      </trkpt>
      <trkpt lat="59.361674" lon="17.660282">
        <ele>17.9</ele>
        <time>2015-05-05T19:21:47Z</time>
      </trkpt>
      <trkpt lat="59.36163" lon="17.660388">
        <ele>17.6</ele>
        <time>2015-05-05T19:21:48Z</time>
      </trkpt>
      <trkpt lat="59.361585" lon="17.660496">
        <ele>18</ele>
        <time>2015-05-05T19:21:49Z</time>
      </trkpt>
      <trkpt lat="59.36154" lon="17.66061">
        <ele>18.6</ele>
        <time>2015-05-05T19:21:50Z</time>
      </trkpt>
      <trkpt lat="59.361492" lon="17.660713">
        <ele>19.1</ele>
        <time>2015-05-05T19:21:51Z</time>
      </trkpt>
      <trkpt lat="59.36145" lon="17.660822">
        <ele>19.6</ele>
        <time>2015-05-05T19:21:52Z</time>
      </trkpt>
      <trkpt lat="59.361402" lon="17.660931">
        <ele>20</ele>
        <time>2015-05-05T19:21:53Z</time>
      </trkpt>
      <trkpt lat="59.361338" lon="17.661025">
        <ele>20.3</ele>
        <time>2015-05-05T19:21:54Z</time>
      </trkpt>
      <trkpt lat="59.361278" lon="17.661131">
        <ele>20.6</ele>
        <time>2015-05-05T19:21:55Z</time>
      </trkpt>
      <trkpt lat="59.361211" lon="17.661199">
        <ele>20.8</ele>
        <time>2015-05-05T19:21:56Z</time>
      </trkpt>
      <trkpt lat="59.361154" lon="17.661283">
        <ele>21</ele>
        <time>2015-05-05T19:21:57Z</time>
      </trkpt>
      <trkpt lat="59.361088" lon="17.661343">
        <ele>21.2</ele>
        <time>2015-05-05T19:21:58Z</time>
      </trkpt>
      <trkpt lat="59.361031" lon="17.661419">
        <ele>21.5</ele>
        <time>2015-05-05T19:21:59Z</time>
      </trkpt>
      <trkpt lat="59.360953" lon="17.661453">
        <ele>21.5</ele>
        <time>2015-05-05T19:22:00Z</time>
      </trkpt>
      <trkpt lat="59.360879" lon="17.661481">
        <ele>21.5</ele>
        <time>2015-05-05T19:22:01Z</time>
      </trkpt>
      <trkpt lat="59.360815" lon="17.661524">
        <ele>21.6</ele>
        <time>2015-05-05T19:22:02Z</time>
      </trkpt>
      <trkpt lat="59.360752" lon="17.661551">
        <ele>21.6</ele>
        <time>2015-05-05T19:22:03Z</time>
      </trkpt>
      <trkpt lat="59.360679" lon="17.661578">
        <ele>21.6</ele>
        <time>2015-05-05T19:22:04Z</time>
      </trkpt>
      <trkpt lat="59.360611" lon="17.661596">
        <ele>21.6</ele>
        <time>2015-05-05T19:22:05Z</time>
      </trkpt>
      <trkpt lat="59.360538" lon="17.661594">
        <ele>21.4</ele>
        <time>2015-05-05T19:22:06Z</time>
      </trkpt>
      <trkpt lat="59.360472" lon="17.661589">
        <ele>21.3</ele>
        <time>2015-05-05T19:22:07Z</time>
      </trkpt>
      <trkpt lat="59.360397" lon="17.66157">
        <ele>21.2</ele>
        <time>2015-05-05T19:22:08Z</time>
      </trkpt>
      <trkpt lat="59.360329" lon="17.66156">
        <ele>21.1</ele>
        <time>2015-05-05T19:22:09Z</time>
      </trkpt>
      <trkpt lat="59.360255" lon="17.661551">
        <ele>21.1</ele>
        <time>2015-05-05T19:22:10Z</time>
      </trkpt>
      <trkpt lat="59.360162" lon="17.661553">
        <ele>21.1</ele>
        <time>2015-05-05T19:22:11Z</time>
      </trkpt>
      <trkpt lat="59.360078" lon="17.661532">
        <ele>21</ele>
        <time>2015-05-05T19:22:12Z</time>
      </trkpt>
      <trkpt lat="59.359997" lon="17.661519">
        <ele>21</ele>
        <time>2015-05-05T19:22:13Z</time>
      </trkpt>
      <trkpt lat="59.359909" lon="17.661495">
        <ele>20.9</ele>
        <time>2015-05-05T19:22:14Z</time>
      </trkpt>
      <trkpt lat="59.359828" lon="17.6615">
        <ele>20.9</ele>
        <time>2015-05-05T19:22:15Z</time>
      </trkpt>
      <trkpt lat="59.359752" lon="17.6615">
        <ele>20.9</ele>
        <time>2015-05-05T19:22:16Z</time>
      </trkpt>
      <trkpt lat="59.359677" lon="17.661495">
        <ele>20.9</ele>
        <time>2015-05-05T19:22:17Z</time>
      </trkpt>
      <trkpt lat="59.359597" lon="17.661482">
        <ele>20.8</ele>
        <time>2015-05-05T19:22:18Z</time>
      </trkpt>
      <trkpt lat="59.359515" lon="17.661491">
        <ele>21</ele>
        <time>2015-05-05T19:22:19Z</time>
      </trkpt>
      <trkpt lat="59.359419" lon="17.661487">
        <ele>21.2</ele>
        <time>2015-05-05T19:22:20Z</time>
      </trkpt>
      <trkpt lat="59.359329" lon="17.661481">
        <ele>21.4</ele>
        <time>2015-05-05T19:22:21Z</time>
      </trkpt>
      <trkpt lat="59.359242" lon="17.66146">
        <ele>21.6</ele>
        <time>2015-05-05T19:22:22Z</time>
      </trkpt>
      <trkpt lat="59.359151" lon="17.661442">
        <ele>21.7</ele>
        <time>2015-05-05T19:22:23Z</time>
      </trkpt>
      <trkpt lat="59.35906" lon="17.661432">
        <ele>21.9</ele>
        <time>2015-05-05T19:22:24Z</time>
      </trkpt>
      <trkpt lat="59.358977" lon="17.661423">
        <ele>22.1</ele>
        <time>2015-05-05T19:22:25Z</time>
      </trkpt>
      <trkpt lat="59.358891" lon="17.661416">
        <ele>22.3</ele>
        <time>2015-05-05T19:22:26Z</time>
      </trkpt>
      <trkpt lat="59.358807" lon="17.661412">
        <ele>22.4</ele>
        <time>2015-05-05T19:22:27Z</time>
      </trkpt>
      <trkpt lat="59.358721" lon="17.661404">
        <ele>22.5</ele>
        <time>2015-05-05T19:22:28Z</time>
      </trkpt>
      <trkpt lat="59.358633" lon="17.6614">
        <ele>22.3</ele>
        <time>2015-05-05T19:22:29Z</time>
      </trkpt>
      <trkpt lat="59.358548" lon="17.661398">
        <ele>22</ele>
        <time>2015-05-05T19:22:30Z</time>
      </trkpt>
      <trkpt lat="59.358461" lon="17.661386">
        <ele>21.8</ele>
        <time>2015-05-05T19:22:31Z</time>
      </trkpt>
      <trkpt lat="59.358386" lon="17.661386">
        <ele>21.6</ele>
        <time>2015-05-05T19:22:32Z</time>
      </trkpt>
      <trkpt lat="59.358316" lon="17.661369">
        <ele>21.4</ele>
        <time>2015-05-05T19:22:33Z</time>
      </trkpt>
      <trkpt lat="59.358219" lon="17.661385">
        <ele>21.2</ele>
        <time>2015-05-05T19:22:34Z</time>
      </trkpt>
      <trkpt lat="59.35812" lon="17.661366">
        <ele>20.9</ele>
        <time>2015-05-05T19:22:35Z</time>
      </trkpt>
      <trkpt lat="59.358035" lon="17.661342">
        <ele>20.6</ele>
        <time>2015-05-05T19:22:36Z</time>
      </trkpt>
      <trkpt lat="59.357962" lon="17.661346">
        <ele>20.5</ele>
        <time>2015-05-05T19:22:37Z</time>
      </trkpt>
      <trkpt lat="59.357866" lon="17.661343">
        <ele>20.1</ele>
        <time>2015-05-05T19:22:38Z</time>
      </trkpt>
      <trkpt lat="59.357787" lon="17.661349">
        <ele>19.7</ele>
        <time>2015-05-05T19:22:39Z</time>
      </trkpt>
      <trkpt lat="59.357702" lon="17.661353">
        <ele>19.3</ele>
        <time>2015-05-05T19:22:40Z</time>
      </trkpt>
      <trkpt lat="59.357618" lon="17.661357">
        <ele>19</ele>
        <time>2015-05-05T19:22:41Z</time>
      </trkpt>
      <trkpt lat="59.357559" lon="17.661395">
        <ele>18.8</ele>
        <time>2015-05-05T19:22:42Z</time>
      </trkpt>
      <trkpt lat="59.357465" lon="17.661446">
        <ele>18.5</ele>
        <time>2015-05-05T19:22:43Z</time>
      </trkpt>
      <trkpt lat="59.357382" lon="17.661478">
        <ele>18.3</ele>
        <time>2015-05-05T19:22:44Z</time>
      </trkpt>
      <trkpt lat="59.357295" lon="17.661629">
        <ele>18.4</ele>
        <time>2015-05-05T19:22:45Z</time>
      </trkpt>
      <trkpt lat="59.357234" lon="17.661758">
        <ele>18.6</ele>
        <time>2015-05-05T19:22:46Z</time>
      </trkpt>
      <trkpt lat="59.357165" lon="17.661876">
        <ele>18.6</ele>
        <time>2015-05-05T19:22:47Z</time>
      </trkpt>
      <trkpt lat="59.35711" lon="17.662011">
        <ele>18.9</ele>
        <time>2015-05-05T19:22:48Z</time>
      </trkpt>
      <trkpt lat="59.357055" lon="17.662136">
        <ele>19.2</ele>
        <time>2015-05-05T19:22:49Z</time>
      </trkpt>
      <trkpt lat="59.356988" lon="17.662297">
        <ele>19.9</ele>
        <time>2015-05-05T19:22:50Z</time>
      </trkpt>
      <trkpt lat="59.356934" lon="17.662428">
        <ele>20.5</ele>
        <time>2015-05-05T19:22:51Z</time>
      </trkpt>
      <trkpt lat="59.35688" lon="17.662588">
        <ele>21.2</ele>
        <time>2015-05-05T19:22:52Z</time>
      </trkpt>
      <trkpt lat="59.356825" lon="17.662709">
        <ele>21.9</ele>
        <time>2015-05-05T19:22:53Z</time>
      </trkpt>
      <trkpt lat="59.35677" lon="17.662826">
        <ele>22.6</ele>
        <time>2015-05-05T19:22:54Z</time>
      </trkpt>
      <trkpt lat="59.356721" lon="17.662949">
        <ele>23.3</ele>
        <time>2015-05-05T19:22:55Z</time>
      </trkpt>
      <trkpt lat="59.356667" lon="17.663067">
        <ele>24.1</ele>
        <time>2015-05-05T19:22:56Z</time>
      </trkpt>
      <trkpt lat="59.356628" lon="17.663209">
        <ele>25</ele>
        <time>2015-05-05T19:22:57Z</time>
      </trkpt>
      <trkpt lat="59.356594" lon="17.663342">
        <ele>25.8</ele>
        <time>2015-05-05T19:22:58Z</time>
      </trkpt>
      <trkpt lat="59.35658" lon="17.663509">
        <ele>26.6</ele>
        <time>2015-05-05T19:22:59Z</time>
      </trkpt>
      <trkpt lat="59.35657" lon="17.663664">
        <ele>27.3</ele>
        <time>2015-05-05T19:23:00Z</time>
      </trkpt>
      <trkpt lat="59.356572" lon="17.663808">
        <ele>27.7</ele>
        <time>2015-05-05T19:23:01Z</time>
      </trkpt>
      <trkpt lat="59.356581" lon="17.663957">
        <ele>27.8</ele>
        <time>2015-05-05T19:23:02Z</time>
      </trkpt>
      <trkpt lat="59.356584" lon="17.664106">
        <ele>27.9</ele>
        <time>2015-05-05T19:23:03Z</time>
      </trkpt>
      <trkpt lat="59.35662" lon="17.664221">
        <ele>27.7</ele>
        <time>2015-05-05T19:23:04Z</time>
      </trkpt>
      <trkpt lat="59.356676" lon="17.66436">
        <ele>27.3</ele>
        <time>2015-05-05T19:23:05Z</time>
      </trkpt>
      <trkpt lat="59.356705" lon="17.664489">
        <ele>27.1</ele>
        <time>2015-05-05T19:23:06Z</time>
      </trkpt>
      <trkpt lat="59.356746" lon="17.664614">
        <ele>26.9</ele>
        <time>2015-05-05T19:23:07Z</time>
      </trkpt>
      <trkpt lat="59.356783" lon="17.664741">
        <ele>26.7</ele>
        <time>2015-05-05T19:23:08Z</time>
      </trkpt>
      <trkpt lat="59.35682" lon="17.664867">
        <ele>26.6</ele>
        <time>2015-05-05T19:23:09Z</time>
      </trkpt>
      <trkpt lat="59.356875" lon="17.664996">
        <ele>26.2</ele>
        <time>2015-05-05T19:23:10Z</time>
      </trkpt>
      <trkpt lat="59.356929" lon="17.665143">
        <ele>26</ele>
        <time>2015-05-05T19:23:11Z</time>
      </trkpt>
      <trkpt lat="59.356963" lon="17.665281">
        <ele>25.8</ele>
        <time>2015-05-05T19:23:12Z</time>
      </trkpt>
      <trkpt lat="59.357" lon="17.665418">
        <ele>25.7</ele>
        <time>2015-05-05T19:23:13Z</time>
      </trkpt>
      <trkpt lat="59.35703" lon="17.665563">
        <ele>25.4</ele>
        <time>2015-05-05T19:23:14Z</time>
      </trkpt>
      <trkpt lat="59.357065" lon="17.665741">
        <ele>25.2</ele>
        <time>2015-05-05T19:23:15Z</time>
      </trkpt>
      <trkpt lat="59.357099" lon="17.665896">
        <ele>25</ele>
        <time>2015-05-05T19:23:16Z</time>
      </trkpt>
      <trkpt lat="59.357128" lon="17.666066">
        <ele>25</ele>
        <time>2015-05-05T19:23:17Z</time>
      </trkpt>
      <trkpt lat="59.357165" lon="17.66626">
        <ele>25</ele>
        <time>2015-05-05T19:23:18Z</time>
      </trkpt>
      <trkpt lat="59.357177" lon="17.666419">
        <ele>25</ele>
        <time>2015-05-05T19:23:19Z</time>
      </trkpt>
      <trkpt lat="59.357188" lon="17.666587">
        <ele>25</ele>
        <time>2015-05-05T19:23:20Z</time>
      </trkpt>
      <trkpt lat="59.357191" lon="17.666724">
        <ele>25</ele>
        <time>2015-05-05T19:23:21Z</time>
      </trkpt>
      <trkpt lat="59.357201" lon="17.666882">
        <ele>25</ele>
        <time>2015-05-05T19:23:22Z</time>
      </trkpt>
      <trkpt lat="59.357213" lon="17.667061">
        <ele>25</ele>
        <time>2015-05-05T19:23:23Z</time>
      </trkpt>
      <trkpt lat="59.357236" lon="17.667229">
        <ele>25.2</ele>
        <time>2015-05-05T19:23:24Z</time>
      </trkpt>
      <trkpt lat="59.357243" lon="17.667384">
        <ele>25.4</ele>
        <time>2015-05-05T19:23:25Z</time>
      </trkpt>
      <trkpt lat="59.357252" lon="17.667531">
        <ele>25.6</ele>
        <time>2015-05-05T19:23:26Z</time>
      </trkpt>
      <trkpt lat="59.357273" lon="17.667665">
        <ele>25.9</ele>
        <time>2015-05-05T19:23:27Z</time>
      </trkpt>
      <trkpt lat="59.357282" lon="17.667817">
        <ele>26.1</ele>
        <time>2015-05-05T19:23:28Z</time>
      </trkpt>
      <trkpt lat="59.357308" lon="17.667958">
        <ele>26.3</ele>
        <time>2015-05-05T19:23:29Z</time>
      </trkpt>
      <trkpt lat="59.357323" lon="17.668108">
        <ele>26.6</ele>
        <time>2015-05-05T19:23:30Z</time>
      </trkpt>
      <trkpt lat="59.357328" lon="17.668241">
        <ele>26.8</ele>
        <time>2015-05-05T19:23:31Z</time>
      </trkpt>
      <trkpt lat="59.357335" lon="17.668376">
        <ele>27</ele>
        <time>2015-05-05T19:23:32Z</time>
      </trkpt>
      <trkpt lat="59.357351" lon="17.668519">
        <ele>27.3</ele>
        <time>2015-05-05T19:23:33Z</time>
      </trkpt>
      <trkpt lat="59.357369" lon="17.668667">
        <ele>27.6</ele>
        <time>2015-05-05T19:23:34Z</time>
      </trkpt>
      <trkpt lat="59.357386" lon="17.668803">
        <ele>27.9</ele>
        <time>2015-05-05T19:23:35Z</time>
      </trkpt>
      <trkpt lat="59.3574" lon="17.668949">
        <ele>28.3</ele>
        <time>2015-05-05T19:23:36Z</time>
      </trkpt>
      <trkpt lat="59.357422" lon="17.669111">
        <ele>28.8</ele>
        <time>2015-05-05T19:23:37Z</time>
      </trkpt>
      <trkpt lat="59.357432" lon="17.669235">
        <ele>29.1</ele>
        <time>2015-05-05T19:23:38Z</time>
      </trkpt>
      <trkpt lat="59.357457" lon="17.669371">
        <ele>29.5</ele>
        <time>2015-05-05T19:23:39Z</time>
      </trkpt>
      <trkpt lat="59.357488" lon="17.669508">
        <ele>29.8</ele>
        <time>2015-05-05T19:23:40Z</time>
      </trkpt>
      <trkpt lat="59.357509" lon="17.669631">
        <ele>30.1</ele>
        <time>2015-05-05T19:23:41Z</time>
      </trkpt>
      <trkpt lat="59.357541" lon="17.669764">
        <ele>30.4</ele>
        <time>2015-05-05T19:23:42Z</time>
      </trkpt>
      <trkpt lat="59.357545" lon="17.669913">
        <ele>30.7</ele>
        <time>2015-05-05T19:23:43Z</time>
      </trkpt>
      <trkpt lat="59.357564" lon="17.670025">
        <ele>31</ele>
        <time>2015-05-05T19:23:44Z</time>
      </trkpt>
      <trkpt lat="59.357587" lon="17.670139">
        <ele>31.2</ele>
        <time>2015-05-05T19:23:45Z</time>
      </trkpt>
      <trkpt lat="59.357604" lon="17.670238">
        <ele>31.4</ele>
        <time>2015-05-05T19:23:46Z</time>
      </trkpt>
      <trkpt lat="59.357617" lon="17.670348">
        <ele>31.6</ele>
        <time>2015-05-05T19:23:47Z</time>
      </trkpt>
      <trkpt lat="59.357639" lon="17.670474">
        <ele>31.8</ele>
        <time>2015-05-05T19:23:48Z</time>
      </trkpt>
      <trkpt lat="59.357647" lon="17.67061">
        <ele>32</ele>
        <time>2015-05-05T19:23:49Z</time>
      </trkpt>
      <trkpt lat="59.357659" lon="17.670738">
        <ele>32.1</ele>
        <time>2015-05-05T19:23:50Z</time>
      </trkpt>
      <trkpt lat="59.357662" lon="17.670886">
        <ele>32.3</ele>
        <time>2015-05-05T19:23:51Z</time>
      </trkpt>
      <trkpt lat="59.357652" lon="17.671035">
        <ele>32.6</ele>
        <time>2015-05-05T19:23:52Z</time>
      </trkpt>
      <trkpt lat="59.357639" lon="17.671174">
        <ele>32.9</ele>
        <time>2015-05-05T19:23:53Z</time>
      </trkpt>
      <trkpt lat="59.357635" lon="17.671314">
        <ele>33.2</ele>
        <time>2015-05-05T19:23:54Z</time>
      </trkpt>
      <trkpt lat="59.35762" lon="17.671456">
        <ele>33.7</ele>
        <time>2015-05-05T19:23:55Z</time>
      </trkpt>
      <trkpt lat="59.357606" lon="17.671593">
        <ele>34.1</ele>
        <time>2015-05-05T19:23:56Z</time>
      </trkpt>
      <trkpt lat="59.357598" lon="17.671731">
        <ele>34.5</ele>
        <time>2015-05-05T19:23:57Z</time>
      </trkpt>
      <trkpt lat="59.35759" lon="17.671872">
        <ele>35</ele>
        <time>2015-05-05T19:23:58Z</time>
      </trkpt>
      <trkpt lat="59.357584" lon="17.672007">
        <ele>35.4</ele>
        <time>2015-05-05T19:23:59Z</time>
      </trkpt>
      <trkpt lat="59.357574" lon="17.672141">
        <ele>35.7</ele>
        <time>2015-05-05T19:24:00Z</time>
      </trkpt>
      <trkpt lat="59.357567" lon="17.672268">
        <ele>35.8</ele>
        <time>2015-05-05T19:24:01Z</time>
      </trkpt>
      <trkpt lat="59.357558" lon="17.672406">
        <ele>35.9</ele>
        <time>2015-05-05T19:24:02Z</time>
      </trkpt>
      <trkpt lat="59.357541" lon="17.672553">
        <ele>36.1</ele>
        <time>2015-05-05T19:24:03Z</time>
      </trkpt>
      <trkpt lat="59.357526" lon="17.672713">
        <ele>36.2</ele>
        <time>2015-05-05T19:24:04Z</time>
      </trkpt>
      <trkpt lat="59.357525" lon="17.672849">
        <ele>36.3</ele>
        <time>2015-05-05T19:24:05Z</time>
      </trkpt>
      <trkpt lat="59.357517" lon="17.672993">
        <ele>36.4</ele>
        <time>2015-05-05T19:24:06Z</time>
      </trkpt>
      <trkpt lat="59.357505" lon="17.673151">
        <ele>36.6</ele>
        <time>2015-05-05T19:24:07Z</time>
      </trkpt>
      <trkpt lat="59.357501" lon="17.673293">
        <ele>36.7</ele>
        <time>2015-05-05T19:24:08Z</time>
      </trkpt>
      <trkpt lat="59.357496" lon="17.673436">
        <ele>36.8</ele>
        <time>2015-05-05T19:24:09Z</time>
      </trkpt>
      <trkpt lat="59.357486" lon="17.673583">
        <ele>37</ele>
        <time>2015-05-05T19:24:10Z</time>
      </trkpt>
      <trkpt lat="59.357482" lon="17.673732">
        <ele>37.1</ele>
        <time>2015-05-05T19:24:11Z</time>
      </trkpt>
      <trkpt lat="59.357478" lon="17.673878">
        <ele>37.2</ele>
        <time>2015-05-05T19:24:12Z</time>
      </trkpt>
      <trkpt lat="59.357467" lon="17.674019">
        <ele>37.2</ele>
        <time>2015-05-05T19:24:13Z</time>
      </trkpt>
      <trkpt lat="59.357466" lon="17.674152">
        <ele>37.2</ele>
        <time>2015-05-05T19:24:14Z</time>
      </trkpt>
      <trkpt lat="59.357473" lon="17.674308">
        <ele>37.2</ele>
        <time>2015-05-05T19:24:15Z</time>
      </trkpt>
      <trkpt lat="59.357482" lon="17.674458">
        <ele>37.1</ele>
        <time>2015-05-05T19:24:16Z</time>
      </trkpt>
      <trkpt lat="59.357498" lon="17.674596">
        <ele>37</ele>
        <time>2015-05-05T19:24:17Z</time>
      </trkpt>
      <trkpt lat="59.357522" lon="17.674741">
        <ele>36.8</ele>
        <time>2015-05-05T19:24:18Z</time>
      </trkpt>
      <trkpt lat="59.357542" lon="17.674875">
        <ele>36.5</ele>
        <time>2015-05-05T19:24:19Z</time>
      </trkpt>
      <trkpt lat="59.357573" lon="17.675012">
        <ele>36.3</ele>
        <time>2015-05-05T19:24:20Z</time>
      </trkpt>
      <trkpt lat="59.357617" lon="17.675126">
        <ele>35.9</ele>
        <time>2015-05-05T19:24:21Z</time>
      </trkpt>
      <trkpt lat="59.357659" lon="17.675266">
        <ele>35.6</ele>
        <time>2015-05-05T19:24:22Z</time>
      </trkpt>
      <trkpt lat="59.357694" lon="17.675403">
        <ele>35.3</ele>
        <time>2015-05-05T19:24:23Z</time>
      </trkpt>
      <trkpt lat="59.357715" lon="17.675543">
        <ele>35.1</ele>
        <time>2015-05-05T19:24:24Z</time>
      </trkpt>
      <trkpt lat="59.357718" lon="17.675699">
        <ele>34.9</ele>
        <time>2015-05-05T19:24:25Z</time>
      </trkpt>
      <trkpt lat="59.35772" lon="17.675854">
        <ele>34.7</ele>
        <time>2015-05-05T19:24:26Z</time>
      </trkpt>
      <trkpt lat="59.357721" lon="17.676013">
        <ele>34.5</ele>
        <time>2015-05-05T19:24:27Z</time>
      </trkpt>
      <trkpt lat="59.357715" lon="17.676178">
        <ele>34.3</ele>
        <time>2015-05-05T19:24:28Z</time>
      </trkpt>
      <trkpt lat="59.3577" lon="17.676345">
        <ele>34.2</ele>
        <time>2015-05-05T19:24:29Z</time>
      </trkpt>
      <trkpt lat="59.357683" lon="17.676518">
        <ele>34</ele>
        <time>2015-05-05T19:24:30Z</time>
      </trkpt>
      <trkpt lat="59.357659" lon="17.676699">
        <ele>33.8</ele>
        <time>2015-05-05T19:24:31Z</time>
      </trkpt>
      <trkpt lat="59.35762" lon="17.676869">
        <ele>33.8</ele>
        <time>2015-05-05T19:24:32Z</time>
      </trkpt>
      <trkpt lat="59.35758" lon="17.677035">
        <ele>33.7</ele>
        <time>2015-05-05T19:24:33Z</time>
      </trkpt>
      <trkpt lat="59.357544" lon="17.677209">
        <ele>33.7</ele>
        <time>2015-05-05T19:24:34Z</time>
      </trkpt>
      <trkpt lat="59.357508" lon="17.677386">
        <ele>33.8</ele>
        <time>2015-05-05T19:24:35Z</time>
      </trkpt>
      <trkpt lat="59.357471" lon="17.677543">
        <ele>33.9</ele>
        <time>2015-05-05T19:24:36Z</time>
      </trkpt>
      <trkpt lat="59.357437" lon="17.677691">
        <ele>34</ele>
        <time>2015-05-05T19:24:37Z</time>
      </trkpt>
      <trkpt lat="59.357404" lon="17.677852">
        <ele>34.1</ele>
        <time>2015-05-05T19:24:38Z</time>
      </trkpt>
      <trkpt lat="59.357368" lon="17.678014">
        <ele>34.3</ele>
        <time>2015-05-05T19:24:39Z</time>
      </trkpt>
      <trkpt lat="59.357334" lon="17.678174">
        <ele>34.6</ele>
        <time>2015-05-05T19:24:40Z</time>
      </trkpt>
      <trkpt lat="59.357305" lon="17.678345">
        <ele>34.9</ele>
        <time>2015-05-05T19:24:41Z</time>
      </trkpt>
      <trkpt lat="59.357278" lon="17.678487">
        <ele>35.2</ele>
        <time>2015-05-05T19:24:42Z</time>
      </trkpt>
      <trkpt lat="59.35724" lon="17.678645">
        <ele>35.6</ele>
        <time>2015-05-05T19:24:43Z</time>
      </trkpt>
      <trkpt lat="59.357211" lon="17.678785">
        <ele>35.9</ele>
        <time>2015-05-05T19:24:44Z</time>
      </trkpt>
      <trkpt lat="59.357166" lon="17.678958">
        <ele>36.3</ele>
        <time>2015-05-05T19:24:45Z</time>
      </trkpt>
      <trkpt lat="59.357141" lon="17.679092">
        <ele>36.5</ele>
        <time>2015-05-05T19:24:46Z</time>
      </trkpt>
      <trkpt lat="59.357112" lon="17.679258">
        <ele>36.8</ele>
        <time>2015-05-05T19:24:47Z</time>
      </trkpt>
      <trkpt lat="59.357095" lon="17.679432">
        <ele>36.9</ele>
        <time>2015-05-05T19:24:48Z</time>
      </trkpt>
      <trkpt lat="59.357085" lon="17.679598">
        <ele>37</ele>
        <time>2015-05-05T19:24:49Z</time>
      </trkpt>
      <trkpt lat="59.357067" lon="17.679744">
        <ele>37</ele>
        <time>2015-05-05T19:24:50Z</time>
      </trkpt>
      <trkpt lat="59.357042" lon="17.679892">
        <ele>37</ele>
        <time>2015-05-05T19:24:51Z</time>
      </trkpt>
      <trkpt lat="59.357034" lon="17.680065">
        <ele>36.9</ele>
        <time>2015-05-05T19:24:52Z</time>
      </trkpt>
      <trkpt lat="59.35702" lon="17.68023">
        <ele>36.9</ele>
        <time>2015-05-05T19:24:53Z</time>
      </trkpt>
      <trkpt lat="59.357005" lon="17.680412">
        <ele>36.9</ele>
        <time>2015-05-05T19:24:54Z</time>
      </trkpt>
      <trkpt lat="59.356993" lon="17.680595">
        <ele>35.9</ele>
        <time>2015-05-05T19:24:55Z</time>
      </trkpt>
      <trkpt lat="59.356988" lon="17.68076">
        <ele>34.9</ele>
        <time>2015-05-05T19:24:56Z</time>
      </trkpt>
      <trkpt lat="59.356972" lon="17.680949">
        <ele>33.8</ele>
        <time>2015-05-05T19:24:57Z</time>
      </trkpt>
      <trkpt lat="59.35696" lon="17.681137">
        <ele>32.8</ele>
        <time>2015-05-05T19:24:58Z</time>
      </trkpt>
      <trkpt lat="59.356948" lon="17.681296">
        <ele>31.9</ele>
        <time>2015-05-05T19:24:59Z</time>
      </trkpt>
      <trkpt lat="59.356941" lon="17.681463">
        <ele>30.9</ele>
        <time>2015-05-05T19:25:00Z</time>
      </trkpt>
      <trkpt lat="59.356916" lon="17.681637">
        <ele>30</ele>
        <time>2015-05-05T19:25:01Z</time>
      </trkpt>
      <trkpt lat="59.356889" lon="17.681814">
        <ele>29</ele>
        <time>2015-05-05T19:25:02Z</time>
      </trkpt>
      <trkpt lat="59.356861" lon="17.681983">
        <ele>28.1</ele>
        <time>2015-05-05T19:25:03Z</time>
      </trkpt>
      <trkpt lat="59.356842" lon="17.682162">
        <ele>27.5</ele>
        <time>2015-05-05T19:25:04Z</time>
      </trkpt>
      <trkpt lat="59.356822" lon="17.682327">
        <ele>27.4</ele>
        <time>2015-05-05T19:25:05Z</time>
      </trkpt>
      <trkpt lat="59.356798" lon="17.682492">
        <ele>27.3</ele>
        <time>2015-05-05T19:25:06Z</time>
      </trkpt>
      <trkpt lat="59.35677" lon="17.682654">
        <ele>27.2</ele>
        <time>2015-05-05T19:25:07Z</time>
      </trkpt>
      <trkpt lat="59.356743" lon="17.682818">
        <ele>27.1</ele>
        <time>2015-05-05T19:25:08Z</time>
      </trkpt>
      <trkpt lat="59.356703" lon="17.683006">
        <ele>26.8</ele>
        <time>2015-05-05T19:25:09Z</time>
      </trkpt>
      <trkpt lat="59.356663" lon="17.683162">
        <ele>26.6</ele>
        <time>2015-05-05T19:25:10Z</time>
      </trkpt>
      <trkpt lat="59.35663" lon="17.683319">
        <ele>26.3</ele>
        <time>2015-05-05T19:25:11Z</time>
      </trkpt>
      <trkpt lat="59.356594" lon="17.683468">
        <ele>25.9</ele>
        <time>2015-05-05T19:25:12Z</time>
      </trkpt>
      <trkpt lat="59.356565" lon="17.683618">
        <ele>25.6</ele>
        <time>2015-05-05T19:25:13Z</time>
      </trkpt>
      <trkpt lat="59.356557" lon="17.683773">
        <ele>25.4</ele>
        <time>2015-05-05T19:25:14Z</time>
      </trkpt>
      <trkpt lat="59.356549" lon="17.683932">
        <ele>25.4</ele>
        <time>2015-05-05T19:25:15Z</time>
      </trkpt>
      <trkpt lat="59.356541" lon="17.684084">
        <ele>25.3</ele>
        <time>2015-05-05T19:25:16Z</time>
      </trkpt>
      <trkpt lat="59.356551" lon="17.684234">
        <ele>25.4</ele>
        <time>2015-05-05T19:25:17Z</time>
      </trkpt>
      <trkpt lat="59.356576" lon="17.684407">
        <ele>25.4</ele>
        <time>2015-05-05T19:25:18Z</time>
      </trkpt>
      <trkpt lat="59.356596" lon="17.684555">
        <ele>25.4</ele>
        <time>2015-05-05T19:25:19Z</time>
      </trkpt>
      <trkpt lat="59.35662" lon="17.684705">
        <ele>25.5</ele>
        <time>2015-05-05T19:25:20Z</time>
      </trkpt>
      <trkpt lat="59.356634" lon="17.684858">
        <ele>25.6</ele>
        <time>2015-05-05T19:25:21Z</time>
      </trkpt>
      <trkpt lat="59.356644" lon="17.685021">
        <ele>25.7</ele>
        <time>2015-05-05T19:25:22Z</time>
      </trkpt>
      <trkpt lat="59.356657" lon="17.685202">
        <ele>25.9</ele>
        <time>2015-05-05T19:25:23Z</time>
      </trkpt>
      <trkpt lat="59.356664" lon="17.68539">
        <ele>26</ele>
        <time>2015-05-05T19:25:24Z</time>
      </trkpt>
      <trkpt lat="59.356664" lon="17.685562">
        <ele>26.1</ele>
        <time>2015-05-05T19:25:25Z</time>
      </trkpt>
      <trkpt lat="59.356671" lon="17.685747">
        <ele>26.2</ele>
        <time>2015-05-05T19:25:26Z</time>
      </trkpt>
      <trkpt lat="59.356675" lon="17.685922">
        <ele>26.3</ele>
        <time>2015-05-05T19:25:27Z</time>
      </trkpt>
      <trkpt lat="59.356705" lon="17.686126">
        <ele>26.6</ele>
        <time>2015-05-05T19:25:28Z</time>
      </trkpt>
      <trkpt lat="59.356711" lon="17.686297">
        <ele>26.7</ele>
        <time>2015-05-05T19:25:29Z</time>
      </trkpt>
      <trkpt lat="59.356727" lon="17.686476">
        <ele>26.9</ele>
        <time>2015-05-05T19:25:30Z</time>
      </trkpt>
      <trkpt lat="59.356716" lon="17.686633">
        <ele>26.9</ele>
        <time>2015-05-05T19:25:31Z</time>
      </trkpt>
      <trkpt lat="59.356718" lon="17.686785">
        <ele>27</ele>
        <time>2015-05-05T19:25:32Z</time>
      </trkpt>
      <trkpt lat="59.356726" lon="17.68694">
        <ele>27.2</ele>
        <time>2015-05-05T19:25:33Z</time>
      </trkpt>
      <trkpt lat="59.356736" lon="17.687087">
        <ele>27.3</ele>
        <time>2015-05-05T19:25:34Z</time>
      </trkpt>
      <trkpt lat="59.356739" lon="17.687235">
        <ele>27.5</ele>
        <time>2015-05-05T19:25:35Z</time>
      </trkpt>
      <trkpt lat="59.35675" lon="17.687401">
        <ele>27.8</ele>
        <time>2015-05-05T19:25:36Z</time>
      </trkpt>
      <trkpt lat="59.356748" lon="17.68757">
        <ele>28</ele>
        <time>2015-05-05T19:25:37Z</time>
      </trkpt>
      <trkpt lat="59.356765" lon="17.687712">
        <ele>28.2</ele>
        <time>2015-05-05T19:25:38Z</time>
      </trkpt>
      <trkpt lat="59.35678" lon="17.68786">
        <ele>28.5</ele>
        <time>2015-05-05T19:25:39Z</time>
      </trkpt>
      <trkpt lat="59.35681" lon="17.687994">
        <ele>28.9</ele>
        <time>2015-05-05T19:25:40Z</time>
      </trkpt>
      <trkpt lat="59.356834" lon="17.688147">
        <ele>29.4</ele>
        <time>2015-05-05T19:25:41Z</time>
      </trkpt>
      <trkpt lat="59.356865" lon="17.688308">
        <ele>29.9</ele>
        <time>2015-05-05T19:25:42Z</time>
      </trkpt>
      <trkpt lat="59.35691" lon="17.688446">
        <ele>30.4</ele>
        <time>2015-05-05T19:25:43Z</time>
      </trkpt>
      <trkpt lat="59.356959" lon="17.688606">
        <ele>31.1</ele>
        <time>2015-05-05T19:25:44Z</time>
      </trkpt>
      <trkpt lat="59.357009" lon="17.688759">
        <ele>31.7</ele>
        <time>2015-05-05T19:25:45Z</time>
      </trkpt>
      <trkpt lat="59.357052" lon="17.688932">
        <ele>32.1</ele>
        <time>2015-05-05T19:25:46Z</time>
      </trkpt>
      <trkpt lat="59.357102" lon="17.689093">
        <ele>32.3</ele>
        <time>2015-05-05T19:25:47Z</time>
      </trkpt>
      <trkpt lat="59.357153" lon="17.689238">
        <ele>32.1</ele>
        <time>2015-05-05T19:25:48Z</time>
      </trkpt>
      <trkpt lat="59.357211" lon="17.689386">
        <ele>31.8</ele>
        <time>2015-05-05T19:25:49Z</time>
      </trkpt>
      <trkpt lat="59.357266" lon="17.689539">
        <ele>31.6</ele>
        <time>2015-05-05T19:25:50Z</time>
      </trkpt>
      <trkpt lat="59.35732" lon="17.689679">
        <ele>31.5</ele>
        <time>2015-05-05T19:25:51Z</time>
      </trkpt>
      <trkpt lat="59.357369" lon="17.689814">
        <ele>31.5</ele>
        <time>2015-05-05T19:25:52Z</time>
      </trkpt>
      <trkpt lat="59.35742" lon="17.689937">
        <ele>31.4</ele>
        <time>2015-05-05T19:25:53Z</time>
      </trkpt>
      <trkpt lat="59.357471" lon="17.690088">
        <ele>31.4</ele>
        <time>2015-05-05T19:25:54Z</time>
      </trkpt>
      <trkpt lat="59.357523" lon="17.690229">
        <ele>31.4</ele>
        <time>2015-05-05T19:25:55Z</time>
      </trkpt>
      <trkpt lat="59.357576" lon="17.690382">
        <ele>31.4</ele>
        <time>2015-05-05T19:25:56Z</time>
      </trkpt>
      <trkpt lat="59.357615" lon="17.69052">
        <ele>31.3</ele>
        <time>2015-05-05T19:25:57Z</time>
      </trkpt>
      <trkpt lat="59.357654" lon="17.690682">
        <ele>31.1</ele>
        <time>2015-05-05T19:25:58Z</time>
      </trkpt>
      <trkpt lat="59.35769" lon="17.690832">
        <ele>31</ele>
        <time>2015-05-05T19:25:59Z</time>
      </trkpt>
      <trkpt lat="59.357729" lon="17.690985">
        <ele>30.9</ele>
        <time>2015-05-05T19:26:00Z</time>
      </trkpt>
      <trkpt lat="59.357757" lon="17.69113">
        <ele>30.8</ele>
        <time>2015-05-05T19:26:01Z</time>
      </trkpt>
      <trkpt lat="59.357785" lon="17.691292">
        <ele>30.9</ele>
        <time>2015-05-05T19:26:02Z</time>
      </trkpt>
      <trkpt lat="59.357813" lon="17.691451">
        <ele>31</ele>
        <time>2015-05-05T19:26:03Z</time>
      </trkpt>
      <trkpt lat="59.357837" lon="17.691614">
        <ele>31.2</ele>
        <time>2015-05-05T19:26:04Z</time>
      </trkpt>
      <trkpt lat="59.357863" lon="17.691774">
        <ele>31.5</ele>
        <time>2015-05-05T19:26:05Z</time>
      </trkpt>
      <trkpt lat="59.357893" lon="17.691927">
        <ele>31.7</ele>
        <time>2015-05-05T19:26:06Z</time>
      </trkpt>
      <trkpt lat="59.357921" lon="17.692086">
        <ele>32</ele>
        <time>2015-05-05T19:26:07Z</time>
      </trkpt>
      <trkpt lat="59.357948" lon="17.692247">
        <ele>32</ele>
        <time>2015-05-05T19:26:08Z</time>
      </trkpt>
      <trkpt lat="59.35797" lon="17.692415">
        <ele>32.1</ele>
        <time>2015-05-05T19:26:09Z</time>
      </trkpt>
      <trkpt lat="59.357991" lon="17.692598">
        <ele>32.1</ele>
        <time>2015-05-05T19:26:10Z</time>
      </trkpt>
      <trkpt lat="59.358019" lon="17.692765">
        <ele>32.1</ele>
        <time>2015-05-05T19:26:11Z</time>
      </trkpt>
      <trkpt lat="59.358029" lon="17.692929">
        <ele>32.2</ele>
        <time>2015-05-05T19:26:12Z</time>
      </trkpt>
      <trkpt lat="59.358053" lon="17.693076">
        <ele>32.4</ele>
        <time>2015-05-05T19:26:13Z</time>
      </trkpt>
      <trkpt lat="59.358075" lon="17.693242">
        <ele>32.6</ele>
        <time>2015-05-05T19:26:14Z</time>
      </trkpt>
      <trkpt lat="59.358096" lon="17.693415">
        <ele>32.8</ele>
        <time>2015-05-05T19:26:15Z</time>
      </trkpt>
      <trkpt lat="59.358115" lon="17.693581">
        <ele>33</ele>
        <time>2015-05-05T19:26:16Z</time>
      </trkpt>
      <trkpt lat="59.358146" lon="17.693741">
        <ele>33.1</ele>
        <time>2015-05-05T19:26:17Z</time>
      </trkpt>
      <trkpt lat="59.358172" lon="17.693906">
        <ele>32.7</ele>
        <time>2015-05-05T19:26:18Z</time>
      </trkpt>
      <trkpt lat="59.358187" lon="17.694076">
        <ele>32.5</ele>
        <time>2015-05-05T19:26:19Z</time>
      </trkpt>
      <trkpt lat="59.358216" lon="17.694211">
        <ele>32.1</ele>
        <time>2015-05-05T19:26:20Z</time>
      </trkpt>
      <trkpt lat="59.358279" lon="17.69434">
        <ele>31.6</ele>
        <time>2015-05-05T19:26:21Z</time>
      </trkpt>
      <trkpt lat="59.358329" lon="17.694482">
        <ele>31.1</ele>
        <time>2015-05-05T19:26:22Z</time>
      </trkpt>
      <trkpt lat="59.358375" lon="17.694597">
        <ele>30.7</ele>
        <time>2015-05-05T19:26:23Z</time>
      </trkpt>
      <trkpt lat="59.358419" lon="17.694711">
        <ele>30.4</ele>
        <time>2015-05-05T19:26:24Z</time>
      </trkpt>
      <trkpt lat="59.358457" lon="17.694835">
        <ele>30.1</ele>
        <time>2015-05-05T19:26:25Z</time>
      </trkpt>
      <trkpt lat="59.3585" lon="17.694955">
        <ele>29.8</ele>
        <time>2015-05-05T19:26:26Z</time>
      </trkpt>
      <trkpt lat="59.358539" lon="17.695098">
        <ele>29.7</ele>
        <time>2015-05-05T19:26:27Z</time>
      </trkpt>
      <trkpt lat="59.358565" lon="17.695232">
        <ele>29.6</ele>
        <time>2015-05-05T19:26:28Z</time>
      </trkpt>
      <trkpt lat="59.358589" lon="17.695401">
        <ele>29.6</ele>
        <time>2015-05-05T19:26:29Z</time>
      </trkpt>
      <trkpt lat="59.35859" lon="17.695548">
        <ele>29.8</ele>
        <time>2015-05-05T19:26:30Z</time>
      </trkpt>
      <trkpt lat="59.35858" lon="17.695735">
        <ele>30.1</ele>
        <time>2015-05-05T19:26:31Z</time>
      </trkpt>
      <trkpt lat="59.358578" lon="17.695892">
        <ele>30.3</ele>
        <time>2015-05-05T19:26:32Z</time>
      </trkpt>
      <trkpt lat="59.358566" lon="17.696057">
        <ele>30.5</ele>
        <time>2015-05-05T19:26:33Z</time>
      </trkpt>
      <trkpt lat="59.358539" lon="17.696259">
        <ele>30.8</ele>
        <time>2015-05-05T19:26:34Z</time>
      </trkpt>
      <trkpt lat="59.358513" lon="17.6964">
        <ele>30.8</ele>
        <time>2015-05-05T19:26:35Z</time>
      </trkpt>
      <trkpt lat="59.358465" lon="17.696507">
        <ele>30.7</ele>
        <time>2015-05-05T19:26:36Z</time>
      </trkpt>
      <trkpt lat="59.358414" lon="17.696619">
        <ele>30.6</ele>
        <time>2015-05-05T19:26:37Z</time>
      </trkpt>
      <trkpt lat="59.35835" lon="17.696723">
        <ele>30.3</ele>
        <time>2015-05-05T19:26:38Z</time>
      </trkpt>
      <trkpt lat="59.358286" lon="17.696831">
        <ele>29.9</ele>
        <time>2015-05-05T19:26:39Z</time>
      </trkpt>
      <trkpt lat="59.358202" lon="17.696891">
        <ele>29.4</ele>
        <time>2015-05-05T19:26:40Z</time>
      </trkpt>
      <trkpt lat="59.35813" lon="17.696962">
        <ele>28.8</ele>
        <time>2015-05-05T19:26:41Z</time>
      </trkpt>
      <trkpt lat="59.35804" lon="17.697047">
        <ele>28</ele>
        <time>2015-05-05T19:26:42Z</time>
      </trkpt>
      <trkpt lat="59.357964" lon="17.697118">
        <ele>27.5</ele>
        <time>2015-05-05T19:26:43Z</time>
      </trkpt>
      <trkpt lat="59.357897" lon="17.697148">
        <ele>27.2</ele>
        <time>2015-05-05T19:26:44Z</time>
      </trkpt>
      <trkpt lat="59.357819" lon="17.697211">
        <ele>27.2</ele>
        <time>2015-05-05T19:26:45Z</time>
      </trkpt>
      <trkpt lat="59.357742" lon="17.69728">
        <ele>27.2</ele>
        <time>2015-05-05T19:26:46Z</time>
      </trkpt>
      <trkpt lat="59.357673" lon="17.697344">
        <ele>27.2</ele>
        <time>2015-05-05T19:26:47Z</time>
      </trkpt>
      <trkpt lat="59.357602" lon="17.697442">
        <ele>27.3</ele>
        <time>2015-05-05T19:26:48Z</time>
      </trkpt>
      <trkpt lat="59.357533" lon="17.697541">
        <ele>27.3</ele>
        <time>2015-05-05T19:26:49Z</time>
      </trkpt>
      <trkpt lat="59.357478" lon="17.697652">
        <ele>27.4</ele>
        <time>2015-05-05T19:26:50Z</time>
      </trkpt>
      <trkpt lat="59.357422" lon="17.69778">
        <ele>27.6</ele>
        <time>2015-05-05T19:26:51Z</time>
      </trkpt>
      <trkpt lat="59.357363" lon="17.697898">
        <ele>27.6</ele>
        <time>2015-05-05T19:26:52Z</time>
      </trkpt>
      <trkpt lat="59.357325" lon="17.698059">
        <ele>27.9</ele>
        <time>2015-05-05T19:26:53Z</time>
      </trkpt>
      <trkpt lat="59.357264" lon="17.698159">
        <ele>27.8</ele>
        <time>2015-05-05T19:26:54Z</time>
      </trkpt>
      <trkpt lat="59.357209" lon="17.698265">
        <ele>27.7</ele>
        <time>2015-05-05T19:26:55Z</time>
      </trkpt>
      <trkpt lat="59.357156" lon="17.698388">
        <ele>27.7</ele>
        <time>2015-05-05T19:26:56Z</time>
      </trkpt>
      <trkpt lat="59.3571" lon="17.698506">
        <ele>27.5</ele>
        <time>2015-05-05T19:26:57Z</time>
      </trkpt>
      <trkpt lat="59.357056" lon="17.698598">
        <ele>27.4</ele>
        <time>2015-05-05T19:26:58Z</time>
      </trkpt>
      <trkpt lat="59.357006" lon="17.698714">
        <ele>27.3</ele>
        <time>2015-05-05T19:26:59Z</time>
      </trkpt>
      <trkpt lat="59.356958" lon="17.698854">
        <ele>27.2</ele>
        <time>2015-05-05T19:27:00Z</time>
      </trkpt>
      <trkpt lat="59.356912" lon="17.698991">
        <ele>27.1</ele>
        <time>2015-05-05T19:27:01Z</time>
      </trkpt>
      <trkpt lat="59.356892" lon="17.699126">
        <ele>27.2</ele>
        <time>2015-05-05T19:27:02Z</time>
      </trkpt>
      <trkpt lat="59.356865" lon="17.699279">
        <ele>27.3</ele>
        <time>2015-05-05T19:27:03Z</time>
      </trkpt>
      <trkpt lat="59.356864" lon="17.699421">
        <ele>27.6</ele>
        <time>2015-05-05T19:27:04Z</time>
      </trkpt>
      <trkpt lat="59.356867" lon="17.699555">
        <ele>27.9</ele>
        <time>2015-05-05T19:27:05Z</time>
      </trkpt>
      <trkpt lat="59.356884" lon="17.699699">
        <ele>28.4</ele>
        <time>2015-05-05T19:27:06Z</time>
      </trkpt>
      <trkpt lat="59.356938" lon="17.699835">
        <ele>29.2</ele>
        <time>2015-05-05T19:27:07Z</time>
      </trkpt>
      <trkpt lat="59.357" lon="17.699972">
        <ele>30.1</ele>
        <time>2015-05-05T19:27:08Z</time>
      </trkpt>
      <trkpt lat="59.357067" lon="17.700111">
        <ele>31.1</ele>
        <time>2015-05-05T19:27:09Z</time>
      </trkpt>
      <trkpt lat="59.357133" lon="17.700255">
        <ele>31.9</ele>
        <time>2015-05-05T19:27:10Z</time>
      </trkpt>
      <trkpt lat="59.357185" lon="17.700402">
        <ele>32.6</ele>
        <time>2015-05-05T19:27:11Z</time>
      </trkpt>
      <trkpt lat="59.35726" lon="17.700568">
        <ele>32.9</ele>
        <time>2015-05-05T19:27:12Z</time>
      </trkpt>
      <trkpt lat="59.357333" lon="17.700735">
        <ele>33</ele>
        <time>2015-05-05T19:27:13Z</time>
      </trkpt>
      <trkpt lat="59.357399" lon="17.700908">
        <ele>33</ele>
        <time>2015-05-05T19:27:14Z</time>
      </trkpt>
      <trkpt lat="59.35747" lon="17.701102">
        <ele>32.8</ele>
        <time>2015-05-05T19:27:15Z</time>
      </trkpt>
      <trkpt lat="59.357532" lon="17.701307">
        <ele>32.4</ele>
        <time>2015-05-05T19:27:16Z</time>
      </trkpt>
      <trkpt lat="59.357588" lon="17.701532">
        <ele>31.7</ele>
        <time>2015-05-05T19:27:17Z</time>
      </trkpt>
      <trkpt lat="59.357642" lon="17.701788">
        <ele>30.7</ele>
        <time>2015-05-05T19:27:18Z</time>
      </trkpt>
      <trkpt lat="59.357697" lon="17.702046">
        <ele>29.7</ele>
        <time>2015-05-05T19:27:19Z</time>
      </trkpt>
      <trkpt lat="59.35775" lon="17.702294">
        <ele>27.8</ele>
        <time>2015-05-05T19:27:20Z</time>
      </trkpt>
      <trkpt lat="59.35781" lon="17.702545">
        <ele>25.6</ele>
        <time>2015-05-05T19:27:21Z</time>
      </trkpt>
      <trkpt lat="59.357871" lon="17.702795">
        <ele>23.3</ele>
        <time>2015-05-05T19:27:22Z</time>
      </trkpt>
      <trkpt lat="59.357917" lon="17.703061">
        <ele>20.8</ele>
        <time>2015-05-05T19:27:23Z</time>
      </trkpt>
      <trkpt lat="59.357967" lon="17.703322">
        <ele>18.4</ele>
        <time>2015-05-05T19:27:24Z</time>
      </trkpt>
      <trkpt lat="59.358003" lon="17.703572">
        <ele>16.2</ele>
        <time>2015-05-05T19:27:25Z</time>
      </trkpt>
      <trkpt lat="59.358034" lon="17.703835">
        <ele>14.4</ele>
        <time>2015-05-05T19:27:26Z</time>
      </trkpt>
      <trkpt lat="59.358049" lon="17.704087">
        <ele>13.8</ele>
        <time>2015-05-05T19:27:27Z</time>
      </trkpt>
      <trkpt lat="59.358069" lon="17.704341">
        <ele>13.3</ele>
        <time>2015-05-05T19:27:28Z</time>
      </trkpt>
      <trkpt lat="59.358076" lon="17.704587">
        <ele>12.8</ele>
        <time>2015-05-05T19:27:29Z</time>
      </trkpt>
      <trkpt lat="59.358071" lon="17.704824">
        <ele>12.3</ele>
        <time>2015-05-05T19:27:30Z</time>
      </trkpt>
      <trkpt lat="59.358058" lon="17.705044">
        <ele>11.9</ele>
        <time>2015-05-05T19:27:31Z</time>
      </trkpt>
      <trkpt lat="59.358048" lon="17.705249">
        <ele>11.5</ele>
        <time>2015-05-05T19:27:32Z</time>
      </trkpt>
      <trkpt lat="59.358033" lon="17.705459">
        <ele>11.2</ele>
        <time>2015-05-05T19:27:33Z</time>
      </trkpt>
      <trkpt lat="59.358013" lon="17.705662">
        <ele>11.7</ele>
        <time>2015-05-05T19:27:34Z</time>
      </trkpt>
      <trkpt lat="59.35799" lon="17.705836">
        <ele>12.1</ele>
        <time>2015-05-05T19:27:35Z</time>
      </trkpt>
      <trkpt lat="59.357966" lon="17.706009">
        <ele>12.5</ele>
        <time>2015-05-05T19:27:36Z</time>
      </trkpt>
      <trkpt lat="59.357946" lon="17.70617">
        <ele>12.8</ele>
        <time>2015-05-05T19:27:37Z</time>
      </trkpt>
      <trkpt lat="59.357936" lon="17.706306">
        <ele>13.2</ele>
        <time>2015-05-05T19:27:38Z</time>
      </trkpt>
      <trkpt lat="59.357912" lon="17.706465">
        <ele>13.5</ele>
        <time>2015-05-05T19:27:39Z</time>
      </trkpt>
      <trkpt lat="59.357889" lon="17.706621">
        <ele>13.7</ele>
        <time>2015-05-05T19:27:40Z</time>
      </trkpt>
      <trkpt lat="59.357841" lon="17.706781">
        <ele>13.8</ele>
        <time>2015-05-05T19:27:41Z</time>
      </trkpt>
      <trkpt lat="59.357805" lon="17.706961">
        <ele>14</ele>
        <time>2015-05-05T19:27:42Z</time>
      </trkpt>
      <trkpt lat="59.357793" lon="17.707137">
        <ele>14.2</ele>
        <time>2015-05-05T19:27:43Z</time>
      </trkpt>
      <trkpt lat="59.357772" lon="17.707311">
        <ele>14.2</ele>
        <time>2015-05-05T19:27:44Z</time>
      </trkpt>
      <trkpt lat="59.357752" lon="17.707464">
        <ele>14.2</ele>
        <time>2015-05-05T19:27:45Z</time>
      </trkpt>
      <trkpt lat="59.357717" lon="17.707607">
        <ele>14</ele>
        <time>2015-05-05T19:27:46Z</time>
      </trkpt>
      <trkpt lat="59.357676" lon="17.707744">
        <ele>13.8</ele>
        <time>2015-05-05T19:27:47Z</time>
      </trkpt>
      <trkpt lat="59.357605" lon="17.707838">
        <ele>13.3</ele>
        <time>2015-05-05T19:27:48Z</time>
      </trkpt>
      <trkpt lat="59.35754" lon="17.707919">
        <ele>12.8</ele>
        <time>2015-05-05T19:27:49Z</time>
      </trkpt>
      <trkpt lat="59.357467" lon="17.707966">
        <ele>12.3</ele>
        <time>2015-05-05T19:27:50Z</time>
      </trkpt>
      <trkpt lat="59.357385" lon="17.708019">
        <ele>11.7</ele>
        <time>2015-05-05T19:27:51Z</time>
      </trkpt>
      <trkpt lat="59.357292" lon="17.70806">
        <ele>11</ele>
        <time>2015-05-05T19:27:52Z</time>
      </trkpt>
      <trkpt lat="59.357212" lon="17.708109">
        <ele>10.3</ele>
        <time>2015-05-05T19:27:53Z</time>
      </trkpt>
      <trkpt lat="59.357119" lon="17.708173">
        <ele>9.6</ele>
        <time>2015-05-05T19:27:54Z</time>
      </trkpt>
      <trkpt lat="59.357024" lon="17.708232">
        <ele>9.3</ele>
        <time>2015-05-05T19:27:55Z</time>
      </trkpt>
      <trkpt lat="59.356928" lon="17.708279">
        <ele>9.3</ele>
        <time>2015-05-05T19:27:56Z</time>
      </trkpt>
      <trkpt lat="59.356829" lon="17.708343">
        <ele>9.2</ele>
        <time>2015-05-05T19:27:57Z</time>
      </trkpt>
      <trkpt lat="59.356737" lon="17.708399">
        <ele>9.1</ele>
        <time>2015-05-05T19:27:58Z</time>
      </trkpt>
      <trkpt lat="59.356638" lon="17.708461">
        <ele>9</ele>
        <time>2015-05-05T19:27:59Z</time>
      </trkpt>
      <trkpt lat="59.356541" lon="17.70851">
        <ele>8.8</ele>
        <time>2015-05-05T19:28:00Z</time>
      </trkpt>
      <trkpt lat="59.356452" lon="17.708565">
        <ele>8.6</ele>
        <time>2015-05-05T19:28:01Z</time>
      </trkpt>
      <trkpt lat="59.356358" lon="17.708625">
        <ele>8.4</ele>
        <time>2015-05-05T19:28:02Z</time>
      </trkpt>
      <trkpt lat="59.356264" lon="17.708689">
        <ele>8.1</ele>
        <time>2015-05-05T19:28:03Z</time>
      </trkpt>
      <trkpt lat="59.356168" lon="17.70875">
        <ele>8.1</ele>
        <time>2015-05-05T19:28:04Z</time>
      </trkpt>
      <trkpt lat="59.356083" lon="17.708808">
        <ele>8.2</ele>
        <time>2015-05-05T19:28:05Z</time>
      </trkpt>
      <trkpt lat="59.355992" lon="17.708861">
        <ele>8.3</ele>
        <time>2015-05-05T19:28:06Z</time>
      </trkpt>
      <trkpt lat="59.355903" lon="17.708926">
        <ele>8.4</ele>
        <time>2015-05-05T19:28:07Z</time>
      </trkpt>
      <trkpt lat="59.355816" lon="17.708973">
        <ele>8.5</ele>
        <time>2015-05-05T19:28:08Z</time>
      </trkpt>
      <trkpt lat="59.35573" lon="17.709028">
        <ele>8.6</ele>
        <time>2015-05-05T19:28:09Z</time>
      </trkpt>
      <trkpt lat="59.355642" lon="17.709083">
        <ele>8.7</ele>
        <time>2015-05-05T19:28:10Z</time>
      </trkpt>
      <trkpt lat="59.355587" lon="17.709071">
        <ele>8.8</ele>
        <time>2015-05-05T19:28:11Z</time>
      </trkpt>
      <trkpt lat="59.355498" lon="17.709144">
        <ele>8.9</ele>
        <time>2015-05-05T19:28:12Z</time>
      </trkpt>
      <trkpt lat="59.35542" lon="17.709198">
        <ele>9</ele>
        <time>2015-05-05T19:28:13Z</time>
      </trkpt>
      <trkpt lat="59.355337" lon="17.709259">
        <ele>9.4</ele>
        <time>2015-05-05T19:28:14Z</time>
      </trkpt>
      <trkpt lat="59.355247" lon="17.709324">
        <ele>9.9</ele>
        <time>2015-05-05T19:28:15Z</time>
      </trkpt>
      <trkpt lat="59.355151" lon="17.709394">
        <ele>10.3</ele>
        <time>2015-05-05T19:28:16Z</time>
      </trkpt>
      <trkpt lat="59.355069" lon="17.709438">
        <ele>10.7</ele>
        <time>2015-05-05T19:28:17Z</time>
      </trkpt>
      <trkpt lat="59.354989" lon="17.709484">
        <ele>11.1</ele>
        <time>2015-05-05T19:28:18Z</time>
      </trkpt>
      <trkpt lat="59.35491" lon="17.709519">
        <ele>11.5</ele>
        <time>2015-05-05T19:28:19Z</time>
      </trkpt>
      <trkpt lat="59.354825" lon="17.709575">
        <ele>11.8</ele>
        <time>2015-05-05T19:28:20Z</time>
      </trkpt>
      <trkpt lat="59.354736" lon="17.709615">
        <ele>12.2</ele>
        <time>2015-05-05T19:28:21Z</time>
      </trkpt>
      <trkpt lat="59.354657" lon="17.709669">
        <ele>12.6</ele>
        <time>2015-05-05T19:28:22Z</time>
      </trkpt>
      <trkpt lat="59.354573" lon="17.709716">
        <ele>12.9</ele>
        <time>2015-05-05T19:28:23Z</time>
      </trkpt>
      <trkpt lat="59.354494" lon="17.709778">
        <ele>13.5</ele>
        <time>2015-05-05T19:28:24Z</time>
      </trkpt>
      <trkpt lat="59.354413" lon="17.709826">
        <ele>14.1</ele>
        <time>2015-05-05T19:28:25Z</time>
      </trkpt>
      <trkpt lat="59.35433" lon="17.709888">
        <ele>14.8</ele>
        <time>2015-05-05T19:28:26Z</time>
      </trkpt>
      <trkpt lat="59.35425" lon="17.709924">
        <ele>15.5</ele>
        <time>2015-05-05T19:28:27Z</time>
      </trkpt>
      <trkpt lat="59.354173" lon="17.70996">
        <ele>16.2</ele>
        <time>2015-05-05T19:28:28Z</time>
      </trkpt>
      <trkpt lat="59.354095" lon="17.710007">
        <ele>16.9</ele>
        <time>2015-05-05T19:28:29Z</time>
      </trkpt>
      <trkpt lat="59.354026" lon="17.710058">
        <ele>17.6</ele>
        <time>2015-05-05T19:28:30Z</time>
      </trkpt>
      <trkpt lat="59.353955" lon="17.71011">
        <ele>18.3</ele>
        <time>2015-05-05T19:28:31Z</time>
      </trkpt>
      <trkpt lat="59.353887" lon="17.710156">
        <ele>19</ele>
        <time>2015-05-05T19:28:32Z</time>
      </trkpt>
      <trkpt lat="59.353821" lon="17.710208">
        <ele>19.8</ele>
        <time>2015-05-05T19:28:33Z</time>
      </trkpt>
      <trkpt lat="59.353753" lon="17.710254">
        <ele>20.6</ele>
        <time>2015-05-05T19:28:34Z</time>
      </trkpt>
      <trkpt lat="59.353688" lon="17.710302">
        <ele>20.9</ele>
        <time>2015-05-05T19:28:35Z</time>
      </trkpt>
      <trkpt lat="59.35363" lon="17.710348">
        <ele>21.3</ele>
        <time>2015-05-05T19:28:36Z</time>
      </trkpt>
      <trkpt lat="59.353577" lon="17.710397">
        <ele>21.6</ele>
        <time>2015-05-05T19:28:37Z</time>
      </trkpt>
      <trkpt lat="59.353522" lon="17.710444">
        <ele>21.8</ele>
        <time>2015-05-05T19:28:38Z</time>
      </trkpt>
      <trkpt lat="59.353477" lon="17.710493">
        <ele>22</ele>
        <time>2015-05-05T19:28:39Z</time>
      </trkpt>
      <trkpt lat="59.353436" lon="17.710544">
        <ele>22.2</ele>
        <time>2015-05-05T19:28:40Z</time>
      </trkpt>
      <trkpt lat="59.353387" lon="17.710594">
        <ele>22.3</ele>
        <time>2015-05-05T19:28:41Z</time>
      </trkpt>
      <trkpt lat="59.353356" lon="17.710656">
        <ele>22.4</ele>
        <time>2015-05-05T19:28:42Z</time>
      </trkpt>
      <trkpt lat="59.353313" lon="17.710719">
        <ele>22.6</ele>
        <time>2015-05-05T19:28:43Z</time>
      </trkpt>
      <trkpt lat="59.35327" lon="17.710786">
        <ele>22.7</ele>
        <time>2015-05-05T19:28:44Z</time>
      </trkpt>
      <trkpt lat="59.353231" lon="17.710834">
        <ele>22.7</ele>
        <time>2015-05-05T19:28:45Z</time>
      </trkpt>
      <trkpt lat="59.353179" lon="17.710899">
        <ele>22.8</ele>
        <time>2015-05-05T19:28:46Z</time>
      </trkpt>
      <trkpt lat="59.353144" lon="17.710963">
        <ele>22.9</ele>
        <time>2015-05-05T19:28:47Z</time>
      </trkpt>
      <trkpt lat="59.353095" lon="17.711034">
        <ele>22.9</ele>
        <time>2015-05-05T19:28:48Z</time>
      </trkpt>
      <trkpt lat="59.353066" lon="17.711105">
        <ele>22.9</ele>
        <time>2015-05-05T19:28:49Z</time>
      </trkpt>
      <trkpt lat="59.35303" lon="17.711159">
        <ele>22.9</ele>
        <time>2015-05-05T19:28:50Z</time>
      </trkpt>
      <trkpt lat="59.352986" lon="17.71121">
        <ele>23</ele>
        <time>2015-05-05T19:28:51Z</time>
      </trkpt>
      <trkpt lat="59.35295" lon="17.711257">
        <ele>22.9</ele>
        <time>2015-05-05T19:28:52Z</time>
      </trkpt>
      <trkpt lat="59.352927" lon="17.711318">
        <ele>22.8</ele>
        <time>2015-05-05T19:28:53Z</time>
      </trkpt>
      <trkpt lat="59.352902" lon="17.711361">
        <ele>22.7</ele>
        <time>2015-05-05T19:28:54Z</time>
      </trkpt>
      <trkpt lat="59.352866" lon="17.711425">
        <ele>22.4</ele>
        <time>2015-05-05T19:28:55Z</time>
      </trkpt>
      <trkpt lat="59.352833" lon="17.711488">
        <ele>22.1</ele>
        <time>2015-05-05T19:28:56Z</time>
      </trkpt>
      <trkpt lat="59.352792" lon="17.711576">
        <ele>21.8</ele>
        <time>2015-05-05T19:28:57Z</time>
      </trkpt>
      <trkpt lat="59.352742" lon="17.711661">
        <ele>21.4</ele>
        <time>2015-05-05T19:28:58Z</time>
      </trkpt>
      <trkpt lat="59.352709" lon="17.711731">
        <ele>21.1</ele>
        <time>2015-05-05T19:28:59Z</time>
      </trkpt>
      <trkpt lat="59.352695" lon="17.711813">
        <ele>20.9</ele>
        <time>2015-05-05T19:29:00Z</time>
      </trkpt>
      <trkpt lat="59.352666" lon="17.711888">
        <ele>20.6</ele>
        <time>2015-05-05T19:29:01Z</time>
      </trkpt>
      <trkpt lat="59.352641" lon="17.711967">
        <ele>20.3</ele>
        <time>2015-05-05T19:29:02Z</time>
      </trkpt>
      <trkpt lat="59.352612" lon="17.712069">
        <ele>19.9</ele>
        <time>2015-05-05T19:29:03Z</time>
      </trkpt>
      <trkpt lat="59.352578" lon="17.712174">
        <ele>19.6</ele>
        <time>2015-05-05T19:29:04Z</time>
      </trkpt>
      <trkpt lat="59.352538" lon="17.71227">
        <ele>19.3</ele>
        <time>2015-05-05T19:29:05Z</time>
      </trkpt>
      <trkpt lat="59.352485" lon="17.712376">
        <ele>18.9</ele>
        <time>2015-05-05T19:29:06Z</time>
      </trkpt>
      <trkpt lat="59.35244" lon="17.712487">
        <ele>18.5</ele>
        <time>2015-05-05T19:29:07Z</time>
      </trkpt>
      <trkpt lat="59.352387" lon="17.712597">
        <ele>18.1</ele>
        <time>2015-05-05T19:29:08Z</time>
      </trkpt>
      <trkpt lat="59.352328" lon="17.712682">
        <ele>17.7</ele>
        <time>2015-05-05T19:29:09Z</time>
      </trkpt>
      <trkpt lat="59.352271" lon="17.712768">
        <ele>17.2</ele>
        <time>2015-05-05T19:29:10Z</time>
      </trkpt>
      <trkpt lat="59.35222" lon="17.712857">
        <ele>16.8</ele>
        <time>2015-05-05T19:29:11Z</time>
      </trkpt>
      <trkpt lat="59.352169" lon="17.712929">
        <ele>16.4</ele>
        <time>2015-05-05T19:29:12Z</time>
      </trkpt>
      <trkpt lat="59.352115" lon="17.712993">
        <ele>16</ele>
        <time>2015-05-05T19:29:13Z</time>
      </trkpt>
      <trkpt lat="59.352077" lon="17.71302">
        <ele>15.7</ele>
        <time>2015-05-05T19:29:14Z</time>
      </trkpt>
      <trkpt lat="59.352039" lon="17.713073">
        <ele>15.4</ele>
        <time>2015-05-05T19:29:15Z</time>
      </trkpt>
      <trkpt lat="59.352007" lon="17.71312">
        <ele>15.2</ele>
        <time>2015-05-05T19:29:16Z</time>
      </trkpt>
      <trkpt lat="59.351986" lon="17.71316">
        <ele>15</ele>
        <time>2015-05-05T19:29:17Z</time>
      </trkpt>
      <trkpt lat="59.351971" lon="17.713208">
        <ele>14.8</ele>
        <time>2015-05-05T19:29:18Z</time>
      </trkpt>
      <trkpt lat="59.351941" lon="17.713301">
        <ele>14.5</ele>
        <time>2015-05-05T19:29:20Z</time>
      </trkpt>
      <trkpt lat="59.351935" lon="17.713373">
        <ele>14.3</ele>
        <time>2015-05-05T19:29:21Z</time>
      </trkpt>
      <trkpt lat="59.351958" lon="17.713455">
        <ele>14.2</ele>
        <time>2015-05-05T19:29:22Z</time>
      </trkpt>
      <trkpt lat="59.351975" lon="17.713537">
        <ele>14.1</ele>
        <time>2015-05-05T19:29:23Z</time>
      </trkpt>
      <trkpt lat="59.352013" lon="17.71358">
        <ele>14.1</ele>
        <time>2015-05-05T19:29:24Z</time>
      </trkpt>
      <trkpt lat="59.35205" lon="17.713643">
        <ele>14.1</ele>
        <time>2015-05-05T19:29:25Z</time>
      </trkpt>
      <trkpt lat="59.352089" lon="17.713706">
        <ele>14.1</ele>
        <time>2015-05-05T19:29:26Z</time>
      </trkpt>
      <trkpt lat="59.352138" lon="17.713779">
        <ele>14.3</ele>
        <time>2015-05-05T19:29:27Z</time>
      </trkpt>
      <trkpt lat="59.352189" lon="17.713823">
        <ele>14.4</ele>
        <time>2015-05-05T19:29:28Z</time>
      </trkpt>
      <trkpt lat="59.352226" lon="17.713869">
        <ele>14.5</ele>
        <time>2015-05-05T19:29:29Z</time>
      </trkpt>
      <trkpt lat="59.352266" lon="17.713924">
        <ele>14.6</ele>
        <time>2015-05-05T19:29:30Z</time>
      </trkpt>
      <trkpt lat="59.35231" lon="17.713992">
        <ele>14.7</ele>
        <time>2015-05-05T19:29:31Z</time>
      </trkpt>
      <trkpt lat="59.352345" lon="17.714055">
        <ele>14.7</ele>
        <time>2015-05-05T19:29:32Z</time>
      </trkpt>
      <trkpt lat="59.352392" lon="17.714119">
        <ele>14.8</ele>
        <time>2015-05-05T19:29:33Z</time>
      </trkpt>
      <trkpt lat="59.352433" lon="17.714179">
        <ele>14.9</ele>
        <time>2015-05-05T19:29:34Z</time>
      </trkpt>
      <trkpt lat="59.35248" lon="17.714237">
        <ele>14.9</ele>
        <time>2015-05-05T19:29:35Z</time>
      </trkpt>
      <trkpt lat="59.352531" lon="17.714307">
        <ele>15</ele>
        <time>2015-05-05T19:29:36Z</time>
      </trkpt>
      <trkpt lat="59.352597" lon="17.714394">
        <ele>15.1</ele>
        <time>2015-05-05T19:29:37Z</time>
      </trkpt>
      <trkpt lat="59.352654" lon="17.714461">
        <ele>15.1</ele>
        <time>2015-05-05T19:29:38Z</time>
      </trkpt>
      <trkpt lat="59.352715" lon="17.714537">
        <ele>15.2</ele>
        <time>2015-05-05T19:29:39Z</time>
      </trkpt>
      <trkpt lat="59.352778" lon="17.714613">
        <ele>15.2</ele>
        <time>2015-05-05T19:29:40Z</time>
      </trkpt>
      <trkpt lat="59.352844" lon="17.714698">
        <ele>15.3</ele>
        <time>2015-05-05T19:29:41Z</time>
      </trkpt>
      <trkpt lat="59.352907" lon="17.714786">
        <ele>15.2</ele>
        <time>2015-05-05T19:29:42Z</time>
      </trkpt>
      <trkpt lat="59.352963" lon="17.714885">
        <ele>15.2</ele>
        <time>2015-05-05T19:29:43Z</time>
      </trkpt>
      <trkpt lat="59.353026" lon="17.714996">
        <ele>15</ele>
        <time>2015-05-05T19:29:44Z</time>
      </trkpt>
      <trkpt lat="59.353095" lon="17.715133">
        <ele>14.8</ele>
        <time>2015-05-05T19:29:45Z</time>
      </trkpt>
      <trkpt lat="59.353152" lon="17.715254">
        <ele>14.5</ele>
        <time>2015-05-05T19:29:46Z</time>
      </trkpt>
      <trkpt lat="59.353213" lon="17.715369">
        <ele>14.3</ele>
        <time>2015-05-05T19:29:47Z</time>
      </trkpt>
      <trkpt lat="59.353275" lon="17.71548">
        <ele>14.1</ele>
        <time>2015-05-05T19:29:48Z</time>
      </trkpt>
      <trkpt lat="59.353342" lon="17.715595">
        <ele>14</ele>
        <time>2015-05-05T19:29:49Z</time>
      </trkpt>
      <trkpt lat="59.353409" lon="17.715718">
        <ele>13.8</ele>
        <time>2015-05-05T19:29:50Z</time>
      </trkpt>
      <trkpt lat="59.353488" lon="17.715856">
        <ele>13.6</ele>
        <time>2015-05-05T19:29:51Z</time>
      </trkpt>
      <trkpt lat="59.353564" lon="17.715985">
        <ele>13.4</ele>
        <time>2015-05-05T19:29:52Z</time>
      </trkpt>
      <trkpt lat="59.353638" lon="17.71612">
        <ele>13.2</ele>
        <time>2015-05-05T19:29:53Z</time>
      </trkpt>
      <trkpt lat="59.353712" lon="17.71628">
        <ele>12.8</ele>
        <time>2015-05-05T19:29:54Z</time>
      </trkpt>
      <trkpt lat="59.353781" lon="17.716431">
        <ele>12.2</ele>
        <time>2015-05-05T19:29:55Z</time>
      </trkpt>
      <trkpt lat="59.353854" lon="17.716578">
        <ele>11.5</ele>
        <time>2015-05-05T19:29:56Z</time>
      </trkpt>
      <trkpt lat="59.353924" lon="17.716732">
        <ele>10.7</ele>
        <time>2015-05-05T19:29:57Z</time>
      </trkpt>
      <trkpt lat="59.353985" lon="17.716915">
        <ele>9.6</ele>
        <time>2015-05-05T19:29:58Z</time>
      </trkpt>
      <trkpt lat="59.354048" lon="17.717089">
        <ele>8.6</ele>
        <time>2015-05-05T19:29:59Z</time>
      </trkpt>
      <trkpt lat="59.354113" lon="17.717312">
        <ele>8.3</ele>
        <time>2015-05-05T19:30:00Z</time>
      </trkpt>
      <trkpt lat="59.354156" lon="17.717489">
        <ele>8</ele>
        <time>2015-05-05T19:30:01Z</time>
      </trkpt>
      <trkpt lat="59.354212" lon="17.717676">
        <ele>7.7</ele>
        <time>2015-05-05T19:30:02Z</time>
      </trkpt>
      <trkpt lat="59.354258" lon="17.717869">
        <ele>7.4</ele>
        <time>2015-05-05T19:30:03Z</time>
      </trkpt>
      <trkpt lat="59.354301" lon="17.718047">
        <ele>7.1</ele>
        <time>2015-05-05T19:30:04Z</time>
      </trkpt>
      <trkpt lat="59.354341" lon="17.718247">
        <ele>6.8</ele>
        <time>2015-05-05T19:30:05Z</time>
      </trkpt>
      <trkpt lat="59.354371" lon="17.718453">
        <ele>6.4</ele>
        <time>2015-05-05T19:30:06Z</time>
      </trkpt>
      <trkpt lat="59.354389" lon="17.718648">
        <ele>6.2</ele>
        <time>2015-05-05T19:30:07Z</time>
      </trkpt>
      <trkpt lat="59.354386" lon="17.718837">
        <ele>6</ele>
        <time>2015-05-05T19:30:08Z</time>
      </trkpt>
      <trkpt lat="59.354381" lon="17.719009">
        <ele>6</ele>
        <time>2015-05-05T19:30:09Z</time>
      </trkpt>
      <trkpt lat="59.354375" lon="17.719201">
        <ele>6</ele>
        <time>2015-05-05T19:30:10Z</time>
      </trkpt>
      <trkpt lat="59.354372" lon="17.719383">
        <ele>6</ele>
        <time>2015-05-05T19:30:11Z</time>
      </trkpt>
      <trkpt lat="59.354385" lon="17.71956">
        <ele>6</ele>
        <time>2015-05-05T19:30:12Z</time>
      </trkpt>
      <trkpt lat="59.354416" lon="17.719715">
        <ele>6</ele>
        <time>2015-05-05T19:30:13Z</time>
      </trkpt>
      <trkpt lat="59.354484" lon="17.719809">
        <ele>6</ele>
        <time>2015-05-05T19:30:14Z</time>
      </trkpt>
      <trkpt lat="59.354546" lon="17.71991">
        <ele>6</ele>
        <time>2015-05-05T19:30:15Z</time>
      </trkpt>
      <trkpt lat="59.354607" lon="17.720022">
        <ele>6</ele>
        <time>2015-05-05T19:30:16Z</time>
      </trkpt>
      <trkpt lat="59.354664" lon="17.720101">
        <ele>6</ele>
        <time>2015-05-05T19:30:17Z</time>
      </trkpt>
      <trkpt lat="59.354721" lon="17.72018">
        <ele>6</ele>
        <time>2015-05-05T19:30:18Z</time>
      </trkpt>
      <trkpt lat="59.354765" lon="17.720267">
        <ele>6</ele>
        <time>2015-05-05T19:30:19Z</time>
      </trkpt>
      <trkpt lat="59.354748" lon="17.720378">
        <ele>6</ele>
        <time>2015-05-05T19:30:20Z</time>
      </trkpt>
      <trkpt lat="59.354717" lon="17.720456">
        <ele>6</ele>
        <time>2015-05-05T19:30:21Z</time>
      </trkpt>
      <trkpt lat="59.354672" lon="17.720498">
        <ele>6</ele>
        <time>2015-05-05T19:30:22Z</time>
      </trkpt>
      <trkpt lat="59.354612" lon="17.720542">
        <ele>6</ele>
        <time>2015-05-05T19:30:23Z</time>
      </trkpt>
      <trkpt lat="59.354553" lon="17.720537">
        <ele>6</ele>
        <time>2015-05-05T19:30:24Z</time>
      </trkpt>
      <trkpt lat="59.3545" lon="17.720555">
        <ele>6</ele>
        <time>2015-05-05T19:30:25Z</time>
      </trkpt>
      <trkpt lat="59.354442" lon="17.720571">
        <ele>6</ele>
        <time>2015-05-05T19:30:26Z</time>
      </trkpt>
      <trkpt lat="59.354388" lon="17.720588">
        <ele>6</ele>
        <time>2015-05-05T19:30:27Z</time>
      </trkpt>
      <trkpt lat="59.354329" lon="17.720596">
        <ele>6</ele>
        <time>2015-05-05T19:30:28Z</time>
      </trkpt>
      <trkpt lat="59.354282" lon="17.720623">
        <ele>6</ele>
        <time>2015-05-05T19:30:29Z</time>
      </trkpt>
      <trkpt lat="59.354206" lon="17.720636">
        <ele>6</ele>
        <time>2015-05-05T19:30:30Z</time>
      </trkpt>
      <trkpt lat="59.354146" lon="17.720665">
        <ele>6</ele>
        <time>2015-05-05T19:30:31Z</time>
      </trkpt>
      <trkpt lat="59.354091" lon="17.720685">
        <ele>6</ele>
        <time>2015-05-05T19:30:32Z</time>
      </trkpt>
      <trkpt lat="59.354031" lon="17.720685">
        <ele>6</ele>
        <time>2015-05-05T19:30:33Z</time>
      </trkpt>
      <trkpt lat="59.353963" lon="17.720687">
        <ele>6</ele>
        <time>2015-05-05T19:30:34Z</time>
      </trkpt>
      <trkpt lat="59.353901" lon="17.720692">
        <ele>6</ele>
        <time>2015-05-05T19:30:35Z</time>
      </trkpt>
      <trkpt lat="59.353834" lon="17.720714">
        <ele>6</ele>
        <time>2015-05-05T19:30:36Z</time>
      </trkpt>
      <trkpt lat="59.353765" lon="17.720736">
        <ele>6</ele>
        <time>2015-05-05T19:30:37Z</time>
      </trkpt>
      <trkpt lat="59.353698" lon="17.72075">
        <ele>6.1</ele>
        <time>2015-05-05T19:30:38Z</time>
      </trkpt>
      <trkpt lat="59.353627" lon="17.720769">
        <ele>6.1</ele>
        <time>2015-05-05T19:30:39Z</time>
      </trkpt>
      <trkpt lat="59.353547" lon="17.720787">
        <ele>6.2</ele>
        <time>2015-05-05T19:30:40Z</time>
      </trkpt>
      <trkpt lat="59.353474" lon="17.720791">
        <ele>6.3</ele>
        <time>2015-05-05T19:30:41Z</time>
      </trkpt>
      <trkpt lat="59.3534" lon="17.720805">
        <ele>6.4</ele>
        <time>2015-05-05T19:30:42Z</time>
      </trkpt>
      <trkpt lat="59.353324" lon="17.720831">
        <ele>6.5</ele>
        <time>2015-05-05T19:30:43Z</time>
      </trkpt>
      <trkpt lat="59.353247" lon="17.720835">
        <ele>6.6</ele>
        <time>2015-05-05T19:30:44Z</time>
      </trkpt>
      <trkpt lat="59.353175" lon="17.720858">
        <ele>6.7</ele>
        <time>2015-05-05T19:30:45Z</time>
      </trkpt>
      <trkpt lat="59.353093" lon="17.720879">
        <ele>6.8</ele>
        <time>2015-05-05T19:30:46Z</time>
      </trkpt>
      <trkpt lat="59.353011" lon="17.720905">
        <ele>6.9</ele>
        <time>2015-05-05T19:30:47Z</time>
      </trkpt>
      <trkpt lat="59.352933" lon="17.720909">
        <ele>7</ele>
        <time>2015-05-05T19:30:48Z</time>
      </trkpt>
      <trkpt lat="59.352854" lon="17.720934">
        <ele>7</ele>
        <time>2015-05-05T19:30:49Z</time>
      </trkpt>
      <trkpt lat="59.352775" lon="17.72096">
        <ele>6.9</ele>
        <time>2015-05-05T19:30:50Z</time>
      </trkpt>
      <trkpt lat="59.352694" lon="17.720971">
        <ele>6.9</ele>
        <time>2015-05-05T19:30:51Z</time>
      </trkpt>
      <trkpt lat="59.352614" lon="17.720992">
        <ele>6.9</ele>
        <time>2015-05-05T19:30:52Z</time>
      </trkpt>
      <trkpt lat="59.352533" lon="17.721013">
        <ele>6.9</ele>
        <time>2015-05-05T19:30:53Z</time>
      </trkpt>
      <trkpt lat="59.352451" lon="17.721035">
        <ele>6.9</ele>
        <time>2015-05-05T19:30:54Z</time>
      </trkpt>
      <trkpt lat="59.352375" lon="17.721067">
        <ele>6.9</ele>
        <time>2015-05-05T19:30:55Z</time>
      </trkpt>
      <trkpt lat="59.352295" lon="17.721104">
        <ele>6.9</ele>
        <time>2015-05-05T19:30:56Z</time>
      </trkpt>
      <trkpt lat="59.352218" lon="17.721127">
        <ele>6.9</ele>
        <time>2015-05-05T19:30:57Z</time>
      </trkpt>
      <trkpt lat="59.352139" lon="17.721141">
        <ele>6.9</ele>
        <time>2015-05-05T19:30:58Z</time>
      </trkpt>
      <trkpt lat="59.352054" lon="17.721172">
        <ele>7</ele>
        <time>2015-05-05T19:30:59Z</time>
      </trkpt>
      <trkpt lat="59.351974" lon="17.721199">
        <ele>7.3</ele>
        <time>2015-05-05T19:31:00Z</time>
      </trkpt>
      <trkpt lat="59.351895" lon="17.721223">
        <ele>7.6</ele>
        <time>2015-05-05T19:31:01Z</time>
      </trkpt>
      <trkpt lat="59.351805" lon="17.721249">
        <ele>8</ele>
        <time>2015-05-05T19:31:02Z</time>
      </trkpt>
      <trkpt lat="59.351714" lon="17.72127">
        <ele>8.4</ele>
        <time>2015-05-05T19:31:03Z</time>
      </trkpt>
      <trkpt lat="59.351624" lon="17.721295">
        <ele>8.7</ele>
        <time>2015-05-05T19:31:04Z</time>
      </trkpt>
      <trkpt lat="59.351548" lon="17.721318">
        <ele>9</ele>
        <time>2015-05-05T19:31:05Z</time>
      </trkpt>
      <trkpt lat="59.351469" lon="17.72133">
        <ele>9.3</ele>
        <time>2015-05-05T19:31:06Z</time>
      </trkpt>
      <trkpt lat="59.351394" lon="17.721341">
        <ele>9.6</ele>
        <time>2015-05-05T19:31:07Z</time>
      </trkpt>
      <trkpt lat="59.351316" lon="17.721342">
        <ele>9.9</ele>
        <time>2015-05-05T19:31:08Z</time>
      </trkpt>
      <trkpt lat="59.351243" lon="17.721366">
        <ele>10.1</ele>
        <time>2015-05-05T19:31:09Z</time>
      </trkpt>
      <trkpt lat="59.351155" lon="17.721406">
        <ele>10.1</ele>
        <time>2015-05-05T19:31:10Z</time>
      </trkpt>
      <trkpt lat="59.35108" lon="17.721432">
        <ele>10</ele>
        <time>2015-05-05T19:31:11Z</time>
      </trkpt>
      <trkpt lat="59.351021" lon="17.721459">
        <ele>10</ele>
        <time>2015-05-05T19:31:12Z</time>
      </trkpt>
      <trkpt lat="59.350934" lon="17.721476">
        <ele>9.9</ele>
        <time>2015-05-05T19:31:13Z</time>
      </trkpt>
      <trkpt lat="59.350847" lon="17.721486">
        <ele>9.8</ele>
        <time>2015-05-05T19:31:14Z</time>
      </trkpt>
      <trkpt lat="59.350765" lon="17.721511">
        <ele>9.7</ele>
        <time>2015-05-05T19:31:15Z</time>
      </trkpt>
      <trkpt lat="59.350686" lon="17.721536">
        <ele>9.7</ele>
        <time>2015-05-05T19:31:16Z</time>
      </trkpt>
      <trkpt lat="59.350607" lon="17.721546">
        <ele>9.6</ele>
        <time>2015-05-05T19:31:17Z</time>
      </trkpt>
      <trkpt lat="59.350529" lon="17.721578">
        <ele>9.5</ele>
        <time>2015-05-05T19:31:18Z</time>
      </trkpt>
      <trkpt lat="59.350436" lon="17.72161">
        <ele>9.5</ele>
        <time>2015-05-05T19:31:19Z</time>
      </trkpt>
      <trkpt lat="59.350353" lon="17.721606">
        <ele>9.3</ele>
        <time>2015-05-05T19:31:20Z</time>
      </trkpt>
      <trkpt lat="59.350267" lon="17.721619">
        <ele>9.1</ele>
        <time>2015-05-05T19:31:21Z</time>
      </trkpt>
      <trkpt lat="59.350188" lon="17.72164">
        <ele>8.9</ele>
        <time>2015-05-05T19:31:22Z</time>
      </trkpt>
      <trkpt lat="59.350108" lon="17.721652">
        <ele>8.8</ele>
        <time>2015-05-05T19:31:23Z</time>
      </trkpt>
      <trkpt lat="59.350031" lon="17.721668">
        <ele>8.6</ele>
        <time>2015-05-05T19:31:24Z</time>
      </trkpt>
      <trkpt lat="59.349952" lon="17.721678">
        <ele>8.4</ele>
        <time>2015-05-05T19:31:25Z</time>
      </trkpt>
      <trkpt lat="59.349876" lon="17.721702">
        <ele>8.2</ele>
        <time>2015-05-05T19:31:26Z</time>
      </trkpt>
      <trkpt lat="59.349793" lon="17.721721">
        <ele>8</ele>
        <time>2015-05-05T19:31:27Z</time>
      </trkpt>
      <trkpt lat="59.349681" lon="17.721748">
        <ele>7.7</ele>
        <time>2015-05-05T19:31:28Z</time>
      </trkpt>
      <trkpt lat="59.349596" lon="17.721762">
        <ele>7.4</ele>
        <time>2015-05-05T19:31:29Z</time>
      </trkpt>
      <trkpt lat="59.349504" lon="17.721777">
        <ele>7.4</ele>
        <time>2015-05-05T19:31:30Z</time>
      </trkpt>
      <trkpt lat="59.349426" lon="17.721793">
        <ele>7.4</ele>
        <time>2015-05-05T19:31:31Z</time>
      </trkpt>
      <trkpt lat="59.349341" lon="17.721797">
        <ele>7.4</ele>
        <time>2015-05-05T19:31:32Z</time>
      </trkpt>
      <trkpt lat="59.349257" lon="17.721804">
        <ele>7.5</ele>
        <time>2015-05-05T19:31:33Z</time>
      </trkpt>
      <trkpt lat="59.34917" lon="17.721825">
        <ele>7.5</ele>
        <time>2015-05-05T19:31:34Z</time>
      </trkpt>
      <trkpt lat="59.349079" lon="17.721817">
        <ele>7.5</ele>
        <time>2015-05-05T19:31:35Z</time>
      </trkpt>
      <trkpt lat="59.34899" lon="17.721827">
        <ele>7.6</ele>
        <time>2015-05-05T19:31:36Z</time>
      </trkpt>
      <trkpt lat="59.348904" lon="17.721845">
        <ele>7.6</ele>
        <time>2015-05-05T19:31:37Z</time>
      </trkpt>
      <trkpt lat="59.348805" lon="17.721866">
        <ele>7.7</ele>
        <time>2015-05-05T19:31:38Z</time>
      </trkpt>
      <trkpt lat="59.348711" lon="17.721882">
        <ele>7.8</ele>
        <time>2015-05-05T19:31:39Z</time>
      </trkpt>
      <trkpt lat="59.348624" lon="17.721891">
        <ele>7.8</ele>
        <time>2015-05-05T19:31:40Z</time>
      </trkpt>
      <trkpt lat="59.348531" lon="17.721876">
        <ele>7.8</ele>
        <time>2015-05-05T19:31:41Z</time>
      </trkpt>
      <trkpt lat="59.348444" lon="17.721888">
        <ele>7.8</ele>
        <time>2015-05-05T19:31:42Z</time>
      </trkpt>
      <trkpt lat="59.348353" lon="17.721892">
        <ele>7.8</ele>
        <time>2015-05-05T19:31:43Z</time>
      </trkpt>
      <trkpt lat="59.348276" lon="17.721903">
        <ele>7.8</ele>
        <time>2015-05-05T19:31:44Z</time>
      </trkpt>
      <trkpt lat="59.34819" lon="17.721917">
        <ele>7.8</ele>
        <time>2015-05-05T19:31:45Z</time>
      </trkpt>
      <trkpt lat="59.348094" lon="17.721933">
        <ele>7.8</ele>
        <time>2015-05-05T19:31:46Z</time>
      </trkpt>
      <trkpt lat="59.348006" lon="17.721943">
        <ele>7.8</ele>
        <time>2015-05-05T19:31:47Z</time>
      </trkpt>
      <trkpt lat="59.347917" lon="17.721951">
        <ele>7.8</ele>
        <time>2015-05-05T19:31:48Z</time>
      </trkpt>
      <trkpt lat="59.347829" lon="17.721973">
        <ele>7.9</ele>
        <time>2015-05-05T19:31:49Z</time>
      </trkpt>
      <trkpt lat="59.347744" lon="17.72199">
        <ele>7.9</ele>
        <time>2015-05-05T19:31:50Z</time>
      </trkpt>
      <trkpt lat="59.347655" lon="17.721997">
        <ele>7.9</ele>
        <time>2015-05-05T19:31:51Z</time>
      </trkpt>
      <trkpt lat="59.347567" lon="17.721998">
        <ele>7.9</ele>
        <time>2015-05-05T19:31:52Z</time>
      </trkpt>
      <trkpt lat="59.34748" lon="17.722015">
        <ele>7.9</ele>
        <time>2015-05-05T19:31:53Z</time>
      </trkpt>
      <trkpt lat="59.347394" lon="17.722019">
        <ele>7.9</ele>
        <time>2015-05-05T19:31:54Z</time>
      </trkpt>
      <trkpt lat="59.347307" lon="17.72203">
        <ele>7.9</ele>
        <time>2015-05-05T19:31:55Z</time>
      </trkpt>
      <trkpt lat="59.347213" lon="17.722044">
        <ele>8</ele>
        <time>2015-05-05T19:31:56Z</time>
      </trkpt>
      <trkpt lat="59.347115" lon="17.722063">
        <ele>8</ele>
        <time>2015-05-05T19:31:57Z</time>
      </trkpt>
      <trkpt lat="59.34703" lon="17.722079">
        <ele>7.9</ele>
        <time>2015-05-05T19:31:58Z</time>
      </trkpt>
      <trkpt lat="59.346935" lon="17.72209">
        <ele>7.8</ele>
        <time>2015-05-05T19:31:59Z</time>
      </trkpt>
      <trkpt lat="59.346851" lon="17.722087">
        <ele>7.7</ele>
        <time>2015-05-05T19:32:00Z</time>
      </trkpt>
      <trkpt lat="59.346761" lon="17.722111">
        <ele>7.6</ele>
        <time>2015-05-05T19:32:01Z</time>
      </trkpt>
      <trkpt lat="59.346676" lon="17.722126">
        <ele>7.5</ele>
        <time>2015-05-05T19:32:02Z</time>
      </trkpt>
      <trkpt lat="59.346591" lon="17.722143">
        <ele>7.4</ele>
        <time>2015-05-05T19:32:03Z</time>
      </trkpt>
      <trkpt lat="59.34651" lon="17.722148">
        <ele>7.3</ele>
        <time>2015-05-05T19:32:04Z</time>
      </trkpt>
      <trkpt lat="59.34643" lon="17.722128">
        <ele>7.2</ele>
        <time>2015-05-05T19:32:05Z</time>
      </trkpt>
      <trkpt lat="59.34635" lon="17.72213">
        <ele>7.1</ele>
        <time>2015-05-05T19:32:06Z</time>
      </trkpt>
      <trkpt lat="59.346269" lon="17.722144">
        <ele>7</ele>
        <time>2015-05-05T19:32:07Z</time>
      </trkpt>
      <trkpt lat="59.346187" lon="17.72215">
        <ele>6.9</ele>
        <time>2015-05-05T19:32:08Z</time>
      </trkpt>
      <trkpt lat="59.346103" lon="17.722167">
        <ele>6.8</ele>
        <time>2015-05-05T19:32:09Z</time>
      </trkpt>
      <trkpt lat="59.346014" lon="17.722182">
        <ele>6.7</ele>
        <time>2015-05-05T19:32:10Z</time>
      </trkpt>
      <trkpt lat="59.345935" lon="17.722192">
        <ele>6.6</ele>
        <time>2015-05-05T19:32:11Z</time>
      </trkpt>
      <trkpt lat="59.345853" lon="17.722216">
        <ele>6.5</ele>
        <time>2015-05-05T19:32:12Z</time>
      </trkpt>
      <trkpt lat="59.34577" lon="17.722212">
        <ele>6.4</ele>
        <time>2015-05-05T19:32:13Z</time>
      </trkpt>
      <trkpt lat="59.345684" lon="17.722222">
        <ele>6.3</ele>
        <time>2015-05-05T19:32:14Z</time>
      </trkpt>
      <trkpt lat="59.345602" lon="17.722233">
        <ele>6.2</ele>
        <time>2015-05-05T19:32:15Z</time>
      </trkpt>
      <trkpt lat="59.345523" lon="17.722251">
        <ele>6.1</ele>
        <time>2015-05-05T19:32:16Z</time>
      </trkpt>
      <trkpt lat="59.345445" lon="17.722288">
        <ele>6</ele>
        <time>2015-05-05T19:32:17Z</time>
      </trkpt>
      <trkpt lat="59.345361" lon="17.722318">
        <ele>6.1</ele>
        <time>2015-05-05T19:32:18Z</time>
      </trkpt>
      <trkpt lat="59.345283" lon="17.722321">
        <ele>6.2</ele>
        <time>2015-05-05T19:32:19Z</time>
      </trkpt>
      <trkpt lat="59.3452" lon="17.722365">
        <ele>6.3</ele>
        <time>2015-05-05T19:32:20Z</time>
      </trkpt>
      <trkpt lat="59.345125" lon="17.722406">
        <ele>6.3</ele>
        <time>2015-05-05T19:32:21Z</time>
      </trkpt>
      <trkpt lat="59.345037" lon="17.722437">
        <ele>6.5</ele>
        <time>2015-05-05T19:32:22Z</time>
      </trkpt>
      <trkpt lat="59.344955" lon="17.722488">
        <ele>6.6</ele>
        <time>2015-05-05T19:32:23Z</time>
      </trkpt>
      <trkpt lat="59.344874" lon="17.722524">
        <ele>6.7</ele>
        <time>2015-05-05T19:32:24Z</time>
      </trkpt>
      <trkpt lat="59.344781" lon="17.722575">
        <ele>6.8</ele>
        <time>2015-05-05T19:32:25Z</time>
      </trkpt>
      <trkpt lat="59.344702" lon="17.722625">
        <ele>6.9</ele>
        <time>2015-05-05T19:32:26Z</time>
      </trkpt>
      <trkpt lat="59.34462" lon="17.722666">
        <ele>7</ele>
        <time>2015-05-05T19:32:27Z</time>
      </trkpt>
      <trkpt lat="59.34454" lon="17.722725">
        <ele>7</ele>
        <time>2015-05-05T19:32:28Z</time>
      </trkpt>
      <trkpt lat="59.344465" lon="17.722785">
        <ele>7</ele>
        <time>2015-05-05T19:32:29Z</time>
      </trkpt>
      <trkpt lat="59.34439" lon="17.722844">
        <ele>7</ele>
        <time>2015-05-05T19:32:30Z</time>
      </trkpt>
      <trkpt lat="59.344317" lon="17.722906">
        <ele>7</ele>
        <time>2015-05-05T19:32:31Z</time>
      </trkpt>
      <trkpt lat="59.34424" lon="17.722967">
        <ele>7</ele>
        <time>2015-05-05T19:32:32Z</time>
      </trkpt>
      <trkpt lat="59.344163" lon="17.723044">
        <ele>6.9</ele>
        <time>2015-05-05T19:32:33Z</time>
      </trkpt>
      <trkpt lat="59.344089" lon="17.723116">
        <ele>6.9</ele>
        <time>2015-05-05T19:32:34Z</time>
      </trkpt>
      <trkpt lat="59.344015" lon="17.723186">
        <ele>6.8</ele>
        <time>2015-05-05T19:32:35Z</time>
      </trkpt>
      <trkpt lat="59.34394" lon="17.72327">
        <ele>6.7</ele>
        <time>2015-05-05T19:32:36Z</time>
      </trkpt>
      <trkpt lat="59.343866" lon="17.723345">
        <ele>6.6</ele>
        <time>2015-05-05T19:32:37Z</time>
      </trkpt>
      <trkpt lat="59.343799" lon="17.723426">
        <ele>6.4</ele>
        <time>2015-05-05T19:32:38Z</time>
      </trkpt>
      <trkpt lat="59.343727" lon="17.72351">
        <ele>6.3</ele>
        <time>2015-05-05T19:32:39Z</time>
      </trkpt>
      <trkpt lat="59.343659" lon="17.723607">
        <ele>6.2</ele>
        <time>2015-05-05T19:32:40Z</time>
      </trkpt>
      <trkpt lat="59.343588" lon="17.723694">
        <ele>6.2</ele>
        <time>2015-05-05T19:32:41Z</time>
      </trkpt>
      <trkpt lat="59.34352" lon="17.723773">
        <ele>6.3</ele>
        <time>2015-05-05T19:32:42Z</time>
      </trkpt>
      <trkpt lat="59.343458" lon="17.723849">
        <ele>6.5</ele>
        <time>2015-05-05T19:32:43Z</time>
      </trkpt>
      <trkpt lat="59.343395" lon="17.723936">
        <ele>6.7</ele>
        <time>2015-05-05T19:32:44Z</time>
      </trkpt>
      <trkpt lat="59.343327" lon="17.724021">
        <ele>7</ele>
        <time>2015-05-05T19:32:45Z</time>
      </trkpt>
      <trkpt lat="59.343267" lon="17.724098">
        <ele>7.2</ele>
        <time>2015-05-05T19:32:46Z</time>
      </trkpt>
      <trkpt lat="59.343205" lon="17.72417">
        <ele>7.5</ele>
        <time>2015-05-05T19:32:47Z</time>
      </trkpt>
      <trkpt lat="59.343146" lon="17.724247">
        <ele>7.8</ele>
        <time>2015-05-05T19:32:48Z</time>
      </trkpt>
      <trkpt lat="59.343084" lon="17.724322">
        <ele>8</ele>
        <time>2015-05-05T19:32:49Z</time>
      </trkpt>
      <trkpt lat="59.343022" lon="17.724402">
        <ele>8.3</ele>
        <time>2015-05-05T19:32:50Z</time>
      </trkpt>
      <trkpt lat="59.34296" lon="17.724482">
        <ele>8.7</ele>
        <time>2015-05-05T19:32:51Z</time>
      </trkpt>
      <trkpt lat="59.342894" lon="17.724564">
        <ele>8.9</ele>
        <time>2015-05-05T19:32:52Z</time>
      </trkpt>
      <trkpt lat="59.342836" lon="17.724646">
        <ele>9</ele>
        <time>2015-05-05T19:32:53Z</time>
      </trkpt>
      <trkpt lat="59.342775" lon="17.724738">
        <ele>9</ele>
        <time>2015-05-05T19:32:54Z</time>
      </trkpt>
      <trkpt lat="59.342701" lon="17.724812">
        <ele>9</ele>
        <time>2015-05-05T19:32:55Z</time>
      </trkpt>
      <trkpt lat="59.342645" lon="17.724908">
        <ele>9.1</ele>
        <time>2015-05-05T19:32:56Z</time>
      </trkpt>
      <trkpt lat="59.342586" lon="17.724986">
        <ele>9.2</ele>
        <time>2015-05-05T19:32:57Z</time>
      </trkpt>
      <trkpt lat="59.342526" lon="17.725062">
        <ele>9.2</ele>
        <time>2015-05-05T19:32:58Z</time>
      </trkpt>
      <trkpt lat="59.342463" lon="17.725125">
        <ele>9.2</ele>
        <time>2015-05-05T19:32:59Z</time>
      </trkpt>
      <trkpt lat="59.342399" lon="17.725214">
        <ele>9.3</ele>
        <time>2015-05-05T19:33:00Z</time>
      </trkpt>
      <trkpt lat="59.342343" lon="17.725302">
        <ele>9.3</ele>
        <time>2015-05-05T19:33:01Z</time>
      </trkpt>
      <trkpt lat="59.342274" lon="17.72538">
        <ele>9.4</ele>
        <time>2015-05-05T19:33:02Z</time>
      </trkpt>
      <trkpt lat="59.342208" lon="17.72546">
        <ele>9.4</ele>
        <time>2015-05-05T19:33:03Z</time>
      </trkpt>
      <trkpt lat="59.342142" lon="17.725538">
        <ele>9.5</ele>
        <time>2015-05-05T19:33:04Z</time>
      </trkpt>
      <trkpt lat="59.342068" lon="17.725614">
        <ele>9.5</ele>
        <time>2015-05-05T19:33:05Z</time>
      </trkpt>
      <trkpt lat="59.341991" lon="17.725695">
        <ele>9.5</ele>
        <time>2015-05-05T19:33:06Z</time>
      </trkpt>
      <trkpt lat="59.341919" lon="17.72576">
        <ele>9.5</ele>
        <time>2015-05-05T19:33:07Z</time>
      </trkpt>
      <trkpt lat="59.341854" lon="17.725849">
        <ele>9.6</ele>
        <time>2015-05-05T19:33:08Z</time>
      </trkpt>
      <trkpt lat="59.341794" lon="17.725915">
        <ele>9.6</ele>
        <time>2015-05-05T19:33:09Z</time>
      </trkpt>
      <trkpt lat="59.341727" lon="17.725983">
        <ele>9.6</ele>
        <time>2015-05-05T19:33:10Z</time>
      </trkpt>
      <trkpt lat="59.341667" lon="17.726049">
        <ele>9.6</ele>
        <time>2015-05-05T19:33:11Z</time>
      </trkpt>
      <trkpt lat="59.341606" lon="17.726128">
        <ele>9.6</ele>
        <time>2015-05-05T19:33:12Z</time>
      </trkpt>
      <trkpt lat="59.341543" lon="17.726211">
        <ele>9.6</ele>
        <time>2015-05-05T19:33:13Z</time>
      </trkpt>
      <trkpt lat="59.341474" lon="17.726301">
        <ele>9.6</ele>
        <time>2015-05-05T19:33:14Z</time>
      </trkpt>
      <trkpt lat="59.341409" lon="17.726394">
        <ele>9.6</ele>
        <time>2015-05-05T19:33:15Z</time>
      </trkpt>
      <trkpt lat="59.341339" lon="17.726479">
        <ele>9.5</ele>
        <time>2015-05-05T19:33:16Z</time>
      </trkpt>
      <trkpt lat="59.34127" lon="17.726562">
        <ele>9.4</ele>
        <time>2015-05-05T19:33:17Z</time>
      </trkpt>
      <trkpt lat="59.341202" lon="17.726653">
        <ele>9.4</ele>
        <time>2015-05-05T19:33:18Z</time>
      </trkpt>
      <trkpt lat="59.341134" lon="17.726743">
        <ele>9.5</ele>
        <time>2015-05-05T19:33:19Z</time>
      </trkpt>
      <trkpt lat="59.341069" lon="17.726833">
        <ele>9.5</ele>
        <time>2015-05-05T19:33:20Z</time>
      </trkpt>
      <trkpt lat="59.341004" lon="17.726912">
        <ele>9.5</ele>
        <time>2015-05-05T19:33:21Z</time>
      </trkpt>
      <trkpt lat="59.340925" lon="17.726997">
        <ele>9.5</ele>
        <time>2015-05-05T19:33:22Z</time>
      </trkpt>
      <trkpt lat="59.340855" lon="17.727087">
        <ele>9.5</ele>
        <time>2015-05-05T19:33:23Z</time>
      </trkpt>
      <trkpt lat="59.340792" lon="17.727175">
        <ele>9.5</ele>
        <time>2015-05-05T19:33:24Z</time>
      </trkpt>
      <trkpt lat="59.340726" lon="17.727266">
        <ele>9.5</ele>
        <time>2015-05-05T19:33:25Z</time>
      </trkpt>
      <trkpt lat="59.34066" lon="17.727367">
        <ele>9.4</ele>
        <time>2015-05-05T19:33:26Z</time>
      </trkpt>
      <trkpt lat="59.340599" lon="17.727462">
        <ele>9.3</ele>
        <time>2015-05-05T19:33:27Z</time>
      </trkpt>
      <trkpt lat="59.340536" lon="17.727557">
        <ele>9.2</ele>
        <time>2015-05-05T19:33:28Z</time>
      </trkpt>
      <trkpt lat="59.340473" lon="17.727649">
        <ele>9.1</ele>
        <time>2015-05-05T19:33:29Z</time>
      </trkpt>
      <trkpt lat="59.340402" lon="17.727752">
        <ele>9</ele>
        <time>2015-05-05T19:33:30Z</time>
      </trkpt>
      <trkpt lat="59.34034" lon="17.72785">
        <ele>9.1</ele>
        <time>2015-05-05T19:33:31Z</time>
      </trkpt>
      <trkpt lat="59.340277" lon="17.727945">
        <ele>9.2</ele>
        <time>2015-05-05T19:33:32Z</time>
      </trkpt>
      <trkpt lat="59.340215" lon="17.728042">
        <ele>9.4</ele>
        <time>2015-05-05T19:33:33Z</time>
      </trkpt>
      <trkpt lat="59.340155" lon="17.728139">
        <ele>9.6</ele>
        <time>2015-05-05T19:33:34Z</time>
      </trkpt>
      <trkpt lat="59.3401" lon="17.728233">
        <ele>9.8</ele>
        <time>2015-05-05T19:33:35Z</time>
      </trkpt>
      <trkpt lat="59.340045" lon="17.728335">
        <ele>9.9</ele>
        <time>2015-05-05T19:33:36Z</time>
      </trkpt>
      <trkpt lat="59.339988" lon="17.728434">
        <ele>10.1</ele>
        <time>2015-05-05T19:33:37Z</time>
      </trkpt>
      <trkpt lat="59.339937" lon="17.728545">
        <ele>10.3</ele>
        <time>2015-05-05T19:33:38Z</time>
      </trkpt>
      <trkpt lat="59.33988" lon="17.728668">
        <ele>10.5</ele>
        <time>2015-05-05T19:33:39Z</time>
      </trkpt>
      <trkpt lat="59.339832" lon="17.728782">
        <ele>10.8</ele>
        <time>2015-05-05T19:33:40Z</time>
      </trkpt>
      <trkpt lat="59.339773" lon="17.728885">
        <ele>11.1</ele>
        <time>2015-05-05T19:33:41Z</time>
      </trkpt>
      <trkpt lat="59.339718" lon="17.728993">
        <ele>11.5</ele>
        <time>2015-05-05T19:33:42Z</time>
      </trkpt>
      <trkpt lat="59.339668" lon="17.729093">
        <ele>11.8</ele>
        <time>2015-05-05T19:33:43Z</time>
      </trkpt>
      <trkpt lat="59.33962" lon="17.729198">
        <ele>12.1</ele>
        <time>2015-05-05T19:33:44Z</time>
      </trkpt>
      <trkpt lat="59.339573" lon="17.729307">
        <ele>12.3</ele>
        <time>2015-05-05T19:33:45Z</time>
      </trkpt>
      <trkpt lat="59.339524" lon="17.729415">
        <ele>12.6</ele>
        <time>2015-05-05T19:33:46Z</time>
      </trkpt>
      <trkpt lat="59.339485" lon="17.729549">
        <ele>12.9</ele>
        <time>2015-05-05T19:33:47Z</time>
      </trkpt>
      <trkpt lat="59.339439" lon="17.729639">
        <ele>13.2</ele>
        <time>2015-05-05T19:33:48Z</time>
      </trkpt>
      <trkpt lat="59.339394" lon="17.72974">
        <ele>13.4</ele>
        <time>2015-05-05T19:33:49Z</time>
      </trkpt>
      <trkpt lat="59.339344" lon="17.729854">
        <ele>13.7</ele>
        <time>2015-05-05T19:33:50Z</time>
      </trkpt>
      <trkpt lat="59.339297" lon="17.729973">
        <ele>13.9</ele>
        <time>2015-05-05T19:33:51Z</time>
      </trkpt>
      <trkpt lat="59.339252" lon="17.730063">
        <ele>14</ele>
        <time>2015-05-05T19:33:52Z</time>
      </trkpt>
      <trkpt lat="59.339211" lon="17.730173">
        <ele>14.2</ele>
        <time>2015-05-05T19:33:53Z</time>
      </trkpt>
      <trkpt lat="59.339175" lon="17.730299">
        <ele>14.3</ele>
        <time>2015-05-05T19:33:54Z</time>
      </trkpt>
      <trkpt lat="59.339134" lon="17.730417">
        <ele>14.4</ele>
        <time>2015-05-05T19:33:55Z</time>
      </trkpt>
      <trkpt lat="59.339092" lon="17.730523">
        <ele>14.3</ele>
        <time>2015-05-05T19:33:56Z</time>
      </trkpt>
      <trkpt lat="59.339047" lon="17.73067">
        <ele>14.3</ele>
        <time>2015-05-05T19:33:57Z</time>
      </trkpt>
      <trkpt lat="59.339006" lon="17.730785">
        <ele>14.2</ele>
        <time>2015-05-05T19:33:58Z</time>
      </trkpt>
      <trkpt lat="59.338946" lon="17.730919">
        <ele>14.2</ele>
        <time>2015-05-05T19:33:59Z</time>
      </trkpt>
      <trkpt lat="59.338918" lon="17.731038">
        <ele>14.2</ele>
        <time>2015-05-05T19:34:00Z</time>
      </trkpt>
      <trkpt lat="59.338882" lon="17.731151">
        <ele>14.2</ele>
        <time>2015-05-05T19:34:01Z</time>
      </trkpt>
      <trkpt lat="59.338847" lon="17.731275">
        <ele>14.3</ele>
        <time>2015-05-05T19:34:02Z</time>
      </trkpt>
      <trkpt lat="59.338804" lon="17.731401">
        <ele>14.3</ele>
        <time>2015-05-05T19:34:03Z</time>
      </trkpt>
      <trkpt lat="59.338769" lon="17.731529">
        <ele>14.4</ele>
        <time>2015-05-05T19:34:04Z</time>
      </trkpt>
      <trkpt lat="59.338731" lon="17.731666">
        <ele>14.5</ele>
        <time>2015-05-05T19:34:05Z</time>
      </trkpt>
      <trkpt lat="59.338684" lon="17.731794">
        <ele>14.5</ele>
        <time>2015-05-05T19:34:06Z</time>
      </trkpt>
      <trkpt lat="59.338626" lon="17.731927">
        <ele>14.5</ele>
        <time>2015-05-05T19:34:07Z</time>
      </trkpt>
      <trkpt lat="59.338579" lon="17.732075">
        <ele>14.6</ele>
        <time>2015-05-05T19:34:08Z</time>
      </trkpt>
      <trkpt lat="59.338543" lon="17.73222">
        <ele>14.4</ele>
        <time>2015-05-05T19:34:09Z</time>
      </trkpt>
      <trkpt lat="59.338499" lon="17.732362">
        <ele>14.2</ele>
        <time>2015-05-05T19:34:10Z</time>
      </trkpt>
      <trkpt lat="59.338464" lon="17.732503">
        <ele>14</ele>
        <time>2015-05-05T19:34:11Z</time>
      </trkpt>
      <trkpt lat="59.338421" lon="17.732634">
        <ele>13.8</ele>
        <time>2015-05-05T19:34:12Z</time>
      </trkpt>
      <trkpt lat="59.338389" lon="17.73278">
        <ele>13.7</ele>
        <time>2015-05-05T19:34:13Z</time>
      </trkpt>
      <trkpt lat="59.338341" lon="17.732917">
        <ele>13.5</ele>
        <time>2015-05-05T19:34:14Z</time>
      </trkpt>
      <trkpt lat="59.338302" lon="17.73305">
        <ele>13.4</ele>
        <time>2015-05-05T19:34:15Z</time>
      </trkpt>
      <trkpt lat="59.338265" lon="17.733189">
        <ele>13.3</ele>
        <time>2015-05-05T19:34:16Z</time>
      </trkpt>
      <trkpt lat="59.338222" lon="17.733331">
        <ele>13.2</ele>
        <time>2015-05-05T19:34:17Z</time>
      </trkpt>
      <trkpt lat="59.338166" lon="17.733482">
        <ele>13.1</ele>
        <time>2015-05-05T19:34:18Z</time>
      </trkpt>
      <trkpt lat="59.338124" lon="17.733615">
        <ele>13</ele>
        <time>2015-05-05T19:34:19Z</time>
      </trkpt>
      <trkpt lat="59.338078" lon="17.733746">
        <ele>13</ele>
        <time>2015-05-05T19:34:20Z</time>
      </trkpt>
      <trkpt lat="59.338035" lon="17.733879">
        <ele>13.3</ele>
        <time>2015-05-05T19:34:21Z</time>
      </trkpt>
      <trkpt lat="59.337993" lon="17.734007">
        <ele>13.6</ele>
        <time>2015-05-05T19:34:22Z</time>
      </trkpt>
      <trkpt lat="59.337951" lon="17.734146">
        <ele>13.9</ele>
        <time>2015-05-05T19:34:23Z</time>
      </trkpt>
      <trkpt lat="59.337899" lon="17.734292">
        <ele>14.3</ele>
        <time>2015-05-05T19:34:24Z</time>
      </trkpt>
      <trkpt lat="59.337844" lon="17.734431">
        <ele>14.6</ele>
        <time>2015-05-05T19:34:25Z</time>
      </trkpt>
      <trkpt lat="59.337801" lon="17.734566">
        <ele>15</ele>
        <time>2015-05-05T19:34:26Z</time>
      </trkpt>
      <trkpt lat="59.337754" lon="17.734704">
        <ele>15.3</ele>
        <time>2015-05-05T19:34:27Z</time>
      </trkpt>
      <trkpt lat="59.337712" lon="17.734845">
        <ele>15.6</ele>
        <time>2015-05-05T19:34:28Z</time>
      </trkpt>
      <trkpt lat="59.337671" lon="17.734978">
        <ele>15.9</ele>
        <time>2015-05-05T19:34:29Z</time>
      </trkpt>
      <trkpt lat="59.337638" lon="17.735119">
        <ele>16.3</ele>
        <time>2015-05-05T19:34:30Z</time>
      </trkpt>
      <trkpt lat="59.337594" lon="17.735265">
        <ele>16.6</ele>
        <time>2015-05-05T19:34:31Z</time>
      </trkpt>
      <trkpt lat="59.337548" lon="17.735402">
        <ele>17</ele>
        <time>2015-05-05T19:34:32Z</time>
      </trkpt>
      <trkpt lat="59.337512" lon="17.735537">
        <ele>16.9</ele>
        <time>2015-05-05T19:34:33Z</time>
      </trkpt>
      <trkpt lat="59.337471" lon="17.735673">
        <ele>16.9</ele>
        <time>2015-05-05T19:34:34Z</time>
      </trkpt>
      <trkpt lat="59.337428" lon="17.73581">
        <ele>16.8</ele>
        <time>2015-05-05T19:34:35Z</time>
      </trkpt>
      <trkpt lat="59.337388" lon="17.735954">
        <ele>16.8</ele>
        <time>2015-05-05T19:34:36Z</time>
      </trkpt>
      <trkpt lat="59.337348" lon="17.736097">
        <ele>16.7</ele>
        <time>2015-05-05T19:34:37Z</time>
      </trkpt>
      <trkpt lat="59.337309" lon="17.736242">
        <ele>16.7</ele>
        <time>2015-05-05T19:34:38Z</time>
      </trkpt>
      <trkpt lat="59.337271" lon="17.736377">
        <ele>16.6</ele>
        <time>2015-05-05T19:34:39Z</time>
      </trkpt>
      <trkpt lat="59.337236" lon="17.73652">
        <ele>16.4</ele>
        <time>2015-05-05T19:34:40Z</time>
      </trkpt>
      <trkpt lat="59.337186" lon="17.736632">
        <ele>16.4</ele>
        <time>2015-05-05T19:34:41Z</time>
      </trkpt>
      <trkpt lat="59.337133" lon="17.736763">
        <ele>16.3</ele>
        <time>2015-05-05T19:34:42Z</time>
      </trkpt>
      <trkpt lat="59.337097" lon="17.736904">
        <ele>16.2</ele>
        <time>2015-05-05T19:34:43Z</time>
      </trkpt>
      <trkpt lat="59.337064" lon="17.737053">
        <ele>15.9</ele>
        <time>2015-05-05T19:34:44Z</time>
      </trkpt>
      <trkpt lat="59.337017" lon="17.737181">
        <ele>15.5</ele>
        <time>2015-05-05T19:34:45Z</time>
      </trkpt>
      <trkpt lat="59.336971" lon="17.73732">
        <ele>15</ele>
        <time>2015-05-05T19:34:46Z</time>
      </trkpt>
      <trkpt lat="59.336922" lon="17.737458">
        <ele>14.5</ele>
        <time>2015-05-05T19:34:47Z</time>
      </trkpt>
      <trkpt lat="59.336867" lon="17.737588">
        <ele>14.1</ele>
        <time>2015-05-05T19:34:48Z</time>
      </trkpt>
      <trkpt lat="59.336824" lon="17.737738">
        <ele>13.7</ele>
        <time>2015-05-05T19:34:49Z</time>
      </trkpt>
      <trkpt lat="59.33678" lon="17.737877">
        <ele>13.3</ele>
        <time>2015-05-05T19:34:50Z</time>
      </trkpt>
      <trkpt lat="59.336743" lon="17.738021">
        <ele>13</ele>
        <time>2015-05-05T19:34:51Z</time>
      </trkpt>
      <trkpt lat="59.336704" lon="17.738151">
        <ele>12.8</ele>
        <time>2015-05-05T19:34:52Z</time>
      </trkpt>
      <trkpt lat="59.336667" lon="17.738278">
        <ele>12.6</ele>
        <time>2015-05-05T19:34:53Z</time>
      </trkpt>
      <trkpt lat="59.336626" lon="17.738411">
        <ele>12.4</ele>
        <time>2015-05-05T19:34:54Z</time>
      </trkpt>
      <trkpt lat="59.336581" lon="17.73854">
        <ele>12.2</ele>
        <time>2015-05-05T19:34:55Z</time>
      </trkpt>
      <trkpt lat="59.336537" lon="17.738662">
        <ele>12.1</ele>
        <time>2015-05-05T19:34:56Z</time>
      </trkpt>
      <trkpt lat="59.336493" lon="17.738789">
        <ele>12.1</ele>
        <time>2015-05-05T19:34:57Z</time>
      </trkpt>
      <trkpt lat="59.336454" lon="17.73892">
        <ele>12.5</ele>
        <time>2015-05-05T19:34:58Z</time>
      </trkpt>
      <trkpt lat="59.3364" lon="17.739034">
        <ele>12.9</ele>
        <time>2015-05-05T19:34:59Z</time>
      </trkpt>
      <trkpt lat="59.336368" lon="17.739187">
        <ele>13.4</ele>
        <time>2015-05-05T19:35:00Z</time>
      </trkpt>
      <trkpt lat="59.336323" lon="17.739321">
        <ele>13.9</ele>
        <time>2015-05-05T19:35:01Z</time>
      </trkpt>
      <trkpt lat="59.336284" lon="17.739454">
        <ele>14.5</ele>
        <time>2015-05-05T19:35:02Z</time>
      </trkpt>
      <trkpt lat="59.336246" lon="17.739586">
        <ele>15</ele>
        <time>2015-05-05T19:35:03Z</time>
      </trkpt>
      <trkpt lat="59.336212" lon="17.739724">
        <ele>15.5</ele>
        <time>2015-05-05T19:35:04Z</time>
      </trkpt>
      <trkpt lat="59.336175" lon="17.739841">
        <ele>15.9</ele>
        <time>2015-05-05T19:35:05Z</time>
      </trkpt>
      <trkpt lat="59.336149" lon="17.739944">
        <ele>16.2</ele>
        <time>2015-05-05T19:35:06Z</time>
      </trkpt>
      <trkpt lat="59.336113" lon="17.740072">
        <ele>16.7</ele>
        <time>2015-05-05T19:35:07Z</time>
      </trkpt>
      <trkpt lat="59.336077" lon="17.740196">
        <ele>17.1</ele>
        <time>2015-05-05T19:35:08Z</time>
      </trkpt>
      <trkpt lat="59.336038" lon="17.740319">
        <ele>17.4</ele>
        <time>2015-05-05T19:35:09Z</time>
      </trkpt>
      <trkpt lat="59.336001" lon="17.740445">
        <ele>17.7</ele>
        <time>2015-05-05T19:35:10Z</time>
      </trkpt>
      <trkpt lat="59.335964" lon="17.740569">
        <ele>17.4</ele>
        <time>2015-05-05T19:35:11Z</time>
      </trkpt>
      <trkpt lat="59.33593" lon="17.740708">
        <ele>17.1</ele>
        <time>2015-05-05T19:35:12Z</time>
      </trkpt>
      <trkpt lat="59.335893" lon="17.740826">
        <ele>16.9</ele>
        <time>2015-05-05T19:35:13Z</time>
      </trkpt>
      <trkpt lat="59.33585" lon="17.740952">
        <ele>16.6</ele>
        <time>2015-05-05T19:35:14Z</time>
      </trkpt>
      <trkpt lat="59.335803" lon="17.74107">
        <ele>16.3</ele>
        <time>2015-05-05T19:35:15Z</time>
      </trkpt>
      <trkpt lat="59.335766" lon="17.741199">
        <ele>15.9</ele>
        <time>2015-05-05T19:35:16Z</time>
      </trkpt>
      <trkpt lat="59.33573" lon="17.741339">
        <ele>15.6</ele>
        <time>2015-05-05T19:35:17Z</time>
      </trkpt>
      <trkpt lat="59.33569" lon="17.741465">
        <ele>15.2</ele>
        <time>2015-05-05T19:35:18Z</time>
      </trkpt>
      <trkpt lat="59.335662" lon="17.74157">
        <ele>14.9</ele>
        <time>2015-05-05T19:35:19Z</time>
      </trkpt>
      <trkpt lat="59.335622" lon="17.741692">
        <ele>14.6</ele>
        <time>2015-05-05T19:35:20Z</time>
      </trkpt>
      <trkpt lat="59.335573" lon="17.741829">
        <ele>14.1</ele>
        <time>2015-05-05T19:35:21Z</time>
      </trkpt>
      <trkpt lat="59.335533" lon="17.741954">
        <ele>13.7</ele>
        <time>2015-05-05T19:35:22Z</time>
      </trkpt>
      <trkpt lat="59.335494" lon="17.74204">
        <ele>13.4</ele>
        <time>2015-05-05T19:35:23Z</time>
      </trkpt>
      <trkpt lat="59.335445" lon="17.742161">
        <ele>13.1</ele>
        <time>2015-05-05T19:35:24Z</time>
      </trkpt>
      <trkpt lat="59.335398" lon="17.742287">
        <ele>13.2</ele>
        <time>2015-05-05T19:35:25Z</time>
      </trkpt>
      <trkpt lat="59.335348" lon="17.742421">
        <ele>13.5</ele>
        <time>2015-05-05T19:35:26Z</time>
      </trkpt>
      <trkpt lat="59.335294" lon="17.742532">
        <ele>14</ele>
        <time>2015-05-05T19:35:27Z</time>
      </trkpt>
      <trkpt lat="59.335244" lon="17.742653">
        <ele>14.3</ele>
        <time>2015-05-05T19:35:28Z</time>
      </trkpt>
      <trkpt lat="59.335188" lon="17.742771">
        <ele>14.7</ele>
        <time>2015-05-05T19:35:29Z</time>
      </trkpt>
      <trkpt lat="59.335134" lon="17.742885">
        <ele>15</ele>
        <time>2015-05-05T19:35:30Z</time>
      </trkpt>
      <trkpt lat="59.335072" lon="17.742996">
        <ele>15.4</ele>
        <time>2015-05-05T19:35:31Z</time>
      </trkpt>
      <trkpt lat="59.335009" lon="17.743114">
        <ele>15.7</ele>
        <time>2015-05-05T19:35:32Z</time>
      </trkpt>
      <trkpt lat="59.334949" lon="17.743228">
        <ele>15.9</ele>
        <time>2015-05-05T19:35:33Z</time>
      </trkpt>
      <trkpt lat="59.334893" lon="17.743333">
        <ele>16.1</ele>
        <time>2015-05-05T19:35:34Z</time>
      </trkpt>
      <trkpt lat="59.334827" lon="17.743444">
        <ele>16.4</ele>
        <time>2015-05-05T19:35:35Z</time>
      </trkpt>
      <trkpt lat="59.334764" lon="17.743544">
        <ele>16.5</ele>
        <time>2015-05-05T19:35:36Z</time>
      </trkpt>
      <trkpt lat="59.334693" lon="17.743653">
        <ele>16.7</ele>
        <time>2015-05-05T19:35:37Z</time>
      </trkpt>
      <trkpt lat="59.334627" lon="17.743743">
        <ele>16.8</ele>
        <time>2015-05-05T19:35:38Z</time>
      </trkpt>
      <trkpt lat="59.334564" lon="17.743829">
        <ele>17.1</ele>
        <time>2015-05-05T19:35:39Z</time>
      </trkpt>
      <trkpt lat="59.334498" lon="17.743924">
        <ele>17.5</ele>
        <time>2015-05-05T19:35:40Z</time>
      </trkpt>
      <trkpt lat="59.334431" lon="17.74402">
        <ele>18</ele>
        <time>2015-05-05T19:35:41Z</time>
      </trkpt>
      <trkpt lat="59.33434" lon="17.744088">
        <ele>18.6</ele>
        <time>2015-05-05T19:35:42Z</time>
      </trkpt>
      <trkpt lat="59.334257" lon="17.744214">
        <ele>19.2</ele>
        <time>2015-05-05T19:35:43Z</time>
      </trkpt>
      <trkpt lat="59.334199" lon="17.744295">
        <ele>19.6</ele>
        <time>2015-05-05T19:35:44Z</time>
      </trkpt>
      <trkpt lat="59.334136" lon="17.744389">
        <ele>20</ele>
        <time>2015-05-05T19:35:45Z</time>
      </trkpt>
      <trkpt lat="59.334071" lon="17.744465">
        <ele>20.4</ele>
        <time>2015-05-05T19:35:46Z</time>
      </trkpt>
      <trkpt lat="59.334006" lon="17.74453">
        <ele>20.9</ele>
        <time>2015-05-05T19:35:47Z</time>
      </trkpt>
      <trkpt lat="59.333936" lon="17.744595">
        <ele>21.4</ele>
        <time>2015-05-05T19:35:48Z</time>
      </trkpt>
      <trkpt lat="59.333868" lon="17.744661">
        <ele>21.8</ele>
        <time>2015-05-05T19:35:49Z</time>
      </trkpt>
      <trkpt lat="59.3338" lon="17.744721">
        <ele>22.2</ele>
        <time>2015-05-05T19:35:50Z</time>
      </trkpt>
      <trkpt lat="59.333727" lon="17.744781">
        <ele>22.5</ele>
        <time>2015-05-05T19:35:51Z</time>
      </trkpt>
      <trkpt lat="59.333659" lon="17.744836">
        <ele>22.3</ele>
        <time>2015-05-05T19:35:52Z</time>
      </trkpt>
      <trkpt lat="59.333594" lon="17.7449">
        <ele>22.1</ele>
        <time>2015-05-05T19:35:53Z</time>
      </trkpt>
      <trkpt lat="59.333527" lon="17.744966">
        <ele>21.9</ele>
        <time>2015-05-05T19:35:54Z</time>
      </trkpt>
      <trkpt lat="59.333453" lon="17.745055">
        <ele>21.7</ele>
        <time>2015-05-05T19:35:55Z</time>
      </trkpt>
      <trkpt lat="59.333392" lon="17.745123">
        <ele>21.6</ele>
        <time>2015-05-05T19:35:56Z</time>
      </trkpt>
      <trkpt lat="59.333322" lon="17.745194">
        <ele>21.4</ele>
        <time>2015-05-05T19:35:57Z</time>
      </trkpt>
      <trkpt lat="59.333255" lon="17.745258">
        <ele>21.3</ele>
        <time>2015-05-05T19:35:58Z</time>
      </trkpt>
      <trkpt lat="59.333194" lon="17.745311">
        <ele>21.2</ele>
        <time>2015-05-05T19:35:59Z</time>
      </trkpt>
      <trkpt lat="59.333132" lon="17.745365">
        <ele>21.1</ele>
        <time>2015-05-05T19:36:00Z</time>
      </trkpt>
      <trkpt lat="59.333052" lon="17.745412">
        <ele>21</ele>
        <time>2015-05-05T19:36:01Z</time>
      </trkpt>
      <trkpt lat="59.332981" lon="17.745489">
        <ele>20.8</ele>
        <time>2015-05-05T19:36:02Z</time>
      </trkpt>
      <trkpt lat="59.332915" lon="17.745552">
        <ele>20.7</ele>
        <time>2015-05-05T19:36:03Z</time>
      </trkpt>
      <trkpt lat="59.332856" lon="17.745598">
        <ele>20.6</ele>
        <time>2015-05-05T19:36:04Z</time>
      </trkpt>
      <trkpt lat="59.332791" lon="17.74564">
        <ele>20.6</ele>
        <time>2015-05-05T19:36:05Z</time>
      </trkpt>
      <trkpt lat="59.332728" lon="17.745678">
        <ele>20.5</ele>
        <time>2015-05-05T19:36:06Z</time>
      </trkpt>
      <trkpt lat="59.332665" lon="17.745715">
        <ele>20.5</ele>
        <time>2015-05-05T19:36:07Z</time>
      </trkpt>
      <trkpt lat="59.332601" lon="17.74576">
        <ele>20.4</ele>
        <time>2015-05-05T19:36:08Z</time>
      </trkpt>
      <trkpt lat="59.332536" lon="17.745792">
        <ele>20.4</ele>
        <time>2015-05-05T19:36:09Z</time>
      </trkpt>
      <trkpt lat="59.332472" lon="17.745844">
        <ele>20.2</ele>
        <time>2015-05-05T19:36:10Z</time>
      </trkpt>
      <trkpt lat="59.332403" lon="17.74587">
        <ele>20.2</ele>
        <time>2015-05-05T19:36:11Z</time>
      </trkpt>
      <trkpt lat="59.332325" lon="17.745881">
        <ele>20.2</ele>
        <time>2015-05-05T19:36:12Z</time>
      </trkpt>
      <trkpt lat="59.332249" lon="17.745889">
        <ele>20.2</ele>
        <time>2015-05-05T19:36:13Z</time>
      </trkpt>
      <trkpt lat="59.33218" lon="17.745925">
        <ele>20.1</ele>
        <time>2015-05-05T19:36:14Z</time>
      </trkpt>
      <trkpt lat="59.332108" lon="17.745933">
        <ele>20.1</ele>
        <time>2015-05-05T19:36:15Z</time>
      </trkpt>
      <trkpt lat="59.332045" lon="17.745946">
        <ele>19.9</ele>
        <time>2015-05-05T19:36:16Z</time>
      </trkpt>
      <trkpt lat="59.331964" lon="17.745959">
        <ele>19.5</ele>
        <time>2015-05-05T19:36:17Z</time>
      </trkpt>
      <trkpt lat="59.331888" lon="17.745959">
        <ele>19.1</ele>
        <time>2015-05-05T19:36:18Z</time>
      </trkpt>
      <trkpt lat="59.331809" lon="17.745985">
        <ele>18.7</ele>
        <time>2015-05-05T19:36:19Z</time>
      </trkpt>
      <trkpt lat="59.331726" lon="17.745995">
        <ele>18.2</ele>
        <time>2015-05-05T19:36:20Z</time>
      </trkpt>
      <trkpt lat="59.331648" lon="17.74601">
        <ele>17.8</ele>
        <time>2015-05-05T19:36:21Z</time>
      </trkpt>
      <trkpt lat="59.33157" lon="17.746026">
        <ele>17.5</ele>
        <time>2015-05-05T19:36:22Z</time>
      </trkpt>
      <trkpt lat="59.33149" lon="17.746034">
        <ele>17.1</ele>
        <time>2015-05-05T19:36:23Z</time>
      </trkpt>
      <trkpt lat="59.331411" lon="17.746052">
        <ele>16.7</ele>
        <time>2015-05-05T19:36:24Z</time>
      </trkpt>
      <trkpt lat="59.331335" lon="17.746054">
        <ele>16.4</ele>
        <time>2015-05-05T19:36:25Z</time>
      </trkpt>
      <trkpt lat="59.331253" lon="17.746069">
        <ele>16</ele>
        <time>2015-05-05T19:36:26Z</time>
      </trkpt>
      <trkpt lat="59.331167" lon="17.746075">
        <ele>15.9</ele>
        <time>2015-05-05T19:36:27Z</time>
      </trkpt>
      <trkpt lat="59.331088" lon="17.746086">
        <ele>15.8</ele>
        <time>2015-05-05T19:36:28Z</time>
      </trkpt>
      <trkpt lat="59.331005" lon="17.746082">
        <ele>15.7</ele>
        <time>2015-05-05T19:36:29Z</time>
      </trkpt>
      <trkpt lat="59.330923" lon="17.746105">
        <ele>15.6</ele>
        <time>2015-05-05T19:36:30Z</time>
      </trkpt>
      <trkpt lat="59.330847" lon="17.746124">
        <ele>15.5</ele>
        <time>2015-05-05T19:36:31Z</time>
      </trkpt>
      <trkpt lat="59.330768" lon="17.746134">
        <ele>15.4</ele>
        <time>2015-05-05T19:36:32Z</time>
      </trkpt>
      <trkpt lat="59.33069" lon="17.746141">
        <ele>15.3</ele>
        <time>2015-05-05T19:36:33Z</time>
      </trkpt>
      <trkpt lat="59.330609" lon="17.746146">
        <ele>15.2</ele>
        <time>2015-05-05T19:36:34Z</time>
      </trkpt>
      <trkpt lat="59.330532" lon="17.746164">
        <ele>15.1</ele>
        <time>2015-05-05T19:36:35Z</time>
      </trkpt>
      <trkpt lat="59.330452" lon="17.746181">
        <ele>15</ele>
        <time>2015-05-05T19:36:36Z</time>
      </trkpt>
      <trkpt lat="59.330364" lon="17.746184">
        <ele>15.2</ele>
        <time>2015-05-05T19:36:37Z</time>
      </trkpt>
      <trkpt lat="59.330283" lon="17.746198">
        <ele>15.5</ele>
        <time>2015-05-05T19:36:38Z</time>
      </trkpt>
      <trkpt lat="59.330202" lon="17.746212">
        <ele>15.8</ele>
        <time>2015-05-05T19:36:39Z</time>
      </trkpt>
      <trkpt lat="59.33012" lon="17.746219">
        <ele>16.1</ele>
        <time>2015-05-05T19:36:40Z</time>
      </trkpt>
      <trkpt lat="59.330045" lon="17.746231">
        <ele>16.3</ele>
        <time>2015-05-05T19:36:41Z</time>
      </trkpt>
      <trkpt lat="59.329969" lon="17.746237">
        <ele>16.6</ele>
        <time>2015-05-05T19:36:42Z</time>
      </trkpt>
      <trkpt lat="59.329882" lon="17.746248">
        <ele>16.9</ele>
        <time>2015-05-05T19:36:43Z</time>
      </trkpt>
      <trkpt lat="59.329802" lon="17.746261">
        <ele>17.2</ele>
        <time>2015-05-05T19:36:44Z</time>
      </trkpt>
      <trkpt lat="59.329719" lon="17.746275">
        <ele>17.5</ele>
        <time>2015-05-05T19:36:45Z</time>
      </trkpt>
      <trkpt lat="59.329645" lon="17.746279">
        <ele>17.7</ele>
        <time>2015-05-05T19:36:46Z</time>
      </trkpt>
      <trkpt lat="59.329562" lon="17.746289">
        <ele>18</ele>
        <time>2015-05-05T19:36:47Z</time>
      </trkpt>
      <trkpt lat="59.329492" lon="17.746292">
        <ele>18.3</ele>
        <time>2015-05-05T19:36:48Z</time>
      </trkpt>
      <trkpt lat="59.329421" lon="17.746305">
        <ele>18.5</ele>
        <time>2015-05-05T19:36:49Z</time>
      </trkpt>
      <trkpt lat="59.329344" lon="17.74631">
        <ele>18.8</ele>
        <time>2015-05-05T19:36:50Z</time>
      </trkpt>
      <trkpt lat="59.329266" lon="17.746311">
        <ele>19</ele>
        <time>2015-05-05T19:36:51Z</time>
      </trkpt>
      <trkpt lat="59.32919" lon="17.746337">
        <ele>19.3</ele>
        <time>2015-05-05T19:36:52Z</time>
      </trkpt>
      <trkpt lat="59.329114" lon="17.746341">
        <ele>19.5</ele>
        <time>2015-05-05T19:36:53Z</time>
      </trkpt>
      <trkpt lat="59.329046" lon="17.746351">
        <ele>19.7</ele>
        <time>2015-05-05T19:36:54Z</time>
      </trkpt>
      <trkpt lat="59.328968" lon="17.746361">
        <ele>20</ele>
        <time>2015-05-05T19:36:55Z</time>
      </trkpt>
      <trkpt lat="59.328895" lon="17.746377">
        <ele>20.2</ele>
        <time>2015-05-05T19:36:56Z</time>
      </trkpt>
      <trkpt lat="59.328826" lon="17.746389">
        <ele>20.4</ele>
        <time>2015-05-05T19:36:57Z</time>
      </trkpt>
      <trkpt lat="59.328747" lon="17.746396">
        <ele>20.6</ele>
        <time>2015-05-05T19:36:58Z</time>
      </trkpt>
      <trkpt lat="59.32867" lon="17.746405">
        <ele>20.5</ele>
        <time>2015-05-05T19:36:59Z</time>
      </trkpt>
      <trkpt lat="59.328596" lon="17.746414">
        <ele>20.4</ele>
        <time>2015-05-05T19:37:00Z</time>
      </trkpt>
      <trkpt lat="59.328521" lon="17.746432">
        <ele>20.2</ele>
        <time>2015-05-05T19:37:01Z</time>
      </trkpt>
      <trkpt lat="59.328444" lon="17.746445">
        <ele>20.1</ele>
        <time>2015-05-05T19:37:02Z</time>
      </trkpt>
      <trkpt lat="59.328366" lon="17.746457">
        <ele>19.9</ele>
        <time>2015-05-05T19:37:03Z</time>
      </trkpt>
      <trkpt lat="59.328289" lon="17.746469">
        <ele>19.8</ele>
        <time>2015-05-05T19:37:04Z</time>
      </trkpt>
      <trkpt lat="59.328203" lon="17.746465">
        <ele>19.7</ele>
        <time>2015-05-05T19:37:05Z</time>
      </trkpt>
      <trkpt lat="59.328129" lon="17.746455">
        <ele>19.6</ele>
        <time>2015-05-05T19:37:06Z</time>
      </trkpt>
      <trkpt lat="59.328055" lon="17.746463">
        <ele>19.4</ele>
        <time>2015-05-05T19:37:07Z</time>
      </trkpt>
      <trkpt lat="59.327973" lon="17.746481">
        <ele>19.3</ele>
        <time>2015-05-05T19:37:08Z</time>
      </trkpt>
      <trkpt lat="59.327894" lon="17.746503">
        <ele>19.1</ele>
        <time>2015-05-05T19:37:09Z</time>
      </trkpt>
      <trkpt lat="59.32782" lon="17.746527">
        <ele>18.8</ele>
        <time>2015-05-05T19:37:10Z</time>
      </trkpt>
      <trkpt lat="59.327745" lon="17.746556">
        <ele>18.6</ele>
        <time>2015-05-05T19:37:11Z</time>
      </trkpt>
      <trkpt lat="59.32767" lon="17.746581">
        <ele>18.4</ele>
        <time>2015-05-05T19:37:12Z</time>
      </trkpt>
      <trkpt lat="59.327587" lon="17.746601">
        <ele>18.2</ele>
        <time>2015-05-05T19:37:13Z</time>
      </trkpt>
      <trkpt lat="59.327508" lon="17.746637">
        <ele>17.9</ele>
        <time>2015-05-05T19:37:14Z</time>
      </trkpt>
      <trkpt lat="59.327428" lon="17.746662">
        <ele>17.6</ele>
        <time>2015-05-05T19:37:15Z</time>
      </trkpt>
      <trkpt lat="59.327343" lon="17.746682">
        <ele>17.4</ele>
        <time>2015-05-05T19:37:16Z</time>
      </trkpt>
      <trkpt lat="59.327268" lon="17.746708">
        <ele>17.1</ele>
        <time>2015-05-05T19:37:17Z</time>
      </trkpt>
      <trkpt lat="59.327177" lon="17.74674">
        <ele>16.8</ele>
        <time>2015-05-05T19:37:18Z</time>
      </trkpt>
      <trkpt lat="59.327102" lon="17.746762">
        <ele>16.6</ele>
        <time>2015-05-05T19:37:19Z</time>
      </trkpt>
      <trkpt lat="59.327026" lon="17.74679">
        <ele>16.2</ele>
        <time>2015-05-05T19:37:20Z</time>
      </trkpt>
      <trkpt lat="59.326939" lon="17.746796">
        <ele>15.9</ele>
        <time>2015-05-05T19:37:21Z</time>
      </trkpt>
      <trkpt lat="59.326848" lon="17.74682">
        <ele>15.5</ele>
        <time>2015-05-05T19:37:22Z</time>
      </trkpt>
      <trkpt lat="59.326764" lon="17.746831">
        <ele>15.2</ele>
        <time>2015-05-05T19:37:23Z</time>
      </trkpt>
      <trkpt lat="59.326688" lon="17.746852">
        <ele>14.9</ele>
        <time>2015-05-05T19:37:24Z</time>
      </trkpt>
      <trkpt lat="59.326597" lon="17.74689">
        <ele>14.5</ele>
        <time>2015-05-05T19:37:25Z</time>
      </trkpt>
      <trkpt lat="59.326515" lon="17.74692">
        <ele>14.2</ele>
        <time>2015-05-05T19:37:26Z</time>
      </trkpt>
      <trkpt lat="59.326431" lon="17.746943">
        <ele>13.8</ele>
        <time>2015-05-05T19:37:27Z</time>
      </trkpt>
      <trkpt lat="59.326346" lon="17.746967">
        <ele>13.5</ele>
        <time>2015-05-05T19:37:28Z</time>
      </trkpt>
      <trkpt lat="59.326265" lon="17.746983">
        <ele>13.3</ele>
        <time>2015-05-05T19:37:29Z</time>
      </trkpt>
      <trkpt lat="59.326186" lon="17.746999">
        <ele>13</ele>
        <time>2015-05-05T19:37:30Z</time>
      </trkpt>
      <trkpt lat="59.326105" lon="17.74703">
        <ele>12.6</ele>
        <time>2015-05-05T19:37:31Z</time>
      </trkpt>
      <trkpt lat="59.326028" lon="17.747057">
        <ele>12.3</ele>
        <time>2015-05-05T19:37:32Z</time>
      </trkpt>
      <trkpt lat="59.325952" lon="17.747081">
        <ele>11.9</ele>
        <time>2015-05-05T19:37:33Z</time>
      </trkpt>
      <trkpt lat="59.325873" lon="17.747103">
        <ele>11.6</ele>
        <time>2015-05-05T19:37:34Z</time>
      </trkpt>
      <trkpt lat="59.325792" lon="17.747121">
        <ele>11.4</ele>
        <time>2015-05-05T19:37:35Z</time>
      </trkpt>
      <trkpt lat="59.32571" lon="17.747139">
        <ele>11.1</ele>
        <time>2015-05-05T19:37:36Z</time>
      </trkpt>
      <trkpt lat="59.325627" lon="17.747156">
        <ele>10.8</ele>
        <time>2015-05-05T19:37:37Z</time>
      </trkpt>
      <trkpt lat="59.325548" lon="17.747168">
        <ele>10.5</ele>
        <time>2015-05-05T19:37:38Z</time>
      </trkpt>
      <trkpt lat="59.325473" lon="17.747177">
        <ele>10.2</ele>
        <time>2015-05-05T19:37:39Z</time>
      </trkpt>
      <trkpt lat="59.325394" lon="17.747205">
        <ele>10.1</ele>
        <time>2015-05-05T19:37:40Z</time>
      </trkpt>
      <trkpt lat="59.325312" lon="17.74723">
        <ele>10.3</ele>
        <time>2015-05-05T19:37:41Z</time>
      </trkpt>
      <trkpt lat="59.325234" lon="17.747233">
        <ele>10.5</ele>
        <time>2015-05-05T19:37:42Z</time>
      </trkpt>
      <trkpt lat="59.325154" lon="17.747259">
        <ele>10.8</ele>
        <time>2015-05-05T19:37:43Z</time>
      </trkpt>
      <trkpt lat="59.325083" lon="17.747291">
        <ele>11</ele>
        <time>2015-05-05T19:37:44Z</time>
      </trkpt>
      <trkpt lat="59.325011" lon="17.747333">
        <ele>11.3</ele>
        <time>2015-05-05T19:37:45Z</time>
      </trkpt>
      <trkpt lat="59.324928" lon="17.747401">
        <ele>11.6</ele>
        <time>2015-05-05T19:37:46Z</time>
      </trkpt>
      <trkpt lat="59.324858" lon="17.747483">
        <ele>12</ele>
        <time>2015-05-05T19:37:47Z</time>
      </trkpt>
      <trkpt lat="59.324788" lon="17.747564">
        <ele>12.4</ele>
        <time>2015-05-05T19:37:48Z</time>
      </trkpt>
      <trkpt lat="59.324721" lon="17.747661">
        <ele>12.8</ele>
        <time>2015-05-05T19:37:49Z</time>
      </trkpt>
      <trkpt lat="59.324654" lon="17.747789">
        <ele>13.4</ele>
        <time>2015-05-05T19:37:50Z</time>
      </trkpt>
      <trkpt lat="59.324602" lon="17.747903">
        <ele>13.9</ele>
        <time>2015-05-05T19:37:51Z</time>
      </trkpt>
      <trkpt lat="59.32455" lon="17.74801">
        <ele>14.7</ele>
        <time>2015-05-05T19:37:52Z</time>
      </trkpt>
      <trkpt lat="59.324502" lon="17.748136">
        <ele>15.7</ele>
        <time>2015-05-05T19:37:53Z</time>
      </trkpt>
      <trkpt lat="59.324449" lon="17.748236">
        <ele>16.8</ele>
        <time>2015-05-05T19:37:54Z</time>
      </trkpt>
      <trkpt lat="59.324399" lon="17.748338">
        <ele>17.8</ele>
        <time>2015-05-05T19:37:55Z</time>
      </trkpt>
      <trkpt lat="59.324363" lon="17.748421">
        <ele>18.7</ele>
        <time>2015-05-05T19:37:56Z</time>
      </trkpt>
      <trkpt lat="59.324315" lon="17.748483">
        <ele>19.6</ele>
        <time>2015-05-05T19:37:57Z</time>
      </trkpt>
      <trkpt lat="59.324281" lon="17.748559">
        <ele>20.4</ele>
        <time>2015-05-05T19:37:58Z</time>
      </trkpt>
      <trkpt lat="59.324249" lon="17.748638">
        <ele>21.2</ele>
        <time>2015-05-05T19:37:59Z</time>
      </trkpt>
      <trkpt lat="59.324208" lon="17.748696">
        <ele>22.1</ele>
        <time>2015-05-05T19:38:00Z</time>
      </trkpt>
      <trkpt lat="59.324172" lon="17.748773">
        <ele>22.9</ele>
        <time>2015-05-05T19:38:01Z</time>
      </trkpt>
      <trkpt lat="59.324132" lon="17.748832">
        <ele>23.2</ele>
        <time>2015-05-05T19:38:02Z</time>
      </trkpt>
      <trkpt lat="59.324095" lon="17.748909">
        <ele>23.5</ele>
        <time>2015-05-05T19:38:03Z</time>
      </trkpt>
      <trkpt lat="59.324054" lon="17.74898">
        <ele>23.9</ele>
        <time>2015-05-05T19:38:04Z</time>
      </trkpt>
      <trkpt lat="59.324024" lon="17.749028">
        <ele>24.2</ele>
        <time>2015-05-05T19:38:05Z</time>
      </trkpt>
      <trkpt lat="59.32399" lon="17.749094">
        <ele>24.4</ele>
        <time>2015-05-05T19:38:06Z</time>
      </trkpt>
      <trkpt lat="59.323972" lon="17.749157">
        <ele>24.5</ele>
        <time>2015-05-05T19:38:07Z</time>
      </trkpt>
      <trkpt lat="59.32393" lon="17.749236">
        <ele>24.8</ele>
        <time>2015-05-05T19:38:08Z</time>
      </trkpt>
      <trkpt lat="59.323908" lon="17.749311">
        <ele>24.8</ele>
        <time>2015-05-05T19:38:09Z</time>
      </trkpt>
      <trkpt lat="59.323882" lon="17.749387">
        <ele>24.9</ele>
        <time>2015-05-05T19:38:10Z</time>
      </trkpt>
      <trkpt lat="59.323853" lon="17.749447">
        <ele>25.1</ele>
        <time>2015-05-05T19:38:11Z</time>
      </trkpt>
      <trkpt lat="59.323827" lon="17.749526">
        <ele>25.2</ele>
        <time>2015-05-05T19:38:12Z</time>
      </trkpt>
      <trkpt lat="59.323795" lon="17.749587">
        <ele>25.4</ele>
        <time>2015-05-05T19:38:13Z</time>
      </trkpt>
      <trkpt lat="59.323761" lon="17.749669">
        <ele>25.5</ele>
        <time>2015-05-05T19:38:14Z</time>
      </trkpt>
      <trkpt lat="59.32373" lon="17.749736">
        <ele>25.7</ele>
        <time>2015-05-05T19:38:15Z</time>
      </trkpt>
      <trkpt lat="59.3237" lon="17.749819">
        <ele>25.8</ele>
        <time>2015-05-05T19:38:16Z</time>
      </trkpt>
      <trkpt lat="59.323667" lon="17.749894">
        <ele>26</ele>
        <time>2015-05-05T19:38:17Z</time>
      </trkpt>
      <trkpt lat="59.323631" lon="17.749989">
        <ele>26.2</ele>
        <time>2015-05-05T19:38:18Z</time>
      </trkpt>
      <trkpt lat="59.323599" lon="17.750069">
        <ele>26.4</ele>
        <time>2015-05-05T19:38:19Z</time>
      </trkpt>
      <trkpt lat="59.32357" lon="17.750173">
        <ele>26.5</ele>
        <time>2015-05-05T19:38:20Z</time>
      </trkpt>
      <trkpt lat="59.323555" lon="17.750241">
        <ele>26.5</ele>
        <time>2015-05-05T19:38:21Z</time>
      </trkpt>
      <trkpt lat="59.323523" lon="17.75033">
        <ele>26.8</ele>
        <time>2015-05-05T19:38:22Z</time>
      </trkpt>
      <trkpt lat="59.323495" lon="17.750414">
        <ele>27</ele>
        <time>2015-05-05T19:38:23Z</time>
      </trkpt>
      <trkpt lat="59.323471" lon="17.750516">
        <ele>27</ele>
        <time>2015-05-05T19:38:24Z</time>
      </trkpt>
      <trkpt lat="59.32345" lon="17.750591">
        <ele>27.1</ele>
        <time>2015-05-05T19:38:25Z</time>
      </trkpt>
      <trkpt lat="59.323434" lon="17.750685">
        <ele>27.1</ele>
        <time>2015-05-05T19:38:26Z</time>
      </trkpt>
      <trkpt lat="59.323412" lon="17.75077">
        <ele>27.2</ele>
        <time>2015-05-05T19:38:27Z</time>
      </trkpt>
      <trkpt lat="59.323395" lon="17.750869">
        <ele>27.1</ele>
        <time>2015-05-05T19:38:28Z</time>
      </trkpt>
      <trkpt lat="59.323365" lon="17.750999">
        <ele>27.2</ele>
        <time>2015-05-05T19:38:29Z</time>
      </trkpt>
      <trkpt lat="59.323332" lon="17.751111">
        <ele>27.4</ele>
        <time>2015-05-05T19:38:30Z</time>
      </trkpt>
      <trkpt lat="59.323305" lon="17.751217">
        <ele>27.6</ele>
        <time>2015-05-05T19:38:31Z</time>
      </trkpt>
      <trkpt lat="59.323292" lon="17.751318">
        <ele>27.5</ele>
        <time>2015-05-05T19:38:32Z</time>
      </trkpt>
      <trkpt lat="59.323266" lon="17.751419">
        <ele>27.6</ele>
        <time>2015-05-05T19:38:33Z</time>
      </trkpt>
      <trkpt lat="59.323242" lon="17.751526">
        <ele>27.6</ele>
        <time>2015-05-05T19:38:34Z</time>
      </trkpt>
      <trkpt lat="59.323221" lon="17.751693">
        <ele>27.4</ele>
        <time>2015-05-05T19:38:35Z</time>
      </trkpt>
      <trkpt lat="59.323198" lon="17.751816">
        <ele>27.5</ele>
        <time>2015-05-05T19:38:36Z</time>
      </trkpt>
      <trkpt lat="59.323173" lon="17.751934">
        <ele>27.5</ele>
        <time>2015-05-05T19:38:37Z</time>
      </trkpt>
      <trkpt lat="59.32316" lon="17.752037">
        <ele>27.5</ele>
        <time>2015-05-05T19:38:38Z</time>
      </trkpt>
      <trkpt lat="59.323143" lon="17.752161">
        <ele>27.7</ele>
        <time>2015-05-05T19:38:39Z</time>
      </trkpt>
      <trkpt lat="59.323127" lon="17.752279">
        <ele>28</ele>
        <time>2015-05-05T19:38:40Z</time>
      </trkpt>
      <trkpt lat="59.323091" lon="17.752422">
        <ele>28.7</ele>
        <time>2015-05-05T19:38:41Z</time>
      </trkpt>
      <trkpt lat="59.323066" lon="17.752557">
        <ele>29.1</ele>
        <time>2015-05-05T19:38:42Z</time>
      </trkpt>
      <trkpt lat="59.323039" lon="17.752696">
        <ele>29.7</ele>
        <time>2015-05-05T19:38:43Z</time>
      </trkpt>
      <trkpt lat="59.323029" lon="17.752813">
        <ele>29.8</ele>
        <time>2015-05-05T19:38:44Z</time>
      </trkpt>
      <trkpt lat="59.323009" lon="17.75293">
        <ele>30.2</ele>
        <time>2015-05-05T19:38:45Z</time>
      </trkpt>
      <trkpt lat="59.323003" lon="17.753053">
        <ele>30.3</ele>
        <time>2015-05-05T19:38:46Z</time>
      </trkpt>
      <trkpt lat="59.323" lon="17.753169">
        <ele>30.4</ele>
        <time>2015-05-05T19:38:47Z</time>
      </trkpt>
      <trkpt lat="59.322989" lon="17.753296">
        <ele>30.6</ele>
        <time>2015-05-05T19:38:48Z</time>
      </trkpt>
      <trkpt lat="59.322988" lon="17.753419">
        <ele>30.6</ele>
        <time>2015-05-05T19:38:49Z</time>
      </trkpt>
      <trkpt lat="59.323007" lon="17.753552">
        <ele>30.2</ele>
        <time>2015-05-05T19:38:50Z</time>
      </trkpt>
      <trkpt lat="59.323018" lon="17.753675">
        <ele>29.9</ele>
        <time>2015-05-05T19:38:51Z</time>
      </trkpt>
      <trkpt lat="59.323033" lon="17.753793">
        <ele>29.7</ele>
        <time>2015-05-05T19:38:52Z</time>
      </trkpt>
      <trkpt lat="59.323037" lon="17.7539">
        <ele>29.7</ele>
        <time>2015-05-05T19:38:53Z</time>
      </trkpt>
      <trkpt lat="59.323041" lon="17.754012">
        <ele>29.8</ele>
        <time>2015-05-05T19:38:54Z</time>
      </trkpt>
      <trkpt lat="59.323038" lon="17.754103">
        <ele>29.9</ele>
        <time>2015-05-05T19:38:55Z</time>
      </trkpt>
      <trkpt lat="59.32304" lon="17.754231">
        <ele>30.1</ele>
        <time>2015-05-05T19:38:56Z</time>
      </trkpt>
      <trkpt lat="59.323044" lon="17.754349">
        <ele>30.1</ele>
        <time>2015-05-05T19:38:57Z</time>
      </trkpt>
      <trkpt lat="59.323039" lon="17.75447">
        <ele>30.4</ele>
        <time>2015-05-05T19:38:58Z</time>
      </trkpt>
      <trkpt lat="59.323043" lon="17.754577">
        <ele>30.4</ele>
        <time>2015-05-05T19:38:59Z</time>
      </trkpt>
      <trkpt lat="59.323045" lon="17.75469">
        <ele>30.6</ele>
        <time>2015-05-05T19:39:00Z</time>
      </trkpt>
      <trkpt lat="59.32305" lon="17.754801">
        <ele>30.8</ele>
        <time>2015-05-05T19:39:01Z</time>
      </trkpt>
      <trkpt lat="59.323054" lon="17.75491">
        <ele>31</ele>
        <time>2015-05-05T19:39:02Z</time>
      </trkpt>
      <trkpt lat="59.323049" lon="17.755021">
        <ele>31.4</ele>
        <time>2015-05-05T19:39:03Z</time>
      </trkpt>
      <trkpt lat="59.32305" lon="17.755118">
        <ele>31.6</ele>
        <time>2015-05-05T19:39:04Z</time>
      </trkpt>
      <trkpt lat="59.323058" lon="17.755215">
        <ele>31.6</ele>
        <time>2015-05-05T19:39:05Z</time>
      </trkpt>
      <trkpt lat="59.323062" lon="17.755322">
        <ele>31.8</ele>
        <time>2015-05-05T19:39:06Z</time>
      </trkpt>
      <trkpt lat="59.323061" lon="17.755424">
        <ele>32.1</ele>
        <time>2015-05-05T19:39:07Z</time>
      </trkpt>
      <trkpt lat="59.323062" lon="17.755536">
        <ele>32.3</ele>
        <time>2015-05-05T19:39:08Z</time>
      </trkpt>
      <trkpt lat="59.323062" lon="17.755649">
        <ele>32.5</ele>
        <time>2015-05-05T19:39:09Z</time>
      </trkpt>
      <trkpt lat="59.323067" lon="17.755778">
        <ele>32.7</ele>
        <time>2015-05-05T19:39:10Z</time>
      </trkpt>
      <trkpt lat="59.32307" lon="17.755905">
        <ele>32.9</ele>
        <time>2015-05-05T19:39:11Z</time>
      </trkpt>
      <trkpt lat="59.323071" lon="17.756018">
        <ele>33.2</ele>
        <time>2015-05-05T19:39:12Z</time>
      </trkpt>
      <trkpt lat="59.323067" lon="17.756127">
        <ele>33.5</ele>
        <time>2015-05-05T19:39:13Z</time>
      </trkpt>
      <trkpt lat="59.323067" lon="17.756257">
        <ele>33.8</ele>
        <time>2015-05-05T19:39:14Z</time>
      </trkpt>
      <trkpt lat="59.323072" lon="17.756372">
        <ele>34</ele>
        <time>2015-05-05T19:39:15Z</time>
      </trkpt>
      <trkpt lat="59.323074" lon="17.756483">
        <ele>34.3</ele>
        <time>2015-05-05T19:39:16Z</time>
      </trkpt>
      <trkpt lat="59.323074" lon="17.756601">
        <ele>34.7</ele>
        <time>2015-05-05T19:39:17Z</time>
      </trkpt>
      <trkpt lat="59.323082" lon="17.756742">
        <ele>35</ele>
        <time>2015-05-05T19:39:18Z</time>
      </trkpt>
      <trkpt lat="59.323092" lon="17.756871">
        <ele>35.1</ele>
        <time>2015-05-05T19:39:19Z</time>
      </trkpt>
      <trkpt lat="59.32309" lon="17.757026">
        <ele>35.7</ele>
        <time>2015-05-05T19:39:20Z</time>
      </trkpt>
      <trkpt lat="59.323092" lon="17.757157">
        <ele>35.8</ele>
        <time>2015-05-05T19:39:21Z</time>
      </trkpt>
      <trkpt lat="59.323094" lon="17.757292">
        <ele>35.8</ele>
        <time>2015-05-05T19:39:22Z</time>
      </trkpt>
      <trkpt lat="59.323081" lon="17.757499">
        <ele>36.2</ele>
        <time>2015-05-05T19:39:23Z</time>
      </trkpt>
      <trkpt lat="59.323084" lon="17.757636">
        <ele>36.1</ele>
        <time>2015-05-05T19:39:24Z</time>
      </trkpt>
      <trkpt lat="59.323081" lon="17.757741">
        <ele>36.2</ele>
        <time>2015-05-05T19:39:25Z</time>
      </trkpt>
      <trkpt lat="59.323074" lon="17.757871">
        <ele>36.4</ele>
        <time>2015-05-05T19:39:26Z</time>
      </trkpt>
      <trkpt lat="59.323085" lon="17.75801">
        <ele>36.3</ele>
        <time>2015-05-05T19:39:27Z</time>
      </trkpt>
      <trkpt lat="59.323072" lon="17.758158">
        <ele>36.7</ele>
        <time>2015-05-05T19:39:28Z</time>
      </trkpt>
      <trkpt lat="59.32307" lon="17.758293">
        <ele>37</ele>
        <time>2015-05-05T19:39:29Z</time>
      </trkpt>
      <trkpt lat="59.323088" lon="17.758433">
        <ele>36.7</ele>
        <time>2015-05-05T19:39:30Z</time>
      </trkpt>
      <trkpt lat="59.323085" lon="17.758564">
        <ele>36.9</ele>
        <time>2015-05-05T19:39:31Z</time>
      </trkpt>
      <trkpt lat="59.323084" lon="17.758705">
        <ele>37.1</ele>
        <time>2015-05-05T19:39:32Z</time>
      </trkpt>
      <trkpt lat="59.323071" lon="17.758828">
        <ele>37.4</ele>
        <time>2015-05-05T19:39:33Z</time>
      </trkpt>
      <trkpt lat="59.32306" lon="17.75896">
        <ele>37.5</ele>
        <time>2015-05-05T19:39:34Z</time>
      </trkpt>
      <trkpt lat="59.323044" lon="17.759097">
        <ele>37.7</ele>
        <time>2015-05-05T19:39:35Z</time>
      </trkpt>
      <trkpt lat="59.323028" lon="17.759208">
        <ele>38</ele>
        <time>2015-05-05T19:39:36Z</time>
      </trkpt>
      <trkpt lat="59.323005" lon="17.759313">
        <ele>38.4</ele>
        <time>2015-05-05T19:39:37Z</time>
      </trkpt>
      <trkpt lat="59.32298" lon="17.75943">
        <ele>38.8</ele>
        <time>2015-05-05T19:39:38Z</time>
      </trkpt>
      <trkpt lat="59.322969" lon="17.759515">
        <ele>38.9</ele>
        <time>2015-05-05T19:39:39Z</time>
      </trkpt>
      <trkpt lat="59.32295" lon="17.759618">
        <ele>39.2</ele>
        <time>2015-05-05T19:39:40Z</time>
      </trkpt>
      <trkpt lat="59.322935" lon="17.759713">
        <ele>39.5</ele>
        <time>2015-05-05T19:39:41Z</time>
      </trkpt>
      <trkpt lat="59.322918" lon="17.759813">
        <ele>39.7</ele>
        <time>2015-05-05T19:39:42Z</time>
      </trkpt>
      <trkpt lat="59.322885" lon="17.759907">
        <ele>39.8</ele>
        <time>2015-05-05T19:39:43Z</time>
      </trkpt>
      <trkpt lat="59.32289" lon="17.760005">
        <ele>39.7</ele>
        <time>2015-05-05T19:39:44Z</time>
      </trkpt>
      <trkpt lat="59.322878" lon="17.760104">
        <ele>39.7</ele>
        <time>2015-05-05T19:39:45Z</time>
      </trkpt>
      <trkpt lat="59.322859" lon="17.760184">
        <ele>39.7</ele>
        <time>2015-05-05T19:39:46Z</time>
      </trkpt>
      <trkpt lat="59.322837" lon="17.760268">
        <ele>39.8</ele>
        <time>2015-05-05T19:39:47Z</time>
      </trkpt>
      <trkpt lat="59.322815" lon="17.760386">
        <ele>39.8</ele>
        <time>2015-05-05T19:39:48Z</time>
      </trkpt>
      <trkpt lat="59.322796" lon="17.760464">
        <ele>39.7</ele>
        <time>2015-05-05T19:39:49Z</time>
      </trkpt>
      <trkpt lat="59.322769" lon="17.760557">
        <ele>39.5</ele>
        <time>2015-05-05T19:39:50Z</time>
      </trkpt>
      <trkpt lat="59.322741" lon="17.760677">
        <ele>39.3</ele>
        <time>2015-05-05T19:39:51Z</time>
      </trkpt>
      <trkpt lat="59.322713" lon="17.760761">
        <ele>39.1</ele>
        <time>2015-05-05T19:39:52Z</time>
      </trkpt>
      <trkpt lat="59.322673" lon="17.760827">
        <ele>39.1</ele>
        <time>2015-05-05T19:39:53Z</time>
      </trkpt>
      <trkpt lat="59.322647" lon="17.760887">
        <ele>39.1</ele>
        <time>2015-05-05T19:39:54Z</time>
      </trkpt>
      <trkpt lat="59.322616" lon="17.760951">
        <ele>39</ele>
        <time>2015-05-05T19:39:55Z</time>
      </trkpt>
      <trkpt lat="59.322593" lon="17.760998">
        <ele>39</ele>
        <time>2015-05-05T19:39:56Z</time>
      </trkpt>
      <trkpt lat="59.322559" lon="17.761066">
        <ele>38.9</ele>
        <time>2015-05-05T19:39:57Z</time>
      </trkpt>
      <trkpt lat="59.322525" lon="17.76115">
        <ele>38.8</ele>
        <time>2015-05-05T19:39:58Z</time>
      </trkpt>
      <trkpt lat="59.322508" lon="17.761242">
        <ele>38.5</ele>
        <time>2015-05-05T19:39:59Z</time>
      </trkpt>
      <trkpt lat="59.322471" lon="17.761297">
        <ele>38.4</ele>
        <time>2015-05-05T19:40:00Z</time>
      </trkpt>
      <trkpt lat="59.322443" lon="17.761374">
        <ele>38.2</ele>
        <time>2015-05-05T19:40:01Z</time>
      </trkpt>
      <trkpt lat="59.322386" lon="17.761476">
        <ele>38.1</ele>
        <time>2015-05-05T19:40:02Z</time>
      </trkpt>
      <trkpt lat="59.32235" lon="17.761555">
        <ele>37.9</ele>
        <time>2015-05-05T19:40:03Z</time>
      </trkpt>
      <trkpt lat="59.322313" lon="17.761629">
        <ele>37.8</ele>
        <time>2015-05-05T19:40:04Z</time>
      </trkpt>
      <trkpt lat="59.322277" lon="17.761707">
        <ele>37.6</ele>
        <time>2015-05-05T19:40:05Z</time>
      </trkpt>
      <trkpt lat="59.322246" lon="17.761791">
        <ele>37.4</ele>
        <time>2015-05-05T19:40:06Z</time>
      </trkpt>
      <trkpt lat="59.322208" lon="17.761878">
        <ele>37.2</ele>
        <time>2015-05-05T19:40:07Z</time>
      </trkpt>
      <trkpt lat="59.322173" lon="17.761957">
        <ele>37.1</ele>
        <time>2015-05-05T19:40:08Z</time>
      </trkpt>
      <trkpt lat="59.322122" lon="17.762044">
        <ele>37</ele>
        <time>2015-05-05T19:40:09Z</time>
      </trkpt>
      <trkpt lat="59.32209" lon="17.762132">
        <ele>36.7</ele>
        <time>2015-05-05T19:40:10Z</time>
      </trkpt>
      <trkpt lat="59.322047" lon="17.762219">
        <ele>36.2</ele>
        <time>2015-05-05T19:40:11Z</time>
      </trkpt>
      <trkpt lat="59.321997" lon="17.762315">
        <ele>35.6</ele>
        <time>2015-05-05T19:40:12Z</time>
      </trkpt>
      <trkpt lat="59.321949" lon="17.762392">
        <ele>35.1</ele>
        <time>2015-05-05T19:40:13Z</time>
      </trkpt>
      <trkpt lat="59.321915" lon="17.762481">
        <ele>34.6</ele>
        <time>2015-05-05T19:40:14Z</time>
      </trkpt>
      <trkpt lat="59.321865" lon="17.762577">
        <ele>34</ele>
        <time>2015-05-05T19:40:15Z</time>
      </trkpt>
      <trkpt lat="59.321807" lon="17.762656">
        <ele>33.5</ele>
        <time>2015-05-05T19:40:16Z</time>
      </trkpt>
      <trkpt lat="59.321764" lon="17.762739">
        <ele>33</ele>
        <time>2015-05-05T19:40:17Z</time>
      </trkpt>
      <trkpt lat="59.321711" lon="17.76284">
        <ele>32.4</ele>
        <time>2015-05-05T19:40:18Z</time>
      </trkpt>
      <trkpt lat="59.321665" lon="17.762949">
        <ele>31.8</ele>
        <time>2015-05-05T19:40:19Z</time>
      </trkpt>
      <trkpt lat="59.321618" lon="17.763066">
        <ele>31.1</ele>
        <time>2015-05-05T19:40:20Z</time>
      </trkpt>
      <trkpt lat="59.321557" lon="17.763181">
        <ele>30.4</ele>
        <time>2015-05-05T19:40:21Z</time>
      </trkpt>
      <trkpt lat="59.321506" lon="17.763281">
        <ele>29.7</ele>
        <time>2015-05-05T19:40:22Z</time>
      </trkpt>
      <trkpt lat="59.321448" lon="17.763397">
        <ele>29</ele>
        <time>2015-05-05T19:40:23Z</time>
      </trkpt>
      <trkpt lat="59.321388" lon="17.763503">
        <ele>28.4</ele>
        <time>2015-05-05T19:40:24Z</time>
      </trkpt>
      <trkpt lat="59.321333" lon="17.763615">
        <ele>27.8</ele>
        <time>2015-05-05T19:40:25Z</time>
      </trkpt>
      <trkpt lat="59.321259" lon="17.763712">
        <ele>27.2</ele>
        <time>2015-05-05T19:40:26Z</time>
      </trkpt>
      <trkpt lat="59.321185" lon="17.763812">
        <ele>26.9</ele>
        <time>2015-05-05T19:40:27Z</time>
      </trkpt>
      <trkpt lat="59.321115" lon="17.763922">
        <ele>26.8</ele>
        <time>2015-05-05T19:40:28Z</time>
      </trkpt>
      <trkpt lat="59.321046" lon="17.764048">
        <ele>26.6</ele>
        <time>2015-05-05T19:40:29Z</time>
      </trkpt>
      <trkpt lat="59.320985" lon="17.764179">
        <ele>26.3</ele>
        <time>2015-05-05T19:40:30Z</time>
      </trkpt>
      <trkpt lat="59.320916" lon="17.764311">
        <ele>26.1</ele>
        <time>2015-05-05T19:40:31Z</time>
      </trkpt>
      <trkpt lat="59.320842" lon="17.764442">
        <ele>25.8</ele>
        <time>2015-05-05T19:40:32Z</time>
      </trkpt>
      <trkpt lat="59.320771" lon="17.764558">
        <ele>25.5</ele>
        <time>2015-05-05T19:40:33Z</time>
      </trkpt>
      <trkpt lat="59.320705" lon="17.764695">
        <ele>25</ele>
        <time>2015-05-05T19:40:34Z</time>
      </trkpt>
      <trkpt lat="59.320646" lon="17.764821">
        <ele>24.6</ele>
        <time>2015-05-05T19:40:35Z</time>
      </trkpt>
      <trkpt lat="59.320587" lon="17.764942">
        <ele>24.1</ele>
        <time>2015-05-05T19:40:36Z</time>
      </trkpt>
      <trkpt lat="59.320535" lon="17.76506">
        <ele>23.6</ele>
        <time>2015-05-05T19:40:37Z</time>
      </trkpt>
      <trkpt lat="59.320472" lon="17.765186">
        <ele>23</ele>
        <time>2015-05-05T19:40:38Z</time>
      </trkpt>
      <trkpt lat="59.320413" lon="17.765307">
        <ele>22.4</ele>
        <time>2015-05-05T19:40:39Z</time>
      </trkpt>
      <trkpt lat="59.320345" lon="17.765412">
        <ele>22.4</ele>
        <time>2015-05-05T19:40:40Z</time>
      </trkpt>
      <trkpt lat="59.32028" lon="17.765532">
        <ele>22.6</ele>
        <time>2015-05-05T19:40:41Z</time>
      </trkpt>
      <trkpt lat="59.32022" lon="17.76566">
        <ele>22.7</ele>
        <time>2015-05-05T19:40:42Z</time>
      </trkpt>
      <trkpt lat="59.320162" lon="17.765784">
        <ele>22.7</ele>
        <time>2015-05-05T19:40:43Z</time>
      </trkpt>
      <trkpt lat="59.320093" lon="17.765912">
        <ele>22.7</ele>
        <time>2015-05-05T19:40:44Z</time>
      </trkpt>
      <trkpt lat="59.320032" lon="17.766047">
        <ele>22.5</ele>
        <time>2015-05-05T19:40:45Z</time>
      </trkpt>
      <trkpt lat="59.31997" lon="17.766175">
        <ele>22.3</ele>
        <time>2015-05-05T19:40:46Z</time>
      </trkpt>
      <trkpt lat="59.319912" lon="17.766296">
        <ele>22</ele>
        <time>2015-05-05T19:40:47Z</time>
      </trkpt>
      <trkpt lat="59.319851" lon="17.766431">
        <ele>21.6</ele>
        <time>2015-05-05T19:40:48Z</time>
      </trkpt>
      <trkpt lat="59.319788" lon="17.766552">
        <ele>21.2</ele>
        <time>2015-05-05T19:40:49Z</time>
      </trkpt>
      <trkpt lat="59.319723" lon="17.766686">
        <ele>20.7</ele>
        <time>2015-05-05T19:40:50Z</time>
      </trkpt>
      <trkpt lat="59.319659" lon="17.766802">
        <ele>20.3</ele>
        <time>2015-05-05T19:40:51Z</time>
      </trkpt>
      <trkpt lat="59.319599" lon="17.766926">
        <ele>19.7</ele>
        <time>2015-05-05T19:40:52Z</time>
      </trkpt>
      <trkpt lat="59.319534" lon="17.767035">
        <ele>19.7</ele>
        <time>2015-05-05T19:40:53Z</time>
      </trkpt>
      <trkpt lat="59.31947" lon="17.767142">
        <ele>20</ele>
        <time>2015-05-05T19:40:54Z</time>
      </trkpt>
      <trkpt lat="59.319394" lon="17.767252">
        <ele>20.4</ele>
        <time>2015-05-05T19:40:55Z</time>
      </trkpt>
      <trkpt lat="59.319328" lon="17.767364">
        <ele>20.7</ele>
        <time>2015-05-05T19:40:56Z</time>
      </trkpt>
      <trkpt lat="59.31927" lon="17.767473">
        <ele>20.8</ele>
        <time>2015-05-05T19:40:57Z</time>
      </trkpt>
      <trkpt lat="59.319201" lon="17.767607">
        <ele>20.9</ele>
        <time>2015-05-05T19:40:58Z</time>
      </trkpt>
      <trkpt lat="59.319144" lon="17.76773">
        <ele>20.8</ele>
        <time>2015-05-05T19:40:59Z</time>
      </trkpt>
      <trkpt lat="59.319084" lon="17.767847">
        <ele>20.7</ele>
        <time>2015-05-05T19:41:00Z</time>
      </trkpt>
      <trkpt lat="59.319019" lon="17.767961">
        <ele>20.5</ele>
        <time>2015-05-05T19:41:01Z</time>
      </trkpt>
      <trkpt lat="59.318947" lon="17.768095">
        <ele>20.1</ele>
        <time>2015-05-05T19:41:02Z</time>
      </trkpt>
      <trkpt lat="59.318889" lon="17.768201">
        <ele>19.8</ele>
        <time>2015-05-05T19:41:03Z</time>
      </trkpt>
      <trkpt lat="59.318821" lon="17.768325">
        <ele>19.3</ele>
        <time>2015-05-05T19:41:04Z</time>
      </trkpt>
      <trkpt lat="59.318754" lon="17.768446">
        <ele>18.8</ele>
        <time>2015-05-05T19:41:05Z</time>
      </trkpt>
      <trkpt lat="59.318674" lon="17.768569">
        <ele>18.5</ele>
        <time>2015-05-05T19:41:06Z</time>
      </trkpt>
      <trkpt lat="59.318601" lon="17.768678">
        <ele>18.2</ele>
        <time>2015-05-05T19:41:07Z</time>
      </trkpt>
      <trkpt lat="59.31853" lon="17.768768">
        <ele>18.1</ele>
        <time>2015-05-05T19:41:08Z</time>
      </trkpt>
      <trkpt lat="59.318449" lon="17.768881">
        <ele>18.4</ele>
        <time>2015-05-05T19:41:09Z</time>
      </trkpt>
      <trkpt lat="59.31837" lon="17.768968">
        <ele>18.7</ele>
        <time>2015-05-05T19:41:10Z</time>
      </trkpt>
      <trkpt lat="59.318294" lon="17.769041">
        <ele>19</ele>
        <time>2015-05-05T19:41:11Z</time>
      </trkpt>
      <trkpt lat="59.318222" lon="17.769123">
        <ele>19.3</ele>
        <time>2015-05-05T19:41:12Z</time>
      </trkpt>
      <trkpt lat="59.318141" lon="17.769207">
        <ele>19.5</ele>
        <time>2015-05-05T19:41:13Z</time>
      </trkpt>
      <trkpt lat="59.318061" lon="17.769277">
        <ele>19.8</ele>
        <time>2015-05-05T19:41:14Z</time>
      </trkpt>
      <trkpt lat="59.31798" lon="17.769345">
        <ele>20</ele>
        <time>2015-05-05T19:41:15Z</time>
      </trkpt>
      <trkpt lat="59.317892" lon="17.769417">
        <ele>20.2</ele>
        <time>2015-05-05T19:41:16Z</time>
      </trkpt>
      <trkpt lat="59.317814" lon="17.769491">
        <ele>20.1</ele>
        <time>2015-05-05T19:41:17Z</time>
      </trkpt>
      <trkpt lat="59.317733" lon="17.769551">
        <ele>20</ele>
        <time>2015-05-05T19:41:18Z</time>
      </trkpt>
      <trkpt lat="59.317648" lon="17.769614">
        <ele>20</ele>
        <time>2015-05-05T19:41:19Z</time>
      </trkpt>
      <trkpt lat="59.317571" lon="17.769679">
        <ele>19.9</ele>
        <time>2015-05-05T19:41:20Z</time>
      </trkpt>
      <trkpt lat="59.3175" lon="17.769746">
        <ele>19.8</ele>
        <time>2015-05-05T19:41:21Z</time>
      </trkpt>
      <trkpt lat="59.317409" lon="17.769816">
        <ele>19.7</ele>
        <time>2015-05-05T19:41:22Z</time>
      </trkpt>
      <trkpt lat="59.317332" lon="17.769885">
        <ele>19.6</ele>
        <time>2015-05-05T19:41:23Z</time>
      </trkpt>
      <trkpt lat="59.317254" lon="17.769925">
        <ele>19.6</ele>
        <time>2015-05-05T19:41:24Z</time>
      </trkpt>
      <trkpt lat="59.317182" lon="17.769992">
        <ele>19.5</ele>
        <time>2015-05-05T19:41:25Z</time>
      </trkpt>
      <trkpt lat="59.317098" lon="17.770055">
        <ele>19.4</ele>
        <time>2015-05-05T19:41:26Z</time>
      </trkpt>
      <trkpt lat="59.317025" lon="17.770116">
        <ele>19.2</ele>
        <time>2015-05-05T19:41:27Z</time>
      </trkpt>
      <trkpt lat="59.316956" lon="17.770179">
        <ele>18.8</ele>
        <time>2015-05-05T19:41:28Z</time>
      </trkpt>
      <trkpt lat="59.316889" lon="17.770238">
        <ele>18.5</ele>
        <time>2015-05-05T19:41:29Z</time>
      </trkpt>
      <trkpt lat="59.316816" lon="17.770295">
        <ele>18.2</ele>
        <time>2015-05-05T19:41:30Z</time>
      </trkpt>
      <trkpt lat="59.316739" lon="17.770359">
        <ele>17.8</ele>
        <time>2015-05-05T19:41:31Z</time>
      </trkpt>
      <trkpt lat="59.316667" lon="17.770413">
        <ele>17.5</ele>
        <time>2015-05-05T19:41:32Z</time>
      </trkpt>
      <trkpt lat="59.316592" lon="17.770473">
        <ele>17.3</ele>
        <time>2015-05-05T19:41:33Z</time>
      </trkpt>
      <trkpt lat="59.316512" lon="17.770536">
        <ele>17</ele>
        <time>2015-05-05T19:41:34Z</time>
      </trkpt>
      <trkpt lat="59.316432" lon="17.77059">
        <ele>16.7</ele>
        <time>2015-05-05T19:41:35Z</time>
      </trkpt>
      <trkpt lat="59.316359" lon="17.770644">
        <ele>16.4</ele>
        <time>2015-05-05T19:41:36Z</time>
      </trkpt>
      <trkpt lat="59.316276" lon="17.770694">
        <ele>16.1</ele>
        <time>2015-05-05T19:41:37Z</time>
      </trkpt>
      <trkpt lat="59.316201" lon="17.770745">
        <ele>15.9</ele>
        <time>2015-05-05T19:41:38Z</time>
      </trkpt>
      <trkpt lat="59.316121" lon="17.770785">
        <ele>15.7</ele>
        <time>2015-05-05T19:41:39Z</time>
      </trkpt>
      <trkpt lat="59.316032" lon="17.770841">
        <ele>15.5</ele>
        <time>2015-05-05T19:41:40Z</time>
      </trkpt>
      <trkpt lat="59.315957" lon="17.770899">
        <ele>15.3</ele>
        <time>2015-05-05T19:41:41Z</time>
      </trkpt>
      <trkpt lat="59.315869" lon="17.770957">
        <ele>15.1</ele>
        <time>2015-05-05T19:41:42Z</time>
      </trkpt>
      <trkpt lat="59.315775" lon="17.771016">
        <ele>14.9</ele>
        <time>2015-05-05T19:41:43Z</time>
      </trkpt>
      <trkpt lat="59.315692" lon="17.771066">
        <ele>14.7</ele>
        <time>2015-05-05T19:41:44Z</time>
      </trkpt>
      <trkpt lat="59.315607" lon="17.771113">
        <ele>14.5</ele>
        <time>2015-05-05T19:41:45Z</time>
      </trkpt>
      <trkpt lat="59.315506" lon="17.771146">
        <ele>14.2</ele>
        <time>2015-05-05T19:41:46Z</time>
      </trkpt>
      <trkpt lat="59.315407" lon="17.771169">
        <ele>14</ele>
        <time>2015-05-05T19:41:47Z</time>
      </trkpt>
      <trkpt lat="59.315316" lon="17.771211">
        <ele>13.6</ele>
        <time>2015-05-05T19:41:48Z</time>
      </trkpt>
      <trkpt lat="59.315226" lon="17.771259">
        <ele>13.3</ele>
        <time>2015-05-05T19:41:49Z</time>
      </trkpt>
      <trkpt lat="59.31514" lon="17.77131">
        <ele>13</ele>
        <time>2015-05-05T19:41:50Z</time>
      </trkpt>
      <trkpt lat="59.315049" lon="17.771375">
        <ele>12.7</ele>
        <time>2015-05-05T19:41:51Z</time>
      </trkpt>
      <trkpt lat="59.314963" lon="17.771452">
        <ele>12.4</ele>
        <time>2015-05-05T19:41:52Z</time>
      </trkpt>
      <trkpt lat="59.314878" lon="17.771517">
        <ele>12.2</ele>
        <time>2015-05-05T19:41:53Z</time>
      </trkpt>
      <trkpt lat="59.314791" lon="17.771573">
        <ele>11.9</ele>
        <time>2015-05-05T19:41:54Z</time>
      </trkpt>
      <trkpt lat="59.314706" lon="17.771638">
        <ele>11.8</ele>
        <time>2015-05-05T19:41:55Z</time>
      </trkpt>
      <trkpt lat="59.314618" lon="17.771719">
        <ele>11.6</ele>
        <time>2015-05-05T19:41:56Z</time>
      </trkpt>
      <trkpt lat="59.314534" lon="17.771786">
        <ele>11.5</ele>
        <time>2015-05-05T19:41:57Z</time>
      </trkpt>
      <trkpt lat="59.314441" lon="17.771855">
        <ele>11.2</ele>
        <time>2015-05-05T19:41:58Z</time>
      </trkpt>
      <trkpt lat="59.314348" lon="17.771918">
        <ele>11</ele>
        <time>2015-05-05T19:41:59Z</time>
      </trkpt>
      <trkpt lat="59.314254" lon="17.771979">
        <ele>10.7</ele>
        <time>2015-05-05T19:42:00Z</time>
      </trkpt>
      <trkpt lat="59.314166" lon="17.772023">
        <ele>10.4</ele>
        <time>2015-05-05T19:42:01Z</time>
      </trkpt>
      <trkpt lat="59.314077" lon="17.772092">
        <ele>10.2</ele>
        <time>2015-05-05T19:42:02Z</time>
      </trkpt>
      <trkpt lat="59.313987" lon="17.772141">
        <ele>9.9</ele>
        <time>2015-05-05T19:42:03Z</time>
      </trkpt>
      <trkpt lat="59.313898" lon="17.77218">
        <ele>9.5</ele>
        <time>2015-05-05T19:42:04Z</time>
      </trkpt>
      <trkpt lat="59.313807" lon="17.772235">
        <ele>9.2</ele>
        <time>2015-05-05T19:42:05Z</time>
      </trkpt>
      <trkpt lat="59.313709" lon="17.772308">
        <ele>9</ele>
        <time>2015-05-05T19:42:06Z</time>
      </trkpt>
      <trkpt lat="59.31362" lon="17.772374">
        <ele>8.8</ele>
        <time>2015-05-05T19:42:07Z</time>
      </trkpt>
      <trkpt lat="59.313532" lon="17.772442">
        <ele>8.7</ele>
        <time>2015-05-05T19:42:08Z</time>
      </trkpt>
      <trkpt lat="59.313438" lon="17.772503">
        <ele>8.6</ele>
        <time>2015-05-05T19:42:09Z</time>
      </trkpt>
      <trkpt lat="59.31335" lon="17.772576">
        <ele>8.5</ele>
        <time>2015-05-05T19:42:10Z</time>
      </trkpt>
      <trkpt lat="59.313262" lon="17.772648">
        <ele>8.4</ele>
        <time>2015-05-05T19:42:11Z</time>
      </trkpt>
      <trkpt lat="59.313175" lon="17.772705">
        <ele>8.3</ele>
        <time>2015-05-05T19:42:12Z</time>
      </trkpt>
      <trkpt lat="59.313087" lon="17.772759">
        <ele>8.2</ele>
        <time>2015-05-05T19:42:13Z</time>
      </trkpt>
      <trkpt lat="59.312999" lon="17.77282">
        <ele>8.1</ele>
        <time>2015-05-05T19:42:14Z</time>
      </trkpt>
      <trkpt lat="59.312913" lon="17.772874">
        <ele>8</ele>
        <time>2015-05-05T19:42:15Z</time>
      </trkpt>
      <trkpt lat="59.312817" lon="17.772928">
        <ele>8</ele>
        <time>2015-05-05T19:42:16Z</time>
      </trkpt>
      <trkpt lat="59.312727" lon="17.772969">
        <ele>8</ele>
        <time>2015-05-05T19:42:17Z</time>
      </trkpt>
      <trkpt lat="59.312638" lon="17.773011">
        <ele>8.1</ele>
        <time>2015-05-05T19:42:18Z</time>
      </trkpt>
      <trkpt lat="59.312547" lon="17.773058">
        <ele>8.1</ele>
        <time>2015-05-05T19:42:19Z</time>
      </trkpt>
      <trkpt lat="59.312448" lon="17.773121">
        <ele>8.1</ele>
        <time>2015-05-05T19:42:20Z</time>
      </trkpt>
      <trkpt lat="59.312355" lon="17.773174">
        <ele>8.1</ele>
        <time>2015-05-05T19:42:21Z</time>
      </trkpt>
      <trkpt lat="59.312263" lon="17.77321">
        <ele>8.1</ele>
        <time>2015-05-05T19:42:22Z</time>
      </trkpt>
      <trkpt lat="59.312167" lon="17.773287">
        <ele>8</ele>
        <time>2015-05-05T19:42:23Z</time>
      </trkpt>
      <trkpt lat="59.312065" lon="17.77337">
        <ele>8</ele>
        <time>2015-05-05T19:42:24Z</time>
      </trkpt>
      <trkpt lat="59.311975" lon="17.773439">
        <ele>7.9</ele>
        <time>2015-05-05T19:42:25Z</time>
      </trkpt>
      <trkpt lat="59.311893" lon="17.773491">
        <ele>7.8</ele>
        <time>2015-05-05T19:42:26Z</time>
      </trkpt>
      <trkpt lat="59.311806" lon="17.773524">
        <ele>7.7</ele>
        <time>2015-05-05T19:42:27Z</time>
      </trkpt>
      <trkpt lat="59.311714" lon="17.773578">
        <ele>7.6</ele>
        <time>2015-05-05T19:42:28Z</time>
      </trkpt>
      <trkpt lat="59.311628" lon="17.77363">
        <ele>7.5</ele>
        <time>2015-05-05T19:42:29Z</time>
      </trkpt>
      <trkpt lat="59.311545" lon="17.773689">
        <ele>7.4</ele>
        <time>2015-05-05T19:42:30Z</time>
      </trkpt>
      <trkpt lat="59.311456" lon="17.77375">
        <ele>7.2</ele>
        <time>2015-05-05T19:42:31Z</time>
      </trkpt>
      <trkpt lat="59.311363" lon="17.7738">
        <ele>7.1</ele>
        <time>2015-05-05T19:42:32Z</time>
      </trkpt>
      <trkpt lat="59.311277" lon="17.773871">
        <ele>7</ele>
        <time>2015-05-05T19:42:33Z</time>
      </trkpt>
      <trkpt lat="59.311178" lon="17.773938">
        <ele>6.9</ele>
        <time>2015-05-05T19:42:34Z</time>
      </trkpt>
      <trkpt lat="59.311078" lon="17.774016">
        <ele>6.9</ele>
        <time>2015-05-05T19:42:35Z</time>
      </trkpt>
      <trkpt lat="59.310983" lon="17.774065">
        <ele>6.8</ele>
        <time>2015-05-05T19:42:36Z</time>
      </trkpt>
      <trkpt lat="59.310897" lon="17.774127">
        <ele>6.8</ele>
        <time>2015-05-05T19:42:37Z</time>
      </trkpt>
      <trkpt lat="59.310806" lon="17.774193">
        <ele>6.8</ele>
        <time>2015-05-05T19:42:38Z</time>
      </trkpt>
      <trkpt lat="59.310725" lon="17.774244">
        <ele>6.7</ele>
        <time>2015-05-05T19:42:39Z</time>
      </trkpt>
      <trkpt lat="59.31065" lon="17.774306">
        <ele>6.8</ele>
        <time>2015-05-05T19:42:40Z</time>
      </trkpt>
      <trkpt lat="59.310582" lon="17.774357">
        <ele>6.8</ele>
        <time>2015-05-05T19:42:41Z</time>
      </trkpt>
      <trkpt lat="59.310508" lon="17.774389">
        <ele>6.8</ele>
        <time>2015-05-05T19:42:42Z</time>
      </trkpt>
      <trkpt lat="59.310435" lon="17.774433">
        <ele>6.8</ele>
        <time>2015-05-05T19:42:43Z</time>
      </trkpt>
      <trkpt lat="59.310355" lon="17.774488">
        <ele>7</ele>
        <time>2015-05-05T19:42:44Z</time>
      </trkpt>
      <trkpt lat="59.310279" lon="17.774525">
        <ele>7.1</ele>
        <time>2015-05-05T19:42:45Z</time>
      </trkpt>
      <trkpt lat="59.310195" lon="17.774583">
        <ele>7.3</ele>
        <time>2015-05-05T19:42:46Z</time>
      </trkpt>
      <trkpt lat="59.310115" lon="17.774636">
        <ele>7.4</ele>
        <time>2015-05-05T19:42:47Z</time>
      </trkpt>
      <trkpt lat="59.310034" lon="17.774694">
        <ele>7.5</ele>
        <time>2015-05-05T19:42:48Z</time>
      </trkpt>
      <trkpt lat="59.309956" lon="17.774766">
        <ele>7.7</ele>
        <time>2015-05-05T19:42:49Z</time>
      </trkpt>
      <trkpt lat="59.309878" lon="17.774812">
        <ele>7.7</ele>
        <time>2015-05-05T19:42:50Z</time>
      </trkpt>
      <trkpt lat="59.309801" lon="17.774872">
        <ele>7.8</ele>
        <time>2015-05-05T19:42:51Z</time>
      </trkpt>
      <trkpt lat="59.309728" lon="17.774927">
        <ele>7.9</ele>
        <time>2015-05-05T19:42:52Z</time>
      </trkpt>
      <trkpt lat="59.309649" lon="17.774985">
        <ele>8</ele>
        <time>2015-05-05T19:42:53Z</time>
      </trkpt>
      <trkpt lat="59.309569" lon="17.775043">
        <ele>8.1</ele>
        <time>2015-05-05T19:42:54Z</time>
      </trkpt>
      <trkpt lat="59.30949" lon="17.775116">
        <ele>8.3</ele>
        <time>2015-05-05T19:42:55Z</time>
      </trkpt>
      <trkpt lat="59.309413" lon="17.775168">
        <ele>8.5</ele>
        <time>2015-05-05T19:42:56Z</time>
      </trkpt>
      <trkpt lat="59.309348" lon="17.775216">
        <ele>8.6</ele>
        <time>2015-05-05T19:42:57Z</time>
      </trkpt>
      <trkpt lat="59.309262" lon="17.775293">
        <ele>8.7</ele>
        <time>2015-05-05T19:42:58Z</time>
      </trkpt>
      <trkpt lat="59.309178" lon="17.775374">
        <ele>8.6</ele>
        <time>2015-05-05T19:42:59Z</time>
      </trkpt>
      <trkpt lat="59.309118" lon="17.775464">
        <ele>8.5</ele>
        <time>2015-05-05T19:43:00Z</time>
      </trkpt>
      <trkpt lat="59.309036" lon="17.775537">
        <ele>8.6</ele>
        <time>2015-05-05T19:43:01Z</time>
      </trkpt>
      <trkpt lat="59.308963" lon="17.775606">
        <ele>8.6</ele>
        <time>2015-05-05T19:43:02Z</time>
      </trkpt>
      <trkpt lat="59.308868" lon="17.77569">
        <ele>8.6</ele>
        <time>2015-05-05T19:43:03Z</time>
      </trkpt>
      <trkpt lat="59.308793" lon="17.77576">
        <ele>8.6</ele>
        <time>2015-05-05T19:43:04Z</time>
      </trkpt>
      <trkpt lat="59.308727" lon="17.77583">
        <ele>8.7</ele>
        <time>2015-05-05T19:43:05Z</time>
      </trkpt>
      <trkpt lat="59.30865" lon="17.775897">
        <ele>9.1</ele>
        <time>2015-05-05T19:43:06Z</time>
      </trkpt>
      <trkpt lat="59.308575" lon="17.77597">
        <ele>9.5</ele>
        <time>2015-05-05T19:43:07Z</time>
      </trkpt>
      <trkpt lat="59.308499" lon="17.776033">
        <ele>9.8</ele>
        <time>2015-05-05T19:43:08Z</time>
      </trkpt>
      <trkpt lat="59.308413" lon="17.776114">
        <ele>10.3</ele>
        <time>2015-05-05T19:43:09Z</time>
      </trkpt>
      <trkpt lat="59.30834" lon="17.776182">
        <ele>10.6</ele>
        <time>2015-05-05T19:43:10Z</time>
      </trkpt>
      <trkpt lat="59.30827" lon="17.776258">
        <ele>10.9</ele>
        <time>2015-05-05T19:43:11Z</time>
      </trkpt>
      <trkpt lat="59.308189" lon="17.776334">
        <ele>11.1</ele>
        <time>2015-05-05T19:43:12Z</time>
      </trkpt>
      <trkpt lat="59.308123" lon="17.776385">
        <ele>11.3</ele>
        <time>2015-05-05T19:43:13Z</time>
      </trkpt>
      <trkpt lat="59.308054" lon="17.776475">
        <ele>11.4</ele>
        <time>2015-05-05T19:43:14Z</time>
      </trkpt>
      <trkpt lat="59.307979" lon="17.776554">
        <ele>11.6</ele>
        <time>2015-05-05T19:43:15Z</time>
      </trkpt>
      <trkpt lat="59.307915" lon="17.776627">
        <ele>11.7</ele>
        <time>2015-05-05T19:43:16Z</time>
      </trkpt>
      <trkpt lat="59.307845" lon="17.776695">
        <ele>12.7</ele>
        <time>2015-05-05T19:43:17Z</time>
      </trkpt>
      <trkpt lat="59.30778" lon="17.776764">
        <ele>13.6</ele>
        <time>2015-05-05T19:43:18Z</time>
      </trkpt>
      <trkpt lat="59.307708" lon="17.776812">
        <ele>14.7</ele>
        <time>2015-05-05T19:43:19Z</time>
      </trkpt>
      <trkpt lat="59.307639" lon="17.776894">
        <ele>15.8</ele>
        <time>2015-05-05T19:43:20Z</time>
      </trkpt>
      <trkpt lat="59.30757" lon="17.77698">
        <ele>16.9</ele>
        <time>2015-05-05T19:43:21Z</time>
      </trkpt>
      <trkpt lat="59.3075" lon="17.777064">
        <ele>18</ele>
        <time>2015-05-05T19:43:22Z</time>
      </trkpt>
      <trkpt lat="59.30743" lon="17.777153">
        <ele>19</ele>
        <time>2015-05-05T19:43:23Z</time>
      </trkpt>
      <trkpt lat="59.307359" lon="17.777225">
        <ele>19.9</ele>
        <time>2015-05-05T19:43:24Z</time>
      </trkpt>
      <trkpt lat="59.307291" lon="17.777289">
        <ele>20.8</ele>
        <time>2015-05-05T19:43:25Z</time>
      </trkpt>
      <trkpt lat="59.307225" lon="17.777353">
        <ele>21.6</ele>
        <time>2015-05-05T19:43:26Z</time>
      </trkpt>
      <trkpt lat="59.307154" lon="17.777438">
        <ele>22.2</ele>
        <time>2015-05-05T19:43:27Z</time>
      </trkpt>
      <trkpt lat="59.307085" lon="17.77753">
        <ele>22.8</ele>
        <time>2015-05-05T19:43:28Z</time>
      </trkpt>
      <trkpt lat="59.307016" lon="17.777615">
        <ele>22.7</ele>
        <time>2015-05-05T19:43:29Z</time>
      </trkpt>
      <trkpt lat="59.306959" lon="17.777722">
        <ele>22.3</ele>
        <time>2015-05-05T19:43:30Z</time>
      </trkpt>
      <trkpt lat="59.306878" lon="17.777855">
        <ele>21.9</ele>
        <time>2015-05-05T19:43:31Z</time>
      </trkpt>
      <trkpt lat="59.306807" lon="17.777926">
        <ele>21.9</ele>
        <time>2015-05-05T19:43:32Z</time>
      </trkpt>
      <trkpt lat="59.306736" lon="17.778005">
        <ele>21.8</ele>
        <time>2015-05-05T19:43:33Z</time>
      </trkpt>
      <trkpt lat="59.306668" lon="17.778071">
        <ele>21.7</ele>
        <time>2015-05-05T19:43:34Z</time>
      </trkpt>
      <trkpt lat="59.306604" lon="17.778154">
        <ele>21.5</ele>
        <time>2015-05-05T19:43:35Z</time>
      </trkpt>
      <trkpt lat="59.306534" lon="17.778219">
        <ele>21.4</ele>
        <time>2015-05-05T19:43:36Z</time>
      </trkpt>
      <trkpt lat="59.306463" lon="17.778264">
        <ele>21.5</ele>
        <time>2015-05-05T19:43:37Z</time>
      </trkpt>
      <trkpt lat="59.306375" lon="17.778324">
        <ele>21.7</ele>
        <time>2015-05-05T19:43:38Z</time>
      </trkpt>
      <trkpt lat="59.306304" lon="17.778392">
        <ele>21.6</ele>
        <time>2015-05-05T19:43:39Z</time>
      </trkpt>
      <trkpt lat="59.306238" lon="17.778451">
        <ele>21.4</ele>
        <time>2015-05-05T19:43:40Z</time>
      </trkpt>
      <trkpt lat="59.306162" lon="17.778524">
        <ele>20.3</ele>
        <time>2015-05-05T19:43:41Z</time>
      </trkpt>
      <trkpt lat="59.306074" lon="17.778581">
        <ele>19.2</ele>
        <time>2015-05-05T19:43:42Z</time>
      </trkpt>
      <trkpt lat="59.306" lon="17.778667">
        <ele>17.9</ele>
        <time>2015-05-05T19:43:43Z</time>
      </trkpt>
      <trkpt lat="59.305937" lon="17.778736">
        <ele>16.9</ele>
        <time>2015-05-05T19:43:44Z</time>
      </trkpt>
      <trkpt lat="59.305846" lon="17.778835">
        <ele>15.7</ele>
        <time>2015-05-05T19:43:45Z</time>
      </trkpt>
      <trkpt lat="59.305781" lon="17.778928">
        <ele>14.8</ele>
        <time>2015-05-05T19:43:46Z</time>
      </trkpt>
      <trkpt lat="59.305714" lon="17.779033">
        <ele>14</ele>
        <time>2015-05-05T19:43:47Z</time>
      </trkpt>
      <trkpt lat="59.305658" lon="17.779136">
        <ele>13.3</ele>
        <time>2015-05-05T19:43:48Z</time>
      </trkpt>
      <trkpt lat="59.305589" lon="17.779246">
        <ele>12.6</ele>
        <time>2015-05-05T19:43:49Z</time>
      </trkpt>
      <trkpt lat="59.305512" lon="17.779345">
        <ele>11.9</ele>
        <time>2015-05-05T19:43:50Z</time>
      </trkpt>
      <trkpt lat="59.305455" lon="17.779451">
        <ele>11.4</ele>
        <time>2015-05-05T19:43:51Z</time>
      </trkpt>
      <trkpt lat="59.305399" lon="17.779556">
        <ele>11</ele>
        <time>2015-05-05T19:43:52Z</time>
      </trkpt>
      <trkpt lat="59.305352" lon="17.779651">
        <ele>10.4</ele>
        <time>2015-05-05T19:43:53Z</time>
      </trkpt>
      <trkpt lat="59.305305" lon="17.779769">
        <ele>9.7</ele>
        <time>2015-05-05T19:43:54Z</time>
      </trkpt>
      <trkpt lat="59.305249" lon="17.779877">
        <ele>8.9</ele>
        <time>2015-05-05T19:43:55Z</time>
      </trkpt>
      <trkpt lat="59.305199" lon="17.779963">
        <ele>8.3</ele>
        <time>2015-05-05T19:43:56Z</time>
      </trkpt>
      <trkpt lat="59.30515" lon="17.780061">
        <ele>7.7</ele>
        <time>2015-05-05T19:43:57Z</time>
      </trkpt>
      <trkpt lat="59.30509" lon="17.780156">
        <ele>7</ele>
        <time>2015-05-05T19:43:58Z</time>
      </trkpt>
      <trkpt lat="59.305028" lon="17.780257">
        <ele>6.2</ele>
        <time>2015-05-05T19:43:59Z</time>
      </trkpt>
      <trkpt lat="59.304973" lon="17.780338">
        <ele>5.6</ele>
        <time>2015-05-05T19:44:00Z</time>
      </trkpt>
      <trkpt lat="59.304905" lon="17.780447">
        <ele>4.9</ele>
        <time>2015-05-05T19:44:01Z</time>
      </trkpt>
      <trkpt lat="59.304848" lon="17.780547">
        <ele>4.5</ele>
        <time>2015-05-05T19:44:02Z</time>
      </trkpt>
      <trkpt lat="59.304798" lon="17.78064">
        <ele>4.1</ele>
        <time>2015-05-05T19:44:03Z</time>
      </trkpt>
      <trkpt lat="59.304742" lon="17.780722">
        <ele>3.8</ele>
        <time>2015-05-05T19:44:04Z</time>
      </trkpt>
      <trkpt lat="59.304692" lon="17.780822">
        <ele>3.5</ele>
        <time>2015-05-05T19:44:05Z</time>
      </trkpt>
      <trkpt lat="59.304634" lon="17.780906">
        <ele>3.2</ele>
        <time>2015-05-05T19:44:06Z</time>
      </trkpt>
      <trkpt lat="59.304575" lon="17.781008">
        <ele>3</ele>
        <time>2015-05-05T19:44:07Z</time>
      </trkpt>
      <trkpt lat="59.304525" lon="17.781114">
        <ele>3</ele>
        <time>2015-05-05T19:44:08Z</time>
      </trkpt>
      <trkpt lat="59.304479" lon="17.781209">
        <ele>3</ele>
        <time>2015-05-05T19:44:09Z</time>
      </trkpt>
      <trkpt lat="59.304427" lon="17.781303">
        <ele>3</ele>
        <time>2015-05-05T19:44:10Z</time>
      </trkpt>
      <trkpt lat="59.304374" lon="17.781397">
        <ele>3</ele>
        <time>2015-05-05T19:44:11Z</time>
      </trkpt>
      <trkpt lat="59.304308" lon="17.781497">
        <ele>3</ele>
        <time>2015-05-05T19:44:12Z</time>
      </trkpt>
      <trkpt lat="59.304266" lon="17.781593">
        <ele>3</ele>
        <time>2015-05-05T19:44:13Z</time>
      </trkpt>
      <trkpt lat="59.30422" lon="17.781686">
        <ele>3</ele>
        <time>2015-05-05T19:44:14Z</time>
      </trkpt>
      <trkpt lat="59.30417" lon="17.781787">
        <ele>3</ele>
        <time>2015-05-05T19:44:15Z</time>
      </trkpt>
      <trkpt lat="59.30412" lon="17.781874">
        <ele>3</ele>
        <time>2015-05-05T19:44:16Z</time>
      </trkpt>
      <trkpt lat="59.304067" lon="17.781959">
        <ele>3</ele>
        <time>2015-05-05T19:44:17Z</time>
      </trkpt>
      <trkpt lat="59.304017" lon="17.782102">
        <ele>3</ele>
        <time>2015-05-05T19:44:18Z</time>
      </trkpt>
      <trkpt lat="59.303973" lon="17.782219">
        <ele>3</ele>
        <time>2015-05-05T19:44:19Z</time>
      </trkpt>
      <trkpt lat="59.303928" lon="17.782327">
        <ele>3</ele>
        <time>2015-05-05T19:44:20Z</time>
      </trkpt>
      <trkpt lat="59.303883" lon="17.782436">
        <ele>3</ele>
        <time>2015-05-05T19:44:21Z</time>
      </trkpt>
      <trkpt lat="59.303837" lon="17.782548">
        <ele>3</ele>
        <time>2015-05-05T19:44:22Z</time>
      </trkpt>
      <trkpt lat="59.303786" lon="17.782662">
        <ele>3</ele>
        <time>2015-05-05T19:44:23Z</time>
      </trkpt>
      <trkpt lat="59.303741" lon="17.782771">
        <ele>3</ele>
        <time>2015-05-05T19:44:24Z</time>
      </trkpt>
      <trkpt lat="59.303688" lon="17.782883">
        <ele>3.3</ele>
        <time>2015-05-05T19:44:25Z</time>
      </trkpt>
      <trkpt lat="59.303637" lon="17.782994">
        <ele>3.6</ele>
        <time>2015-05-05T19:44:26Z</time>
      </trkpt>
      <trkpt lat="59.303589" lon="17.783107">
        <ele>3.9</ele>
        <time>2015-05-05T19:44:27Z</time>
      </trkpt>
      <trkpt lat="59.303546" lon="17.783221">
        <ele>4.3</ele>
        <time>2015-05-05T19:44:28Z</time>
      </trkpt>
      <trkpt lat="59.303508" lon="17.783338">
        <ele>4.7</ele>
        <time>2015-05-05T19:44:29Z</time>
      </trkpt>
      <trkpt lat="59.303471" lon="17.783443">
        <ele>5.2</ele>
        <time>2015-05-05T19:44:30Z</time>
      </trkpt>
      <trkpt lat="59.303427" lon="17.783544">
        <ele>5.7</ele>
        <time>2015-05-05T19:44:31Z</time>
      </trkpt>
      <trkpt lat="59.303386" lon="17.783658">
        <ele>6.3</ele>
        <time>2015-05-05T19:44:32Z</time>
      </trkpt>
      <trkpt lat="59.303348" lon="17.783755">
        <ele>6.9</ele>
        <time>2015-05-05T19:44:33Z</time>
      </trkpt>
      <trkpt lat="59.303307" lon="17.783861">
        <ele>7.4</ele>
        <time>2015-05-05T19:44:34Z</time>
      </trkpt>
      <trkpt lat="59.303268" lon="17.783984">
        <ele>8</ele>
        <time>2015-05-05T19:44:35Z</time>
      </trkpt>
      <trkpt lat="59.303227" lon="17.784097">
        <ele>8.5</ele>
        <time>2015-05-05T19:44:36Z</time>
      </trkpt>
      <trkpt lat="59.303189" lon="17.784211">
        <ele>9.1</ele>
        <time>2015-05-05T19:44:37Z</time>
      </trkpt>
      <trkpt lat="59.303151" lon="17.784322">
        <ele>9.7</ele>
        <time>2015-05-05T19:44:38Z</time>
      </trkpt>
      <trkpt lat="59.303105" lon="17.784448">
        <ele>10.5</ele>
        <time>2015-05-05T19:44:39Z</time>
      </trkpt>
      <trkpt lat="59.303067" lon="17.784572">
        <ele>11.2</ele>
        <time>2015-05-05T19:44:40Z</time>
      </trkpt>
      <trkpt lat="59.303024" lon="17.784689">
        <ele>11.9</ele>
        <time>2015-05-05T19:44:41Z</time>
      </trkpt>
      <trkpt lat="59.302986" lon="17.784814">
        <ele>12.7</ele>
        <time>2015-05-05T19:44:42Z</time>
      </trkpt>
      <trkpt lat="59.30295" lon="17.784941">
        <ele>13.4</ele>
        <time>2015-05-05T19:44:43Z</time>
      </trkpt>
      <trkpt lat="59.302918" lon="17.785072">
        <ele>14.2</ele>
        <time>2015-05-05T19:44:44Z</time>
      </trkpt>
      <trkpt lat="59.302875" lon="17.785209">
        <ele>14.2</ele>
        <time>2015-05-05T19:44:45Z</time>
      </trkpt>
      <trkpt lat="59.302821" lon="17.785334">
        <ele>14.1</ele>
        <time>2015-05-05T19:44:46Z</time>
      </trkpt>
      <trkpt lat="59.302785" lon="17.785467">
        <ele>13.9</ele>
        <time>2015-05-05T19:44:47Z</time>
      </trkpt>
      <trkpt lat="59.302757" lon="17.785567">
        <ele>13.5</ele>
        <time>2015-05-05T19:44:48Z</time>
      </trkpt>
      <trkpt lat="59.302724" lon="17.785704">
        <ele>13</ele>
        <time>2015-05-05T19:44:49Z</time>
      </trkpt>
      <trkpt lat="59.30269" lon="17.785824">
        <ele>12.5</ele>
        <time>2015-05-05T19:44:50Z</time>
      </trkpt>
      <trkpt lat="59.302652" lon="17.78595">
        <ele>12</ele>
        <time>2015-05-05T19:44:51Z</time>
      </trkpt>
      <trkpt lat="59.302613" lon="17.786066">
        <ele>11.5</ele>
        <time>2015-05-05T19:44:52Z</time>
      </trkpt>
      <trkpt lat="59.302575" lon="17.786204">
        <ele>11</ele>
        <time>2015-05-05T19:44:53Z</time>
      </trkpt>
      <trkpt lat="59.30255" lon="17.786334">
        <ele>10.6</ele>
        <time>2015-05-05T19:44:54Z</time>
      </trkpt>
      <trkpt lat="59.302517" lon="17.786464">
        <ele>10.1</ele>
        <time>2015-05-05T19:44:55Z</time>
      </trkpt>
      <trkpt lat="59.302486" lon="17.786605">
        <ele>9.6</ele>
        <time>2015-05-05T19:44:56Z</time>
      </trkpt>
      <trkpt lat="59.302468" lon="17.786749">
        <ele>9.2</ele>
        <time>2015-05-05T19:44:57Z</time>
      </trkpt>
      <trkpt lat="59.302444" lon="17.786883">
        <ele>8.7</ele>
        <time>2015-05-05T19:44:58Z</time>
      </trkpt>
      <trkpt lat="59.302418" lon="17.786989">
        <ele>8.4</ele>
        <time>2015-05-05T19:44:59Z</time>
      </trkpt>
      <trkpt lat="59.302401" lon="17.787123">
        <ele>8.2</ele>
        <time>2015-05-05T19:45:00Z</time>
      </trkpt>
      <trkpt lat="59.302379" lon="17.787271">
        <ele>8.3</ele>
        <time>2015-05-05T19:45:01Z</time>
      </trkpt>
      <trkpt lat="59.302362" lon="17.787414">
        <ele>8.4</ele>
        <time>2015-05-05T19:45:02Z</time>
      </trkpt>
      <trkpt lat="59.302342" lon="17.787557">
        <ele>8.5</ele>
        <time>2015-05-05T19:45:03Z</time>
      </trkpt>
      <trkpt lat="59.302324" lon="17.787723">
        <ele>8.6</ele>
        <time>2015-05-05T19:45:04Z</time>
      </trkpt>
      <trkpt lat="59.302301" lon="17.787873">
        <ele>8.7</ele>
        <time>2015-05-05T19:45:05Z</time>
      </trkpt>
      <trkpt lat="59.302281" lon="17.788024">
        <ele>8.8</ele>
        <time>2015-05-05T19:45:06Z</time>
      </trkpt>
      <trkpt lat="59.302278" lon="17.78817">
        <ele>9</ele>
        <time>2015-05-05T19:45:07Z</time>
      </trkpt>
      <trkpt lat="59.30226" lon="17.788315">
        <ele>9.1</ele>
        <time>2015-05-05T19:45:08Z</time>
      </trkpt>
      <trkpt lat="59.302236" lon="17.788474">
        <ele>9.2</ele>
        <time>2015-05-05T19:45:09Z</time>
      </trkpt>
      <trkpt lat="59.302217" lon="17.788619">
        <ele>9.3</ele>
        <time>2015-05-05T19:45:10Z</time>
      </trkpt>
      <trkpt lat="59.302202" lon="17.788765">
        <ele>9.5</ele>
        <time>2015-05-05T19:45:11Z</time>
      </trkpt>
      <trkpt lat="59.302182" lon="17.788921">
        <ele>10</ele>
        <time>2015-05-05T19:45:12Z</time>
      </trkpt>
      <trkpt lat="59.302172" lon="17.78907">
        <ele>10.5</ele>
        <time>2015-05-05T19:45:13Z</time>
      </trkpt>
      <trkpt lat="59.302156" lon="17.789218">
        <ele>11</ele>
        <time>2015-05-05T19:45:14Z</time>
      </trkpt>
      <trkpt lat="59.302146" lon="17.789364">
        <ele>11.5</ele>
        <time>2015-05-05T19:45:15Z</time>
      </trkpt>
      <trkpt lat="59.302129" lon="17.789489">
        <ele>11.9</ele>
        <time>2015-05-05T19:45:16Z</time>
      </trkpt>
      <trkpt lat="59.302125" lon="17.789604">
        <ele>12.3</ele>
        <time>2015-05-05T19:45:17Z</time>
      </trkpt>
      <trkpt lat="59.302136" lon="17.789744">
        <ele>13</ele>
        <time>2015-05-05T19:45:18Z</time>
      </trkpt>
      <trkpt lat="59.302107" lon="17.789895">
        <ele>13.6</ele>
        <time>2015-05-05T19:45:19Z</time>
      </trkpt>
      <trkpt lat="59.302092" lon="17.790032">
        <ele>14.2</ele>
        <time>2015-05-05T19:45:20Z</time>
      </trkpt>
      <trkpt lat="59.302083" lon="17.790186">
        <ele>14.9</ele>
        <time>2015-05-05T19:45:21Z</time>
      </trkpt>
      <trkpt lat="59.302083" lon="17.790334">
        <ele>15.6</ele>
        <time>2015-05-05T19:45:22Z</time>
      </trkpt>
      <trkpt lat="59.302082" lon="17.790464">
        <ele>16.2</ele>
        <time>2015-05-05T19:45:23Z</time>
      </trkpt>
      <trkpt lat="59.302075" lon="17.790591">
        <ele>16.7</ele>
        <time>2015-05-05T19:45:24Z</time>
      </trkpt>
      <trkpt lat="59.302076" lon="17.790704">
        <ele>17.1</ele>
        <time>2015-05-05T19:45:25Z</time>
      </trkpt>
      <trkpt lat="59.302073" lon="17.790851">
        <ele>17.6</ele>
        <time>2015-05-05T19:45:26Z</time>
      </trkpt>
      <trkpt lat="59.302055" lon="17.790982">
        <ele>18.2</ele>
        <time>2015-05-05T19:45:27Z</time>
      </trkpt>
      <trkpt lat="59.302046" lon="17.791112">
        <ele>18.7</ele>
        <time>2015-05-05T19:45:28Z</time>
      </trkpt>
      <trkpt lat="59.302039" lon="17.791243">
        <ele>19.2</ele>
        <time>2015-05-05T19:45:29Z</time>
      </trkpt>
      <trkpt lat="59.30203" lon="17.791374">
        <ele>19.9</ele>
        <time>2015-05-05T19:45:30Z</time>
      </trkpt>
      <trkpt lat="59.302021" lon="17.79148">
        <ele>20.5</ele>
        <time>2015-05-05T19:45:31Z</time>
      </trkpt>
      <trkpt lat="59.30201" lon="17.791601">
        <ele>21.1</ele>
        <time>2015-05-05T19:45:32Z</time>
      </trkpt>
      <trkpt lat="59.302011" lon="17.791724">
        <ele>21.7</ele>
        <time>2015-05-05T19:45:33Z</time>
      </trkpt>
      <trkpt lat="59.302005" lon="17.791853">
        <ele>22.4</ele>
        <time>2015-05-05T19:45:34Z</time>
      </trkpt>
      <trkpt lat="59.302004" lon="17.791968">
        <ele>22.9</ele>
        <time>2015-05-05T19:45:35Z</time>
      </trkpt>
      <trkpt lat="59.302005" lon="17.7921">
        <ele>23.5</ele>
        <time>2015-05-05T19:45:36Z</time>
      </trkpt>
      <trkpt lat="59.302013" lon="17.792209">
        <ele>23.4</ele>
        <time>2015-05-05T19:45:37Z</time>
      </trkpt>
      <trkpt lat="59.302" lon="17.792327">
        <ele>23.5</ele>
        <time>2015-05-05T19:45:38Z</time>
      </trkpt>
      <trkpt lat="59.30199" lon="17.792467">
        <ele>23.6</ele>
        <time>2015-05-05T19:45:39Z</time>
      </trkpt>
      <trkpt lat="59.301987" lon="17.7926">
        <ele>23.6</ele>
        <time>2015-05-05T19:45:40Z</time>
      </trkpt>
      <trkpt lat="59.301984" lon="17.792737">
        <ele>23.6</ele>
        <time>2015-05-05T19:45:41Z</time>
      </trkpt>
      <trkpt lat="59.301983" lon="17.792855">
        <ele>23.6</ele>
        <time>2015-05-05T19:45:42Z</time>
      </trkpt>
      <trkpt lat="59.301977" lon="17.792971">
        <ele>23.7</ele>
        <time>2015-05-05T19:45:43Z</time>
      </trkpt>
      <trkpt lat="59.301971" lon="17.793065">
        <ele>23.8</ele>
        <time>2015-05-05T19:45:44Z</time>
      </trkpt>
      <trkpt lat="59.301981" lon="17.793177">
        <ele>23.8</ele>
        <time>2015-05-05T19:45:45Z</time>
      </trkpt>
      <trkpt lat="59.301995" lon="17.793302">
        <ele>23.9</ele>
        <time>2015-05-05T19:45:46Z</time>
      </trkpt>
      <trkpt lat="59.302019" lon="17.793437">
        <ele>23.9</ele>
        <time>2015-05-05T19:45:47Z</time>
      </trkpt>
      <trkpt lat="59.302029" lon="17.79358">
        <ele>24</ele>
        <time>2015-05-05T19:45:48Z</time>
      </trkpt>
      <trkpt lat="59.302063" lon="17.793697">
        <ele>24</ele>
        <time>2015-05-05T19:45:49Z</time>
      </trkpt>
      <trkpt lat="59.302069" lon="17.793854">
        <ele>24.4</ele>
        <time>2015-05-05T19:45:50Z</time>
      </trkpt>
      <trkpt lat="59.302076" lon="17.793991">
        <ele>24.9</ele>
        <time>2015-05-05T19:45:51Z</time>
      </trkpt>
      <trkpt lat="59.302076" lon="17.794124">
        <ele>25.4</ele>
        <time>2015-05-05T19:45:52Z</time>
      </trkpt>
      <trkpt lat="59.302065" lon="17.79428">
        <ele>26</ele>
        <time>2015-05-05T19:45:53Z</time>
      </trkpt>
      <trkpt lat="59.302062" lon="17.794415">
        <ele>26.5</ele>
        <time>2015-05-05T19:45:54Z</time>
      </trkpt>
      <trkpt lat="59.302064" lon="17.79454">
        <ele>26.9</ele>
        <time>2015-05-05T19:45:55Z</time>
      </trkpt>
      <trkpt lat="59.302061" lon="17.794675">
        <ele>27.5</ele>
        <time>2015-05-05T19:45:56Z</time>
      </trkpt>
      <trkpt lat="59.302056" lon="17.794818">
        <ele>28.2</ele>
        <time>2015-05-05T19:45:57Z</time>
      </trkpt>
      <trkpt lat="59.30206" lon="17.794964">
        <ele>28.9</ele>
        <time>2015-05-05T19:45:58Z</time>
      </trkpt>
      <trkpt lat="59.302062" lon="17.795106">
        <ele>29.5</ele>
        <time>2015-05-05T19:45:59Z</time>
      </trkpt>
      <trkpt lat="59.302063" lon="17.79525">
        <ele>30.2</ele>
        <time>2015-05-05T19:46:00Z</time>
      </trkpt>
      <trkpt lat="59.30207" lon="17.795374">
        <ele>30.8</ele>
        <time>2015-05-05T19:46:01Z</time>
      </trkpt>
      <trkpt lat="59.302073" lon="17.79552">
        <ele>31.1</ele>
        <time>2015-05-05T19:46:02Z</time>
      </trkpt>
      <trkpt lat="59.302078" lon="17.795653">
        <ele>31.3</ele>
        <time>2015-05-05T19:46:03Z</time>
      </trkpt>
      <trkpt lat="59.302075" lon="17.795813">
        <ele>31.5</ele>
        <time>2015-05-05T19:46:04Z</time>
      </trkpt>
      <trkpt lat="59.30208" lon="17.795947">
        <ele>31.6</ele>
        <time>2015-05-05T19:46:05Z</time>
      </trkpt>
      <trkpt lat="59.302082" lon="17.796104">
        <ele>31.8</ele>
        <time>2015-05-05T19:46:06Z</time>
      </trkpt>
      <trkpt lat="59.302083" lon="17.796251">
        <ele>32</ele>
        <time>2015-05-05T19:46:07Z</time>
      </trkpt>
      <trkpt lat="59.302077" lon="17.796387">
        <ele>32.2</ele>
        <time>2015-05-05T19:46:08Z</time>
      </trkpt>
      <trkpt lat="59.302074" lon="17.796519">
        <ele>32.3</ele>
        <time>2015-05-05T19:46:09Z</time>
      </trkpt>
      <trkpt lat="59.302067" lon="17.796668">
        <ele>32.5</ele>
        <time>2015-05-05T19:46:10Z</time>
      </trkpt>
      <trkpt lat="59.302044" lon="17.796804">
        <ele>32.7</ele>
        <time>2015-05-05T19:46:11Z</time>
      </trkpt>
      <trkpt lat="59.302033" lon="17.796942">
        <ele>32.8</ele>
        <time>2015-05-05T19:46:12Z</time>
      </trkpt>
      <trkpt lat="59.302021" lon="17.797085">
        <ele>33</ele>
        <time>2015-05-05T19:46:13Z</time>
      </trkpt>
      <trkpt lat="59.302015" lon="17.797234">
        <ele>33.6</ele>
        <time>2015-05-05T19:46:14Z</time>
      </trkpt>
      <trkpt lat="59.302017" lon="17.79739">
        <ele>34.2</ele>
        <time>2015-05-05T19:46:15Z</time>
      </trkpt>
      <trkpt lat="59.302022" lon="17.79753">
        <ele>34.7</ele>
        <time>2015-05-05T19:46:16Z</time>
      </trkpt>
      <trkpt lat="59.302036" lon="17.797671">
        <ele>35.2</ele>
        <time>2015-05-05T19:46:17Z</time>
      </trkpt>
      <trkpt lat="59.302051" lon="17.797814">
        <ele>35.7</ele>
        <time>2015-05-05T19:46:18Z</time>
      </trkpt>
      <trkpt lat="59.302056" lon="17.797949">
        <ele>36.2</ele>
        <time>2015-05-05T19:46:19Z</time>
      </trkpt>
      <trkpt lat="59.302044" lon="17.798084">
        <ele>36.8</ele>
        <time>2015-05-05T19:46:20Z</time>
      </trkpt>
      <trkpt lat="59.302044" lon="17.79823">
        <ele>37.3</ele>
        <time>2015-05-05T19:46:21Z</time>
      </trkpt>
      <trkpt lat="59.302048" lon="17.798373">
        <ele>37.8</ele>
        <time>2015-05-05T19:46:22Z</time>
      </trkpt>
      <trkpt lat="59.302058" lon="17.798515">
        <ele>38.3</ele>
        <time>2015-05-05T19:46:23Z</time>
      </trkpt>
      <trkpt lat="59.302069" lon="17.798659">
        <ele>38.8</ele>
        <time>2015-05-05T19:46:24Z</time>
      </trkpt>
      <trkpt lat="59.302074" lon="17.798785">
        <ele>39.2</ele>
        <time>2015-05-05T19:46:25Z</time>
      </trkpt>
      <trkpt lat="59.302089" lon="17.798912">
        <ele>39.2</ele>
        <time>2015-05-05T19:46:26Z</time>
      </trkpt>
      <trkpt lat="59.302093" lon="17.79905">
        <ele>39.5</ele>
        <time>2015-05-05T19:46:27Z</time>
      </trkpt>
      <trkpt lat="59.302109" lon="17.799194">
        <ele>39.4</ele>
        <time>2015-05-05T19:46:28Z</time>
      </trkpt>
      <trkpt lat="59.302124" lon="17.799322">
        <ele>39.4</ele>
        <time>2015-05-05T19:46:29Z</time>
      </trkpt>
      <trkpt lat="59.302142" lon="17.799447">
        <ele>39.3</ele>
        <time>2015-05-05T19:46:30Z</time>
      </trkpt>
      <trkpt lat="59.302156" lon="17.799586">
        <ele>39.3</ele>
        <time>2015-05-05T19:46:31Z</time>
      </trkpt>
      <trkpt lat="59.302167" lon="17.799723">
        <ele>39.5</ele>
        <time>2015-05-05T19:46:32Z</time>
      </trkpt>
      <trkpt lat="59.302179" lon="17.799863">
        <ele>39.7</ele>
        <time>2015-05-05T19:46:33Z</time>
      </trkpt>
      <trkpt lat="59.302191" lon="17.799994">
        <ele>40</ele>
        <time>2015-05-05T19:46:34Z</time>
      </trkpt>
      <trkpt lat="59.302205" lon="17.800137">
        <ele>40.2</ele>
        <time>2015-05-05T19:46:35Z</time>
      </trkpt>
      <trkpt lat="59.302219" lon="17.800281">
        <ele>40.4</ele>
        <time>2015-05-05T19:46:36Z</time>
      </trkpt>
      <trkpt lat="59.302233" lon="17.800426">
        <ele>40.6</ele>
        <time>2015-05-05T19:46:37Z</time>
      </trkpt>
      <trkpt lat="59.302246" lon="17.800563">
        <ele>40.3</ele>
        <time>2015-05-05T19:46:38Z</time>
      </trkpt>
      <trkpt lat="59.302258" lon="17.800713">
        <ele>40.1</ele>
        <time>2015-05-05T19:46:39Z</time>
      </trkpt>
      <trkpt lat="59.30227" lon="17.800847">
        <ele>39.9</ele>
        <time>2015-05-05T19:46:40Z</time>
      </trkpt>
      <trkpt lat="59.302286" lon="17.800982">
        <ele>39.5</ele>
        <time>2015-05-05T19:46:41Z</time>
      </trkpt>
      <trkpt lat="59.302302" lon="17.801143">
        <ele>39.2</ele>
        <time>2015-05-05T19:46:42Z</time>
      </trkpt>
      <trkpt lat="59.302311" lon="17.801284">
        <ele>39.1</ele>
        <time>2015-05-05T19:46:43Z</time>
      </trkpt>
      <trkpt lat="59.302317" lon="17.801418">
        <ele>39.2</ele>
        <time>2015-05-05T19:46:44Z</time>
      </trkpt>
      <trkpt lat="59.302319" lon="17.801572">
        <ele>39.3</ele>
        <time>2015-05-05T19:46:45Z</time>
      </trkpt>
      <trkpt lat="59.302323" lon="17.801718">
        <ele>39.4</ele>
        <time>2015-05-05T19:46:46Z</time>
      </trkpt>
      <trkpt lat="59.302333" lon="17.801853">
        <ele>39.3</ele>
        <time>2015-05-05T19:46:47Z</time>
      </trkpt>
      <trkpt lat="59.302338" lon="17.801982">
        <ele>39.4</ele>
        <time>2015-05-05T19:46:48Z</time>
      </trkpt>
      <trkpt lat="59.30235" lon="17.802134">
        <ele>39.3</ele>
        <time>2015-05-05T19:46:49Z</time>
      </trkpt>
      <trkpt lat="59.302359" lon="17.802284">
        <ele>39.1</ele>
        <time>2015-05-05T19:46:50Z</time>
      </trkpt>
      <trkpt lat="59.302356" lon="17.802428">
        <ele>39.2</ele>
        <time>2015-05-05T19:46:51Z</time>
      </trkpt>
      <trkpt lat="59.30235" lon="17.802547">
        <ele>39.4</ele>
        <time>2015-05-05T19:46:52Z</time>
      </trkpt>
      <trkpt lat="59.302351" lon="17.802684">
        <ele>39.4</ele>
        <time>2015-05-05T19:46:53Z</time>
      </trkpt>
      <trkpt lat="59.302343" lon="17.802821">
        <ele>39.7</ele>
        <time>2015-05-05T19:46:54Z</time>
      </trkpt>
      <trkpt lat="59.302348" lon="17.802961">
        <ele>39.6</ele>
        <time>2015-05-05T19:46:55Z</time>
      </trkpt>
      <trkpt lat="59.30234" lon="17.803094">
        <ele>39.8</ele>
        <time>2015-05-05T19:46:56Z</time>
      </trkpt>
      <trkpt lat="59.302334" lon="17.803234">
        <ele>40</ele>
        <time>2015-05-05T19:46:57Z</time>
      </trkpt>
      <trkpt lat="59.30232" lon="17.803371">
        <ele>40.3</ele>
        <time>2015-05-05T19:46:58Z</time>
      </trkpt>
      <trkpt lat="59.302302" lon="17.80351">
        <ele>40.7</ele>
        <time>2015-05-05T19:46:59Z</time>
      </trkpt>
      <trkpt lat="59.302293" lon="17.803647">
        <ele>40.9</ele>
        <time>2015-05-05T19:47:00Z</time>
      </trkpt>
      <trkpt lat="59.302275" lon="17.803792">
        <ele>41.2</ele>
        <time>2015-05-05T19:47:01Z</time>
      </trkpt>
      <trkpt lat="59.302267" lon="17.803941">
        <ele>40.9</ele>
        <time>2015-05-05T19:47:02Z</time>
      </trkpt>
      <trkpt lat="59.302253" lon="17.804102">
        <ele>40.6</ele>
        <time>2015-05-05T19:47:03Z</time>
      </trkpt>
      <trkpt lat="59.302237" lon="17.80427">
        <ele>40.4</ele>
        <time>2015-05-05T19:47:04Z</time>
      </trkpt>
      <trkpt lat="59.302222" lon="17.804431">
        <ele>40.2</ele>
        <time>2015-05-05T19:47:05Z</time>
      </trkpt>
      <trkpt lat="59.302209" lon="17.804609">
        <ele>39.8</ele>
        <time>2015-05-05T19:47:06Z</time>
      </trkpt>
      <trkpt lat="59.302195" lon="17.804788">
        <ele>39.2</ele>
        <time>2015-05-05T19:47:07Z</time>
      </trkpt>
      <trkpt lat="59.302178" lon="17.804937">
        <ele>38.8</ele>
        <time>2015-05-05T19:47:08Z</time>
      </trkpt>
      <trkpt lat="59.302161" lon="17.805098">
        <ele>38.3</ele>
        <time>2015-05-05T19:47:09Z</time>
      </trkpt>
      <trkpt lat="59.302139" lon="17.805275">
        <ele>37.9</ele>
        <time>2015-05-05T19:47:10Z</time>
      </trkpt>
      <trkpt lat="59.302127" lon="17.805468">
        <ele>37.1</ele>
        <time>2015-05-05T19:47:11Z</time>
      </trkpt>
      <trkpt lat="59.302107" lon="17.80565">
        <ele>36.6</ele>
        <time>2015-05-05T19:47:12Z</time>
      </trkpt>
      <trkpt lat="59.302094" lon="17.805829">
        <ele>35.9</ele>
        <time>2015-05-05T19:47:13Z</time>
      </trkpt>
      <trkpt lat="59.302077" lon="17.806008">
        <ele>35.2</ele>
        <time>2015-05-05T19:47:14Z</time>
      </trkpt>
      <trkpt lat="59.302065" lon="17.806173">
        <ele>34.6</ele>
        <time>2015-05-05T19:47:15Z</time>
      </trkpt>
      <trkpt lat="59.302041" lon="17.806352">
        <ele>33.9</ele>
        <time>2015-05-05T19:47:16Z</time>
      </trkpt>
      <trkpt lat="59.302027" lon="17.806512">
        <ele>33.1</ele>
        <time>2015-05-05T19:47:17Z</time>
      </trkpt>
      <trkpt lat="59.302007" lon="17.806685">
        <ele>32.4</ele>
        <time>2015-05-05T19:47:18Z</time>
      </trkpt>
      <trkpt lat="59.301996" lon="17.806856">
        <ele>31.5</ele>
        <time>2015-05-05T19:47:19Z</time>
      </trkpt>
      <trkpt lat="59.301971" lon="17.807023">
        <ele>30.8</ele>
        <time>2015-05-05T19:47:20Z</time>
      </trkpt>
      <trkpt lat="59.301944" lon="17.807201">
        <ele>30.5</ele>
        <time>2015-05-05T19:47:21Z</time>
      </trkpt>
      <trkpt lat="59.301913" lon="17.807356">
        <ele>30.5</ele>
        <time>2015-05-05T19:47:22Z</time>
      </trkpt>
      <trkpt lat="59.301872" lon="17.807517">
        <ele>30.6</ele>
        <time>2015-05-05T19:47:23Z</time>
      </trkpt>
      <trkpt lat="59.301834" lon="17.80769">
        <ele>30.6</ele>
        <time>2015-05-05T19:47:24Z</time>
      </trkpt>
      <trkpt lat="59.301782" lon="17.80783">
        <ele>30.9</ele>
        <time>2015-05-05T19:47:25Z</time>
      </trkpt>
      <trkpt lat="59.30172" lon="17.807966">
        <ele>31.2</ele>
        <time>2015-05-05T19:47:26Z</time>
      </trkpt>
      <trkpt lat="59.301662" lon="17.808107">
        <ele>31.3</ele>
        <time>2015-05-05T19:47:27Z</time>
      </trkpt>
      <trkpt lat="59.301605" lon="17.808222">
        <ele>31.4</ele>
        <time>2015-05-05T19:47:28Z</time>
      </trkpt>
      <trkpt lat="59.301547" lon="17.808329">
        <ele>31.6</ele>
        <time>2015-05-05T19:47:29Z</time>
      </trkpt>
      <trkpt lat="59.30148" lon="17.808442">
        <ele>31.9</ele>
        <time>2015-05-05T19:47:30Z</time>
      </trkpt>
      <trkpt lat="59.301411" lon="17.808545">
        <ele>32.2</ele>
        <time>2015-05-05T19:47:31Z</time>
      </trkpt>
      <trkpt lat="59.301347" lon="17.808646">
        <ele>32.4</ele>
        <time>2015-05-05T19:47:32Z</time>
      </trkpt>
      <trkpt lat="59.301278" lon="17.808745">
        <ele>32.7</ele>
        <time>2015-05-05T19:47:33Z</time>
      </trkpt>
      <trkpt lat="59.301202" lon="17.808837">
        <ele>31.8</ele>
        <time>2015-05-05T19:47:34Z</time>
      </trkpt>
      <trkpt lat="59.301123" lon="17.808929">
        <ele>30.2</ele>
        <time>2015-05-05T19:47:35Z</time>
      </trkpt>
      <trkpt lat="59.301052" lon="17.809012">
        <ele>28.7</ele>
        <time>2015-05-05T19:47:36Z</time>
      </trkpt>
      <trkpt lat="59.300981" lon="17.809095">
        <ele>27.3</ele>
        <time>2015-05-05T19:47:37Z</time>
      </trkpt>
      <trkpt lat="59.300904" lon="17.809179">
        <ele>25.8</ele>
        <time>2015-05-05T19:47:38Z</time>
      </trkpt>
      <trkpt lat="59.300825" lon="17.809251">
        <ele>24.3</ele>
        <time>2015-05-05T19:47:39Z</time>
      </trkpt>
      <trkpt lat="59.300731" lon="17.809332">
        <ele>22.5</ele>
        <time>2015-05-05T19:47:40Z</time>
      </trkpt>
      <trkpt lat="59.300653" lon="17.809404">
        <ele>21.1</ele>
        <time>2015-05-05T19:47:41Z</time>
      </trkpt>
      <trkpt lat="59.300574" lon="17.809489">
        <ele>19.6</ele>
        <time>2015-05-05T19:47:42Z</time>
      </trkpt>
      <trkpt lat="59.300487" lon="17.809565">
        <ele>18.1</ele>
        <time>2015-05-05T19:47:43Z</time>
      </trkpt>
      <trkpt lat="59.300399" lon="17.809634">
        <ele>16.5</ele>
        <time>2015-05-05T19:47:44Z</time>
      </trkpt>
      <trkpt lat="59.300314" lon="17.809703">
        <ele>15.2</ele>
        <time>2015-05-05T19:47:45Z</time>
      </trkpt>
      <trkpt lat="59.300224" lon="17.809764">
        <ele>14</ele>
        <time>2015-05-05T19:47:46Z</time>
      </trkpt>
      <trkpt lat="59.300107" lon="17.809755">
        <ele>12.7</ele>
        <time>2015-05-05T19:47:47Z</time>
      </trkpt>
      <trkpt lat="59.300004" lon="17.809773">
        <ele>11.5</ele>
        <time>2015-05-05T19:47:48Z</time>
      </trkpt>
      <trkpt lat="59.299909" lon="17.809804">
        <ele>10.3</ele>
        <time>2015-05-05T19:47:49Z</time>
      </trkpt>
      <trkpt lat="59.299802" lon="17.809809">
        <ele>9.1</ele>
        <time>2015-05-05T19:47:50Z</time>
      </trkpt>
      <trkpt lat="59.299691" lon="17.809852">
        <ele>7.8</ele>
        <time>2015-05-05T19:47:51Z</time>
      </trkpt>
      <trkpt lat="59.299596" lon="17.809925">
        <ele>6.7</ele>
        <time>2015-05-05T19:47:52Z</time>
      </trkpt>
      <trkpt lat="59.299497" lon="17.809974">
        <ele>6.4</ele>
        <time>2015-05-05T19:47:53Z</time>
      </trkpt>
      <trkpt lat="59.299397" lon="17.809998">
        <ele>6.2</ele>
        <time>2015-05-05T19:47:54Z</time>
      </trkpt>
      <trkpt lat="59.2993" lon="17.810029">
        <ele>6</ele>
        <time>2015-05-05T19:47:55Z</time>
      </trkpt>
      <trkpt lat="59.299198" lon="17.810027">
        <ele>5.8</ele>
        <time>2015-05-05T19:47:56Z</time>
      </trkpt>
      <trkpt lat="59.299087" lon="17.81008">
        <ele>5.6</ele>
        <time>2015-05-05T19:47:57Z</time>
      </trkpt>
      <trkpt lat="59.298986" lon="17.810109">
        <ele>5.4</ele>
        <time>2015-05-05T19:47:58Z</time>
      </trkpt>
      <trkpt lat="59.298886" lon="17.810142">
        <ele>5.2</ele>
        <time>2015-05-05T19:47:59Z</time>
      </trkpt>
      <trkpt lat="59.298788" lon="17.810162">
        <ele>5.1</ele>
        <time>2015-05-05T19:48:00Z</time>
      </trkpt>
      <trkpt lat="59.298693" lon="17.810202">
        <ele>5.2</ele>
        <time>2015-05-05T19:48:01Z</time>
      </trkpt>
      <trkpt lat="59.298594" lon="17.810244">
        <ele>5.7</ele>
        <time>2015-05-05T19:48:02Z</time>
      </trkpt>
      <trkpt lat="59.298501" lon="17.810283">
        <ele>6.1</ele>
        <time>2015-05-05T19:48:03Z</time>
      </trkpt>
      <trkpt lat="59.298406" lon="17.810304">
        <ele>6.5</ele>
        <time>2015-05-05T19:48:04Z</time>
      </trkpt>
      <trkpt lat="59.298315" lon="17.810316">
        <ele>7</ele>
        <time>2015-05-05T19:48:05Z</time>
      </trkpt>
      <trkpt lat="59.298219" lon="17.810332">
        <ele>7.4</ele>
        <time>2015-05-05T19:48:06Z</time>
      </trkpt>
      <trkpt lat="59.298119" lon="17.810374">
        <ele>8</ele>
        <time>2015-05-05T19:48:07Z</time>
      </trkpt>
      <trkpt lat="59.298027" lon="17.810412">
        <ele>8.5</ele>
        <time>2015-05-05T19:48:08Z</time>
      </trkpt>
      <trkpt lat="59.297934" lon="17.810432">
        <ele>8.9</ele>
        <time>2015-05-05T19:48:09Z</time>
      </trkpt>
      <trkpt lat="59.297836" lon="17.810461">
        <ele>9.7</ele>
        <time>2015-05-05T19:48:10Z</time>
      </trkpt>
      <trkpt lat="59.297741" lon="17.810496">
        <ele>10.6</ele>
        <time>2015-05-05T19:48:11Z</time>
      </trkpt>
      <trkpt lat="59.297645" lon="17.810527">
        <ele>11.5</ele>
        <time>2015-05-05T19:48:12Z</time>
      </trkpt>
      <trkpt lat="59.29755" lon="17.810565">
        <ele>12.4</ele>
        <time>2015-05-05T19:48:13Z</time>
      </trkpt>
      <trkpt lat="59.297457" lon="17.810585">
        <ele>13.2</ele>
        <time>2015-05-05T19:48:14Z</time>
      </trkpt>
      <trkpt lat="59.29737" lon="17.81061">
        <ele>14</ele>
        <time>2015-05-05T19:48:15Z</time>
      </trkpt>
      <trkpt lat="59.297291" lon="17.810627">
        <ele>14.7</ele>
        <time>2015-05-05T19:48:16Z</time>
      </trkpt>
      <trkpt lat="59.297213" lon="17.81064">
        <ele>15.4</ele>
        <time>2015-05-05T19:48:17Z</time>
      </trkpt>
      <trkpt lat="59.297131" lon="17.810666">
        <ele>16</ele>
        <time>2015-05-05T19:48:18Z</time>
      </trkpt>
      <trkpt lat="59.297047" lon="17.810699">
        <ele>16.1</ele>
        <time>2015-05-05T19:48:19Z</time>
      </trkpt>
      <trkpt lat="59.296973" lon="17.810741">
        <ele>15.5</ele>
        <time>2015-05-05T19:48:20Z</time>
      </trkpt>
      <trkpt lat="59.296902" lon="17.81075">
        <ele>15.2</ele>
        <time>2015-05-05T19:48:21Z</time>
      </trkpt>
      <trkpt lat="59.296836" lon="17.810754">
        <ele>14.9</ele>
        <time>2015-05-05T19:48:22Z</time>
      </trkpt>
      <trkpt lat="59.296767" lon="17.81076">
        <ele>14.5</ele>
        <time>2015-05-05T19:48:23Z</time>
      </trkpt>
      <trkpt lat="59.296697" lon="17.810764">
        <ele>14.2</ele>
        <time>2015-05-05T19:48:24Z</time>
      </trkpt>
      <trkpt lat="59.296625" lon="17.810785">
        <ele>13.8</ele>
        <time>2015-05-05T19:48:25Z</time>
      </trkpt>
      <trkpt lat="59.296563" lon="17.810813">
        <ele>13.4</ele>
        <time>2015-05-05T19:48:26Z</time>
      </trkpt>
      <trkpt lat="59.296494" lon="17.810834">
        <ele>13</ele>
        <time>2015-05-05T19:48:27Z</time>
      </trkpt>
      <trkpt lat="59.296419" lon="17.810843">
        <ele>12.7</ele>
        <time>2015-05-05T19:48:28Z</time>
      </trkpt>
      <trkpt lat="59.296353" lon="17.810866">
        <ele>12.3</ele>
        <time>2015-05-05T19:48:29Z</time>
      </trkpt>
      <trkpt lat="59.296284" lon="17.810886">
        <ele>12</ele>
        <time>2015-05-05T19:48:30Z</time>
      </trkpt>
      <trkpt lat="59.296214" lon="17.810909">
        <ele>11.8</ele>
        <time>2015-05-05T19:48:31Z</time>
      </trkpt>
      <trkpt lat="59.296146" lon="17.810932">
        <ele>11.8</ele>
        <time>2015-05-05T19:48:32Z</time>
      </trkpt>
      <trkpt lat="59.296081" lon="17.810968">
        <ele>11.8</ele>
        <time>2015-05-05T19:48:33Z</time>
      </trkpt>
      <trkpt lat="59.296009" lon="17.810985">
        <ele>11.8</ele>
        <time>2015-05-05T19:48:34Z</time>
      </trkpt>
      <trkpt lat="59.295942" lon="17.811013">
        <ele>11.8</ele>
        <time>2015-05-05T19:48:35Z</time>
      </trkpt>
      <trkpt lat="59.295878" lon="17.811043">
        <ele>11.8</ele>
        <time>2015-05-05T19:48:36Z</time>
      </trkpt>
      <trkpt lat="59.295815" lon="17.811036">
        <ele>11.9</ele>
        <time>2015-05-05T19:48:37Z</time>
      </trkpt>
      <trkpt lat="59.295755" lon="17.811046">
        <ele>11.9</ele>
        <time>2015-05-05T19:48:38Z</time>
      </trkpt>
      <trkpt lat="59.295688" lon="17.811069">
        <ele>12</ele>
        <time>2015-05-05T19:48:39Z</time>
      </trkpt>
      <trkpt lat="59.295602" lon="17.811095">
        <ele>12</ele>
        <time>2015-05-05T19:48:40Z</time>
      </trkpt>
      <trkpt lat="59.295524" lon="17.811107">
        <ele>12.1</ele>
        <time>2015-05-05T19:48:41Z</time>
      </trkpt>
      <trkpt lat="59.295458" lon="17.811132">
        <ele>12.1</ele>
        <time>2015-05-05T19:48:42Z</time>
      </trkpt>
      <trkpt lat="59.295389" lon="17.811153">
        <ele>12</ele>
        <time>2015-05-05T19:48:43Z</time>
      </trkpt>
      <trkpt lat="59.295317" lon="17.811173">
        <ele>11.8</ele>
        <time>2015-05-05T19:48:44Z</time>
      </trkpt>
      <trkpt lat="59.29525" lon="17.8112">
        <ele>11.6</ele>
        <time>2015-05-05T19:48:45Z</time>
      </trkpt>
      <trkpt lat="59.295185" lon="17.811226">
        <ele>11.5</ele>
        <time>2015-05-05T19:48:46Z</time>
      </trkpt>
      <trkpt lat="59.29512" lon="17.811227">
        <ele>11.3</ele>
        <time>2015-05-05T19:48:47Z</time>
      </trkpt>
      <trkpt lat="59.295051" lon="17.811248">
        <ele>11.1</ele>
        <time>2015-05-05T19:48:48Z</time>
      </trkpt>
      <trkpt lat="59.294978" lon="17.811281">
        <ele>10.9</ele>
        <time>2015-05-05T19:48:49Z</time>
      </trkpt>
      <trkpt lat="59.294914" lon="17.811298">
        <ele>10.8</ele>
        <time>2015-05-05T19:48:50Z</time>
      </trkpt>
      <trkpt lat="59.294835" lon="17.81132">
        <ele>10.6</ele>
        <time>2015-05-05T19:48:51Z</time>
      </trkpt>
      <trkpt lat="59.294774" lon="17.811348">
        <ele>10.5</ele>
        <time>2015-05-05T19:48:52Z</time>
      </trkpt>
      <trkpt lat="59.294713" lon="17.811375">
        <ele>10.4</ele>
        <time>2015-05-05T19:48:53Z</time>
      </trkpt>
      <trkpt lat="59.294644" lon="17.811395">
        <ele>10.3</ele>
        <time>2015-05-05T19:48:54Z</time>
      </trkpt>
      <trkpt lat="59.294573" lon="17.811403">
        <ele>10.1</ele>
        <time>2015-05-05T19:48:55Z</time>
      </trkpt>
      <trkpt lat="59.294512" lon="17.811417">
        <ele>9.9</ele>
        <time>2015-05-05T19:48:56Z</time>
      </trkpt>
      <trkpt lat="59.294448" lon="17.811431">
        <ele>9.7</ele>
        <time>2015-05-05T19:48:57Z</time>
      </trkpt>
      <trkpt lat="59.294395" lon="17.811445">
        <ele>9.5</ele>
        <time>2015-05-05T19:48:58Z</time>
      </trkpt>
      <trkpt lat="59.294342" lon="17.81147">
        <ele>9.2</ele>
        <time>2015-05-05T19:48:59Z</time>
      </trkpt>
      <trkpt lat="59.294295" lon="17.811472">
        <ele>9</ele>
        <time>2015-05-05T19:49:00Z</time>
      </trkpt>
      <trkpt lat="59.294244" lon="17.811492">
        <ele>8.8</ele>
        <time>2015-05-05T19:49:01Z</time>
      </trkpt>
      <trkpt lat="59.294199" lon="17.81151">
        <ele>8.6</ele>
        <time>2015-05-05T19:49:02Z</time>
      </trkpt>
      <trkpt lat="59.294156" lon="17.811534">
        <ele>8.5</ele>
        <time>2015-05-05T19:49:03Z</time>
      </trkpt>
      <trkpt lat="59.294115" lon="17.81156">
        <ele>8.3</ele>
        <time>2015-05-05T19:49:04Z</time>
      </trkpt>
      <trkpt lat="59.29408" lon="17.811584">
        <ele>8.1</ele>
        <time>2015-05-05T19:49:05Z</time>
      </trkpt>
      <trkpt lat="59.294047" lon="17.811605">
        <ele>7.9</ele>
        <time>2015-05-05T19:49:06Z</time>
      </trkpt>
      <trkpt lat="59.294019" lon="17.81164">
        <ele>7.8</ele>
        <time>2015-05-05T19:49:07Z</time>
      </trkpt>
      <trkpt lat="59.293983" lon="17.811685">
        <ele>7.6</ele>
        <time>2015-05-05T19:49:08Z</time>
      </trkpt>
      <trkpt lat="59.293956" lon="17.811785">
        <ele>7.4</ele>
        <time>2015-05-05T19:49:10Z</time>
      </trkpt>
      <trkpt lat="59.293964" lon="17.81185">
        <ele>7.4</ele>
        <time>2015-05-05T19:49:11Z</time>
      </trkpt>
      <trkpt lat="59.293963" lon="17.811906">
        <ele>7.4</ele>
        <time>2015-05-05T19:49:12Z</time>
      </trkpt>
      <trkpt lat="59.293967" lon="17.811962">
        <ele>7.4</ele>
        <time>2015-05-05T19:49:13Z</time>
      </trkpt>
      <trkpt lat="59.293968" lon="17.812021">
        <ele>7.3</ele>
        <time>2015-05-05T19:49:14Z</time>
      </trkpt>
      <trkpt lat="59.29395" lon="17.812073">
        <ele>7.2</ele>
        <time>2015-05-05T19:49:15Z</time>
      </trkpt>
      <trkpt lat="59.293929" lon="17.812121">
        <ele>7.1</ele>
        <time>2015-05-05T19:49:16Z</time>
      </trkpt>
      <trkpt lat="59.293902" lon="17.812169">
        <ele>6.9</ele>
        <time>2015-05-05T19:49:17Z</time>
      </trkpt>
      <trkpt lat="59.293873" lon="17.812234">
        <ele>6.8</ele>
        <time>2015-05-05T19:49:18Z</time>
      </trkpt>
      <trkpt lat="59.293827" lon="17.812394">
        <ele>6.5</ele>
        <time>2015-05-05T19:49:19Z</time>
      </trkpt>
      <trkpt lat="59.293826" lon="17.812483">
        <ele>6.5</ele>
        <time>2015-05-05T19:49:20Z</time>
      </trkpt>
      <trkpt lat="59.293822" lon="17.812583">
        <ele>6.5</ele>
        <time>2015-05-05T19:49:21Z</time>
      </trkpt>
      <trkpt lat="59.293826" lon="17.812697">
        <ele>6.5</ele>
        <time>2015-05-05T19:49:22Z</time>
      </trkpt>
      <trkpt lat="59.293819" lon="17.812809">
        <ele>6.5</ele>
        <time>2015-05-05T19:49:23Z</time>
      </trkpt>
      <trkpt lat="59.293825" lon="17.812952">
        <ele>6.6</ele>
        <time>2015-05-05T19:49:24Z</time>
      </trkpt>
      <trkpt lat="59.293815" lon="17.813077">
        <ele>6.7</ele>
        <time>2015-05-05T19:49:25Z</time>
      </trkpt>
      <trkpt lat="59.293811" lon="17.813201">
        <ele>6.8</ele>
        <time>2015-05-05T19:49:26Z</time>
      </trkpt>
      <trkpt lat="59.293802" lon="17.813337">
        <ele>6.9</ele>
        <time>2015-05-05T19:49:27Z</time>
      </trkpt>
      <trkpt lat="59.293793" lon="17.813463">
        <ele>7</ele>
        <time>2015-05-05T19:49:28Z</time>
      </trkpt>
      <trkpt lat="59.293791" lon="17.813573">
        <ele>7.1</ele>
        <time>2015-05-05T19:49:29Z</time>
      </trkpt>
      <trkpt lat="59.293788" lon="17.813685">
        <ele>7.2</ele>
        <time>2015-05-05T19:49:30Z</time>
      </trkpt>
      <trkpt lat="59.293777" lon="17.81379">
        <ele>7.2</ele>
        <time>2015-05-05T19:49:31Z</time>
      </trkpt>
      <trkpt lat="59.293773" lon="17.813885">
        <ele>7.2</ele>
        <time>2015-05-05T19:49:32Z</time>
      </trkpt>
      <trkpt lat="59.293757" lon="17.813974">
        <ele>7.1</ele>
        <time>2015-05-05T19:49:33Z</time>
      </trkpt>
      <trkpt lat="59.293747" lon="17.814064">
        <ele>7</ele>
        <time>2015-05-05T19:49:34Z</time>
      </trkpt>
      <trkpt lat="59.293734" lon="17.81417">
        <ele>7</ele>
        <time>2015-05-05T19:49:35Z</time>
      </trkpt>
      <trkpt lat="59.293721" lon="17.814285">
        <ele>6.9</ele>
        <time>2015-05-05T19:49:36Z</time>
      </trkpt>
      <trkpt lat="59.293705" lon="17.814401">
        <ele>6.9</ele>
        <time>2015-05-05T19:49:37Z</time>
      </trkpt>
      <trkpt lat="59.293688" lon="17.814504">
        <ele>6.9</ele>
        <time>2015-05-05T19:49:38Z</time>
      </trkpt>
      <trkpt lat="59.293681" lon="17.81461">
        <ele>6.9</ele>
        <time>2015-05-05T19:49:39Z</time>
      </trkpt>
      <trkpt lat="59.293665" lon="17.814738">
        <ele>6.9</ele>
        <time>2015-05-05T19:49:40Z</time>
      </trkpt>
      <trkpt lat="59.293649" lon="17.814853">
        <ele>7</ele>
        <time>2015-05-05T19:49:41Z</time>
      </trkpt>
      <trkpt lat="59.293631" lon="17.81498">
        <ele>7.1</ele>
        <time>2015-05-05T19:49:42Z</time>
      </trkpt>
      <trkpt lat="59.293615" lon="17.815105">
        <ele>7.1</ele>
        <time>2015-05-05T19:49:43Z</time>
      </trkpt>
      <trkpt lat="59.293598" lon="17.815236">
        <ele>7.1</ele>
        <time>2015-05-05T19:49:44Z</time>
      </trkpt>
      <trkpt lat="59.29358" lon="17.815361">
        <ele>7.1</ele>
        <time>2015-05-05T19:49:45Z</time>
      </trkpt>
      <trkpt lat="59.29356" lon="17.815499">
        <ele>7.1</ele>
        <time>2015-05-05T19:49:46Z</time>
      </trkpt>
      <trkpt lat="59.29354" lon="17.815641">
        <ele>7</ele>
        <time>2015-05-05T19:49:47Z</time>
      </trkpt>
      <trkpt lat="59.293521" lon="17.815782">
        <ele>6.9</ele>
        <time>2015-05-05T19:49:48Z</time>
      </trkpt>
      <trkpt lat="59.293511" lon="17.815938">
        <ele>6.9</ele>
        <time>2015-05-05T19:49:49Z</time>
      </trkpt>
      <trkpt lat="59.293492" lon="17.816099">
        <ele>6.8</ele>
        <time>2015-05-05T19:49:50Z</time>
      </trkpt>
      <trkpt lat="59.293477" lon="17.816244">
        <ele>6.7</ele>
        <time>2015-05-05T19:49:51Z</time>
      </trkpt>
      <trkpt lat="59.293465" lon="17.816423">
        <ele>6.4</ele>
        <time>2015-05-05T19:49:52Z</time>
      </trkpt>
      <trkpt lat="59.293444" lon="17.816561">
        <ele>6.2</ele>
        <time>2015-05-05T19:49:53Z</time>
      </trkpt>
      <trkpt lat="59.293433" lon="17.816712">
        <ele>5.9</ele>
        <time>2015-05-05T19:49:54Z</time>
      </trkpt>
      <trkpt lat="59.293427" lon="17.816857">
        <ele>5.7</ele>
        <time>2015-05-05T19:49:55Z</time>
      </trkpt>
      <trkpt lat="59.293405" lon="17.816991">
        <ele>5.5</ele>
        <time>2015-05-05T19:49:56Z</time>
      </trkpt>
      <trkpt lat="59.293388" lon="17.817144">
        <ele>5.3</ele>
        <time>2015-05-05T19:49:57Z</time>
      </trkpt>
      <trkpt lat="59.29337" lon="17.81729">
        <ele>5.2</ele>
        <time>2015-05-05T19:49:58Z</time>
      </trkpt>
      <trkpt lat="59.293361" lon="17.817449">
        <ele>5.1</ele>
        <time>2015-05-05T19:49:59Z</time>
      </trkpt>
      <trkpt lat="59.293361" lon="17.817594">
        <ele>5.1</ele>
        <time>2015-05-05T19:50:00Z</time>
      </trkpt>
      <trkpt lat="59.293359" lon="17.817785">
        <ele>5.1</ele>
        <time>2015-05-05T19:50:01Z</time>
      </trkpt>
      <trkpt lat="59.293357" lon="17.817965">
        <ele>5.1</ele>
        <time>2015-05-05T19:50:02Z</time>
      </trkpt>
      <trkpt lat="59.293344" lon="17.818125">
        <ele>5</ele>
        <time>2015-05-05T19:50:03Z</time>
      </trkpt>
      <trkpt lat="59.293337" lon="17.818284">
        <ele>5</ele>
        <time>2015-05-05T19:50:04Z</time>
      </trkpt>
      <trkpt lat="59.293335" lon="17.818446">
        <ele>5</ele>
        <time>2015-05-05T19:50:05Z</time>
      </trkpt>
      <trkpt lat="59.293319" lon="17.818576">
        <ele>5</ele>
        <time>2015-05-05T19:50:06Z</time>
      </trkpt>
      <trkpt lat="59.293298" lon="17.818736">
        <ele>4.9</ele>
        <time>2015-05-05T19:50:07Z</time>
      </trkpt>
      <trkpt lat="59.293289" lon="17.818893">
        <ele>5</ele>
        <time>2015-05-05T19:50:08Z</time>
      </trkpt>
      <trkpt lat="59.293278" lon="17.819035">
        <ele>5</ele>
        <time>2015-05-05T19:50:09Z</time>
      </trkpt>
      <trkpt lat="59.293266" lon="17.819168">
        <ele>5</ele>
        <time>2015-05-05T19:50:10Z</time>
      </trkpt>
      <trkpt lat="59.293259" lon="17.819339">
        <ele>5.1</ele>
        <time>2015-05-05T19:50:11Z</time>
      </trkpt>
      <trkpt lat="59.293257" lon="17.819462">
        <ele>5.2</ele>
        <time>2015-05-05T19:50:12Z</time>
      </trkpt>
      <trkpt lat="59.293242" lon="17.819587">
        <ele>5.2</ele>
        <time>2015-05-05T19:50:13Z</time>
      </trkpt>
      <trkpt lat="59.29323" lon="17.819704">
        <ele>5.3</ele>
        <time>2015-05-05T19:50:14Z</time>
      </trkpt>
      <trkpt lat="59.293224" lon="17.819838">
        <ele>5.5</ele>
        <time>2015-05-05T19:50:15Z</time>
      </trkpt>
      <trkpt lat="59.293216" lon="17.819981">
        <ele>5.7</ele>
        <time>2015-05-05T19:50:16Z</time>
      </trkpt>
      <trkpt lat="59.293209" lon="17.82012">
        <ele>5.9</ele>
        <time>2015-05-05T19:50:17Z</time>
      </trkpt>
      <trkpt lat="59.293202" lon="17.820271">
        <ele>6.1</ele>
        <time>2015-05-05T19:50:18Z</time>
      </trkpt>
      <trkpt lat="59.293198" lon="17.820397">
        <ele>6.3</ele>
        <time>2015-05-05T19:50:19Z</time>
      </trkpt>
      <trkpt lat="59.293192" lon="17.820523">
        <ele>6.4</ele>
        <time>2015-05-05T19:50:20Z</time>
      </trkpt>
      <trkpt lat="59.293189" lon="17.820635">
        <ele>6.5</ele>
        <time>2015-05-05T19:50:21Z</time>
      </trkpt>
      <trkpt lat="59.293208" lon="17.820717">
        <ele>6.7</ele>
        <time>2015-05-05T19:50:22Z</time>
      </trkpt>
      <trkpt lat="59.293201" lon="17.820883">
        <ele>6.7</ele>
        <time>2015-05-05T19:50:23Z</time>
      </trkpt>
      <trkpt lat="59.293209" lon="17.821006">
        <ele>6.9</ele>
        <time>2015-05-05T19:50:24Z</time>
      </trkpt>
      <trkpt lat="59.293207" lon="17.821143">
        <ele>7</ele>
        <time>2015-05-05T19:50:25Z</time>
      </trkpt>
      <trkpt lat="59.293213" lon="17.821272">
        <ele>7.1</ele>
        <time>2015-05-05T19:50:26Z</time>
      </trkpt>
      <trkpt lat="59.293232" lon="17.821382">
        <ele>7.3</ele>
        <time>2015-05-05T19:50:27Z</time>
      </trkpt>
      <trkpt lat="59.293243" lon="17.821512">
        <ele>7.4</ele>
        <time>2015-05-05T19:50:28Z</time>
      </trkpt>
      <trkpt lat="59.293262" lon="17.82164">
        <ele>7.6</ele>
        <time>2015-05-05T19:50:29Z</time>
      </trkpt>
      <trkpt lat="59.293291" lon="17.821795">
        <ele>7.9</ele>
        <time>2015-05-05T19:50:30Z</time>
      </trkpt>
      <trkpt lat="59.29331" lon="17.821927">
        <ele>8.2</ele>
        <time>2015-05-05T19:50:31Z</time>
      </trkpt>
      <trkpt lat="59.293327" lon="17.822064">
        <ele>8.4</ele>
        <time>2015-05-05T19:50:32Z</time>
      </trkpt>
      <trkpt lat="59.293345" lon="17.822176">
        <ele>8.6</ele>
        <time>2015-05-05T19:50:33Z</time>
      </trkpt>
      <trkpt lat="59.293361" lon="17.822329">
        <ele>8.6</ele>
        <time>2015-05-05T19:50:34Z</time>
      </trkpt>
      <trkpt lat="59.293391" lon="17.822491">
        <ele>8.8</ele>
        <time>2015-05-05T19:50:35Z</time>
      </trkpt>
      <trkpt lat="59.293408" lon="17.822632">
        <ele>8.9</ele>
        <time>2015-05-05T19:50:36Z</time>
      </trkpt>
      <trkpt lat="59.293418" lon="17.822791">
        <ele>8.9</ele>
        <time>2015-05-05T19:50:37Z</time>
      </trkpt>
      <trkpt lat="59.293446" lon="17.822942">
        <ele>9.1</ele>
        <time>2015-05-05T19:50:38Z</time>
      </trkpt>
      <trkpt lat="59.293467" lon="17.823099">
        <ele>9.2</ele>
        <time>2015-05-05T19:50:39Z</time>
      </trkpt>
      <trkpt lat="59.293491" lon="17.82326">
        <ele>9.4</ele>
        <time>2015-05-05T19:50:40Z</time>
      </trkpt>
      <trkpt lat="59.293519" lon="17.823398">
        <ele>9.5</ele>
        <time>2015-05-05T19:50:41Z</time>
      </trkpt>
      <trkpt lat="59.293534" lon="17.823536">
        <ele>9.6</ele>
        <time>2015-05-05T19:50:42Z</time>
      </trkpt>
      <trkpt lat="59.29355" lon="17.823689">
        <ele>9.6</ele>
        <time>2015-05-05T19:50:43Z</time>
      </trkpt>
      <trkpt lat="59.293569" lon="17.823848">
        <ele>9.8</ele>
        <time>2015-05-05T19:50:44Z</time>
      </trkpt>
      <trkpt lat="59.293571" lon="17.824003">
        <ele>9.9</ele>
        <time>2015-05-05T19:50:45Z</time>
      </trkpt>
      <trkpt lat="59.293571" lon="17.824178">
        <ele>10.1</ele>
        <time>2015-05-05T19:50:46Z</time>
      </trkpt>
      <trkpt lat="59.293582" lon="17.824342">
        <ele>10.4</ele>
        <time>2015-05-05T19:50:47Z</time>
      </trkpt>
      <trkpt lat="59.293588" lon="17.824508">
        <ele>10.6</ele>
        <time>2015-05-05T19:50:48Z</time>
      </trkpt>
      <trkpt lat="59.293595" lon="17.824675">
        <ele>10.8</ele>
        <time>2015-05-05T19:50:49Z</time>
      </trkpt>
      <trkpt lat="59.293583" lon="17.824864">
        <ele>10.9</ele>
        <time>2015-05-05T19:50:50Z</time>
      </trkpt>
      <trkpt lat="59.293582" lon="17.825023">
        <ele>11</ele>
        <time>2015-05-05T19:50:51Z</time>
      </trkpt>
      <trkpt lat="59.293578" lon="17.825176">
        <ele>11.1</ele>
        <time>2015-05-05T19:50:52Z</time>
      </trkpt>
      <trkpt lat="59.293585" lon="17.825336">
        <ele>11.3</ele>
        <time>2015-05-05T19:50:53Z</time>
      </trkpt>
      <trkpt lat="59.293587" lon="17.825511">
        <ele>11.4</ele>
        <time>2015-05-05T19:50:54Z</time>
      </trkpt>
      <trkpt lat="59.293582" lon="17.825646">
        <ele>11.4</ele>
        <time>2015-05-05T19:50:55Z</time>
      </trkpt>
      <trkpt lat="59.29359" lon="17.82582">
        <ele>11.5</ele>
        <time>2015-05-05T19:50:56Z</time>
      </trkpt>
      <trkpt lat="59.293599" lon="17.825937">
        <ele>11.6</ele>
        <time>2015-05-05T19:50:57Z</time>
      </trkpt>
      <trkpt lat="59.293611" lon="17.826074">
        <ele>11.7</ele>
        <time>2015-05-05T19:50:58Z</time>
      </trkpt>
      <trkpt lat="59.293617" lon="17.826218">
        <ele>11.7</ele>
        <time>2015-05-05T19:50:59Z</time>
      </trkpt>
      <trkpt lat="59.29364" lon="17.826376">
        <ele>11.8</ele>
        <time>2015-05-05T19:51:00Z</time>
      </trkpt>
      <trkpt lat="59.293662" lon="17.826524">
        <ele>11.9</ele>
        <time>2015-05-05T19:51:01Z</time>
      </trkpt>
      <trkpt lat="59.293668" lon="17.826666">
        <ele>11.8</ele>
        <time>2015-05-05T19:51:02Z</time>
      </trkpt>
      <trkpt lat="59.293692" lon="17.826802">
        <ele>11.8</ele>
        <time>2015-05-05T19:51:03Z</time>
      </trkpt>
      <trkpt lat="59.293716" lon="17.826948">
        <ele>11.9</ele>
        <time>2015-05-05T19:51:04Z</time>
      </trkpt>
      <trkpt lat="59.293741" lon="17.827084">
        <ele>11.9</ele>
        <time>2015-05-05T19:51:05Z</time>
      </trkpt>
      <trkpt lat="59.293759" lon="17.827216">
        <ele>12.1</ele>
        <time>2015-05-05T19:51:06Z</time>
      </trkpt>
      <trkpt lat="59.293793" lon="17.827352">
        <ele>12.7</ele>
        <time>2015-05-05T19:51:07Z</time>
      </trkpt>
      <trkpt lat="59.293806" lon="17.827486">
        <ele>12.9</ele>
        <time>2015-05-05T19:51:08Z</time>
      </trkpt>
      <trkpt lat="59.293841" lon="17.8276">
        <ele>13.5</ele>
        <time>2015-05-05T19:51:09Z</time>
      </trkpt>
      <trkpt lat="59.293873" lon="17.827728">
        <ele>14</ele>
        <time>2015-05-05T19:51:10Z</time>
      </trkpt>
      <trkpt lat="59.293914" lon="17.827872">
        <ele>14.6</ele>
        <time>2015-05-05T19:51:11Z</time>
      </trkpt>
      <trkpt lat="59.293936" lon="17.827979">
        <ele>14.8</ele>
        <time>2015-05-05T19:51:12Z</time>
      </trkpt>
      <trkpt lat="59.293972" lon="17.828094">
        <ele>15.2</ele>
        <time>2015-05-05T19:51:13Z</time>
      </trkpt>
      <trkpt lat="59.294018" lon="17.82822">
        <ele>15.7</ele>
        <time>2015-05-05T19:51:14Z</time>
      </trkpt>
      <trkpt lat="59.294046" lon="17.828325">
        <ele>15.9</ele>
        <time>2015-05-05T19:51:15Z</time>
      </trkpt>
      <trkpt lat="59.294084" lon="17.828443">
        <ele>16.2</ele>
        <time>2015-05-05T19:51:16Z</time>
      </trkpt>
      <trkpt lat="59.294117" lon="17.828559">
        <ele>16.4</ele>
        <time>2015-05-05T19:51:17Z</time>
      </trkpt>
      <trkpt lat="59.294159" lon="17.828682">
        <ele>16.6</ele>
        <time>2015-05-05T19:51:18Z</time>
      </trkpt>
      <trkpt lat="59.29419" lon="17.828794">
        <ele>16.9</ele>
        <time>2015-05-05T19:51:19Z</time>
      </trkpt>
      <trkpt lat="59.294215" lon="17.828909">
        <ele>17.1</ele>
        <time>2015-05-05T19:51:20Z</time>
      </trkpt>
      <trkpt lat="59.294254" lon="17.829015">
        <ele>17.6</ele>
        <time>2015-05-05T19:51:21Z</time>
      </trkpt>
      <trkpt lat="59.294291" lon="17.829143">
        <ele>17.8</ele>
        <time>2015-05-05T19:51:22Z</time>
      </trkpt>
      <trkpt lat="59.294325" lon="17.829258">
        <ele>18</ele>
        <time>2015-05-05T19:51:23Z</time>
      </trkpt>
      <trkpt lat="59.294358" lon="17.829375">
        <ele>18.2</ele>
        <time>2015-05-05T19:51:24Z</time>
      </trkpt>
      <trkpt lat="59.294391" lon="17.829511">
        <ele>18.1</ele>
        <time>2015-05-05T19:51:25Z</time>
      </trkpt>
      <trkpt lat="59.294425" lon="17.829655">
        <ele>18</ele>
        <time>2015-05-05T19:51:26Z</time>
      </trkpt>
      <trkpt lat="59.294457" lon="17.82981">
        <ele>17.8</ele>
        <time>2015-05-05T19:51:27Z</time>
      </trkpt>
      <trkpt lat="59.294473" lon="17.829941">
        <ele>17.4</ele>
        <time>2015-05-05T19:51:28Z</time>
      </trkpt>
      <trkpt lat="59.294477" lon="17.830096">
        <ele>16.9</ele>
        <time>2015-05-05T19:51:29Z</time>
      </trkpt>
      <trkpt lat="59.294493" lon="17.830243">
        <ele>16.4</ele>
        <time>2015-05-05T19:51:30Z</time>
      </trkpt>
      <trkpt lat="59.294521" lon="17.830415">
        <ele>15.8</ele>
        <time>2015-05-05T19:51:31Z</time>
      </trkpt>
      <trkpt lat="59.294535" lon="17.830572">
        <ele>15.3</ele>
        <time>2015-05-05T19:51:32Z</time>
      </trkpt>
      <trkpt lat="59.294543" lon="17.83072">
        <ele>14.8</ele>
        <time>2015-05-05T19:51:33Z</time>
      </trkpt>
      <trkpt lat="59.294545" lon="17.830864">
        <ele>14.3</ele>
        <time>2015-05-05T19:51:34Z</time>
      </trkpt>
      <trkpt lat="59.294565" lon="17.831017">
        <ele>13.8</ele>
        <time>2015-05-05T19:51:35Z</time>
      </trkpt>
      <trkpt lat="59.29457" lon="17.831179">
        <ele>13.2</ele>
        <time>2015-05-05T19:51:36Z</time>
      </trkpt>
      <trkpt lat="59.294574" lon="17.831354">
        <ele>12.5</ele>
        <time>2015-05-05T19:51:37Z</time>
      </trkpt>
      <trkpt lat="59.29458" lon="17.831501">
        <ele>11.8</ele>
        <time>2015-05-05T19:51:38Z</time>
      </trkpt>
      <trkpt lat="59.294608" lon="17.831672">
        <ele>11.6</ele>
        <time>2015-05-05T19:51:39Z</time>
      </trkpt>
      <trkpt lat="59.294621" lon="17.831844">
        <ele>11.1</ele>
        <time>2015-05-05T19:51:40Z</time>
      </trkpt>
      <trkpt lat="59.294637" lon="17.83201">
        <ele>10.8</ele>
        <time>2015-05-05T19:51:41Z</time>
      </trkpt>
      <trkpt lat="59.294661" lon="17.832174">
        <ele>10.9</ele>
        <time>2015-05-05T19:51:42Z</time>
      </trkpt>
      <trkpt lat="59.294699" lon="17.832362">
        <ele>11.6</ele>
        <time>2015-05-05T19:51:43Z</time>
      </trkpt>
      <trkpt lat="59.29472" lon="17.832535">
        <ele>11.9</ele>
        <time>2015-05-05T19:51:44Z</time>
      </trkpt>
      <trkpt lat="59.294736" lon="17.832693">
        <ele>12</ele>
        <time>2015-05-05T19:51:45Z</time>
      </trkpt>
      <trkpt lat="59.294757" lon="17.832862">
        <ele>12.3</ele>
        <time>2015-05-05T19:51:46Z</time>
      </trkpt>
      <trkpt lat="59.294791" lon="17.833037">
        <ele>12.7</ele>
        <time>2015-05-05T19:51:47Z</time>
      </trkpt>
      <trkpt lat="59.294809" lon="17.833204">
        <ele>12.8</ele>
        <time>2015-05-05T19:51:48Z</time>
      </trkpt>
      <trkpt lat="59.29483" lon="17.833378">
        <ele>12.9</ele>
        <time>2015-05-05T19:51:49Z</time>
      </trkpt>
      <trkpt lat="59.294856" lon="17.833576">
        <ele>13</ele>
        <time>2015-05-05T19:51:50Z</time>
      </trkpt>
      <trkpt lat="59.294872" lon="17.833736">
        <ele>12.9</ele>
        <time>2015-05-05T19:51:51Z</time>
      </trkpt>
      <trkpt lat="59.29489" lon="17.833912">
        <ele>12.9</ele>
        <time>2015-05-05T19:51:52Z</time>
      </trkpt>
      <trkpt lat="59.294913" lon="17.834104">
        <ele>13</ele>
        <time>2015-05-05T19:51:53Z</time>
      </trkpt>
      <trkpt lat="59.294918" lon="17.834295">
        <ele>12.6</ele>
        <time>2015-05-05T19:51:54Z</time>
      </trkpt>
      <trkpt lat="59.294913" lon="17.834464">
        <ele>12.2</ele>
        <time>2015-05-05T19:51:55Z</time>
      </trkpt>
      <trkpt lat="59.294919" lon="17.834642">
        <ele>11.8</ele>
        <time>2015-05-05T19:51:56Z</time>
      </trkpt>
      <trkpt lat="59.294912" lon="17.834799">
        <ele>11.2</ele>
        <time>2015-05-05T19:51:57Z</time>
      </trkpt>
      <trkpt lat="59.294909" lon="17.834986">
        <ele>10.5</ele>
        <time>2015-05-05T19:51:58Z</time>
      </trkpt>
      <trkpt lat="59.294899" lon="17.835183">
        <ele>9.7</ele>
        <time>2015-05-05T19:51:59Z</time>
      </trkpt>
      <trkpt lat="59.294901" lon="17.835349">
        <ele>9.2</ele>
        <time>2015-05-05T19:52:00Z</time>
      </trkpt>
      <trkpt lat="59.294899" lon="17.835497">
        <ele>8.9</ele>
        <time>2015-05-05T19:52:01Z</time>
      </trkpt>
      <trkpt lat="59.294913" lon="17.835695">
        <ele>9</ele>
        <time>2015-05-05T19:52:02Z</time>
      </trkpt>
      <trkpt lat="59.294904" lon="17.835852">
        <ele>8.8</ele>
        <time>2015-05-05T19:52:03Z</time>
      </trkpt>
      <trkpt lat="59.294907" lon="17.836037">
        <ele>8.8</ele>
        <time>2015-05-05T19:52:04Z</time>
      </trkpt>
      <trkpt lat="59.294899" lon="17.836222">
        <ele>8.6</ele>
        <time>2015-05-05T19:52:05Z</time>
      </trkpt>
      <trkpt lat="59.2949" lon="17.836388">
        <ele>8.5</ele>
        <time>2015-05-05T19:52:06Z</time>
      </trkpt>
      <trkpt lat="59.294899" lon="17.836537">
        <ele>8.5</ele>
        <time>2015-05-05T19:52:07Z</time>
      </trkpt>
      <trkpt lat="59.294905" lon="17.836695">
        <ele>8.5</ele>
        <time>2015-05-05T19:52:08Z</time>
      </trkpt>
      <trkpt lat="59.29492" lon="17.836844">
        <ele>8.7</ele>
        <time>2015-05-05T19:52:09Z</time>
      </trkpt>
      <trkpt lat="59.29494" lon="17.836993">
        <ele>8.9</ele>
        <time>2015-05-05T19:52:10Z</time>
      </trkpt>
      <trkpt lat="59.294969" lon="17.837131">
        <ele>9.1</ele>
        <time>2015-05-05T19:52:11Z</time>
      </trkpt>
      <trkpt lat="59.295002" lon="17.837279">
        <ele>9.3</ele>
        <time>2015-05-05T19:52:12Z</time>
      </trkpt>
      <trkpt lat="59.295039" lon="17.837404">
        <ele>9.5</ele>
        <time>2015-05-05T19:52:13Z</time>
      </trkpt>
      <trkpt lat="59.295083" lon="17.837532">
        <ele>9.8</ele>
        <time>2015-05-05T19:52:14Z</time>
      </trkpt>
      <trkpt lat="59.295127" lon="17.837664">
        <ele>10</ele>
        <time>2015-05-05T19:52:15Z</time>
      </trkpt>
      <trkpt lat="59.295184" lon="17.837795">
        <ele>10.3</ele>
        <time>2015-05-05T19:52:16Z</time>
      </trkpt>
      <trkpt lat="59.29524" lon="17.837901">
        <ele>10.5</ele>
        <time>2015-05-05T19:52:17Z</time>
      </trkpt>
      <trkpt lat="59.295287" lon="17.838017">
        <ele>10.7</ele>
        <time>2015-05-05T19:52:18Z</time>
      </trkpt>
      <trkpt lat="59.295354" lon="17.838117">
        <ele>11</ele>
        <time>2015-05-05T19:52:19Z</time>
      </trkpt>
      <trkpt lat="59.295416" lon="17.838197">
        <ele>11.3</ele>
        <time>2015-05-05T19:52:20Z</time>
      </trkpt>
      <trkpt lat="59.295479" lon="17.838287">
        <ele>11.9</ele>
        <time>2015-05-05T19:52:21Z</time>
      </trkpt>
      <trkpt lat="59.295535" lon="17.838381">
        <ele>12.3</ele>
        <time>2015-05-05T19:52:22Z</time>
      </trkpt>
      <trkpt lat="59.295597" lon="17.838484">
        <ele>12.6</ele>
        <time>2015-05-05T19:52:23Z</time>
      </trkpt>
      <trkpt lat="59.295662" lon="17.838575">
        <ele>13</ele>
        <time>2015-05-05T19:52:24Z</time>
      </trkpt>
      <trkpt lat="59.295721" lon="17.838672">
        <ele>13.2</ele>
        <time>2015-05-05T19:52:25Z</time>
      </trkpt>
      <trkpt lat="59.295783" lon="17.838766">
        <ele>13.5</ele>
        <time>2015-05-05T19:52:26Z</time>
      </trkpt>
      <trkpt lat="59.295844" lon="17.838862">
        <ele>13.7</ele>
        <time>2015-05-05T19:52:27Z</time>
      </trkpt>
      <trkpt lat="59.295901" lon="17.838984">
        <ele>13.8</ele>
        <time>2015-05-05T19:52:28Z</time>
      </trkpt>
      <trkpt lat="59.295961" lon="17.839108">
        <ele>13.8</ele>
        <time>2015-05-05T19:52:29Z</time>
      </trkpt>
      <trkpt lat="59.296019" lon="17.839233">
        <ele>13.8</ele>
        <time>2015-05-05T19:52:30Z</time>
      </trkpt>
      <trkpt lat="59.296069" lon="17.839368">
        <ele>13.6</ele>
        <time>2015-05-05T19:52:31Z</time>
      </trkpt>
      <trkpt lat="59.296108" lon="17.839501">
        <ele>13.3</ele>
        <time>2015-05-05T19:52:32Z</time>
      </trkpt>
      <trkpt lat="59.296146" lon="17.83964">
        <ele>12.9</ele>
        <time>2015-05-05T19:52:33Z</time>
      </trkpt>
      <trkpt lat="59.296176" lon="17.83978">
        <ele>12.3</ele>
        <time>2015-05-05T19:52:34Z</time>
      </trkpt>
      <trkpt lat="59.296213" lon="17.839928">
        <ele>11.7</ele>
        <time>2015-05-05T19:52:35Z</time>
      </trkpt>
      <trkpt lat="59.296239" lon="17.840063">
        <ele>11.1</ele>
        <time>2015-05-05T19:52:36Z</time>
      </trkpt>
      <trkpt lat="59.296263" lon="17.8402">
        <ele>10.4</ele>
        <time>2015-05-05T19:52:37Z</time>
      </trkpt>
      <trkpt lat="59.296284" lon="17.840344">
        <ele>9.7</ele>
        <time>2015-05-05T19:52:38Z</time>
      </trkpt>
      <trkpt lat="59.296304" lon="17.840502">
        <ele>9.5</ele>
        <time>2015-05-05T19:52:39Z</time>
      </trkpt>
      <trkpt lat="59.296325" lon="17.840668">
        <ele>9.8</ele>
        <time>2015-05-05T19:52:40Z</time>
      </trkpt>
      <trkpt lat="59.296346" lon="17.840813">
        <ele>10.1</ele>
        <time>2015-05-05T19:52:41Z</time>
      </trkpt>
      <trkpt lat="59.296359" lon="17.840942">
        <ele>10.3</ele>
        <time>2015-05-05T19:52:42Z</time>
      </trkpt>
      <trkpt lat="59.296378" lon="17.841079">
        <ele>10.6</ele>
        <time>2015-05-05T19:52:43Z</time>
      </trkpt>
      <trkpt lat="59.29639" lon="17.841226">
        <ele>10.8</ele>
        <time>2015-05-05T19:52:44Z</time>
      </trkpt>
      <trkpt lat="59.296404" lon="17.841362">
        <ele>11.1</ele>
        <time>2015-05-05T19:52:45Z</time>
      </trkpt>
      <trkpt lat="59.296419" lon="17.841529">
        <ele>11.4</ele>
        <time>2015-05-05T19:52:46Z</time>
      </trkpt>
      <trkpt lat="59.296424" lon="17.84166">
        <ele>11.6</ele>
        <time>2015-05-05T19:52:47Z</time>
      </trkpt>
      <trkpt lat="59.296438" lon="17.841785">
        <ele>11.9</ele>
        <time>2015-05-05T19:52:48Z</time>
      </trkpt>
      <trkpt lat="59.296464" lon="17.84193">
        <ele>12.5</ele>
        <time>2015-05-05T19:52:49Z</time>
      </trkpt>
      <trkpt lat="59.29647" lon="17.84206">
        <ele>12.7</ele>
        <time>2015-05-05T19:52:50Z</time>
      </trkpt>
      <trkpt lat="59.296489" lon="17.842204">
        <ele>13</ele>
        <time>2015-05-05T19:52:51Z</time>
      </trkpt>
      <trkpt lat="59.29651" lon="17.842359">
        <ele>13.3</ele>
        <time>2015-05-05T19:52:52Z</time>
      </trkpt>
      <trkpt lat="59.296522" lon="17.842519">
        <ele>13.4</ele>
        <time>2015-05-05T19:52:53Z</time>
      </trkpt>
      <trkpt lat="59.29654" lon="17.842665">
        <ele>13.6</ele>
        <time>2015-05-05T19:52:54Z</time>
      </trkpt>
      <trkpt lat="59.296552" lon="17.842817">
        <ele>13.8</ele>
        <time>2015-05-05T19:52:55Z</time>
      </trkpt>
      <trkpt lat="59.296562" lon="17.842978">
        <ele>13.8</ele>
        <time>2015-05-05T19:52:56Z</time>
      </trkpt>
      <trkpt lat="59.296579" lon="17.843139">
        <ele>14</ele>
        <time>2015-05-05T19:52:57Z</time>
      </trkpt>
      <trkpt lat="59.2966" lon="17.843288">
        <ele>14.3</ele>
        <time>2015-05-05T19:52:58Z</time>
      </trkpt>
      <trkpt lat="59.29662" lon="17.843459">
        <ele>14.5</ele>
        <time>2015-05-05T19:52:59Z</time>
      </trkpt>
      <trkpt lat="59.296644" lon="17.843589">
        <ele>14.8</ele>
        <time>2015-05-05T19:53:00Z</time>
      </trkpt>
      <trkpt lat="59.296655" lon="17.843746">
        <ele>14.8</ele>
        <time>2015-05-05T19:53:01Z</time>
      </trkpt>
      <trkpt lat="59.296662" lon="17.843889">
        <ele>14.8</ele>
        <time>2015-05-05T19:53:02Z</time>
      </trkpt>
      <trkpt lat="59.296672" lon="17.844066">
        <ele>14.7</ele>
        <time>2015-05-05T19:53:03Z</time>
      </trkpt>
      <trkpt lat="59.296691" lon="17.844228">
        <ele>14.7</ele>
        <time>2015-05-05T19:53:04Z</time>
      </trkpt>
      <trkpt lat="59.296711" lon="17.844375">
        <ele>14.8</ele>
        <time>2015-05-05T19:53:05Z</time>
      </trkpt>
      <trkpt lat="59.296731" lon="17.844536">
        <ele>14.8</ele>
        <time>2015-05-05T19:53:06Z</time>
      </trkpt>
      <trkpt lat="59.296736" lon="17.844688">
        <ele>14.7</ele>
        <time>2015-05-05T19:53:07Z</time>
      </trkpt>
      <trkpt lat="59.296749" lon="17.844849">
        <ele>14.6</ele>
        <time>2015-05-05T19:53:08Z</time>
      </trkpt>
      <trkpt lat="59.29677" lon="17.84499">
        <ele>14.6</ele>
        <time>2015-05-05T19:53:09Z</time>
      </trkpt>
      <trkpt lat="59.296774" lon="17.845133">
        <ele>14.5</ele>
        <time>2015-05-05T19:53:10Z</time>
      </trkpt>
      <trkpt lat="59.29679" lon="17.845292">
        <ele>14.4</ele>
        <time>2015-05-05T19:53:11Z</time>
      </trkpt>
      <trkpt lat="59.296818" lon="17.84545">
        <ele>14.5</ele>
        <time>2015-05-05T19:53:12Z</time>
      </trkpt>
      <trkpt lat="59.296828" lon="17.845604">
        <ele>14.7</ele>
        <time>2015-05-05T19:53:13Z</time>
      </trkpt>
      <trkpt lat="59.296844" lon="17.845747">
        <ele>15</ele>
        <time>2015-05-05T19:53:14Z</time>
      </trkpt>
      <trkpt lat="59.296864" lon="17.845899">
        <ele>15.2</ele>
        <time>2015-05-05T19:53:15Z</time>
      </trkpt>
      <trkpt lat="59.296873" lon="17.846032">
        <ele>15.4</ele>
        <time>2015-05-05T19:53:16Z</time>
      </trkpt>
      <trkpt lat="59.296887" lon="17.846176">
        <ele>15.5</ele>
        <time>2015-05-05T19:53:17Z</time>
      </trkpt>
      <trkpt lat="59.296899" lon="17.846321">
        <ele>15.6</ele>
        <time>2015-05-05T19:53:18Z</time>
      </trkpt>
      <trkpt lat="59.296907" lon="17.84647">
        <ele>15.7</ele>
        <time>2015-05-05T19:53:19Z</time>
      </trkpt>
      <trkpt lat="59.296895" lon="17.846626">
        <ele>15.8</ele>
        <time>2015-05-05T19:53:20Z</time>
      </trkpt>
      <trkpt lat="59.296856" lon="17.84678">
        <ele>16</ele>
        <time>2015-05-05T19:53:21Z</time>
      </trkpt>
      <trkpt lat="59.296801" lon="17.846906">
        <ele>16.4</ele>
        <time>2015-05-05T19:53:22Z</time>
      </trkpt>
      <trkpt lat="59.296737" lon="17.847008">
        <ele>16.9</ele>
        <time>2015-05-05T19:53:23Z</time>
      </trkpt>
      <trkpt lat="59.296687" lon="17.847132">
        <ele>17.4</ele>
        <time>2015-05-05T19:53:24Z</time>
      </trkpt>
      <trkpt lat="59.296668" lon="17.847262">
        <ele>17.5</ele>
        <time>2015-05-05T19:53:25Z</time>
      </trkpt>
      <trkpt lat="59.296646" lon="17.847397">
        <ele>17.6</ele>
        <time>2015-05-05T19:53:26Z</time>
      </trkpt>
      <trkpt lat="59.296657" lon="17.847531">
        <ele>17.6</ele>
        <time>2015-05-05T19:53:27Z</time>
      </trkpt>
      <trkpt lat="59.296666" lon="17.847644">
        <ele>17.5</ele>
        <time>2015-05-05T19:53:28Z</time>
      </trkpt>
      <trkpt lat="59.296687" lon="17.847751">
        <ele>17.4</ele>
        <time>2015-05-05T19:53:29Z</time>
      </trkpt>
      <trkpt lat="59.296717" lon="17.847857">
        <ele>17.2</ele>
        <time>2015-05-05T19:53:30Z</time>
      </trkpt>
      <trkpt lat="59.296754" lon="17.847956">
        <ele>17</ele>
        <time>2015-05-05T19:53:31Z</time>
      </trkpt>
      <trkpt lat="59.296787" lon="17.848055">
        <ele>16.9</ele>
        <time>2015-05-05T19:53:32Z</time>
      </trkpt>
      <trkpt lat="59.296816" lon="17.848154">
        <ele>16.9</ele>
        <time>2015-05-05T19:53:33Z</time>
      </trkpt>
      <trkpt lat="59.29684" lon="17.848249">
        <ele>16.9</ele>
        <time>2015-05-05T19:53:34Z</time>
      </trkpt>
      <trkpt lat="59.296869" lon="17.848335">
        <ele>16.8</ele>
        <time>2015-05-05T19:53:35Z</time>
      </trkpt>
      <trkpt lat="59.296896" lon="17.848428">
        <ele>16.7</ele>
        <time>2015-05-05T19:53:36Z</time>
      </trkpt>
      <trkpt lat="59.296924" lon="17.848513">
        <ele>16.7</ele>
        <time>2015-05-05T19:53:37Z</time>
      </trkpt>
      <trkpt lat="59.296947" lon="17.848605">
        <ele>16.6</ele>
        <time>2015-05-05T19:53:38Z</time>
      </trkpt>
      <trkpt lat="59.296978" lon="17.848701">
        <ele>16.6</ele>
        <time>2015-05-05T19:53:39Z</time>
      </trkpt>
      <trkpt lat="59.297007" lon="17.848787">
        <ele>16.5</ele>
        <time>2015-05-05T19:53:40Z</time>
      </trkpt>
      <trkpt lat="59.297037" lon="17.848881">
        <ele>16.3</ele>
        <time>2015-05-05T19:53:41Z</time>
      </trkpt>
      <trkpt lat="59.297065" lon="17.848988">
        <ele>16.1</ele>
        <time>2015-05-05T19:53:42Z</time>
      </trkpt>
      <trkpt lat="59.297087" lon="17.849075">
        <ele>16</ele>
        <time>2015-05-05T19:53:43Z</time>
      </trkpt>
      <trkpt lat="59.297114" lon="17.849165">
        <ele>16.4</ele>
        <time>2015-05-05T19:53:44Z</time>
      </trkpt>
      <trkpt lat="59.297136" lon="17.849256">
        <ele>16.6</ele>
        <time>2015-05-05T19:53:45Z</time>
      </trkpt>
      <trkpt lat="59.297163" lon="17.849344">
        <ele>16.9</ele>
        <time>2015-05-05T19:53:46Z</time>
      </trkpt>
      <trkpt lat="59.29719" lon="17.849416">
        <ele>17.2</ele>
        <time>2015-05-05T19:53:47Z</time>
      </trkpt>
      <trkpt lat="59.297211" lon="17.849496">
        <ele>17.4</ele>
        <time>2015-05-05T19:53:48Z</time>
      </trkpt>
      <trkpt lat="59.29724" lon="17.849576">
        <ele>17.7</ele>
        <time>2015-05-05T19:53:49Z</time>
      </trkpt>
      <trkpt lat="59.297271" lon="17.849654">
        <ele>17.9</ele>
        <time>2015-05-05T19:53:50Z</time>
      </trkpt>
      <trkpt lat="59.297297" lon="17.849738">
        <ele>18</ele>
        <time>2015-05-05T19:53:51Z</time>
      </trkpt>
      <trkpt lat="59.297312" lon="17.849819">
        <ele>18</ele>
        <time>2015-05-05T19:53:52Z</time>
      </trkpt>
      <trkpt lat="59.297331" lon="17.849914">
        <ele>18</ele>
        <time>2015-05-05T19:53:53Z</time>
      </trkpt>
      <trkpt lat="59.297341" lon="17.85001">
        <ele>18</ele>
        <time>2015-05-05T19:53:54Z</time>
      </trkpt>
      <trkpt lat="59.297361" lon="17.850095">
        <ele>18</ele>
        <time>2015-05-05T19:53:55Z</time>
      </trkpt>
      <trkpt lat="59.297378" lon="17.850195">
        <ele>17.9</ele>
        <time>2015-05-05T19:53:56Z</time>
      </trkpt>
      <trkpt lat="59.297391" lon="17.850304">
        <ele>17.8</ele>
        <time>2015-05-05T19:53:57Z</time>
      </trkpt>
      <trkpt lat="59.297409" lon="17.850418">
        <ele>17.7</ele>
        <time>2015-05-05T19:53:58Z</time>
      </trkpt>
      <trkpt lat="59.297427" lon="17.850538">
        <ele>17.9</ele>
        <time>2015-05-05T19:53:59Z</time>
      </trkpt>
      <trkpt lat="59.297455" lon="17.850671">
        <ele>18.1</ele>
        <time>2015-05-05T19:54:00Z</time>
      </trkpt>
      <trkpt lat="59.297473" lon="17.850793">
        <ele>18.3</ele>
        <time>2015-05-05T19:54:01Z</time>
      </trkpt>
      <trkpt lat="59.297488" lon="17.85091">
        <ele>18.4</ele>
        <time>2015-05-05T19:54:02Z</time>
      </trkpt>
      <trkpt lat="59.297512" lon="17.851029">
        <ele>18.6</ele>
        <time>2015-05-05T19:54:03Z</time>
      </trkpt>
      <trkpt lat="59.297541" lon="17.851141">
        <ele>18.8</ele>
        <time>2015-05-05T19:54:04Z</time>
      </trkpt>
      <trkpt lat="59.29757" lon="17.851297">
        <ele>19</ele>
        <time>2015-05-05T19:54:05Z</time>
      </trkpt>
      <trkpt lat="59.297587" lon="17.851434">
        <ele>19</ele>
        <time>2015-05-05T19:54:06Z</time>
      </trkpt>
      <trkpt lat="59.297609" lon="17.851569">
        <ele>19</ele>
        <time>2015-05-05T19:54:07Z</time>
      </trkpt>
      <trkpt lat="59.297627" lon="17.851685">
        <ele>19</ele>
        <time>2015-05-05T19:54:08Z</time>
      </trkpt>
      <trkpt lat="59.297635" lon="17.851797">
        <ele>19</ele>
        <time>2015-05-05T19:54:09Z</time>
      </trkpt>
      <trkpt lat="59.297658" lon="17.851924">
        <ele>19</ele>
        <time>2015-05-05T19:54:10Z</time>
      </trkpt>
      <trkpt lat="59.29767" lon="17.852049">
        <ele>19</ele>
        <time>2015-05-05T19:54:11Z</time>
      </trkpt>
      <trkpt lat="59.297714" lon="17.852154">
        <ele>18.9</ele>
        <time>2015-05-05T19:54:12Z</time>
      </trkpt>
      <trkpt lat="59.297755" lon="17.852279">
        <ele>18.6</ele>
        <time>2015-05-05T19:54:13Z</time>
      </trkpt>
      <trkpt lat="59.297791" lon="17.852419">
        <ele>18.1</ele>
        <time>2015-05-05T19:54:14Z</time>
      </trkpt>
      <trkpt lat="59.29783" lon="17.852585">
        <ele>17.4</ele>
        <time>2015-05-05T19:54:15Z</time>
      </trkpt>
      <trkpt lat="59.297865" lon="17.852739">
        <ele>16.8</ele>
        <time>2015-05-05T19:54:16Z</time>
      </trkpt>
      <trkpt lat="59.297896" lon="17.852912">
        <ele>15.9</ele>
        <time>2015-05-05T19:54:17Z</time>
      </trkpt>
      <trkpt lat="59.297931" lon="17.85308">
        <ele>15</ele>
        <time>2015-05-05T19:54:18Z</time>
      </trkpt>
      <trkpt lat="59.297973" lon="17.853252">
        <ele>14.4</ele>
        <time>2015-05-05T19:54:19Z</time>
      </trkpt>
      <trkpt lat="59.298016" lon="17.853404">
        <ele>13.8</ele>
        <time>2015-05-05T19:54:20Z</time>
      </trkpt>
      <trkpt lat="59.298066" lon="17.853552">
        <ele>13.3</ele>
        <time>2015-05-05T19:54:21Z</time>
      </trkpt>
      <trkpt lat="59.298118" lon="17.853697">
        <ele>12.8</ele>
        <time>2015-05-05T19:54:22Z</time>
      </trkpt>
      <trkpt lat="59.298192" lon="17.853834">
        <ele>12.9</ele>
        <time>2015-05-05T19:54:23Z</time>
      </trkpt>
      <trkpt lat="59.298262" lon="17.853949">
        <ele>13.2</ele>
        <time>2015-05-05T19:54:24Z</time>
      </trkpt>
      <trkpt lat="59.298352" lon="17.854034">
        <ele>13.7</ele>
        <time>2015-05-05T19:54:25Z</time>
      </trkpt>
      <trkpt lat="59.298448" lon="17.854115">
        <ele>14.1</ele>
        <time>2015-05-05T19:54:26Z</time>
      </trkpt>
      <trkpt lat="59.298554" lon="17.854162">
        <ele>14.8</ele>
        <time>2015-05-05T19:54:27Z</time>
      </trkpt>
      <trkpt lat="59.298641" lon="17.854161">
        <ele>15.6</ele>
        <time>2015-05-05T19:54:28Z</time>
      </trkpt>
      <trkpt lat="59.298739" lon="17.854136">
        <ele>16.7</ele>
        <time>2015-05-05T19:54:29Z</time>
      </trkpt>
      <trkpt lat="59.298821" lon="17.854078">
        <ele>17.1</ele>
        <time>2015-05-05T19:54:30Z</time>
      </trkpt>
      <trkpt lat="59.29891" lon="17.853993">
        <ele>17.6</ele>
        <time>2015-05-05T19:54:31Z</time>
      </trkpt>
      <trkpt lat="59.298977" lon="17.853877">
        <ele>18.4</ele>
        <time>2015-05-05T19:54:32Z</time>
      </trkpt>
      <trkpt lat="59.299045" lon="17.853749">
        <ele>19.3</ele>
        <time>2015-05-05T19:54:33Z</time>
      </trkpt>
      <trkpt lat="59.29911" lon="17.853645">
        <ele>20.2</ele>
        <time>2015-05-05T19:54:34Z</time>
      </trkpt>
      <trkpt lat="59.299186" lon="17.853522">
        <ele>21.1</ele>
        <time>2015-05-05T19:54:35Z</time>
      </trkpt>
      <trkpt lat="59.299246" lon="17.853399">
        <ele>22.1</ele>
        <time>2015-05-05T19:54:36Z</time>
      </trkpt>
      <trkpt lat="59.299301" lon="17.853268">
        <ele>23.1</ele>
        <time>2015-05-05T19:54:37Z</time>
      </trkpt>
      <trkpt lat="59.299365" lon="17.853161">
        <ele>23.8</ele>
        <time>2015-05-05T19:54:38Z</time>
      </trkpt>
      <trkpt lat="59.299414" lon="17.853051">
        <ele>24.6</ele>
        <time>2015-05-05T19:54:39Z</time>
      </trkpt>
      <trkpt lat="59.299447" lon="17.852911">
        <ele>25.7</ele>
        <time>2015-05-05T19:54:40Z</time>
      </trkpt>
      <trkpt lat="59.299476" lon="17.852768">
        <ele>26.6</ele>
        <time>2015-05-05T19:54:41Z</time>
      </trkpt>
      <trkpt lat="59.299505" lon="17.852617">
        <ele>27.6</ele>
        <time>2015-05-05T19:54:42Z</time>
      </trkpt>
      <trkpt lat="59.299537" lon="17.852465">
        <ele>28.5</ele>
        <time>2015-05-05T19:54:43Z</time>
      </trkpt>
      <trkpt lat="59.299561" lon="17.852359">
        <ele>29.2</ele>
        <time>2015-05-05T19:54:44Z</time>
      </trkpt>
      <trkpt lat="59.299586" lon="17.852224">
        <ele>29.9</ele>
        <time>2015-05-05T19:54:45Z</time>
      </trkpt>
      <trkpt lat="59.299602" lon="17.852106">
        <ele>30.4</ele>
        <time>2015-05-05T19:54:46Z</time>
      </trkpt>
      <trkpt lat="59.299619" lon="17.851985">
        <ele>30.5</ele>
        <time>2015-05-05T19:54:47Z</time>
      </trkpt>
      <trkpt lat="59.299687" lon="17.851914">
        <ele>29.1</ele>
        <time>2015-05-05T19:54:48Z</time>
      </trkpt>
      <trkpt lat="59.299736" lon="17.851879">
        <ele>28.1</ele>
        <time>2015-05-05T19:54:49Z</time>
      </trkpt>
      <trkpt lat="59.299789" lon="17.85189">
        <ele>26.9</ele>
        <time>2015-05-05T19:54:50Z</time>
      </trkpt>
      <trkpt lat="59.299852" lon="17.851939">
        <ele>25.4</ele>
        <time>2015-05-05T19:54:51Z</time>
      </trkpt>
      <trkpt lat="59.299903" lon="17.851998">
        <ele>24.2</ele>
        <time>2015-05-05T19:54:52Z</time>
      </trkpt>
      <trkpt lat="59.299961" lon="17.852071">
        <ele>22.9</ele>
        <time>2015-05-05T19:54:53Z</time>
      </trkpt>
      <trkpt lat="59.300013" lon="17.852138">
        <ele>21.4</ele>
        <time>2015-05-05T19:54:54Z</time>
      </trkpt>
      <trkpt lat="59.300063" lon="17.852208">
        <ele>20</ele>
        <time>2015-05-05T19:54:55Z</time>
      </trkpt>
      <trkpt lat="59.300119" lon="17.852273">
        <ele>18.5</ele>
        <time>2015-05-05T19:54:56Z</time>
      </trkpt>
      <trkpt lat="59.300165" lon="17.852337">
        <ele>17.2</ele>
        <time>2015-05-05T19:54:57Z</time>
      </trkpt>
      <trkpt lat="59.300231" lon="17.852408">
        <ele>15.6</ele>
        <time>2015-05-05T19:54:58Z</time>
      </trkpt>
      <trkpt lat="59.300285" lon="17.852479">
        <ele>14.2</ele>
        <time>2015-05-05T19:54:59Z</time>
      </trkpt>
      <trkpt lat="59.300341" lon="17.852545">
        <ele>12.8</ele>
        <time>2015-05-05T19:55:00Z</time>
      </trkpt>
      <trkpt lat="59.300394" lon="17.852622">
        <ele>11.5</ele>
        <time>2015-05-05T19:55:01Z</time>
      </trkpt>
      <trkpt lat="59.300436" lon="17.8527">
        <ele>10.7</ele>
        <time>2015-05-05T19:55:02Z</time>
      </trkpt>
      <trkpt lat="59.30049" lon="17.852804">
        <ele>10.3</ele>
        <time>2015-05-05T19:55:03Z</time>
      </trkpt>
      <trkpt lat="59.300556" lon="17.852869">
        <ele>10</ele>
        <time>2015-05-05T19:55:04Z</time>
      </trkpt>
      <trkpt lat="59.300611" lon="17.852925">
        <ele>9.7</ele>
        <time>2015-05-05T19:55:05Z</time>
      </trkpt>
      <trkpt lat="59.300683" lon="17.852985">
        <ele>9.5</ele>
        <time>2015-05-05T19:55:06Z</time>
      </trkpt>
      <trkpt lat="59.30075" lon="17.85305">
        <ele>9.2</ele>
        <time>2015-05-05T19:55:07Z</time>
      </trkpt>
      <trkpt lat="59.300827" lon="17.853105">
        <ele>9.1</ele>
        <time>2015-05-05T19:55:08Z</time>
      </trkpt>
      <trkpt lat="59.300894" lon="17.853137">
        <ele>8.9</ele>
        <time>2015-05-05T19:55:09Z</time>
      </trkpt>
      <trkpt lat="59.300956" lon="17.853164">
        <ele>8.8</ele>
        <time>2015-05-05T19:55:10Z</time>
      </trkpt>
      <trkpt lat="59.301036" lon="17.853185">
        <ele>8.8</ele>
        <time>2015-05-05T19:55:11Z</time>
      </trkpt>
      <trkpt lat="59.301112" lon="17.853229">
        <ele>8.7</ele>
        <time>2015-05-05T19:55:12Z</time>
      </trkpt>
      <trkpt lat="59.301187" lon="17.853259">
        <ele>8.6</ele>
        <time>2015-05-05T19:55:13Z</time>
      </trkpt>
      <trkpt lat="59.301264" lon="17.853321">
        <ele>8.5</ele>
        <time>2015-05-05T19:55:14Z</time>
      </trkpt>
      <trkpt lat="59.301334" lon="17.853385">
        <ele>8.6</ele>
        <time>2015-05-05T19:55:15Z</time>
      </trkpt>
      <trkpt lat="59.301406" lon="17.85345">
        <ele>8.7</ele>
        <time>2015-05-05T19:55:16Z</time>
      </trkpt>
      <trkpt lat="59.301483" lon="17.853498">
        <ele>8.8</ele>
        <time>2015-05-05T19:55:17Z</time>
      </trkpt>
      <trkpt lat="59.301554" lon="17.853556">
        <ele>8.9</ele>
        <time>2015-05-05T19:55:18Z</time>
      </trkpt>
      <trkpt lat="59.301625" lon="17.853614">
        <ele>9</ele>
        <time>2015-05-05T19:55:19Z</time>
      </trkpt>
      <trkpt lat="59.301694" lon="17.853597">
        <ele>9.2</ele>
        <time>2015-05-05T19:55:20Z</time>
      </trkpt>
      <trkpt lat="59.301754" lon="17.853648">
        <ele>9.3</ele>
        <time>2015-05-05T19:55:21Z</time>
      </trkpt>
      <trkpt lat="59.301817" lon="17.853694">
        <ele>9.4</ele>
        <time>2015-05-05T19:55:22Z</time>
      </trkpt>
      <trkpt lat="59.301881" lon="17.853761">
        <ele>9.5</ele>
        <time>2015-05-05T19:55:23Z</time>
      </trkpt>
      <trkpt lat="59.301937" lon="17.853805">
        <ele>9.6</ele>
        <time>2015-05-05T19:55:24Z</time>
      </trkpt>
      <trkpt lat="59.301982" lon="17.853833">
        <ele>9.7</ele>
        <time>2015-05-05T19:55:25Z</time>
      </trkpt>
      <trkpt lat="59.302036" lon="17.853881">
        <ele>9.9</ele>
        <time>2015-05-05T19:55:26Z</time>
      </trkpt>
      <trkpt lat="59.302087" lon="17.853921">
        <ele>10</ele>
        <time>2015-05-05T19:55:27Z</time>
      </trkpt>
      <trkpt lat="59.302124" lon="17.853951">
        <ele>10.4</ele>
        <time>2015-05-05T19:55:28Z</time>
      </trkpt>
      <trkpt lat="59.302192" lon="17.854">
        <ele>11.1</ele>
        <time>2015-05-05T19:55:29Z</time>
      </trkpt>
      <trkpt lat="59.302257" lon="17.85402">
        <ele>11.7</ele>
        <time>2015-05-05T19:55:30Z</time>
      </trkpt>
      <trkpt lat="59.30232" lon="17.854054">
        <ele>12.3</ele>
        <time>2015-05-05T19:55:31Z</time>
      </trkpt>
      <trkpt lat="59.302358" lon="17.854061">
        <ele>12.7</ele>
        <time>2015-05-05T19:55:32Z</time>
      </trkpt>
      <trkpt lat="59.30241" lon="17.854097">
        <ele>13.2</ele>
        <time>2015-05-05T19:55:33Z</time>
      </trkpt>
      <trkpt lat="59.302462" lon="17.854121">
        <ele>13.7</ele>
        <time>2015-05-05T19:55:34Z</time>
      </trkpt>
      <trkpt lat="59.302499" lon="17.854128">
        <ele>14</ele>
        <time>2015-05-05T19:55:35Z</time>
      </trkpt>
      <trkpt lat="59.302537" lon="17.854167">
        <ele>14.4</ele>
        <time>2015-05-05T19:55:36Z</time>
      </trkpt>
      <trkpt lat="59.302588" lon="17.854191">
        <ele>14.8</ele>
        <time>2015-05-05T19:55:37Z</time>
      </trkpt>
      <trkpt lat="59.302638" lon="17.854222">
        <ele>15.2</ele>
        <time>2015-05-05T19:55:38Z</time>
      </trkpt>
      <trkpt lat="59.302683" lon="17.854264">
        <ele>15.6</ele>
        <time>2015-05-05T19:55:39Z</time>
      </trkpt>
      <trkpt lat="59.302728" lon="17.854308">
        <ele>15.9</ele>
        <time>2015-05-05T19:55:40Z</time>
      </trkpt>
      <trkpt lat="59.302755" lon="17.85435">
        <ele>16.1</ele>
        <time>2015-05-05T19:55:41Z</time>
      </trkpt>
      <trkpt lat="59.302783" lon="17.854421">
        <ele>16.2</ele>
        <time>2015-05-05T19:55:42Z</time>
      </trkpt>
      <trkpt lat="59.302787" lon="17.854497">
        <ele>16.1</ele>
        <time>2015-05-05T19:55:43Z</time>
      </trkpt>
      <trkpt lat="59.302779" lon="17.854591">
        <ele>15.8</ele>
        <time>2015-05-05T19:55:44Z</time>
      </trkpt>
      <trkpt lat="59.302775" lon="17.854702">
        <ele>15.5</ele>
        <time>2015-05-05T19:55:45Z</time>
      </trkpt>
      <trkpt lat="59.302789" lon="17.854792">
        <ele>15.3</ele>
        <time>2015-05-05T19:55:46Z</time>
      </trkpt>
      <trkpt lat="59.302825" lon="17.854863">
        <ele>15.3</ele>
        <time>2015-05-05T19:55:47Z</time>
      </trkpt>
      <trkpt lat="59.302878" lon="17.854933">
        <ele>15.5</ele>
        <time>2015-05-05T19:55:48Z</time>
      </trkpt>
      <trkpt lat="59.302938" lon="17.854985">
        <ele>15.7</ele>
        <time>2015-05-05T19:55:49Z</time>
      </trkpt>
      <trkpt lat="59.302996" lon="17.855049">
        <ele>15.7</ele>
        <time>2015-05-05T19:55:50Z</time>
      </trkpt>
      <trkpt lat="59.303059" lon="17.855103">
        <ele>15.8</ele>
        <time>2015-05-05T19:55:51Z</time>
      </trkpt>
      <trkpt lat="59.303118" lon="17.855143">
        <ele>15.9</ele>
        <time>2015-05-05T19:55:52Z</time>
      </trkpt>
      <trkpt lat="59.303164" lon="17.855189">
        <ele>16</ele>
        <time>2015-05-05T19:55:53Z</time>
      </trkpt>
      <trkpt lat="59.303214" lon="17.855231">
        <ele>16</ele>
        <time>2015-05-05T19:55:54Z</time>
      </trkpt>
      <trkpt lat="59.303265" lon="17.855284">
        <ele>15.9</ele>
        <time>2015-05-05T19:55:55Z</time>
      </trkpt>
      <trkpt lat="59.303318" lon="17.855326">
        <ele>15.9</ele>
        <time>2015-05-05T19:55:56Z</time>
      </trkpt>
      <trkpt lat="59.303377" lon="17.855374">
        <ele>15.9</ele>
        <time>2015-05-05T19:55:57Z</time>
      </trkpt>
      <trkpt lat="59.303443" lon="17.855456">
        <ele>15.8</ele>
        <time>2015-05-05T19:55:58Z</time>
      </trkpt>
      <trkpt lat="59.30351" lon="17.855508">
        <ele>16</ele>
        <time>2015-05-05T19:55:59Z</time>
      </trkpt>
      <trkpt lat="59.303566" lon="17.855575">
        <ele>16</ele>
        <time>2015-05-05T19:56:00Z</time>
      </trkpt>
      <trkpt lat="59.303619" lon="17.855634">
        <ele>16.1</ele>
        <time>2015-05-05T19:56:01Z</time>
      </trkpt>
      <trkpt lat="59.303672" lon="17.855673">
        <ele>16.2</ele>
        <time>2015-05-05T19:56:02Z</time>
      </trkpt>
      <trkpt lat="59.303726" lon="17.855722">
        <ele>16.2</ele>
        <time>2015-05-05T19:56:03Z</time>
      </trkpt>
      <trkpt lat="59.303775" lon="17.85575">
        <ele>16.2</ele>
        <time>2015-05-05T19:56:04Z</time>
      </trkpt>
      <trkpt lat="59.303826" lon="17.855796">
        <ele>16.1</ele>
        <time>2015-05-05T19:56:05Z</time>
      </trkpt>
      <trkpt lat="59.303893" lon="17.855838">
        <ele>16.1</ele>
        <time>2015-05-05T19:56:06Z</time>
      </trkpt>
      <trkpt lat="59.303955" lon="17.855885">
        <ele>16</ele>
        <time>2015-05-05T19:56:07Z</time>
      </trkpt>
      <trkpt lat="59.304005" lon="17.855927">
        <ele>15.9</ele>
        <time>2015-05-05T19:56:08Z</time>
      </trkpt>
      <trkpt lat="59.304057" lon="17.855978">
        <ele>15.8</ele>
        <time>2015-05-05T19:56:09Z</time>
      </trkpt>
      <trkpt lat="59.304117" lon="17.856029">
        <ele>15.6</ele>
        <time>2015-05-05T19:56:10Z</time>
      </trkpt>
      <trkpt lat="59.304169" lon="17.856076">
        <ele>15.5</ele>
        <time>2015-05-05T19:56:11Z</time>
      </trkpt>
      <trkpt lat="59.304231" lon="17.856125">
        <ele>15.4</ele>
        <time>2015-05-05T19:56:12Z</time>
      </trkpt>
      <trkpt lat="59.304301" lon="17.856192">
        <ele>15.2</ele>
        <time>2015-05-05T19:56:13Z</time>
      </trkpt>
      <trkpt lat="59.304358" lon="17.856266">
        <ele>14.9</ele>
        <time>2015-05-05T19:56:14Z</time>
      </trkpt>
      <trkpt lat="59.304436" lon="17.856352">
        <ele>14.7</ele>
        <time>2015-05-05T19:56:15Z</time>
      </trkpt>
      <trkpt lat="59.304507" lon="17.856403">
        <ele>14.5</ele>
        <time>2015-05-05T19:56:16Z</time>
      </trkpt>
      <trkpt lat="59.30457" lon="17.856467">
        <ele>14.2</ele>
        <time>2015-05-05T19:56:17Z</time>
      </trkpt>
      <trkpt lat="59.304652" lon="17.856554">
        <ele>13.8</ele>
        <time>2015-05-05T19:56:18Z</time>
      </trkpt>
      <trkpt lat="59.304731" lon="17.856616">
        <ele>13.4</ele>
        <time>2015-05-05T19:56:19Z</time>
      </trkpt>
      <trkpt lat="59.30481" lon="17.856693">
        <ele>13</ele>
        <time>2015-05-05T19:56:20Z</time>
      </trkpt>
      <trkpt lat="59.304892" lon="17.85676">
        <ele>12.6</ele>
        <time>2015-05-05T19:56:21Z</time>
      </trkpt>
      <trkpt lat="59.304968" lon="17.856858">
        <ele>12.2</ele>
        <time>2015-05-05T19:56:22Z</time>
      </trkpt>
      <trkpt lat="59.305069" lon="17.856945">
        <ele>11.8</ele>
        <time>2015-05-05T19:56:23Z</time>
      </trkpt>
      <trkpt lat="59.30517" lon="17.857009">
        <ele>11.5</ele>
        <time>2015-05-05T19:56:24Z</time>
      </trkpt>
      <trkpt lat="59.30525" lon="17.857072">
        <ele>11.2</ele>
        <time>2015-05-05T19:56:25Z</time>
      </trkpt>
      <trkpt lat="59.305335" lon="17.857137">
        <ele>11</ele>
        <time>2015-05-05T19:56:26Z</time>
      </trkpt>
      <trkpt lat="59.305435" lon="17.85722">
        <ele>10.8</ele>
        <time>2015-05-05T19:56:27Z</time>
      </trkpt>
      <trkpt lat="59.305521" lon="17.857293">
        <ele>10.8</ele>
        <time>2015-05-05T19:56:28Z</time>
      </trkpt>
      <trkpt lat="59.305607" lon="17.857371">
        <ele>10.7</ele>
        <time>2015-05-05T19:56:29Z</time>
      </trkpt>
      <trkpt lat="59.305687" lon="17.857476">
        <ele>10.7</ele>
        <time>2015-05-05T19:56:30Z</time>
      </trkpt>
      <trkpt lat="59.305775" lon="17.857567">
        <ele>10.7</ele>
        <time>2015-05-05T19:56:31Z</time>
      </trkpt>
      <trkpt lat="59.305869" lon="17.857641">
        <ele>10.7</ele>
        <time>2015-05-05T19:56:32Z</time>
      </trkpt>
      <trkpt lat="59.305962" lon="17.857717">
        <ele>10.7</ele>
        <time>2015-05-05T19:56:33Z</time>
      </trkpt>
      <trkpt lat="59.306051" lon="17.857795">
        <ele>10.8</ele>
        <time>2015-05-05T19:56:34Z</time>
      </trkpt>
      <trkpt lat="59.306125" lon="17.857847">
        <ele>10.9</ele>
        <time>2015-05-05T19:56:35Z</time>
      </trkpt>
      <trkpt lat="59.306211" lon="17.85791">
        <ele>11</ele>
        <time>2015-05-05T19:56:36Z</time>
      </trkpt>
      <trkpt lat="59.306296" lon="17.857992">
        <ele>11</ele>
        <time>2015-05-05T19:56:37Z</time>
      </trkpt>
      <trkpt lat="59.306377" lon="17.858064">
        <ele>11.2</ele>
        <time>2015-05-05T19:56:38Z</time>
      </trkpt>
      <trkpt lat="59.306469" lon="17.85813">
        <ele>11.3</ele>
        <time>2015-05-05T19:56:39Z</time>
      </trkpt>
      <trkpt lat="59.306548" lon="17.858206">
        <ele>11.5</ele>
        <time>2015-05-05T19:56:40Z</time>
      </trkpt>
      <trkpt lat="59.306623" lon="17.858278">
        <ele>11.7</ele>
        <time>2015-05-05T19:56:41Z</time>
      </trkpt>
      <trkpt lat="59.306696" lon="17.858342">
        <ele>11.8</ele>
        <time>2015-05-05T19:56:42Z</time>
      </trkpt>
      <trkpt lat="59.306772" lon="17.858415">
        <ele>12</ele>
        <time>2015-05-05T19:56:43Z</time>
      </trkpt>
      <trkpt lat="59.306837" lon="17.858481">
        <ele>12.2</ele>
        <time>2015-05-05T19:56:44Z</time>
      </trkpt>
      <trkpt lat="59.306907" lon="17.858551">
        <ele>12.4</ele>
        <time>2015-05-05T19:56:45Z</time>
      </trkpt>
      <trkpt lat="59.306975" lon="17.858615">
        <ele>12.6</ele>
        <time>2015-05-05T19:56:46Z</time>
      </trkpt>
      <trkpt lat="59.307049" lon="17.858664">
        <ele>12.9</ele>
        <time>2015-05-05T19:56:47Z</time>
      </trkpt>
      <trkpt lat="59.307132" lon="17.858735">
        <ele>13.2</ele>
        <time>2015-05-05T19:56:48Z</time>
      </trkpt>
      <trkpt lat="59.307208" lon="17.858813">
        <ele>13.6</ele>
        <time>2015-05-05T19:56:49Z</time>
      </trkpt>
      <trkpt lat="59.307284" lon="17.858891">
        <ele>13.9</ele>
        <time>2015-05-05T19:56:50Z</time>
      </trkpt>
      <trkpt lat="59.307355" lon="17.858954">
        <ele>14.1</ele>
        <time>2015-05-05T19:56:51Z</time>
      </trkpt>
      <trkpt lat="59.307424" lon="17.858999">
        <ele>14.4</ele>
        <time>2015-05-05T19:56:52Z</time>
      </trkpt>
      <trkpt lat="59.307495" lon="17.859054">
        <ele>14.6</ele>
        <time>2015-05-05T19:56:53Z</time>
      </trkpt>
      <trkpt lat="59.307571" lon="17.859115">
        <ele>14.8</ele>
        <time>2015-05-05T19:56:54Z</time>
      </trkpt>
      <trkpt lat="59.30764" lon="17.859164">
        <ele>15</ele>
        <time>2015-05-05T19:56:55Z</time>
      </trkpt>
      <trkpt lat="59.307708" lon="17.859229">
        <ele>15.1</ele>
        <time>2015-05-05T19:56:56Z</time>
      </trkpt>
      <trkpt lat="59.307772" lon="17.859294">
        <ele>15.2</ele>
        <time>2015-05-05T19:56:57Z</time>
      </trkpt>
      <trkpt lat="59.30784" lon="17.859358">
        <ele>15.3</ele>
        <time>2015-05-05T19:56:58Z</time>
      </trkpt>
      <trkpt lat="59.307903" lon="17.859389">
        <ele>15.4</ele>
        <time>2015-05-05T19:56:59Z</time>
      </trkpt>
      <trkpt lat="59.307966" lon="17.859442">
        <ele>16</ele>
        <time>2015-05-05T19:57:00Z</time>
      </trkpt>
      <trkpt lat="59.308026" lon="17.859481">
        <ele>16.6</ele>
        <time>2015-05-05T19:57:01Z</time>
      </trkpt>
      <trkpt lat="59.308088" lon="17.859534">
        <ele>17.2</ele>
        <time>2015-05-05T19:57:02Z</time>
      </trkpt>
      <trkpt lat="59.308153" lon="17.859591">
        <ele>17.8</ele>
        <time>2015-05-05T19:57:03Z</time>
      </trkpt>
      <trkpt lat="59.30821" lon="17.859637">
        <ele>18.3</ele>
        <time>2015-05-05T19:57:04Z</time>
      </trkpt>
      <trkpt lat="59.308278" lon="17.859696">
        <ele>18.9</ele>
        <time>2015-05-05T19:57:05Z</time>
      </trkpt>
      <trkpt lat="59.308345" lon="17.859766">
        <ele>19.4</ele>
        <time>2015-05-05T19:57:06Z</time>
      </trkpt>
      <trkpt lat="59.308413" lon="17.859827">
        <ele>19.8</ele>
        <time>2015-05-05T19:57:07Z</time>
      </trkpt>
      <trkpt lat="59.308481" lon="17.859885">
        <ele>20.3</ele>
        <time>2015-05-05T19:57:08Z</time>
      </trkpt>
      <trkpt lat="59.308551" lon="17.859957">
        <ele>20.7</ele>
        <time>2015-05-05T19:57:09Z</time>
      </trkpt>
      <trkpt lat="59.308623" lon="17.860001">
        <ele>21.2</ele>
        <time>2015-05-05T19:57:10Z</time>
      </trkpt>
      <trkpt lat="59.308683" lon="17.860048">
        <ele>21.5</ele>
        <time>2015-05-05T19:57:11Z</time>
      </trkpt>
      <trkpt lat="59.30875" lon="17.860097">
        <ele>21.9</ele>
        <time>2015-05-05T19:57:12Z</time>
      </trkpt>
      <trkpt lat="59.308836" lon="17.860134">
        <ele>22.7</ele>
        <time>2015-05-05T19:57:13Z</time>
      </trkpt>
      <trkpt lat="59.308901" lon="17.860164">
        <ele>23.2</ele>
        <time>2015-05-05T19:57:14Z</time>
      </trkpt>
      <trkpt lat="59.308973" lon="17.860228">
        <ele>23.6</ele>
        <time>2015-05-05T19:57:15Z</time>
      </trkpt>
      <trkpt lat="59.309028" lon="17.86026">
        <ele>24</ele>
        <time>2015-05-05T19:57:16Z</time>
      </trkpt>
      <trkpt lat="59.309102" lon="17.860294">
        <ele>24.6</ele>
        <time>2015-05-05T19:57:17Z</time>
      </trkpt>
      <trkpt lat="59.309165" lon="17.860323">
        <ele>25.1</ele>
        <time>2015-05-05T19:57:18Z</time>
      </trkpt>
      <trkpt lat="59.309228" lon="17.86036">
        <ele>25.5</ele>
        <time>2015-05-05T19:57:19Z</time>
      </trkpt>
      <trkpt lat="59.309299" lon="17.860397">
        <ele>26.1</ele>
        <time>2015-05-05T19:57:20Z</time>
      </trkpt>
      <trkpt lat="59.309362" lon="17.860432">
        <ele>26.5</ele>
        <time>2015-05-05T19:57:21Z</time>
      </trkpt>
      <trkpt lat="59.309424" lon="17.860469">
        <ele>26.9</ele>
        <time>2015-05-05T19:57:22Z</time>
      </trkpt>
      <trkpt lat="59.309489" lon="17.860493">
        <ele>27.4</ele>
        <time>2015-05-05T19:57:23Z</time>
      </trkpt>
      <trkpt lat="59.309548" lon="17.860504">
        <ele>27.9</ele>
        <time>2015-05-05T19:57:24Z</time>
      </trkpt>
      <trkpt lat="59.309613" lon="17.860528">
        <ele>28</ele>
        <time>2015-05-05T19:57:25Z</time>
      </trkpt>
      <trkpt lat="59.309678" lon="17.860548">
        <ele>27.8</ele>
        <time>2015-05-05T19:57:26Z</time>
      </trkpt>
      <trkpt lat="59.309735" lon="17.860548">
        <ele>27.8</ele>
        <time>2015-05-05T19:57:27Z</time>
      </trkpt>
      <trkpt lat="59.309803" lon="17.860558">
        <ele>27.7</ele>
        <time>2015-05-05T19:57:28Z</time>
      </trkpt>
      <trkpt lat="59.309869" lon="17.860576">
        <ele>27.5</ele>
        <time>2015-05-05T19:57:29Z</time>
      </trkpt>
      <trkpt lat="59.309932" lon="17.860568">
        <ele>27.5</ele>
        <time>2015-05-05T19:57:30Z</time>
      </trkpt>
      <trkpt lat="59.309996" lon="17.860574">
        <ele>27.5</ele>
        <time>2015-05-05T19:57:31Z</time>
      </trkpt>
      <trkpt lat="59.310059" lon="17.86054">
        <ele>27.6</ele>
        <time>2015-05-05T19:57:32Z</time>
      </trkpt>
      <trkpt lat="59.310113" lon="17.860537">
        <ele>27.6</ele>
        <time>2015-05-05T19:57:33Z</time>
      </trkpt>
      <trkpt lat="59.310174" lon="17.860544">
        <ele>27.5</ele>
        <time>2015-05-05T19:57:34Z</time>
      </trkpt>
      <trkpt lat="59.310237" lon="17.860539">
        <ele>27.5</ele>
        <time>2015-05-05T19:57:35Z</time>
      </trkpt>
      <trkpt lat="59.310313" lon="17.860538">
        <ele>27.5</ele>
        <time>2015-05-05T19:57:36Z</time>
      </trkpt>
      <trkpt lat="59.310386" lon="17.86054">
        <ele>27.4</ele>
        <time>2015-05-05T19:57:37Z</time>
      </trkpt>
      <trkpt lat="59.310451" lon="17.86053">
        <ele>27.4</ele>
        <time>2015-05-05T19:57:38Z</time>
      </trkpt>
      <trkpt lat="59.31052" lon="17.860517">
        <ele>27.2</ele>
        <time>2015-05-05T19:57:39Z</time>
      </trkpt>
      <trkpt lat="59.310585" lon="17.860504">
        <ele>27.1</ele>
        <time>2015-05-05T19:57:40Z</time>
      </trkpt>
      <trkpt lat="59.310646" lon="17.860506">
        <ele>26.9</ele>
        <time>2015-05-05T19:57:41Z</time>
      </trkpt>
      <trkpt lat="59.310706" lon="17.860509">
        <ele>26.7</ele>
        <time>2015-05-05T19:57:42Z</time>
      </trkpt>
      <trkpt lat="59.310773" lon="17.860511">
        <ele>26.5</ele>
        <time>2015-05-05T19:57:43Z</time>
      </trkpt>
      <trkpt lat="59.310834" lon="17.860518">
        <ele>26.3</ele>
        <time>2015-05-05T19:57:44Z</time>
      </trkpt>
      <trkpt lat="59.310892" lon="17.860504">
        <ele>26.2</ele>
        <time>2015-05-05T19:57:45Z</time>
      </trkpt>
      <trkpt lat="59.310966" lon="17.86048">
        <ele>26</ele>
        <time>2015-05-05T19:57:46Z</time>
      </trkpt>
      <trkpt lat="59.311035" lon="17.860481">
        <ele>25.8</ele>
        <time>2015-05-05T19:57:47Z</time>
      </trkpt>
      <trkpt lat="59.311093" lon="17.860479">
        <ele>25.6</ele>
        <time>2015-05-05T19:57:48Z</time>
      </trkpt>
      <trkpt lat="59.311162" lon="17.860483">
        <ele>25.4</ele>
        <time>2015-05-05T19:57:49Z</time>
      </trkpt>
      <trkpt lat="59.311228" lon="17.860472">
        <ele>25.1</ele>
        <time>2015-05-05T19:57:50Z</time>
      </trkpt>
      <trkpt lat="59.311285" lon="17.860473">
        <ele>25.1</ele>
        <time>2015-05-05T19:57:51Z</time>
      </trkpt>
      <trkpt lat="59.311341" lon="17.860456">
        <ele>25.2</ele>
        <time>2015-05-05T19:57:52Z</time>
      </trkpt>
      <trkpt lat="59.311414" lon="17.860448">
        <ele>25.2</ele>
        <time>2015-05-05T19:57:53Z</time>
      </trkpt>
      <trkpt lat="59.311473" lon="17.860423">
        <ele>25.3</ele>
        <time>2015-05-05T19:57:54Z</time>
      </trkpt>
      <trkpt lat="59.311537" lon="17.86041">
        <ele>25.4</ele>
        <time>2015-05-05T19:57:55Z</time>
      </trkpt>
      <trkpt lat="59.311602" lon="17.860385">
        <ele>25.7</ele>
        <time>2015-05-05T19:57:56Z</time>
      </trkpt>
      <trkpt lat="59.311667" lon="17.860363">
        <ele>25.9</ele>
        <time>2015-05-05T19:57:57Z</time>
      </trkpt>
      <trkpt lat="59.311742" lon="17.860358">
        <ele>26</ele>
        <time>2015-05-05T19:57:58Z</time>
      </trkpt>
      <trkpt lat="59.311805" lon="17.860336">
        <ele>26.2</ele>
        <time>2015-05-05T19:57:59Z</time>
      </trkpt>
      <trkpt lat="59.311864" lon="17.860304">
        <ele>26.5</ele>
        <time>2015-05-05T19:58:00Z</time>
      </trkpt>
      <trkpt lat="59.311933" lon="17.860274">
        <ele>26.8</ele>
        <time>2015-05-05T19:58:01Z</time>
      </trkpt>
      <trkpt lat="59.312009" lon="17.860276">
        <ele>26.9</ele>
        <time>2015-05-05T19:58:02Z</time>
      </trkpt>
      <trkpt lat="59.312067" lon="17.860258">
        <ele>27.1</ele>
        <time>2015-05-05T19:58:03Z</time>
      </trkpt>
      <trkpt lat="59.312117" lon="17.860249">
        <ele>27.2</ele>
        <time>2015-05-05T19:58:04Z</time>
      </trkpt>
      <trkpt lat="59.312182" lon="17.860234">
        <ele>27.4</ele>
        <time>2015-05-05T19:58:05Z</time>
      </trkpt>
      <trkpt lat="59.312256" lon="17.860216">
        <ele>27.6</ele>
        <time>2015-05-05T19:58:06Z</time>
      </trkpt>
      <trkpt lat="59.312323" lon="17.860208">
        <ele>27.6</ele>
        <time>2015-05-05T19:58:07Z</time>
      </trkpt>
      <trkpt lat="59.312398" lon="17.860185">
        <ele>27.8</ele>
        <time>2015-05-05T19:58:08Z</time>
      </trkpt>
      <trkpt lat="59.312479" lon="17.860165">
        <ele>28</ele>
        <time>2015-05-05T19:58:09Z</time>
      </trkpt>
      <trkpt lat="59.312547" lon="17.860141">
        <ele>28.2</ele>
        <time>2015-05-05T19:58:10Z</time>
      </trkpt>
      <trkpt lat="59.312616" lon="17.860105">
        <ele>28.4</ele>
        <time>2015-05-05T19:58:11Z</time>
      </trkpt>
      <trkpt lat="59.312687" lon="17.860096">
        <ele>28.5</ele>
        <time>2015-05-05T19:58:12Z</time>
      </trkpt>
      <trkpt lat="59.312761" lon="17.860084">
        <ele>28.6</ele>
        <time>2015-05-05T19:58:13Z</time>
      </trkpt>
      <trkpt lat="59.312833" lon="17.860062">
        <ele>28.7</ele>
        <time>2015-05-05T19:58:14Z</time>
      </trkpt>
      <trkpt lat="59.312904" lon="17.860005">
        <ele>29</ele>
        <time>2015-05-05T19:58:15Z</time>
      </trkpt>
      <trkpt lat="59.312974" lon="17.85993">
        <ele>29.3</ele>
        <time>2015-05-05T19:58:16Z</time>
      </trkpt>
      <trkpt lat="59.313029" lon="17.859841">
        <ele>29.7</ele>
        <time>2015-05-05T19:58:17Z</time>
      </trkpt>
      <trkpt lat="59.313097" lon="17.859754">
        <ele>29.9</ele>
        <time>2015-05-05T19:58:18Z</time>
      </trkpt>
      <trkpt lat="59.313145" lon="17.859661">
        <ele>30.2</ele>
        <time>2015-05-05T19:58:19Z</time>
      </trkpt>
      <trkpt lat="59.313209" lon="17.859582">
        <ele>30.3</ele>
        <time>2015-05-05T19:58:20Z</time>
      </trkpt>
      <trkpt lat="59.313262" lon="17.859486">
        <ele>30.4</ele>
        <time>2015-05-05T19:58:21Z</time>
      </trkpt>
      <trkpt lat="59.313314" lon="17.859401">
        <ele>30.4</ele>
        <time>2015-05-05T19:58:22Z</time>
      </trkpt>
      <trkpt lat="59.31337" lon="17.859314">
        <ele>30.4</ele>
        <time>2015-05-05T19:58:23Z</time>
      </trkpt>
      <trkpt lat="59.313409" lon="17.859233">
        <ele>30.3</ele>
        <time>2015-05-05T19:58:24Z</time>
      </trkpt>
      <trkpt lat="59.313458" lon="17.859136">
        <ele>30.3</ele>
        <time>2015-05-05T19:58:25Z</time>
      </trkpt>
      <trkpt lat="59.313511" lon="17.859057">
        <ele>30.1</ele>
        <time>2015-05-05T19:58:26Z</time>
      </trkpt>
      <trkpt lat="59.313572" lon="17.859">
        <ele>29.9</ele>
        <time>2015-05-05T19:58:27Z</time>
      </trkpt>
      <trkpt lat="59.313641" lon="17.858958">
        <ele>29.6</ele>
        <time>2015-05-05T19:58:28Z</time>
      </trkpt>
      <trkpt lat="59.313717" lon="17.858993">
        <ele>29.2</ele>
        <time>2015-05-05T19:58:29Z</time>
      </trkpt>
      <trkpt lat="59.313795" lon="17.859023">
        <ele>28.7</ele>
        <time>2015-05-05T19:58:30Z</time>
      </trkpt>
      <trkpt lat="59.313867" lon="17.859062">
        <ele>28.2</ele>
        <time>2015-05-05T19:58:31Z</time>
      </trkpt>
      <trkpt lat="59.313939" lon="17.859111">
        <ele>27.8</ele>
        <time>2015-05-05T19:58:32Z</time>
      </trkpt>
      <trkpt lat="59.313999" lon="17.859214">
        <ele>27.3</ele>
        <time>2015-05-05T19:58:33Z</time>
      </trkpt>
      <trkpt lat="59.314051" lon="17.859321">
        <ele>26.9</ele>
        <time>2015-05-05T19:58:34Z</time>
      </trkpt>
      <trkpt lat="59.314093" lon="17.859457">
        <ele>26.6</ele>
        <time>2015-05-05T19:58:35Z</time>
      </trkpt>
      <trkpt lat="59.314139" lon="17.859599">
        <ele>26.2</ele>
        <time>2015-05-05T19:58:36Z</time>
      </trkpt>
      <trkpt lat="59.31416" lon="17.859789">
        <ele>25.9</ele>
        <time>2015-05-05T19:58:37Z</time>
      </trkpt>
      <trkpt lat="59.314173" lon="17.859989">
        <ele>25.7</ele>
        <time>2015-05-05T19:58:38Z</time>
      </trkpt>
      <trkpt lat="59.314194" lon="17.860164">
        <ele>25.4</ele>
        <time>2015-05-05T19:58:39Z</time>
      </trkpt>
      <trkpt lat="59.314245" lon="17.860328">
        <ele>24.9</ele>
        <time>2015-05-05T19:58:40Z</time>
      </trkpt>
      <trkpt lat="59.314326" lon="17.860445">
        <ele>24.1</ele>
        <time>2015-05-05T19:58:41Z</time>
      </trkpt>
      <trkpt lat="59.314412" lon="17.860545">
        <ele>23</ele>
        <time>2015-05-05T19:58:42Z</time>
      </trkpt>
      <trkpt lat="59.314514" lon="17.860653">
        <ele>21.8</ele>
        <time>2015-05-05T19:58:43Z</time>
      </trkpt>
      <trkpt lat="59.314602" lon="17.860749">
        <ele>20.7</ele>
        <time>2015-05-05T19:58:44Z</time>
      </trkpt>
      <trkpt lat="59.314688" lon="17.860839">
        <ele>19.7</ele>
        <time>2015-05-05T19:58:45Z</time>
      </trkpt>
      <trkpt lat="59.314771" lon="17.860938">
        <ele>18.8</ele>
        <time>2015-05-05T19:58:46Z</time>
      </trkpt>
      <trkpt lat="59.314882" lon="17.861051">
        <ele>17.8</ele>
        <time>2015-05-05T19:58:47Z</time>
      </trkpt>
      <trkpt lat="59.31497" lon="17.861117">
        <ele>17</ele>
        <time>2015-05-05T19:58:48Z</time>
      </trkpt>
      <trkpt lat="59.315061" lon="17.861199">
        <ele>16.2</ele>
        <time>2015-05-05T19:58:49Z</time>
      </trkpt>
      <trkpt lat="59.315142" lon="17.861272">
        <ele>15.6</ele>
        <time>2015-05-05T19:58:50Z</time>
      </trkpt>
      <trkpt lat="59.315218" lon="17.861345">
        <ele>14.9</ele>
        <time>2015-05-05T19:58:51Z</time>
      </trkpt>
      <trkpt lat="59.315302" lon="17.86144">
        <ele>14.2</ele>
        <time>2015-05-05T19:58:52Z</time>
      </trkpt>
      <trkpt lat="59.315392" lon="17.861485">
        <ele>13.6</ele>
        <time>2015-05-05T19:58:53Z</time>
      </trkpt>
      <trkpt lat="59.315463" lon="17.861557">
        <ele>13.3</ele>
        <time>2015-05-05T19:58:54Z</time>
      </trkpt>
      <trkpt lat="59.315541" lon="17.861645">
        <ele>13.3</ele>
        <time>2015-05-05T19:58:55Z</time>
      </trkpt>
      <trkpt lat="59.315613" lon="17.861724">
        <ele>13.2</ele>
        <time>2015-05-05T19:58:56Z</time>
      </trkpt>
      <trkpt lat="59.315699" lon="17.861804">
        <ele>13.2</ele>
        <time>2015-05-05T19:58:57Z</time>
      </trkpt>
      <trkpt lat="59.315773" lon="17.861876">
        <ele>13.2</ele>
        <time>2015-05-05T19:58:58Z</time>
      </trkpt>
      <trkpt lat="59.315847" lon="17.861949">
        <ele>13.3</ele>
        <time>2015-05-05T19:58:59Z</time>
      </trkpt>
      <trkpt lat="59.315931" lon="17.862046">
        <ele>13.3</ele>
        <time>2015-05-05T19:59:00Z</time>
      </trkpt>
      <trkpt lat="59.316011" lon="17.862119">
        <ele>13.4</ele>
        <time>2015-05-05T19:59:01Z</time>
      </trkpt>
      <trkpt lat="59.316087" lon="17.862197">
        <ele>13.6</ele>
        <time>2015-05-05T19:59:02Z</time>
      </trkpt>
      <trkpt lat="59.31616" lon="17.862269">
        <ele>13.8</ele>
        <time>2015-05-05T19:59:03Z</time>
      </trkpt>
      <trkpt lat="59.316239" lon="17.862349">
        <ele>14</ele>
        <time>2015-05-05T19:59:04Z</time>
      </trkpt>
      <trkpt lat="59.316317" lon="17.862425">
        <ele>14.5</ele>
        <time>2015-05-05T19:59:05Z</time>
      </trkpt>
      <trkpt lat="59.316393" lon="17.862489">
        <ele>15.1</ele>
        <time>2015-05-05T19:59:06Z</time>
      </trkpt>
      <trkpt lat="59.316475" lon="17.862596">
        <ele>15.7</ele>
        <time>2015-05-05T19:59:07Z</time>
      </trkpt>
      <trkpt lat="59.316551" lon="17.862674">
        <ele>16.1</ele>
        <time>2015-05-05T19:59:08Z</time>
      </trkpt>
      <trkpt lat="59.316619" lon="17.862714">
        <ele>16.5</ele>
        <time>2015-05-05T19:59:09Z</time>
      </trkpt>
      <trkpt lat="59.316693" lon="17.862792">
        <ele>16.9</ele>
        <time>2015-05-05T19:59:10Z</time>
      </trkpt>
      <trkpt lat="59.316771" lon="17.862853">
        <ele>17.3</ele>
        <time>2015-05-05T19:59:11Z</time>
      </trkpt>
      <trkpt lat="59.316849" lon="17.862919">
        <ele>17.6</ele>
        <time>2015-05-05T19:59:12Z</time>
      </trkpt>
      <trkpt lat="59.316928" lon="17.862988">
        <ele>17.8</ele>
        <time>2015-05-05T19:59:13Z</time>
      </trkpt>
      <trkpt lat="59.317006" lon="17.863066">
        <ele>17.9</ele>
        <time>2015-05-05T19:59:14Z</time>
      </trkpt>
      <trkpt lat="59.317077" lon="17.863157">
        <ele>17.8</ele>
        <time>2015-05-05T19:59:15Z</time>
      </trkpt>
      <trkpt lat="59.317164" lon="17.863257">
        <ele>17.5</ele>
        <time>2015-05-05T19:59:16Z</time>
      </trkpt>
      <trkpt lat="59.317226" lon="17.863309">
        <ele>17.4</ele>
        <time>2015-05-05T19:59:17Z</time>
      </trkpt>
      <trkpt lat="59.317298" lon="17.86338">
        <ele>17.1</ele>
        <time>2015-05-05T19:59:18Z</time>
      </trkpt>
      <trkpt lat="59.317372" lon="17.863461">
        <ele>16.9</ele>
        <time>2015-05-05T19:59:19Z</time>
      </trkpt>
      <trkpt lat="59.317442" lon="17.863531">
        <ele>16.6</ele>
        <time>2015-05-05T19:59:20Z</time>
      </trkpt>
      <trkpt lat="59.317513" lon="17.863638">
        <ele>16.1</ele>
        <time>2015-05-05T19:59:21Z</time>
      </trkpt>
      <trkpt lat="59.317583" lon="17.863722">
        <ele>15.8</ele>
        <time>2015-05-05T19:59:22Z</time>
      </trkpt>
      <trkpt lat="59.317649" lon="17.863798">
        <ele>15.6</ele>
        <time>2015-05-05T19:59:23Z</time>
      </trkpt>
      <trkpt lat="59.317718" lon="17.863885">
        <ele>15.6</ele>
        <time>2015-05-05T19:59:24Z</time>
      </trkpt>
      <trkpt lat="59.317786" lon="17.863976">
        <ele>15.6</ele>
        <time>2015-05-05T19:59:25Z</time>
      </trkpt>
      <trkpt lat="59.317864" lon="17.864081">
        <ele>15.5</ele>
        <time>2015-05-05T19:59:26Z</time>
      </trkpt>
      <trkpt lat="59.317936" lon="17.864178">
        <ele>15.5</ele>
        <time>2015-05-05T19:59:27Z</time>
      </trkpt>
      <trkpt lat="59.318005" lon="17.864266">
        <ele>15.3</ele>
        <time>2015-05-05T19:59:28Z</time>
      </trkpt>
      <trkpt lat="59.318063" lon="17.864364">
        <ele>15.1</ele>
        <time>2015-05-05T19:59:29Z</time>
      </trkpt>
      <trkpt lat="59.318131" lon="17.864443">
        <ele>15</ele>
        <time>2015-05-05T19:59:30Z</time>
      </trkpt>
      <trkpt lat="59.318202" lon="17.86455">
        <ele>14.7</ele>
        <time>2015-05-05T19:59:31Z</time>
      </trkpt>
      <trkpt lat="59.318271" lon="17.864621">
        <ele>14.5</ele>
        <time>2015-05-05T19:59:32Z</time>
      </trkpt>
      <trkpt lat="59.318341" lon="17.864713">
        <ele>14.2</ele>
        <time>2015-05-05T19:59:33Z</time>
      </trkpt>
      <trkpt lat="59.318417" lon="17.864803">
        <ele>13.9</ele>
        <time>2015-05-05T19:59:34Z</time>
      </trkpt>
      <trkpt lat="59.31849" lon="17.864891">
        <ele>13.6</ele>
        <time>2015-05-05T19:59:35Z</time>
      </trkpt>
      <trkpt lat="59.318559" lon="17.864993">
        <ele>13.2</ele>
        <time>2015-05-05T19:59:36Z</time>
      </trkpt>
      <trkpt lat="59.318631" lon="17.865096">
        <ele>12.9</ele>
        <time>2015-05-05T19:59:37Z</time>
      </trkpt>
      <trkpt lat="59.3187" lon="17.865188">
        <ele>12.6</ele>
        <time>2015-05-05T19:59:38Z</time>
      </trkpt>
      <trkpt lat="59.318767" lon="17.865281">
        <ele>12.4</ele>
        <time>2015-05-05T19:59:39Z</time>
      </trkpt>
      <trkpt lat="59.318842" lon="17.86537">
        <ele>12.3</ele>
        <time>2015-05-05T19:59:40Z</time>
      </trkpt>
      <trkpt lat="59.318913" lon="17.865464">
        <ele>12.3</ele>
        <time>2015-05-05T19:59:41Z</time>
      </trkpt>
      <trkpt lat="59.319007" lon="17.865571">
        <ele>12.5</ele>
        <time>2015-05-05T19:59:42Z</time>
      </trkpt>
      <trkpt lat="59.319072" lon="17.865686">
        <ele>12.6</ele>
        <time>2015-05-05T19:59:43Z</time>
      </trkpt>
      <trkpt lat="59.319151" lon="17.865792">
        <ele>12.7</ele>
        <time>2015-05-05T19:59:44Z</time>
      </trkpt>
      <trkpt lat="59.319229" lon="17.865881">
        <ele>12.9</ele>
        <time>2015-05-05T19:59:45Z</time>
      </trkpt>
      <trkpt lat="59.319302" lon="17.865941">
        <ele>13.1</ele>
        <time>2015-05-05T19:59:46Z</time>
      </trkpt>
      <trkpt lat="59.319368" lon="17.866025">
        <ele>13.3</ele>
        <time>2015-05-05T19:59:47Z</time>
      </trkpt>
      <trkpt lat="59.319442" lon="17.866099">
        <ele>13.5</ele>
        <time>2015-05-05T19:59:48Z</time>
      </trkpt>
      <trkpt lat="59.319504" lon="17.866179">
        <ele>13.7</ele>
        <time>2015-05-05T19:59:49Z</time>
      </trkpt>
      <trkpt lat="59.319581" lon="17.86628">
        <ele>14</ele>
        <time>2015-05-05T19:59:50Z</time>
      </trkpt>
      <trkpt lat="59.319638" lon="17.86635">
        <ele>13.9</ele>
        <time>2015-05-05T19:59:51Z</time>
      </trkpt>
      <trkpt lat="59.3197" lon="17.866412">
        <ele>13.9</ele>
        <time>2015-05-05T19:59:52Z</time>
      </trkpt>
      <trkpt lat="59.319755" lon="17.86647">
        <ele>13.9</ele>
        <time>2015-05-05T19:59:53Z</time>
      </trkpt>
      <trkpt lat="59.319814" lon="17.866532">
        <ele>13.9</ele>
        <time>2015-05-05T19:59:54Z</time>
      </trkpt>
      <trkpt lat="59.319869" lon="17.866611">
        <ele>13.9</ele>
        <time>2015-05-05T19:59:55Z</time>
      </trkpt>
      <trkpt lat="59.319927" lon="17.86668">
        <ele>13.9</ele>
        <time>2015-05-05T19:59:56Z</time>
      </trkpt>
      <trkpt lat="59.319986" lon="17.866749">
        <ele>13.9</ele>
        <time>2015-05-05T19:59:57Z</time>
      </trkpt>
      <trkpt lat="59.320049" lon="17.866787">
        <ele>13.9</ele>
        <time>2015-05-05T19:59:58Z</time>
      </trkpt>
      <trkpt lat="59.320108" lon="17.866874">
        <ele>13.9</ele>
        <time>2015-05-05T19:59:59Z</time>
      </trkpt>
      <trkpt lat="59.320174" lon="17.866965">
        <ele>13.9</ele>
        <time>2015-05-05T20:00:00Z</time>
      </trkpt>
      <trkpt lat="59.320246" lon="17.86703">
        <ele>13.9</ele>
        <time>2015-05-05T20:00:01Z</time>
      </trkpt>
      <trkpt lat="59.320328" lon="17.867122">
        <ele>13.9</ele>
        <time>2015-05-05T20:00:02Z</time>
      </trkpt>
      <trkpt lat="59.320411" lon="17.867192">
        <ele>14</ele>
        <time>2015-05-05T20:00:03Z</time>
      </trkpt>
      <trkpt lat="59.320491" lon="17.867257">
        <ele>14.1</ele>
        <time>2015-05-05T20:00:04Z</time>
      </trkpt>
      <trkpt lat="59.320562" lon="17.867363">
        <ele>14.2</ele>
        <time>2015-05-05T20:00:05Z</time>
      </trkpt>
      <trkpt lat="59.320615" lon="17.867478">
        <ele>14.2</ele>
        <time>2015-05-05T20:00:06Z</time>
      </trkpt>
      <trkpt lat="59.320673" lon="17.867587">
        <ele>14.3</ele>
        <time>2015-05-05T20:00:07Z</time>
      </trkpt>
      <trkpt lat="59.320734" lon="17.8677">
        <ele>14.4</ele>
        <time>2015-05-05T20:00:08Z</time>
      </trkpt>
      <trkpt lat="59.320811" lon="17.867788">
        <ele>14.5</ele>
        <time>2015-05-05T20:00:09Z</time>
      </trkpt>
      <trkpt lat="59.320877" lon="17.867867">
        <ele>14.6</ele>
        <time>2015-05-05T20:00:10Z</time>
      </trkpt>
      <trkpt lat="59.320946" lon="17.867967">
        <ele>14.6</ele>
        <time>2015-05-05T20:00:11Z</time>
      </trkpt>
      <trkpt lat="59.32102" lon="17.868011">
        <ele>14.6</ele>
        <time>2015-05-05T20:00:12Z</time>
      </trkpt>
      <trkpt lat="59.321097" lon="17.868062">
        <ele>14.7</ele>
        <time>2015-05-05T20:00:13Z</time>
      </trkpt>
      <trkpt lat="59.32117" lon="17.868113">
        <ele>14.7</ele>
        <time>2015-05-05T20:00:14Z</time>
      </trkpt>
      <trkpt lat="59.321244" lon="17.868137">
        <ele>14.7</ele>
        <time>2015-05-05T20:00:15Z</time>
      </trkpt>
      <trkpt lat="59.321316" lon="17.868172">
        <ele>15.1</ele>
        <time>2015-05-05T20:00:16Z</time>
      </trkpt>
      <trkpt lat="59.321403" lon="17.868214">
        <ele>15.6</ele>
        <time>2015-05-05T20:00:17Z</time>
      </trkpt>
      <trkpt lat="59.321481" lon="17.868248">
        <ele>16</ele>
        <time>2015-05-05T20:00:18Z</time>
      </trkpt>
      <trkpt lat="59.321553" lon="17.868257">
        <ele>16.4</ele>
        <time>2015-05-05T20:00:19Z</time>
      </trkpt>
      <trkpt lat="59.321637" lon="17.868289">
        <ele>16.9</ele>
        <time>2015-05-05T20:00:20Z</time>
      </trkpt>
      <trkpt lat="59.321718" lon="17.868308">
        <ele>17.3</ele>
        <time>2015-05-05T20:00:21Z</time>
      </trkpt>
      <trkpt lat="59.3218" lon="17.868319">
        <ele>17.8</ele>
        <time>2015-05-05T20:00:22Z</time>
      </trkpt>
      <trkpt lat="59.321886" lon="17.868344">
        <ele>18.3</ele>
        <time>2015-05-05T20:00:23Z</time>
      </trkpt>
      <trkpt lat="59.321971" lon="17.868366">
        <ele>18.8</ele>
        <time>2015-05-05T20:00:24Z</time>
      </trkpt>
      <trkpt lat="59.322061" lon="17.868382">
        <ele>19.3</ele>
        <time>2015-05-05T20:00:25Z</time>
      </trkpt>
      <trkpt lat="59.322156" lon="17.868406">
        <ele>19.2</ele>
        <time>2015-05-05T20:00:26Z</time>
      </trkpt>
      <trkpt lat="59.322243" lon="17.868432">
        <ele>18.9</ele>
        <time>2015-05-05T20:00:27Z</time>
      </trkpt>
      <trkpt lat="59.322327" lon="17.86846">
        <ele>18.6</ele>
        <time>2015-05-05T20:00:28Z</time>
      </trkpt>
      <trkpt lat="59.322409" lon="17.868482">
        <ele>18.3</ele>
        <time>2015-05-05T20:00:29Z</time>
      </trkpt>
      <trkpt lat="59.322497" lon="17.86851">
        <ele>17.9</ele>
        <time>2015-05-05T20:00:30Z</time>
      </trkpt>
      <trkpt lat="59.322587" lon="17.868531">
        <ele>17.6</ele>
        <time>2015-05-05T20:00:31Z</time>
      </trkpt>
      <trkpt lat="59.322698" lon="17.868553">
        <ele>17.2</ele>
        <time>2015-05-05T20:00:32Z</time>
      </trkpt>
      <trkpt lat="59.322787" lon="17.868569">
        <ele>16.9</ele>
        <time>2015-05-05T20:00:33Z</time>
      </trkpt>
      <trkpt lat="59.32287" lon="17.868591">
        <ele>16.5</ele>
        <time>2015-05-05T20:00:34Z</time>
      </trkpt>
      <trkpt lat="59.322965" lon="17.868618">
        <ele>16.2</ele>
        <time>2015-05-05T20:00:35Z</time>
      </trkpt>
      <trkpt lat="59.32306" lon="17.86864">
        <ele>15.9</ele>
        <time>2015-05-05T20:00:36Z</time>
      </trkpt>
      <trkpt lat="59.323153" lon="17.868695">
        <ele>15.6</ele>
        <time>2015-05-05T20:00:37Z</time>
      </trkpt>
      <trkpt lat="59.323263" lon="17.868718">
        <ele>15.2</ele>
        <time>2015-05-05T20:00:38Z</time>
      </trkpt>
      <trkpt lat="59.32338" lon="17.868748">
        <ele>14.9</ele>
        <time>2015-05-05T20:00:39Z</time>
      </trkpt>
      <trkpt lat="59.323468" lon="17.868758">
        <ele>14.7</ele>
        <time>2015-05-05T20:00:40Z</time>
      </trkpt>
      <trkpt lat="59.323562" lon="17.868781">
        <ele>14.5</ele>
        <time>2015-05-05T20:00:41Z</time>
      </trkpt>
      <trkpt lat="59.323664" lon="17.868786">
        <ele>14.2</ele>
        <time>2015-05-05T20:00:42Z</time>
      </trkpt>
      <trkpt lat="59.323758" lon="17.868809">
        <ele>14.1</ele>
        <time>2015-05-05T20:00:43Z</time>
      </trkpt>
      <trkpt lat="59.323867" lon="17.868857">
        <ele>14.4</ele>
        <time>2015-05-05T20:00:44Z</time>
      </trkpt>
      <trkpt lat="59.323964" lon="17.868879">
        <ele>14.6</ele>
        <time>2015-05-05T20:00:45Z</time>
      </trkpt>
      <trkpt lat="59.324054" lon="17.868914">
        <ele>14.9</ele>
        <time>2015-05-05T20:00:46Z</time>
      </trkpt>
      <trkpt lat="59.324141" lon="17.868961">
        <ele>15.1</ele>
        <time>2015-05-05T20:00:47Z</time>
      </trkpt>
      <trkpt lat="59.32424" lon="17.869013">
        <ele>15.3</ele>
        <time>2015-05-05T20:00:48Z</time>
      </trkpt>
      <trkpt lat="59.324329" lon="17.869078">
        <ele>15.5</ele>
        <time>2015-05-05T20:00:49Z</time>
      </trkpt>
      <trkpt lat="59.32442" lon="17.869158">
        <ele>15.7</ele>
        <time>2015-05-05T20:00:50Z</time>
      </trkpt>
      <trkpt lat="59.324505" lon="17.869242">
        <ele>15.9</ele>
        <time>2015-05-05T20:00:51Z</time>
      </trkpt>
      <trkpt lat="59.324575" lon="17.869341">
        <ele>16</ele>
        <time>2015-05-05T20:00:52Z</time>
      </trkpt>
      <trkpt lat="59.324655" lon="17.869468">
        <ele>16.5</ele>
        <time>2015-05-05T20:00:53Z</time>
      </trkpt>
      <trkpt lat="59.324735" lon="17.869589">
        <ele>16.9</ele>
        <time>2015-05-05T20:00:54Z</time>
      </trkpt>
      <trkpt lat="59.324813" lon="17.869708">
        <ele>17.4</ele>
        <time>2015-05-05T20:00:55Z</time>
      </trkpt>
      <trkpt lat="59.324875" lon="17.869847">
        <ele>17.6</ele>
        <time>2015-05-05T20:00:56Z</time>
      </trkpt>
      <trkpt lat="59.324936" lon="17.869968">
        <ele>17.8</ele>
        <time>2015-05-05T20:00:57Z</time>
      </trkpt>
      <trkpt lat="59.324992" lon="17.870135">
        <ele>17.8</ele>
        <time>2015-05-05T20:00:58Z</time>
      </trkpt>
      <trkpt lat="59.325046" lon="17.870284">
        <ele>17.7</ele>
        <time>2015-05-05T20:00:59Z</time>
      </trkpt>
      <trkpt lat="59.325093" lon="17.870447">
        <ele>17.6</ele>
        <time>2015-05-05T20:01:00Z</time>
      </trkpt>
      <trkpt lat="59.325147" lon="17.870602">
        <ele>17.6</ele>
        <time>2015-05-05T20:01:01Z</time>
      </trkpt>
      <trkpt lat="59.325186" lon="17.870751">
        <ele>17.5</ele>
        <time>2015-05-05T20:01:02Z</time>
      </trkpt>
      <trkpt lat="59.325232" lon="17.870937">
        <ele>17.4</ele>
        <time>2015-05-05T20:01:03Z</time>
      </trkpt>
      <trkpt lat="59.325268" lon="17.871101">
        <ele>17.3</ele>
        <time>2015-05-05T20:01:04Z</time>
      </trkpt>
      <trkpt lat="59.325298" lon="17.87127">
        <ele>17.1</ele>
        <time>2015-05-05T20:01:05Z</time>
      </trkpt>
      <trkpt lat="59.32533" lon="17.871424">
        <ele>16.9</ele>
        <time>2015-05-05T20:01:06Z</time>
      </trkpt>
      <trkpt lat="59.325355" lon="17.871616">
        <ele>16.7</ele>
        <time>2015-05-05T20:01:07Z</time>
      </trkpt>
      <trkpt lat="59.325379" lon="17.871786">
        <ele>16.5</ele>
        <time>2015-05-05T20:01:08Z</time>
      </trkpt>
      <trkpt lat="59.325415" lon="17.871919">
        <ele>16.2</ele>
        <time>2015-05-05T20:01:09Z</time>
      </trkpt>
      <trkpt lat="59.325445" lon="17.872105">
        <ele>16.3</ele>
        <time>2015-05-05T20:01:10Z</time>
      </trkpt>
      <trkpt lat="59.325466" lon="17.872269">
        <ele>16.4</ele>
        <time>2015-05-05T20:01:11Z</time>
      </trkpt>
      <trkpt lat="59.325487" lon="17.872435">
        <ele>16.6</ele>
        <time>2015-05-05T20:01:12Z</time>
      </trkpt>
      <trkpt lat="59.325518" lon="17.87261">
        <ele>16.8</ele>
        <time>2015-05-05T20:01:13Z</time>
      </trkpt>
      <trkpt lat="59.325543" lon="17.872777">
        <ele>17</ele>
        <time>2015-05-05T20:01:14Z</time>
      </trkpt>
      <trkpt lat="59.325567" lon="17.87294">
        <ele>17</ele>
        <time>2015-05-05T20:01:15Z</time>
      </trkpt>
      <trkpt lat="59.325589" lon="17.873095">
        <ele>16.9</ele>
        <time>2015-05-05T20:01:16Z</time>
      </trkpt>
      <trkpt lat="59.325608" lon="17.873258">
        <ele>16.8</ele>
        <time>2015-05-05T20:01:17Z</time>
      </trkpt>
      <trkpt lat="59.325633" lon="17.873422">
        <ele>16.6</ele>
        <time>2015-05-05T20:01:18Z</time>
      </trkpt>
      <trkpt lat="59.325659" lon="17.873589">
        <ele>16.5</ele>
        <time>2015-05-05T20:01:19Z</time>
      </trkpt>
      <trkpt lat="59.325681" lon="17.873736">
        <ele>16.3</ele>
        <time>2015-05-05T20:01:20Z</time>
      </trkpt>
      <trkpt lat="59.325719" lon="17.873883">
        <ele>16.3</ele>
        <time>2015-05-05T20:01:21Z</time>
      </trkpt>
      <trkpt lat="59.325748" lon="17.874031">
        <ele>16.3</ele>
        <time>2015-05-05T20:01:22Z</time>
      </trkpt>
      <trkpt lat="59.325772" lon="17.874177">
        <ele>16.3</ele>
        <time>2015-05-05T20:01:23Z</time>
      </trkpt>
      <trkpt lat="59.325787" lon="17.874331">
        <ele>16.2</ele>
        <time>2015-05-05T20:01:24Z</time>
      </trkpt>
      <trkpt lat="59.325819" lon="17.874492">
        <ele>16.1</ele>
        <time>2015-05-05T20:01:25Z</time>
      </trkpt>
      <trkpt lat="59.325846" lon="17.874663">
        <ele>15.9</ele>
        <time>2015-05-05T20:01:26Z</time>
      </trkpt>
      <trkpt lat="59.325863" lon="17.874836">
        <ele>15.7</ele>
        <time>2015-05-05T20:01:27Z</time>
      </trkpt>
      <trkpt lat="59.325887" lon="17.875002">
        <ele>15.6</ele>
        <time>2015-05-05T20:01:28Z</time>
      </trkpt>
      <trkpt lat="59.325907" lon="17.875159">
        <ele>15.4</ele>
        <time>2015-05-05T20:01:29Z</time>
      </trkpt>
      <trkpt lat="59.325939" lon="17.875354">
        <ele>15.1</ele>
        <time>2015-05-05T20:01:30Z</time>
      </trkpt>
      <trkpt lat="59.325962" lon="17.875529">
        <ele>15</ele>
        <time>2015-05-05T20:01:31Z</time>
      </trkpt>
      <trkpt lat="59.325981" lon="17.875686">
        <ele>15</ele>
        <time>2015-05-05T20:01:32Z</time>
      </trkpt>
      <trkpt lat="59.326005" lon="17.875845">
        <ele>15</ele>
        <time>2015-05-05T20:01:33Z</time>
      </trkpt>
      <trkpt lat="59.326028" lon="17.875995">
        <ele>15</ele>
        <time>2015-05-05T20:01:34Z</time>
      </trkpt>
      <trkpt lat="59.326047" lon="17.876132">
        <ele>15</ele>
        <time>2015-05-05T20:01:35Z</time>
      </trkpt>
      <trkpt lat="59.326069" lon="17.87628">
        <ele>15</ele>
        <time>2015-05-05T20:01:36Z</time>
      </trkpt>
      <trkpt lat="59.326093" lon="17.876413">
        <ele>14.8</ele>
        <time>2015-05-05T20:01:37Z</time>
      </trkpt>
      <trkpt lat="59.326093" lon="17.876548">
        <ele>14.7</ele>
        <time>2015-05-05T20:01:38Z</time>
      </trkpt>
      <trkpt lat="59.326132" lon="17.876677">
        <ele>14.6</ele>
        <time>2015-05-05T20:01:39Z</time>
      </trkpt>
      <trkpt lat="59.326151" lon="17.876791">
        <ele>14.4</ele>
        <time>2015-05-05T20:01:40Z</time>
      </trkpt>
      <trkpt lat="59.326185" lon="17.87691">
        <ele>14.3</ele>
        <time>2015-05-05T20:01:41Z</time>
      </trkpt>
      <trkpt lat="59.326211" lon="17.87705">
        <ele>14.1</ele>
        <time>2015-05-05T20:01:42Z</time>
      </trkpt>
      <trkpt lat="59.326226" lon="17.877173">
        <ele>13.8</ele>
        <time>2015-05-05T20:01:43Z</time>
      </trkpt>
      <trkpt lat="59.326245" lon="17.877351">
        <ele>13.4</ele>
        <time>2015-05-05T20:01:44Z</time>
      </trkpt>
      <trkpt lat="59.326257" lon="17.877469">
        <ele>13.1</ele>
        <time>2015-05-05T20:01:45Z</time>
      </trkpt>
      <trkpt lat="59.326271" lon="17.877599">
        <ele>12.7</ele>
        <time>2015-05-05T20:01:46Z</time>
      </trkpt>
      <trkpt lat="59.326286" lon="17.87769">
        <ele>12.5</ele>
        <time>2015-05-05T20:01:47Z</time>
      </trkpt>
      <trkpt lat="59.326306" lon="17.877805">
        <ele>12.2</ele>
        <time>2015-05-05T20:01:48Z</time>
      </trkpt>
      <trkpt lat="59.32632" lon="17.877898">
        <ele>12</ele>
        <time>2015-05-05T20:01:49Z</time>
      </trkpt>
      <trkpt lat="59.326324" lon="17.877973">
        <ele>11.8</ele>
        <time>2015-05-05T20:01:50Z</time>
      </trkpt>
      <trkpt lat="59.326332" lon="17.878033">
        <ele>11.6</ele>
        <time>2015-05-05T20:01:51Z</time>
      </trkpt>
      <trkpt lat="59.326341" lon="17.878105">
        <ele>11.5</ele>
        <time>2015-05-05T20:01:53Z</time>
      </trkpt>
      <trkpt lat="59.326322" lon="17.878057">
        <ele>11.6</ele>
        <time>2015-05-05T20:01:55Z</time>
      </trkpt>
      <trkpt lat="59.326306" lon="17.877977">
        <ele>11.8</ele>
        <time>2015-05-05T20:01:57Z</time>
      </trkpt>
      <trkpt lat="59.32628" lon="17.877995">
        <ele>11.8</ele>
        <time>2015-05-05T20:02:01Z</time>
      </trkpt>
      <trkpt lat="59.326253" lon="17.878013">
        <ele>11.8</ele>
        <time>2015-05-05T20:02:10Z</time>
      </trkpt>
      <trkpt lat="59.326225" lon="17.878049">
        <ele>11.8</ele>
        <time>2015-05-05T20:02:12Z</time>
      </trkpt>
      <trkpt lat="59.326195" lon="17.878115">
        <ele>11.8</ele>
        <time>2015-05-05T20:02:14Z</time>
      </trkpt>
      <trkpt lat="59.326182" lon="17.878169">
        <ele>11.7</ele>
        <time>2015-05-05T20:02:15Z</time>
      </trkpt>
      <trkpt lat="59.326183" lon="17.878228">
        <ele>11.6</ele>
        <time>2015-05-05T20:02:16Z</time>
      </trkpt>
      <trkpt lat="59.326186" lon="17.878286">
        <ele>11.4</ele>
        <time>2015-05-05T20:02:17Z</time>
      </trkpt>
      <trkpt lat="59.32619" lon="17.878346">
        <ele>11.3</ele>
        <time>2015-05-05T20:02:18Z</time>
      </trkpt>
      <trkpt lat="59.326194" lon="17.878406">
        <ele>11.1</ele>
        <time>2015-05-05T20:02:19Z</time>
      </trkpt>
      <trkpt lat="59.326199" lon="17.878459">
        <ele>11</ele>
        <time>2015-05-05T20:02:20Z</time>
      </trkpt>
      <trkpt lat="59.326201" lon="17.878553">
        <ele>10.7</ele>
        <time>2015-05-05T20:02:22Z</time>
      </trkpt>
      <trkpt lat="59.32619" lon="17.878622">
        <ele>10.6</ele>
        <time>2015-05-05T20:02:26Z</time>
      </trkpt>
    </trkseg>
  </trk>
</gpx>